<?xml version="1.0" encoding="UTF-8" standalone="no" ?>
<gpx xmlns="http://www.topografix.com/GPX/1/1" xmlns:xsi="http://www.w3.org/2001/XMLSchema-instance" xsi:schemaLocation="http://www.topografix.com/GPX/1/1 http://www.topografix.com/GPX/1/1/gpx.xsd" version="1.1" creator="VisuGPX - https://www.visugpx.com">
  <metadata>
    <name>Vosges - Pyrénées 80. De Saint-Papoul à Fanjeaux</name>
    <desc><![CDATA[Trace AlpineQuest 27/05/2026 06:35:24]]></desc>
  </metadata>
  <trk>
    <name><![CDATA[visugpx_iPi9XhXzQB_1]]></name>
    <extensions>
      <line xmlns="http://www.topografix.com/GPX/gpx_style/0/2">
        <color>0000FF</color>
        <width>4</width>
      </line>
    </extensions>
    <trkseg>
      <trkpt lat="43.33151" lon="2.03446">
        <ele>172.7</ele>
        <time>2026-05-27T04:35:23Z</time>
      </trkpt>
      <trkpt lat="43.33142" lon="2.03444">
        <ele>172.5</ele>
        <time>2026-05-27T04:35:29Z</time>
      </trkpt>
      <trkpt lat="43.33142" lon="2.03449">
        <ele>172.5</ele>
        <time>2026-05-27T04:35:35Z</time>
      </trkpt>
      <trkpt lat="43.3314" lon="2.0345">
        <ele>172.5</ele>
        <time>2026-05-27T04:35:40Z</time>
      </trkpt>
      <trkpt lat="43.3314" lon="2.03451">
        <ele>172.5</ele>
        <time>2026-05-27T04:35:45Z</time>
      </trkpt>
      <trkpt lat="43.3314" lon="2.03456">
        <ele>172.5</ele>
        <time>2026-05-27T04:35:50Z</time>
      </trkpt>
      <trkpt lat="43.33141" lon="2.03462">
        <ele>172.6</ele>
        <time>2026-05-27T04:35:55Z</time>
      </trkpt>
      <trkpt lat="43.33141" lon="2.03468">
        <ele>172.6</ele>
        <time>2026-05-27T04:36:00Z</time>
      </trkpt>
      <trkpt lat="43.33138" lon="2.03474">
        <ele>172.5</ele>
        <time>2026-05-27T04:36:05Z</time>
      </trkpt>
      <trkpt lat="43.33138" lon="2.03479">
        <ele>172.6</ele>
        <time>2026-05-27T04:36:10Z</time>
      </trkpt>
      <trkpt lat="43.33135" lon="2.03482">
        <ele>172.5</ele>
        <time>2026-05-27T04:36:15Z</time>
      </trkpt>
      <trkpt lat="43.33129" lon="2.03486">
        <ele>172.5</ele>
        <time>2026-05-27T04:36:20Z</time>
      </trkpt>
      <trkpt lat="43.33122" lon="2.0349">
        <ele>172.4</ele>
        <time>2026-05-27T04:36:25Z</time>
      </trkpt>
      <trkpt lat="43.33117" lon="2.03487">
        <ele>172.3</ele>
        <time>2026-05-27T04:36:30Z</time>
      </trkpt>
      <trkpt lat="43.33114" lon="2.03487">
        <ele>172.3</ele>
        <time>2026-05-27T04:36:35Z</time>
      </trkpt>
      <trkpt lat="43.3311" lon="2.03487">
        <ele>172.2</ele>
        <time>2026-05-27T04:36:40Z</time>
      </trkpt>
      <trkpt lat="43.33106" lon="2.0349">
        <ele>172.2</ele>
        <time>2026-05-27T04:36:45Z</time>
      </trkpt>
      <trkpt lat="43.33099" lon="2.03489">
        <ele>172.1</ele>
        <time>2026-05-27T04:36:50Z</time>
      </trkpt>
      <trkpt lat="43.33092" lon="2.03487">
        <ele>172</ele>
        <time>2026-05-27T04:36:55Z</time>
      </trkpt>
      <trkpt lat="43.33085" lon="2.03488">
        <ele>171.9</ele>
        <time>2026-05-27T04:37:00Z</time>
      </trkpt>
      <trkpt lat="43.3308" lon="2.03488">
        <ele>171.9</ele>
        <time>2026-05-27T04:37:05Z</time>
      </trkpt>
      <trkpt lat="43.33074" lon="2.03488">
        <ele>172</ele>
        <time>2026-05-27T04:37:10Z</time>
      </trkpt>
      <trkpt lat="43.3307" lon="2.03488">
        <ele>172.1</ele>
        <time>2026-05-27T04:37:15Z</time>
      </trkpt>
      <trkpt lat="43.33064" lon="2.03488">
        <ele>172.3</ele>
        <time>2026-05-27T04:37:20Z</time>
      </trkpt>
      <trkpt lat="43.33058" lon="2.03488">
        <ele>172.4</ele>
        <time>2026-05-27T04:37:25Z</time>
      </trkpt>
      <trkpt lat="43.33054" lon="2.03488">
        <ele>172.5</ele>
        <time>2026-05-27T04:37:30Z</time>
      </trkpt>
      <trkpt lat="43.33049" lon="2.03484">
        <ele>172.5</ele>
        <time>2026-05-27T04:37:35Z</time>
      </trkpt>
      <trkpt lat="43.33044" lon="2.03479">
        <ele>172.5</ele>
        <time>2026-05-27T04:37:40Z</time>
      </trkpt>
      <trkpt lat="43.33039" lon="2.03477">
        <ele>172.5</ele>
        <time>2026-05-27T04:37:45Z</time>
      </trkpt>
      <trkpt lat="43.33035" lon="2.03474">
        <ele>172.5</ele>
        <time>2026-05-27T04:37:50Z</time>
      </trkpt>
      <trkpt lat="43.3303" lon="2.03476">
        <ele>172.6</ele>
        <time>2026-05-27T04:37:55Z</time>
      </trkpt>
      <trkpt lat="43.33025" lon="2.03475">
        <ele>172.7</ele>
        <time>2026-05-27T04:38:00Z</time>
      </trkpt>
      <trkpt lat="43.33021" lon="2.03471">
        <ele>172.6</ele>
        <time>2026-05-27T04:38:05Z</time>
      </trkpt>
      <trkpt lat="43.33018" lon="2.03467">
        <ele>172.6</ele>
        <time>2026-05-27T04:38:10Z</time>
      </trkpt>
      <trkpt lat="43.33011" lon="2.03466">
        <ele>172.6</ele>
        <time>2026-05-27T04:38:15Z</time>
      </trkpt>
      <trkpt lat="43.33004" lon="2.03467">
        <ele>172.8</ele>
        <time>2026-05-27T04:38:20Z</time>
      </trkpt>
      <trkpt lat="43.33" lon="2.03464">
        <ele>172.7</ele>
        <time>2026-05-27T04:38:25Z</time>
      </trkpt>
      <trkpt lat="43.32995" lon="2.03462">
        <ele>172.9</ele>
        <time>2026-05-27T04:38:30Z</time>
      </trkpt>
      <trkpt lat="43.32989" lon="2.03463">
        <ele>173.3</ele>
        <time>2026-05-27T04:38:35Z</time>
      </trkpt>
      <trkpt lat="43.32982" lon="2.03461">
        <ele>173.6</ele>
        <time>2026-05-27T04:38:40Z</time>
      </trkpt>
      <trkpt lat="43.32976" lon="2.03457">
        <ele>173.7</ele>
        <time>2026-05-27T04:38:45Z</time>
      </trkpt>
      <trkpt lat="43.32971" lon="2.03452">
        <ele>173.8</ele>
        <time>2026-05-27T04:38:50Z</time>
      </trkpt>
      <trkpt lat="43.32966" lon="2.03449">
        <ele>173.9</ele>
        <time>2026-05-27T04:38:55Z</time>
      </trkpt>
      <trkpt lat="43.3296" lon="2.03448">
        <ele>174.1</ele>
        <time>2026-05-27T04:39:00Z</time>
      </trkpt>
      <trkpt lat="43.32956" lon="2.03443">
        <ele>174</ele>
        <time>2026-05-27T04:39:05Z</time>
      </trkpt>
      <trkpt lat="43.32951" lon="2.03442">
        <ele>174.2</ele>
        <time>2026-05-27T04:39:10Z</time>
      </trkpt>
      <trkpt lat="43.32947" lon="2.0344">
        <ele>174.3</ele>
        <time>2026-05-27T04:39:15Z</time>
      </trkpt>
      <trkpt lat="43.32942" lon="2.0344">
        <ele>174.5</ele>
        <time>2026-05-27T04:39:20Z</time>
      </trkpt>
      <trkpt lat="43.32937" lon="2.03438">
        <ele>174.6</ele>
        <time>2026-05-27T04:39:25Z</time>
      </trkpt>
      <trkpt lat="43.32932" lon="2.03435">
        <ele>174.6</ele>
        <time>2026-05-27T04:39:30Z</time>
      </trkpt>
      <trkpt lat="43.32927" lon="2.03431">
        <ele>174.6</ele>
        <time>2026-05-27T04:39:35Z</time>
      </trkpt>
      <trkpt lat="43.32923" lon="2.03428">
        <ele>174.6</ele>
        <time>2026-05-27T04:39:40Z</time>
      </trkpt>
      <trkpt lat="43.32919" lon="2.03424">
        <ele>174.4</ele>
        <time>2026-05-27T04:39:45Z</time>
      </trkpt>
      <trkpt lat="43.32914" lon="2.03419">
        <ele>174.2</ele>
        <time>2026-05-27T04:39:50Z</time>
      </trkpt>
      <trkpt lat="43.3291" lon="2.03414">
        <ele>173.9</ele>
        <time>2026-05-27T04:39:55Z</time>
      </trkpt>
      <trkpt lat="43.32906" lon="2.03408">
        <ele>173.6</ele>
        <time>2026-05-27T04:40:00Z</time>
      </trkpt>
      <trkpt lat="43.32903" lon="2.03401">
        <ele>173.2</ele>
        <time>2026-05-27T04:40:05Z</time>
      </trkpt>
      <trkpt lat="43.32901" lon="2.03394">
        <ele>172.7</ele>
        <time>2026-05-27T04:40:10Z</time>
      </trkpt>
      <trkpt lat="43.32899" lon="2.03386">
        <ele>172.2</ele>
        <time>2026-05-27T04:40:15Z</time>
      </trkpt>
      <trkpt lat="43.32898" lon="2.03379">
        <ele>171.8</ele>
        <time>2026-05-27T04:40:20Z</time>
      </trkpt>
      <trkpt lat="43.32897" lon="2.03371">
        <ele>171.2</ele>
        <time>2026-05-27T04:40:25Z</time>
      </trkpt>
      <trkpt lat="43.32895" lon="2.03362">
        <ele>170.6</ele>
        <time>2026-05-27T04:40:30Z</time>
      </trkpt>
      <trkpt lat="43.32894" lon="2.03354">
        <ele>170.1</ele>
        <time>2026-05-27T04:40:35Z</time>
      </trkpt>
      <trkpt lat="43.32892" lon="2.03344">
        <ele>169.4</ele>
        <time>2026-05-27T04:40:40Z</time>
      </trkpt>
      <trkpt lat="43.32889" lon="2.03338">
        <ele>169</ele>
        <time>2026-05-27T04:40:45Z</time>
      </trkpt>
      <trkpt lat="43.32891" lon="2.03332">
        <ele>168.7</ele>
        <time>2026-05-27T04:40:50Z</time>
      </trkpt>
      <trkpt lat="43.32894" lon="2.03329">
        <ele>168.7</ele>
        <time>2026-05-27T04:40:55Z</time>
      </trkpt>
      <trkpt lat="43.32895" lon="2.03327">
        <ele>168.7</ele>
        <time>2026-05-27T04:41:00Z</time>
      </trkpt>
      <trkpt lat="43.32895" lon="2.03323">
        <ele>168.6</ele>
        <time>2026-05-27T04:41:05Z</time>
      </trkpt>
      <trkpt lat="43.32895" lon="2.03323">
        <ele>168.6</ele>
        <time>2026-05-27T04:41:10Z</time>
      </trkpt>
      <trkpt lat="43.32894" lon="2.03318">
        <ele>168.6</ele>
        <time>2026-05-27T04:41:15Z</time>
      </trkpt>
      <trkpt lat="43.32888" lon="2.03308">
        <ele>168.3</ele>
        <time>2026-05-27T04:41:20Z</time>
      </trkpt>
      <trkpt lat="43.32886" lon="2.03302">
        <ele>168.2</ele>
        <time>2026-05-27T04:41:25Z</time>
      </trkpt>
      <trkpt lat="43.32887" lon="2.033">
        <ele>168.2</ele>
        <time>2026-05-27T04:41:30Z</time>
      </trkpt>
      <trkpt lat="43.32886" lon="2.03294">
        <ele>168.1</ele>
        <time>2026-05-27T04:41:35Z</time>
      </trkpt>
      <trkpt lat="43.32887" lon="2.03288">
        <ele>168.1</ele>
        <time>2026-05-27T04:41:40Z</time>
      </trkpt>
      <trkpt lat="43.32887" lon="2.0328">
        <ele>168</ele>
        <time>2026-05-27T04:41:45Z</time>
      </trkpt>
      <trkpt lat="43.32885" lon="2.03271">
        <ele>167.8</ele>
        <time>2026-05-27T04:41:50Z</time>
      </trkpt>
      <trkpt lat="43.32888" lon="2.03261">
        <ele>167.8</ele>
        <time>2026-05-27T04:41:55Z</time>
      </trkpt>
      <trkpt lat="43.32887" lon="2.03251">
        <ele>167.6</ele>
        <time>2026-05-27T04:42:00Z</time>
      </trkpt>
      <trkpt lat="43.32887" lon="2.03245">
        <ele>167.7</ele>
        <time>2026-05-27T04:42:05Z</time>
      </trkpt>
      <trkpt lat="43.32886" lon="2.03236">
        <ele>167.9</ele>
        <time>2026-05-27T04:42:10Z</time>
      </trkpt>
      <trkpt lat="43.32884" lon="2.0323">
        <ele>168</ele>
        <time>2026-05-27T04:42:15Z</time>
      </trkpt>
      <trkpt lat="43.32884" lon="2.03224">
        <ele>168.2</ele>
        <time>2026-05-27T04:42:20Z</time>
      </trkpt>
      <trkpt lat="43.32885" lon="2.03215">
        <ele>168.5</ele>
        <time>2026-05-27T04:42:25Z</time>
      </trkpt>
      <trkpt lat="43.32885" lon="2.03205">
        <ele>168.8</ele>
        <time>2026-05-27T04:42:30Z</time>
      </trkpt>
      <trkpt lat="43.32885" lon="2.032">
        <ele>168.9</ele>
        <time>2026-05-27T04:42:35Z</time>
      </trkpt>
      <trkpt lat="43.32883" lon="2.03191">
        <ele>169.1</ele>
        <time>2026-05-27T04:42:40Z</time>
      </trkpt>
      <trkpt lat="43.32881" lon="2.03183">
        <ele>169.2</ele>
        <time>2026-05-27T04:42:45Z</time>
      </trkpt>
      <trkpt lat="43.32881" lon="2.03176">
        <ele>169.4</ele>
        <time>2026-05-27T04:42:50Z</time>
      </trkpt>
      <trkpt lat="43.3288" lon="2.0317">
        <ele>169.6</ele>
        <time>2026-05-27T04:42:55Z</time>
      </trkpt>
      <trkpt lat="43.3288" lon="2.03163">
        <ele>170</ele>
        <time>2026-05-27T04:43:00Z</time>
      </trkpt>
      <trkpt lat="43.32879" lon="2.03154">
        <ele>170.7</ele>
        <time>2026-05-27T04:43:05Z</time>
      </trkpt>
      <trkpt lat="43.32879" lon="2.03146">
        <ele>171.4</ele>
        <time>2026-05-27T04:43:10Z</time>
      </trkpt>
      <trkpt lat="43.32879" lon="2.03139">
        <ele>171.9</ele>
        <time>2026-05-27T04:43:15Z</time>
      </trkpt>
      <trkpt lat="43.32879" lon="2.03133">
        <ele>172.4</ele>
        <time>2026-05-27T04:43:20Z</time>
      </trkpt>
      <trkpt lat="43.32878" lon="2.03126">
        <ele>173</ele>
        <time>2026-05-27T04:43:25Z</time>
      </trkpt>
      <trkpt lat="43.32878" lon="2.03117">
        <ele>173.7</ele>
        <time>2026-05-27T04:43:30Z</time>
      </trkpt>
      <trkpt lat="43.32877" lon="2.0311">
        <ele>174.3</ele>
        <time>2026-05-27T04:43:35Z</time>
      </trkpt>
      <trkpt lat="43.32876" lon="2.03106">
        <ele>174.6</ele>
        <time>2026-05-27T04:43:40Z</time>
      </trkpt>
      <trkpt lat="43.32877" lon="2.03099">
        <ele>175.2</ele>
        <time>2026-05-27T04:43:45Z</time>
      </trkpt>
      <trkpt lat="43.32876" lon="2.03089">
        <ele>176</ele>
        <time>2026-05-27T04:43:50Z</time>
      </trkpt>
      <trkpt lat="43.32875" lon="2.03081">
        <ele>176.4</ele>
        <time>2026-05-27T04:43:55Z</time>
      </trkpt>
      <trkpt lat="43.32873" lon="2.03074">
        <ele>176.2</ele>
        <time>2026-05-27T04:44:00Z</time>
      </trkpt>
      <trkpt lat="43.32871" lon="2.03065">
        <ele>175.9</ele>
        <time>2026-05-27T04:44:05Z</time>
      </trkpt>
      <trkpt lat="43.3287" lon="2.03056">
        <ele>175.6</ele>
        <time>2026-05-27T04:44:10Z</time>
      </trkpt>
      <trkpt lat="43.32869" lon="2.03047">
        <ele>175.4</ele>
        <time>2026-05-27T04:44:15Z</time>
      </trkpt>
      <trkpt lat="43.32864" lon="2.03042">
        <ele>175.2</ele>
        <time>2026-05-27T04:44:20Z</time>
      </trkpt>
      <trkpt lat="43.3286" lon="2.03041">
        <ele>175.1</ele>
        <time>2026-05-27T04:44:25Z</time>
      </trkpt>
      <trkpt lat="43.32855" lon="2.0304">
        <ele>175.1</ele>
        <time>2026-05-27T04:44:30Z</time>
      </trkpt>
      <trkpt lat="43.32849" lon="2.03037">
        <ele>175</ele>
        <time>2026-05-27T04:44:35Z</time>
      </trkpt>
      <trkpt lat="43.32843" lon="2.03037">
        <ele>174.9</ele>
        <time>2026-05-27T04:44:40Z</time>
      </trkpt>
      <trkpt lat="43.32838" lon="2.03037">
        <ele>174.9</ele>
        <time>2026-05-27T04:44:45Z</time>
      </trkpt>
      <trkpt lat="43.32834" lon="2.03039">
        <ele>174.9</ele>
        <time>2026-05-27T04:44:50Z</time>
      </trkpt>
      <trkpt lat="43.32829" lon="2.03041">
        <ele>174.9</ele>
        <time>2026-05-27T04:44:55Z</time>
      </trkpt>
      <trkpt lat="43.32824" lon="2.03043">
        <ele>174.9</ele>
        <time>2026-05-27T04:45:00Z</time>
      </trkpt>
      <trkpt lat="43.32818" lon="2.03045">
        <ele>174.8</ele>
        <time>2026-05-27T04:45:05Z</time>
      </trkpt>
      <trkpt lat="43.32813" lon="2.03046">
        <ele>174.7</ele>
        <time>2026-05-27T04:45:10Z</time>
      </trkpt>
      <trkpt lat="43.32807" lon="2.03048">
        <ele>174.7</ele>
        <time>2026-05-27T04:45:15Z</time>
      </trkpt>
      <trkpt lat="43.32802" lon="2.0305">
        <ele>174.6</ele>
        <time>2026-05-27T04:45:20Z</time>
      </trkpt>
      <trkpt lat="43.32795" lon="2.03051">
        <ele>174.5</ele>
        <time>2026-05-27T04:45:25Z</time>
      </trkpt>
      <trkpt lat="43.32788" lon="2.03051">
        <ele>174.3</ele>
        <time>2026-05-27T04:45:30Z</time>
      </trkpt>
      <trkpt lat="43.32782" lon="2.03052">
        <ele>174.2</ele>
        <time>2026-05-27T04:45:35Z</time>
      </trkpt>
      <trkpt lat="43.32776" lon="2.03053">
        <ele>174.1</ele>
        <time>2026-05-27T04:45:40Z</time>
      </trkpt>
      <trkpt lat="43.32772" lon="2.03053">
        <ele>174.1</ele>
        <time>2026-05-27T04:45:45Z</time>
      </trkpt>
      <trkpt lat="43.32767" lon="2.03055">
        <ele>174</ele>
        <time>2026-05-27T04:45:50Z</time>
      </trkpt>
      <trkpt lat="43.32762" lon="2.03055">
        <ele>173.9</ele>
        <time>2026-05-27T04:45:55Z</time>
      </trkpt>
      <trkpt lat="43.32756" lon="2.03057">
        <ele>173.8</ele>
        <time>2026-05-27T04:46:00Z</time>
      </trkpt>
      <trkpt lat="43.32754" lon="2.03057">
        <ele>173.8</ele>
        <time>2026-05-27T04:46:05Z</time>
      </trkpt>
      <trkpt lat="43.32753" lon="2.03057">
        <ele>173.7</ele>
        <time>2026-05-27T04:46:10Z</time>
      </trkpt>
      <trkpt lat="43.32753" lon="2.03057">
        <ele>173.7</ele>
        <time>2026-05-27T04:46:15Z</time>
      </trkpt>
      <trkpt lat="43.32747" lon="2.03058">
        <ele>173.6</ele>
        <time>2026-05-27T04:46:20Z</time>
      </trkpt>
      <trkpt lat="43.32742" lon="2.03059">
        <ele>173.4</ele>
        <time>2026-05-27T04:46:25Z</time>
      </trkpt>
      <trkpt lat="43.32736" lon="2.03061">
        <ele>173.3</ele>
        <time>2026-05-27T04:46:30Z</time>
      </trkpt>
      <trkpt lat="43.3273" lon="2.03061">
        <ele>173.1</ele>
        <time>2026-05-27T04:46:35Z</time>
      </trkpt>
      <trkpt lat="43.32724" lon="2.03064">
        <ele>172.9</ele>
        <time>2026-05-27T04:46:40Z</time>
      </trkpt>
      <trkpt lat="43.32718" lon="2.03067">
        <ele>172.7</ele>
        <time>2026-05-27T04:46:45Z</time>
      </trkpt>
      <trkpt lat="43.32713" lon="2.03068">
        <ele>172.6</ele>
        <time>2026-05-27T04:46:50Z</time>
      </trkpt>
      <trkpt lat="43.32706" lon="2.0307">
        <ele>172.3</ele>
        <time>2026-05-27T04:46:55Z</time>
      </trkpt>
      <trkpt lat="43.327" lon="2.03071">
        <ele>172.1</ele>
        <time>2026-05-27T04:47:00Z</time>
      </trkpt>
      <trkpt lat="43.32695" lon="2.03071">
        <ele>172</ele>
        <time>2026-05-27T04:47:05Z</time>
      </trkpt>
      <trkpt lat="43.32688" lon="2.03072">
        <ele>171.7</ele>
        <time>2026-05-27T04:47:10Z</time>
      </trkpt>
      <trkpt lat="43.32684" lon="2.03073">
        <ele>171.6</ele>
        <time>2026-05-27T04:47:15Z</time>
      </trkpt>
      <trkpt lat="43.32678" lon="2.03073">
        <ele>171.4</ele>
        <time>2026-05-27T04:47:20Z</time>
      </trkpt>
      <trkpt lat="43.32672" lon="2.03073">
        <ele>171.2</ele>
        <time>2026-05-27T04:47:25Z</time>
      </trkpt>
      <trkpt lat="43.32666" lon="2.03073">
        <ele>171</ele>
        <time>2026-05-27T04:47:30Z</time>
      </trkpt>
      <trkpt lat="43.32661" lon="2.03073">
        <ele>171</ele>
        <time>2026-05-27T04:47:35Z</time>
      </trkpt>
      <trkpt lat="43.32655" lon="2.03073">
        <ele>171.1</ele>
        <time>2026-05-27T04:47:40Z</time>
      </trkpt>
      <trkpt lat="43.3265" lon="2.03072">
        <ele>171.1</ele>
        <time>2026-05-27T04:47:45Z</time>
      </trkpt>
      <trkpt lat="43.32644" lon="2.03072">
        <ele>171.1</ele>
        <time>2026-05-27T04:47:50Z</time>
      </trkpt>
      <trkpt lat="43.32638" lon="2.03073">
        <ele>171.2</ele>
        <time>2026-05-27T04:47:55Z</time>
      </trkpt>
      <trkpt lat="43.32632" lon="2.03071">
        <ele>171.2</ele>
        <time>2026-05-27T04:48:00Z</time>
      </trkpt>
      <trkpt lat="43.32625" lon="2.03072">
        <ele>171.3</ele>
        <time>2026-05-27T04:48:05Z</time>
      </trkpt>
      <trkpt lat="43.32621" lon="2.03073">
        <ele>171.3</ele>
        <time>2026-05-27T04:48:10Z</time>
      </trkpt>
      <trkpt lat="43.32616" lon="2.03072">
        <ele>171.3</ele>
        <time>2026-05-27T04:48:15Z</time>
      </trkpt>
      <trkpt lat="43.32611" lon="2.03073">
        <ele>171.3</ele>
        <time>2026-05-27T04:48:20Z</time>
      </trkpt>
      <trkpt lat="43.32604" lon="2.03072">
        <ele>171.4</ele>
        <time>2026-05-27T04:48:25Z</time>
      </trkpt>
      <trkpt lat="43.32598" lon="2.03071">
        <ele>171.5</ele>
        <time>2026-05-27T04:48:30Z</time>
      </trkpt>
      <trkpt lat="43.32592" lon="2.03069">
        <ele>171.6</ele>
        <time>2026-05-27T04:48:35Z</time>
      </trkpt>
      <trkpt lat="43.32585" lon="2.03067">
        <ele>171.8</ele>
        <time>2026-05-27T04:48:40Z</time>
      </trkpt>
      <trkpt lat="43.3258" lon="2.03065">
        <ele>172</ele>
        <time>2026-05-27T04:48:45Z</time>
      </trkpt>
      <trkpt lat="43.32575" lon="2.03062">
        <ele>172.2</ele>
        <time>2026-05-27T04:48:50Z</time>
      </trkpt>
      <trkpt lat="43.32571" lon="2.03059">
        <ele>172.5</ele>
        <time>2026-05-27T04:48:55Z</time>
      </trkpt>
      <trkpt lat="43.32565" lon="2.03057">
        <ele>172.7</ele>
        <time>2026-05-27T04:49:00Z</time>
      </trkpt>
      <trkpt lat="43.3256" lon="2.03054">
        <ele>173</ele>
        <time>2026-05-27T04:49:05Z</time>
      </trkpt>
      <trkpt lat="43.32554" lon="2.0305">
        <ele>173.3</ele>
        <time>2026-05-27T04:49:10Z</time>
      </trkpt>
      <trkpt lat="43.32548" lon="2.03047">
        <ele>173.6</ele>
        <time>2026-05-27T04:49:15Z</time>
      </trkpt>
      <trkpt lat="43.32542" lon="2.03043">
        <ele>173.9</ele>
        <time>2026-05-27T04:49:20Z</time>
      </trkpt>
      <trkpt lat="43.32537" lon="2.03041">
        <ele>174.1</ele>
        <time>2026-05-27T04:49:25Z</time>
      </trkpt>
      <trkpt lat="43.32531" lon="2.03038">
        <ele>174.4</ele>
        <time>2026-05-27T04:49:30Z</time>
      </trkpt>
      <trkpt lat="43.32525" lon="2.03036">
        <ele>174.7</ele>
        <time>2026-05-27T04:49:35Z</time>
      </trkpt>
      <trkpt lat="43.32518" lon="2.03034">
        <ele>174.9</ele>
        <time>2026-05-27T04:49:40Z</time>
      </trkpt>
      <trkpt lat="43.32513" lon="2.03032">
        <ele>175.2</ele>
        <time>2026-05-27T04:49:45Z</time>
      </trkpt>
      <trkpt lat="43.32507" lon="2.03031">
        <ele>175.3</ele>
        <time>2026-05-27T04:49:50Z</time>
      </trkpt>
      <trkpt lat="43.32501" lon="2.0303">
        <ele>175.5</ele>
        <time>2026-05-27T04:49:55Z</time>
      </trkpt>
      <trkpt lat="43.32496" lon="2.03028">
        <ele>175.8</ele>
        <time>2026-05-27T04:50:00Z</time>
      </trkpt>
      <trkpt lat="43.3249" lon="2.03026">
        <ele>176</ele>
        <time>2026-05-27T04:50:05Z</time>
      </trkpt>
      <trkpt lat="43.32484" lon="2.03024">
        <ele>176.3</ele>
        <time>2026-05-27T04:50:10Z</time>
      </trkpt>
      <trkpt lat="43.32479" lon="2.03023">
        <ele>176.6</ele>
        <time>2026-05-27T04:50:15Z</time>
      </trkpt>
      <trkpt lat="43.32475" lon="2.0302">
        <ele>176.9</ele>
        <time>2026-05-27T04:50:20Z</time>
      </trkpt>
      <trkpt lat="43.32469" lon="2.03019">
        <ele>177.2</ele>
        <time>2026-05-27T04:50:25Z</time>
      </trkpt>
      <trkpt lat="43.32463" lon="2.03019">
        <ele>177.4</ele>
        <time>2026-05-27T04:50:30Z</time>
      </trkpt>
      <trkpt lat="43.32458" lon="2.03019">
        <ele>177.5</ele>
        <time>2026-05-27T04:50:35Z</time>
      </trkpt>
      <trkpt lat="43.32451" lon="2.03018">
        <ele>177.9</ele>
        <time>2026-05-27T04:50:40Z</time>
      </trkpt>
      <trkpt lat="43.32445" lon="2.03017">
        <ele>178.2</ele>
        <time>2026-05-27T04:50:45Z</time>
      </trkpt>
      <trkpt lat="43.32439" lon="2.03015">
        <ele>178.5</ele>
        <time>2026-05-27T04:50:50Z</time>
      </trkpt>
      <trkpt lat="43.32433" lon="2.03013">
        <ele>179</ele>
        <time>2026-05-27T04:50:55Z</time>
      </trkpt>
      <trkpt lat="43.32427" lon="2.0301">
        <ele>179.5</ele>
        <time>2026-05-27T04:51:00Z</time>
      </trkpt>
      <trkpt lat="43.32421" lon="2.03009">
        <ele>179.8</ele>
        <time>2026-05-27T04:51:05Z</time>
      </trkpt>
      <trkpt lat="43.32416" lon="2.03006">
        <ele>180.4</ele>
        <time>2026-05-27T04:51:10Z</time>
      </trkpt>
      <trkpt lat="43.3241" lon="2.03004">
        <ele>181.3</ele>
        <time>2026-05-27T04:51:15Z</time>
      </trkpt>
      <trkpt lat="43.32404" lon="2.03001">
        <ele>182.3</ele>
        <time>2026-05-27T04:51:20Z</time>
      </trkpt>
      <trkpt lat="43.32398" lon="2.02997">
        <ele>183.3</ele>
        <time>2026-05-27T04:51:25Z</time>
      </trkpt>
      <trkpt lat="43.32391" lon="2.02995">
        <ele>184.2</ele>
        <time>2026-05-27T04:51:30Z</time>
      </trkpt>
      <trkpt lat="43.32385" lon="2.02992">
        <ele>185.1</ele>
        <time>2026-05-27T04:51:35Z</time>
      </trkpt>
      <trkpt lat="43.3238" lon="2.02991">
        <ele>185.6</ele>
        <time>2026-05-27T04:51:40Z</time>
      </trkpt>
      <trkpt lat="43.32374" lon="2.0299">
        <ele>186.3</ele>
        <time>2026-05-27T04:51:45Z</time>
      </trkpt>
      <trkpt lat="43.32368" lon="2.02989">
        <ele>187</ele>
        <time>2026-05-27T04:51:50Z</time>
      </trkpt>
      <trkpt lat="43.32366" lon="2.02989">
        <ele>187.2</ele>
        <time>2026-05-27T04:51:55Z</time>
      </trkpt>
      <trkpt lat="43.32366" lon="2.02989">
        <ele>187.2</ele>
        <time>2026-05-27T04:52:00Z</time>
      </trkpt>
      <trkpt lat="43.32366" lon="2.02989">
        <ele>187.2</ele>
        <time>2026-05-27T04:52:05Z</time>
      </trkpt>
      <trkpt lat="43.32366" lon="2.02989">
        <ele>187.2</ele>
        <time>2026-05-27T04:52:10Z</time>
      </trkpt>
      <trkpt lat="43.32366" lon="2.02989">
        <ele>187.2</ele>
        <time>2026-05-27T04:52:15Z</time>
      </trkpt>
      <trkpt lat="43.32366" lon="2.02989">
        <ele>187.2</ele>
        <time>2026-05-27T04:52:20Z</time>
      </trkpt>
      <trkpt lat="43.32366" lon="2.02989">
        <ele>187.2</ele>
        <time>2026-05-27T04:52:25Z</time>
      </trkpt>
      <trkpt lat="43.32366" lon="2.02989">
        <ele>187.2</ele>
        <time>2026-05-27T04:52:30Z</time>
      </trkpt>
      <trkpt lat="43.32363" lon="2.0299">
        <ele>187.4</ele>
        <time>2026-05-27T04:52:35Z</time>
      </trkpt>
      <trkpt lat="43.32358" lon="2.02991">
        <ele>187.9</ele>
        <time>2026-05-27T04:52:40Z</time>
      </trkpt>
      <trkpt lat="43.32353" lon="2.02994">
        <ele>188.2</ele>
        <time>2026-05-27T04:52:45Z</time>
      </trkpt>
      <trkpt lat="43.32347" lon="2.02997">
        <ele>188.7</ele>
        <time>2026-05-27T04:52:50Z</time>
      </trkpt>
      <trkpt lat="43.32342" lon="2.03">
        <ele>189.1</ele>
        <time>2026-05-27T04:52:55Z</time>
      </trkpt>
      <trkpt lat="43.32336" lon="2.03004">
        <ele>189.2</ele>
        <time>2026-05-27T04:53:00Z</time>
      </trkpt>
      <trkpt lat="43.3233" lon="2.03008">
        <ele>189</ele>
        <time>2026-05-27T04:53:05Z</time>
      </trkpt>
      <trkpt lat="43.32326" lon="2.0301">
        <ele>188.9</ele>
        <time>2026-05-27T04:53:10Z</time>
      </trkpt>
      <trkpt lat="43.32321" lon="2.03012">
        <ele>188.8</ele>
        <time>2026-05-27T04:53:15Z</time>
      </trkpt>
      <trkpt lat="43.32315" lon="2.03014">
        <ele>188.7</ele>
        <time>2026-05-27T04:53:20Z</time>
      </trkpt>
      <trkpt lat="43.3231" lon="2.03017">
        <ele>188.6</ele>
        <time>2026-05-27T04:53:25Z</time>
      </trkpt>
      <trkpt lat="43.32303" lon="2.03016">
        <ele>188.9</ele>
        <time>2026-05-27T04:53:30Z</time>
      </trkpt>
      <trkpt lat="43.32299" lon="2.03017">
        <ele>188.9</ele>
        <time>2026-05-27T04:53:35Z</time>
      </trkpt>
      <trkpt lat="43.32296" lon="2.03014">
        <ele>189.3</ele>
        <time>2026-05-27T04:53:40Z</time>
      </trkpt>
      <trkpt lat="43.32291" lon="2.03014">
        <ele>189.4</ele>
        <time>2026-05-27T04:53:45Z</time>
      </trkpt>
      <trkpt lat="43.32288" lon="2.03011">
        <ele>189.7</ele>
        <time>2026-05-27T04:53:50Z</time>
      </trkpt>
      <trkpt lat="43.32283" lon="2.03008">
        <ele>190.1</ele>
        <time>2026-05-27T04:53:55Z</time>
      </trkpt>
      <trkpt lat="43.32279" lon="2.03005">
        <ele>190.3</ele>
        <time>2026-05-27T04:54:00Z</time>
      </trkpt>
      <trkpt lat="43.32275" lon="2.03">
        <ele>190.7</ele>
        <time>2026-05-27T04:54:05Z</time>
      </trkpt>
      <trkpt lat="43.32272" lon="2.02993">
        <ele>190.6</ele>
        <time>2026-05-27T04:54:10Z</time>
      </trkpt>
      <trkpt lat="43.32271" lon="2.02987">
        <ele>190.5</ele>
        <time>2026-05-27T04:54:15Z</time>
      </trkpt>
      <trkpt lat="43.3227" lon="2.02982">
        <ele>190.4</ele>
        <time>2026-05-27T04:54:20Z</time>
      </trkpt>
      <trkpt lat="43.32267" lon="2.02977">
        <ele>190.3</ele>
        <time>2026-05-27T04:54:25Z</time>
      </trkpt>
      <trkpt lat="43.32264" lon="2.02971">
        <ele>190.1</ele>
        <time>2026-05-27T04:54:30Z</time>
      </trkpt>
      <trkpt lat="43.32262" lon="2.02965">
        <ele>190</ele>
        <time>2026-05-27T04:54:35Z</time>
      </trkpt>
      <trkpt lat="43.32259" lon="2.0296">
        <ele>189.8</ele>
        <time>2026-05-27T04:54:40Z</time>
      </trkpt>
      <trkpt lat="43.32257" lon="2.02953">
        <ele>189.5</ele>
        <time>2026-05-27T04:54:45Z</time>
      </trkpt>
      <trkpt lat="43.32253" lon="2.02949">
        <ele>189.3</ele>
        <time>2026-05-27T04:54:50Z</time>
      </trkpt>
      <trkpt lat="43.3225" lon="2.02943">
        <ele>188.9</ele>
        <time>2026-05-27T04:54:55Z</time>
      </trkpt>
      <trkpt lat="43.32246" lon="2.02938">
        <ele>188.4</ele>
        <time>2026-05-27T04:55:00Z</time>
      </trkpt>
      <trkpt lat="43.32243" lon="2.02931">
        <ele>187.9</ele>
        <time>2026-05-27T04:55:05Z</time>
      </trkpt>
      <trkpt lat="43.32239" lon="2.02924">
        <ele>187.3</ele>
        <time>2026-05-27T04:55:10Z</time>
      </trkpt>
      <trkpt lat="43.32236" lon="2.02923">
        <ele>187</ele>
        <time>2026-05-27T04:55:15Z</time>
      </trkpt>
      <trkpt lat="43.32236" lon="2.02922">
        <ele>187</ele>
        <time>2026-05-27T04:55:20Z</time>
      </trkpt>
      <trkpt lat="43.32233" lon="2.02918">
        <ele>186.6</ele>
        <time>2026-05-27T04:55:25Z</time>
      </trkpt>
      <trkpt lat="43.32232" lon="2.02916">
        <ele>186.5</ele>
        <time>2026-05-27T04:55:30Z</time>
      </trkpt>
      <trkpt lat="43.32231" lon="2.02915">
        <ele>186.3</ele>
        <time>2026-05-27T04:55:35Z</time>
      </trkpt>
      <trkpt lat="43.32229" lon="2.0291">
        <ele>186</ele>
        <time>2026-05-27T04:55:40Z</time>
      </trkpt>
      <trkpt lat="43.32227" lon="2.02906">
        <ele>185.7</ele>
        <time>2026-05-27T04:55:45Z</time>
      </trkpt>
      <trkpt lat="43.32224" lon="2.02902">
        <ele>185.3</ele>
        <time>2026-05-27T04:55:50Z</time>
      </trkpt>
      <trkpt lat="43.32221" lon="2.02899">
        <ele>185</ele>
        <time>2026-05-27T04:55:55Z</time>
      </trkpt>
      <trkpt lat="43.32216" lon="2.02897">
        <ele>184.6</ele>
        <time>2026-05-27T04:56:00Z</time>
      </trkpt>
      <trkpt lat="43.3221" lon="2.02893">
        <ele>184</ele>
        <time>2026-05-27T04:56:05Z</time>
      </trkpt>
      <trkpt lat="43.32205" lon="2.0289">
        <ele>183.6</ele>
        <time>2026-05-27T04:56:10Z</time>
      </trkpt>
      <trkpt lat="43.32202" lon="2.02886">
        <ele>183.3</ele>
        <time>2026-05-27T04:56:15Z</time>
      </trkpt>
      <trkpt lat="43.32197" lon="2.02883">
        <ele>183</ele>
        <time>2026-05-27T04:56:20Z</time>
      </trkpt>
      <trkpt lat="43.32192" lon="2.0288">
        <ele>182.6</ele>
        <time>2026-05-27T04:56:25Z</time>
      </trkpt>
      <trkpt lat="43.32186" lon="2.02878">
        <ele>182.2</ele>
        <time>2026-05-27T04:56:30Z</time>
      </trkpt>
      <trkpt lat="43.3218" lon="2.02875">
        <ele>181.8</ele>
        <time>2026-05-27T04:56:35Z</time>
      </trkpt>
      <trkpt lat="43.32175" lon="2.02871">
        <ele>181.5</ele>
        <time>2026-05-27T04:56:40Z</time>
      </trkpt>
      <trkpt lat="43.3217" lon="2.02866">
        <ele>181.2</ele>
        <time>2026-05-27T04:56:45Z</time>
      </trkpt>
      <trkpt lat="43.32166" lon="2.02864">
        <ele>181</ele>
        <time>2026-05-27T04:56:50Z</time>
      </trkpt>
      <trkpt lat="43.32161" lon="2.02861">
        <ele>180.6</ele>
        <time>2026-05-27T04:56:55Z</time>
      </trkpt>
      <trkpt lat="43.32155" lon="2.02855">
        <ele>180.2</ele>
        <time>2026-05-27T04:57:00Z</time>
      </trkpt>
      <trkpt lat="43.32149" lon="2.02852">
        <ele>179.8</ele>
        <time>2026-05-27T04:57:05Z</time>
      </trkpt>
      <trkpt lat="43.32144" lon="2.02847">
        <ele>179.4</ele>
        <time>2026-05-27T04:57:10Z</time>
      </trkpt>
      <trkpt lat="43.32139" lon="2.02842">
        <ele>179</ele>
        <time>2026-05-27T04:57:15Z</time>
      </trkpt>
      <trkpt lat="43.32134" lon="2.02837">
        <ele>178.7</ele>
        <time>2026-05-27T04:57:20Z</time>
      </trkpt>
      <trkpt lat="43.32129" lon="2.02833">
        <ele>178.3</ele>
        <time>2026-05-27T04:57:25Z</time>
      </trkpt>
      <trkpt lat="43.32124" lon="2.02827">
        <ele>178</ele>
        <time>2026-05-27T04:57:30Z</time>
      </trkpt>
      <trkpt lat="43.32118" lon="2.02823">
        <ele>177.6</ele>
        <time>2026-05-27T04:57:35Z</time>
      </trkpt>
      <trkpt lat="43.32114" lon="2.02818">
        <ele>177.3</ele>
        <time>2026-05-27T04:57:40Z</time>
      </trkpt>
      <trkpt lat="43.32109" lon="2.02812">
        <ele>177</ele>
        <time>2026-05-27T04:57:45Z</time>
      </trkpt>
      <trkpt lat="43.32104" lon="2.02806">
        <ele>176.7</ele>
        <time>2026-05-27T04:57:50Z</time>
      </trkpt>
      <trkpt lat="43.32101" lon="2.028">
        <ele>176.4</ele>
        <time>2026-05-27T04:57:55Z</time>
      </trkpt>
      <trkpt lat="43.32097" lon="2.02794">
        <ele>176.1</ele>
        <time>2026-05-27T04:58:00Z</time>
      </trkpt>
      <trkpt lat="43.32093" lon="2.02789">
        <ele>175.8</ele>
        <time>2026-05-27T04:58:05Z</time>
      </trkpt>
      <trkpt lat="43.32088" lon="2.02783">
        <ele>175.4</ele>
        <time>2026-05-27T04:58:10Z</time>
      </trkpt>
      <trkpt lat="43.32084" lon="2.02779">
        <ele>175.1</ele>
        <time>2026-05-27T04:58:15Z</time>
      </trkpt>
      <trkpt lat="43.32078" lon="2.02775">
        <ele>174.9</ele>
        <time>2026-05-27T04:58:20Z</time>
      </trkpt>
      <trkpt lat="43.32073" lon="2.0277">
        <ele>174.8</ele>
        <time>2026-05-27T04:58:25Z</time>
      </trkpt>
      <trkpt lat="43.32069" lon="2.02765">
        <ele>174.8</ele>
        <time>2026-05-27T04:58:30Z</time>
      </trkpt>
      <trkpt lat="43.32064" lon="2.0276">
        <ele>174.7</ele>
        <time>2026-05-27T04:58:35Z</time>
      </trkpt>
      <trkpt lat="43.32059" lon="2.02756">
        <ele>174.7</ele>
        <time>2026-05-27T04:58:40Z</time>
      </trkpt>
      <trkpt lat="43.32054" lon="2.02751">
        <ele>174.6</ele>
        <time>2026-05-27T04:58:45Z</time>
      </trkpt>
      <trkpt lat="43.32049" lon="2.02746">
        <ele>174.6</ele>
        <time>2026-05-27T04:58:50Z</time>
      </trkpt>
      <trkpt lat="43.32044" lon="2.02742">
        <ele>174.6</ele>
        <time>2026-05-27T04:58:55Z</time>
      </trkpt>
      <trkpt lat="43.32039" lon="2.02737">
        <ele>174.6</ele>
        <time>2026-05-27T04:59:00Z</time>
      </trkpt>
      <trkpt lat="43.32035" lon="2.02733">
        <ele>174.6</ele>
        <time>2026-05-27T04:59:05Z</time>
      </trkpt>
      <trkpt lat="43.32031" lon="2.02729">
        <ele>174.6</ele>
        <time>2026-05-27T04:59:10Z</time>
      </trkpt>
      <trkpt lat="43.32025" lon="2.02725">
        <ele>174.6</ele>
        <time>2026-05-27T04:59:15Z</time>
      </trkpt>
      <trkpt lat="43.3202" lon="2.02721">
        <ele>174.6</ele>
        <time>2026-05-27T04:59:20Z</time>
      </trkpt>
      <trkpt lat="43.32016" lon="2.02717">
        <ele>174.6</ele>
        <time>2026-05-27T04:59:25Z</time>
      </trkpt>
      <trkpt lat="43.32011" lon="2.02713">
        <ele>174.6</ele>
        <time>2026-05-27T04:59:30Z</time>
      </trkpt>
      <trkpt lat="43.32006" lon="2.02709">
        <ele>174.6</ele>
        <time>2026-05-27T04:59:35Z</time>
      </trkpt>
      <trkpt lat="43.32001" lon="2.02705">
        <ele>174.6</ele>
        <time>2026-05-27T04:59:40Z</time>
      </trkpt>
      <trkpt lat="43.31995" lon="2.027">
        <ele>174.6</ele>
        <time>2026-05-27T04:59:45Z</time>
      </trkpt>
      <trkpt lat="43.3199" lon="2.02697">
        <ele>174.7</ele>
        <time>2026-05-27T04:59:50Z</time>
      </trkpt>
      <trkpt lat="43.31985" lon="2.02694">
        <ele>174.7</ele>
        <time>2026-05-27T04:59:55Z</time>
      </trkpt>
      <trkpt lat="43.31978" lon="2.0269">
        <ele>174.8</ele>
        <time>2026-05-27T05:00:00Z</time>
      </trkpt>
      <trkpt lat="43.31972" lon="2.02689">
        <ele>174.8</ele>
        <time>2026-05-27T05:00:05Z</time>
      </trkpt>
      <trkpt lat="43.31967" lon="2.02687">
        <ele>174.9</ele>
        <time>2026-05-27T05:00:10Z</time>
      </trkpt>
      <trkpt lat="43.31961" lon="2.02686">
        <ele>174.9</ele>
        <time>2026-05-27T05:00:15Z</time>
      </trkpt>
      <trkpt lat="43.31956" lon="2.02685">
        <ele>174.9</ele>
        <time>2026-05-27T05:00:20Z</time>
      </trkpt>
      <trkpt lat="43.31951" lon="2.02685">
        <ele>174.9</ele>
        <time>2026-05-27T05:00:25Z</time>
      </trkpt>
      <trkpt lat="43.31944" lon="2.02683">
        <ele>174.9</ele>
        <time>2026-05-27T05:00:30Z</time>
      </trkpt>
      <trkpt lat="43.31938" lon="2.02682">
        <ele>175</ele>
        <time>2026-05-27T05:00:35Z</time>
      </trkpt>
      <trkpt lat="43.31934" lon="2.02679">
        <ele>175</ele>
        <time>2026-05-27T05:00:40Z</time>
      </trkpt>
      <trkpt lat="43.31928" lon="2.02678">
        <ele>175</ele>
        <time>2026-05-27T05:00:45Z</time>
      </trkpt>
      <trkpt lat="43.31922" lon="2.02676">
        <ele>175</ele>
        <time>2026-05-27T05:00:50Z</time>
      </trkpt>
      <trkpt lat="43.31917" lon="2.02673">
        <ele>175</ele>
        <time>2026-05-27T05:00:55Z</time>
      </trkpt>
      <trkpt lat="43.31911" lon="2.02671">
        <ele>174.9</ele>
        <time>2026-05-27T05:01:00Z</time>
      </trkpt>
      <trkpt lat="43.31906" lon="2.02669">
        <ele>174.9</ele>
        <time>2026-05-27T05:01:05Z</time>
      </trkpt>
      <trkpt lat="43.319" lon="2.02666">
        <ele>174.7</ele>
        <time>2026-05-27T05:01:10Z</time>
      </trkpt>
      <trkpt lat="43.31895" lon="2.02665">
        <ele>174.6</ele>
        <time>2026-05-27T05:01:15Z</time>
      </trkpt>
      <trkpt lat="43.31889" lon="2.02663">
        <ele>174.4</ele>
        <time>2026-05-27T05:01:20Z</time>
      </trkpt>
      <trkpt lat="43.31885" lon="2.02659">
        <ele>174</ele>
        <time>2026-05-27T05:01:25Z</time>
      </trkpt>
      <trkpt lat="43.31878" lon="2.02656">
        <ele>173.6</ele>
        <time>2026-05-27T05:01:30Z</time>
      </trkpt>
      <trkpt lat="43.31873" lon="2.02652">
        <ele>173.2</ele>
        <time>2026-05-27T05:01:35Z</time>
      </trkpt>
      <trkpt lat="43.31867" lon="2.02649">
        <ele>172.9</ele>
        <time>2026-05-27T05:01:40Z</time>
      </trkpt>
      <trkpt lat="43.31862" lon="2.02646">
        <ele>172.5</ele>
        <time>2026-05-27T05:01:45Z</time>
      </trkpt>
      <trkpt lat="43.31856" lon="2.02644">
        <ele>172.2</ele>
        <time>2026-05-27T05:01:50Z</time>
      </trkpt>
      <trkpt lat="43.3185" lon="2.02644">
        <ele>172.1</ele>
        <time>2026-05-27T05:01:55Z</time>
      </trkpt>
      <trkpt lat="43.31844" lon="2.02646">
        <ele>172.2</ele>
        <time>2026-05-27T05:02:00Z</time>
      </trkpt>
      <trkpt lat="43.31838" lon="2.02646">
        <ele>172.1</ele>
        <time>2026-05-27T05:02:05Z</time>
      </trkpt>
      <trkpt lat="43.31832" lon="2.02647">
        <ele>172.1</ele>
        <time>2026-05-27T05:02:10Z</time>
      </trkpt>
      <trkpt lat="43.31826" lon="2.02647">
        <ele>171.8</ele>
        <time>2026-05-27T05:02:15Z</time>
      </trkpt>
      <trkpt lat="43.3182" lon="2.02647">
        <ele>171.6</ele>
        <time>2026-05-27T05:02:20Z</time>
      </trkpt>
      <trkpt lat="43.31814" lon="2.02647">
        <ele>171.4</ele>
        <time>2026-05-27T05:02:25Z</time>
      </trkpt>
      <trkpt lat="43.31808" lon="2.02647">
        <ele>171.2</ele>
        <time>2026-05-27T05:02:30Z</time>
      </trkpt>
      <trkpt lat="43.31803" lon="2.02649">
        <ele>171.2</ele>
        <time>2026-05-27T05:02:35Z</time>
      </trkpt>
      <trkpt lat="43.31797" lon="2.02651">
        <ele>171.2</ele>
        <time>2026-05-27T05:02:40Z</time>
      </trkpt>
      <trkpt lat="43.31791" lon="2.02653">
        <ele>171.2</ele>
        <time>2026-05-27T05:02:45Z</time>
      </trkpt>
      <trkpt lat="43.31784" lon="2.02654">
        <ele>171</ele>
        <time>2026-05-27T05:02:50Z</time>
      </trkpt>
      <trkpt lat="43.31779" lon="2.02655">
        <ele>170.9</ele>
        <time>2026-05-27T05:02:55Z</time>
      </trkpt>
      <trkpt lat="43.31774" lon="2.02657">
        <ele>170.9</ele>
        <time>2026-05-27T05:03:00Z</time>
      </trkpt>
      <trkpt lat="43.31769" lon="2.02659">
        <ele>170.9</ele>
        <time>2026-05-27T05:03:05Z</time>
      </trkpt>
      <trkpt lat="43.31762" lon="2.02663">
        <ele>171.1</ele>
        <time>2026-05-27T05:03:10Z</time>
      </trkpt>
      <trkpt lat="43.31757" lon="2.02666">
        <ele>171.2</ele>
        <time>2026-05-27T05:03:15Z</time>
      </trkpt>
      <trkpt lat="43.31751" lon="2.02668">
        <ele>171.1</ele>
        <time>2026-05-27T05:03:20Z</time>
      </trkpt>
      <trkpt lat="43.31746" lon="2.02672">
        <ele>171</ele>
        <time>2026-05-27T05:03:25Z</time>
      </trkpt>
      <trkpt lat="43.3174" lon="2.02675">
        <ele>170.8</ele>
        <time>2026-05-27T05:03:30Z</time>
      </trkpt>
      <trkpt lat="43.31734" lon="2.02679">
        <ele>170.7</ele>
        <time>2026-05-27T05:03:35Z</time>
      </trkpt>
      <trkpt lat="43.31728" lon="2.02683">
        <ele>170.6</ele>
        <time>2026-05-27T05:03:40Z</time>
      </trkpt>
      <trkpt lat="43.31723" lon="2.02686">
        <ele>170.5</ele>
        <time>2026-05-27T05:03:45Z</time>
      </trkpt>
      <trkpt lat="43.31717" lon="2.02689">
        <ele>170.4</ele>
        <time>2026-05-27T05:03:50Z</time>
      </trkpt>
      <trkpt lat="43.31712" lon="2.02692">
        <ele>170.4</ele>
        <time>2026-05-27T05:03:55Z</time>
      </trkpt>
      <trkpt lat="43.31706" lon="2.02694">
        <ele>170.2</ele>
        <time>2026-05-27T05:04:00Z</time>
      </trkpt>
      <trkpt lat="43.31701" lon="2.02696">
        <ele>170.1</ele>
        <time>2026-05-27T05:04:05Z</time>
      </trkpt>
      <trkpt lat="43.31694" lon="2.027">
        <ele>170</ele>
        <time>2026-05-27T05:04:10Z</time>
      </trkpt>
      <trkpt lat="43.31688" lon="2.02701">
        <ele>169.8</ele>
        <time>2026-05-27T05:04:15Z</time>
      </trkpt>
      <trkpt lat="43.31683" lon="2.02703">
        <ele>169.8</ele>
        <time>2026-05-27T05:04:20Z</time>
      </trkpt>
      <trkpt lat="43.31677" lon="2.02705">
        <ele>169.7</ele>
        <time>2026-05-27T05:04:25Z</time>
      </trkpt>
      <trkpt lat="43.3167" lon="2.02707">
        <ele>169.5</ele>
        <time>2026-05-27T05:04:30Z</time>
      </trkpt>
      <trkpt lat="43.31663" lon="2.0271">
        <ele>169.3</ele>
        <time>2026-05-27T05:04:35Z</time>
      </trkpt>
      <trkpt lat="43.31657" lon="2.02711">
        <ele>168.7</ele>
        <time>2026-05-27T05:04:40Z</time>
      </trkpt>
      <trkpt lat="43.31651" lon="2.02713">
        <ele>168.3</ele>
        <time>2026-05-27T05:04:45Z</time>
      </trkpt>
      <trkpt lat="43.31646" lon="2.02716">
        <ele>168.1</ele>
        <time>2026-05-27T05:04:50Z</time>
      </trkpt>
      <trkpt lat="43.31641" lon="2.0272">
        <ele>167.9</ele>
        <time>2026-05-27T05:04:55Z</time>
      </trkpt>
      <trkpt lat="43.31636" lon="2.02726">
        <ele>167.9</ele>
        <time>2026-05-27T05:05:00Z</time>
      </trkpt>
      <trkpt lat="43.31631" lon="2.02732">
        <ele>168</ele>
        <time>2026-05-27T05:05:05Z</time>
      </trkpt>
      <trkpt lat="43.31626" lon="2.02738">
        <ele>168</ele>
        <time>2026-05-27T05:05:10Z</time>
      </trkpt>
      <trkpt lat="43.31622" lon="2.02743">
        <ele>168.1</ele>
        <time>2026-05-27T05:05:15Z</time>
      </trkpt>
      <trkpt lat="43.31617" lon="2.02749">
        <ele>168.1</ele>
        <time>2026-05-27T05:05:20Z</time>
      </trkpt>
      <trkpt lat="43.31611" lon="2.02755">
        <ele>168.1</ele>
        <time>2026-05-27T05:05:25Z</time>
      </trkpt>
      <trkpt lat="43.31605" lon="2.0276">
        <ele>167.9</ele>
        <time>2026-05-27T05:05:30Z</time>
      </trkpt>
      <trkpt lat="43.31599" lon="2.02765">
        <ele>167.9</ele>
        <time>2026-05-27T05:05:35Z</time>
      </trkpt>
      <trkpt lat="43.31596" lon="2.02768">
        <ele>167.9</ele>
        <time>2026-05-27T05:05:40Z</time>
      </trkpt>
      <trkpt lat="43.31591" lon="2.02771">
        <ele>167.8</ele>
        <time>2026-05-27T05:05:45Z</time>
      </trkpt>
      <trkpt lat="43.31585" lon="2.02776">
        <ele>167.9</ele>
        <time>2026-05-27T05:05:50Z</time>
      </trkpt>
      <trkpt lat="43.31579" lon="2.02783">
        <ele>168.4</ele>
        <time>2026-05-27T05:05:55Z</time>
      </trkpt>
      <trkpt lat="43.31573" lon="2.02788">
        <ele>168.8</ele>
        <time>2026-05-27T05:06:00Z</time>
      </trkpt>
      <trkpt lat="43.31569" lon="2.02794">
        <ele>169.3</ele>
        <time>2026-05-27T05:06:05Z</time>
      </trkpt>
      <trkpt lat="43.31565" lon="2.02801">
        <ele>170</ele>
        <time>2026-05-27T05:06:10Z</time>
      </trkpt>
      <trkpt lat="43.3156" lon="2.02806">
        <ele>170.4</ele>
        <time>2026-05-27T05:06:15Z</time>
      </trkpt>
      <trkpt lat="43.31557" lon="2.02803">
        <ele>170</ele>
        <time>2026-05-27T05:06:20Z</time>
      </trkpt>
      <trkpt lat="43.31554" lon="2.02799">
        <ele>169.4</ele>
        <time>2026-05-27T05:06:25Z</time>
      </trkpt>
      <trkpt lat="43.31553" lon="2.02794">
        <ele>168.9</ele>
        <time>2026-05-27T05:06:30Z</time>
      </trkpt>
      <trkpt lat="43.31551" lon="2.02793">
        <ele>168.7</ele>
        <time>2026-05-27T05:06:35Z</time>
      </trkpt>
      <trkpt lat="43.31551" lon="2.02793">
        <ele>168.7</ele>
        <time>2026-05-27T05:06:40Z</time>
      </trkpt>
      <trkpt lat="43.31551" lon="2.02793">
        <ele>168.7</ele>
        <time>2026-05-27T05:06:45Z</time>
      </trkpt>
      <trkpt lat="43.3155" lon="2.02782">
        <ele>167.4</ele>
        <time>2026-05-27T05:06:50Z</time>
      </trkpt>
      <trkpt lat="43.31551" lon="2.02778">
        <ele>167</ele>
        <time>2026-05-27T05:06:55Z</time>
      </trkpt>
      <trkpt lat="43.31552" lon="2.02772">
        <ele>166.3</ele>
        <time>2026-05-27T05:07:00Z</time>
      </trkpt>
      <trkpt lat="43.31553" lon="2.02767">
        <ele>165.8</ele>
        <time>2026-05-27T05:07:05Z</time>
      </trkpt>
      <trkpt lat="43.31552" lon="2.0276">
        <ele>165</ele>
        <time>2026-05-27T05:07:10Z</time>
      </trkpt>
      <trkpt lat="43.31553" lon="2.02751">
        <ele>164</ele>
        <time>2026-05-27T05:07:15Z</time>
      </trkpt>
      <trkpt lat="43.31552" lon="2.02745">
        <ele>163.4</ele>
        <time>2026-05-27T05:07:20Z</time>
      </trkpt>
      <trkpt lat="43.31551" lon="2.02737">
        <ele>162.6</ele>
        <time>2026-05-27T05:07:25Z</time>
      </trkpt>
      <trkpt lat="43.31551" lon="2.02728">
        <ele>161.8</ele>
        <time>2026-05-27T05:07:30Z</time>
      </trkpt>
      <trkpt lat="43.31552" lon="2.02721">
        <ele>161.2</ele>
        <time>2026-05-27T05:07:35Z</time>
      </trkpt>
      <trkpt lat="43.31551" lon="2.02713">
        <ele>160.5</ele>
        <time>2026-05-27T05:07:40Z</time>
      </trkpt>
      <trkpt lat="43.31551" lon="2.02705">
        <ele>159.7</ele>
        <time>2026-05-27T05:07:45Z</time>
      </trkpt>
      <trkpt lat="43.31551" lon="2.02699">
        <ele>159.2</ele>
        <time>2026-05-27T05:07:50Z</time>
      </trkpt>
      <trkpt lat="43.31551" lon="2.02692">
        <ele>158.5</ele>
        <time>2026-05-27T05:07:55Z</time>
      </trkpt>
      <trkpt lat="43.31551" lon="2.02684">
        <ele>157.8</ele>
        <time>2026-05-27T05:08:00Z</time>
      </trkpt>
      <trkpt lat="43.31551" lon="2.02675">
        <ele>157</ele>
        <time>2026-05-27T05:08:05Z</time>
      </trkpt>
      <trkpt lat="43.3155" lon="2.02668">
        <ele>156.3</ele>
        <time>2026-05-27T05:08:10Z</time>
      </trkpt>
      <trkpt lat="43.3155" lon="2.0266">
        <ele>156.2</ele>
        <time>2026-05-27T05:08:15Z</time>
      </trkpt>
      <trkpt lat="43.3155" lon="2.02654">
        <ele>156.1</ele>
        <time>2026-05-27T05:08:20Z</time>
      </trkpt>
      <trkpt lat="43.31551" lon="2.02647">
        <ele>156.1</ele>
        <time>2026-05-27T05:08:25Z</time>
      </trkpt>
      <trkpt lat="43.3155" lon="2.02639">
        <ele>156</ele>
        <time>2026-05-27T05:08:30Z</time>
      </trkpt>
      <trkpt lat="43.31547" lon="2.02636">
        <ele>155.9</ele>
        <time>2026-05-27T05:08:35Z</time>
      </trkpt>
      <trkpt lat="43.31547" lon="2.02635">
        <ele>155.9</ele>
        <time>2026-05-27T05:08:40Z</time>
      </trkpt>
      <trkpt lat="43.31548" lon="2.02624">
        <ele>155.9</ele>
        <time>2026-05-27T05:08:45Z</time>
      </trkpt>
      <trkpt lat="43.31549" lon="2.02619">
        <ele>155.8</ele>
        <time>2026-05-27T05:08:50Z</time>
      </trkpt>
      <trkpt lat="43.31546" lon="2.02615">
        <ele>155.8</ele>
        <time>2026-05-27T05:08:55Z</time>
      </trkpt>
      <trkpt lat="43.31542" lon="2.02613">
        <ele>155.7</ele>
        <time>2026-05-27T05:09:00Z</time>
      </trkpt>
      <trkpt lat="43.31537" lon="2.02613">
        <ele>155.6</ele>
        <time>2026-05-27T05:09:05Z</time>
      </trkpt>
      <trkpt lat="43.31533" lon="2.02614">
        <ele>155.5</ele>
        <time>2026-05-27T05:09:10Z</time>
      </trkpt>
      <trkpt lat="43.31528" lon="2.02616">
        <ele>155.5</ele>
        <time>2026-05-27T05:09:15Z</time>
      </trkpt>
      <trkpt lat="43.31524" lon="2.02618">
        <ele>155.4</ele>
        <time>2026-05-27T05:09:20Z</time>
      </trkpt>
      <trkpt lat="43.31517" lon="2.02622">
        <ele>155.3</ele>
        <time>2026-05-27T05:09:25Z</time>
      </trkpt>
      <trkpt lat="43.31511" lon="2.02624">
        <ele>155.2</ele>
        <time>2026-05-27T05:09:30Z</time>
      </trkpt>
      <trkpt lat="43.31506" lon="2.02624">
        <ele>155.1</ele>
        <time>2026-05-27T05:09:35Z</time>
      </trkpt>
      <trkpt lat="43.31504" lon="2.02624">
        <ele>155.1</ele>
        <time>2026-05-27T05:09:40Z</time>
      </trkpt>
      <trkpt lat="43.31504" lon="2.02623">
        <ele>155.1</ele>
        <time>2026-05-27T05:09:45Z</time>
      </trkpt>
      <trkpt lat="43.31504" lon="2.02623">
        <ele>155.1</ele>
        <time>2026-05-27T05:09:50Z</time>
      </trkpt>
      <trkpt lat="43.31504" lon="2.02623">
        <ele>155.1</ele>
        <time>2026-05-27T05:09:55Z</time>
      </trkpt>
      <trkpt lat="43.31504" lon="2.02623">
        <ele>155.1</ele>
        <time>2026-05-27T05:10:00Z</time>
      </trkpt>
      <trkpt lat="43.31499" lon="2.02618">
        <ele>155</ele>
        <time>2026-05-27T05:10:05Z</time>
      </trkpt>
      <trkpt lat="43.31498" lon="2.02619">
        <ele>155</ele>
        <time>2026-05-27T05:10:10Z</time>
      </trkpt>
      <trkpt lat="43.31498" lon="2.02619">
        <ele>155</ele>
        <time>2026-05-27T05:10:15Z</time>
      </trkpt>
      <trkpt lat="43.31498" lon="2.02619">
        <ele>155</ele>
        <time>2026-05-27T05:10:20Z</time>
      </trkpt>
      <trkpt lat="43.31498" lon="2.02619">
        <ele>155</ele>
        <time>2026-05-27T05:10:25Z</time>
      </trkpt>
      <trkpt lat="43.31498" lon="2.02619">
        <ele>155</ele>
        <time>2026-05-27T05:10:30Z</time>
      </trkpt>
      <trkpt lat="43.31498" lon="2.02619">
        <ele>155</ele>
        <time>2026-05-27T05:10:35Z</time>
      </trkpt>
      <trkpt lat="43.31498" lon="2.02619">
        <ele>155</ele>
        <time>2026-05-27T05:10:40Z</time>
      </trkpt>
      <trkpt lat="43.31498" lon="2.02619">
        <ele>155</ele>
        <time>2026-05-27T05:10:45Z</time>
      </trkpt>
      <trkpt lat="43.31498" lon="2.02619">
        <ele>155</ele>
        <time>2026-05-27T05:10:50Z</time>
      </trkpt>
      <trkpt lat="43.31498" lon="2.02619">
        <ele>155</ele>
        <time>2026-05-27T05:10:55Z</time>
      </trkpt>
      <trkpt lat="43.31498" lon="2.02619">
        <ele>155</ele>
        <time>2026-05-27T05:11:00Z</time>
      </trkpt>
      <trkpt lat="43.31498" lon="2.02619">
        <ele>155</ele>
        <time>2026-05-27T05:11:05Z</time>
      </trkpt>
      <trkpt lat="43.31498" lon="2.02619">
        <ele>155</ele>
        <time>2026-05-27T05:11:10Z</time>
      </trkpt>
      <trkpt lat="43.31498" lon="2.02619">
        <ele>155</ele>
        <time>2026-05-27T05:11:15Z</time>
      </trkpt>
      <trkpt lat="43.31498" lon="2.02619">
        <ele>155</ele>
        <time>2026-05-27T05:11:20Z</time>
      </trkpt>
      <trkpt lat="43.31498" lon="2.02619">
        <ele>155</ele>
        <time>2026-05-27T05:11:25Z</time>
      </trkpt>
      <trkpt lat="43.31498" lon="2.02619">
        <ele>155</ele>
        <time>2026-05-27T05:11:30Z</time>
      </trkpt>
      <trkpt lat="43.31498" lon="2.02619">
        <ele>155</ele>
        <time>2026-05-27T05:11:35Z</time>
      </trkpt>
      <trkpt lat="43.31498" lon="2.02619">
        <ele>155</ele>
        <time>2026-05-27T05:11:40Z</time>
      </trkpt>
      <trkpt lat="43.31498" lon="2.02619">
        <ele>155</ele>
        <time>2026-05-27T05:11:45Z</time>
      </trkpt>
      <trkpt lat="43.31498" lon="2.02619">
        <ele>155</ele>
        <time>2026-05-27T05:11:50Z</time>
      </trkpt>
      <trkpt lat="43.31498" lon="2.02619">
        <ele>155</ele>
        <time>2026-05-27T05:11:55Z</time>
      </trkpt>
      <trkpt lat="43.31498" lon="2.02619">
        <ele>155</ele>
        <time>2026-05-27T05:12:00Z</time>
      </trkpt>
      <trkpt lat="43.31498" lon="2.02619">
        <ele>155</ele>
        <time>2026-05-27T05:12:05Z</time>
      </trkpt>
      <trkpt lat="43.31498" lon="2.02619">
        <ele>155</ele>
        <time>2026-05-27T05:12:10Z</time>
      </trkpt>
      <trkpt lat="43.31498" lon="2.02619">
        <ele>155</ele>
        <time>2026-05-27T05:12:15Z</time>
      </trkpt>
      <trkpt lat="43.31498" lon="2.02619">
        <ele>155</ele>
        <time>2026-05-27T05:12:20Z</time>
      </trkpt>
      <trkpt lat="43.31498" lon="2.02619">
        <ele>155</ele>
        <time>2026-05-27T05:12:25Z</time>
      </trkpt>
      <trkpt lat="43.31498" lon="2.02619">
        <ele>155</ele>
        <time>2026-05-27T05:12:30Z</time>
      </trkpt>
      <trkpt lat="43.31498" lon="2.02619">
        <ele>155</ele>
        <time>2026-05-27T05:12:35Z</time>
      </trkpt>
      <trkpt lat="43.31498" lon="2.02619">
        <ele>155</ele>
        <time>2026-05-27T05:12:40Z</time>
      </trkpt>
      <trkpt lat="43.31498" lon="2.02619">
        <ele>155</ele>
        <time>2026-05-27T05:12:45Z</time>
      </trkpt>
      <trkpt lat="43.31498" lon="2.02619">
        <ele>155</ele>
        <time>2026-05-27T05:12:50Z</time>
      </trkpt>
      <trkpt lat="43.31498" lon="2.02619">
        <ele>155</ele>
        <time>2026-05-27T05:12:55Z</time>
      </trkpt>
      <trkpt lat="43.31498" lon="2.02619">
        <ele>155</ele>
        <time>2026-05-27T05:13:00Z</time>
      </trkpt>
      <trkpt lat="43.31498" lon="2.02619">
        <ele>155</ele>
        <time>2026-05-27T05:13:05Z</time>
      </trkpt>
      <trkpt lat="43.31498" lon="2.02619">
        <ele>155</ele>
        <time>2026-05-27T05:13:10Z</time>
      </trkpt>
      <trkpt lat="43.31498" lon="2.02619">
        <ele>155</ele>
        <time>2026-05-27T05:13:15Z</time>
      </trkpt>
      <trkpt lat="43.31498" lon="2.02619">
        <ele>155</ele>
        <time>2026-05-27T05:13:20Z</time>
      </trkpt>
      <trkpt lat="43.31498" lon="2.02619">
        <ele>155</ele>
        <time>2026-05-27T05:13:25Z</time>
      </trkpt>
      <trkpt lat="43.31498" lon="2.02619">
        <ele>155</ele>
        <time>2026-05-27T05:13:30Z</time>
      </trkpt>
      <trkpt lat="43.31499" lon="2.02631">
        <ele>155</ele>
        <time>2026-05-27T05:13:35Z</time>
      </trkpt>
      <trkpt lat="43.31499" lon="2.0263">
        <ele>155</ele>
        <time>2026-05-27T05:13:40Z</time>
      </trkpt>
      <trkpt lat="43.31499" lon="2.0263">
        <ele>155</ele>
        <time>2026-05-27T05:13:45Z</time>
      </trkpt>
      <trkpt lat="43.31499" lon="2.0263">
        <ele>155</ele>
        <time>2026-05-27T05:13:50Z</time>
      </trkpt>
      <trkpt lat="43.31499" lon="2.0263">
        <ele>155</ele>
        <time>2026-05-27T05:13:55Z</time>
      </trkpt>
      <trkpt lat="43.31499" lon="2.0263">
        <ele>155</ele>
        <time>2026-05-27T05:14:00Z</time>
      </trkpt>
      <trkpt lat="43.31499" lon="2.0263">
        <ele>155</ele>
        <time>2026-05-27T05:14:05Z</time>
      </trkpt>
      <trkpt lat="43.31499" lon="2.0263">
        <ele>155</ele>
        <time>2026-05-27T05:14:10Z</time>
      </trkpt>
      <trkpt lat="43.31499" lon="2.0263">
        <ele>155</ele>
        <time>2026-05-27T05:14:15Z</time>
      </trkpt>
      <trkpt lat="43.31499" lon="2.0263">
        <ele>155</ele>
        <time>2026-05-27T05:14:20Z</time>
      </trkpt>
      <trkpt lat="43.31499" lon="2.0263">
        <ele>155</ele>
        <time>2026-05-27T05:14:25Z</time>
      </trkpt>
      <trkpt lat="43.31499" lon="2.0263">
        <ele>155</ele>
        <time>2026-05-27T05:14:30Z</time>
      </trkpt>
      <trkpt lat="43.31499" lon="2.0263">
        <ele>155</ele>
        <time>2026-05-27T05:14:35Z</time>
      </trkpt>
      <trkpt lat="43.31499" lon="2.0263">
        <ele>155</ele>
        <time>2026-05-27T05:14:40Z</time>
      </trkpt>
      <trkpt lat="43.31499" lon="2.0263">
        <ele>155</ele>
        <time>2026-05-27T05:14:45Z</time>
      </trkpt>
      <trkpt lat="43.31499" lon="2.0263">
        <ele>155</ele>
        <time>2026-05-27T05:14:50Z</time>
      </trkpt>
      <trkpt lat="43.31499" lon="2.0263">
        <ele>155</ele>
        <time>2026-05-27T05:14:55Z</time>
      </trkpt>
      <trkpt lat="43.31499" lon="2.0263">
        <ele>155</ele>
        <time>2026-05-27T05:15:00Z</time>
      </trkpt>
      <trkpt lat="43.31499" lon="2.0263">
        <ele>155</ele>
        <time>2026-05-27T05:15:05Z</time>
      </trkpt>
      <trkpt lat="43.31499" lon="2.0263">
        <ele>155</ele>
        <time>2026-05-27T05:15:10Z</time>
      </trkpt>
      <trkpt lat="43.31499" lon="2.0263">
        <ele>155</ele>
        <time>2026-05-27T05:15:15Z</time>
      </trkpt>
      <trkpt lat="43.31499" lon="2.0263">
        <ele>155</ele>
        <time>2026-05-27T05:15:20Z</time>
      </trkpt>
      <trkpt lat="43.31499" lon="2.0263">
        <ele>155</ele>
        <time>2026-05-27T05:15:25Z</time>
      </trkpt>
      <trkpt lat="43.31499" lon="2.0263">
        <ele>155</ele>
        <time>2026-05-27T05:15:30Z</time>
      </trkpt>
      <trkpt lat="43.31499" lon="2.0263">
        <ele>155</ele>
        <time>2026-05-27T05:15:35Z</time>
      </trkpt>
      <trkpt lat="43.31499" lon="2.0263">
        <ele>155</ele>
        <time>2026-05-27T05:15:40Z</time>
      </trkpt>
      <trkpt lat="43.31499" lon="2.0263">
        <ele>155</ele>
        <time>2026-05-27T05:15:45Z</time>
      </trkpt>
      <trkpt lat="43.31493" lon="2.02619">
        <ele>155.1</ele>
        <time>2026-05-27T05:15:50Z</time>
      </trkpt>
      <trkpt lat="43.31492" lon="2.02618">
        <ele>155.1</ele>
        <time>2026-05-27T05:15:55Z</time>
      </trkpt>
      <trkpt lat="43.31492" lon="2.02618">
        <ele>155.1</ele>
        <time>2026-05-27T05:16:00Z</time>
      </trkpt>
      <trkpt lat="43.31492" lon="2.02618">
        <ele>155.1</ele>
        <time>2026-05-27T05:16:05Z</time>
      </trkpt>
      <trkpt lat="43.31492" lon="2.02618">
        <ele>155.1</ele>
        <time>2026-05-27T05:16:10Z</time>
      </trkpt>
      <trkpt lat="43.31492" lon="2.02618">
        <ele>155.1</ele>
        <time>2026-05-27T05:16:15Z</time>
      </trkpt>
      <trkpt lat="43.31492" lon="2.02618">
        <ele>155.1</ele>
        <time>2026-05-27T05:16:20Z</time>
      </trkpt>
      <trkpt lat="43.31492" lon="2.02618">
        <ele>155.1</ele>
        <time>2026-05-27T05:16:25Z</time>
      </trkpt>
      <trkpt lat="43.31488" lon="2.02611">
        <ele>155.2</ele>
        <time>2026-05-27T05:16:30Z</time>
      </trkpt>
      <trkpt lat="43.31486" lon="2.02613">
        <ele>155.3</ele>
        <time>2026-05-27T05:16:35Z</time>
      </trkpt>
      <trkpt lat="43.31486" lon="2.02613">
        <ele>155.3</ele>
        <time>2026-05-27T05:16:40Z</time>
      </trkpt>
      <trkpt lat="43.31486" lon="2.02622">
        <ele>155.2</ele>
        <time>2026-05-27T05:16:45Z</time>
      </trkpt>
      <trkpt lat="43.31491" lon="2.02625">
        <ele>155.1</ele>
        <time>2026-05-27T05:16:50Z</time>
      </trkpt>
      <trkpt lat="43.31491" lon="2.02625">
        <ele>155.1</ele>
        <time>2026-05-27T05:16:55Z</time>
      </trkpt>
      <trkpt lat="43.31491" lon="2.02625">
        <ele>155.1</ele>
        <time>2026-05-27T05:17:00Z</time>
      </trkpt>
      <trkpt lat="43.31491" lon="2.02625">
        <ele>155.1</ele>
        <time>2026-05-27T05:17:05Z</time>
      </trkpt>
      <trkpt lat="43.31491" lon="2.02629">
        <ele>155.1</ele>
        <time>2026-05-27T05:17:10Z</time>
      </trkpt>
      <trkpt lat="43.31489" lon="2.02636">
        <ele>155.1</ele>
        <time>2026-05-27T05:17:15Z</time>
      </trkpt>
      <trkpt lat="43.31486" lon="2.0264">
        <ele>155</ele>
        <time>2026-05-27T05:17:20Z</time>
      </trkpt>
      <trkpt lat="43.31482" lon="2.02641">
        <ele>155.1</ele>
        <time>2026-05-27T05:17:25Z</time>
      </trkpt>
      <trkpt lat="43.31479" lon="2.02638">
        <ele>155.1</ele>
        <time>2026-05-27T05:17:30Z</time>
      </trkpt>
      <trkpt lat="43.31479" lon="2.02638">
        <ele>155.1</ele>
        <time>2026-05-27T05:17:35Z</time>
      </trkpt>
      <trkpt lat="43.31474" lon="2.02632">
        <ele>155.2</ele>
        <time>2026-05-27T05:17:40Z</time>
      </trkpt>
      <trkpt lat="43.31473" lon="2.02628">
        <ele>155.3</ele>
        <time>2026-05-27T05:17:45Z</time>
      </trkpt>
      <trkpt lat="43.31473" lon="2.02628">
        <ele>155.3</ele>
        <time>2026-05-27T05:17:50Z</time>
      </trkpt>
      <trkpt lat="43.31473" lon="2.02628">
        <ele>155.3</ele>
        <time>2026-05-27T05:17:55Z</time>
      </trkpt>
      <trkpt lat="43.31473" lon="2.02628">
        <ele>155.3</ele>
        <time>2026-05-27T05:18:00Z</time>
      </trkpt>
      <trkpt lat="43.31473" lon="2.02628">
        <ele>155.3</ele>
        <time>2026-05-27T05:18:05Z</time>
      </trkpt>
      <trkpt lat="43.31474" lon="2.02626">
        <ele>155.3</ele>
        <time>2026-05-27T05:18:10Z</time>
      </trkpt>
      <trkpt lat="43.31474" lon="2.02626">
        <ele>155.3</ele>
        <time>2026-05-27T05:18:15Z</time>
      </trkpt>
      <trkpt lat="43.31474" lon="2.02626">
        <ele>155.3</ele>
        <time>2026-05-27T05:18:20Z</time>
      </trkpt>
      <trkpt lat="43.31474" lon="2.02626">
        <ele>155.3</ele>
        <time>2026-05-27T05:18:25Z</time>
      </trkpt>
      <trkpt lat="43.31474" lon="2.02626">
        <ele>155.3</ele>
        <time>2026-05-27T05:18:30Z</time>
      </trkpt>
      <trkpt lat="43.31474" lon="2.02626">
        <ele>155.3</ele>
        <time>2026-05-27T05:18:35Z</time>
      </trkpt>
      <trkpt lat="43.31475" lon="2.02611">
        <ele>155.5</ele>
        <time>2026-05-27T05:18:40Z</time>
      </trkpt>
      <trkpt lat="43.31471" lon="2.02603">
        <ele>155.7</ele>
        <time>2026-05-27T05:18:45Z</time>
      </trkpt>
      <trkpt lat="43.31472" lon="2.026">
        <ele>155.7</ele>
        <time>2026-05-27T05:18:50Z</time>
      </trkpt>
      <trkpt lat="43.31472" lon="2.026">
        <ele>155.7</ele>
        <time>2026-05-27T05:18:55Z</time>
      </trkpt>
      <trkpt lat="43.31472" lon="2.026">
        <ele>155.7</ele>
        <time>2026-05-27T05:19:00Z</time>
      </trkpt>
      <trkpt lat="43.31472" lon="2.026">
        <ele>155.7</ele>
        <time>2026-05-27T05:19:05Z</time>
      </trkpt>
      <trkpt lat="43.31472" lon="2.026">
        <ele>155.7</ele>
        <time>2026-05-27T05:19:10Z</time>
      </trkpt>
      <trkpt lat="43.31472" lon="2.026">
        <ele>155.7</ele>
        <time>2026-05-27T05:19:15Z</time>
      </trkpt>
      <trkpt lat="43.31469" lon="2.02596">
        <ele>155.9</ele>
        <time>2026-05-27T05:19:20Z</time>
      </trkpt>
      <trkpt lat="43.31464" lon="2.02592">
        <ele>156.1</ele>
        <time>2026-05-27T05:19:25Z</time>
      </trkpt>
      <trkpt lat="43.31459" lon="2.02591">
        <ele>156.3</ele>
        <time>2026-05-27T05:19:30Z</time>
      </trkpt>
      <trkpt lat="43.31453" lon="2.02592">
        <ele>156.5</ele>
        <time>2026-05-27T05:19:35Z</time>
      </trkpt>
      <trkpt lat="43.31448" lon="2.02592">
        <ele>156.6</ele>
        <time>2026-05-27T05:19:40Z</time>
      </trkpt>
      <trkpt lat="43.31442" lon="2.02588">
        <ele>156.9</ele>
        <time>2026-05-27T05:19:45Z</time>
      </trkpt>
      <trkpt lat="43.31439" lon="2.02588">
        <ele>157</ele>
        <time>2026-05-27T05:19:50Z</time>
      </trkpt>
      <trkpt lat="43.31438" lon="2.02588">
        <ele>157.1</ele>
        <time>2026-05-27T05:19:55Z</time>
      </trkpt>
      <trkpt lat="43.31438" lon="2.02588">
        <ele>157.1</ele>
        <time>2026-05-27T05:20:00Z</time>
      </trkpt>
      <trkpt lat="43.31438" lon="2.02582">
        <ele>157.3</ele>
        <time>2026-05-27T05:20:05Z</time>
      </trkpt>
      <trkpt lat="43.31435" lon="2.02578">
        <ele>157.8</ele>
        <time>2026-05-27T05:20:10Z</time>
      </trkpt>
      <trkpt lat="43.31432" lon="2.02573">
        <ele>158.3</ele>
        <time>2026-05-27T05:20:15Z</time>
      </trkpt>
      <trkpt lat="43.31428" lon="2.0257">
        <ele>158.7</ele>
        <time>2026-05-27T05:20:20Z</time>
      </trkpt>
      <trkpt lat="43.31423" lon="2.02566">
        <ele>159.2</ele>
        <time>2026-05-27T05:20:25Z</time>
      </trkpt>
      <trkpt lat="43.31419" lon="2.02563">
        <ele>159.6</ele>
        <time>2026-05-27T05:20:30Z</time>
      </trkpt>
      <trkpt lat="43.31414" lon="2.02559">
        <ele>160.1</ele>
        <time>2026-05-27T05:20:35Z</time>
      </trkpt>
      <trkpt lat="43.3141" lon="2.02556">
        <ele>160.4</ele>
        <time>2026-05-27T05:20:40Z</time>
      </trkpt>
      <trkpt lat="43.31405" lon="2.02553">
        <ele>160.7</ele>
        <time>2026-05-27T05:20:45Z</time>
      </trkpt>
      <trkpt lat="43.31401" lon="2.02555">
        <ele>160.6</ele>
        <time>2026-05-27T05:20:50Z</time>
      </trkpt>
      <trkpt lat="43.31398" lon="2.0256">
        <ele>160.2</ele>
        <time>2026-05-27T05:20:55Z</time>
      </trkpt>
      <trkpt lat="43.314" lon="2.0256">
        <ele>160.2</ele>
        <time>2026-05-27T05:21:00Z</time>
      </trkpt>
      <trkpt lat="43.31401" lon="2.02559">
        <ele>160.3</ele>
        <time>2026-05-27T05:21:05Z</time>
      </trkpt>
      <trkpt lat="43.31401" lon="2.02559">
        <ele>160.3</ele>
        <time>2026-05-27T05:21:10Z</time>
      </trkpt>
      <trkpt lat="43.31405" lon="2.02554">
        <ele>160.6</ele>
        <time>2026-05-27T05:21:15Z</time>
      </trkpt>
      <trkpt lat="43.31402" lon="2.02549">
        <ele>161</ele>
        <time>2026-05-27T05:21:20Z</time>
      </trkpt>
      <trkpt lat="43.31399" lon="2.02543">
        <ele>161.5</ele>
        <time>2026-05-27T05:21:25Z</time>
      </trkpt>
      <trkpt lat="43.31397" lon="2.02539">
        <ele>161.8</ele>
        <time>2026-05-27T05:21:30Z</time>
      </trkpt>
      <trkpt lat="43.31397" lon="2.02537">
        <ele>162</ele>
        <time>2026-05-27T05:21:35Z</time>
      </trkpt>
      <trkpt lat="43.31397" lon="2.02537">
        <ele>162</ele>
        <time>2026-05-27T05:21:40Z</time>
      </trkpt>
      <trkpt lat="43.31397" lon="2.02533">
        <ele>162.3</ele>
        <time>2026-05-27T05:21:45Z</time>
      </trkpt>
      <trkpt lat="43.31393" lon="2.02534">
        <ele>162.2</ele>
        <time>2026-05-27T05:21:50Z</time>
      </trkpt>
      <trkpt lat="43.31389" lon="2.02538">
        <ele>161.9</ele>
        <time>2026-05-27T05:21:55Z</time>
      </trkpt>
      <trkpt lat="43.31386" lon="2.02542">
        <ele>161.7</ele>
        <time>2026-05-27T05:22:00Z</time>
      </trkpt>
      <trkpt lat="43.31382" lon="2.02546">
        <ele>161.4</ele>
        <time>2026-05-27T05:22:05Z</time>
      </trkpt>
      <trkpt lat="43.31378" lon="2.0255">
        <ele>161.2</ele>
        <time>2026-05-27T05:22:10Z</time>
      </trkpt>
      <trkpt lat="43.31374" lon="2.02554">
        <ele>160.9</ele>
        <time>2026-05-27T05:22:15Z</time>
      </trkpt>
      <trkpt lat="43.31369" lon="2.02559">
        <ele>160.7</ele>
        <time>2026-05-27T05:22:20Z</time>
      </trkpt>
      <trkpt lat="43.31364" lon="2.02564">
        <ele>160.4</ele>
        <time>2026-05-27T05:22:25Z</time>
      </trkpt>
      <trkpt lat="43.31357" lon="2.02568">
        <ele>160.3</ele>
        <time>2026-05-27T05:22:30Z</time>
      </trkpt>
      <trkpt lat="43.31352" lon="2.02574">
        <ele>160.1</ele>
        <time>2026-05-27T05:22:35Z</time>
      </trkpt>
      <trkpt lat="43.31346" lon="2.0258">
        <ele>159.9</ele>
        <time>2026-05-27T05:22:40Z</time>
      </trkpt>
      <trkpt lat="43.31341" lon="2.02584">
        <ele>159.8</ele>
        <time>2026-05-27T05:22:45Z</time>
      </trkpt>
      <trkpt lat="43.31337" lon="2.02589">
        <ele>159.6</ele>
        <time>2026-05-27T05:22:50Z</time>
      </trkpt>
      <trkpt lat="43.31332" lon="2.02594">
        <ele>159.3</ele>
        <time>2026-05-27T05:22:55Z</time>
      </trkpt>
      <trkpt lat="43.31327" lon="2.02599">
        <ele>158.9</ele>
        <time>2026-05-27T05:23:00Z</time>
      </trkpt>
      <trkpt lat="43.31322" lon="2.02603">
        <ele>158.5</ele>
        <time>2026-05-27T05:23:05Z</time>
      </trkpt>
      <trkpt lat="43.31318" lon="2.02609">
        <ele>158.1</ele>
        <time>2026-05-27T05:23:10Z</time>
      </trkpt>
      <trkpt lat="43.31312" lon="2.02614">
        <ele>157.6</ele>
        <time>2026-05-27T05:23:15Z</time>
      </trkpt>
      <trkpt lat="43.31307" lon="2.02619">
        <ele>157.2</ele>
        <time>2026-05-27T05:23:20Z</time>
      </trkpt>
      <trkpt lat="43.31305" lon="2.0262">
        <ele>157.1</ele>
        <time>2026-05-27T05:23:25Z</time>
      </trkpt>
      <trkpt lat="43.31305" lon="2.0262">
        <ele>157.1</ele>
        <time>2026-05-27T05:23:30Z</time>
      </trkpt>
      <trkpt lat="43.31305" lon="2.0262">
        <ele>157.1</ele>
        <time>2026-05-27T05:23:35Z</time>
      </trkpt>
      <trkpt lat="43.31305" lon="2.02626">
        <ele>156.8</ele>
        <time>2026-05-27T05:23:40Z</time>
      </trkpt>
      <trkpt lat="43.31299" lon="2.02629">
        <ele>156.4</ele>
        <time>2026-05-27T05:23:45Z</time>
      </trkpt>
      <trkpt lat="43.31294" lon="2.02632">
        <ele>156.1</ele>
        <time>2026-05-27T05:23:50Z</time>
      </trkpt>
      <trkpt lat="43.31289" lon="2.02638">
        <ele>155.7</ele>
        <time>2026-05-27T05:23:55Z</time>
      </trkpt>
      <trkpt lat="43.31285" lon="2.02642">
        <ele>155.3</ele>
        <time>2026-05-27T05:24:00Z</time>
      </trkpt>
      <trkpt lat="43.31281" lon="2.02645">
        <ele>155</ele>
        <time>2026-05-27T05:24:05Z</time>
      </trkpt>
      <trkpt lat="43.31279" lon="2.0265">
        <ele>154.7</ele>
        <time>2026-05-27T05:24:10Z</time>
      </trkpt>
      <trkpt lat="43.31274" lon="2.02654">
        <ele>154.3</ele>
        <time>2026-05-27T05:24:15Z</time>
      </trkpt>
      <trkpt lat="43.31267" lon="2.0266">
        <ele>153.8</ele>
        <time>2026-05-27T05:24:20Z</time>
      </trkpt>
      <trkpt lat="43.31262" lon="2.02666">
        <ele>153.3</ele>
        <time>2026-05-27T05:24:25Z</time>
      </trkpt>
      <trkpt lat="43.31257" lon="2.02671">
        <ele>153.1</ele>
        <time>2026-05-27T05:24:30Z</time>
      </trkpt>
      <trkpt lat="43.31251" lon="2.02677">
        <ele>152.8</ele>
        <time>2026-05-27T05:24:35Z</time>
      </trkpt>
      <trkpt lat="43.31245" lon="2.02682">
        <ele>152.6</ele>
        <time>2026-05-27T05:24:40Z</time>
      </trkpt>
      <trkpt lat="43.3124" lon="2.02686">
        <ele>152.4</ele>
        <time>2026-05-27T05:24:45Z</time>
      </trkpt>
      <trkpt lat="43.31234" lon="2.0269">
        <ele>152.3</ele>
        <time>2026-05-27T05:24:50Z</time>
      </trkpt>
      <trkpt lat="43.31229" lon="2.02694">
        <ele>152.2</ele>
        <time>2026-05-27T05:24:55Z</time>
      </trkpt>
      <trkpt lat="43.31223" lon="2.02699">
        <ele>152</ele>
        <time>2026-05-27T05:25:00Z</time>
      </trkpt>
      <trkpt lat="43.31218" lon="2.02705">
        <ele>151.9</ele>
        <time>2026-05-27T05:25:05Z</time>
      </trkpt>
      <trkpt lat="43.31213" lon="2.02709">
        <ele>151.8</ele>
        <time>2026-05-27T05:25:10Z</time>
      </trkpt>
      <trkpt lat="43.31208" lon="2.02714">
        <ele>151.6</ele>
        <time>2026-05-27T05:25:15Z</time>
      </trkpt>
      <trkpt lat="43.31202" lon="2.02719">
        <ele>151.5</ele>
        <time>2026-05-27T05:25:20Z</time>
      </trkpt>
      <trkpt lat="43.31198" lon="2.02725">
        <ele>151.4</ele>
        <time>2026-05-27T05:25:25Z</time>
      </trkpt>
      <trkpt lat="43.31192" lon="2.0273">
        <ele>151.3</ele>
        <time>2026-05-27T05:25:30Z</time>
      </trkpt>
      <trkpt lat="43.31186" lon="2.02735">
        <ele>151.2</ele>
        <time>2026-05-27T05:25:35Z</time>
      </trkpt>
      <trkpt lat="43.3118" lon="2.02738">
        <ele>151.2</ele>
        <time>2026-05-27T05:25:40Z</time>
      </trkpt>
      <trkpt lat="43.31175" lon="2.02743">
        <ele>151.1</ele>
        <time>2026-05-27T05:25:45Z</time>
      </trkpt>
      <trkpt lat="43.3117" lon="2.02748">
        <ele>151</ele>
        <time>2026-05-27T05:25:50Z</time>
      </trkpt>
      <trkpt lat="43.31164" lon="2.02753">
        <ele>151</ele>
        <time>2026-05-27T05:25:55Z</time>
      </trkpt>
      <trkpt lat="43.31158" lon="2.02759">
        <ele>151</ele>
        <time>2026-05-27T05:26:00Z</time>
      </trkpt>
      <trkpt lat="43.31151" lon="2.02763">
        <ele>151</ele>
        <time>2026-05-27T05:26:05Z</time>
      </trkpt>
      <trkpt lat="43.31145" lon="2.02767">
        <ele>150.9</ele>
        <time>2026-05-27T05:26:10Z</time>
      </trkpt>
      <trkpt lat="43.3114" lon="2.02769">
        <ele>150.9</ele>
        <time>2026-05-27T05:26:15Z</time>
      </trkpt>
      <trkpt lat="43.31133" lon="2.02773">
        <ele>150.9</ele>
        <time>2026-05-27T05:26:20Z</time>
      </trkpt>
      <trkpt lat="43.31127" lon="2.02776">
        <ele>150.8</ele>
        <time>2026-05-27T05:26:25Z</time>
      </trkpt>
      <trkpt lat="43.31121" lon="2.0278">
        <ele>150.8</ele>
        <time>2026-05-27T05:26:30Z</time>
      </trkpt>
      <trkpt lat="43.31115" lon="2.02783">
        <ele>150.8</ele>
        <time>2026-05-27T05:26:35Z</time>
      </trkpt>
      <trkpt lat="43.31108" lon="2.02785">
        <ele>150.7</ele>
        <time>2026-05-27T05:26:40Z</time>
      </trkpt>
      <trkpt lat="43.31105" lon="2.02788">
        <ele>150.7</ele>
        <time>2026-05-27T05:26:45Z</time>
      </trkpt>
      <trkpt lat="43.311" lon="2.02788">
        <ele>150.7</ele>
        <time>2026-05-27T05:26:50Z</time>
      </trkpt>
      <trkpt lat="43.31099" lon="2.02791">
        <ele>150.7</ele>
        <time>2026-05-27T05:26:55Z</time>
      </trkpt>
      <trkpt lat="43.31099" lon="2.02791">
        <ele>150.7</ele>
        <time>2026-05-27T05:27:00Z</time>
      </trkpt>
      <trkpt lat="43.31099" lon="2.02791">
        <ele>150.7</ele>
        <time>2026-05-27T05:27:05Z</time>
      </trkpt>
      <trkpt lat="43.31098" lon="2.02792">
        <ele>150.7</ele>
        <time>2026-05-27T05:27:10Z</time>
      </trkpt>
      <trkpt lat="43.31098" lon="2.02792">
        <ele>150.7</ele>
        <time>2026-05-27T05:27:15Z</time>
      </trkpt>
      <trkpt lat="43.31098" lon="2.02792">
        <ele>150.7</ele>
        <time>2026-05-27T05:27:20Z</time>
      </trkpt>
      <trkpt lat="43.31098" lon="2.02792">
        <ele>150.7</ele>
        <time>2026-05-27T05:27:25Z</time>
      </trkpt>
      <trkpt lat="43.31098" lon="2.02792">
        <ele>150.7</ele>
        <time>2026-05-27T05:27:30Z</time>
      </trkpt>
      <trkpt lat="43.31091" lon="2.02795">
        <ele>150.6</ele>
        <time>2026-05-27T05:27:35Z</time>
      </trkpt>
      <trkpt lat="43.31086" lon="2.02797">
        <ele>150.6</ele>
        <time>2026-05-27T05:27:40Z</time>
      </trkpt>
      <trkpt lat="43.31079" lon="2.02799">
        <ele>150.6</ele>
        <time>2026-05-27T05:27:45Z</time>
      </trkpt>
      <trkpt lat="43.31072" lon="2.02802">
        <ele>150.6</ele>
        <time>2026-05-27T05:27:50Z</time>
      </trkpt>
      <trkpt lat="43.31067" lon="2.02806">
        <ele>150.7</ele>
        <time>2026-05-27T05:27:55Z</time>
      </trkpt>
      <trkpt lat="43.31061" lon="2.02808">
        <ele>150.7</ele>
        <time>2026-05-27T05:28:00Z</time>
      </trkpt>
      <trkpt lat="43.31055" lon="2.02811">
        <ele>150.7</ele>
        <time>2026-05-27T05:28:05Z</time>
      </trkpt>
      <trkpt lat="43.31049" lon="2.02815">
        <ele>150.8</ele>
        <time>2026-05-27T05:28:10Z</time>
      </trkpt>
      <trkpt lat="43.31043" lon="2.02818">
        <ele>150.8</ele>
        <time>2026-05-27T05:28:15Z</time>
      </trkpt>
      <trkpt lat="43.31038" lon="2.02821">
        <ele>150.9</ele>
        <time>2026-05-27T05:28:20Z</time>
      </trkpt>
      <trkpt lat="43.31032" lon="2.02824">
        <ele>150.9</ele>
        <time>2026-05-27T05:28:25Z</time>
      </trkpt>
      <trkpt lat="43.31026" lon="2.02828">
        <ele>150.9</ele>
        <time>2026-05-27T05:28:30Z</time>
      </trkpt>
      <trkpt lat="43.3102" lon="2.02831">
        <ele>151</ele>
        <time>2026-05-27T05:28:35Z</time>
      </trkpt>
      <trkpt lat="43.31012" lon="2.02834">
        <ele>151</ele>
        <time>2026-05-27T05:28:40Z</time>
      </trkpt>
      <trkpt lat="43.31005" lon="2.02837">
        <ele>151</ele>
        <time>2026-05-27T05:28:45Z</time>
      </trkpt>
      <trkpt lat="43.30999" lon="2.02838">
        <ele>151</ele>
        <time>2026-05-27T05:28:50Z</time>
      </trkpt>
      <trkpt lat="43.30993" lon="2.02839">
        <ele>150.8</ele>
        <time>2026-05-27T05:28:55Z</time>
      </trkpt>
      <trkpt lat="43.30985" lon="2.0284">
        <ele>150.5</ele>
        <time>2026-05-27T05:29:00Z</time>
      </trkpt>
      <trkpt lat="43.3098" lon="2.0284">
        <ele>150.3</ele>
        <time>2026-05-27T05:29:05Z</time>
      </trkpt>
      <trkpt lat="43.30973" lon="2.02838">
        <ele>150.1</ele>
        <time>2026-05-27T05:29:10Z</time>
      </trkpt>
      <trkpt lat="43.30967" lon="2.02837">
        <ele>149.8</ele>
        <time>2026-05-27T05:29:15Z</time>
      </trkpt>
      <trkpt lat="43.3096" lon="2.02837">
        <ele>149.6</ele>
        <time>2026-05-27T05:29:20Z</time>
      </trkpt>
      <trkpt lat="43.30954" lon="2.02835">
        <ele>149.4</ele>
        <time>2026-05-27T05:29:25Z</time>
      </trkpt>
      <trkpt lat="43.30948" lon="2.02833">
        <ele>149.1</ele>
        <time>2026-05-27T05:29:30Z</time>
      </trkpt>
      <trkpt lat="43.30942" lon="2.02833">
        <ele>148.9</ele>
        <time>2026-05-27T05:29:35Z</time>
      </trkpt>
      <trkpt lat="43.30936" lon="2.02834">
        <ele>148.7</ele>
        <time>2026-05-27T05:29:40Z</time>
      </trkpt>
      <trkpt lat="43.30929" lon="2.02833">
        <ele>148.4</ele>
        <time>2026-05-27T05:29:45Z</time>
      </trkpt>
      <trkpt lat="43.30923" lon="2.0283">
        <ele>148.3</ele>
        <time>2026-05-27T05:29:50Z</time>
      </trkpt>
      <trkpt lat="43.30916" lon="2.02829">
        <ele>148.1</ele>
        <time>2026-05-27T05:29:55Z</time>
      </trkpt>
      <trkpt lat="43.3091" lon="2.02828">
        <ele>148.1</ele>
        <time>2026-05-27T05:30:00Z</time>
      </trkpt>
      <trkpt lat="43.30903" lon="2.02826">
        <ele>148.3</ele>
        <time>2026-05-27T05:30:05Z</time>
      </trkpt>
      <trkpt lat="43.30897" lon="2.02824">
        <ele>148.3</ele>
        <time>2026-05-27T05:30:10Z</time>
      </trkpt>
      <trkpt lat="43.30889" lon="2.02822">
        <ele>148.5</ele>
        <time>2026-05-27T05:30:15Z</time>
      </trkpt>
      <trkpt lat="43.30882" lon="2.02821">
        <ele>148.6</ele>
        <time>2026-05-27T05:30:20Z</time>
      </trkpt>
      <trkpt lat="43.30875" lon="2.02819">
        <ele>148.7</ele>
        <time>2026-05-27T05:30:25Z</time>
      </trkpt>
      <trkpt lat="43.30869" lon="2.02818">
        <ele>148.8</ele>
        <time>2026-05-27T05:30:30Z</time>
      </trkpt>
      <trkpt lat="43.30863" lon="2.02817">
        <ele>148.8</ele>
        <time>2026-05-27T05:30:35Z</time>
      </trkpt>
      <trkpt lat="43.30856" lon="2.02817">
        <ele>148.9</ele>
        <time>2026-05-27T05:30:40Z</time>
      </trkpt>
      <trkpt lat="43.3085" lon="2.02816">
        <ele>149</ele>
        <time>2026-05-27T05:30:45Z</time>
      </trkpt>
      <trkpt lat="43.30844" lon="2.02816">
        <ele>149.1</ele>
        <time>2026-05-27T05:30:50Z</time>
      </trkpt>
      <trkpt lat="43.30837" lon="2.02815">
        <ele>149.2</ele>
        <time>2026-05-27T05:30:55Z</time>
      </trkpt>
      <trkpt lat="43.30831" lon="2.02814">
        <ele>149.2</ele>
        <time>2026-05-27T05:31:00Z</time>
      </trkpt>
      <trkpt lat="43.30825" lon="2.02813">
        <ele>149.1</ele>
        <time>2026-05-27T05:31:05Z</time>
      </trkpt>
      <trkpt lat="43.30818" lon="2.02812">
        <ele>149</ele>
        <time>2026-05-27T05:31:10Z</time>
      </trkpt>
      <trkpt lat="43.30811" lon="2.02811">
        <ele>148.9</ele>
        <time>2026-05-27T05:31:15Z</time>
      </trkpt>
      <trkpt lat="43.30805" lon="2.02809">
        <ele>148.8</ele>
        <time>2026-05-27T05:31:20Z</time>
      </trkpt>
      <trkpt lat="43.30799" lon="2.02808">
        <ele>148.7</ele>
        <time>2026-05-27T05:31:25Z</time>
      </trkpt>
      <trkpt lat="43.30792" lon="2.02806">
        <ele>148.7</ele>
        <time>2026-05-27T05:31:30Z</time>
      </trkpt>
      <trkpt lat="43.30786" lon="2.02806">
        <ele>148.6</ele>
        <time>2026-05-27T05:31:35Z</time>
      </trkpt>
      <trkpt lat="43.3078" lon="2.02805">
        <ele>148.5</ele>
        <time>2026-05-27T05:31:40Z</time>
      </trkpt>
      <trkpt lat="43.30774" lon="2.02805">
        <ele>148.4</ele>
        <time>2026-05-27T05:31:45Z</time>
      </trkpt>
      <trkpt lat="43.30767" lon="2.02803">
        <ele>148.4</ele>
        <time>2026-05-27T05:31:50Z</time>
      </trkpt>
      <trkpt lat="43.3076" lon="2.02803">
        <ele>148.2</ele>
        <time>2026-05-27T05:31:55Z</time>
      </trkpt>
      <trkpt lat="43.30755" lon="2.02801">
        <ele>148.2</ele>
        <time>2026-05-27T05:32:00Z</time>
      </trkpt>
      <trkpt lat="43.30747" lon="2.028">
        <ele>148.2</ele>
        <time>2026-05-27T05:32:05Z</time>
      </trkpt>
      <trkpt lat="43.3074" lon="2.02798">
        <ele>148.4</ele>
        <time>2026-05-27T05:32:10Z</time>
      </trkpt>
      <trkpt lat="43.30733" lon="2.02798">
        <ele>148.5</ele>
        <time>2026-05-27T05:32:15Z</time>
      </trkpt>
      <trkpt lat="43.30727" lon="2.02796">
        <ele>148.7</ele>
        <time>2026-05-27T05:32:20Z</time>
      </trkpt>
      <trkpt lat="43.3072" lon="2.02795">
        <ele>148.9</ele>
        <time>2026-05-27T05:32:25Z</time>
      </trkpt>
      <trkpt lat="43.30714" lon="2.02795">
        <ele>149</ele>
        <time>2026-05-27T05:32:30Z</time>
      </trkpt>
      <trkpt lat="43.30708" lon="2.02794">
        <ele>149.1</ele>
        <time>2026-05-27T05:32:35Z</time>
      </trkpt>
      <trkpt lat="43.307" lon="2.02794">
        <ele>149.3</ele>
        <time>2026-05-27T05:32:40Z</time>
      </trkpt>
      <trkpt lat="43.30695" lon="2.02792">
        <ele>149.5</ele>
        <time>2026-05-27T05:32:45Z</time>
      </trkpt>
      <trkpt lat="43.30689" lon="2.0279">
        <ele>149.7</ele>
        <time>2026-05-27T05:32:50Z</time>
      </trkpt>
      <trkpt lat="43.30682" lon="2.02789">
        <ele>149.9</ele>
        <time>2026-05-27T05:32:55Z</time>
      </trkpt>
      <trkpt lat="43.30676" lon="2.02787">
        <ele>150.1</ele>
        <time>2026-05-27T05:33:00Z</time>
      </trkpt>
      <trkpt lat="43.30669" lon="2.02785">
        <ele>150.4</ele>
        <time>2026-05-27T05:33:05Z</time>
      </trkpt>
      <trkpt lat="43.30663" lon="2.02784">
        <ele>150.5</ele>
        <time>2026-05-27T05:33:10Z</time>
      </trkpt>
      <trkpt lat="43.30657" lon="2.02783">
        <ele>150.4</ele>
        <time>2026-05-27T05:33:15Z</time>
      </trkpt>
      <trkpt lat="43.3065" lon="2.02781">
        <ele>150.4</ele>
        <time>2026-05-27T05:33:20Z</time>
      </trkpt>
      <trkpt lat="43.30643" lon="2.02779">
        <ele>150.4</ele>
        <time>2026-05-27T05:33:25Z</time>
      </trkpt>
      <trkpt lat="43.30636" lon="2.02776">
        <ele>150.4</ele>
        <time>2026-05-27T05:33:30Z</time>
      </trkpt>
      <trkpt lat="43.30631" lon="2.02773">
        <ele>150.4</ele>
        <time>2026-05-27T05:33:35Z</time>
      </trkpt>
      <trkpt lat="43.30624" lon="2.0277">
        <ele>150.4</ele>
        <time>2026-05-27T05:33:40Z</time>
      </trkpt>
      <trkpt lat="43.30619" lon="2.02765">
        <ele>150.5</ele>
        <time>2026-05-27T05:33:45Z</time>
      </trkpt>
      <trkpt lat="43.30613" lon="2.02762">
        <ele>150.5</ele>
        <time>2026-05-27T05:33:50Z</time>
      </trkpt>
      <trkpt lat="43.30607" lon="2.02759">
        <ele>150.4</ele>
        <time>2026-05-27T05:33:55Z</time>
      </trkpt>
      <trkpt lat="43.30601" lon="2.02755">
        <ele>150.4</ele>
        <time>2026-05-27T05:34:00Z</time>
      </trkpt>
      <trkpt lat="43.30595" lon="2.02752">
        <ele>150.3</ele>
        <time>2026-05-27T05:34:05Z</time>
      </trkpt>
      <trkpt lat="43.30588" lon="2.02745">
        <ele>150.4</ele>
        <time>2026-05-27T05:34:10Z</time>
      </trkpt>
      <trkpt lat="43.30582" lon="2.02747">
        <ele>150.1</ele>
        <time>2026-05-27T05:34:15Z</time>
      </trkpt>
      <trkpt lat="43.30576" lon="2.0275">
        <ele>149.6</ele>
        <time>2026-05-27T05:34:20Z</time>
      </trkpt>
      <trkpt lat="43.3057" lon="2.02753">
        <ele>149.3</ele>
        <time>2026-05-27T05:34:25Z</time>
      </trkpt>
      <trkpt lat="43.30565" lon="2.02758">
        <ele>148.9</ele>
        <time>2026-05-27T05:34:30Z</time>
      </trkpt>
      <trkpt lat="43.3056" lon="2.02763">
        <ele>148.5</ele>
        <time>2026-05-27T05:34:35Z</time>
      </trkpt>
      <trkpt lat="43.30555" lon="2.02767">
        <ele>148.2</ele>
        <time>2026-05-27T05:34:40Z</time>
      </trkpt>
      <trkpt lat="43.3055" lon="2.02775">
        <ele>147.9</ele>
        <time>2026-05-27T05:34:45Z</time>
      </trkpt>
      <trkpt lat="43.30545" lon="2.02783">
        <ele>147.5</ele>
        <time>2026-05-27T05:34:50Z</time>
      </trkpt>
      <trkpt lat="43.30541" lon="2.02789">
        <ele>147.3</ele>
        <time>2026-05-27T05:34:55Z</time>
      </trkpt>
      <trkpt lat="43.30536" lon="2.02791">
        <ele>147.1</ele>
        <time>2026-05-27T05:35:00Z</time>
      </trkpt>
      <trkpt lat="43.30531" lon="2.02792">
        <ele>146.9</ele>
        <time>2026-05-27T05:35:05Z</time>
      </trkpt>
      <trkpt lat="43.30528" lon="2.0279">
        <ele>146.9</ele>
        <time>2026-05-27T05:35:10Z</time>
      </trkpt>
      <trkpt lat="43.30524" lon="2.02787">
        <ele>146.8</ele>
        <time>2026-05-27T05:35:15Z</time>
      </trkpt>
      <trkpt lat="43.30518" lon="2.02784">
        <ele>146.6</ele>
        <time>2026-05-27T05:35:20Z</time>
      </trkpt>
      <trkpt lat="43.30512" lon="2.02781">
        <ele>146.4</ele>
        <time>2026-05-27T05:35:25Z</time>
      </trkpt>
      <trkpt lat="43.30506" lon="2.02776">
        <ele>146.2</ele>
        <time>2026-05-27T05:35:30Z</time>
      </trkpt>
      <trkpt lat="43.30501" lon="2.02773">
        <ele>146</ele>
        <time>2026-05-27T05:35:35Z</time>
      </trkpt>
      <trkpt lat="43.30494" lon="2.02771">
        <ele>145.7</ele>
        <time>2026-05-27T05:35:40Z</time>
      </trkpt>
      <trkpt lat="43.30488" lon="2.02769">
        <ele>145.4</ele>
        <time>2026-05-27T05:35:45Z</time>
      </trkpt>
      <trkpt lat="43.30483" lon="2.02767">
        <ele>145.2</ele>
        <time>2026-05-27T05:35:50Z</time>
      </trkpt>
      <trkpt lat="43.30477" lon="2.02765">
        <ele>144.9</ele>
        <time>2026-05-27T05:35:55Z</time>
      </trkpt>
      <trkpt lat="43.30472" lon="2.02763">
        <ele>144.7</ele>
        <time>2026-05-27T05:36:00Z</time>
      </trkpt>
      <trkpt lat="43.30466" lon="2.02761">
        <ele>144.4</ele>
        <time>2026-05-27T05:36:05Z</time>
      </trkpt>
      <trkpt lat="43.30459" lon="2.02757">
        <ele>144</ele>
        <time>2026-05-27T05:36:10Z</time>
      </trkpt>
      <trkpt lat="43.30452" lon="2.02755">
        <ele>143.7</ele>
        <time>2026-05-27T05:36:15Z</time>
      </trkpt>
      <trkpt lat="43.30446" lon="2.02752">
        <ele>143.4</ele>
        <time>2026-05-27T05:36:20Z</time>
      </trkpt>
      <trkpt lat="43.30439" lon="2.0275">
        <ele>143.1</ele>
        <time>2026-05-27T05:36:25Z</time>
      </trkpt>
      <trkpt lat="43.30432" lon="2.02746">
        <ele>142.7</ele>
        <time>2026-05-27T05:36:30Z</time>
      </trkpt>
      <trkpt lat="43.30425" lon="2.02744">
        <ele>142.4</ele>
        <time>2026-05-27T05:36:35Z</time>
      </trkpt>
      <trkpt lat="43.30417" lon="2.0274">
        <ele>142</ele>
        <time>2026-05-27T05:36:40Z</time>
      </trkpt>
      <trkpt lat="43.3041" lon="2.0274">
        <ele>142</ele>
        <time>2026-05-27T05:36:45Z</time>
      </trkpt>
      <trkpt lat="43.30404" lon="2.02738">
        <ele>142</ele>
        <time>2026-05-27T05:36:50Z</time>
      </trkpt>
      <trkpt lat="43.30398" lon="2.02737">
        <ele>142</ele>
        <time>2026-05-27T05:36:55Z</time>
      </trkpt>
      <trkpt lat="43.30394" lon="2.02734">
        <ele>141.9</ele>
        <time>2026-05-27T05:37:00Z</time>
      </trkpt>
      <trkpt lat="43.30388" lon="2.02732">
        <ele>141.9</ele>
        <time>2026-05-27T05:37:05Z</time>
      </trkpt>
      <trkpt lat="43.3038" lon="2.0273">
        <ele>141.9</ele>
        <time>2026-05-27T05:37:10Z</time>
      </trkpt>
      <trkpt lat="43.30372" lon="2.02726">
        <ele>141.8</ele>
        <time>2026-05-27T05:37:15Z</time>
      </trkpt>
      <trkpt lat="43.30366" lon="2.02723">
        <ele>141.8</ele>
        <time>2026-05-27T05:37:20Z</time>
      </trkpt>
      <trkpt lat="43.30359" lon="2.02719">
        <ele>141.7</ele>
        <time>2026-05-27T05:37:25Z</time>
      </trkpt>
      <trkpt lat="43.30353" lon="2.02718">
        <ele>141.7</ele>
        <time>2026-05-27T05:37:30Z</time>
      </trkpt>
      <trkpt lat="43.30348" lon="2.02714">
        <ele>141.6</ele>
        <time>2026-05-27T05:37:35Z</time>
      </trkpt>
      <trkpt lat="43.30341" lon="2.0271">
        <ele>141.6</ele>
        <time>2026-05-27T05:37:40Z</time>
      </trkpt>
      <trkpt lat="43.30333" lon="2.02705">
        <ele>141.5</ele>
        <time>2026-05-27T05:37:45Z</time>
      </trkpt>
      <trkpt lat="43.30327" lon="2.02699">
        <ele>141.4</ele>
        <time>2026-05-27T05:37:50Z</time>
      </trkpt>
      <trkpt lat="43.30322" lon="2.02693">
        <ele>141.4</ele>
        <time>2026-05-27T05:37:55Z</time>
      </trkpt>
      <trkpt lat="43.30318" lon="2.02688">
        <ele>141.3</ele>
        <time>2026-05-27T05:38:00Z</time>
      </trkpt>
      <trkpt lat="43.30316" lon="2.02686">
        <ele>141.3</ele>
        <time>2026-05-27T05:38:05Z</time>
      </trkpt>
      <trkpt lat="43.30316" lon="2.02686">
        <ele>141.3</ele>
        <time>2026-05-27T05:38:10Z</time>
      </trkpt>
      <trkpt lat="43.30316" lon="2.02686">
        <ele>141.3</ele>
        <time>2026-05-27T05:38:15Z</time>
      </trkpt>
      <trkpt lat="43.30316" lon="2.02686">
        <ele>141.3</ele>
        <time>2026-05-27T05:38:20Z</time>
      </trkpt>
      <trkpt lat="43.30316" lon="2.02686">
        <ele>141.3</ele>
        <time>2026-05-27T05:38:25Z</time>
      </trkpt>
      <trkpt lat="43.30316" lon="2.02686">
        <ele>141.3</ele>
        <time>2026-05-27T05:38:30Z</time>
      </trkpt>
      <trkpt lat="43.30316" lon="2.02686">
        <ele>141.3</ele>
        <time>2026-05-27T05:38:35Z</time>
      </trkpt>
      <trkpt lat="43.30316" lon="2.02686">
        <ele>141.3</ele>
        <time>2026-05-27T05:38:40Z</time>
      </trkpt>
      <trkpt lat="43.30316" lon="2.02686">
        <ele>141.3</ele>
        <time>2026-05-27T05:38:45Z</time>
      </trkpt>
      <trkpt lat="43.30316" lon="2.02686">
        <ele>141.3</ele>
        <time>2026-05-27T05:38:50Z</time>
      </trkpt>
      <trkpt lat="43.30316" lon="2.02686">
        <ele>141.3</ele>
        <time>2026-05-27T05:38:55Z</time>
      </trkpt>
      <trkpt lat="43.30316" lon="2.02686">
        <ele>141.3</ele>
        <time>2026-05-27T05:39:00Z</time>
      </trkpt>
      <trkpt lat="43.30316" lon="2.02686">
        <ele>141.3</ele>
        <time>2026-05-27T05:39:05Z</time>
      </trkpt>
      <trkpt lat="43.30316" lon="2.02686">
        <ele>141.3</ele>
        <time>2026-05-27T05:39:10Z</time>
      </trkpt>
      <trkpt lat="43.30316" lon="2.02686">
        <ele>141.3</ele>
        <time>2026-05-27T05:39:15Z</time>
      </trkpt>
      <trkpt lat="43.30316" lon="2.02686">
        <ele>141.3</ele>
        <time>2026-05-27T05:39:20Z</time>
      </trkpt>
      <trkpt lat="43.30316" lon="2.02686">
        <ele>141.3</ele>
        <time>2026-05-27T05:39:25Z</time>
      </trkpt>
      <trkpt lat="43.30316" lon="2.02686">
        <ele>141.3</ele>
        <time>2026-05-27T05:39:30Z</time>
      </trkpt>
      <trkpt lat="43.30316" lon="2.02686">
        <ele>141.3</ele>
        <time>2026-05-27T05:39:35Z</time>
      </trkpt>
      <trkpt lat="43.30316" lon="2.02686">
        <ele>141.3</ele>
        <time>2026-05-27T05:39:40Z</time>
      </trkpt>
      <trkpt lat="43.30316" lon="2.02686">
        <ele>141.3</ele>
        <time>2026-05-27T05:39:45Z</time>
      </trkpt>
      <trkpt lat="43.30316" lon="2.02686">
        <ele>141.3</ele>
        <time>2026-05-27T05:39:50Z</time>
      </trkpt>
      <trkpt lat="43.30316" lon="2.02686">
        <ele>141.3</ele>
        <time>2026-05-27T05:39:55Z</time>
      </trkpt>
      <trkpt lat="43.30316" lon="2.02686">
        <ele>141.3</ele>
        <time>2026-05-27T05:40:00Z</time>
      </trkpt>
      <trkpt lat="43.30316" lon="2.02686">
        <ele>141.3</ele>
        <time>2026-05-27T05:40:05Z</time>
      </trkpt>
      <trkpt lat="43.30316" lon="2.02686">
        <ele>141.3</ele>
        <time>2026-05-27T05:40:10Z</time>
      </trkpt>
      <trkpt lat="43.30316" lon="2.02686">
        <ele>141.3</ele>
        <time>2026-05-27T05:40:15Z</time>
      </trkpt>
      <trkpt lat="43.30316" lon="2.02686">
        <ele>141.3</ele>
        <time>2026-05-27T05:40:20Z</time>
      </trkpt>
      <trkpt lat="43.30316" lon="2.02686">
        <ele>141.3</ele>
        <time>2026-05-27T05:40:25Z</time>
      </trkpt>
      <trkpt lat="43.30316" lon="2.02686">
        <ele>141.3</ele>
        <time>2026-05-27T05:40:30Z</time>
      </trkpt>
      <trkpt lat="43.30316" lon="2.02686">
        <ele>141.3</ele>
        <time>2026-05-27T05:40:35Z</time>
      </trkpt>
      <trkpt lat="43.30316" lon="2.02686">
        <ele>141.3</ele>
        <time>2026-05-27T05:40:40Z</time>
      </trkpt>
      <trkpt lat="43.30316" lon="2.02686">
        <ele>141.3</ele>
        <time>2026-05-27T05:40:45Z</time>
      </trkpt>
      <trkpt lat="43.30316" lon="2.02686">
        <ele>141.3</ele>
        <time>2026-05-27T05:40:50Z</time>
      </trkpt>
      <trkpt lat="43.30316" lon="2.02686">
        <ele>141.3</ele>
        <time>2026-05-27T05:40:55Z</time>
      </trkpt>
      <trkpt lat="43.30316" lon="2.02686">
        <ele>141.3</ele>
        <time>2026-05-27T05:41:00Z</time>
      </trkpt>
      <trkpt lat="43.30316" lon="2.02686">
        <ele>141.3</ele>
        <time>2026-05-27T05:41:05Z</time>
      </trkpt>
      <trkpt lat="43.30316" lon="2.02686">
        <ele>141.3</ele>
        <time>2026-05-27T05:41:10Z</time>
      </trkpt>
      <trkpt lat="43.30316" lon="2.02686">
        <ele>141.3</ele>
        <time>2026-05-27T05:41:15Z</time>
      </trkpt>
      <trkpt lat="43.30316" lon="2.02686">
        <ele>141.3</ele>
        <time>2026-05-27T05:41:20Z</time>
      </trkpt>
      <trkpt lat="43.30316" lon="2.02686">
        <ele>141.3</ele>
        <time>2026-05-27T05:41:25Z</time>
      </trkpt>
      <trkpt lat="43.30316" lon="2.02686">
        <ele>141.3</ele>
        <time>2026-05-27T05:41:30Z</time>
      </trkpt>
      <trkpt lat="43.30316" lon="2.02686">
        <ele>141.3</ele>
        <time>2026-05-27T05:41:35Z</time>
      </trkpt>
      <trkpt lat="43.30312" lon="2.02684">
        <ele>141.3</ele>
        <time>2026-05-27T05:41:40Z</time>
      </trkpt>
      <trkpt lat="43.30307" lon="2.02681">
        <ele>141.2</ele>
        <time>2026-05-27T05:41:45Z</time>
      </trkpt>
      <trkpt lat="43.30304" lon="2.02677">
        <ele>141.2</ele>
        <time>2026-05-27T05:41:50Z</time>
      </trkpt>
      <trkpt lat="43.303" lon="2.02673">
        <ele>141.1</ele>
        <time>2026-05-27T05:41:55Z</time>
      </trkpt>
      <trkpt lat="43.30297" lon="2.02669">
        <ele>141</ele>
        <time>2026-05-27T05:42:00Z</time>
      </trkpt>
      <trkpt lat="43.30296" lon="2.02668">
        <ele>141</ele>
        <time>2026-05-27T05:42:05Z</time>
      </trkpt>
      <trkpt lat="43.30296" lon="2.02667">
        <ele>141</ele>
        <time>2026-05-27T05:42:10Z</time>
      </trkpt>
      <trkpt lat="43.30296" lon="2.02667">
        <ele>141</ele>
        <time>2026-05-27T05:42:15Z</time>
      </trkpt>
      <trkpt lat="43.30296" lon="2.02667">
        <ele>141</ele>
        <time>2026-05-27T05:42:20Z</time>
      </trkpt>
      <trkpt lat="43.30296" lon="2.02667">
        <ele>141</ele>
        <time>2026-05-27T05:42:25Z</time>
      </trkpt>
      <trkpt lat="43.30296" lon="2.02667">
        <ele>141</ele>
        <time>2026-05-27T05:42:30Z</time>
      </trkpt>
      <trkpt lat="43.30296" lon="2.02667">
        <ele>141</ele>
        <time>2026-05-27T05:42:35Z</time>
      </trkpt>
      <trkpt lat="43.30291" lon="2.02661">
        <ele>141</ele>
        <time>2026-05-27T05:42:40Z</time>
      </trkpt>
      <trkpt lat="43.30288" lon="2.02655">
        <ele>141.1</ele>
        <time>2026-05-27T05:42:45Z</time>
      </trkpt>
      <trkpt lat="43.30284" lon="2.02652">
        <ele>141.1</ele>
        <time>2026-05-27T05:42:50Z</time>
      </trkpt>
      <trkpt lat="43.30283" lon="2.0265">
        <ele>141.1</ele>
        <time>2026-05-27T05:42:55Z</time>
      </trkpt>
      <trkpt lat="43.30282" lon="2.0265">
        <ele>141.1</ele>
        <time>2026-05-27T05:43:00Z</time>
      </trkpt>
      <trkpt lat="43.30282" lon="2.0265">
        <ele>141.1</ele>
        <time>2026-05-27T05:43:05Z</time>
      </trkpt>
      <trkpt lat="43.30282" lon="2.0265">
        <ele>141.1</ele>
        <time>2026-05-27T05:43:10Z</time>
      </trkpt>
      <trkpt lat="43.30278" lon="2.02644">
        <ele>141.2</ele>
        <time>2026-05-27T05:43:15Z</time>
      </trkpt>
      <trkpt lat="43.30272" lon="2.02638">
        <ele>141.3</ele>
        <time>2026-05-27T05:43:20Z</time>
      </trkpt>
      <trkpt lat="43.30267" lon="2.02634">
        <ele>141.3</ele>
        <time>2026-05-27T05:43:25Z</time>
      </trkpt>
      <trkpt lat="43.30262" lon="2.02628">
        <ele>141.4</ele>
        <time>2026-05-27T05:43:30Z</time>
      </trkpt>
      <trkpt lat="43.30258" lon="2.02622">
        <ele>141.5</ele>
        <time>2026-05-27T05:43:35Z</time>
      </trkpt>
      <trkpt lat="43.30254" lon="2.02615">
        <ele>141.6</ele>
        <time>2026-05-27T05:43:40Z</time>
      </trkpt>
      <trkpt lat="43.30251" lon="2.02608">
        <ele>141.7</ele>
        <time>2026-05-27T05:43:45Z</time>
      </trkpt>
      <trkpt lat="43.30247" lon="2.02603">
        <ele>141.7</ele>
        <time>2026-05-27T05:43:50Z</time>
      </trkpt>
      <trkpt lat="43.30243" lon="2.02597">
        <ele>141.8</ele>
        <time>2026-05-27T05:43:55Z</time>
      </trkpt>
      <trkpt lat="43.30239" lon="2.02591">
        <ele>141.8</ele>
        <time>2026-05-27T05:44:00Z</time>
      </trkpt>
      <trkpt lat="43.30233" lon="2.02585">
        <ele>141.8</ele>
        <time>2026-05-27T05:44:05Z</time>
      </trkpt>
      <trkpt lat="43.30229" lon="2.02578">
        <ele>141.7</ele>
        <time>2026-05-27T05:44:10Z</time>
      </trkpt>
      <trkpt lat="43.30225" lon="2.02573">
        <ele>141.7</ele>
        <time>2026-05-27T05:44:15Z</time>
      </trkpt>
      <trkpt lat="43.30219" lon="2.02567">
        <ele>141.6</ele>
        <time>2026-05-27T05:44:20Z</time>
      </trkpt>
      <trkpt lat="43.30213" lon="2.0256">
        <ele>141.6</ele>
        <time>2026-05-27T05:44:25Z</time>
      </trkpt>
      <trkpt lat="43.30207" lon="2.02554">
        <ele>141.5</ele>
        <time>2026-05-27T05:44:30Z</time>
      </trkpt>
      <trkpt lat="43.30203" lon="2.02547">
        <ele>141.4</ele>
        <time>2026-05-27T05:44:35Z</time>
      </trkpt>
      <trkpt lat="43.30197" lon="2.02541">
        <ele>141.4</ele>
        <time>2026-05-27T05:44:40Z</time>
      </trkpt>
      <trkpt lat="43.30191" lon="2.02536">
        <ele>141.3</ele>
        <time>2026-05-27T05:44:45Z</time>
      </trkpt>
      <trkpt lat="43.30185" lon="2.02531">
        <ele>141.2</ele>
        <time>2026-05-27T05:44:50Z</time>
      </trkpt>
      <trkpt lat="43.3018" lon="2.02525">
        <ele>141.2</ele>
        <time>2026-05-27T05:44:55Z</time>
      </trkpt>
      <trkpt lat="43.30174" lon="2.0252">
        <ele>141.1</ele>
        <time>2026-05-27T05:45:00Z</time>
      </trkpt>
      <trkpt lat="43.3017" lon="2.02516">
        <ele>141</ele>
        <time>2026-05-27T05:45:05Z</time>
      </trkpt>
      <trkpt lat="43.30165" lon="2.02511">
        <ele>141</ele>
        <time>2026-05-27T05:45:10Z</time>
      </trkpt>
      <trkpt lat="43.3016" lon="2.02507">
        <ele>141.1</ele>
        <time>2026-05-27T05:45:15Z</time>
      </trkpt>
      <trkpt lat="43.30156" lon="2.02503">
        <ele>141.1</ele>
        <time>2026-05-27T05:45:20Z</time>
      </trkpt>
      <trkpt lat="43.3015" lon="2.025">
        <ele>141.2</ele>
        <time>2026-05-27T05:45:25Z</time>
      </trkpt>
      <trkpt lat="43.30145" lon="2.02499">
        <ele>141.3</ele>
        <time>2026-05-27T05:45:30Z</time>
      </trkpt>
      <trkpt lat="43.3014" lon="2.02497">
        <ele>141.4</ele>
        <time>2026-05-27T05:45:35Z</time>
      </trkpt>
      <trkpt lat="43.30134" lon="2.02496">
        <ele>141.4</ele>
        <time>2026-05-27T05:45:40Z</time>
      </trkpt>
      <trkpt lat="43.30128" lon="2.02495">
        <ele>141.5</ele>
        <time>2026-05-27T05:45:45Z</time>
      </trkpt>
      <trkpt lat="43.30122" lon="2.02494">
        <ele>141.6</ele>
        <time>2026-05-27T05:45:50Z</time>
      </trkpt>
      <trkpt lat="43.30117" lon="2.02491">
        <ele>141.7</ele>
        <time>2026-05-27T05:45:55Z</time>
      </trkpt>
      <trkpt lat="43.30106" lon="2.02489">
        <ele>141.9</ele>
        <time>2026-05-27T05:46:00Z</time>
      </trkpt>
      <trkpt lat="43.30099" lon="2.02488">
        <ele>142</ele>
        <time>2026-05-27T05:46:05Z</time>
      </trkpt>
      <trkpt lat="43.30094" lon="2.02485">
        <ele>142.1</ele>
        <time>2026-05-27T05:46:10Z</time>
      </trkpt>
      <trkpt lat="43.3009" lon="2.02481">
        <ele>142.1</ele>
        <time>2026-05-27T05:46:15Z</time>
      </trkpt>
      <trkpt lat="43.30083" lon="2.02476">
        <ele>142.3</ele>
        <time>2026-05-27T05:46:20Z</time>
      </trkpt>
      <trkpt lat="43.30079" lon="2.02471">
        <ele>142.6</ele>
        <time>2026-05-27T05:46:25Z</time>
      </trkpt>
      <trkpt lat="43.30071" lon="2.02467">
        <ele>143.1</ele>
        <time>2026-05-27T05:46:30Z</time>
      </trkpt>
      <trkpt lat="43.30066" lon="2.02463">
        <ele>143.5</ele>
        <time>2026-05-27T05:46:35Z</time>
      </trkpt>
      <trkpt lat="43.30059" lon="2.02459">
        <ele>143.9</ele>
        <time>2026-05-27T05:46:40Z</time>
      </trkpt>
      <trkpt lat="43.30054" lon="2.02453">
        <ele>144.4</ele>
        <time>2026-05-27T05:46:45Z</time>
      </trkpt>
      <trkpt lat="43.30052" lon="2.02452">
        <ele>144.5</ele>
        <time>2026-05-27T05:46:50Z</time>
      </trkpt>
      <trkpt lat="43.30052" lon="2.02452">
        <ele>144.5</ele>
        <time>2026-05-27T05:46:55Z</time>
      </trkpt>
      <trkpt lat="43.3005" lon="2.0245">
        <ele>144.7</ele>
        <time>2026-05-27T05:47:00Z</time>
      </trkpt>
      <trkpt lat="43.30049" lon="2.0245">
        <ele>144.7</ele>
        <time>2026-05-27T05:47:05Z</time>
      </trkpt>
      <trkpt lat="43.30046" lon="2.02448">
        <ele>145</ele>
        <time>2026-05-27T05:47:10Z</time>
      </trkpt>
      <trkpt lat="43.30041" lon="2.02445">
        <ele>145.4</ele>
        <time>2026-05-27T05:47:15Z</time>
      </trkpt>
      <trkpt lat="43.30036" lon="2.0244">
        <ele>145.8</ele>
        <time>2026-05-27T05:47:20Z</time>
      </trkpt>
      <trkpt lat="43.3003" lon="2.02436">
        <ele>146.3</ele>
        <time>2026-05-27T05:47:25Z</time>
      </trkpt>
      <trkpt lat="43.30025" lon="2.02431">
        <ele>146.8</ele>
        <time>2026-05-27T05:47:30Z</time>
      </trkpt>
      <trkpt lat="43.3002" lon="2.02427">
        <ele>147.2</ele>
        <time>2026-05-27T05:47:35Z</time>
      </trkpt>
      <trkpt lat="43.30013" lon="2.02423">
        <ele>147.9</ele>
        <time>2026-05-27T05:47:40Z</time>
      </trkpt>
      <trkpt lat="43.30008" lon="2.02418">
        <ele>148.4</ele>
        <time>2026-05-27T05:47:45Z</time>
      </trkpt>
      <trkpt lat="43.30003" lon="2.02413">
        <ele>149.1</ele>
        <time>2026-05-27T05:47:50Z</time>
      </trkpt>
      <trkpt lat="43.29997" lon="2.02409">
        <ele>150.2</ele>
        <time>2026-05-27T05:47:55Z</time>
      </trkpt>
      <trkpt lat="43.29991" lon="2.02405">
        <ele>151.6</ele>
        <time>2026-05-27T05:48:00Z</time>
      </trkpt>
      <trkpt lat="43.29986" lon="2.024">
        <ele>152.8</ele>
        <time>2026-05-27T05:48:05Z</time>
      </trkpt>
      <trkpt lat="43.29979" lon="2.02394">
        <ele>154.4</ele>
        <time>2026-05-27T05:48:10Z</time>
      </trkpt>
      <trkpt lat="43.29974" lon="2.02391">
        <ele>155.4</ele>
        <time>2026-05-27T05:48:15Z</time>
      </trkpt>
      <trkpt lat="43.29971" lon="2.02387">
        <ele>156.1</ele>
        <time>2026-05-27T05:48:20Z</time>
      </trkpt>
      <trkpt lat="43.29965" lon="2.02383">
        <ele>157.3</ele>
        <time>2026-05-27T05:48:25Z</time>
      </trkpt>
      <trkpt lat="43.29961" lon="2.02379">
        <ele>158.1</ele>
        <time>2026-05-27T05:48:30Z</time>
      </trkpt>
      <trkpt lat="43.29957" lon="2.02378">
        <ele>158.7</ele>
        <time>2026-05-27T05:48:35Z</time>
      </trkpt>
      <trkpt lat="43.29955" lon="2.02374">
        <ele>159.3</ele>
        <time>2026-05-27T05:48:40Z</time>
      </trkpt>
      <trkpt lat="43.29956" lon="2.02372">
        <ele>159.3</ele>
        <time>2026-05-27T05:48:45Z</time>
      </trkpt>
      <trkpt lat="43.29957" lon="2.02372">
        <ele>159.1</ele>
        <time>2026-05-27T05:48:50Z</time>
      </trkpt>
      <trkpt lat="43.29954" lon="2.0237">
        <ele>159.7</ele>
        <time>2026-05-27T05:48:55Z</time>
      </trkpt>
      <trkpt lat="43.29947" lon="2.02369">
        <ele>160.7</ele>
        <time>2026-05-27T05:49:00Z</time>
      </trkpt>
      <trkpt lat="43.29943" lon="2.02365">
        <ele>161.4</ele>
        <time>2026-05-27T05:49:05Z</time>
      </trkpt>
      <trkpt lat="43.29939" lon="2.0236">
        <ele>162.2</ele>
        <time>2026-05-27T05:49:10Z</time>
      </trkpt>
      <trkpt lat="43.29935" lon="2.02358">
        <ele>162.8</ele>
        <time>2026-05-27T05:49:15Z</time>
      </trkpt>
      <trkpt lat="43.2993" lon="2.02353">
        <ele>163.7</ele>
        <time>2026-05-27T05:49:20Z</time>
      </trkpt>
      <trkpt lat="43.29925" lon="2.0235">
        <ele>164.4</ele>
        <time>2026-05-27T05:49:25Z</time>
      </trkpt>
      <trkpt lat="43.29921" lon="2.02346">
        <ele>165</ele>
        <time>2026-05-27T05:49:30Z</time>
      </trkpt>
      <trkpt lat="43.29916" lon="2.02343">
        <ele>165.6</ele>
        <time>2026-05-27T05:49:35Z</time>
      </trkpt>
      <trkpt lat="43.2991" lon="2.02342">
        <ele>165.5</ele>
        <time>2026-05-27T05:49:40Z</time>
      </trkpt>
      <trkpt lat="43.29905" lon="2.02342">
        <ele>165.3</ele>
        <time>2026-05-27T05:49:45Z</time>
      </trkpt>
      <trkpt lat="43.299" lon="2.0234">
        <ele>165.2</ele>
        <time>2026-05-27T05:49:50Z</time>
      </trkpt>
      <trkpt lat="43.29895" lon="2.02339">
        <ele>165.1</ele>
        <time>2026-05-27T05:49:55Z</time>
      </trkpt>
      <trkpt lat="43.29892" lon="2.02336">
        <ele>165.1</ele>
        <time>2026-05-27T05:50:00Z</time>
      </trkpt>
      <trkpt lat="43.29891" lon="2.02331">
        <ele>165.1</ele>
        <time>2026-05-27T05:50:05Z</time>
      </trkpt>
      <trkpt lat="43.29892" lon="2.02325">
        <ele>165.1</ele>
        <time>2026-05-27T05:50:10Z</time>
      </trkpt>
      <trkpt lat="43.29894" lon="2.0232">
        <ele>165.2</ele>
        <time>2026-05-27T05:50:15Z</time>
      </trkpt>
      <trkpt lat="43.29895" lon="2.02314">
        <ele>165.2</ele>
        <time>2026-05-27T05:50:20Z</time>
      </trkpt>
      <trkpt lat="43.29896" lon="2.0231">
        <ele>165.3</ele>
        <time>2026-05-27T05:50:25Z</time>
      </trkpt>
      <trkpt lat="43.29897" lon="2.02304">
        <ele>165.3</ele>
        <time>2026-05-27T05:50:30Z</time>
      </trkpt>
      <trkpt lat="43.29898" lon="2.02298">
        <ele>165.4</ele>
        <time>2026-05-27T05:50:35Z</time>
      </trkpt>
      <trkpt lat="43.29898" lon="2.02292">
        <ele>165.4</ele>
        <time>2026-05-27T05:50:40Z</time>
      </trkpt>
      <trkpt lat="43.29898" lon="2.02286">
        <ele>165.4</ele>
        <time>2026-05-27T05:50:45Z</time>
      </trkpt>
      <trkpt lat="43.29896" lon="2.0228">
        <ele>165.3</ele>
        <time>2026-05-27T05:50:50Z</time>
      </trkpt>
      <trkpt lat="43.29893" lon="2.02275">
        <ele>165.1</ele>
        <time>2026-05-27T05:50:55Z</time>
      </trkpt>
      <trkpt lat="43.29892" lon="2.0227">
        <ele>165</ele>
        <time>2026-05-27T05:51:00Z</time>
      </trkpt>
      <trkpt lat="43.29889" lon="2.02265">
        <ele>164.7</ele>
        <time>2026-05-27T05:51:05Z</time>
      </trkpt>
      <trkpt lat="43.29887" lon="2.0226">
        <ele>164.6</ele>
        <time>2026-05-27T05:51:10Z</time>
      </trkpt>
      <trkpt lat="43.29886" lon="2.02253">
        <ele>164.4</ele>
        <time>2026-05-27T05:51:15Z</time>
      </trkpt>
      <trkpt lat="43.29886" lon="2.02243">
        <ele>164.3</ele>
        <time>2026-05-27T05:51:20Z</time>
      </trkpt>
      <trkpt lat="43.29885" lon="2.02234">
        <ele>164.1</ele>
        <time>2026-05-27T05:51:25Z</time>
      </trkpt>
      <trkpt lat="43.29881" lon="2.02225">
        <ele>163.6</ele>
        <time>2026-05-27T05:51:30Z</time>
      </trkpt>
      <trkpt lat="43.29879" lon="2.0222">
        <ele>163.3</ele>
        <time>2026-05-27T05:51:35Z</time>
      </trkpt>
      <trkpt lat="43.29879" lon="2.02214">
        <ele>163.2</ele>
        <time>2026-05-27T05:51:40Z</time>
      </trkpt>
      <trkpt lat="43.2988" lon="2.02206">
        <ele>163.2</ele>
        <time>2026-05-27T05:51:45Z</time>
      </trkpt>
      <trkpt lat="43.29881" lon="2.02198">
        <ele>163.1</ele>
        <time>2026-05-27T05:51:50Z</time>
      </trkpt>
      <trkpt lat="43.29883" lon="2.02191">
        <ele>163.2</ele>
        <time>2026-05-27T05:51:55Z</time>
      </trkpt>
      <trkpt lat="43.29886" lon="2.02184">
        <ele>163.3</ele>
        <time>2026-05-27T05:52:00Z</time>
      </trkpt>
      <trkpt lat="43.29888" lon="2.02178">
        <ele>163.4</ele>
        <time>2026-05-27T05:52:05Z</time>
      </trkpt>
      <trkpt lat="43.29892" lon="2.02173">
        <ele>163.7</ele>
        <time>2026-05-27T05:52:10Z</time>
      </trkpt>
      <trkpt lat="43.29894" lon="2.02164">
        <ele>163.7</ele>
        <time>2026-05-27T05:52:15Z</time>
      </trkpt>
      <trkpt lat="43.29895" lon="2.02154">
        <ele>163.5</ele>
        <time>2026-05-27T05:52:20Z</time>
      </trkpt>
      <trkpt lat="43.29896" lon="2.02146">
        <ele>163.3</ele>
        <time>2026-05-27T05:52:25Z</time>
      </trkpt>
      <trkpt lat="43.29898" lon="2.02139">
        <ele>163.3</ele>
        <time>2026-05-27T05:52:30Z</time>
      </trkpt>
      <trkpt lat="43.29904" lon="2.02133">
        <ele>163.6</ele>
        <time>2026-05-27T05:52:35Z</time>
      </trkpt>
      <trkpt lat="43.29907" lon="2.02127">
        <ele>163.7</ele>
        <time>2026-05-27T05:52:40Z</time>
      </trkpt>
      <trkpt lat="43.29908" lon="2.02117">
        <ele>163.4</ele>
        <time>2026-05-27T05:52:45Z</time>
      </trkpt>
      <trkpt lat="43.29908" lon="2.02108">
        <ele>163.1</ele>
        <time>2026-05-27T05:52:50Z</time>
      </trkpt>
      <trkpt lat="43.2991" lon="2.02102">
        <ele>163.1</ele>
        <time>2026-05-27T05:52:55Z</time>
      </trkpt>
      <trkpt lat="43.29911" lon="2.02101">
        <ele>163.1</ele>
        <time>2026-05-27T05:53:00Z</time>
      </trkpt>
      <trkpt lat="43.29911" lon="2.021">
        <ele>163.1</ele>
        <time>2026-05-27T05:53:05Z</time>
      </trkpt>
      <trkpt lat="43.29912" lon="2.02094">
        <ele>163</ele>
        <time>2026-05-27T05:53:10Z</time>
      </trkpt>
      <trkpt lat="43.29913" lon="2.02089">
        <ele>162.9</ele>
        <time>2026-05-27T05:53:15Z</time>
      </trkpt>
      <trkpt lat="43.29913" lon="2.02085">
        <ele>162.8</ele>
        <time>2026-05-27T05:53:20Z</time>
      </trkpt>
      <trkpt lat="43.29913" lon="2.02083">
        <ele>162.7</ele>
        <time>2026-05-27T05:53:25Z</time>
      </trkpt>
      <trkpt lat="43.29913" lon="2.02083">
        <ele>162.7</ele>
        <time>2026-05-27T05:53:30Z</time>
      </trkpt>
      <trkpt lat="43.29913" lon="2.02083">
        <ele>162.7</ele>
        <time>2026-05-27T05:53:35Z</time>
      </trkpt>
      <trkpt lat="43.29913" lon="2.02083">
        <ele>162.7</ele>
        <time>2026-05-27T05:53:40Z</time>
      </trkpt>
      <trkpt lat="43.29913" lon="2.02083">
        <ele>162.7</ele>
        <time>2026-05-27T05:53:45Z</time>
      </trkpt>
      <trkpt lat="43.29917" lon="2.02071">
        <ele>163</ele>
        <time>2026-05-27T05:53:50Z</time>
      </trkpt>
      <trkpt lat="43.29921" lon="2.02066">
        <ele>163.4</ele>
        <time>2026-05-27T05:53:55Z</time>
      </trkpt>
      <trkpt lat="43.29923" lon="2.02059">
        <ele>163.6</ele>
        <time>2026-05-27T05:54:00Z</time>
      </trkpt>
      <trkpt lat="43.29922" lon="2.02053">
        <ele>163.5</ele>
        <time>2026-05-27T05:54:05Z</time>
      </trkpt>
      <trkpt lat="43.29922" lon="2.02053">
        <ele>163.5</ele>
        <time>2026-05-27T05:54:10Z</time>
      </trkpt>
      <trkpt lat="43.29922" lon="2.02053">
        <ele>163.5</ele>
        <time>2026-05-27T05:54:15Z</time>
      </trkpt>
      <trkpt lat="43.29922" lon="2.02053">
        <ele>163.5</ele>
        <time>2026-05-27T05:54:20Z</time>
      </trkpt>
      <trkpt lat="43.29919" lon="2.02052">
        <ele>163.2</ele>
        <time>2026-05-27T05:54:25Z</time>
      </trkpt>
      <trkpt lat="43.29918" lon="2.02049">
        <ele>163.1</ele>
        <time>2026-05-27T05:54:30Z</time>
      </trkpt>
      <trkpt lat="43.29921" lon="2.02044">
        <ele>163.4</ele>
        <time>2026-05-27T05:54:35Z</time>
      </trkpt>
      <trkpt lat="43.29927" lon="2.02039">
        <ele>163.9</ele>
        <time>2026-05-27T05:54:40Z</time>
      </trkpt>
      <trkpt lat="43.2993" lon="2.02032">
        <ele>164.2</ele>
        <time>2026-05-27T05:54:45Z</time>
      </trkpt>
      <trkpt lat="43.29934" lon="2.02025">
        <ele>164.6</ele>
        <time>2026-05-27T05:54:50Z</time>
      </trkpt>
      <trkpt lat="43.29936" lon="2.02018">
        <ele>164.8</ele>
        <time>2026-05-27T05:54:55Z</time>
      </trkpt>
      <trkpt lat="43.29938" lon="2.02016">
        <ele>165</ele>
        <time>2026-05-27T05:55:00Z</time>
      </trkpt>
      <trkpt lat="43.29943" lon="2.02013">
        <ele>165.5</ele>
        <time>2026-05-27T05:55:05Z</time>
      </trkpt>
      <trkpt lat="43.29949" lon="2.02004">
        <ele>166.1</ele>
        <time>2026-05-27T05:55:10Z</time>
      </trkpt>
      <trkpt lat="43.29951" lon="2.01996">
        <ele>166.3</ele>
        <time>2026-05-27T05:55:15Z</time>
      </trkpt>
      <trkpt lat="43.29949" lon="2.0199">
        <ele>166.1</ele>
        <time>2026-05-27T05:55:20Z</time>
      </trkpt>
      <trkpt lat="43.29943" lon="2.01985">
        <ele>165.5</ele>
        <time>2026-05-27T05:55:25Z</time>
      </trkpt>
      <trkpt lat="43.2994" lon="2.01978">
        <ele>165.2</ele>
        <time>2026-05-27T05:55:30Z</time>
      </trkpt>
      <trkpt lat="43.29933" lon="2.01971">
        <ele>164.6</ele>
        <time>2026-05-27T05:55:35Z</time>
      </trkpt>
      <trkpt lat="43.29937" lon="2.01963">
        <ele>165</ele>
        <time>2026-05-27T05:55:40Z</time>
      </trkpt>
      <trkpt lat="43.29941" lon="2.01957">
        <ele>165.3</ele>
        <time>2026-05-27T05:55:45Z</time>
      </trkpt>
      <trkpt lat="43.29943" lon="2.01949">
        <ele>165.5</ele>
        <time>2026-05-27T05:55:50Z</time>
      </trkpt>
      <trkpt lat="43.29946" lon="2.01942">
        <ele>165.8</ele>
        <time>2026-05-27T05:55:55Z</time>
      </trkpt>
      <trkpt lat="43.29949" lon="2.01935">
        <ele>166.1</ele>
        <time>2026-05-27T05:56:00Z</time>
      </trkpt>
      <trkpt lat="43.29948" lon="2.01926">
        <ele>166</ele>
        <time>2026-05-27T05:56:05Z</time>
      </trkpt>
      <trkpt lat="43.29951" lon="2.01916">
        <ele>166.3</ele>
        <time>2026-05-27T05:56:10Z</time>
      </trkpt>
      <trkpt lat="43.29953" lon="2.01909">
        <ele>166.4</ele>
        <time>2026-05-27T05:56:15Z</time>
      </trkpt>
      <trkpt lat="43.29954" lon="2.01905">
        <ele>166.4</ele>
        <time>2026-05-27T05:56:20Z</time>
      </trkpt>
      <trkpt lat="43.29954" lon="2.01905">
        <ele>166.4</ele>
        <time>2026-05-27T05:56:20Z</time>
      </trkpt>
      <trkpt lat="43.29965" lon="2.01895">
        <ele>167.2</ele>
        <time>2026-05-27T06:20:12Z</time>
      </trkpt>
      <trkpt lat="43.29962" lon="2.01903">
        <ele>167.1</ele>
        <time>2026-05-27T06:20:17Z</time>
      </trkpt>
      <trkpt lat="43.29959" lon="2.0191">
        <ele>166.9</ele>
        <time>2026-05-27T06:20:23Z</time>
      </trkpt>
      <trkpt lat="43.29958" lon="2.01912">
        <ele>166.9</ele>
        <time>2026-05-27T06:20:28Z</time>
      </trkpt>
      <trkpt lat="43.29956" lon="2.01914">
        <ele>166.7</ele>
        <time>2026-05-27T06:20:33Z</time>
      </trkpt>
      <trkpt lat="43.29956" lon="2.01918">
        <ele>166.8</ele>
        <time>2026-05-27T06:20:38Z</time>
      </trkpt>
      <trkpt lat="43.29953" lon="2.01923">
        <ele>166.5</ele>
        <time>2026-05-27T06:20:43Z</time>
      </trkpt>
      <trkpt lat="43.29951" lon="2.01929">
        <ele>166.3</ele>
        <time>2026-05-27T06:20:48Z</time>
      </trkpt>
      <trkpt lat="43.2995" lon="2.0193">
        <ele>166.2</ele>
        <time>2026-05-27T06:20:53Z</time>
      </trkpt>
      <trkpt lat="43.29952" lon="2.01924">
        <ele>166.4</ele>
        <time>2026-05-27T06:20:58Z</time>
      </trkpt>
      <trkpt lat="43.29955" lon="2.01917">
        <ele>166.7</ele>
        <time>2026-05-27T06:21:03Z</time>
      </trkpt>
      <trkpt lat="43.29955" lon="2.01911">
        <ele>166.6</ele>
        <time>2026-05-27T06:21:08Z</time>
      </trkpt>
      <trkpt lat="43.29952" lon="2.01907">
        <ele>166.2</ele>
        <time>2026-05-27T06:21:13Z</time>
      </trkpt>
      <trkpt lat="43.29945" lon="2.01904">
        <ele>165.6</ele>
        <time>2026-05-27T06:21:18Z</time>
      </trkpt>
      <trkpt lat="43.29937" lon="2.01901">
        <ele>164.8</ele>
        <time>2026-05-27T06:21:23Z</time>
      </trkpt>
      <trkpt lat="43.29931" lon="2.01899">
        <ele>164.3</ele>
        <time>2026-05-27T06:21:28Z</time>
      </trkpt>
      <trkpt lat="43.29924" lon="2.01896">
        <ele>163.6</ele>
        <time>2026-05-27T06:21:33Z</time>
      </trkpt>
      <trkpt lat="43.29919" lon="2.01894">
        <ele>163.2</ele>
        <time>2026-05-27T06:21:38Z</time>
      </trkpt>
      <trkpt lat="43.29915" lon="2.01893">
        <ele>162.9</ele>
        <time>2026-05-27T06:21:43Z</time>
      </trkpt>
      <trkpt lat="43.29909" lon="2.01891">
        <ele>162.4</ele>
        <time>2026-05-27T06:21:48Z</time>
      </trkpt>
      <trkpt lat="43.29903" lon="2.01888">
        <ele>162</ele>
        <time>2026-05-27T06:21:53Z</time>
      </trkpt>
      <trkpt lat="43.29901" lon="2.01891">
        <ele>161.9</ele>
        <time>2026-05-27T06:21:58Z</time>
      </trkpt>
      <trkpt lat="43.29899" lon="2.01898">
        <ele>161.7</ele>
        <time>2026-05-27T06:22:03Z</time>
      </trkpt>
      <trkpt lat="43.29897" lon="2.01904">
        <ele>161.5</ele>
        <time>2026-05-27T06:22:08Z</time>
      </trkpt>
      <trkpt lat="43.29892" lon="2.01911">
        <ele>161</ele>
        <time>2026-05-27T06:22:13Z</time>
      </trkpt>
      <trkpt lat="43.29889" lon="2.01918">
        <ele>160.7</ele>
        <time>2026-05-27T06:22:18Z</time>
      </trkpt>
      <trkpt lat="43.29888" lon="2.01919">
        <ele>160.6</ele>
        <time>2026-05-27T06:22:23Z</time>
      </trkpt>
      <trkpt lat="43.29888" lon="2.0192">
        <ele>160.6</ele>
        <time>2026-05-27T06:22:28Z</time>
      </trkpt>
      <trkpt lat="43.29885" lon="2.01926">
        <ele>160.4</ele>
        <time>2026-05-27T06:22:33Z</time>
      </trkpt>
      <trkpt lat="43.29883" lon="2.01933">
        <ele>160.3</ele>
        <time>2026-05-27T06:22:38Z</time>
      </trkpt>
      <trkpt lat="43.2988" lon="2.0194">
        <ele>160</ele>
        <time>2026-05-27T06:22:43Z</time>
      </trkpt>
      <trkpt lat="43.29876" lon="2.01946">
        <ele>159.8</ele>
        <time>2026-05-27T06:22:48Z</time>
      </trkpt>
      <trkpt lat="43.29873" lon="2.01952">
        <ele>159.6</ele>
        <time>2026-05-27T06:22:53Z</time>
      </trkpt>
      <trkpt lat="43.29873" lon="2.01956">
        <ele>159.6</ele>
        <time>2026-05-27T06:22:58Z</time>
      </trkpt>
      <trkpt lat="43.29873" lon="2.01956">
        <ele>159.6</ele>
        <time>2026-05-27T06:23:03Z</time>
      </trkpt>
      <trkpt lat="43.29873" lon="2.01957">
        <ele>159.6</ele>
        <time>2026-05-27T06:23:08Z</time>
      </trkpt>
      <trkpt lat="43.29873" lon="2.01957">
        <ele>159.6</ele>
        <time>2026-05-27T06:23:13Z</time>
      </trkpt>
      <trkpt lat="43.29873" lon="2.01957">
        <ele>159.6</ele>
        <time>2026-05-27T06:23:18Z</time>
      </trkpt>
      <trkpt lat="43.29871" lon="2.01963">
        <ele>159.5</ele>
        <time>2026-05-27T06:23:23Z</time>
      </trkpt>
      <trkpt lat="43.29869" lon="2.0197">
        <ele>159.4</ele>
        <time>2026-05-27T06:23:28Z</time>
      </trkpt>
      <trkpt lat="43.29866" lon="2.01975">
        <ele>159.2</ele>
        <time>2026-05-27T06:23:33Z</time>
      </trkpt>
      <trkpt lat="43.29864" lon="2.01981">
        <ele>159.1</ele>
        <time>2026-05-27T06:23:38Z</time>
      </trkpt>
      <trkpt lat="43.29862" lon="2.01986">
        <ele>159</ele>
        <time>2026-05-27T06:23:43Z</time>
      </trkpt>
      <trkpt lat="43.29858" lon="2.01991">
        <ele>158.7</ele>
        <time>2026-05-27T06:23:48Z</time>
      </trkpt>
      <trkpt lat="43.29856" lon="2.01998">
        <ele>158.6</ele>
        <time>2026-05-27T06:23:53Z</time>
      </trkpt>
      <trkpt lat="43.29851" lon="2.02009">
        <ele>158.2</ele>
        <time>2026-05-27T06:23:58Z</time>
      </trkpt>
      <trkpt lat="43.29849" lon="2.02019">
        <ele>157.9</ele>
        <time>2026-05-27T06:24:03Z</time>
      </trkpt>
      <trkpt lat="43.29847" lon="2.02025">
        <ele>157.7</ele>
        <time>2026-05-27T06:24:08Z</time>
      </trkpt>
      <trkpt lat="43.29844" lon="2.02032">
        <ele>157.4</ele>
        <time>2026-05-27T06:24:13Z</time>
      </trkpt>
      <trkpt lat="43.29843" lon="2.02039">
        <ele>157.3</ele>
        <time>2026-05-27T06:24:18Z</time>
      </trkpt>
      <trkpt lat="43.29841" lon="2.02045">
        <ele>157.1</ele>
        <time>2026-05-27T06:24:23Z</time>
      </trkpt>
      <trkpt lat="43.29838" lon="2.02051">
        <ele>156.8</ele>
        <time>2026-05-27T06:24:28Z</time>
      </trkpt>
      <trkpt lat="43.29833" lon="2.02051">
        <ele>156.4</ele>
        <time>2026-05-27T06:24:33Z</time>
      </trkpt>
      <trkpt lat="43.29828" lon="2.02049">
        <ele>156.3</ele>
        <time>2026-05-27T06:24:38Z</time>
      </trkpt>
      <trkpt lat="43.29823" lon="2.02049">
        <ele>156.2</ele>
        <time>2026-05-27T06:24:43Z</time>
      </trkpt>
      <trkpt lat="43.29818" lon="2.02045">
        <ele>156.2</ele>
        <time>2026-05-27T06:24:48Z</time>
      </trkpt>
      <trkpt lat="43.29811" lon="2.02039">
        <ele>156.1</ele>
        <time>2026-05-27T06:24:53Z</time>
      </trkpt>
      <trkpt lat="43.29805" lon="2.02035">
        <ele>156</ele>
        <time>2026-05-27T06:24:58Z</time>
      </trkpt>
      <trkpt lat="43.298" lon="2.02032">
        <ele>156</ele>
        <time>2026-05-27T06:25:03Z</time>
      </trkpt>
      <trkpt lat="43.29796" lon="2.02029">
        <ele>155.9</ele>
        <time>2026-05-27T06:25:08Z</time>
      </trkpt>
      <trkpt lat="43.29791" lon="2.02027">
        <ele>155.8</ele>
        <time>2026-05-27T06:25:13Z</time>
      </trkpt>
      <trkpt lat="43.29785" lon="2.02023">
        <ele>155.7</ele>
        <time>2026-05-27T06:25:18Z</time>
      </trkpt>
      <trkpt lat="43.2978" lon="2.02018">
        <ele>155.6</ele>
        <time>2026-05-27T06:25:23Z</time>
      </trkpt>
      <trkpt lat="43.29774" lon="2.02015">
        <ele>155.5</ele>
        <time>2026-05-27T06:25:28Z</time>
      </trkpt>
      <trkpt lat="43.29768" lon="2.02011">
        <ele>155.4</ele>
        <time>2026-05-27T06:25:33Z</time>
      </trkpt>
      <trkpt lat="43.29763" lon="2.02008">
        <ele>155.3</ele>
        <time>2026-05-27T06:25:38Z</time>
      </trkpt>
      <trkpt lat="43.29757" lon="2.02003">
        <ele>155.2</ele>
        <time>2026-05-27T06:25:43Z</time>
      </trkpt>
      <trkpt lat="43.2975" lon="2.01997">
        <ele>155</ele>
        <time>2026-05-27T06:25:48Z</time>
      </trkpt>
      <trkpt lat="43.29744" lon="2.01995">
        <ele>155.1</ele>
        <time>2026-05-27T06:25:53Z</time>
      </trkpt>
      <trkpt lat="43.29738" lon="2.01991">
        <ele>155.1</ele>
        <time>2026-05-27T06:25:58Z</time>
      </trkpt>
      <trkpt lat="43.29732" lon="2.01987">
        <ele>155.1</ele>
        <time>2026-05-27T06:26:03Z</time>
      </trkpt>
      <trkpt lat="43.29726" lon="2.01983">
        <ele>155.2</ele>
        <time>2026-05-27T06:26:08Z</time>
      </trkpt>
      <trkpt lat="43.29721" lon="2.01978">
        <ele>155.2</ele>
        <time>2026-05-27T06:26:13Z</time>
      </trkpt>
      <trkpt lat="43.29716" lon="2.01974">
        <ele>155.2</ele>
        <time>2026-05-27T06:26:18Z</time>
      </trkpt>
      <trkpt lat="43.29711" lon="2.01971">
        <ele>155.1</ele>
        <time>2026-05-27T06:26:23Z</time>
      </trkpt>
      <trkpt lat="43.29705" lon="2.01965">
        <ele>155.1</ele>
        <time>2026-05-27T06:26:28Z</time>
      </trkpt>
      <trkpt lat="43.297" lon="2.01961">
        <ele>155</ele>
        <time>2026-05-27T06:26:33Z</time>
      </trkpt>
      <trkpt lat="43.29694" lon="2.01958">
        <ele>155</ele>
        <time>2026-05-27T06:26:38Z</time>
      </trkpt>
      <trkpt lat="43.29689" lon="2.01955">
        <ele>154.9</ele>
        <time>2026-05-27T06:26:43Z</time>
      </trkpt>
      <trkpt lat="43.29683" lon="2.0195">
        <ele>154.8</ele>
        <time>2026-05-27T06:26:48Z</time>
      </trkpt>
      <trkpt lat="43.29678" lon="2.01946">
        <ele>154.7</ele>
        <time>2026-05-27T06:26:53Z</time>
      </trkpt>
      <trkpt lat="43.29672" lon="2.01941">
        <ele>154.6</ele>
        <time>2026-05-27T06:26:58Z</time>
      </trkpt>
      <trkpt lat="43.29667" lon="2.01936">
        <ele>154.5</ele>
        <time>2026-05-27T06:27:03Z</time>
      </trkpt>
      <trkpt lat="43.29661" lon="2.01931">
        <ele>154.1</ele>
        <time>2026-05-27T06:27:08Z</time>
      </trkpt>
      <trkpt lat="43.29655" lon="2.01928">
        <ele>153.9</ele>
        <time>2026-05-27T06:27:13Z</time>
      </trkpt>
      <trkpt lat="43.29649" lon="2.01925">
        <ele>153.6</ele>
        <time>2026-05-27T06:27:18Z</time>
      </trkpt>
      <trkpt lat="43.29644" lon="2.01922">
        <ele>153.3</ele>
        <time>2026-05-27T06:27:23Z</time>
      </trkpt>
      <trkpt lat="43.29638" lon="2.01915">
        <ele>152.9</ele>
        <time>2026-05-27T06:27:28Z</time>
      </trkpt>
      <trkpt lat="43.29632" lon="2.0191">
        <ele>152.5</ele>
        <time>2026-05-27T06:27:33Z</time>
      </trkpt>
      <trkpt lat="43.29629" lon="2.01911">
        <ele>152.5</ele>
        <time>2026-05-27T06:27:38Z</time>
      </trkpt>
      <trkpt lat="43.29626" lon="2.01919">
        <ele>152.6</ele>
        <time>2026-05-27T06:27:43Z</time>
      </trkpt>
      <trkpt lat="43.29623" lon="2.01926">
        <ele>152.7</ele>
        <time>2026-05-27T06:27:48Z</time>
      </trkpt>
      <trkpt lat="43.29618" lon="2.01935">
        <ele>152.7</ele>
        <time>2026-05-27T06:27:53Z</time>
      </trkpt>
      <trkpt lat="43.29614" lon="2.01942">
        <ele>152.7</ele>
        <time>2026-05-27T06:27:58Z</time>
      </trkpt>
      <trkpt lat="43.29612" lon="2.01948">
        <ele>152.8</ele>
        <time>2026-05-27T06:28:03Z</time>
      </trkpt>
      <trkpt lat="43.29608" lon="2.01955">
        <ele>152.8</ele>
        <time>2026-05-27T06:28:08Z</time>
      </trkpt>
      <trkpt lat="43.29607" lon="2.0196">
        <ele>152.9</ele>
        <time>2026-05-27T06:28:13Z</time>
      </trkpt>
      <trkpt lat="43.29605" lon="2.01962">
        <ele>152.9</ele>
        <time>2026-05-27T06:28:18Z</time>
      </trkpt>
      <trkpt lat="43.29602" lon="2.01967">
        <ele>152.9</ele>
        <time>2026-05-27T06:28:23Z</time>
      </trkpt>
      <trkpt lat="43.29598" lon="2.01975">
        <ele>152.9</ele>
        <time>2026-05-27T06:28:28Z</time>
      </trkpt>
      <trkpt lat="43.29595" lon="2.01984">
        <ele>153</ele>
        <time>2026-05-27T06:28:33Z</time>
      </trkpt>
      <trkpt lat="43.29593" lon="2.01989">
        <ele>153.1</ele>
        <time>2026-05-27T06:28:38Z</time>
      </trkpt>
      <trkpt lat="43.29589" lon="2.01995">
        <ele>153.1</ele>
        <time>2026-05-27T06:28:43Z</time>
      </trkpt>
      <trkpt lat="43.29585" lon="2.02002">
        <ele>153.1</ele>
        <time>2026-05-27T06:28:48Z</time>
      </trkpt>
      <trkpt lat="43.29581" lon="2.02009">
        <ele>153</ele>
        <time>2026-05-27T06:28:53Z</time>
      </trkpt>
      <trkpt lat="43.29579" lon="2.02017">
        <ele>153</ele>
        <time>2026-05-27T06:28:58Z</time>
      </trkpt>
      <trkpt lat="43.29575" lon="2.02023">
        <ele>153</ele>
        <time>2026-05-27T06:29:03Z</time>
      </trkpt>
      <trkpt lat="43.29573" lon="2.02028">
        <ele>153</ele>
        <time>2026-05-27T06:29:08Z</time>
      </trkpt>
      <trkpt lat="43.29573" lon="2.02028">
        <ele>153</ele>
        <time>2026-05-27T06:29:13Z</time>
      </trkpt>
      <trkpt lat="43.29573" lon="2.02028">
        <ele>153</ele>
        <time>2026-05-27T06:29:18Z</time>
      </trkpt>
      <trkpt lat="43.29573" lon="2.02028">
        <ele>153</ele>
        <time>2026-05-27T06:29:23Z</time>
      </trkpt>
      <trkpt lat="43.29573" lon="2.02028">
        <ele>153</ele>
        <time>2026-05-27T06:29:28Z</time>
      </trkpt>
      <trkpt lat="43.29573" lon="2.02028">
        <ele>153</ele>
        <time>2026-05-27T06:29:33Z</time>
      </trkpt>
      <trkpt lat="43.29573" lon="2.02028">
        <ele>153</ele>
        <time>2026-05-27T06:29:38Z</time>
      </trkpt>
      <trkpt lat="43.29573" lon="2.02028">
        <ele>153</ele>
        <time>2026-05-27T06:29:43Z</time>
      </trkpt>
      <trkpt lat="43.29573" lon="2.02028">
        <ele>153</ele>
        <time>2026-05-27T06:29:48Z</time>
      </trkpt>
      <trkpt lat="43.29573" lon="2.02028">
        <ele>153</ele>
        <time>2026-05-27T06:29:53Z</time>
      </trkpt>
      <trkpt lat="43.2957" lon="2.0203">
        <ele>152.9</ele>
        <time>2026-05-27T06:29:58Z</time>
      </trkpt>
      <trkpt lat="43.29567" lon="2.02035">
        <ele>152.9</ele>
        <time>2026-05-27T06:30:03Z</time>
      </trkpt>
      <trkpt lat="43.29564" lon="2.02041">
        <ele>152.9</ele>
        <time>2026-05-27T06:30:08Z</time>
      </trkpt>
      <trkpt lat="43.29561" lon="2.02048">
        <ele>152.8</ele>
        <time>2026-05-27T06:30:13Z</time>
      </trkpt>
      <trkpt lat="43.29557" lon="2.02054">
        <ele>152.8</ele>
        <time>2026-05-27T06:30:18Z</time>
      </trkpt>
      <trkpt lat="43.29555" lon="2.02062">
        <ele>152.7</ele>
        <time>2026-05-27T06:30:23Z</time>
      </trkpt>
      <trkpt lat="43.29553" lon="2.02069">
        <ele>152.7</ele>
        <time>2026-05-27T06:30:28Z</time>
      </trkpt>
      <trkpt lat="43.29553" lon="2.02078">
        <ele>152.7</ele>
        <time>2026-05-27T06:30:33Z</time>
      </trkpt>
      <trkpt lat="43.29553" lon="2.02086">
        <ele>152.6</ele>
        <time>2026-05-27T06:30:38Z</time>
      </trkpt>
      <trkpt lat="43.29552" lon="2.02094">
        <ele>152.6</ele>
        <time>2026-05-27T06:30:43Z</time>
      </trkpt>
      <trkpt lat="43.2955" lon="2.02102">
        <ele>152.6</ele>
        <time>2026-05-27T06:30:48Z</time>
      </trkpt>
      <trkpt lat="43.29547" lon="2.02109">
        <ele>152.6</ele>
        <time>2026-05-27T06:30:53Z</time>
      </trkpt>
      <trkpt lat="43.29543" lon="2.02116">
        <ele>152.5</ele>
        <time>2026-05-27T06:30:58Z</time>
      </trkpt>
      <trkpt lat="43.29538" lon="2.02123">
        <ele>152.5</ele>
        <time>2026-05-27T06:31:03Z</time>
      </trkpt>
      <trkpt lat="43.29531" lon="2.02128">
        <ele>152.4</ele>
        <time>2026-05-27T06:31:08Z</time>
      </trkpt>
      <trkpt lat="43.29524" lon="2.02132">
        <ele>152.3</ele>
        <time>2026-05-27T06:31:13Z</time>
      </trkpt>
      <trkpt lat="43.29518" lon="2.02134">
        <ele>152.2</ele>
        <time>2026-05-27T06:31:18Z</time>
      </trkpt>
      <trkpt lat="43.29512" lon="2.02133">
        <ele>152.1</ele>
        <time>2026-05-27T06:31:23Z</time>
      </trkpt>
      <trkpt lat="43.29506" lon="2.02136">
        <ele>152.1</ele>
        <time>2026-05-27T06:31:28Z</time>
      </trkpt>
      <trkpt lat="43.29499" lon="2.02138">
        <ele>152</ele>
        <time>2026-05-27T06:31:33Z</time>
      </trkpt>
      <trkpt lat="43.29493" lon="2.02141">
        <ele>151.9</ele>
        <time>2026-05-27T06:31:38Z</time>
      </trkpt>
      <trkpt lat="43.29486" lon="2.02146">
        <ele>151.9</ele>
        <time>2026-05-27T06:31:43Z</time>
      </trkpt>
      <trkpt lat="43.29482" lon="2.0215">
        <ele>151.9</ele>
        <time>2026-05-27T06:31:48Z</time>
      </trkpt>
      <trkpt lat="43.29477" lon="2.02156">
        <ele>151.9</ele>
        <time>2026-05-27T06:31:53Z</time>
      </trkpt>
      <trkpt lat="43.29472" lon="2.02164">
        <ele>152</ele>
        <time>2026-05-27T06:31:58Z</time>
      </trkpt>
      <trkpt lat="43.29468" lon="2.0217">
        <ele>152</ele>
        <time>2026-05-27T06:32:03Z</time>
      </trkpt>
      <trkpt lat="43.29464" lon="2.02178">
        <ele>152</ele>
        <time>2026-05-27T06:32:08Z</time>
      </trkpt>
      <trkpt lat="43.29459" lon="2.02184">
        <ele>152</ele>
        <time>2026-05-27T06:32:13Z</time>
      </trkpt>
      <trkpt lat="43.29455" lon="2.0219">
        <ele>152</ele>
        <time>2026-05-27T06:32:18Z</time>
      </trkpt>
      <trkpt lat="43.29449" lon="2.02197">
        <ele>152</ele>
        <time>2026-05-27T06:32:23Z</time>
      </trkpt>
      <trkpt lat="43.29445" lon="2.02203">
        <ele>152</ele>
        <time>2026-05-27T06:32:28Z</time>
      </trkpt>
      <trkpt lat="43.2944" lon="2.02209">
        <ele>152</ele>
        <time>2026-05-27T06:32:33Z</time>
      </trkpt>
      <trkpt lat="43.29435" lon="2.02215">
        <ele>152</ele>
        <time>2026-05-27T06:32:38Z</time>
      </trkpt>
      <trkpt lat="43.2943" lon="2.02221">
        <ele>152</ele>
        <time>2026-05-27T06:32:43Z</time>
      </trkpt>
      <trkpt lat="43.29424" lon="2.02226">
        <ele>152</ele>
        <time>2026-05-27T06:32:48Z</time>
      </trkpt>
      <trkpt lat="43.2942" lon="2.02232">
        <ele>152</ele>
        <time>2026-05-27T06:32:53Z</time>
      </trkpt>
      <trkpt lat="43.29415" lon="2.02239">
        <ele>152</ele>
        <time>2026-05-27T06:32:58Z</time>
      </trkpt>
      <trkpt lat="43.29411" lon="2.02244">
        <ele>151.9</ele>
        <time>2026-05-27T06:33:03Z</time>
      </trkpt>
      <trkpt lat="43.29406" lon="2.0225">
        <ele>151.9</ele>
        <time>2026-05-27T06:33:08Z</time>
      </trkpt>
      <trkpt lat="43.294" lon="2.02257">
        <ele>151.6</ele>
        <time>2026-05-27T06:33:13Z</time>
      </trkpt>
      <trkpt lat="43.29395" lon="2.02262">
        <ele>151.5</ele>
        <time>2026-05-27T06:33:18Z</time>
      </trkpt>
      <trkpt lat="43.2939" lon="2.02267">
        <ele>151.3</ele>
        <time>2026-05-27T06:33:23Z</time>
      </trkpt>
      <trkpt lat="43.29384" lon="2.02271">
        <ele>151.1</ele>
        <time>2026-05-27T06:33:28Z</time>
      </trkpt>
      <trkpt lat="43.29378" lon="2.02275">
        <ele>150.9</ele>
        <time>2026-05-27T06:33:33Z</time>
      </trkpt>
      <trkpt lat="43.29373" lon="2.0228">
        <ele>150.8</ele>
        <time>2026-05-27T06:33:38Z</time>
      </trkpt>
      <trkpt lat="43.29367" lon="2.02284">
        <ele>150.6</ele>
        <time>2026-05-27T06:33:43Z</time>
      </trkpt>
      <trkpt lat="43.29361" lon="2.02287">
        <ele>150.4</ele>
        <time>2026-05-27T06:33:48Z</time>
      </trkpt>
      <trkpt lat="43.29356" lon="2.02291">
        <ele>150.3</ele>
        <time>2026-05-27T06:33:53Z</time>
      </trkpt>
      <trkpt lat="43.29352" lon="2.02293">
        <ele>150.2</ele>
        <time>2026-05-27T06:33:58Z</time>
      </trkpt>
      <trkpt lat="43.29351" lon="2.02295">
        <ele>150.1</ele>
        <time>2026-05-27T06:34:03Z</time>
      </trkpt>
      <trkpt lat="43.29343" lon="2.02299">
        <ele>149.9</ele>
        <time>2026-05-27T06:34:08Z</time>
      </trkpt>
      <trkpt lat="43.29338" lon="2.02303">
        <ele>149.8</ele>
        <time>2026-05-27T06:34:13Z</time>
      </trkpt>
      <trkpt lat="43.29333" lon="2.02307">
        <ele>149.6</ele>
        <time>2026-05-27T06:34:18Z</time>
      </trkpt>
      <trkpt lat="43.29327" lon="2.02312">
        <ele>149.6</ele>
        <time>2026-05-27T06:34:23Z</time>
      </trkpt>
      <trkpt lat="43.29321" lon="2.02315">
        <ele>149.7</ele>
        <time>2026-05-27T06:34:28Z</time>
      </trkpt>
      <trkpt lat="43.29316" lon="2.02321">
        <ele>149.7</ele>
        <time>2026-05-27T06:34:33Z</time>
      </trkpt>
      <trkpt lat="43.2931" lon="2.02325">
        <ele>149.7</ele>
        <time>2026-05-27T06:34:38Z</time>
      </trkpt>
      <trkpt lat="43.29305" lon="2.02329">
        <ele>149.8</ele>
        <time>2026-05-27T06:34:43Z</time>
      </trkpt>
      <trkpt lat="43.29303" lon="2.02332">
        <ele>149.8</ele>
        <time>2026-05-27T06:34:48Z</time>
      </trkpt>
      <trkpt lat="43.29301" lon="2.02332">
        <ele>149.8</ele>
        <time>2026-05-27T06:34:53Z</time>
      </trkpt>
      <trkpt lat="43.293" lon="2.02331">
        <ele>149.8</ele>
        <time>2026-05-27T06:34:58Z</time>
      </trkpt>
      <trkpt lat="43.293" lon="2.02331">
        <ele>149.8</ele>
        <time>2026-05-27T06:35:03Z</time>
      </trkpt>
      <trkpt lat="43.293" lon="2.02331">
        <ele>149.8</ele>
        <time>2026-05-27T06:35:08Z</time>
      </trkpt>
      <trkpt lat="43.293" lon="2.02331">
        <ele>149.8</ele>
        <time>2026-05-27T06:35:13Z</time>
      </trkpt>
      <trkpt lat="43.29294" lon="2.02336">
        <ele>149.9</ele>
        <time>2026-05-27T06:35:18Z</time>
      </trkpt>
      <trkpt lat="43.29289" lon="2.02341">
        <ele>150.1</ele>
        <time>2026-05-27T06:35:23Z</time>
      </trkpt>
      <trkpt lat="43.29285" lon="2.02346">
        <ele>150.1</ele>
        <time>2026-05-27T06:35:28Z</time>
      </trkpt>
      <trkpt lat="43.29283" lon="2.02347">
        <ele>150.2</ele>
        <time>2026-05-27T06:35:33Z</time>
      </trkpt>
      <trkpt lat="43.29282" lon="2.02348">
        <ele>150.2</ele>
        <time>2026-05-27T06:35:38Z</time>
      </trkpt>
      <trkpt lat="43.29282" lon="2.02348">
        <ele>150.2</ele>
        <time>2026-05-27T06:35:43Z</time>
      </trkpt>
      <trkpt lat="43.2928" lon="2.02352">
        <ele>150.2</ele>
        <time>2026-05-27T06:35:48Z</time>
      </trkpt>
      <trkpt lat="43.29276" lon="2.02358">
        <ele>150.3</ele>
        <time>2026-05-27T06:35:53Z</time>
      </trkpt>
      <trkpt lat="43.29272" lon="2.02365">
        <ele>150.3</ele>
        <time>2026-05-27T06:35:58Z</time>
      </trkpt>
      <trkpt lat="43.29268" lon="2.0237">
        <ele>150.3</ele>
        <time>2026-05-27T06:36:03Z</time>
      </trkpt>
      <trkpt lat="43.29263" lon="2.02376">
        <ele>150.3</ele>
        <time>2026-05-27T06:36:08Z</time>
      </trkpt>
      <trkpt lat="43.29258" lon="2.02382">
        <ele>150.3</ele>
        <time>2026-05-27T06:36:13Z</time>
      </trkpt>
      <trkpt lat="43.29254" lon="2.02389">
        <ele>150.3</ele>
        <time>2026-05-27T06:36:18Z</time>
      </trkpt>
      <trkpt lat="43.29251" lon="2.02397">
        <ele>150.2</ele>
        <time>2026-05-27T06:36:23Z</time>
      </trkpt>
      <trkpt lat="43.29247" lon="2.02405">
        <ele>150.2</ele>
        <time>2026-05-27T06:36:28Z</time>
      </trkpt>
      <trkpt lat="43.29243" lon="2.02411">
        <ele>150.2</ele>
        <time>2026-05-27T06:36:33Z</time>
      </trkpt>
      <trkpt lat="43.29239" lon="2.02418">
        <ele>150.2</ele>
        <time>2026-05-27T06:36:38Z</time>
      </trkpt>
      <trkpt lat="43.29234" lon="2.02425">
        <ele>150.2</ele>
        <time>2026-05-27T06:36:43Z</time>
      </trkpt>
      <trkpt lat="43.2923" lon="2.02433">
        <ele>150.2</ele>
        <time>2026-05-27T06:36:48Z</time>
      </trkpt>
      <trkpt lat="43.29227" lon="2.02439">
        <ele>150.1</ele>
        <time>2026-05-27T06:36:53Z</time>
      </trkpt>
      <trkpt lat="43.29222" lon="2.02446">
        <ele>150.1</ele>
        <time>2026-05-27T06:36:58Z</time>
      </trkpt>
      <trkpt lat="43.29218" lon="2.02453">
        <ele>150</ele>
        <time>2026-05-27T06:37:03Z</time>
      </trkpt>
      <trkpt lat="43.29213" lon="2.0246">
        <ele>149.9</ele>
        <time>2026-05-27T06:37:08Z</time>
      </trkpt>
      <trkpt lat="43.2921" lon="2.02466">
        <ele>149.8</ele>
        <time>2026-05-27T06:37:13Z</time>
      </trkpt>
      <trkpt lat="43.29206" lon="2.02472">
        <ele>149.7</ele>
        <time>2026-05-27T06:37:18Z</time>
      </trkpt>
      <trkpt lat="43.292" lon="2.02479">
        <ele>149.6</ele>
        <time>2026-05-27T06:37:23Z</time>
      </trkpt>
      <trkpt lat="43.29196" lon="2.02486">
        <ele>149.4</ele>
        <time>2026-05-27T06:37:28Z</time>
      </trkpt>
      <trkpt lat="43.29192" lon="2.02493">
        <ele>149.2</ele>
        <time>2026-05-27T06:37:33Z</time>
      </trkpt>
      <trkpt lat="43.29187" lon="2.025">
        <ele>149</ele>
        <time>2026-05-27T06:37:38Z</time>
      </trkpt>
      <trkpt lat="43.29183" lon="2.02506">
        <ele>148.9</ele>
        <time>2026-05-27T06:37:43Z</time>
      </trkpt>
      <trkpt lat="43.29178" lon="2.02512">
        <ele>148.8</ele>
        <time>2026-05-27T06:37:48Z</time>
      </trkpt>
      <trkpt lat="43.29174" lon="2.02519">
        <ele>148.8</ele>
        <time>2026-05-27T06:37:53Z</time>
      </trkpt>
      <trkpt lat="43.29169" lon="2.02525">
        <ele>148.7</ele>
        <time>2026-05-27T06:37:58Z</time>
      </trkpt>
      <trkpt lat="43.29164" lon="2.02531">
        <ele>148.7</ele>
        <time>2026-05-27T06:38:03Z</time>
      </trkpt>
      <trkpt lat="43.2916" lon="2.02537">
        <ele>148.7</ele>
        <time>2026-05-27T06:38:08Z</time>
      </trkpt>
      <trkpt lat="43.29155" lon="2.02543">
        <ele>148.7</ele>
        <time>2026-05-27T06:38:13Z</time>
      </trkpt>
      <trkpt lat="43.29149" lon="2.02548">
        <ele>148.7</ele>
        <time>2026-05-27T06:38:18Z</time>
      </trkpt>
      <trkpt lat="43.29145" lon="2.02554">
        <ele>148.7</ele>
        <time>2026-05-27T06:38:23Z</time>
      </trkpt>
      <trkpt lat="43.2914" lon="2.0256">
        <ele>148.7</ele>
        <time>2026-05-27T06:38:28Z</time>
      </trkpt>
      <trkpt lat="43.29136" lon="2.02565">
        <ele>148.7</ele>
        <time>2026-05-27T06:38:33Z</time>
      </trkpt>
      <trkpt lat="43.29135" lon="2.02567">
        <ele>148.7</ele>
        <time>2026-05-27T06:38:38Z</time>
      </trkpt>
      <trkpt lat="43.29135" lon="2.02568">
        <ele>148.6</ele>
        <time>2026-05-27T06:38:43Z</time>
      </trkpt>
      <trkpt lat="43.29134" lon="2.02568">
        <ele>148.6</ele>
        <time>2026-05-27T06:38:48Z</time>
      </trkpt>
      <trkpt lat="43.29134" lon="2.02568">
        <ele>148.6</ele>
        <time>2026-05-27T06:38:53Z</time>
      </trkpt>
      <trkpt lat="43.29134" lon="2.02568">
        <ele>148.6</ele>
        <time>2026-05-27T06:38:58Z</time>
      </trkpt>
      <trkpt lat="43.29134" lon="2.02568">
        <ele>148.6</ele>
        <time>2026-05-27T06:39:03Z</time>
      </trkpt>
      <trkpt lat="43.29134" lon="2.02568">
        <ele>148.6</ele>
        <time>2026-05-27T06:39:08Z</time>
      </trkpt>
      <trkpt lat="43.29134" lon="2.02568">
        <ele>148.6</ele>
        <time>2026-05-27T06:39:13Z</time>
      </trkpt>
      <trkpt lat="43.29134" lon="2.02568">
        <ele>148.6</ele>
        <time>2026-05-27T06:39:18Z</time>
      </trkpt>
      <trkpt lat="43.29132" lon="2.02573">
        <ele>148.6</ele>
        <time>2026-05-27T06:39:23Z</time>
      </trkpt>
      <trkpt lat="43.29127" lon="2.0258">
        <ele>148.5</ele>
        <time>2026-05-27T06:39:28Z</time>
      </trkpt>
      <trkpt lat="43.29122" lon="2.02587">
        <ele>148.4</ele>
        <time>2026-05-27T06:39:33Z</time>
      </trkpt>
      <trkpt lat="43.29117" lon="2.02593">
        <ele>148.4</ele>
        <time>2026-05-27T06:39:38Z</time>
      </trkpt>
      <trkpt lat="43.29113" lon="2.02599">
        <ele>148.3</ele>
        <time>2026-05-27T06:39:43Z</time>
      </trkpt>
      <trkpt lat="43.29108" lon="2.02604">
        <ele>148.2</ele>
        <time>2026-05-27T06:39:48Z</time>
      </trkpt>
      <trkpt lat="43.29104" lon="2.0261">
        <ele>148.1</ele>
        <time>2026-05-27T06:39:53Z</time>
      </trkpt>
      <trkpt lat="43.29099" lon="2.02616">
        <ele>148</ele>
        <time>2026-05-27T06:39:58Z</time>
      </trkpt>
      <trkpt lat="43.29095" lon="2.02623">
        <ele>147.9</ele>
        <time>2026-05-27T06:40:03Z</time>
      </trkpt>
      <trkpt lat="43.2909" lon="2.02628">
        <ele>147.8</ele>
        <time>2026-05-27T06:40:08Z</time>
      </trkpt>
      <trkpt lat="43.29086" lon="2.02634">
        <ele>147.8</ele>
        <time>2026-05-27T06:40:13Z</time>
      </trkpt>
      <trkpt lat="43.2908" lon="2.0264">
        <ele>147.8</ele>
        <time>2026-05-27T06:40:18Z</time>
      </trkpt>
      <trkpt lat="43.29076" lon="2.02645">
        <ele>148</ele>
        <time>2026-05-27T06:40:23Z</time>
      </trkpt>
      <trkpt lat="43.29071" lon="2.02652">
        <ele>148.2</ele>
        <time>2026-05-27T06:40:28Z</time>
      </trkpt>
      <trkpt lat="43.29065" lon="2.02659">
        <ele>148.4</ele>
        <time>2026-05-27T06:40:33Z</time>
      </trkpt>
      <trkpt lat="43.2906" lon="2.02666">
        <ele>148.7</ele>
        <time>2026-05-27T06:40:38Z</time>
      </trkpt>
      <trkpt lat="43.29056" lon="2.02671">
        <ele>148.9</ele>
        <time>2026-05-27T06:40:43Z</time>
      </trkpt>
      <trkpt lat="43.2905" lon="2.02678">
        <ele>149.1</ele>
        <time>2026-05-27T06:40:48Z</time>
      </trkpt>
      <trkpt lat="43.29046" lon="2.02683">
        <ele>149.2</ele>
        <time>2026-05-27T06:40:53Z</time>
      </trkpt>
      <trkpt lat="43.29041" lon="2.02687">
        <ele>149.4</ele>
        <time>2026-05-27T06:40:58Z</time>
      </trkpt>
      <trkpt lat="43.29035" lon="2.02689">
        <ele>149.7</ele>
        <time>2026-05-27T06:41:03Z</time>
      </trkpt>
      <trkpt lat="43.29028" lon="2.02688">
        <ele>150.2</ele>
        <time>2026-05-27T06:41:08Z</time>
      </trkpt>
      <trkpt lat="43.29023" lon="2.02684">
        <ele>150.7</ele>
        <time>2026-05-27T06:41:13Z</time>
      </trkpt>
      <trkpt lat="43.29018" lon="2.02679">
        <ele>151.2</ele>
        <time>2026-05-27T06:41:18Z</time>
      </trkpt>
      <trkpt lat="43.29013" lon="2.02675">
        <ele>151.7</ele>
        <time>2026-05-27T06:41:23Z</time>
      </trkpt>
      <trkpt lat="43.29008" lon="2.02672">
        <ele>152.2</ele>
        <time>2026-05-27T06:41:28Z</time>
      </trkpt>
      <trkpt lat="43.29005" lon="2.02667">
        <ele>152.6</ele>
        <time>2026-05-27T06:41:33Z</time>
      </trkpt>
      <trkpt lat="43.28999" lon="2.02661">
        <ele>152.9</ele>
        <time>2026-05-27T06:41:38Z</time>
      </trkpt>
      <trkpt lat="43.28994" lon="2.02657">
        <ele>152.6</ele>
        <time>2026-05-27T06:41:43Z</time>
      </trkpt>
      <trkpt lat="43.28989" lon="2.02651">
        <ele>152.3</ele>
        <time>2026-05-27T06:41:48Z</time>
      </trkpt>
      <trkpt lat="43.28984" lon="2.02647">
        <ele>152.1</ele>
        <time>2026-05-27T06:41:53Z</time>
      </trkpt>
      <trkpt lat="43.28979" lon="2.02642">
        <ele>151.7</ele>
        <time>2026-05-27T06:41:58Z</time>
      </trkpt>
      <trkpt lat="43.28975" lon="2.02637">
        <ele>151.4</ele>
        <time>2026-05-27T06:42:03Z</time>
      </trkpt>
      <trkpt lat="43.2897" lon="2.02632">
        <ele>151.1</ele>
        <time>2026-05-27T06:42:08Z</time>
      </trkpt>
      <trkpt lat="43.28965" lon="2.02629">
        <ele>150.7</ele>
        <time>2026-05-27T06:42:13Z</time>
      </trkpt>
      <trkpt lat="43.2896" lon="2.02628">
        <ele>150.4</ele>
        <time>2026-05-27T06:42:18Z</time>
      </trkpt>
      <trkpt lat="43.28955" lon="2.02626">
        <ele>150.1</ele>
        <time>2026-05-27T06:42:23Z</time>
      </trkpt>
      <trkpt lat="43.28951" lon="2.02626">
        <ele>149.9</ele>
        <time>2026-05-27T06:42:28Z</time>
      </trkpt>
      <trkpt lat="43.28946" lon="2.02628">
        <ele>149.7</ele>
        <time>2026-05-27T06:42:33Z</time>
      </trkpt>
      <trkpt lat="43.2894" lon="2.0263">
        <ele>149.4</ele>
        <time>2026-05-27T06:42:38Z</time>
      </trkpt>
      <trkpt lat="43.28936" lon="2.02632">
        <ele>149.3</ele>
        <time>2026-05-27T06:42:43Z</time>
      </trkpt>
      <trkpt lat="43.28931" lon="2.02636">
        <ele>149.2</ele>
        <time>2026-05-27T06:42:48Z</time>
      </trkpt>
      <trkpt lat="43.28928" lon="2.02641">
        <ele>149.3</ele>
        <time>2026-05-27T06:42:53Z</time>
      </trkpt>
      <trkpt lat="43.28925" lon="2.02647">
        <ele>149.4</ele>
        <time>2026-05-27T06:42:58Z</time>
      </trkpt>
      <trkpt lat="43.28923" lon="2.02652">
        <ele>149.6</ele>
        <time>2026-05-27T06:43:03Z</time>
      </trkpt>
      <trkpt lat="43.28923" lon="2.02659">
        <ele>149.9</ele>
        <time>2026-05-27T06:43:08Z</time>
      </trkpt>
      <trkpt lat="43.28918" lon="2.02668">
        <ele>150.1</ele>
        <time>2026-05-27T06:43:13Z</time>
      </trkpt>
      <trkpt lat="43.28914" lon="2.02675">
        <ele>149.9</ele>
        <time>2026-05-27T06:43:18Z</time>
      </trkpt>
      <trkpt lat="43.2891" lon="2.02683">
        <ele>149.7</ele>
        <time>2026-05-27T06:43:23Z</time>
      </trkpt>
      <trkpt lat="43.28911" lon="2.02687">
        <ele>149.8</ele>
        <time>2026-05-27T06:43:28Z</time>
      </trkpt>
      <trkpt lat="43.28912" lon="2.02688">
        <ele>149.9</ele>
        <time>2026-05-27T06:43:33Z</time>
      </trkpt>
      <trkpt lat="43.28912" lon="2.02688">
        <ele>149.9</ele>
        <time>2026-05-27T06:43:38Z</time>
      </trkpt>
      <trkpt lat="43.28912" lon="2.02688">
        <ele>149.9</ele>
        <time>2026-05-27T06:43:43Z</time>
      </trkpt>
      <trkpt lat="43.28912" lon="2.02688">
        <ele>149.9</ele>
        <time>2026-05-27T06:43:48Z</time>
      </trkpt>
      <trkpt lat="43.28906" lon="2.02693">
        <ele>149.5</ele>
        <time>2026-05-27T06:43:53Z</time>
      </trkpt>
      <trkpt lat="43.28903" lon="2.02699">
        <ele>149.3</ele>
        <time>2026-05-27T06:43:58Z</time>
      </trkpt>
      <trkpt lat="43.289" lon="2.02706">
        <ele>149.1</ele>
        <time>2026-05-27T06:44:03Z</time>
      </trkpt>
      <trkpt lat="43.28897" lon="2.02713">
        <ele>148.9</ele>
        <time>2026-05-27T06:44:08Z</time>
      </trkpt>
      <trkpt lat="43.28893" lon="2.0272">
        <ele>148.6</ele>
        <time>2026-05-27T06:44:13Z</time>
      </trkpt>
      <trkpt lat="43.28889" lon="2.02727">
        <ele>148.3</ele>
        <time>2026-05-27T06:44:18Z</time>
      </trkpt>
      <trkpt lat="43.28886" lon="2.02734">
        <ele>148</ele>
        <time>2026-05-27T06:44:23Z</time>
      </trkpt>
      <trkpt lat="43.28883" lon="2.02741">
        <ele>147.7</ele>
        <time>2026-05-27T06:44:28Z</time>
      </trkpt>
      <trkpt lat="43.28879" lon="2.02745">
        <ele>147.4</ele>
        <time>2026-05-27T06:44:33Z</time>
      </trkpt>
      <trkpt lat="43.28875" lon="2.02753">
        <ele>146.9</ele>
        <time>2026-05-27T06:44:38Z</time>
      </trkpt>
      <trkpt lat="43.28872" lon="2.0276">
        <ele>146.5</ele>
        <time>2026-05-27T06:44:43Z</time>
      </trkpt>
      <trkpt lat="43.28868" lon="2.02765">
        <ele>146.1</ele>
        <time>2026-05-27T06:44:48Z</time>
      </trkpt>
      <trkpt lat="43.28864" lon="2.02768">
        <ele>145.6</ele>
        <time>2026-05-27T06:44:53Z</time>
      </trkpt>
      <trkpt lat="43.28861" lon="2.02771">
        <ele>145.3</ele>
        <time>2026-05-27T06:44:58Z</time>
      </trkpt>
      <trkpt lat="43.2886" lon="2.02773">
        <ele>145.2</ele>
        <time>2026-05-27T06:45:03Z</time>
      </trkpt>
      <trkpt lat="43.28859" lon="2.02775">
        <ele>145.1</ele>
        <time>2026-05-27T06:45:08Z</time>
      </trkpt>
      <trkpt lat="43.28855" lon="2.02775">
        <ele>144.7</ele>
        <time>2026-05-27T06:45:13Z</time>
      </trkpt>
      <trkpt lat="43.28854" lon="2.02771">
        <ele>144.7</ele>
        <time>2026-05-27T06:45:18Z</time>
      </trkpt>
      <trkpt lat="43.28852" lon="2.02767">
        <ele>144.5</ele>
        <time>2026-05-27T06:45:23Z</time>
      </trkpt>
      <trkpt lat="43.2885" lon="2.02763">
        <ele>144.4</ele>
        <time>2026-05-27T06:45:28Z</time>
      </trkpt>
      <trkpt lat="43.28846" lon="2.0276">
        <ele>144.1</ele>
        <time>2026-05-27T06:45:33Z</time>
      </trkpt>
      <trkpt lat="43.28845" lon="2.02755">
        <ele>144.1</ele>
        <time>2026-05-27T06:45:38Z</time>
      </trkpt>
      <trkpt lat="43.28843" lon="2.0275">
        <ele>143.9</ele>
        <time>2026-05-27T06:45:43Z</time>
      </trkpt>
      <trkpt lat="43.28842" lon="2.02744">
        <ele>143.9</ele>
        <time>2026-05-27T06:45:48Z</time>
      </trkpt>
      <trkpt lat="43.28843" lon="2.02739">
        <ele>144</ele>
        <time>2026-05-27T06:45:53Z</time>
      </trkpt>
      <trkpt lat="43.28844" lon="2.02734">
        <ele>144.2</ele>
        <time>2026-05-27T06:45:58Z</time>
      </trkpt>
      <trkpt lat="43.28844" lon="2.02732">
        <ele>144.2</ele>
        <time>2026-05-27T06:46:03Z</time>
      </trkpt>
      <trkpt lat="43.28844" lon="2.02732">
        <ele>144.2</ele>
        <time>2026-05-27T06:46:08Z</time>
      </trkpt>
      <trkpt lat="43.28844" lon="2.02732">
        <ele>144.2</ele>
        <time>2026-05-27T06:46:13Z</time>
      </trkpt>
      <trkpt lat="43.28844" lon="2.02732">
        <ele>144.2</ele>
        <time>2026-05-27T06:46:18Z</time>
      </trkpt>
      <trkpt lat="43.28844" lon="2.02732">
        <ele>144.2</ele>
        <time>2026-05-27T06:46:23Z</time>
      </trkpt>
      <trkpt lat="43.28844" lon="2.02732">
        <ele>144.2</ele>
        <time>2026-05-27T06:46:28Z</time>
      </trkpt>
      <trkpt lat="43.28844" lon="2.02732">
        <ele>144.2</ele>
        <time>2026-05-27T06:46:33Z</time>
      </trkpt>
      <trkpt lat="43.28844" lon="2.02732">
        <ele>144.2</ele>
        <time>2026-05-27T06:46:38Z</time>
      </trkpt>
      <trkpt lat="43.28844" lon="2.02732">
        <ele>144.2</ele>
        <time>2026-05-27T06:46:43Z</time>
      </trkpt>
      <trkpt lat="43.28844" lon="2.02732">
        <ele>144.2</ele>
        <time>2026-05-27T06:46:48Z</time>
      </trkpt>
      <trkpt lat="43.28844" lon="2.02732">
        <ele>144.2</ele>
        <time>2026-05-27T06:46:53Z</time>
      </trkpt>
      <trkpt lat="43.28844" lon="2.02732">
        <ele>144.2</ele>
        <time>2026-05-27T06:46:58Z</time>
      </trkpt>
      <trkpt lat="43.28844" lon="2.02732">
        <ele>144.2</ele>
        <time>2026-05-27T06:47:03Z</time>
      </trkpt>
      <trkpt lat="43.28844" lon="2.02732">
        <ele>144.2</ele>
        <time>2026-05-27T06:47:08Z</time>
      </trkpt>
      <trkpt lat="43.28844" lon="2.02732">
        <ele>144.2</ele>
        <time>2026-05-27T06:47:13Z</time>
      </trkpt>
      <trkpt lat="43.28844" lon="2.02732">
        <ele>144.2</ele>
        <time>2026-05-27T06:47:18Z</time>
      </trkpt>
      <trkpt lat="43.28844" lon="2.02732">
        <ele>144.2</ele>
        <time>2026-05-27T06:47:23Z</time>
      </trkpt>
      <trkpt lat="43.28844" lon="2.02732">
        <ele>144.2</ele>
        <time>2026-05-27T06:47:28Z</time>
      </trkpt>
      <trkpt lat="43.28844" lon="2.02732">
        <ele>144.2</ele>
        <time>2026-05-27T06:47:33Z</time>
      </trkpt>
      <trkpt lat="43.28844" lon="2.02732">
        <ele>144.2</ele>
        <time>2026-05-27T06:47:38Z</time>
      </trkpt>
      <trkpt lat="43.28844" lon="2.02732">
        <ele>144.2</ele>
        <time>2026-05-27T06:47:43Z</time>
      </trkpt>
      <trkpt lat="43.28844" lon="2.02732">
        <ele>144.2</ele>
        <time>2026-05-27T06:47:48Z</time>
      </trkpt>
      <trkpt lat="43.28844" lon="2.02732">
        <ele>144.2</ele>
        <time>2026-05-27T06:47:53Z</time>
      </trkpt>
      <trkpt lat="43.28844" lon="2.02732">
        <ele>144.2</ele>
        <time>2026-05-27T06:47:58Z</time>
      </trkpt>
      <trkpt lat="43.28844" lon="2.02732">
        <ele>144.2</ele>
        <time>2026-05-27T06:48:03Z</time>
      </trkpt>
      <trkpt lat="43.28844" lon="2.02732">
        <ele>144.2</ele>
        <time>2026-05-27T06:48:08Z</time>
      </trkpt>
      <trkpt lat="43.28844" lon="2.02732">
        <ele>144.2</ele>
        <time>2026-05-27T06:48:13Z</time>
      </trkpt>
      <trkpt lat="43.28844" lon="2.02732">
        <ele>144.2</ele>
        <time>2026-05-27T06:48:18Z</time>
      </trkpt>
      <trkpt lat="43.28844" lon="2.02732">
        <ele>144.2</ele>
        <time>2026-05-27T06:48:23Z</time>
      </trkpt>
      <trkpt lat="43.28844" lon="2.02732">
        <ele>144.2</ele>
        <time>2026-05-27T06:48:28Z</time>
      </trkpt>
      <trkpt lat="43.28844" lon="2.02732">
        <ele>144.2</ele>
        <time>2026-05-27T06:48:33Z</time>
      </trkpt>
      <trkpt lat="43.28844" lon="2.02732">
        <ele>144.2</ele>
        <time>2026-05-27T06:48:38Z</time>
      </trkpt>
      <trkpt lat="43.28844" lon="2.02732">
        <ele>144.2</ele>
        <time>2026-05-27T06:48:43Z</time>
      </trkpt>
      <trkpt lat="43.28844" lon="2.02732">
        <ele>144.2</ele>
        <time>2026-05-27T06:48:48Z</time>
      </trkpt>
      <trkpt lat="43.28844" lon="2.02732">
        <ele>144.2</ele>
        <time>2026-05-27T06:48:53Z</time>
      </trkpt>
      <trkpt lat="43.28844" lon="2.02732">
        <ele>144.2</ele>
        <time>2026-05-27T06:48:58Z</time>
      </trkpt>
      <trkpt lat="43.28844" lon="2.02732">
        <ele>144.2</ele>
        <time>2026-05-27T06:49:03Z</time>
      </trkpt>
      <trkpt lat="43.28844" lon="2.02732">
        <ele>144.2</ele>
        <time>2026-05-27T06:49:08Z</time>
      </trkpt>
      <trkpt lat="43.28844" lon="2.02732">
        <ele>144.2</ele>
        <time>2026-05-27T06:49:13Z</time>
      </trkpt>
      <trkpt lat="43.28844" lon="2.02732">
        <ele>144.2</ele>
        <time>2026-05-27T06:49:18Z</time>
      </trkpt>
      <trkpt lat="43.28844" lon="2.02732">
        <ele>144.2</ele>
        <time>2026-05-27T06:49:23Z</time>
      </trkpt>
      <trkpt lat="43.28844" lon="2.02732">
        <ele>144.2</ele>
        <time>2026-05-27T06:49:28Z</time>
      </trkpt>
      <trkpt lat="43.28844" lon="2.02732">
        <ele>144.2</ele>
        <time>2026-05-27T06:49:33Z</time>
      </trkpt>
      <trkpt lat="43.28844" lon="2.02732">
        <ele>144.2</ele>
        <time>2026-05-27T06:49:38Z</time>
      </trkpt>
      <trkpt lat="43.28844" lon="2.02732">
        <ele>144.2</ele>
        <time>2026-05-27T06:49:43Z</time>
      </trkpt>
      <trkpt lat="43.28844" lon="2.02732">
        <ele>144.2</ele>
        <time>2026-05-27T06:49:48Z</time>
      </trkpt>
      <trkpt lat="43.28844" lon="2.02732">
        <ele>144.2</ele>
        <time>2026-05-27T06:49:53Z</time>
      </trkpt>
      <trkpt lat="43.28844" lon="2.02732">
        <ele>144.2</ele>
        <time>2026-05-27T06:49:58Z</time>
      </trkpt>
      <trkpt lat="43.28844" lon="2.02732">
        <ele>144.2</ele>
        <time>2026-05-27T06:50:03Z</time>
      </trkpt>
      <trkpt lat="43.28844" lon="2.02732">
        <ele>144.2</ele>
        <time>2026-05-27T06:50:08Z</time>
      </trkpt>
      <trkpt lat="43.28844" lon="2.02732">
        <ele>144.2</ele>
        <time>2026-05-27T06:50:13Z</time>
      </trkpt>
      <trkpt lat="43.28844" lon="2.02732">
        <ele>144.2</ele>
        <time>2026-05-27T06:50:18Z</time>
      </trkpt>
      <trkpt lat="43.28844" lon="2.02732">
        <ele>144.2</ele>
        <time>2026-05-27T06:50:23Z</time>
      </trkpt>
      <trkpt lat="43.28844" lon="2.02732">
        <ele>144.2</ele>
        <time>2026-05-27T06:50:28Z</time>
      </trkpt>
      <trkpt lat="43.28844" lon="2.02732">
        <ele>144.2</ele>
        <time>2026-05-27T06:50:33Z</time>
      </trkpt>
      <trkpt lat="43.28844" lon="2.02732">
        <ele>144.2</ele>
        <time>2026-05-27T06:50:38Z</time>
      </trkpt>
      <trkpt lat="43.28844" lon="2.02732">
        <ele>144.2</ele>
        <time>2026-05-27T06:50:43Z</time>
      </trkpt>
      <trkpt lat="43.28844" lon="2.02732">
        <ele>144.2</ele>
        <time>2026-05-27T06:50:48Z</time>
      </trkpt>
      <trkpt lat="43.28844" lon="2.02732">
        <ele>144.2</ele>
        <time>2026-05-27T06:50:53Z</time>
      </trkpt>
      <trkpt lat="43.28844" lon="2.02732">
        <ele>144.2</ele>
        <time>2026-05-27T06:50:58Z</time>
      </trkpt>
      <trkpt lat="43.28844" lon="2.02732">
        <ele>144.2</ele>
        <time>2026-05-27T06:51:03Z</time>
      </trkpt>
      <trkpt lat="43.28844" lon="2.02732">
        <ele>144.2</ele>
        <time>2026-05-27T06:51:08Z</time>
      </trkpt>
      <trkpt lat="43.28844" lon="2.02732">
        <ele>144.2</ele>
        <time>2026-05-27T06:51:13Z</time>
      </trkpt>
      <trkpt lat="43.28844" lon="2.02732">
        <ele>144.2</ele>
        <time>2026-05-27T06:51:18Z</time>
      </trkpt>
      <trkpt lat="43.28844" lon="2.02732">
        <ele>144.2</ele>
        <time>2026-05-27T06:51:23Z</time>
      </trkpt>
      <trkpt lat="43.28844" lon="2.02732">
        <ele>144.2</ele>
        <time>2026-05-27T06:51:28Z</time>
      </trkpt>
      <trkpt lat="43.28844" lon="2.02732">
        <ele>144.2</ele>
        <time>2026-05-27T06:51:33Z</time>
      </trkpt>
      <trkpt lat="43.28844" lon="2.02732">
        <ele>144.2</ele>
        <time>2026-05-27T06:51:38Z</time>
      </trkpt>
      <trkpt lat="43.28844" lon="2.02732">
        <ele>144.2</ele>
        <time>2026-05-27T06:51:43Z</time>
      </trkpt>
      <trkpt lat="43.28844" lon="2.02732">
        <ele>144.2</ele>
        <time>2026-05-27T06:51:48Z</time>
      </trkpt>
      <trkpt lat="43.28844" lon="2.02732">
        <ele>144.2</ele>
        <time>2026-05-27T06:51:53Z</time>
      </trkpt>
      <trkpt lat="43.28844" lon="2.02732">
        <ele>144.2</ele>
        <time>2026-05-27T06:51:58Z</time>
      </trkpt>
      <trkpt lat="43.28844" lon="2.02732">
        <ele>144.2</ele>
        <time>2026-05-27T06:52:03Z</time>
      </trkpt>
      <trkpt lat="43.28844" lon="2.02732">
        <ele>144.2</ele>
        <time>2026-05-27T06:52:08Z</time>
      </trkpt>
      <trkpt lat="43.28844" lon="2.02732">
        <ele>144.2</ele>
        <time>2026-05-27T06:52:13Z</time>
      </trkpt>
      <trkpt lat="43.28844" lon="2.02732">
        <ele>144.2</ele>
        <time>2026-05-27T06:52:18Z</time>
      </trkpt>
      <trkpt lat="43.28844" lon="2.02732">
        <ele>144.2</ele>
        <time>2026-05-27T06:52:23Z</time>
      </trkpt>
      <trkpt lat="43.28844" lon="2.02732">
        <ele>144.2</ele>
        <time>2026-05-27T06:52:28Z</time>
      </trkpt>
      <trkpt lat="43.28844" lon="2.02732">
        <ele>144.2</ele>
        <time>2026-05-27T06:52:33Z</time>
      </trkpt>
      <trkpt lat="43.28844" lon="2.02732">
        <ele>144.2</ele>
        <time>2026-05-27T06:52:38Z</time>
      </trkpt>
      <trkpt lat="43.28844" lon="2.02732">
        <ele>144.2</ele>
        <time>2026-05-27T06:52:43Z</time>
      </trkpt>
      <trkpt lat="43.28844" lon="2.02732">
        <ele>144.2</ele>
        <time>2026-05-27T06:52:48Z</time>
      </trkpt>
      <trkpt lat="43.28844" lon="2.02732">
        <ele>144.2</ele>
        <time>2026-05-27T06:52:53Z</time>
      </trkpt>
      <trkpt lat="43.28844" lon="2.02732">
        <ele>144.2</ele>
        <time>2026-05-27T06:52:58Z</time>
      </trkpt>
      <trkpt lat="43.28844" lon="2.02732">
        <ele>144.2</ele>
        <time>2026-05-27T06:53:03Z</time>
      </trkpt>
      <trkpt lat="43.28844" lon="2.02732">
        <ele>144.2</ele>
        <time>2026-05-27T06:53:08Z</time>
      </trkpt>
      <trkpt lat="43.28844" lon="2.02732">
        <ele>144.2</ele>
        <time>2026-05-27T06:53:13Z</time>
      </trkpt>
      <trkpt lat="43.28844" lon="2.02732">
        <ele>144.2</ele>
        <time>2026-05-27T06:53:18Z</time>
      </trkpt>
      <trkpt lat="43.28844" lon="2.02732">
        <ele>144.2</ele>
        <time>2026-05-27T06:53:23Z</time>
      </trkpt>
      <trkpt lat="43.28844" lon="2.02732">
        <ele>144.2</ele>
        <time>2026-05-27T06:53:28Z</time>
      </trkpt>
      <trkpt lat="43.28844" lon="2.02732">
        <ele>144.2</ele>
        <time>2026-05-27T06:53:33Z</time>
      </trkpt>
      <trkpt lat="43.28844" lon="2.02732">
        <ele>144.2</ele>
        <time>2026-05-27T06:53:38Z</time>
      </trkpt>
      <trkpt lat="43.28844" lon="2.02732">
        <ele>144.2</ele>
        <time>2026-05-27T06:53:43Z</time>
      </trkpt>
      <trkpt lat="43.28844" lon="2.02732">
        <ele>144.2</ele>
        <time>2026-05-27T06:53:48Z</time>
      </trkpt>
      <trkpt lat="43.28844" lon="2.02732">
        <ele>144.2</ele>
        <time>2026-05-27T06:53:53Z</time>
      </trkpt>
      <trkpt lat="43.28844" lon="2.02732">
        <ele>144.2</ele>
        <time>2026-05-27T06:53:58Z</time>
      </trkpt>
      <trkpt lat="43.28844" lon="2.02732">
        <ele>144.2</ele>
        <time>2026-05-27T06:54:03Z</time>
      </trkpt>
      <trkpt lat="43.28844" lon="2.02732">
        <ele>144.2</ele>
        <time>2026-05-27T06:54:08Z</time>
      </trkpt>
      <trkpt lat="43.28844" lon="2.02732">
        <ele>144.2</ele>
        <time>2026-05-27T06:54:13Z</time>
      </trkpt>
      <trkpt lat="43.28844" lon="2.02732">
        <ele>144.2</ele>
        <time>2026-05-27T06:54:18Z</time>
      </trkpt>
      <trkpt lat="43.28844" lon="2.02732">
        <ele>144.2</ele>
        <time>2026-05-27T06:54:23Z</time>
      </trkpt>
      <trkpt lat="43.28842" lon="2.02742">
        <ele>143.9</ele>
        <time>2026-05-27T06:54:28Z</time>
      </trkpt>
      <trkpt lat="43.28844" lon="2.02748">
        <ele>144</ele>
        <time>2026-05-27T06:54:33Z</time>
      </trkpt>
      <trkpt lat="43.28846" lon="2.02752">
        <ele>144.2</ele>
        <time>2026-05-27T06:54:38Z</time>
      </trkpt>
      <trkpt lat="43.28848" lon="2.02756">
        <ele>144.3</ele>
        <time>2026-05-27T06:54:43Z</time>
      </trkpt>
      <trkpt lat="43.2885" lon="2.02761">
        <ele>144.4</ele>
        <time>2026-05-27T06:54:48Z</time>
      </trkpt>
      <trkpt lat="43.28853" lon="2.02763">
        <ele>144.7</ele>
        <time>2026-05-27T06:54:53Z</time>
      </trkpt>
      <trkpt lat="43.28856" lon="2.02767">
        <ele>144.9</ele>
        <time>2026-05-27T06:54:58Z</time>
      </trkpt>
      <trkpt lat="43.28858" lon="2.0277">
        <ele>145.1</ele>
        <time>2026-05-27T06:55:03Z</time>
      </trkpt>
      <trkpt lat="43.28859" lon="2.02773">
        <ele>145.1</ele>
        <time>2026-05-27T06:55:08Z</time>
      </trkpt>
      <trkpt lat="43.28861" lon="2.02774">
        <ele>145.3</ele>
        <time>2026-05-27T06:55:13Z</time>
      </trkpt>
      <trkpt lat="43.28864" lon="2.02775">
        <ele>145.5</ele>
        <time>2026-05-27T06:55:18Z</time>
      </trkpt>
      <trkpt lat="43.28862" lon="2.02779">
        <ele>145.3</ele>
        <time>2026-05-27T06:55:23Z</time>
      </trkpt>
      <trkpt lat="43.2886" lon="2.02786">
        <ele>145</ele>
        <time>2026-05-27T06:55:28Z</time>
      </trkpt>
      <trkpt lat="43.28858" lon="2.02792">
        <ele>144.7</ele>
        <time>2026-05-27T06:55:33Z</time>
      </trkpt>
      <trkpt lat="43.28856" lon="2.02798">
        <ele>144.4</ele>
        <time>2026-05-27T06:55:38Z</time>
      </trkpt>
      <trkpt lat="43.28854" lon="2.02804">
        <ele>144.2</ele>
        <time>2026-05-27T06:55:43Z</time>
      </trkpt>
      <trkpt lat="43.2885" lon="2.02811">
        <ele>143.7</ele>
        <time>2026-05-27T06:55:48Z</time>
      </trkpt>
      <trkpt lat="43.28847" lon="2.02819">
        <ele>143.3</ele>
        <time>2026-05-27T06:55:53Z</time>
      </trkpt>
      <trkpt lat="43.28845" lon="2.02825">
        <ele>143.1</ele>
        <time>2026-05-27T06:55:58Z</time>
      </trkpt>
      <trkpt lat="43.28842" lon="2.02832">
        <ele>142.7</ele>
        <time>2026-05-27T06:56:03Z</time>
      </trkpt>
      <trkpt lat="43.28839" lon="2.02839">
        <ele>142.4</ele>
        <time>2026-05-27T06:56:08Z</time>
      </trkpt>
      <trkpt lat="43.28837" lon="2.02847">
        <ele>142.1</ele>
        <time>2026-05-27T06:56:13Z</time>
      </trkpt>
      <trkpt lat="43.28833" lon="2.02854">
        <ele>141.7</ele>
        <time>2026-05-27T06:56:18Z</time>
      </trkpt>
      <trkpt lat="43.2883" lon="2.02861">
        <ele>141.6</ele>
        <time>2026-05-27T06:56:23Z</time>
      </trkpt>
      <trkpt lat="43.28827" lon="2.02867">
        <ele>141.4</ele>
        <time>2026-05-27T06:56:28Z</time>
      </trkpt>
      <trkpt lat="43.28825" lon="2.02874">
        <ele>141.3</ele>
        <time>2026-05-27T06:56:33Z</time>
      </trkpt>
      <trkpt lat="43.28822" lon="2.02879">
        <ele>141.2</ele>
        <time>2026-05-27T06:56:38Z</time>
      </trkpt>
      <trkpt lat="43.28819" lon="2.02886">
        <ele>141.1</ele>
        <time>2026-05-27T06:56:43Z</time>
      </trkpt>
      <trkpt lat="43.28815" lon="2.02893">
        <ele>140.9</ele>
        <time>2026-05-27T06:56:48Z</time>
      </trkpt>
      <trkpt lat="43.28812" lon="2.029">
        <ele>140.8</ele>
        <time>2026-05-27T06:56:53Z</time>
      </trkpt>
      <trkpt lat="43.28809" lon="2.02906">
        <ele>140.8</ele>
        <time>2026-05-27T06:56:58Z</time>
      </trkpt>
      <trkpt lat="43.28805" lon="2.02913">
        <ele>140.7</ele>
        <time>2026-05-27T06:57:03Z</time>
      </trkpt>
      <trkpt lat="43.28801" lon="2.02917">
        <ele>140.6</ele>
        <time>2026-05-27T06:57:08Z</time>
      </trkpt>
      <trkpt lat="43.28798" lon="2.02924">
        <ele>140.7</ele>
        <time>2026-05-27T06:57:13Z</time>
      </trkpt>
      <trkpt lat="43.28794" lon="2.02929">
        <ele>140.7</ele>
        <time>2026-05-27T06:57:18Z</time>
      </trkpt>
      <trkpt lat="43.2879" lon="2.02937">
        <ele>140.7</ele>
        <time>2026-05-27T06:57:23Z</time>
      </trkpt>
      <trkpt lat="43.28786" lon="2.02942">
        <ele>140.7</ele>
        <time>2026-05-27T06:57:28Z</time>
      </trkpt>
      <trkpt lat="43.28782" lon="2.02949">
        <ele>140.8</ele>
        <time>2026-05-27T06:57:33Z</time>
      </trkpt>
      <trkpt lat="43.28778" lon="2.02956">
        <ele>140.8</ele>
        <time>2026-05-27T06:57:38Z</time>
      </trkpt>
      <trkpt lat="43.28775" lon="2.02963">
        <ele>140.9</ele>
        <time>2026-05-27T06:57:43Z</time>
      </trkpt>
      <trkpt lat="43.28772" lon="2.02968">
        <ele>140.9</ele>
        <time>2026-05-27T06:57:48Z</time>
      </trkpt>
      <trkpt lat="43.28768" lon="2.02975">
        <ele>140.9</ele>
        <time>2026-05-27T06:57:53Z</time>
      </trkpt>
      <trkpt lat="43.28765" lon="2.02981">
        <ele>141</ele>
        <time>2026-05-27T06:57:58Z</time>
      </trkpt>
      <trkpt lat="43.28761" lon="2.02987">
        <ele>141</ele>
        <time>2026-05-27T06:58:03Z</time>
      </trkpt>
      <trkpt lat="43.28757" lon="2.02995">
        <ele>141</ele>
        <time>2026-05-27T06:58:08Z</time>
      </trkpt>
      <trkpt lat="43.28753" lon="2.03001">
        <ele>141.1</ele>
        <time>2026-05-27T06:58:13Z</time>
      </trkpt>
      <trkpt lat="43.2875" lon="2.03008">
        <ele>141.2</ele>
        <time>2026-05-27T06:58:18Z</time>
      </trkpt>
      <trkpt lat="43.28746" lon="2.03014">
        <ele>141.2</ele>
        <time>2026-05-27T06:58:23Z</time>
      </trkpt>
      <trkpt lat="43.28743" lon="2.03021">
        <ele>141.2</ele>
        <time>2026-05-27T06:58:28Z</time>
      </trkpt>
      <trkpt lat="43.2874" lon="2.03027">
        <ele>141.2</ele>
        <time>2026-05-27T06:58:33Z</time>
      </trkpt>
      <trkpt lat="43.28735" lon="2.03034">
        <ele>141.2</ele>
        <time>2026-05-27T06:58:38Z</time>
      </trkpt>
      <trkpt lat="43.28733" lon="2.03036">
        <ele>141.2</ele>
        <time>2026-05-27T06:58:43Z</time>
      </trkpt>
      <trkpt lat="43.28732" lon="2.03036">
        <ele>141.1</ele>
        <time>2026-05-27T06:58:48Z</time>
      </trkpt>
      <trkpt lat="43.28731" lon="2.03033">
        <ele>141</ele>
        <time>2026-05-27T06:58:53Z</time>
      </trkpt>
      <trkpt lat="43.2873" lon="2.03027">
        <ele>140.9</ele>
        <time>2026-05-27T06:58:58Z</time>
      </trkpt>
      <trkpt lat="43.28726" lon="2.03025">
        <ele>140.6</ele>
        <time>2026-05-27T06:59:03Z</time>
      </trkpt>
      <trkpt lat="43.28721" lon="2.03021">
        <ele>140.4</ele>
        <time>2026-05-27T06:59:08Z</time>
      </trkpt>
      <trkpt lat="43.28717" lon="2.03018">
        <ele>140.2</ele>
        <time>2026-05-27T06:59:13Z</time>
      </trkpt>
      <trkpt lat="43.28713" lon="2.03015">
        <ele>139.9</ele>
        <time>2026-05-27T06:59:18Z</time>
      </trkpt>
      <trkpt lat="43.28707" lon="2.03013">
        <ele>139.7</ele>
        <time>2026-05-27T06:59:23Z</time>
      </trkpt>
      <trkpt lat="43.28703" lon="2.0301">
        <ele>139.5</ele>
        <time>2026-05-27T06:59:28Z</time>
      </trkpt>
      <trkpt lat="43.28698" lon="2.03007">
        <ele>139.2</ele>
        <time>2026-05-27T06:59:33Z</time>
      </trkpt>
      <trkpt lat="43.28692" lon="2.03003">
        <ele>139</ele>
        <time>2026-05-27T06:59:38Z</time>
      </trkpt>
      <trkpt lat="43.28687" lon="2.03">
        <ele>138.7</ele>
        <time>2026-05-27T06:59:43Z</time>
      </trkpt>
      <trkpt lat="43.28682" lon="2.02998">
        <ele>138.5</ele>
        <time>2026-05-27T06:59:48Z</time>
      </trkpt>
      <trkpt lat="43.28677" lon="2.02995">
        <ele>138.3</ele>
        <time>2026-05-27T06:59:53Z</time>
      </trkpt>
      <trkpt lat="43.28671" lon="2.02992">
        <ele>138.1</ele>
        <time>2026-05-27T06:59:58Z</time>
      </trkpt>
      <trkpt lat="43.28666" lon="2.02988">
        <ele>137.8</ele>
        <time>2026-05-27T07:00:03Z</time>
      </trkpt>
      <trkpt lat="43.2866" lon="2.02985">
        <ele>137.8</ele>
        <time>2026-05-27T07:00:08Z</time>
      </trkpt>
      <trkpt lat="43.28655" lon="2.02987">
        <ele>137.7</ele>
        <time>2026-05-27T07:00:13Z</time>
      </trkpt>
      <trkpt lat="43.28653" lon="2.02993">
        <ele>137.8</ele>
        <time>2026-05-27T07:00:18Z</time>
      </trkpt>
      <trkpt lat="43.28653" lon="2.02996">
        <ele>137.8</ele>
        <time>2026-05-27T07:00:23Z</time>
      </trkpt>
      <trkpt lat="43.28653" lon="2.02997">
        <ele>137.8</ele>
        <time>2026-05-27T07:00:28Z</time>
      </trkpt>
      <trkpt lat="43.28651" lon="2.02999">
        <ele>137.8</ele>
        <time>2026-05-27T07:00:33Z</time>
      </trkpt>
      <trkpt lat="43.28648" lon="2.03001">
        <ele>137.8</ele>
        <time>2026-05-27T07:00:38Z</time>
      </trkpt>
      <trkpt lat="43.28645" lon="2.03002">
        <ele>137.8</ele>
        <time>2026-05-27T07:00:43Z</time>
      </trkpt>
      <trkpt lat="43.28645" lon="2.03002">
        <ele>137.8</ele>
        <time>2026-05-27T07:00:48Z</time>
      </trkpt>
      <trkpt lat="43.28645" lon="2.03002">
        <ele>137.8</ele>
        <time>2026-05-27T07:00:53Z</time>
      </trkpt>
      <trkpt lat="43.28645" lon="2.03002">
        <ele>137.8</ele>
        <time>2026-05-27T07:00:58Z</time>
      </trkpt>
      <trkpt lat="43.28645" lon="2.03002">
        <ele>137.8</ele>
        <time>2026-05-27T07:01:03Z</time>
      </trkpt>
      <trkpt lat="43.28645" lon="2.03002">
        <ele>137.8</ele>
        <time>2026-05-27T07:01:08Z</time>
      </trkpt>
      <trkpt lat="43.2865" lon="2.03005">
        <ele>137.8</ele>
        <time>2026-05-27T07:01:13Z</time>
      </trkpt>
      <trkpt lat="43.28649" lon="2.03012">
        <ele>137.9</ele>
        <time>2026-05-27T07:01:18Z</time>
      </trkpt>
      <trkpt lat="43.28646" lon="2.03019">
        <ele>137.9</ele>
        <time>2026-05-27T07:01:23Z</time>
      </trkpt>
      <trkpt lat="43.28644" lon="2.03026">
        <ele>138</ele>
        <time>2026-05-27T07:01:28Z</time>
      </trkpt>
      <trkpt lat="43.2864" lon="2.03035">
        <ele>138</ele>
        <time>2026-05-27T07:01:33Z</time>
      </trkpt>
      <trkpt lat="43.28637" lon="2.03043">
        <ele>138</ele>
        <time>2026-05-27T07:01:38Z</time>
      </trkpt>
      <trkpt lat="43.28636" lon="2.03052">
        <ele>138</ele>
        <time>2026-05-27T07:01:43Z</time>
      </trkpt>
      <trkpt lat="43.28634" lon="2.03062">
        <ele>138.1</ele>
        <time>2026-05-27T07:01:48Z</time>
      </trkpt>
      <trkpt lat="43.28633" lon="2.0307">
        <ele>138.1</ele>
        <time>2026-05-27T07:01:53Z</time>
      </trkpt>
      <trkpt lat="43.28632" lon="2.03079">
        <ele>138.1</ele>
        <time>2026-05-27T07:01:58Z</time>
      </trkpt>
      <trkpt lat="43.2863" lon="2.03086">
        <ele>138.1</ele>
        <time>2026-05-27T07:02:03Z</time>
      </trkpt>
      <trkpt lat="43.28627" lon="2.03092">
        <ele>138.1</ele>
        <time>2026-05-27T07:02:08Z</time>
      </trkpt>
      <trkpt lat="43.28625" lon="2.03102">
        <ele>138</ele>
        <time>2026-05-27T07:02:13Z</time>
      </trkpt>
      <trkpt lat="43.28624" lon="2.03109">
        <ele>138</ele>
        <time>2026-05-27T07:02:18Z</time>
      </trkpt>
      <trkpt lat="43.28623" lon="2.03117">
        <ele>137.9</ele>
        <time>2026-05-27T07:02:23Z</time>
      </trkpt>
      <trkpt lat="43.28621" lon="2.03124">
        <ele>137.9</ele>
        <time>2026-05-27T07:02:28Z</time>
      </trkpt>
      <trkpt lat="43.28619" lon="2.03132">
        <ele>137.8</ele>
        <time>2026-05-27T07:02:33Z</time>
      </trkpt>
      <trkpt lat="43.28618" lon="2.03139">
        <ele>137.7</ele>
        <time>2026-05-27T07:02:38Z</time>
      </trkpt>
      <trkpt lat="43.28617" lon="2.03147">
        <ele>137.7</ele>
        <time>2026-05-27T07:02:43Z</time>
      </trkpt>
      <trkpt lat="43.28614" lon="2.03156">
        <ele>137.5</ele>
        <time>2026-05-27T07:02:48Z</time>
      </trkpt>
      <trkpt lat="43.28612" lon="2.03163">
        <ele>137.4</ele>
        <time>2026-05-27T07:02:53Z</time>
      </trkpt>
      <trkpt lat="43.28611" lon="2.0317">
        <ele>137.4</ele>
        <time>2026-05-27T07:02:58Z</time>
      </trkpt>
      <trkpt lat="43.28609" lon="2.03177">
        <ele>137.3</ele>
        <time>2026-05-27T07:03:03Z</time>
      </trkpt>
      <trkpt lat="43.28607" lon="2.03182">
        <ele>137.3</ele>
        <time>2026-05-27T07:03:08Z</time>
      </trkpt>
      <trkpt lat="43.28607" lon="2.03182">
        <ele>137.3</ele>
        <time>2026-05-27T07:03:13Z</time>
      </trkpt>
      <trkpt lat="43.28607" lon="2.03182">
        <ele>137.3</ele>
        <time>2026-05-27T07:03:18Z</time>
      </trkpt>
      <trkpt lat="43.28607" lon="2.03182">
        <ele>137.3</ele>
        <time>2026-05-27T07:03:23Z</time>
      </trkpt>
      <trkpt lat="43.28607" lon="2.03184">
        <ele>137.3</ele>
        <time>2026-05-27T07:03:28Z</time>
      </trkpt>
      <trkpt lat="43.28607" lon="2.03184">
        <ele>137.3</ele>
        <time>2026-05-27T07:03:33Z</time>
      </trkpt>
      <trkpt lat="43.28607" lon="2.03184">
        <ele>137.3</ele>
        <time>2026-05-27T07:03:38Z</time>
      </trkpt>
      <trkpt lat="43.28604" lon="2.03188">
        <ele>137.2</ele>
        <time>2026-05-27T07:03:43Z</time>
      </trkpt>
      <trkpt lat="43.28605" lon="2.03194">
        <ele>137.3</ele>
        <time>2026-05-27T07:03:48Z</time>
      </trkpt>
      <trkpt lat="43.28605" lon="2.03202">
        <ele>137.4</ele>
        <time>2026-05-27T07:03:53Z</time>
      </trkpt>
      <trkpt lat="43.28603" lon="2.03212">
        <ele>137.4</ele>
        <time>2026-05-27T07:03:58Z</time>
      </trkpt>
      <trkpt lat="43.28601" lon="2.0322">
        <ele>137.4</ele>
        <time>2026-05-27T07:04:03Z</time>
      </trkpt>
      <trkpt lat="43.286" lon="2.03229">
        <ele>137.4</ele>
        <time>2026-05-27T07:04:08Z</time>
      </trkpt>
      <trkpt lat="43.286" lon="2.03236">
        <ele>137.5</ele>
        <time>2026-05-27T07:04:13Z</time>
      </trkpt>
      <trkpt lat="43.28598" lon="2.03241">
        <ele>137.4</ele>
        <time>2026-05-27T07:04:18Z</time>
      </trkpt>
      <trkpt lat="43.28595" lon="2.0325">
        <ele>137.4</ele>
        <time>2026-05-27T07:04:23Z</time>
      </trkpt>
      <trkpt lat="43.28594" lon="2.03258">
        <ele>137.4</ele>
        <time>2026-05-27T07:04:28Z</time>
      </trkpt>
      <trkpt lat="43.28592" lon="2.03266">
        <ele>137.3</ele>
        <time>2026-05-27T07:04:33Z</time>
      </trkpt>
      <trkpt lat="43.28588" lon="2.03273">
        <ele>137.1</ele>
        <time>2026-05-27T07:04:38Z</time>
      </trkpt>
      <trkpt lat="43.28587" lon="2.03281">
        <ele>137.1</ele>
        <time>2026-05-27T07:04:43Z</time>
      </trkpt>
      <trkpt lat="43.28586" lon="2.03291">
        <ele>137.1</ele>
        <time>2026-05-27T07:04:48Z</time>
      </trkpt>
      <trkpt lat="43.28583" lon="2.03299">
        <ele>137</ele>
        <time>2026-05-27T07:04:53Z</time>
      </trkpt>
      <trkpt lat="43.2858" lon="2.03308">
        <ele>137</ele>
        <time>2026-05-27T07:04:58Z</time>
      </trkpt>
      <trkpt lat="43.28579" lon="2.03318">
        <ele>137</ele>
        <time>2026-05-27T07:05:03Z</time>
      </trkpt>
      <trkpt lat="43.28576" lon="2.03324">
        <ele>136.9</ele>
        <time>2026-05-27T07:05:08Z</time>
      </trkpt>
      <trkpt lat="43.28573" lon="2.03331">
        <ele>136.9</ele>
        <time>2026-05-27T07:05:13Z</time>
      </trkpt>
      <trkpt lat="43.28571" lon="2.03338">
        <ele>136.8</ele>
        <time>2026-05-27T07:05:18Z</time>
      </trkpt>
      <trkpt lat="43.28569" lon="2.03345">
        <ele>136.7</ele>
        <time>2026-05-27T07:05:23Z</time>
      </trkpt>
      <trkpt lat="43.28566" lon="2.03353">
        <ele>136.6</ele>
        <time>2026-05-27T07:05:28Z</time>
      </trkpt>
      <trkpt lat="43.28564" lon="2.03362">
        <ele>136.5</ele>
        <time>2026-05-27T07:05:33Z</time>
      </trkpt>
      <trkpt lat="43.28561" lon="2.03371">
        <ele>136.4</ele>
        <time>2026-05-27T07:05:38Z</time>
      </trkpt>
      <trkpt lat="43.28558" lon="2.03379">
        <ele>136.3</ele>
        <time>2026-05-27T07:05:43Z</time>
      </trkpt>
      <trkpt lat="43.28553" lon="2.03388">
        <ele>136.2</ele>
        <time>2026-05-27T07:05:48Z</time>
      </trkpt>
      <trkpt lat="43.2855" lon="2.03395">
        <ele>136.2</ele>
        <time>2026-05-27T07:05:53Z</time>
      </trkpt>
      <trkpt lat="43.28545" lon="2.03401">
        <ele>136.1</ele>
        <time>2026-05-27T07:05:58Z</time>
      </trkpt>
      <trkpt lat="43.28541" lon="2.03408">
        <ele>136.1</ele>
        <time>2026-05-27T07:06:03Z</time>
      </trkpt>
      <trkpt lat="43.2854" lon="2.03416">
        <ele>136</ele>
        <time>2026-05-27T07:06:08Z</time>
      </trkpt>
      <trkpt lat="43.28538" lon="2.03425">
        <ele>136</ele>
        <time>2026-05-27T07:06:13Z</time>
      </trkpt>
      <trkpt lat="43.28537" lon="2.03434">
        <ele>136</ele>
        <time>2026-05-27T07:06:18Z</time>
      </trkpt>
      <trkpt lat="43.28537" lon="2.03441">
        <ele>136</ele>
        <time>2026-05-27T07:06:23Z</time>
      </trkpt>
      <trkpt lat="43.28534" lon="2.03447">
        <ele>136</ele>
        <time>2026-05-27T07:06:28Z</time>
      </trkpt>
      <trkpt lat="43.28533" lon="2.03451">
        <ele>136</ele>
        <time>2026-05-27T07:06:33Z</time>
      </trkpt>
      <trkpt lat="43.28532" lon="2.03451">
        <ele>136</ele>
        <time>2026-05-27T07:06:38Z</time>
      </trkpt>
      <trkpt lat="43.28533" lon="2.03454">
        <ele>136</ele>
        <time>2026-05-27T07:06:43Z</time>
      </trkpt>
      <trkpt lat="43.28534" lon="2.03462">
        <ele>136</ele>
        <time>2026-05-27T07:06:48Z</time>
      </trkpt>
      <trkpt lat="43.28532" lon="2.0347">
        <ele>136</ele>
        <time>2026-05-27T07:06:53Z</time>
      </trkpt>
      <trkpt lat="43.2853" lon="2.03478">
        <ele>136</ele>
        <time>2026-05-27T07:06:58Z</time>
      </trkpt>
      <trkpt lat="43.28527" lon="2.03485">
        <ele>136</ele>
        <time>2026-05-27T07:07:03Z</time>
      </trkpt>
      <trkpt lat="43.28523" lon="2.03492">
        <ele>136</ele>
        <time>2026-05-27T07:07:08Z</time>
      </trkpt>
      <trkpt lat="43.2852" lon="2.03497">
        <ele>136</ele>
        <time>2026-05-27T07:07:13Z</time>
      </trkpt>
      <trkpt lat="43.28521" lon="2.03498">
        <ele>136</ele>
        <time>2026-05-27T07:07:18Z</time>
      </trkpt>
      <trkpt lat="43.28521" lon="2.03498">
        <ele>136</ele>
        <time>2026-05-27T07:07:23Z</time>
      </trkpt>
      <trkpt lat="43.28521" lon="2.03498">
        <ele>136</ele>
        <time>2026-05-27T07:07:28Z</time>
      </trkpt>
      <trkpt lat="43.28521" lon="2.03498">
        <ele>136</ele>
        <time>2026-05-27T07:07:33Z</time>
      </trkpt>
      <trkpt lat="43.28519" lon="2.03501">
        <ele>136</ele>
        <time>2026-05-27T07:07:38Z</time>
      </trkpt>
      <trkpt lat="43.28518" lon="2.03509">
        <ele>135.9</ele>
        <time>2026-05-27T07:07:43Z</time>
      </trkpt>
      <trkpt lat="43.28515" lon="2.03517">
        <ele>135.8</ele>
        <time>2026-05-27T07:07:48Z</time>
      </trkpt>
      <trkpt lat="43.28513" lon="2.03524">
        <ele>135.8</ele>
        <time>2026-05-27T07:07:53Z</time>
      </trkpt>
      <trkpt lat="43.28511" lon="2.03532">
        <ele>135.7</ele>
        <time>2026-05-27T07:07:58Z</time>
      </trkpt>
      <trkpt lat="43.28508" lon="2.03541">
        <ele>135.6</ele>
        <time>2026-05-27T07:08:03Z</time>
      </trkpt>
      <trkpt lat="43.28505" lon="2.0355">
        <ele>135.4</ele>
        <time>2026-05-27T07:08:08Z</time>
      </trkpt>
      <trkpt lat="43.28504" lon="2.03556">
        <ele>135.4</ele>
        <time>2026-05-27T07:08:13Z</time>
      </trkpt>
      <trkpt lat="43.28504" lon="2.03556">
        <ele>135.4</ele>
        <time>2026-05-27T07:08:18Z</time>
      </trkpt>
      <trkpt lat="43.28504" lon="2.03556">
        <ele>135.4</ele>
        <time>2026-05-27T07:08:23Z</time>
      </trkpt>
      <trkpt lat="43.28504" lon="2.03556">
        <ele>135.4</ele>
        <time>2026-05-27T07:08:28Z</time>
      </trkpt>
      <trkpt lat="43.28504" lon="2.03556">
        <ele>135.4</ele>
        <time>2026-05-27T07:08:33Z</time>
      </trkpt>
      <trkpt lat="43.28504" lon="2.03556">
        <ele>135.4</ele>
        <time>2026-05-27T07:08:38Z</time>
      </trkpt>
      <trkpt lat="43.28502" lon="2.03566">
        <ele>135.2</ele>
        <time>2026-05-27T07:08:43Z</time>
      </trkpt>
      <trkpt lat="43.28499" lon="2.03573">
        <ele>135.1</ele>
        <time>2026-05-27T07:08:48Z</time>
      </trkpt>
      <trkpt lat="43.28496" lon="2.03582">
        <ele>135.1</ele>
        <time>2026-05-27T07:08:53Z</time>
      </trkpt>
      <trkpt lat="43.28493" lon="2.03589">
        <ele>135</ele>
        <time>2026-05-27T07:08:58Z</time>
      </trkpt>
      <trkpt lat="43.28491" lon="2.03598">
        <ele>134.9</ele>
        <time>2026-05-27T07:09:03Z</time>
      </trkpt>
      <trkpt lat="43.28488" lon="2.03606">
        <ele>134.9</ele>
        <time>2026-05-27T07:09:08Z</time>
      </trkpt>
      <trkpt lat="43.28486" lon="2.03614">
        <ele>134.8</ele>
        <time>2026-05-27T07:09:13Z</time>
      </trkpt>
      <trkpt lat="43.28484" lon="2.03621">
        <ele>134.7</ele>
        <time>2026-05-27T07:09:18Z</time>
      </trkpt>
      <trkpt lat="43.28481" lon="2.0363">
        <ele>134.7</ele>
        <time>2026-05-27T07:09:23Z</time>
      </trkpt>
      <trkpt lat="43.28479" lon="2.03638">
        <ele>134.6</ele>
        <time>2026-05-27T07:09:28Z</time>
      </trkpt>
      <trkpt lat="43.28477" lon="2.03647">
        <ele>134.5</ele>
        <time>2026-05-27T07:09:33Z</time>
      </trkpt>
      <trkpt lat="43.28475" lon="2.03654">
        <ele>134.5</ele>
        <time>2026-05-27T07:09:38Z</time>
      </trkpt>
      <trkpt lat="43.28472" lon="2.03662">
        <ele>134.4</ele>
        <time>2026-05-27T07:09:43Z</time>
      </trkpt>
      <trkpt lat="43.28471" lon="2.0367">
        <ele>134.4</ele>
        <time>2026-05-27T07:09:48Z</time>
      </trkpt>
      <trkpt lat="43.28468" lon="2.03678">
        <ele>134.5</ele>
        <time>2026-05-27T07:09:53Z</time>
      </trkpt>
      <trkpt lat="43.28466" lon="2.03688">
        <ele>134.7</ele>
        <time>2026-05-27T07:09:58Z</time>
      </trkpt>
      <trkpt lat="43.28463" lon="2.03695">
        <ele>134.8</ele>
        <time>2026-05-27T07:10:03Z</time>
      </trkpt>
      <trkpt lat="43.28461" lon="2.03704">
        <ele>134.9</ele>
        <time>2026-05-27T07:10:08Z</time>
      </trkpt>
      <trkpt lat="43.28458" lon="2.03712">
        <ele>135</ele>
        <time>2026-05-27T07:10:13Z</time>
      </trkpt>
      <trkpt lat="43.28456" lon="2.03719">
        <ele>135.2</ele>
        <time>2026-05-27T07:10:18Z</time>
      </trkpt>
      <trkpt lat="43.28453" lon="2.03725">
        <ele>135.3</ele>
        <time>2026-05-27T07:10:23Z</time>
      </trkpt>
      <trkpt lat="43.28451" lon="2.03733">
        <ele>135.4</ele>
        <time>2026-05-27T07:10:28Z</time>
      </trkpt>
      <trkpt lat="43.28448" lon="2.03742">
        <ele>135.5</ele>
        <time>2026-05-27T07:10:33Z</time>
      </trkpt>
      <trkpt lat="43.28446" lon="2.03751">
        <ele>135.6</ele>
        <time>2026-05-27T07:10:38Z</time>
      </trkpt>
      <trkpt lat="43.28444" lon="2.03759">
        <ele>135.6</ele>
        <time>2026-05-27T07:10:43Z</time>
      </trkpt>
      <trkpt lat="43.28441" lon="2.03768">
        <ele>135.6</ele>
        <time>2026-05-27T07:10:48Z</time>
      </trkpt>
      <trkpt lat="43.28439" lon="2.03777">
        <ele>135.6</ele>
        <time>2026-05-27T07:10:53Z</time>
      </trkpt>
      <trkpt lat="43.28436" lon="2.03785">
        <ele>135.5</ele>
        <time>2026-05-27T07:10:58Z</time>
      </trkpt>
      <trkpt lat="43.28433" lon="2.03794">
        <ele>135.5</ele>
        <time>2026-05-27T07:11:03Z</time>
      </trkpt>
      <trkpt lat="43.28431" lon="2.03803">
        <ele>135.4</ele>
        <time>2026-05-27T07:11:08Z</time>
      </trkpt>
      <trkpt lat="43.28428" lon="2.0381">
        <ele>135.3</ele>
        <time>2026-05-27T07:11:13Z</time>
      </trkpt>
      <trkpt lat="43.28426" lon="2.03819">
        <ele>135.2</ele>
        <time>2026-05-27T07:11:18Z</time>
      </trkpt>
      <trkpt lat="43.28424" lon="2.03827">
        <ele>135.2</ele>
        <time>2026-05-27T07:11:23Z</time>
      </trkpt>
      <trkpt lat="43.28422" lon="2.03836">
        <ele>135.1</ele>
        <time>2026-05-27T07:11:28Z</time>
      </trkpt>
      <trkpt lat="43.28419" lon="2.03844">
        <ele>135.3</ele>
        <time>2026-05-27T07:11:33Z</time>
      </trkpt>
      <trkpt lat="43.28417" lon="2.03852">
        <ele>135.5</ele>
        <time>2026-05-27T07:11:38Z</time>
      </trkpt>
      <trkpt lat="43.28414" lon="2.03859">
        <ele>135.6</ele>
        <time>2026-05-27T07:11:43Z</time>
      </trkpt>
      <trkpt lat="43.28411" lon="2.03867">
        <ele>135.8</ele>
        <time>2026-05-27T07:11:48Z</time>
      </trkpt>
      <trkpt lat="43.28409" lon="2.03876">
        <ele>136</ele>
        <time>2026-05-27T07:11:53Z</time>
      </trkpt>
      <trkpt lat="43.28406" lon="2.03884">
        <ele>136.1</ele>
        <time>2026-05-27T07:11:58Z</time>
      </trkpt>
      <trkpt lat="43.28403" lon="2.03893">
        <ele>136.3</ele>
        <time>2026-05-27T07:12:03Z</time>
      </trkpt>
      <trkpt lat="43.284" lon="2.03902">
        <ele>136.5</ele>
        <time>2026-05-27T07:12:08Z</time>
      </trkpt>
      <trkpt lat="43.28398" lon="2.0391">
        <ele>136.6</ele>
        <time>2026-05-27T07:12:13Z</time>
      </trkpt>
      <trkpt lat="43.28395" lon="2.03917">
        <ele>136.7</ele>
        <time>2026-05-27T07:12:18Z</time>
      </trkpt>
      <trkpt lat="43.28392" lon="2.03927">
        <ele>136.8</ele>
        <time>2026-05-27T07:12:23Z</time>
      </trkpt>
      <trkpt lat="43.28389" lon="2.03934">
        <ele>136.8</ele>
        <time>2026-05-27T07:12:28Z</time>
      </trkpt>
      <trkpt lat="43.28387" lon="2.03941">
        <ele>136.8</ele>
        <time>2026-05-27T07:12:33Z</time>
      </trkpt>
      <trkpt lat="43.28384" lon="2.0395">
        <ele>136.9</ele>
        <time>2026-05-27T07:12:38Z</time>
      </trkpt>
      <trkpt lat="43.28381" lon="2.03958">
        <ele>136.9</ele>
        <time>2026-05-27T07:12:43Z</time>
      </trkpt>
      <trkpt lat="43.28378" lon="2.03967">
        <ele>136.9</ele>
        <time>2026-05-27T07:12:48Z</time>
      </trkpt>
      <trkpt lat="43.28375" lon="2.03975">
        <ele>136.8</ele>
        <time>2026-05-27T07:12:53Z</time>
      </trkpt>
      <trkpt lat="43.28372" lon="2.03983">
        <ele>136.8</ele>
        <time>2026-05-27T07:12:58Z</time>
      </trkpt>
      <trkpt lat="43.2837" lon="2.03992">
        <ele>136.8</ele>
        <time>2026-05-27T07:13:03Z</time>
      </trkpt>
      <trkpt lat="43.28367" lon="2.03992">
        <ele>136.8</ele>
        <time>2026-05-27T07:13:08Z</time>
      </trkpt>
      <trkpt lat="43.28364" lon="2.03997">
        <ele>136.7</ele>
        <time>2026-05-27T07:13:13Z</time>
      </trkpt>
      <trkpt lat="43.28362" lon="2.04006">
        <ele>136.6</ele>
        <time>2026-05-27T07:13:18Z</time>
      </trkpt>
      <trkpt lat="43.2836" lon="2.04013">
        <ele>136.5</ele>
        <time>2026-05-27T07:13:23Z</time>
      </trkpt>
      <trkpt lat="43.28358" lon="2.04016">
        <ele>136.4</ele>
        <time>2026-05-27T07:13:28Z</time>
      </trkpt>
      <trkpt lat="43.28358" lon="2.04019">
        <ele>136.4</ele>
        <time>2026-05-27T07:13:33Z</time>
      </trkpt>
      <trkpt lat="43.28356" lon="2.04029">
        <ele>136.2</ele>
        <time>2026-05-27T07:13:38Z</time>
      </trkpt>
      <trkpt lat="43.28355" lon="2.04038">
        <ele>136.1</ele>
        <time>2026-05-27T07:13:43Z</time>
      </trkpt>
      <trkpt lat="43.28352" lon="2.04044">
        <ele>135.9</ele>
        <time>2026-05-27T07:13:48Z</time>
      </trkpt>
      <trkpt lat="43.2835" lon="2.04053">
        <ele>135.8</ele>
        <time>2026-05-27T07:13:53Z</time>
      </trkpt>
      <trkpt lat="43.28347" lon="2.04062">
        <ele>135.6</ele>
        <time>2026-05-27T07:13:58Z</time>
      </trkpt>
      <trkpt lat="43.28344" lon="2.04069">
        <ele>135.4</ele>
        <time>2026-05-27T07:14:03Z</time>
      </trkpt>
      <trkpt lat="43.28341" lon="2.04077">
        <ele>135.3</ele>
        <time>2026-05-27T07:14:08Z</time>
      </trkpt>
      <trkpt lat="43.28338" lon="2.04085">
        <ele>135.1</ele>
        <time>2026-05-27T07:14:13Z</time>
      </trkpt>
      <trkpt lat="43.28335" lon="2.04092">
        <ele>135</ele>
        <time>2026-05-27T07:14:18Z</time>
      </trkpt>
      <trkpt lat="43.28332" lon="2.04101">
        <ele>135</ele>
        <time>2026-05-27T07:14:23Z</time>
      </trkpt>
      <trkpt lat="43.28329" lon="2.0411">
        <ele>134.9</ele>
        <time>2026-05-27T07:14:28Z</time>
      </trkpt>
      <trkpt lat="43.28327" lon="2.04117">
        <ele>134.9</ele>
        <time>2026-05-27T07:14:33Z</time>
      </trkpt>
      <trkpt lat="43.28324" lon="2.04126">
        <ele>134.8</ele>
        <time>2026-05-27T07:14:38Z</time>
      </trkpt>
      <trkpt lat="43.28321" lon="2.04134">
        <ele>134.8</ele>
        <time>2026-05-27T07:14:43Z</time>
      </trkpt>
      <trkpt lat="43.2832" lon="2.0414">
        <ele>134.7</ele>
        <time>2026-05-27T07:14:48Z</time>
      </trkpt>
      <trkpt lat="43.28316" lon="2.04151">
        <ele>134.6</ele>
        <time>2026-05-27T07:14:53Z</time>
      </trkpt>
      <trkpt lat="43.28314" lon="2.04157">
        <ele>134.6</ele>
        <time>2026-05-27T07:14:58Z</time>
      </trkpt>
      <trkpt lat="43.28313" lon="2.04162">
        <ele>134.5</ele>
        <time>2026-05-27T07:15:03Z</time>
      </trkpt>
      <trkpt lat="43.2831" lon="2.04169">
        <ele>134.5</ele>
        <time>2026-05-27T07:15:08Z</time>
      </trkpt>
      <trkpt lat="43.28306" lon="2.04178">
        <ele>134.5</ele>
        <time>2026-05-27T07:15:13Z</time>
      </trkpt>
      <trkpt lat="43.28304" lon="2.04184">
        <ele>134.5</ele>
        <time>2026-05-27T07:15:18Z</time>
      </trkpt>
      <trkpt lat="43.28301" lon="2.04193">
        <ele>134.5</ele>
        <time>2026-05-27T07:15:23Z</time>
      </trkpt>
      <trkpt lat="43.28298" lon="2.04202">
        <ele>134.6</ele>
        <time>2026-05-27T07:15:28Z</time>
      </trkpt>
      <trkpt lat="43.28296" lon="2.0421">
        <ele>134.6</ele>
        <time>2026-05-27T07:15:33Z</time>
      </trkpt>
      <trkpt lat="43.28292" lon="2.04218">
        <ele>134.6</ele>
        <time>2026-05-27T07:15:38Z</time>
      </trkpt>
      <trkpt lat="43.2829" lon="2.04226">
        <ele>134.7</ele>
        <time>2026-05-27T07:15:43Z</time>
      </trkpt>
      <trkpt lat="43.28288" lon="2.04234">
        <ele>134.7</ele>
        <time>2026-05-27T07:15:48Z</time>
      </trkpt>
      <trkpt lat="43.28285" lon="2.04242">
        <ele>134.7</ele>
        <time>2026-05-27T07:15:53Z</time>
      </trkpt>
      <trkpt lat="43.28282" lon="2.04251">
        <ele>134.8</ele>
        <time>2026-05-27T07:15:58Z</time>
      </trkpt>
      <trkpt lat="43.28281" lon="2.04256">
        <ele>134.7</ele>
        <time>2026-05-27T07:16:03Z</time>
      </trkpt>
      <trkpt lat="43.28278" lon="2.04263">
        <ele>134.6</ele>
        <time>2026-05-27T07:16:08Z</time>
      </trkpt>
      <trkpt lat="43.28276" lon="2.0427">
        <ele>134.5</ele>
        <time>2026-05-27T07:16:13Z</time>
      </trkpt>
      <trkpt lat="43.28275" lon="2.04272">
        <ele>134.4</ele>
        <time>2026-05-27T07:16:18Z</time>
      </trkpt>
      <trkpt lat="43.28275" lon="2.04272">
        <ele>134.4</ele>
        <time>2026-05-27T07:16:23Z</time>
      </trkpt>
      <trkpt lat="43.28275" lon="2.04272">
        <ele>134.4</ele>
        <time>2026-05-27T07:16:28Z</time>
      </trkpt>
      <trkpt lat="43.28275" lon="2.04272">
        <ele>134.4</ele>
        <time>2026-05-27T07:16:33Z</time>
      </trkpt>
      <trkpt lat="43.28275" lon="2.04272">
        <ele>134.4</ele>
        <time>2026-05-27T07:16:38Z</time>
      </trkpt>
      <trkpt lat="43.28273" lon="2.04277">
        <ele>134.4</ele>
        <time>2026-05-27T07:16:43Z</time>
      </trkpt>
      <trkpt lat="43.28272" lon="2.04283">
        <ele>134.3</ele>
        <time>2026-05-27T07:16:48Z</time>
      </trkpt>
      <trkpt lat="43.28271" lon="2.04288">
        <ele>134.3</ele>
        <time>2026-05-27T07:16:53Z</time>
      </trkpt>
      <trkpt lat="43.28268" lon="2.04294">
        <ele>134.2</ele>
        <time>2026-05-27T07:16:58Z</time>
      </trkpt>
      <trkpt lat="43.28265" lon="2.04302">
        <ele>134.1</ele>
        <time>2026-05-27T07:17:03Z</time>
      </trkpt>
      <trkpt lat="43.28263" lon="2.04309">
        <ele>134.1</ele>
        <time>2026-05-27T07:17:08Z</time>
      </trkpt>
      <trkpt lat="43.28261" lon="2.04315">
        <ele>134.1</ele>
        <time>2026-05-27T07:17:13Z</time>
      </trkpt>
      <trkpt lat="43.28259" lon="2.04322">
        <ele>134</ele>
        <time>2026-05-27T07:17:18Z</time>
      </trkpt>
      <trkpt lat="43.28256" lon="2.0433">
        <ele>134</ele>
        <time>2026-05-27T07:17:23Z</time>
      </trkpt>
      <trkpt lat="43.28253" lon="2.04336">
        <ele>134</ele>
        <time>2026-05-27T07:17:28Z</time>
      </trkpt>
      <trkpt lat="43.2825" lon="2.04346">
        <ele>134</ele>
        <time>2026-05-27T07:17:33Z</time>
      </trkpt>
      <trkpt lat="43.28247" lon="2.04355">
        <ele>134</ele>
        <time>2026-05-27T07:17:38Z</time>
      </trkpt>
      <trkpt lat="43.28244" lon="2.04363">
        <ele>134</ele>
        <time>2026-05-27T07:17:43Z</time>
      </trkpt>
      <trkpt lat="43.28241" lon="2.0437">
        <ele>134</ele>
        <time>2026-05-27T07:17:48Z</time>
      </trkpt>
      <trkpt lat="43.28239" lon="2.04378">
        <ele>134</ele>
        <time>2026-05-27T07:17:53Z</time>
      </trkpt>
      <trkpt lat="43.28237" lon="2.04385">
        <ele>134</ele>
        <time>2026-05-27T07:17:58Z</time>
      </trkpt>
      <trkpt lat="43.28234" lon="2.04394">
        <ele>134</ele>
        <time>2026-05-27T07:18:03Z</time>
      </trkpt>
      <trkpt lat="43.28232" lon="2.04402">
        <ele>134</ele>
        <time>2026-05-27T07:18:08Z</time>
      </trkpt>
      <trkpt lat="43.28228" lon="2.0441">
        <ele>134</ele>
        <time>2026-05-27T07:18:13Z</time>
      </trkpt>
      <trkpt lat="43.28225" lon="2.04419">
        <ele>134</ele>
        <time>2026-05-27T07:18:18Z</time>
      </trkpt>
      <trkpt lat="43.28222" lon="2.04427">
        <ele>134.1</ele>
        <time>2026-05-27T07:18:23Z</time>
      </trkpt>
      <trkpt lat="43.28219" lon="2.04435">
        <ele>134.1</ele>
        <time>2026-05-27T07:18:28Z</time>
      </trkpt>
      <trkpt lat="43.28216" lon="2.04444">
        <ele>134.2</ele>
        <time>2026-05-27T07:18:33Z</time>
      </trkpt>
      <trkpt lat="43.28213" lon="2.04453">
        <ele>134.2</ele>
        <time>2026-05-27T07:18:38Z</time>
      </trkpt>
      <trkpt lat="43.28211" lon="2.04459">
        <ele>134.3</ele>
        <time>2026-05-27T07:18:43Z</time>
      </trkpt>
      <trkpt lat="43.28209" lon="2.04467">
        <ele>134.3</ele>
        <time>2026-05-27T07:18:48Z</time>
      </trkpt>
      <trkpt lat="43.28206" lon="2.04474">
        <ele>134.3</ele>
        <time>2026-05-27T07:18:53Z</time>
      </trkpt>
      <trkpt lat="43.28203" lon="2.04482">
        <ele>134.3</ele>
        <time>2026-05-27T07:18:58Z</time>
      </trkpt>
      <trkpt lat="43.28201" lon="2.0449">
        <ele>134.4</ele>
        <time>2026-05-27T07:19:03Z</time>
      </trkpt>
      <trkpt lat="43.28199" lon="2.04498">
        <ele>134.4</ele>
        <time>2026-05-27T07:19:08Z</time>
      </trkpt>
      <trkpt lat="43.28195" lon="2.04507">
        <ele>134.3</ele>
        <time>2026-05-27T07:19:13Z</time>
      </trkpt>
      <trkpt lat="43.28192" lon="2.04515">
        <ele>134.2</ele>
        <time>2026-05-27T07:19:18Z</time>
      </trkpt>
      <trkpt lat="43.2819" lon="2.04523">
        <ele>134.2</ele>
        <time>2026-05-27T07:19:23Z</time>
      </trkpt>
      <trkpt lat="43.28188" lon="2.04531">
        <ele>134.2</ele>
        <time>2026-05-27T07:19:28Z</time>
      </trkpt>
      <trkpt lat="43.28185" lon="2.04537">
        <ele>134.1</ele>
        <time>2026-05-27T07:19:33Z</time>
      </trkpt>
      <trkpt lat="43.28182" lon="2.04547">
        <ele>134.1</ele>
        <time>2026-05-27T07:19:38Z</time>
      </trkpt>
      <trkpt lat="43.28179" lon="2.04555">
        <ele>134.1</ele>
        <time>2026-05-27T07:19:43Z</time>
      </trkpt>
      <trkpt lat="43.28176" lon="2.04563">
        <ele>134</ele>
        <time>2026-05-27T07:19:48Z</time>
      </trkpt>
      <trkpt lat="43.28173" lon="2.04572">
        <ele>134</ele>
        <time>2026-05-27T07:19:53Z</time>
      </trkpt>
      <trkpt lat="43.2817" lon="2.04581">
        <ele>134</ele>
        <time>2026-05-27T07:19:58Z</time>
      </trkpt>
      <trkpt lat="43.28167" lon="2.0459">
        <ele>133.9</ele>
        <time>2026-05-27T07:20:03Z</time>
      </trkpt>
      <trkpt lat="43.28165" lon="2.04598">
        <ele>133.8</ele>
        <time>2026-05-27T07:20:08Z</time>
      </trkpt>
      <trkpt lat="43.28162" lon="2.04605">
        <ele>133.7</ele>
        <time>2026-05-27T07:20:13Z</time>
      </trkpt>
      <trkpt lat="43.28159" lon="2.04613">
        <ele>133.6</ele>
        <time>2026-05-27T07:20:18Z</time>
      </trkpt>
      <trkpt lat="43.28157" lon="2.04621">
        <ele>133.5</ele>
        <time>2026-05-27T07:20:23Z</time>
      </trkpt>
      <trkpt lat="43.28155" lon="2.04628">
        <ele>133.4</ele>
        <time>2026-05-27T07:20:28Z</time>
      </trkpt>
      <trkpt lat="43.28152" lon="2.04635">
        <ele>133.3</ele>
        <time>2026-05-27T07:20:33Z</time>
      </trkpt>
      <trkpt lat="43.28148" lon="2.04644">
        <ele>133.2</ele>
        <time>2026-05-27T07:20:38Z</time>
      </trkpt>
      <trkpt lat="43.28147" lon="2.04652">
        <ele>133.1</ele>
        <time>2026-05-27T07:20:43Z</time>
      </trkpt>
      <trkpt lat="43.28143" lon="2.04661">
        <ele>133</ele>
        <time>2026-05-27T07:20:48Z</time>
      </trkpt>
      <trkpt lat="43.28141" lon="2.04668">
        <ele>133.1</ele>
        <time>2026-05-27T07:20:53Z</time>
      </trkpt>
      <trkpt lat="43.28138" lon="2.04677">
        <ele>133.4</ele>
        <time>2026-05-27T07:20:58Z</time>
      </trkpt>
      <trkpt lat="43.28134" lon="2.04685">
        <ele>133.7</ele>
        <time>2026-05-27T07:21:03Z</time>
      </trkpt>
      <trkpt lat="43.28131" lon="2.04693">
        <ele>134</ele>
        <time>2026-05-27T07:21:08Z</time>
      </trkpt>
      <trkpt lat="43.2813" lon="2.047">
        <ele>134.2</ele>
        <time>2026-05-27T07:21:13Z</time>
      </trkpt>
      <trkpt lat="43.28127" lon="2.04707">
        <ele>134.5</ele>
        <time>2026-05-27T07:21:18Z</time>
      </trkpt>
      <trkpt lat="43.28125" lon="2.04716">
        <ele>134.8</ele>
        <time>2026-05-27T07:21:23Z</time>
      </trkpt>
      <trkpt lat="43.28123" lon="2.04723">
        <ele>135</ele>
        <time>2026-05-27T07:21:28Z</time>
      </trkpt>
      <trkpt lat="43.28121" lon="2.04731">
        <ele>135.2</ele>
        <time>2026-05-27T07:21:33Z</time>
      </trkpt>
      <trkpt lat="43.28118" lon="2.04738">
        <ele>135.4</ele>
        <time>2026-05-27T07:21:38Z</time>
      </trkpt>
      <trkpt lat="43.28116" lon="2.04746">
        <ele>135.7</ele>
        <time>2026-05-27T07:21:43Z</time>
      </trkpt>
      <trkpt lat="43.28113" lon="2.04755">
        <ele>135.7</ele>
        <time>2026-05-27T07:21:48Z</time>
      </trkpt>
      <trkpt lat="43.28111" lon="2.04762">
        <ele>135.7</ele>
        <time>2026-05-27T07:21:53Z</time>
      </trkpt>
      <trkpt lat="43.28109" lon="2.0477">
        <ele>135.6</ele>
        <time>2026-05-27T07:21:58Z</time>
      </trkpt>
      <trkpt lat="43.28106" lon="2.04777">
        <ele>135.5</ele>
        <time>2026-05-27T07:22:03Z</time>
      </trkpt>
      <trkpt lat="43.28103" lon="2.04784">
        <ele>135.5</ele>
        <time>2026-05-27T07:22:08Z</time>
      </trkpt>
      <trkpt lat="43.281" lon="2.04794">
        <ele>135.4</ele>
        <time>2026-05-27T07:22:13Z</time>
      </trkpt>
      <trkpt lat="43.28097" lon="2.04803">
        <ele>135.3</ele>
        <time>2026-05-27T07:22:18Z</time>
      </trkpt>
      <trkpt lat="43.28096" lon="2.04811">
        <ele>135.3</ele>
        <time>2026-05-27T07:22:23Z</time>
      </trkpt>
      <trkpt lat="43.28094" lon="2.04819">
        <ele>135.3</ele>
        <time>2026-05-27T07:22:28Z</time>
      </trkpt>
      <trkpt lat="43.2809" lon="2.04827">
        <ele>135.2</ele>
        <time>2026-05-27T07:22:33Z</time>
      </trkpt>
      <trkpt lat="43.28087" lon="2.04834">
        <ele>135.1</ele>
        <time>2026-05-27T07:22:38Z</time>
      </trkpt>
      <trkpt lat="43.28084" lon="2.04841">
        <ele>135</ele>
        <time>2026-05-27T07:22:43Z</time>
      </trkpt>
      <trkpt lat="43.28082" lon="2.04843">
        <ele>135</ele>
        <time>2026-05-27T07:22:48Z</time>
      </trkpt>
      <trkpt lat="43.2808" lon="2.04851">
        <ele>134.9</ele>
        <time>2026-05-27T07:22:53Z</time>
      </trkpt>
      <trkpt lat="43.28077" lon="2.04859">
        <ele>134.8</ele>
        <time>2026-05-27T07:22:58Z</time>
      </trkpt>
      <trkpt lat="43.28075" lon="2.04866">
        <ele>134.8</ele>
        <time>2026-05-27T07:23:03Z</time>
      </trkpt>
      <trkpt lat="43.28072" lon="2.04874">
        <ele>134.7</ele>
        <time>2026-05-27T07:23:08Z</time>
      </trkpt>
      <trkpt lat="43.28069" lon="2.04879">
        <ele>134.7</ele>
        <time>2026-05-27T07:23:13Z</time>
      </trkpt>
      <trkpt lat="43.28069" lon="2.04879">
        <ele>134.7</ele>
        <time>2026-05-27T07:23:18Z</time>
      </trkpt>
      <trkpt lat="43.28069" lon="2.04879">
        <ele>134.7</ele>
        <time>2026-05-27T07:23:23Z</time>
      </trkpt>
      <trkpt lat="43.28069" lon="2.04879">
        <ele>134.7</ele>
        <time>2026-05-27T07:23:28Z</time>
      </trkpt>
      <trkpt lat="43.28066" lon="2.04886">
        <ele>134.6</ele>
        <time>2026-05-27T07:23:33Z</time>
      </trkpt>
      <trkpt lat="43.28064" lon="2.04894">
        <ele>134.5</ele>
        <time>2026-05-27T07:23:38Z</time>
      </trkpt>
      <trkpt lat="43.28059" lon="2.04901">
        <ele>134.4</ele>
        <time>2026-05-27T07:23:43Z</time>
      </trkpt>
      <trkpt lat="43.28057" lon="2.04912">
        <ele>134.4</ele>
        <time>2026-05-27T07:23:48Z</time>
      </trkpt>
      <trkpt lat="43.28056" lon="2.04921">
        <ele>134.3</ele>
        <time>2026-05-27T07:23:53Z</time>
      </trkpt>
      <trkpt lat="43.28055" lon="2.04929">
        <ele>134.2</ele>
        <time>2026-05-27T07:23:58Z</time>
      </trkpt>
      <trkpt lat="43.28053" lon="2.04934">
        <ele>134.1</ele>
        <time>2026-05-27T07:24:03Z</time>
      </trkpt>
      <trkpt lat="43.28052" lon="2.04941">
        <ele>134.1</ele>
        <time>2026-05-27T07:24:08Z</time>
      </trkpt>
      <trkpt lat="43.28052" lon="2.0495">
        <ele>134</ele>
        <time>2026-05-27T07:24:13Z</time>
      </trkpt>
      <trkpt lat="43.2805" lon="2.04955">
        <ele>133.9</ele>
        <time>2026-05-27T07:24:18Z</time>
      </trkpt>
      <trkpt lat="43.28045" lon="2.04955">
        <ele>133.8</ele>
        <time>2026-05-27T07:24:23Z</time>
      </trkpt>
      <trkpt lat="43.2804" lon="2.04961">
        <ele>133.7</ele>
        <time>2026-05-27T07:24:28Z</time>
      </trkpt>
      <trkpt lat="43.28036" lon="2.04967">
        <ele>133.6</ele>
        <time>2026-05-27T07:24:33Z</time>
      </trkpt>
      <trkpt lat="43.28032" lon="2.04975">
        <ele>133.5</ele>
        <time>2026-05-27T07:24:38Z</time>
      </trkpt>
      <trkpt lat="43.28029" lon="2.04981">
        <ele>133.4</ele>
        <time>2026-05-27T07:24:43Z</time>
      </trkpt>
      <trkpt lat="43.28027" lon="2.04989">
        <ele>133.4</ele>
        <time>2026-05-27T07:24:48Z</time>
      </trkpt>
      <trkpt lat="43.28024" lon="2.04997">
        <ele>133.3</ele>
        <time>2026-05-27T07:24:53Z</time>
      </trkpt>
      <trkpt lat="43.28023" lon="2.05004">
        <ele>133.3</ele>
        <time>2026-05-27T07:24:58Z</time>
      </trkpt>
      <trkpt lat="43.2802" lon="2.05011">
        <ele>133.3</ele>
        <time>2026-05-27T07:25:03Z</time>
      </trkpt>
      <trkpt lat="43.28017" lon="2.05012">
        <ele>133.3</ele>
        <time>2026-05-27T07:25:08Z</time>
      </trkpt>
      <trkpt lat="43.28017" lon="2.05014">
        <ele>133.3</ele>
        <time>2026-05-27T07:25:13Z</time>
      </trkpt>
      <trkpt lat="43.28017" lon="2.05014">
        <ele>133.3</ele>
        <time>2026-05-27T07:25:18Z</time>
      </trkpt>
      <trkpt lat="43.28022" lon="2.05017">
        <ele>133.4</ele>
        <time>2026-05-27T07:25:23Z</time>
      </trkpt>
      <trkpt lat="43.28023" lon="2.05022">
        <ele>133.5</ele>
        <time>2026-05-27T07:25:28Z</time>
      </trkpt>
      <trkpt lat="43.28022" lon="2.05027">
        <ele>133.5</ele>
        <time>2026-05-27T07:25:33Z</time>
      </trkpt>
      <trkpt lat="43.28022" lon="2.05028">
        <ele>133.5</ele>
        <time>2026-05-27T07:25:38Z</time>
      </trkpt>
      <trkpt lat="43.28022" lon="2.05028">
        <ele>133.5</ele>
        <time>2026-05-27T07:25:43Z</time>
      </trkpt>
      <trkpt lat="43.28022" lon="2.05028">
        <ele>133.5</ele>
        <time>2026-05-27T07:25:48Z</time>
      </trkpt>
      <trkpt lat="43.28022" lon="2.05028">
        <ele>133.5</ele>
        <time>2026-05-27T07:25:53Z</time>
      </trkpt>
      <trkpt lat="43.28019" lon="2.05035">
        <ele>133.6</ele>
        <time>2026-05-27T07:25:58Z</time>
      </trkpt>
      <trkpt lat="43.28017" lon="2.0504">
        <ele>133.6</ele>
        <time>2026-05-27T07:26:03Z</time>
      </trkpt>
      <trkpt lat="43.28014" lon="2.05046">
        <ele>133.6</ele>
        <time>2026-05-27T07:26:08Z</time>
      </trkpt>
      <trkpt lat="43.28011" lon="2.05054">
        <ele>133.7</ele>
        <time>2026-05-27T07:26:13Z</time>
      </trkpt>
      <trkpt lat="43.28007" lon="2.0506">
        <ele>133.7</ele>
        <time>2026-05-27T07:26:18Z</time>
      </trkpt>
      <trkpt lat="43.28001" lon="2.05066">
        <ele>133.8</ele>
        <time>2026-05-27T07:26:23Z</time>
      </trkpt>
      <trkpt lat="43.27998" lon="2.05063">
        <ele>133.7</ele>
        <time>2026-05-27T07:26:28Z</time>
      </trkpt>
      <trkpt lat="43.27995" lon="2.0507">
        <ele>133.8</ele>
        <time>2026-05-27T07:26:33Z</time>
      </trkpt>
      <trkpt lat="43.27993" lon="2.05082">
        <ele>133.9</ele>
        <time>2026-05-27T07:26:38Z</time>
      </trkpt>
      <trkpt lat="43.27991" lon="2.05091">
        <ele>133.9</ele>
        <time>2026-05-27T07:26:43Z</time>
      </trkpt>
      <trkpt lat="43.27987" lon="2.05098">
        <ele>133.8</ele>
        <time>2026-05-27T07:26:48Z</time>
      </trkpt>
      <trkpt lat="43.27985" lon="2.05108">
        <ele>133.8</ele>
        <time>2026-05-27T07:26:53Z</time>
      </trkpt>
      <trkpt lat="43.27984" lon="2.05118">
        <ele>133.7</ele>
        <time>2026-05-27T07:26:58Z</time>
      </trkpt>
      <trkpt lat="43.27982" lon="2.05126">
        <ele>133.7</ele>
        <time>2026-05-27T07:27:03Z</time>
      </trkpt>
      <trkpt lat="43.2798" lon="2.05134">
        <ele>133.6</ele>
        <time>2026-05-27T07:27:08Z</time>
      </trkpt>
      <trkpt lat="43.27976" lon="2.05142">
        <ele>133.5</ele>
        <time>2026-05-27T07:27:13Z</time>
      </trkpt>
      <trkpt lat="43.27974" lon="2.05148">
        <ele>133.4</ele>
        <time>2026-05-27T07:27:18Z</time>
      </trkpt>
      <trkpt lat="43.27971" lon="2.05154">
        <ele>133.4</ele>
        <time>2026-05-27T07:27:23Z</time>
      </trkpt>
      <trkpt lat="43.2797" lon="2.05162">
        <ele>133.3</ele>
        <time>2026-05-27T07:27:28Z</time>
      </trkpt>
      <trkpt lat="43.27967" lon="2.05168">
        <ele>133.2</ele>
        <time>2026-05-27T07:27:33Z</time>
      </trkpt>
      <trkpt lat="43.27964" lon="2.05177">
        <ele>133.1</ele>
        <time>2026-05-27T07:27:38Z</time>
      </trkpt>
      <trkpt lat="43.27961" lon="2.05187">
        <ele>133.1</ele>
        <time>2026-05-27T07:27:43Z</time>
      </trkpt>
      <trkpt lat="43.27959" lon="2.05197">
        <ele>133</ele>
        <time>2026-05-27T07:27:48Z</time>
      </trkpt>
      <trkpt lat="43.27956" lon="2.05206">
        <ele>132.9</ele>
        <time>2026-05-27T07:27:53Z</time>
      </trkpt>
      <trkpt lat="43.27954" lon="2.05214">
        <ele>132.9</ele>
        <time>2026-05-27T07:27:58Z</time>
      </trkpt>
      <trkpt lat="43.27952" lon="2.05221">
        <ele>132.8</ele>
        <time>2026-05-27T07:28:03Z</time>
      </trkpt>
      <trkpt lat="43.27948" lon="2.05233">
        <ele>132.8</ele>
        <time>2026-05-27T07:28:08Z</time>
      </trkpt>
      <trkpt lat="43.27945" lon="2.05242">
        <ele>132.7</ele>
        <time>2026-05-27T07:28:13Z</time>
      </trkpt>
      <trkpt lat="43.27944" lon="2.0525">
        <ele>132.7</ele>
        <time>2026-05-27T07:28:18Z</time>
      </trkpt>
      <trkpt lat="43.27941" lon="2.05257">
        <ele>132.6</ele>
        <time>2026-05-27T07:28:23Z</time>
      </trkpt>
      <trkpt lat="43.27937" lon="2.05266">
        <ele>132.6</ele>
        <time>2026-05-27T07:28:28Z</time>
      </trkpt>
      <trkpt lat="43.27934" lon="2.05274">
        <ele>132.6</ele>
        <time>2026-05-27T07:28:33Z</time>
      </trkpt>
      <trkpt lat="43.27932" lon="2.05282">
        <ele>132.6</ele>
        <time>2026-05-27T07:28:38Z</time>
      </trkpt>
      <trkpt lat="43.27928" lon="2.05291">
        <ele>132.6</ele>
        <time>2026-05-27T07:28:43Z</time>
      </trkpt>
      <trkpt lat="43.27926" lon="2.05299">
        <ele>132.7</ele>
        <time>2026-05-27T07:28:48Z</time>
      </trkpt>
      <trkpt lat="43.27924" lon="2.05308">
        <ele>132.7</ele>
        <time>2026-05-27T07:28:53Z</time>
      </trkpt>
      <trkpt lat="43.27921" lon="2.05316">
        <ele>132.8</ele>
        <time>2026-05-27T07:28:58Z</time>
      </trkpt>
      <trkpt lat="43.27919" lon="2.05322">
        <ele>132.9</ele>
        <time>2026-05-27T07:29:03Z</time>
      </trkpt>
      <trkpt lat="43.27917" lon="2.05331">
        <ele>133</ele>
        <time>2026-05-27T07:29:08Z</time>
      </trkpt>
      <trkpt lat="43.27914" lon="2.05339">
        <ele>133</ele>
        <time>2026-05-27T07:29:13Z</time>
      </trkpt>
      <trkpt lat="43.27911" lon="2.05345">
        <ele>133</ele>
        <time>2026-05-27T07:29:18Z</time>
      </trkpt>
      <trkpt lat="43.27908" lon="2.05352">
        <ele>133</ele>
        <time>2026-05-27T07:29:23Z</time>
      </trkpt>
      <trkpt lat="43.27905" lon="2.05362">
        <ele>133</ele>
        <time>2026-05-27T07:29:28Z</time>
      </trkpt>
      <trkpt lat="43.27904" lon="2.0537">
        <ele>133</ele>
        <time>2026-05-27T07:29:33Z</time>
      </trkpt>
      <trkpt lat="43.27901" lon="2.05379">
        <ele>133</ele>
        <time>2026-05-27T07:29:38Z</time>
      </trkpt>
      <trkpt lat="43.27898" lon="2.05386">
        <ele>133</ele>
        <time>2026-05-27T07:29:43Z</time>
      </trkpt>
      <trkpt lat="43.27896" lon="2.05394">
        <ele>133</ele>
        <time>2026-05-27T07:29:48Z</time>
      </trkpt>
      <trkpt lat="43.27893" lon="2.05403">
        <ele>133</ele>
        <time>2026-05-27T07:29:53Z</time>
      </trkpt>
      <trkpt lat="43.2789" lon="2.05413">
        <ele>133</ele>
        <time>2026-05-27T07:29:58Z</time>
      </trkpt>
      <trkpt lat="43.27887" lon="2.05421">
        <ele>133</ele>
        <time>2026-05-27T07:30:03Z</time>
      </trkpt>
      <trkpt lat="43.27884" lon="2.0543">
        <ele>133</ele>
        <time>2026-05-27T07:30:08Z</time>
      </trkpt>
      <trkpt lat="43.27882" lon="2.05438">
        <ele>133</ele>
        <time>2026-05-27T07:30:13Z</time>
      </trkpt>
      <trkpt lat="43.27879" lon="2.05446">
        <ele>133</ele>
        <time>2026-05-27T07:30:18Z</time>
      </trkpt>
      <trkpt lat="43.27877" lon="2.05455">
        <ele>133</ele>
        <time>2026-05-27T07:30:23Z</time>
      </trkpt>
      <trkpt lat="43.27875" lon="2.05465">
        <ele>133</ele>
        <time>2026-05-27T07:30:28Z</time>
      </trkpt>
      <trkpt lat="43.27871" lon="2.05474">
        <ele>132.9</ele>
        <time>2026-05-27T07:30:33Z</time>
      </trkpt>
      <trkpt lat="43.27867" lon="2.05482">
        <ele>132.8</ele>
        <time>2026-05-27T07:30:38Z</time>
      </trkpt>
      <trkpt lat="43.27866" lon="2.0549">
        <ele>132.8</ele>
        <time>2026-05-27T07:30:43Z</time>
      </trkpt>
      <trkpt lat="43.27863" lon="2.055">
        <ele>132.7</ele>
        <time>2026-05-27T07:30:48Z</time>
      </trkpt>
      <trkpt lat="43.27861" lon="2.05509">
        <ele>132.7</ele>
        <time>2026-05-27T07:30:53Z</time>
      </trkpt>
      <trkpt lat="43.27859" lon="2.05516">
        <ele>132.7</ele>
        <time>2026-05-27T07:30:58Z</time>
      </trkpt>
      <trkpt lat="43.27857" lon="2.05524">
        <ele>132.8</ele>
        <time>2026-05-27T07:31:03Z</time>
      </trkpt>
      <trkpt lat="43.27854" lon="2.05531">
        <ele>132.8</ele>
        <time>2026-05-27T07:31:08Z</time>
      </trkpt>
      <trkpt lat="43.27851" lon="2.05539">
        <ele>132.8</ele>
        <time>2026-05-27T07:31:13Z</time>
      </trkpt>
      <trkpt lat="43.27849" lon="2.05547">
        <ele>132.8</ele>
        <time>2026-05-27T07:31:18Z</time>
      </trkpt>
      <trkpt lat="43.27847" lon="2.05556">
        <ele>132.9</ele>
        <time>2026-05-27T07:31:23Z</time>
      </trkpt>
      <trkpt lat="43.27843" lon="2.05564">
        <ele>132.9</ele>
        <time>2026-05-27T07:31:28Z</time>
      </trkpt>
      <trkpt lat="43.2784" lon="2.05571">
        <ele>132.9</ele>
        <time>2026-05-27T07:31:33Z</time>
      </trkpt>
      <trkpt lat="43.27838" lon="2.0558">
        <ele>133</ele>
        <time>2026-05-27T07:31:38Z</time>
      </trkpt>
      <trkpt lat="43.27835" lon="2.05588">
        <ele>133.1</ele>
        <time>2026-05-27T07:31:43Z</time>
      </trkpt>
      <trkpt lat="43.27834" lon="2.05596">
        <ele>133.2</ele>
        <time>2026-05-27T07:31:48Z</time>
      </trkpt>
      <trkpt lat="43.27831" lon="2.05605">
        <ele>133.3</ele>
        <time>2026-05-27T07:31:53Z</time>
      </trkpt>
      <trkpt lat="43.27829" lon="2.05614">
        <ele>133.4</ele>
        <time>2026-05-27T07:31:58Z</time>
      </trkpt>
      <trkpt lat="43.27827" lon="2.05622">
        <ele>133.4</ele>
        <time>2026-05-27T07:32:03Z</time>
      </trkpt>
      <trkpt lat="43.27825" lon="2.05629">
        <ele>133.5</ele>
        <time>2026-05-27T07:32:08Z</time>
      </trkpt>
      <trkpt lat="43.27822" lon="2.05638">
        <ele>133.5</ele>
        <time>2026-05-27T07:32:13Z</time>
      </trkpt>
      <trkpt lat="43.2782" lon="2.05645">
        <ele>133.5</ele>
        <time>2026-05-27T07:32:18Z</time>
      </trkpt>
      <trkpt lat="43.27818" lon="2.05653">
        <ele>133.6</ele>
        <time>2026-05-27T07:32:23Z</time>
      </trkpt>
      <trkpt lat="43.27816" lon="2.05662">
        <ele>133.6</ele>
        <time>2026-05-27T07:32:28Z</time>
      </trkpt>
      <trkpt lat="43.27814" lon="2.05668">
        <ele>133.5</ele>
        <time>2026-05-27T07:32:33Z</time>
      </trkpt>
      <trkpt lat="43.27811" lon="2.05678">
        <ele>133.5</ele>
        <time>2026-05-27T07:32:38Z</time>
      </trkpt>
      <trkpt lat="43.2781" lon="2.05687">
        <ele>133.4</ele>
        <time>2026-05-27T07:32:43Z</time>
      </trkpt>
      <trkpt lat="43.27807" lon="2.05696">
        <ele>133.4</ele>
        <time>2026-05-27T07:32:48Z</time>
      </trkpt>
      <trkpt lat="43.27804" lon="2.05707">
        <ele>133.3</ele>
        <time>2026-05-27T07:32:53Z</time>
      </trkpt>
      <trkpt lat="43.27802" lon="2.05715">
        <ele>133.2</ele>
        <time>2026-05-27T07:32:58Z</time>
      </trkpt>
      <trkpt lat="43.27799" lon="2.05723">
        <ele>133.2</ele>
        <time>2026-05-27T07:33:03Z</time>
      </trkpt>
      <trkpt lat="43.27799" lon="2.05731">
        <ele>133.2</ele>
        <time>2026-05-27T07:33:08Z</time>
      </trkpt>
      <trkpt lat="43.27799" lon="2.05738">
        <ele>133.2</ele>
        <time>2026-05-27T07:33:13Z</time>
      </trkpt>
      <trkpt lat="43.27798" lon="2.05745">
        <ele>133.2</ele>
        <time>2026-05-27T07:33:18Z</time>
      </trkpt>
      <trkpt lat="43.27795" lon="2.05753">
        <ele>133.1</ele>
        <time>2026-05-27T07:33:23Z</time>
      </trkpt>
      <trkpt lat="43.27792" lon="2.05763">
        <ele>133.2</ele>
        <time>2026-05-27T07:33:28Z</time>
      </trkpt>
      <trkpt lat="43.27792" lon="2.05771">
        <ele>133.3</ele>
        <time>2026-05-27T07:33:33Z</time>
      </trkpt>
      <trkpt lat="43.2779" lon="2.0578">
        <ele>133.3</ele>
        <time>2026-05-27T07:33:38Z</time>
      </trkpt>
      <trkpt lat="43.27788" lon="2.05789">
        <ele>133.4</ele>
        <time>2026-05-27T07:33:43Z</time>
      </trkpt>
      <trkpt lat="43.27785" lon="2.05798">
        <ele>133.4</ele>
        <time>2026-05-27T07:33:48Z</time>
      </trkpt>
      <trkpt lat="43.27784" lon="2.05807">
        <ele>133.5</ele>
        <time>2026-05-27T07:33:53Z</time>
      </trkpt>
      <trkpt lat="43.27782" lon="2.05816">
        <ele>133.6</ele>
        <time>2026-05-27T07:33:58Z</time>
      </trkpt>
      <trkpt lat="43.27781" lon="2.05824">
        <ele>133.6</ele>
        <time>2026-05-27T07:34:03Z</time>
      </trkpt>
      <trkpt lat="43.2778" lon="2.05834">
        <ele>133.7</ele>
        <time>2026-05-27T07:34:08Z</time>
      </trkpt>
      <trkpt lat="43.27778" lon="2.05843">
        <ele>133.7</ele>
        <time>2026-05-27T07:34:13Z</time>
      </trkpt>
      <trkpt lat="43.27777" lon="2.05851">
        <ele>133.6</ele>
        <time>2026-05-27T07:34:18Z</time>
      </trkpt>
      <trkpt lat="43.27775" lon="2.05859">
        <ele>133.6</ele>
        <time>2026-05-27T07:34:23Z</time>
      </trkpt>
      <trkpt lat="43.27774" lon="2.05867">
        <ele>133.6</ele>
        <time>2026-05-27T07:34:28Z</time>
      </trkpt>
      <trkpt lat="43.27773" lon="2.05876">
        <ele>133.6</ele>
        <time>2026-05-27T07:34:33Z</time>
      </trkpt>
      <trkpt lat="43.27771" lon="2.05885">
        <ele>133.5</ele>
        <time>2026-05-27T07:34:38Z</time>
      </trkpt>
      <trkpt lat="43.27769" lon="2.05893">
        <ele>133.5</ele>
        <time>2026-05-27T07:34:43Z</time>
      </trkpt>
      <trkpt lat="43.27768" lon="2.05902">
        <ele>133.4</ele>
        <time>2026-05-27T07:34:48Z</time>
      </trkpt>
      <trkpt lat="43.27768" lon="2.05911">
        <ele>133.4</ele>
        <time>2026-05-27T07:34:53Z</time>
      </trkpt>
      <trkpt lat="43.27766" lon="2.05921">
        <ele>133.4</ele>
        <time>2026-05-27T07:34:58Z</time>
      </trkpt>
      <trkpt lat="43.27765" lon="2.0593">
        <ele>133.3</ele>
        <time>2026-05-27T07:35:03Z</time>
      </trkpt>
      <trkpt lat="43.27763" lon="2.05938">
        <ele>133.2</ele>
        <time>2026-05-27T07:35:08Z</time>
      </trkpt>
      <trkpt lat="43.27762" lon="2.05948">
        <ele>133.2</ele>
        <time>2026-05-27T07:35:13Z</time>
      </trkpt>
      <trkpt lat="43.27762" lon="2.05955">
        <ele>133.2</ele>
        <time>2026-05-27T07:35:18Z</time>
      </trkpt>
      <trkpt lat="43.27761" lon="2.05965">
        <ele>133.1</ele>
        <time>2026-05-27T07:35:23Z</time>
      </trkpt>
      <trkpt lat="43.2776" lon="2.05973">
        <ele>133.1</ele>
        <time>2026-05-27T07:35:28Z</time>
      </trkpt>
      <trkpt lat="43.27759" lon="2.05981">
        <ele>133</ele>
        <time>2026-05-27T07:35:33Z</time>
      </trkpt>
      <trkpt lat="43.27758" lon="2.05991">
        <ele>133</ele>
        <time>2026-05-27T07:35:38Z</time>
      </trkpt>
      <trkpt lat="43.27757" lon="2.06">
        <ele>133</ele>
        <time>2026-05-27T07:35:43Z</time>
      </trkpt>
      <trkpt lat="43.27755" lon="2.0601">
        <ele>132.9</ele>
        <time>2026-05-27T07:35:48Z</time>
      </trkpt>
      <trkpt lat="43.27753" lon="2.0602">
        <ele>132.8</ele>
        <time>2026-05-27T07:35:53Z</time>
      </trkpt>
      <trkpt lat="43.27752" lon="2.06029">
        <ele>132.7</ele>
        <time>2026-05-27T07:35:58Z</time>
      </trkpt>
      <trkpt lat="43.27752" lon="2.06039">
        <ele>132.5</ele>
        <time>2026-05-27T07:36:03Z</time>
      </trkpt>
      <trkpt lat="43.27751" lon="2.06048">
        <ele>132.4</ele>
        <time>2026-05-27T07:36:08Z</time>
      </trkpt>
      <trkpt lat="43.27749" lon="2.06054">
        <ele>132.4</ele>
        <time>2026-05-27T07:36:13Z</time>
      </trkpt>
      <trkpt lat="43.27748" lon="2.06064">
        <ele>132.2</ele>
        <time>2026-05-27T07:36:18Z</time>
      </trkpt>
      <trkpt lat="43.27746" lon="2.06073">
        <ele>132.2</ele>
        <time>2026-05-27T07:36:23Z</time>
      </trkpt>
      <trkpt lat="43.27746" lon="2.06079">
        <ele>132.1</ele>
        <time>2026-05-27T07:36:28Z</time>
      </trkpt>
      <trkpt lat="43.27746" lon="2.06084">
        <ele>132.1</ele>
        <time>2026-05-27T07:36:33Z</time>
      </trkpt>
      <trkpt lat="43.27745" lon="2.06092">
        <ele>132.2</ele>
        <time>2026-05-27T07:36:38Z</time>
      </trkpt>
      <trkpt lat="43.27743" lon="2.061">
        <ele>132.3</ele>
        <time>2026-05-27T07:36:43Z</time>
      </trkpt>
      <trkpt lat="43.27741" lon="2.06109">
        <ele>132.3</ele>
        <time>2026-05-27T07:36:48Z</time>
      </trkpt>
      <trkpt lat="43.2774" lon="2.0612">
        <ele>132.5</ele>
        <time>2026-05-27T07:36:53Z</time>
      </trkpt>
      <trkpt lat="43.27739" lon="2.0613">
        <ele>132.5</ele>
        <time>2026-05-27T07:36:58Z</time>
      </trkpt>
      <trkpt lat="43.27738" lon="2.0614">
        <ele>132.6</ele>
        <time>2026-05-27T07:37:03Z</time>
      </trkpt>
      <trkpt lat="43.27736" lon="2.0615">
        <ele>132.7</ele>
        <time>2026-05-27T07:37:08Z</time>
      </trkpt>
      <trkpt lat="43.27735" lon="2.06159">
        <ele>132.8</ele>
        <time>2026-05-27T07:37:13Z</time>
      </trkpt>
      <trkpt lat="43.27735" lon="2.06167">
        <ele>132.8</ele>
        <time>2026-05-27T07:37:18Z</time>
      </trkpt>
      <trkpt lat="43.27733" lon="2.06175">
        <ele>132.9</ele>
        <time>2026-05-27T07:37:23Z</time>
      </trkpt>
      <trkpt lat="43.27731" lon="2.06182">
        <ele>132.9</ele>
        <time>2026-05-27T07:37:28Z</time>
      </trkpt>
      <trkpt lat="43.2773" lon="2.06192">
        <ele>133</ele>
        <time>2026-05-27T07:37:33Z</time>
      </trkpt>
      <trkpt lat="43.27729" lon="2.06203">
        <ele>133.1</ele>
        <time>2026-05-27T07:37:38Z</time>
      </trkpt>
      <trkpt lat="43.27729" lon="2.0621">
        <ele>133.1</ele>
        <time>2026-05-27T07:37:43Z</time>
      </trkpt>
      <trkpt lat="43.27728" lon="2.06218">
        <ele>133.2</ele>
        <time>2026-05-27T07:37:48Z</time>
      </trkpt>
      <trkpt lat="43.27726" lon="2.06227">
        <ele>133.2</ele>
        <time>2026-05-27T07:37:53Z</time>
      </trkpt>
      <trkpt lat="43.27725" lon="2.06235">
        <ele>133.3</ele>
        <time>2026-05-27T07:37:58Z</time>
      </trkpt>
      <trkpt lat="43.27723" lon="2.06244">
        <ele>133.3</ele>
        <time>2026-05-27T07:38:03Z</time>
      </trkpt>
      <trkpt lat="43.27722" lon="2.06254">
        <ele>133.4</ele>
        <time>2026-05-27T07:38:08Z</time>
      </trkpt>
      <trkpt lat="43.27721" lon="2.06263">
        <ele>133.4</ele>
        <time>2026-05-27T07:38:13Z</time>
      </trkpt>
      <trkpt lat="43.2772" lon="2.06273">
        <ele>133.5</ele>
        <time>2026-05-27T07:38:18Z</time>
      </trkpt>
      <trkpt lat="43.27717" lon="2.06282">
        <ele>133.4</ele>
        <time>2026-05-27T07:38:23Z</time>
      </trkpt>
      <trkpt lat="43.27717" lon="2.06291">
        <ele>133.5</ele>
        <time>2026-05-27T07:38:28Z</time>
      </trkpt>
      <trkpt lat="43.27717" lon="2.06298">
        <ele>133.6</ele>
        <time>2026-05-27T07:38:33Z</time>
      </trkpt>
      <trkpt lat="43.27716" lon="2.06305">
        <ele>133.6</ele>
        <time>2026-05-27T07:38:38Z</time>
      </trkpt>
      <trkpt lat="43.27715" lon="2.06314">
        <ele>133.6</ele>
        <time>2026-05-27T07:38:43Z</time>
      </trkpt>
      <trkpt lat="43.27713" lon="2.06322">
        <ele>133.6</ele>
        <time>2026-05-27T07:38:48Z</time>
      </trkpt>
      <trkpt lat="43.27711" lon="2.06331">
        <ele>133.6</ele>
        <time>2026-05-27T07:38:53Z</time>
      </trkpt>
      <trkpt lat="43.27711" lon="2.0634">
        <ele>133.6</ele>
        <time>2026-05-27T07:38:58Z</time>
      </trkpt>
      <trkpt lat="43.27711" lon="2.06349">
        <ele>133.5</ele>
        <time>2026-05-27T07:39:03Z</time>
      </trkpt>
      <trkpt lat="43.2771" lon="2.06357">
        <ele>133.4</ele>
        <time>2026-05-27T07:39:08Z</time>
      </trkpt>
      <trkpt lat="43.27708" lon="2.06368">
        <ele>133.3</ele>
        <time>2026-05-27T07:39:13Z</time>
      </trkpt>
      <trkpt lat="43.27707" lon="2.06377">
        <ele>133.2</ele>
        <time>2026-05-27T07:39:18Z</time>
      </trkpt>
      <trkpt lat="43.27706" lon="2.06386">
        <ele>133.1</ele>
        <time>2026-05-27T07:39:23Z</time>
      </trkpt>
      <trkpt lat="43.27704" lon="2.06396">
        <ele>133</ele>
        <time>2026-05-27T07:39:28Z</time>
      </trkpt>
      <trkpt lat="43.27703" lon="2.06403">
        <ele>132.9</ele>
        <time>2026-05-27T07:39:33Z</time>
      </trkpt>
      <trkpt lat="43.27702" lon="2.06411">
        <ele>132.9</ele>
        <time>2026-05-27T07:39:38Z</time>
      </trkpt>
      <trkpt lat="43.27701" lon="2.0642">
        <ele>132.8</ele>
        <time>2026-05-27T07:39:43Z</time>
      </trkpt>
      <trkpt lat="43.27701" lon="2.06429">
        <ele>132.9</ele>
        <time>2026-05-27T07:39:48Z</time>
      </trkpt>
      <trkpt lat="43.27699" lon="2.06437">
        <ele>132.8</ele>
        <time>2026-05-27T07:39:53Z</time>
      </trkpt>
      <trkpt lat="43.27697" lon="2.06446">
        <ele>132.8</ele>
        <time>2026-05-27T07:39:58Z</time>
      </trkpt>
      <trkpt lat="43.27697" lon="2.06454">
        <ele>132.8</ele>
        <time>2026-05-27T07:40:03Z</time>
      </trkpt>
      <trkpt lat="43.27696" lon="2.06461">
        <ele>132.9</ele>
        <time>2026-05-27T07:40:08Z</time>
      </trkpt>
      <trkpt lat="43.27695" lon="2.0647">
        <ele>132.9</ele>
        <time>2026-05-27T07:40:13Z</time>
      </trkpt>
      <trkpt lat="43.27694" lon="2.06478">
        <ele>132.9</ele>
        <time>2026-05-27T07:40:18Z</time>
      </trkpt>
      <trkpt lat="43.27693" lon="2.06487">
        <ele>132.9</ele>
        <time>2026-05-27T07:40:23Z</time>
      </trkpt>
      <trkpt lat="43.27692" lon="2.06496">
        <ele>133</ele>
        <time>2026-05-27T07:40:28Z</time>
      </trkpt>
      <trkpt lat="43.27691" lon="2.06505">
        <ele>133</ele>
        <time>2026-05-27T07:40:33Z</time>
      </trkpt>
      <trkpt lat="43.27689" lon="2.06514">
        <ele>133.1</ele>
        <time>2026-05-27T07:40:38Z</time>
      </trkpt>
      <trkpt lat="43.27687" lon="2.06524">
        <ele>133.2</ele>
        <time>2026-05-27T07:40:43Z</time>
      </trkpt>
      <trkpt lat="43.27686" lon="2.06533">
        <ele>133.3</ele>
        <time>2026-05-27T07:40:48Z</time>
      </trkpt>
      <trkpt lat="43.27685" lon="2.06542">
        <ele>133.4</ele>
        <time>2026-05-27T07:40:53Z</time>
      </trkpt>
      <trkpt lat="43.27685" lon="2.06552">
        <ele>133.5</ele>
        <time>2026-05-27T07:40:58Z</time>
      </trkpt>
      <trkpt lat="43.27683" lon="2.06561">
        <ele>133.6</ele>
        <time>2026-05-27T07:41:03Z</time>
      </trkpt>
      <trkpt lat="43.27682" lon="2.0657">
        <ele>133.7</ele>
        <time>2026-05-27T07:41:08Z</time>
      </trkpt>
      <trkpt lat="43.2768" lon="2.06581">
        <ele>133.8</ele>
        <time>2026-05-27T07:41:13Z</time>
      </trkpt>
      <trkpt lat="43.27679" lon="2.06589">
        <ele>133.9</ele>
        <time>2026-05-27T07:41:18Z</time>
      </trkpt>
      <trkpt lat="43.27678" lon="2.06598">
        <ele>133.9</ele>
        <time>2026-05-27T07:41:23Z</time>
      </trkpt>
      <trkpt lat="43.27676" lon="2.06609">
        <ele>133.9</ele>
        <time>2026-05-27T07:41:28Z</time>
      </trkpt>
      <trkpt lat="43.27675" lon="2.06617">
        <ele>133.9</ele>
        <time>2026-05-27T07:41:33Z</time>
      </trkpt>
      <trkpt lat="43.27673" lon="2.06627">
        <ele>134</ele>
        <time>2026-05-27T07:41:38Z</time>
      </trkpt>
      <trkpt lat="43.27672" lon="2.06636">
        <ele>134</ele>
        <time>2026-05-27T07:41:43Z</time>
      </trkpt>
      <trkpt lat="43.27671" lon="2.06646">
        <ele>134</ele>
        <time>2026-05-27T07:41:48Z</time>
      </trkpt>
      <trkpt lat="43.27671" lon="2.06653">
        <ele>134</ele>
        <time>2026-05-27T07:41:53Z</time>
      </trkpt>
      <trkpt lat="43.27669" lon="2.06663">
        <ele>134</ele>
        <time>2026-05-27T07:41:58Z</time>
      </trkpt>
      <trkpt lat="43.27668" lon="2.06672">
        <ele>134</ele>
        <time>2026-05-27T07:42:03Z</time>
      </trkpt>
      <trkpt lat="43.27666" lon="2.06681">
        <ele>134</ele>
        <time>2026-05-27T07:42:08Z</time>
      </trkpt>
      <trkpt lat="43.27665" lon="2.06691">
        <ele>134</ele>
        <time>2026-05-27T07:42:13Z</time>
      </trkpt>
      <trkpt lat="43.27664" lon="2.06701">
        <ele>134.1</ele>
        <time>2026-05-27T07:42:18Z</time>
      </trkpt>
      <trkpt lat="43.27662" lon="2.06711">
        <ele>134.1</ele>
        <time>2026-05-27T07:42:23Z</time>
      </trkpt>
      <trkpt lat="43.2766" lon="2.06721">
        <ele>134.2</ele>
        <time>2026-05-27T07:42:28Z</time>
      </trkpt>
      <trkpt lat="43.27658" lon="2.0673">
        <ele>134.2</ele>
        <time>2026-05-27T07:42:33Z</time>
      </trkpt>
      <trkpt lat="43.27657" lon="2.06741">
        <ele>134.2</ele>
        <time>2026-05-27T07:42:38Z</time>
      </trkpt>
      <trkpt lat="43.27655" lon="2.06749">
        <ele>134.3</ele>
        <time>2026-05-27T07:42:43Z</time>
      </trkpt>
      <trkpt lat="43.27654" lon="2.06757">
        <ele>134.4</ele>
        <time>2026-05-27T07:42:48Z</time>
      </trkpt>
      <trkpt lat="43.27653" lon="2.06765">
        <ele>134.6</ele>
        <time>2026-05-27T07:42:53Z</time>
      </trkpt>
      <trkpt lat="43.27653" lon="2.06773">
        <ele>134.7</ele>
        <time>2026-05-27T07:42:58Z</time>
      </trkpt>
      <trkpt lat="43.27652" lon="2.06782">
        <ele>134.9</ele>
        <time>2026-05-27T07:43:03Z</time>
      </trkpt>
      <trkpt lat="43.27651" lon="2.06792">
        <ele>135.1</ele>
        <time>2026-05-27T07:43:08Z</time>
      </trkpt>
      <trkpt lat="43.2765" lon="2.06801">
        <ele>135.3</ele>
        <time>2026-05-27T07:43:13Z</time>
      </trkpt>
      <trkpt lat="43.27649" lon="2.06811">
        <ele>135.4</ele>
        <time>2026-05-27T07:43:18Z</time>
      </trkpt>
      <trkpt lat="43.27647" lon="2.06822">
        <ele>135.6</ele>
        <time>2026-05-27T07:43:23Z</time>
      </trkpt>
      <trkpt lat="43.27646" lon="2.0683">
        <ele>135.7</ele>
        <time>2026-05-27T07:43:28Z</time>
      </trkpt>
      <trkpt lat="43.27645" lon="2.06839">
        <ele>135.7</ele>
        <time>2026-05-27T07:43:33Z</time>
      </trkpt>
      <trkpt lat="43.27643" lon="2.06849">
        <ele>135.7</ele>
        <time>2026-05-27T07:43:38Z</time>
      </trkpt>
      <trkpt lat="43.27641" lon="2.06858">
        <ele>135.7</ele>
        <time>2026-05-27T07:43:43Z</time>
      </trkpt>
      <trkpt lat="43.27639" lon="2.06866">
        <ele>135.7</ele>
        <time>2026-05-27T07:43:48Z</time>
      </trkpt>
      <trkpt lat="43.27638" lon="2.06875">
        <ele>135.7</ele>
        <time>2026-05-27T07:43:53Z</time>
      </trkpt>
      <trkpt lat="43.27637" lon="2.06884">
        <ele>135.6</ele>
        <time>2026-05-27T07:43:58Z</time>
      </trkpt>
      <trkpt lat="43.27634" lon="2.06893">
        <ele>135.6</ele>
        <time>2026-05-27T07:44:03Z</time>
      </trkpt>
      <trkpt lat="43.27632" lon="2.069">
        <ele>135.6</ele>
        <time>2026-05-27T07:44:08Z</time>
      </trkpt>
      <trkpt lat="43.2763" lon="2.06909">
        <ele>135.6</ele>
        <time>2026-05-27T07:44:13Z</time>
      </trkpt>
      <trkpt lat="43.27628" lon="2.06919">
        <ele>135.5</ele>
        <time>2026-05-27T07:44:18Z</time>
      </trkpt>
      <trkpt lat="43.27626" lon="2.06928">
        <ele>135.3</ele>
        <time>2026-05-27T07:44:23Z</time>
      </trkpt>
      <trkpt lat="43.27623" lon="2.06936">
        <ele>135.1</ele>
        <time>2026-05-27T07:44:28Z</time>
      </trkpt>
      <trkpt lat="43.27621" lon="2.06944">
        <ele>134.9</ele>
        <time>2026-05-27T07:44:33Z</time>
      </trkpt>
      <trkpt lat="43.27619" lon="2.06951">
        <ele>134.8</ele>
        <time>2026-05-27T07:44:38Z</time>
      </trkpt>
      <trkpt lat="43.27619" lon="2.06952">
        <ele>134.8</ele>
        <time>2026-05-27T07:44:43Z</time>
      </trkpt>
      <trkpt lat="43.27619" lon="2.06954">
        <ele>134.7</ele>
        <time>2026-05-27T07:44:48Z</time>
      </trkpt>
      <trkpt lat="43.2762" lon="2.06954">
        <ele>134.7</ele>
        <time>2026-05-27T07:44:53Z</time>
      </trkpt>
      <trkpt lat="43.2762" lon="2.06954">
        <ele>134.7</ele>
        <time>2026-05-27T07:44:58Z</time>
      </trkpt>
      <trkpt lat="43.2762" lon="2.06954">
        <ele>134.7</ele>
        <time>2026-05-27T07:45:03Z</time>
      </trkpt>
      <trkpt lat="43.2762" lon="2.06954">
        <ele>134.7</ele>
        <time>2026-05-27T07:45:08Z</time>
      </trkpt>
      <trkpt lat="43.2762" lon="2.06954">
        <ele>134.7</ele>
        <time>2026-05-27T07:45:13Z</time>
      </trkpt>
      <trkpt lat="43.2762" lon="2.06954">
        <ele>134.7</ele>
        <time>2026-05-27T07:45:18Z</time>
      </trkpt>
      <trkpt lat="43.2762" lon="2.06954">
        <ele>134.7</ele>
        <time>2026-05-27T07:45:23Z</time>
      </trkpt>
      <trkpt lat="43.2762" lon="2.06954">
        <ele>134.7</ele>
        <time>2026-05-27T07:45:28Z</time>
      </trkpt>
      <trkpt lat="43.2762" lon="2.06954">
        <ele>134.7</ele>
        <time>2026-05-27T07:45:33Z</time>
      </trkpt>
      <trkpt lat="43.2762" lon="2.06954">
        <ele>134.7</ele>
        <time>2026-05-27T07:45:38Z</time>
      </trkpt>
      <trkpt lat="43.2762" lon="2.06954">
        <ele>134.7</ele>
        <time>2026-05-27T07:45:43Z</time>
      </trkpt>
      <trkpt lat="43.2762" lon="2.06954">
        <ele>134.7</ele>
        <time>2026-05-27T07:45:48Z</time>
      </trkpt>
      <trkpt lat="43.2762" lon="2.06954">
        <ele>134.7</ele>
        <time>2026-05-27T07:45:53Z</time>
      </trkpt>
      <trkpt lat="43.2762" lon="2.06954">
        <ele>134.7</ele>
        <time>2026-05-27T07:45:58Z</time>
      </trkpt>
      <trkpt lat="43.2762" lon="2.06954">
        <ele>134.7</ele>
        <time>2026-05-27T07:46:03Z</time>
      </trkpt>
      <trkpt lat="43.2762" lon="2.06954">
        <ele>134.7</ele>
        <time>2026-05-27T07:46:08Z</time>
      </trkpt>
      <trkpt lat="43.2762" lon="2.06954">
        <ele>134.7</ele>
        <time>2026-05-27T07:46:13Z</time>
      </trkpt>
      <trkpt lat="43.2762" lon="2.06954">
        <ele>134.7</ele>
        <time>2026-05-27T07:46:18Z</time>
      </trkpt>
      <trkpt lat="43.2762" lon="2.06954">
        <ele>134.7</ele>
        <time>2026-05-27T07:46:23Z</time>
      </trkpt>
      <trkpt lat="43.2762" lon="2.06954">
        <ele>134.7</ele>
        <time>2026-05-27T07:46:28Z</time>
      </trkpt>
      <trkpt lat="43.2762" lon="2.06954">
        <ele>134.7</ele>
        <time>2026-05-27T07:46:33Z</time>
      </trkpt>
      <trkpt lat="43.2762" lon="2.06954">
        <ele>134.7</ele>
        <time>2026-05-27T07:46:38Z</time>
      </trkpt>
      <trkpt lat="43.2762" lon="2.06954">
        <ele>134.7</ele>
        <time>2026-05-27T07:46:43Z</time>
      </trkpt>
      <trkpt lat="43.2762" lon="2.06954">
        <ele>134.7</ele>
        <time>2026-05-27T07:46:48Z</time>
      </trkpt>
      <trkpt lat="43.2762" lon="2.06954">
        <ele>134.7</ele>
        <time>2026-05-27T07:46:53Z</time>
      </trkpt>
      <trkpt lat="43.2762" lon="2.06954">
        <ele>134.7</ele>
        <time>2026-05-27T07:46:58Z</time>
      </trkpt>
      <trkpt lat="43.2762" lon="2.06954">
        <ele>134.7</ele>
        <time>2026-05-27T07:47:03Z</time>
      </trkpt>
      <trkpt lat="43.27617" lon="2.06958">
        <ele>134.6</ele>
        <time>2026-05-27T07:47:08Z</time>
      </trkpt>
      <trkpt lat="43.27614" lon="2.06963">
        <ele>134.5</ele>
        <time>2026-05-27T07:47:13Z</time>
      </trkpt>
      <trkpt lat="43.27612" lon="2.06967">
        <ele>134.3</ele>
        <time>2026-05-27T07:47:18Z</time>
      </trkpt>
      <trkpt lat="43.27608" lon="2.06975">
        <ele>134.1</ele>
        <time>2026-05-27T07:47:23Z</time>
      </trkpt>
      <trkpt lat="43.27603" lon="2.06984">
        <ele>133.8</ele>
        <time>2026-05-27T07:47:28Z</time>
      </trkpt>
      <trkpt lat="43.27599" lon="2.06991">
        <ele>133.6</ele>
        <time>2026-05-27T07:47:33Z</time>
      </trkpt>
      <trkpt lat="43.27595" lon="2.06998">
        <ele>133.3</ele>
        <time>2026-05-27T07:47:38Z</time>
      </trkpt>
      <trkpt lat="43.27594" lon="2.07004">
        <ele>133.2</ele>
        <time>2026-05-27T07:47:43Z</time>
      </trkpt>
      <trkpt lat="43.2759" lon="2.07013">
        <ele>133.1</ele>
        <time>2026-05-27T07:47:48Z</time>
      </trkpt>
      <trkpt lat="43.27587" lon="2.0702">
        <ele>133.1</ele>
        <time>2026-05-27T07:47:53Z</time>
      </trkpt>
      <trkpt lat="43.27584" lon="2.07027">
        <ele>133</ele>
        <time>2026-05-27T07:47:58Z</time>
      </trkpt>
      <trkpt lat="43.27581" lon="2.07034">
        <ele>133.1</ele>
        <time>2026-05-27T07:48:03Z</time>
      </trkpt>
      <trkpt lat="43.27579" lon="2.07043">
        <ele>133.1</ele>
        <time>2026-05-27T07:48:08Z</time>
      </trkpt>
      <trkpt lat="43.27575" lon="2.07051">
        <ele>133.2</ele>
        <time>2026-05-27T07:48:13Z</time>
      </trkpt>
      <trkpt lat="43.27571" lon="2.0706">
        <ele>133.3</ele>
        <time>2026-05-27T07:48:18Z</time>
      </trkpt>
      <trkpt lat="43.27568" lon="2.07069">
        <ele>133.4</ele>
        <time>2026-05-27T07:48:23Z</time>
      </trkpt>
      <trkpt lat="43.27567" lon="2.07076">
        <ele>133.4</ele>
        <time>2026-05-27T07:48:28Z</time>
      </trkpt>
      <trkpt lat="43.27563" lon="2.07083">
        <ele>133.5</ele>
        <time>2026-05-27T07:48:33Z</time>
      </trkpt>
      <trkpt lat="43.27559" lon="2.07091">
        <ele>133.4</ele>
        <time>2026-05-27T07:48:38Z</time>
      </trkpt>
      <trkpt lat="43.27558" lon="2.07094">
        <ele>133.4</ele>
        <time>2026-05-27T07:48:43Z</time>
      </trkpt>
      <trkpt lat="43.27558" lon="2.07097">
        <ele>133.3</ele>
        <time>2026-05-27T07:48:48Z</time>
      </trkpt>
      <trkpt lat="43.27558" lon="2.07097">
        <ele>133.3</ele>
        <time>2026-05-27T07:48:53Z</time>
      </trkpt>
      <trkpt lat="43.27558" lon="2.07105">
        <ele>133.2</ele>
        <time>2026-05-27T07:48:58Z</time>
      </trkpt>
      <trkpt lat="43.27554" lon="2.0711">
        <ele>133.2</ele>
        <time>2026-05-27T07:49:03Z</time>
      </trkpt>
      <trkpt lat="43.27551" lon="2.07115">
        <ele>133.1</ele>
        <time>2026-05-27T07:49:08Z</time>
      </trkpt>
      <trkpt lat="43.27548" lon="2.07122">
        <ele>133</ele>
        <time>2026-05-27T07:49:13Z</time>
      </trkpt>
      <trkpt lat="43.27545" lon="2.0713">
        <ele>132.8</ele>
        <time>2026-05-27T07:49:18Z</time>
      </trkpt>
      <trkpt lat="43.27542" lon="2.07137">
        <ele>132.7</ele>
        <time>2026-05-27T07:49:23Z</time>
      </trkpt>
      <trkpt lat="43.27538" lon="2.07145">
        <ele>132.5</ele>
        <time>2026-05-27T07:49:28Z</time>
      </trkpt>
      <trkpt lat="43.27536" lon="2.07152">
        <ele>132.4</ele>
        <time>2026-05-27T07:49:33Z</time>
      </trkpt>
      <trkpt lat="43.27532" lon="2.07161">
        <ele>132.2</ele>
        <time>2026-05-27T07:49:38Z</time>
      </trkpt>
      <trkpt lat="43.2753" lon="2.0717">
        <ele>132.1</ele>
        <time>2026-05-27T07:49:43Z</time>
      </trkpt>
      <trkpt lat="43.27526" lon="2.07177">
        <ele>132.2</ele>
        <time>2026-05-27T07:49:48Z</time>
      </trkpt>
      <trkpt lat="43.27524" lon="2.07185">
        <ele>132.4</ele>
        <time>2026-05-27T07:49:53Z</time>
      </trkpt>
      <trkpt lat="43.27519" lon="2.07194">
        <ele>132.6</ele>
        <time>2026-05-27T07:49:58Z</time>
      </trkpt>
      <trkpt lat="43.27516" lon="2.07203">
        <ele>132.8</ele>
        <time>2026-05-27T07:50:03Z</time>
      </trkpt>
      <trkpt lat="43.27513" lon="2.07212">
        <ele>133</ele>
        <time>2026-05-27T07:50:08Z</time>
      </trkpt>
      <trkpt lat="43.2751" lon="2.07222">
        <ele>133.2</ele>
        <time>2026-05-27T07:50:13Z</time>
      </trkpt>
      <trkpt lat="43.2751" lon="2.07231">
        <ele>133.5</ele>
        <time>2026-05-27T07:50:18Z</time>
      </trkpt>
      <trkpt lat="43.2751" lon="2.0724">
        <ele>133.7</ele>
        <time>2026-05-27T07:50:23Z</time>
      </trkpt>
      <trkpt lat="43.27511" lon="2.07247">
        <ele>133.8</ele>
        <time>2026-05-27T07:50:28Z</time>
      </trkpt>
      <trkpt lat="43.27512" lon="2.07254">
        <ele>133.9</ele>
        <time>2026-05-27T07:50:33Z</time>
      </trkpt>
      <trkpt lat="43.27515" lon="2.07262">
        <ele>133.8</ele>
        <time>2026-05-27T07:50:38Z</time>
      </trkpt>
      <trkpt lat="43.27518" lon="2.0727">
        <ele>133.8</ele>
        <time>2026-05-27T07:50:43Z</time>
      </trkpt>
      <trkpt lat="43.27519" lon="2.07279">
        <ele>133.8</ele>
        <time>2026-05-27T07:50:48Z</time>
      </trkpt>
      <trkpt lat="43.27518" lon="2.07282">
        <ele>133.8</ele>
        <time>2026-05-27T07:50:53Z</time>
      </trkpt>
      <trkpt lat="43.2752" lon="2.0729">
        <ele>133.8</ele>
        <time>2026-05-27T07:50:58Z</time>
      </trkpt>
      <trkpt lat="43.27522" lon="2.073">
        <ele>133.7</ele>
        <time>2026-05-27T07:51:03Z</time>
      </trkpt>
      <trkpt lat="43.27524" lon="2.07309">
        <ele>133.7</ele>
        <time>2026-05-27T07:51:08Z</time>
      </trkpt>
      <trkpt lat="43.27527" lon="2.07317">
        <ele>133.7</ele>
        <time>2026-05-27T07:51:13Z</time>
      </trkpt>
      <trkpt lat="43.27529" lon="2.07326">
        <ele>133.7</ele>
        <time>2026-05-27T07:51:18Z</time>
      </trkpt>
      <trkpt lat="43.27531" lon="2.07336">
        <ele>133.6</ele>
        <time>2026-05-27T07:51:23Z</time>
      </trkpt>
      <trkpt lat="43.2753" lon="2.07338">
        <ele>133.6</ele>
        <time>2026-05-27T07:51:28Z</time>
      </trkpt>
      <trkpt lat="43.27533" lon="2.07343">
        <ele>133.5</ele>
        <time>2026-05-27T07:51:33Z</time>
      </trkpt>
      <trkpt lat="43.27536" lon="2.07351">
        <ele>133.4</ele>
        <time>2026-05-27T07:51:38Z</time>
      </trkpt>
      <trkpt lat="43.27539" lon="2.07359">
        <ele>133.4</ele>
        <time>2026-05-27T07:51:43Z</time>
      </trkpt>
      <trkpt lat="43.27542" lon="2.07365">
        <ele>133.3</ele>
        <time>2026-05-27T07:51:48Z</time>
      </trkpt>
      <trkpt lat="43.27543" lon="2.07373">
        <ele>133.3</ele>
        <time>2026-05-27T07:51:53Z</time>
      </trkpt>
      <trkpt lat="43.27546" lon="2.07382">
        <ele>133.2</ele>
        <time>2026-05-27T07:51:58Z</time>
      </trkpt>
      <trkpt lat="43.2755" lon="2.0739">
        <ele>133.1</ele>
        <time>2026-05-27T07:52:03Z</time>
      </trkpt>
      <trkpt lat="43.27553" lon="2.07397">
        <ele>133.1</ele>
        <time>2026-05-27T07:52:08Z</time>
      </trkpt>
      <trkpt lat="43.27556" lon="2.07405">
        <ele>133</ele>
        <time>2026-05-27T07:52:13Z</time>
      </trkpt>
      <trkpt lat="43.2756" lon="2.07413">
        <ele>133</ele>
        <time>2026-05-27T07:52:18Z</time>
      </trkpt>
      <trkpt lat="43.27565" lon="2.07422">
        <ele>133</ele>
        <time>2026-05-27T07:52:23Z</time>
      </trkpt>
      <trkpt lat="43.27568" lon="2.0743">
        <ele>133</ele>
        <time>2026-05-27T07:52:28Z</time>
      </trkpt>
      <trkpt lat="43.27573" lon="2.07437">
        <ele>133</ele>
        <time>2026-05-27T07:52:33Z</time>
      </trkpt>
      <trkpt lat="43.27577" lon="2.07443">
        <ele>133</ele>
        <time>2026-05-27T07:52:38Z</time>
      </trkpt>
      <trkpt lat="43.27581" lon="2.07449">
        <ele>133</ele>
        <time>2026-05-27T07:52:43Z</time>
      </trkpt>
      <trkpt lat="43.27584" lon="2.07456">
        <ele>133</ele>
        <time>2026-05-27T07:52:48Z</time>
      </trkpt>
      <trkpt lat="43.27588" lon="2.07462">
        <ele>133</ele>
        <time>2026-05-27T07:52:53Z</time>
      </trkpt>
      <trkpt lat="43.27593" lon="2.07469">
        <ele>133</ele>
        <time>2026-05-27T07:52:58Z</time>
      </trkpt>
      <trkpt lat="43.27597" lon="2.07478">
        <ele>133.1</ele>
        <time>2026-05-27T07:53:03Z</time>
      </trkpt>
      <trkpt lat="43.27601" lon="2.07485">
        <ele>133.1</ele>
        <time>2026-05-27T07:53:08Z</time>
      </trkpt>
      <trkpt lat="43.27605" lon="2.07493">
        <ele>133.2</ele>
        <time>2026-05-27T07:53:13Z</time>
      </trkpt>
      <trkpt lat="43.27608" lon="2.07501">
        <ele>133.3</ele>
        <time>2026-05-27T07:53:18Z</time>
      </trkpt>
      <trkpt lat="43.2761" lon="2.0751">
        <ele>133.3</ele>
        <time>2026-05-27T07:53:23Z</time>
      </trkpt>
      <trkpt lat="43.27612" lon="2.07519">
        <ele>133.3</ele>
        <time>2026-05-27T07:53:28Z</time>
      </trkpt>
      <trkpt lat="43.27614" lon="2.07529">
        <ele>133.2</ele>
        <time>2026-05-27T07:53:33Z</time>
      </trkpt>
      <trkpt lat="43.27616" lon="2.07539">
        <ele>133.2</ele>
        <time>2026-05-27T07:53:38Z</time>
      </trkpt>
      <trkpt lat="43.27617" lon="2.07547">
        <ele>133.2</ele>
        <time>2026-05-27T07:53:43Z</time>
      </trkpt>
      <trkpt lat="43.27617" lon="2.07555">
        <ele>133.1</ele>
        <time>2026-05-27T07:53:48Z</time>
      </trkpt>
      <trkpt lat="43.27617" lon="2.07563">
        <ele>133.1</ele>
        <time>2026-05-27T07:53:53Z</time>
      </trkpt>
      <trkpt lat="43.27617" lon="2.07573">
        <ele>133.1</ele>
        <time>2026-05-27T07:53:58Z</time>
      </trkpt>
      <trkpt lat="43.27618" lon="2.07583">
        <ele>133</ele>
        <time>2026-05-27T07:54:03Z</time>
      </trkpt>
      <trkpt lat="43.27618" lon="2.07592">
        <ele>133</ele>
        <time>2026-05-27T07:54:08Z</time>
      </trkpt>
      <trkpt lat="43.27618" lon="2.07603">
        <ele>133.1</ele>
        <time>2026-05-27T07:54:13Z</time>
      </trkpt>
      <trkpt lat="43.27616" lon="2.07614">
        <ele>133.1</ele>
        <time>2026-05-27T07:54:18Z</time>
      </trkpt>
      <trkpt lat="43.27615" lon="2.07623">
        <ele>133.2</ele>
        <time>2026-05-27T07:54:23Z</time>
      </trkpt>
      <trkpt lat="43.27614" lon="2.07632">
        <ele>133.2</ele>
        <time>2026-05-27T07:54:28Z</time>
      </trkpt>
      <trkpt lat="43.27613" lon="2.0764">
        <ele>133.2</ele>
        <time>2026-05-27T07:54:33Z</time>
      </trkpt>
      <trkpt lat="43.27612" lon="2.0765">
        <ele>133.3</ele>
        <time>2026-05-27T07:54:38Z</time>
      </trkpt>
      <trkpt lat="43.27613" lon="2.07658">
        <ele>133.3</ele>
        <time>2026-05-27T07:54:43Z</time>
      </trkpt>
      <trkpt lat="43.27613" lon="2.07667">
        <ele>133.4</ele>
        <time>2026-05-27T07:54:48Z</time>
      </trkpt>
      <trkpt lat="43.27612" lon="2.07675">
        <ele>133.4</ele>
        <time>2026-05-27T07:54:53Z</time>
      </trkpt>
      <trkpt lat="43.27612" lon="2.07683">
        <ele>133.5</ele>
        <time>2026-05-27T07:54:58Z</time>
      </trkpt>
      <trkpt lat="43.27611" lon="2.07693">
        <ele>133.5</ele>
        <time>2026-05-27T07:55:03Z</time>
      </trkpt>
      <trkpt lat="43.2761" lon="2.07704">
        <ele>133.6</ele>
        <time>2026-05-27T07:55:08Z</time>
      </trkpt>
      <trkpt lat="43.27608" lon="2.07714">
        <ele>133.7</ele>
        <time>2026-05-27T07:55:13Z</time>
      </trkpt>
      <trkpt lat="43.27607" lon="2.07722">
        <ele>133.8</ele>
        <time>2026-05-27T07:55:18Z</time>
      </trkpt>
      <trkpt lat="43.27606" lon="2.0773">
        <ele>133.8</ele>
        <time>2026-05-27T07:55:23Z</time>
      </trkpt>
      <trkpt lat="43.27604" lon="2.0774">
        <ele>133.9</ele>
        <time>2026-05-27T07:55:28Z</time>
      </trkpt>
      <trkpt lat="43.27603" lon="2.07749">
        <ele>134</ele>
        <time>2026-05-27T07:55:33Z</time>
      </trkpt>
      <trkpt lat="43.27602" lon="2.07757">
        <ele>134</ele>
        <time>2026-05-27T07:55:38Z</time>
      </trkpt>
      <trkpt lat="43.27602" lon="2.07764">
        <ele>134</ele>
        <time>2026-05-27T07:55:43Z</time>
      </trkpt>
      <trkpt lat="43.27602" lon="2.07772">
        <ele>134</ele>
        <time>2026-05-27T07:55:48Z</time>
      </trkpt>
      <trkpt lat="43.27602" lon="2.07774">
        <ele>134</ele>
        <time>2026-05-27T07:55:53Z</time>
      </trkpt>
      <trkpt lat="43.27602" lon="2.07776">
        <ele>134</ele>
        <time>2026-05-27T07:55:58Z</time>
      </trkpt>
      <trkpt lat="43.27602" lon="2.07781">
        <ele>134</ele>
        <time>2026-05-27T07:56:03Z</time>
      </trkpt>
      <trkpt lat="43.27604" lon="2.07788">
        <ele>134</ele>
        <time>2026-05-27T07:56:08Z</time>
      </trkpt>
      <trkpt lat="43.27603" lon="2.07797">
        <ele>134</ele>
        <time>2026-05-27T07:56:13Z</time>
      </trkpt>
      <trkpt lat="43.27602" lon="2.07808">
        <ele>134</ele>
        <time>2026-05-27T07:56:18Z</time>
      </trkpt>
      <trkpt lat="43.27601" lon="2.07817">
        <ele>134</ele>
        <time>2026-05-27T07:56:23Z</time>
      </trkpt>
      <trkpt lat="43.27601" lon="2.07826">
        <ele>134</ele>
        <time>2026-05-27T07:56:28Z</time>
      </trkpt>
      <trkpt lat="43.27601" lon="2.07835">
        <ele>134</ele>
        <time>2026-05-27T07:56:33Z</time>
      </trkpt>
      <trkpt lat="43.27602" lon="2.07841">
        <ele>134.1</ele>
        <time>2026-05-27T07:56:38Z</time>
      </trkpt>
      <trkpt lat="43.27602" lon="2.07851">
        <ele>134.3</ele>
        <time>2026-05-27T07:56:43Z</time>
      </trkpt>
      <trkpt lat="43.27602" lon="2.07859">
        <ele>134.4</ele>
        <time>2026-05-27T07:56:48Z</time>
      </trkpt>
      <trkpt lat="43.27603" lon="2.07868">
        <ele>134.6</ele>
        <time>2026-05-27T07:56:53Z</time>
      </trkpt>
      <trkpt lat="43.27603" lon="2.07878">
        <ele>134.8</ele>
        <time>2026-05-27T07:56:58Z</time>
      </trkpt>
      <trkpt lat="43.27602" lon="2.07885">
        <ele>134.9</ele>
        <time>2026-05-27T07:57:03Z</time>
      </trkpt>
      <trkpt lat="43.276" lon="2.07891">
        <ele>135</ele>
        <time>2026-05-27T07:57:08Z</time>
      </trkpt>
      <trkpt lat="43.27597" lon="2.07891">
        <ele>134.9</ele>
        <time>2026-05-27T07:57:13Z</time>
      </trkpt>
      <trkpt lat="43.27592" lon="2.0789">
        <ele>134.8</ele>
        <time>2026-05-27T07:57:18Z</time>
      </trkpt>
      <trkpt lat="43.27585" lon="2.07889">
        <ele>134.7</ele>
        <time>2026-05-27T07:57:23Z</time>
      </trkpt>
      <trkpt lat="43.27582" lon="2.07887">
        <ele>134.6</ele>
        <time>2026-05-27T07:57:28Z</time>
      </trkpt>
      <trkpt lat="43.27581" lon="2.07886">
        <ele>134.6</ele>
        <time>2026-05-27T07:57:33Z</time>
      </trkpt>
      <trkpt lat="43.27581" lon="2.07886">
        <ele>134.6</ele>
        <time>2026-05-27T07:57:38Z</time>
      </trkpt>
      <trkpt lat="43.27581" lon="2.07886">
        <ele>134.6</ele>
        <time>2026-05-27T07:57:43Z</time>
      </trkpt>
      <trkpt lat="43.27581" lon="2.07886">
        <ele>134.6</ele>
        <time>2026-05-27T07:57:48Z</time>
      </trkpt>
      <trkpt lat="43.27581" lon="2.07886">
        <ele>134.6</ele>
        <time>2026-05-27T07:57:53Z</time>
      </trkpt>
      <trkpt lat="43.27581" lon="2.07886">
        <ele>134.6</ele>
        <time>2026-05-27T07:57:58Z</time>
      </trkpt>
      <trkpt lat="43.27581" lon="2.07886">
        <ele>134.6</ele>
        <time>2026-05-27T07:58:03Z</time>
      </trkpt>
      <trkpt lat="43.27581" lon="2.07886">
        <ele>134.6</ele>
        <time>2026-05-27T07:58:08Z</time>
      </trkpt>
      <trkpt lat="43.27581" lon="2.07886">
        <ele>134.6</ele>
        <time>2026-05-27T07:58:13Z</time>
      </trkpt>
      <trkpt lat="43.27581" lon="2.07886">
        <ele>134.6</ele>
        <time>2026-05-27T07:58:18Z</time>
      </trkpt>
      <trkpt lat="43.27581" lon="2.07886">
        <ele>134.6</ele>
        <time>2026-05-27T07:58:23Z</time>
      </trkpt>
      <trkpt lat="43.27581" lon="2.07886">
        <ele>134.6</ele>
        <time>2026-05-27T07:58:28Z</time>
      </trkpt>
      <trkpt lat="43.2758" lon="2.0789">
        <ele>134.7</ele>
        <time>2026-05-27T07:58:33Z</time>
      </trkpt>
      <trkpt lat="43.27573" lon="2.07888">
        <ele>134.6</ele>
        <time>2026-05-27T07:58:38Z</time>
      </trkpt>
      <trkpt lat="43.27567" lon="2.07886">
        <ele>134.6</ele>
        <time>2026-05-27T07:58:43Z</time>
      </trkpt>
      <trkpt lat="43.27562" lon="2.07886">
        <ele>134.6</ele>
        <time>2026-05-27T07:58:48Z</time>
      </trkpt>
      <trkpt lat="43.27556" lon="2.07884">
        <ele>134.5</ele>
        <time>2026-05-27T07:58:53Z</time>
      </trkpt>
      <trkpt lat="43.2755" lon="2.07882">
        <ele>134.5</ele>
        <time>2026-05-27T07:58:58Z</time>
      </trkpt>
      <trkpt lat="43.27546" lon="2.07879">
        <ele>134.5</ele>
        <time>2026-05-27T07:59:03Z</time>
      </trkpt>
      <trkpt lat="43.2754" lon="2.07876">
        <ele>134.5</ele>
        <time>2026-05-27T07:59:08Z</time>
      </trkpt>
      <trkpt lat="43.27534" lon="2.07871">
        <ele>134.5</ele>
        <time>2026-05-27T07:59:13Z</time>
      </trkpt>
      <trkpt lat="43.2753" lon="2.07867">
        <ele>134.5</ele>
        <time>2026-05-27T07:59:18Z</time>
      </trkpt>
      <trkpt lat="43.27526" lon="2.07863">
        <ele>134.6</ele>
        <time>2026-05-27T07:59:23Z</time>
      </trkpt>
      <trkpt lat="43.27521" lon="2.07859">
        <ele>134.6</ele>
        <time>2026-05-27T07:59:28Z</time>
      </trkpt>
      <trkpt lat="43.27518" lon="2.07857">
        <ele>134.6</ele>
        <time>2026-05-27T07:59:33Z</time>
      </trkpt>
      <trkpt lat="43.27518" lon="2.07857">
        <ele>134.6</ele>
        <time>2026-05-27T07:59:38Z</time>
      </trkpt>
      <trkpt lat="43.27518" lon="2.07857">
        <ele>134.6</ele>
        <time>2026-05-27T07:59:43Z</time>
      </trkpt>
      <trkpt lat="43.27518" lon="2.07857">
        <ele>134.6</ele>
        <time>2026-05-27T07:59:48Z</time>
      </trkpt>
      <trkpt lat="43.27518" lon="2.07857">
        <ele>134.6</ele>
        <time>2026-05-27T07:59:53Z</time>
      </trkpt>
      <trkpt lat="43.27518" lon="2.07857">
        <ele>134.6</ele>
        <time>2026-05-27T07:59:58Z</time>
      </trkpt>
      <trkpt lat="43.27517" lon="2.07856">
        <ele>134.6</ele>
        <time>2026-05-27T08:00:03Z</time>
      </trkpt>
      <trkpt lat="43.27516" lon="2.07848">
        <ele>134.7</ele>
        <time>2026-05-27T08:00:08Z</time>
      </trkpt>
      <trkpt lat="43.27522" lon="2.07846">
        <ele>134.7</ele>
        <time>2026-05-27T08:00:13Z</time>
      </trkpt>
      <trkpt lat="43.27529" lon="2.07849">
        <ele>134.6</ele>
        <time>2026-05-27T08:00:18Z</time>
      </trkpt>
      <trkpt lat="43.27535" lon="2.07851">
        <ele>134.5</ele>
        <time>2026-05-27T08:00:23Z</time>
      </trkpt>
      <trkpt lat="43.27541" lon="2.07853">
        <ele>134.5</ele>
        <time>2026-05-27T08:00:28Z</time>
      </trkpt>
      <trkpt lat="43.27546" lon="2.07851">
        <ele>134.5</ele>
        <time>2026-05-27T08:00:33Z</time>
      </trkpt>
      <trkpt lat="43.27551" lon="2.0785">
        <ele>134.4</ele>
        <time>2026-05-27T08:00:38Z</time>
      </trkpt>
      <trkpt lat="43.27556" lon="2.07848">
        <ele>134.4</ele>
        <time>2026-05-27T08:00:43Z</time>
      </trkpt>
      <trkpt lat="43.27562" lon="2.07846">
        <ele>134.3</ele>
        <time>2026-05-27T08:00:48Z</time>
      </trkpt>
      <trkpt lat="43.27567" lon="2.07841">
        <ele>134.3</ele>
        <time>2026-05-27T08:00:53Z</time>
      </trkpt>
      <trkpt lat="43.27569" lon="2.07832">
        <ele>134.2</ele>
        <time>2026-05-27T08:00:58Z</time>
      </trkpt>
      <trkpt lat="43.27569" lon="2.07824">
        <ele>134.2</ele>
        <time>2026-05-27T08:01:03Z</time>
      </trkpt>
      <trkpt lat="43.2757" lon="2.07815">
        <ele>134.2</ele>
        <time>2026-05-27T08:01:08Z</time>
      </trkpt>
      <trkpt lat="43.27571" lon="2.07808">
        <ele>134.2</ele>
        <time>2026-05-27T08:01:13Z</time>
      </trkpt>
      <trkpt lat="43.27572" lon="2.07801">
        <ele>134.2</ele>
        <time>2026-05-27T08:01:18Z</time>
      </trkpt>
      <trkpt lat="43.27571" lon="2.07798">
        <ele>134.2</ele>
        <time>2026-05-27T08:01:23Z</time>
      </trkpt>
      <trkpt lat="43.27571" lon="2.07798">
        <ele>134.2</ele>
        <time>2026-05-27T08:01:28Z</time>
      </trkpt>
      <trkpt lat="43.27571" lon="2.07798">
        <ele>134.2</ele>
        <time>2026-05-27T08:01:33Z</time>
      </trkpt>
      <trkpt lat="43.27571" lon="2.07798">
        <ele>134.2</ele>
        <time>2026-05-27T08:01:38Z</time>
      </trkpt>
      <trkpt lat="43.27571" lon="2.07798">
        <ele>134.2</ele>
        <time>2026-05-27T08:01:43Z</time>
      </trkpt>
      <trkpt lat="43.27571" lon="2.07798">
        <ele>134.2</ele>
        <time>2026-05-27T08:01:48Z</time>
      </trkpt>
      <trkpt lat="43.27571" lon="2.07798">
        <ele>134.2</ele>
        <time>2026-05-27T08:01:53Z</time>
      </trkpt>
      <trkpt lat="43.27571" lon="2.07798">
        <ele>134.2</ele>
        <time>2026-05-27T08:01:58Z</time>
      </trkpt>
      <trkpt lat="43.27571" lon="2.07798">
        <ele>134.2</ele>
        <time>2026-05-27T08:02:03Z</time>
      </trkpt>
      <trkpt lat="43.27571" lon="2.07798">
        <ele>134.2</ele>
        <time>2026-05-27T08:02:08Z</time>
      </trkpt>
      <trkpt lat="43.27571" lon="2.07798">
        <ele>134.2</ele>
        <time>2026-05-27T08:02:13Z</time>
      </trkpt>
      <trkpt lat="43.27571" lon="2.07798">
        <ele>134.2</ele>
        <time>2026-05-27T08:02:18Z</time>
      </trkpt>
      <trkpt lat="43.27571" lon="2.07798">
        <ele>134.2</ele>
        <time>2026-05-27T08:02:23Z</time>
      </trkpt>
      <trkpt lat="43.27571" lon="2.07798">
        <ele>134.2</ele>
        <time>2026-05-27T08:02:28Z</time>
      </trkpt>
      <trkpt lat="43.27571" lon="2.07798">
        <ele>134.2</ele>
        <time>2026-05-27T08:02:33Z</time>
      </trkpt>
      <trkpt lat="43.27571" lon="2.07798">
        <ele>134.2</ele>
        <time>2026-05-27T08:02:38Z</time>
      </trkpt>
      <trkpt lat="43.27571" lon="2.07798">
        <ele>134.2</ele>
        <time>2026-05-27T08:02:43Z</time>
      </trkpt>
      <trkpt lat="43.27571" lon="2.07798">
        <ele>134.2</ele>
        <time>2026-05-27T08:02:48Z</time>
      </trkpt>
      <trkpt lat="43.27571" lon="2.07798">
        <ele>134.2</ele>
        <time>2026-05-27T08:02:53Z</time>
      </trkpt>
      <trkpt lat="43.27571" lon="2.07798">
        <ele>134.2</ele>
        <time>2026-05-27T08:02:58Z</time>
      </trkpt>
      <trkpt lat="43.27571" lon="2.07798">
        <ele>134.2</ele>
        <time>2026-05-27T08:03:03Z</time>
      </trkpt>
      <trkpt lat="43.27571" lon="2.07798">
        <ele>134.2</ele>
        <time>2026-05-27T08:03:08Z</time>
      </trkpt>
      <trkpt lat="43.27571" lon="2.07798">
        <ele>134.2</ele>
        <time>2026-05-27T08:03:13Z</time>
      </trkpt>
      <trkpt lat="43.27571" lon="2.07798">
        <ele>134.2</ele>
        <time>2026-05-27T08:03:18Z</time>
      </trkpt>
      <trkpt lat="43.27571" lon="2.07798">
        <ele>134.2</ele>
        <time>2026-05-27T08:03:23Z</time>
      </trkpt>
      <trkpt lat="43.27571" lon="2.07798">
        <ele>134.2</ele>
        <time>2026-05-27T08:03:28Z</time>
      </trkpt>
      <trkpt lat="43.27571" lon="2.07798">
        <ele>134.2</ele>
        <time>2026-05-27T08:03:33Z</time>
      </trkpt>
      <trkpt lat="43.27571" lon="2.07798">
        <ele>134.2</ele>
        <time>2026-05-27T08:03:38Z</time>
      </trkpt>
      <trkpt lat="43.27571" lon="2.07798">
        <ele>134.2</ele>
        <time>2026-05-27T08:03:43Z</time>
      </trkpt>
      <trkpt lat="43.27571" lon="2.07798">
        <ele>134.2</ele>
        <time>2026-05-27T08:03:48Z</time>
      </trkpt>
      <trkpt lat="43.27571" lon="2.07798">
        <ele>134.2</ele>
        <time>2026-05-27T08:03:53Z</time>
      </trkpt>
      <trkpt lat="43.27571" lon="2.07798">
        <ele>134.2</ele>
        <time>2026-05-27T08:03:58Z</time>
      </trkpt>
      <trkpt lat="43.27571" lon="2.07798">
        <ele>134.2</ele>
        <time>2026-05-27T08:04:03Z</time>
      </trkpt>
      <trkpt lat="43.27571" lon="2.07798">
        <ele>134.2</ele>
        <time>2026-05-27T08:04:08Z</time>
      </trkpt>
      <trkpt lat="43.27571" lon="2.07798">
        <ele>134.2</ele>
        <time>2026-05-27T08:04:13Z</time>
      </trkpt>
      <trkpt lat="43.27571" lon="2.07798">
        <ele>134.2</ele>
        <time>2026-05-27T08:04:18Z</time>
      </trkpt>
      <trkpt lat="43.27571" lon="2.07798">
        <ele>134.2</ele>
        <time>2026-05-27T08:04:23Z</time>
      </trkpt>
      <trkpt lat="43.27571" lon="2.07798">
        <ele>134.2</ele>
        <time>2026-05-27T08:04:28Z</time>
      </trkpt>
      <trkpt lat="43.27571" lon="2.07798">
        <ele>134.2</ele>
        <time>2026-05-27T08:04:33Z</time>
      </trkpt>
      <trkpt lat="43.27571" lon="2.07798">
        <ele>134.2</ele>
        <time>2026-05-27T08:04:38Z</time>
      </trkpt>
      <trkpt lat="43.27571" lon="2.07798">
        <ele>134.2</ele>
        <time>2026-05-27T08:04:43Z</time>
      </trkpt>
      <trkpt lat="43.27571" lon="2.07798">
        <ele>134.2</ele>
        <time>2026-05-27T08:04:48Z</time>
      </trkpt>
      <trkpt lat="43.27571" lon="2.07798">
        <ele>134.2</ele>
        <time>2026-05-27T08:04:53Z</time>
      </trkpt>
      <trkpt lat="43.27571" lon="2.07798">
        <ele>134.2</ele>
        <time>2026-05-27T08:04:58Z</time>
      </trkpt>
      <trkpt lat="43.27571" lon="2.07798">
        <ele>134.2</ele>
        <time>2026-05-27T08:05:03Z</time>
      </trkpt>
      <trkpt lat="43.27571" lon="2.07798">
        <ele>134.2</ele>
        <time>2026-05-27T08:05:08Z</time>
      </trkpt>
      <trkpt lat="43.27571" lon="2.07798">
        <ele>134.2</ele>
        <time>2026-05-27T08:05:13Z</time>
      </trkpt>
      <trkpt lat="43.27571" lon="2.07798">
        <ele>134.2</ele>
        <time>2026-05-27T08:05:18Z</time>
      </trkpt>
      <trkpt lat="43.27571" lon="2.07798">
        <ele>134.2</ele>
        <time>2026-05-27T08:05:23Z</time>
      </trkpt>
      <trkpt lat="43.27571" lon="2.07798">
        <ele>134.2</ele>
        <time>2026-05-27T08:05:28Z</time>
      </trkpt>
      <trkpt lat="43.27571" lon="2.07798">
        <ele>134.2</ele>
        <time>2026-05-27T08:05:33Z</time>
      </trkpt>
      <trkpt lat="43.27571" lon="2.07798">
        <ele>134.2</ele>
        <time>2026-05-27T08:05:38Z</time>
      </trkpt>
      <trkpt lat="43.27571" lon="2.07798">
        <ele>134.2</ele>
        <time>2026-05-27T08:05:43Z</time>
      </trkpt>
      <trkpt lat="43.27571" lon="2.07798">
        <ele>134.2</ele>
        <time>2026-05-27T08:05:48Z</time>
      </trkpt>
      <trkpt lat="43.27571" lon="2.07798">
        <ele>134.2</ele>
        <time>2026-05-27T08:05:53Z</time>
      </trkpt>
      <trkpt lat="43.27571" lon="2.07798">
        <ele>134.2</ele>
        <time>2026-05-27T08:05:58Z</time>
      </trkpt>
      <trkpt lat="43.27571" lon="2.07798">
        <ele>134.2</ele>
        <time>2026-05-27T08:06:03Z</time>
      </trkpt>
      <trkpt lat="43.27571" lon="2.07798">
        <ele>134.2</ele>
        <time>2026-05-27T08:06:08Z</time>
      </trkpt>
      <trkpt lat="43.27571" lon="2.07798">
        <ele>134.2</ele>
        <time>2026-05-27T08:06:13Z</time>
      </trkpt>
      <trkpt lat="43.27571" lon="2.07798">
        <ele>134.2</ele>
        <time>2026-05-27T08:06:18Z</time>
      </trkpt>
      <trkpt lat="43.27571" lon="2.07798">
        <ele>134.2</ele>
        <time>2026-05-27T08:06:23Z</time>
      </trkpt>
      <trkpt lat="43.27571" lon="2.07798">
        <ele>134.2</ele>
        <time>2026-05-27T08:06:28Z</time>
      </trkpt>
      <trkpt lat="43.27571" lon="2.07798">
        <ele>134.2</ele>
        <time>2026-05-27T08:06:33Z</time>
      </trkpt>
      <trkpt lat="43.27571" lon="2.07798">
        <ele>134.2</ele>
        <time>2026-05-27T08:06:38Z</time>
      </trkpt>
      <trkpt lat="43.27571" lon="2.07798">
        <ele>134.2</ele>
        <time>2026-05-27T08:06:43Z</time>
      </trkpt>
      <trkpt lat="43.27571" lon="2.07798">
        <ele>134.2</ele>
        <time>2026-05-27T08:06:48Z</time>
      </trkpt>
      <trkpt lat="43.27571" lon="2.07798">
        <ele>134.2</ele>
        <time>2026-05-27T08:06:53Z</time>
      </trkpt>
      <trkpt lat="43.27571" lon="2.07798">
        <ele>134.2</ele>
        <time>2026-05-27T08:06:58Z</time>
      </trkpt>
      <trkpt lat="43.27571" lon="2.07798">
        <ele>134.2</ele>
        <time>2026-05-27T08:07:03Z</time>
      </trkpt>
      <trkpt lat="43.27571" lon="2.07798">
        <ele>134.2</ele>
        <time>2026-05-27T08:07:08Z</time>
      </trkpt>
      <trkpt lat="43.27571" lon="2.07798">
        <ele>134.2</ele>
        <time>2026-05-27T08:07:13Z</time>
      </trkpt>
      <trkpt lat="43.27571" lon="2.07798">
        <ele>134.2</ele>
        <time>2026-05-27T08:07:18Z</time>
      </trkpt>
      <trkpt lat="43.27571" lon="2.07798">
        <ele>134.2</ele>
        <time>2026-05-27T08:07:23Z</time>
      </trkpt>
      <trkpt lat="43.27571" lon="2.07798">
        <ele>134.2</ele>
        <time>2026-05-27T08:07:28Z</time>
      </trkpt>
      <trkpt lat="43.27571" lon="2.07798">
        <ele>134.2</ele>
        <time>2026-05-27T08:07:33Z</time>
      </trkpt>
      <trkpt lat="43.27571" lon="2.07798">
        <ele>134.2</ele>
        <time>2026-05-27T08:07:38Z</time>
      </trkpt>
      <trkpt lat="43.27571" lon="2.07798">
        <ele>134.2</ele>
        <time>2026-05-27T08:07:43Z</time>
      </trkpt>
      <trkpt lat="43.27571" lon="2.07798">
        <ele>134.2</ele>
        <time>2026-05-27T08:07:48Z</time>
      </trkpt>
      <trkpt lat="43.27571" lon="2.07798">
        <ele>134.2</ele>
        <time>2026-05-27T08:07:53Z</time>
      </trkpt>
      <trkpt lat="43.27571" lon="2.07798">
        <ele>134.2</ele>
        <time>2026-05-27T08:07:58Z</time>
      </trkpt>
      <trkpt lat="43.27571" lon="2.07798">
        <ele>134.2</ele>
        <time>2026-05-27T08:08:03Z</time>
      </trkpt>
      <trkpt lat="43.27571" lon="2.07798">
        <ele>134.2</ele>
        <time>2026-05-27T08:08:08Z</time>
      </trkpt>
      <trkpt lat="43.27571" lon="2.07798">
        <ele>134.2</ele>
        <time>2026-05-27T08:08:13Z</time>
      </trkpt>
      <trkpt lat="43.27571" lon="2.07798">
        <ele>134.2</ele>
        <time>2026-05-27T08:08:18Z</time>
      </trkpt>
      <trkpt lat="43.27571" lon="2.07798">
        <ele>134.2</ele>
        <time>2026-05-27T08:08:23Z</time>
      </trkpt>
      <trkpt lat="43.27571" lon="2.07798">
        <ele>134.2</ele>
        <time>2026-05-27T08:08:28Z</time>
      </trkpt>
      <trkpt lat="43.27571" lon="2.07798">
        <ele>134.2</ele>
        <time>2026-05-27T08:08:33Z</time>
      </trkpt>
      <trkpt lat="43.27571" lon="2.07798">
        <ele>134.2</ele>
        <time>2026-05-27T08:08:38Z</time>
      </trkpt>
      <trkpt lat="43.27571" lon="2.07798">
        <ele>134.2</ele>
        <time>2026-05-27T08:08:43Z</time>
      </trkpt>
      <trkpt lat="43.27571" lon="2.07798">
        <ele>134.2</ele>
        <time>2026-05-27T08:08:48Z</time>
      </trkpt>
      <trkpt lat="43.27571" lon="2.07798">
        <ele>134.2</ele>
        <time>2026-05-27T08:08:53Z</time>
      </trkpt>
      <trkpt lat="43.27571" lon="2.07798">
        <ele>134.2</ele>
        <time>2026-05-27T08:08:58Z</time>
      </trkpt>
      <trkpt lat="43.27571" lon="2.07798">
        <ele>134.2</ele>
        <time>2026-05-27T08:09:03Z</time>
      </trkpt>
      <trkpt lat="43.27571" lon="2.07798">
        <ele>134.2</ele>
        <time>2026-05-27T08:09:08Z</time>
      </trkpt>
      <trkpt lat="43.27571" lon="2.07798">
        <ele>134.2</ele>
        <time>2026-05-27T08:09:13Z</time>
      </trkpt>
      <trkpt lat="43.27571" lon="2.07798">
        <ele>134.2</ele>
        <time>2026-05-27T08:09:18Z</time>
      </trkpt>
      <trkpt lat="43.27571" lon="2.07798">
        <ele>134.2</ele>
        <time>2026-05-27T08:09:23Z</time>
      </trkpt>
      <trkpt lat="43.27571" lon="2.07798">
        <ele>134.2</ele>
        <time>2026-05-27T08:09:28Z</time>
      </trkpt>
      <trkpt lat="43.27571" lon="2.07798">
        <ele>134.2</ele>
        <time>2026-05-27T08:09:33Z</time>
      </trkpt>
      <trkpt lat="43.27571" lon="2.07798">
        <ele>134.2</ele>
        <time>2026-05-27T08:09:38Z</time>
      </trkpt>
      <trkpt lat="43.27571" lon="2.07798">
        <ele>134.2</ele>
        <time>2026-05-27T08:09:43Z</time>
      </trkpt>
      <trkpt lat="43.27571" lon="2.07798">
        <ele>134.2</ele>
        <time>2026-05-27T08:09:48Z</time>
      </trkpt>
      <trkpt lat="43.27571" lon="2.07798">
        <ele>134.2</ele>
        <time>2026-05-27T08:09:53Z</time>
      </trkpt>
      <trkpt lat="43.27571" lon="2.07798">
        <ele>134.2</ele>
        <time>2026-05-27T08:09:58Z</time>
      </trkpt>
      <trkpt lat="43.27571" lon="2.07798">
        <ele>134.2</ele>
        <time>2026-05-27T08:10:03Z</time>
      </trkpt>
      <trkpt lat="43.27571" lon="2.07798">
        <ele>134.2</ele>
        <time>2026-05-27T08:10:08Z</time>
      </trkpt>
      <trkpt lat="43.27571" lon="2.07798">
        <ele>134.2</ele>
        <time>2026-05-27T08:10:13Z</time>
      </trkpt>
      <trkpt lat="43.27571" lon="2.07798">
        <ele>134.2</ele>
        <time>2026-05-27T08:10:18Z</time>
      </trkpt>
      <trkpt lat="43.27571" lon="2.07798">
        <ele>134.2</ele>
        <time>2026-05-27T08:10:23Z</time>
      </trkpt>
      <trkpt lat="43.27571" lon="2.07798">
        <ele>134.2</ele>
        <time>2026-05-27T08:10:28Z</time>
      </trkpt>
      <trkpt lat="43.27571" lon="2.07798">
        <ele>134.2</ele>
        <time>2026-05-27T08:10:33Z</time>
      </trkpt>
      <trkpt lat="43.27571" lon="2.07798">
        <ele>134.2</ele>
        <time>2026-05-27T08:10:38Z</time>
      </trkpt>
      <trkpt lat="43.27571" lon="2.07798">
        <ele>134.2</ele>
        <time>2026-05-27T08:10:43Z</time>
      </trkpt>
      <trkpt lat="43.27571" lon="2.07798">
        <ele>134.2</ele>
        <time>2026-05-27T08:10:48Z</time>
      </trkpt>
      <trkpt lat="43.27571" lon="2.07798">
        <ele>134.2</ele>
        <time>2026-05-27T08:10:53Z</time>
      </trkpt>
      <trkpt lat="43.27571" lon="2.07798">
        <ele>134.2</ele>
        <time>2026-05-27T08:10:58Z</time>
      </trkpt>
      <trkpt lat="43.27571" lon="2.07798">
        <ele>134.2</ele>
        <time>2026-05-27T08:11:03Z</time>
      </trkpt>
      <trkpt lat="43.27571" lon="2.07798">
        <ele>134.2</ele>
        <time>2026-05-27T08:11:08Z</time>
      </trkpt>
      <trkpt lat="43.27571" lon="2.07798">
        <ele>134.2</ele>
        <time>2026-05-27T08:11:13Z</time>
      </trkpt>
      <trkpt lat="43.27571" lon="2.07798">
        <ele>134.2</ele>
        <time>2026-05-27T08:11:18Z</time>
      </trkpt>
      <trkpt lat="43.27571" lon="2.07798">
        <ele>134.2</ele>
        <time>2026-05-27T08:11:23Z</time>
      </trkpt>
      <trkpt lat="43.27571" lon="2.07798">
        <ele>134.2</ele>
        <time>2026-05-27T08:11:28Z</time>
      </trkpt>
      <trkpt lat="43.27571" lon="2.07798">
        <ele>134.2</ele>
        <time>2026-05-27T08:11:33Z</time>
      </trkpt>
      <trkpt lat="43.27571" lon="2.07798">
        <ele>134.2</ele>
        <time>2026-05-27T08:11:38Z</time>
      </trkpt>
      <trkpt lat="43.27571" lon="2.07798">
        <ele>134.2</ele>
        <time>2026-05-27T08:11:43Z</time>
      </trkpt>
      <trkpt lat="43.27571" lon="2.07798">
        <ele>134.2</ele>
        <time>2026-05-27T08:11:48Z</time>
      </trkpt>
      <trkpt lat="43.27571" lon="2.07798">
        <ele>134.2</ele>
        <time>2026-05-27T08:11:53Z</time>
      </trkpt>
      <trkpt lat="43.27571" lon="2.07798">
        <ele>134.2</ele>
        <time>2026-05-27T08:11:58Z</time>
      </trkpt>
      <trkpt lat="43.27571" lon="2.07798">
        <ele>134.2</ele>
        <time>2026-05-27T08:12:03Z</time>
      </trkpt>
      <trkpt lat="43.27571" lon="2.07798">
        <ele>134.2</ele>
        <time>2026-05-27T08:12:08Z</time>
      </trkpt>
      <trkpt lat="43.27571" lon="2.07798">
        <ele>134.2</ele>
        <time>2026-05-27T08:12:13Z</time>
      </trkpt>
      <trkpt lat="43.27571" lon="2.07798">
        <ele>134.2</ele>
        <time>2026-05-27T08:12:18Z</time>
      </trkpt>
      <trkpt lat="43.27571" lon="2.07798">
        <ele>134.2</ele>
        <time>2026-05-27T08:12:23Z</time>
      </trkpt>
      <trkpt lat="43.27571" lon="2.07798">
        <ele>134.2</ele>
        <time>2026-05-27T08:12:28Z</time>
      </trkpt>
      <trkpt lat="43.27571" lon="2.07798">
        <ele>134.2</ele>
        <time>2026-05-27T08:12:33Z</time>
      </trkpt>
      <trkpt lat="43.27571" lon="2.07798">
        <ele>134.2</ele>
        <time>2026-05-27T08:12:38Z</time>
      </trkpt>
      <trkpt lat="43.27571" lon="2.07798">
        <ele>134.2</ele>
        <time>2026-05-27T08:12:43Z</time>
      </trkpt>
      <trkpt lat="43.27571" lon="2.07798">
        <ele>134.2</ele>
        <time>2026-05-27T08:12:48Z</time>
      </trkpt>
      <trkpt lat="43.27571" lon="2.07798">
        <ele>134.2</ele>
        <time>2026-05-27T08:12:53Z</time>
      </trkpt>
      <trkpt lat="43.27571" lon="2.07798">
        <ele>134.2</ele>
        <time>2026-05-27T08:12:58Z</time>
      </trkpt>
      <trkpt lat="43.27571" lon="2.07798">
        <ele>134.2</ele>
        <time>2026-05-27T08:13:03Z</time>
      </trkpt>
      <trkpt lat="43.27571" lon="2.07798">
        <ele>134.2</ele>
        <time>2026-05-27T08:13:08Z</time>
      </trkpt>
      <trkpt lat="43.27571" lon="2.07798">
        <ele>134.2</ele>
        <time>2026-05-27T08:13:13Z</time>
      </trkpt>
      <trkpt lat="43.27571" lon="2.07798">
        <ele>134.2</ele>
        <time>2026-05-27T08:13:18Z</time>
      </trkpt>
      <trkpt lat="43.27571" lon="2.07798">
        <ele>134.2</ele>
        <time>2026-05-27T08:13:23Z</time>
      </trkpt>
      <trkpt lat="43.27571" lon="2.07798">
        <ele>134.2</ele>
        <time>2026-05-27T08:13:28Z</time>
      </trkpt>
      <trkpt lat="43.27571" lon="2.07798">
        <ele>134.2</ele>
        <time>2026-05-27T08:13:33Z</time>
      </trkpt>
      <trkpt lat="43.27571" lon="2.07798">
        <ele>134.2</ele>
        <time>2026-05-27T08:13:38Z</time>
      </trkpt>
      <trkpt lat="43.27571" lon="2.07798">
        <ele>134.2</ele>
        <time>2026-05-27T08:13:43Z</time>
      </trkpt>
      <trkpt lat="43.27571" lon="2.07798">
        <ele>134.2</ele>
        <time>2026-05-27T08:13:48Z</time>
      </trkpt>
      <trkpt lat="43.27571" lon="2.07798">
        <ele>134.2</ele>
        <time>2026-05-27T08:13:53Z</time>
      </trkpt>
      <trkpt lat="43.27571" lon="2.07798">
        <ele>134.2</ele>
        <time>2026-05-27T08:13:58Z</time>
      </trkpt>
      <trkpt lat="43.27571" lon="2.07798">
        <ele>134.2</ele>
        <time>2026-05-27T08:14:03Z</time>
      </trkpt>
      <trkpt lat="43.27571" lon="2.07798">
        <ele>134.2</ele>
        <time>2026-05-27T08:14:08Z</time>
      </trkpt>
      <trkpt lat="43.27571" lon="2.07798">
        <ele>134.2</ele>
        <time>2026-05-27T08:14:13Z</time>
      </trkpt>
      <trkpt lat="43.27571" lon="2.07798">
        <ele>134.2</ele>
        <time>2026-05-27T08:14:18Z</time>
      </trkpt>
      <trkpt lat="43.27571" lon="2.07798">
        <ele>134.2</ele>
        <time>2026-05-27T08:14:23Z</time>
      </trkpt>
      <trkpt lat="43.27571" lon="2.07798">
        <ele>134.2</ele>
        <time>2026-05-27T08:14:28Z</time>
      </trkpt>
      <trkpt lat="43.27571" lon="2.07798">
        <ele>134.2</ele>
        <time>2026-05-27T08:14:33Z</time>
      </trkpt>
      <trkpt lat="43.27571" lon="2.07798">
        <ele>134.2</ele>
        <time>2026-05-27T08:14:38Z</time>
      </trkpt>
      <trkpt lat="43.27571" lon="2.07798">
        <ele>134.2</ele>
        <time>2026-05-27T08:14:43Z</time>
      </trkpt>
      <trkpt lat="43.27571" lon="2.07798">
        <ele>134.2</ele>
        <time>2026-05-27T08:14:48Z</time>
      </trkpt>
      <trkpt lat="43.27571" lon="2.07798">
        <ele>134.2</ele>
        <time>2026-05-27T08:14:53Z</time>
      </trkpt>
      <trkpt lat="43.27571" lon="2.07798">
        <ele>134.2</ele>
        <time>2026-05-27T08:14:58Z</time>
      </trkpt>
      <trkpt lat="43.27571" lon="2.07798">
        <ele>134.2</ele>
        <time>2026-05-27T08:15:03Z</time>
      </trkpt>
      <trkpt lat="43.27571" lon="2.07798">
        <ele>134.2</ele>
        <time>2026-05-27T08:15:08Z</time>
      </trkpt>
      <trkpt lat="43.27571" lon="2.07798">
        <ele>134.2</ele>
        <time>2026-05-27T08:15:13Z</time>
      </trkpt>
      <trkpt lat="43.27571" lon="2.07798">
        <ele>134.2</ele>
        <time>2026-05-27T08:15:18Z</time>
      </trkpt>
      <trkpt lat="43.27571" lon="2.07798">
        <ele>134.2</ele>
        <time>2026-05-27T08:15:23Z</time>
      </trkpt>
      <trkpt lat="43.27571" lon="2.07798">
        <ele>134.2</ele>
        <time>2026-05-27T08:15:28Z</time>
      </trkpt>
      <trkpt lat="43.27571" lon="2.07798">
        <ele>134.2</ele>
        <time>2026-05-27T08:15:33Z</time>
      </trkpt>
      <trkpt lat="43.27571" lon="2.07798">
        <ele>134.2</ele>
        <time>2026-05-27T08:15:38Z</time>
      </trkpt>
      <trkpt lat="43.27571" lon="2.07798">
        <ele>134.2</ele>
        <time>2026-05-27T08:15:43Z</time>
      </trkpt>
      <trkpt lat="43.27571" lon="2.07798">
        <ele>134.2</ele>
        <time>2026-05-27T08:15:48Z</time>
      </trkpt>
      <trkpt lat="43.27571" lon="2.07798">
        <ele>134.2</ele>
        <time>2026-05-27T08:15:53Z</time>
      </trkpt>
      <trkpt lat="43.27571" lon="2.07798">
        <ele>134.2</ele>
        <time>2026-05-27T08:15:58Z</time>
      </trkpt>
      <trkpt lat="43.27571" lon="2.07798">
        <ele>134.2</ele>
        <time>2026-05-27T08:16:03Z</time>
      </trkpt>
      <trkpt lat="43.27571" lon="2.07798">
        <ele>134.2</ele>
        <time>2026-05-27T08:16:08Z</time>
      </trkpt>
      <trkpt lat="43.27571" lon="2.07798">
        <ele>134.2</ele>
        <time>2026-05-27T08:16:13Z</time>
      </trkpt>
      <trkpt lat="43.27571" lon="2.07798">
        <ele>134.2</ele>
        <time>2026-05-27T08:16:18Z</time>
      </trkpt>
      <trkpt lat="43.27571" lon="2.07798">
        <ele>134.2</ele>
        <time>2026-05-27T08:16:23Z</time>
      </trkpt>
      <trkpt lat="43.27571" lon="2.07798">
        <ele>134.2</ele>
        <time>2026-05-27T08:16:28Z</time>
      </trkpt>
      <trkpt lat="43.27571" lon="2.07798">
        <ele>134.2</ele>
        <time>2026-05-27T08:16:33Z</time>
      </trkpt>
      <trkpt lat="43.27571" lon="2.07798">
        <ele>134.2</ele>
        <time>2026-05-27T08:16:38Z</time>
      </trkpt>
      <trkpt lat="43.27571" lon="2.07798">
        <ele>134.2</ele>
        <time>2026-05-27T08:16:43Z</time>
      </trkpt>
      <trkpt lat="43.27571" lon="2.07798">
        <ele>134.2</ele>
        <time>2026-05-27T08:16:48Z</time>
      </trkpt>
      <trkpt lat="43.27571" lon="2.07798">
        <ele>134.2</ele>
        <time>2026-05-27T08:16:53Z</time>
      </trkpt>
      <trkpt lat="43.27571" lon="2.07798">
        <ele>134.2</ele>
        <time>2026-05-27T08:16:58Z</time>
      </trkpt>
      <trkpt lat="43.27571" lon="2.07798">
        <ele>134.2</ele>
        <time>2026-05-27T08:17:03Z</time>
      </trkpt>
      <trkpt lat="43.27571" lon="2.07798">
        <ele>134.2</ele>
        <time>2026-05-27T08:17:08Z</time>
      </trkpt>
      <trkpt lat="43.27571" lon="2.07798">
        <ele>134.2</ele>
        <time>2026-05-27T08:17:13Z</time>
      </trkpt>
      <trkpt lat="43.27571" lon="2.07798">
        <ele>134.2</ele>
        <time>2026-05-27T08:17:18Z</time>
      </trkpt>
      <trkpt lat="43.27571" lon="2.07798">
        <ele>134.2</ele>
        <time>2026-05-27T08:17:23Z</time>
      </trkpt>
      <trkpt lat="43.27571" lon="2.07798">
        <ele>134.2</ele>
        <time>2026-05-27T08:17:28Z</time>
      </trkpt>
      <trkpt lat="43.27571" lon="2.07798">
        <ele>134.2</ele>
        <time>2026-05-27T08:17:33Z</time>
      </trkpt>
      <trkpt lat="43.27571" lon="2.07798">
        <ele>134.2</ele>
        <time>2026-05-27T08:17:38Z</time>
      </trkpt>
      <trkpt lat="43.27571" lon="2.07798">
        <ele>134.2</ele>
        <time>2026-05-27T08:17:43Z</time>
      </trkpt>
      <trkpt lat="43.27571" lon="2.07798">
        <ele>134.2</ele>
        <time>2026-05-27T08:17:48Z</time>
      </trkpt>
      <trkpt lat="43.27571" lon="2.07798">
        <ele>134.2</ele>
        <time>2026-05-27T08:17:53Z</time>
      </trkpt>
      <trkpt lat="43.27571" lon="2.07798">
        <ele>134.2</ele>
        <time>2026-05-27T08:17:58Z</time>
      </trkpt>
      <trkpt lat="43.27571" lon="2.07798">
        <ele>134.2</ele>
        <time>2026-05-27T08:18:03Z</time>
      </trkpt>
      <trkpt lat="43.27571" lon="2.07798">
        <ele>134.2</ele>
        <time>2026-05-27T08:18:08Z</time>
      </trkpt>
      <trkpt lat="43.27571" lon="2.07798">
        <ele>134.2</ele>
        <time>2026-05-27T08:18:13Z</time>
      </trkpt>
      <trkpt lat="43.27571" lon="2.07798">
        <ele>134.2</ele>
        <time>2026-05-27T08:18:18Z</time>
      </trkpt>
      <trkpt lat="43.27571" lon="2.07798">
        <ele>134.2</ele>
        <time>2026-05-27T08:18:23Z</time>
      </trkpt>
      <trkpt lat="43.27571" lon="2.07798">
        <ele>134.2</ele>
        <time>2026-05-27T08:18:28Z</time>
      </trkpt>
      <trkpt lat="43.27571" lon="2.07798">
        <ele>134.2</ele>
        <time>2026-05-27T08:18:33Z</time>
      </trkpt>
      <trkpt lat="43.27571" lon="2.07798">
        <ele>134.2</ele>
        <time>2026-05-27T08:18:38Z</time>
      </trkpt>
      <trkpt lat="43.27571" lon="2.07798">
        <ele>134.2</ele>
        <time>2026-05-27T08:18:43Z</time>
      </trkpt>
      <trkpt lat="43.27571" lon="2.07798">
        <ele>134.2</ele>
        <time>2026-05-27T08:18:48Z</time>
      </trkpt>
      <trkpt lat="43.27571" lon="2.07798">
        <ele>134.2</ele>
        <time>2026-05-27T08:18:53Z</time>
      </trkpt>
      <trkpt lat="43.27571" lon="2.07798">
        <ele>134.2</ele>
        <time>2026-05-27T08:18:58Z</time>
      </trkpt>
      <trkpt lat="43.27571" lon="2.07798">
        <ele>134.2</ele>
        <time>2026-05-27T08:19:03Z</time>
      </trkpt>
      <trkpt lat="43.27571" lon="2.07798">
        <ele>134.2</ele>
        <time>2026-05-27T08:19:08Z</time>
      </trkpt>
      <trkpt lat="43.27571" lon="2.07798">
        <ele>134.2</ele>
        <time>2026-05-27T08:19:13Z</time>
      </trkpt>
      <trkpt lat="43.27571" lon="2.07798">
        <ele>134.2</ele>
        <time>2026-05-27T08:19:18Z</time>
      </trkpt>
      <trkpt lat="43.27571" lon="2.07798">
        <ele>134.2</ele>
        <time>2026-05-27T08:19:23Z</time>
      </trkpt>
      <trkpt lat="43.27571" lon="2.07798">
        <ele>134.2</ele>
        <time>2026-05-27T08:19:28Z</time>
      </trkpt>
      <trkpt lat="43.27571" lon="2.07798">
        <ele>134.2</ele>
        <time>2026-05-27T08:19:33Z</time>
      </trkpt>
      <trkpt lat="43.27571" lon="2.07798">
        <ele>134.2</ele>
        <time>2026-05-27T08:19:38Z</time>
      </trkpt>
      <trkpt lat="43.27571" lon="2.07798">
        <ele>134.2</ele>
        <time>2026-05-27T08:19:43Z</time>
      </trkpt>
      <trkpt lat="43.27571" lon="2.07798">
        <ele>134.2</ele>
        <time>2026-05-27T08:19:48Z</time>
      </trkpt>
      <trkpt lat="43.27571" lon="2.07798">
        <ele>134.2</ele>
        <time>2026-05-27T08:19:53Z</time>
      </trkpt>
      <trkpt lat="43.27571" lon="2.07798">
        <ele>134.2</ele>
        <time>2026-05-27T08:19:58Z</time>
      </trkpt>
      <trkpt lat="43.27571" lon="2.07798">
        <ele>134.2</ele>
        <time>2026-05-27T08:20:03Z</time>
      </trkpt>
      <trkpt lat="43.27571" lon="2.07798">
        <ele>134.2</ele>
        <time>2026-05-27T08:20:08Z</time>
      </trkpt>
      <trkpt lat="43.27571" lon="2.07798">
        <ele>134.2</ele>
        <time>2026-05-27T08:20:13Z</time>
      </trkpt>
      <trkpt lat="43.27571" lon="2.07798">
        <ele>134.2</ele>
        <time>2026-05-27T08:20:18Z</time>
      </trkpt>
      <trkpt lat="43.27571" lon="2.07798">
        <ele>134.2</ele>
        <time>2026-05-27T08:20:23Z</time>
      </trkpt>
      <trkpt lat="43.27571" lon="2.07798">
        <ele>134.2</ele>
        <time>2026-05-27T08:20:28Z</time>
      </trkpt>
      <trkpt lat="43.27571" lon="2.07798">
        <ele>134.2</ele>
        <time>2026-05-27T08:20:33Z</time>
      </trkpt>
      <trkpt lat="43.27571" lon="2.07798">
        <ele>134.2</ele>
        <time>2026-05-27T08:20:38Z</time>
      </trkpt>
      <trkpt lat="43.27571" lon="2.07798">
        <ele>134.2</ele>
        <time>2026-05-27T08:20:43Z</time>
      </trkpt>
      <trkpt lat="43.27571" lon="2.07798">
        <ele>134.2</ele>
        <time>2026-05-27T08:20:48Z</time>
      </trkpt>
      <trkpt lat="43.27571" lon="2.07798">
        <ele>134.2</ele>
        <time>2026-05-27T08:20:53Z</time>
      </trkpt>
      <trkpt lat="43.27571" lon="2.07798">
        <ele>134.2</ele>
        <time>2026-05-27T08:20:58Z</time>
      </trkpt>
      <trkpt lat="43.27571" lon="2.07798">
        <ele>134.2</ele>
        <time>2026-05-27T08:21:03Z</time>
      </trkpt>
      <trkpt lat="43.27571" lon="2.07798">
        <ele>134.2</ele>
        <time>2026-05-27T08:21:08Z</time>
      </trkpt>
      <trkpt lat="43.27571" lon="2.07798">
        <ele>134.2</ele>
        <time>2026-05-27T08:21:13Z</time>
      </trkpt>
      <trkpt lat="43.27571" lon="2.07798">
        <ele>134.2</ele>
        <time>2026-05-27T08:21:18Z</time>
      </trkpt>
      <trkpt lat="43.27571" lon="2.07798">
        <ele>134.2</ele>
        <time>2026-05-27T08:21:23Z</time>
      </trkpt>
      <trkpt lat="43.27571" lon="2.07798">
        <ele>134.2</ele>
        <time>2026-05-27T08:21:28Z</time>
      </trkpt>
      <trkpt lat="43.27571" lon="2.07798">
        <ele>134.2</ele>
        <time>2026-05-27T08:21:33Z</time>
      </trkpt>
      <trkpt lat="43.27571" lon="2.07798">
        <ele>134.2</ele>
        <time>2026-05-27T08:21:38Z</time>
      </trkpt>
      <trkpt lat="43.27571" lon="2.07798">
        <ele>134.2</ele>
        <time>2026-05-27T08:21:43Z</time>
      </trkpt>
      <trkpt lat="43.27571" lon="2.07798">
        <ele>134.2</ele>
        <time>2026-05-27T08:21:48Z</time>
      </trkpt>
      <trkpt lat="43.27571" lon="2.07798">
        <ele>134.2</ele>
        <time>2026-05-27T08:21:53Z</time>
      </trkpt>
      <trkpt lat="43.27571" lon="2.07798">
        <ele>134.2</ele>
        <time>2026-05-27T08:21:58Z</time>
      </trkpt>
      <trkpt lat="43.27571" lon="2.07798">
        <ele>134.2</ele>
        <time>2026-05-27T08:22:03Z</time>
      </trkpt>
      <trkpt lat="43.27571" lon="2.07798">
        <ele>134.2</ele>
        <time>2026-05-27T08:22:08Z</time>
      </trkpt>
      <trkpt lat="43.27571" lon="2.07798">
        <ele>134.2</ele>
        <time>2026-05-27T08:22:13Z</time>
      </trkpt>
      <trkpt lat="43.27571" lon="2.07798">
        <ele>134.2</ele>
        <time>2026-05-27T08:22:18Z</time>
      </trkpt>
      <trkpt lat="43.27571" lon="2.07798">
        <ele>134.2</ele>
        <time>2026-05-27T08:22:23Z</time>
      </trkpt>
      <trkpt lat="43.27571" lon="2.07798">
        <ele>134.2</ele>
        <time>2026-05-27T08:22:28Z</time>
      </trkpt>
      <trkpt lat="43.27571" lon="2.07798">
        <ele>134.2</ele>
        <time>2026-05-27T08:22:33Z</time>
      </trkpt>
      <trkpt lat="43.27571" lon="2.07798">
        <ele>134.2</ele>
        <time>2026-05-27T08:22:38Z</time>
      </trkpt>
      <trkpt lat="43.27571" lon="2.07798">
        <ele>134.2</ele>
        <time>2026-05-27T08:22:43Z</time>
      </trkpt>
      <trkpt lat="43.27571" lon="2.07798">
        <ele>134.2</ele>
        <time>2026-05-27T08:22:48Z</time>
      </trkpt>
      <trkpt lat="43.27571" lon="2.07798">
        <ele>134.2</ele>
        <time>2026-05-27T08:22:53Z</time>
      </trkpt>
      <trkpt lat="43.27571" lon="2.07798">
        <ele>134.2</ele>
        <time>2026-05-27T08:22:58Z</time>
      </trkpt>
      <trkpt lat="43.27571" lon="2.07798">
        <ele>134.2</ele>
        <time>2026-05-27T08:23:03Z</time>
      </trkpt>
      <trkpt lat="43.27571" lon="2.07798">
        <ele>134.2</ele>
        <time>2026-05-27T08:23:08Z</time>
      </trkpt>
      <trkpt lat="43.27571" lon="2.07798">
        <ele>134.2</ele>
        <time>2026-05-27T08:23:13Z</time>
      </trkpt>
      <trkpt lat="43.27571" lon="2.07798">
        <ele>134.2</ele>
        <time>2026-05-27T08:23:18Z</time>
      </trkpt>
      <trkpt lat="43.27571" lon="2.07798">
        <ele>134.2</ele>
        <time>2026-05-27T08:23:23Z</time>
      </trkpt>
      <trkpt lat="43.27571" lon="2.07798">
        <ele>134.2</ele>
        <time>2026-05-27T08:23:28Z</time>
      </trkpt>
      <trkpt lat="43.27571" lon="2.07798">
        <ele>134.2</ele>
        <time>2026-05-27T08:23:33Z</time>
      </trkpt>
      <trkpt lat="43.27571" lon="2.07798">
        <ele>134.2</ele>
        <time>2026-05-27T08:23:38Z</time>
      </trkpt>
      <trkpt lat="43.27571" lon="2.07798">
        <ele>134.2</ele>
        <time>2026-05-27T08:23:43Z</time>
      </trkpt>
      <trkpt lat="43.27571" lon="2.07798">
        <ele>134.2</ele>
        <time>2026-05-27T08:23:48Z</time>
      </trkpt>
      <trkpt lat="43.27571" lon="2.07798">
        <ele>134.2</ele>
        <time>2026-05-27T08:23:53Z</time>
      </trkpt>
      <trkpt lat="43.27571" lon="2.07798">
        <ele>134.2</ele>
        <time>2026-05-27T08:23:58Z</time>
      </trkpt>
      <trkpt lat="43.27571" lon="2.07798">
        <ele>134.2</ele>
        <time>2026-05-27T08:24:03Z</time>
      </trkpt>
      <trkpt lat="43.27571" lon="2.07798">
        <ele>134.2</ele>
        <time>2026-05-27T08:24:08Z</time>
      </trkpt>
      <trkpt lat="43.27571" lon="2.07798">
        <ele>134.2</ele>
        <time>2026-05-27T08:24:13Z</time>
      </trkpt>
      <trkpt lat="43.27571" lon="2.07798">
        <ele>134.2</ele>
        <time>2026-05-27T08:24:18Z</time>
      </trkpt>
      <trkpt lat="43.27571" lon="2.07798">
        <ele>134.2</ele>
        <time>2026-05-27T08:24:23Z</time>
      </trkpt>
      <trkpt lat="43.27571" lon="2.07798">
        <ele>134.2</ele>
        <time>2026-05-27T08:24:28Z</time>
      </trkpt>
      <trkpt lat="43.27571" lon="2.07798">
        <ele>134.2</ele>
        <time>2026-05-27T08:24:33Z</time>
      </trkpt>
      <trkpt lat="43.27571" lon="2.07798">
        <ele>134.2</ele>
        <time>2026-05-27T08:24:38Z</time>
      </trkpt>
      <trkpt lat="43.27571" lon="2.07798">
        <ele>134.2</ele>
        <time>2026-05-27T08:24:43Z</time>
      </trkpt>
      <trkpt lat="43.27571" lon="2.07798">
        <ele>134.2</ele>
        <time>2026-05-27T08:24:48Z</time>
      </trkpt>
      <trkpt lat="43.27571" lon="2.07798">
        <ele>134.2</ele>
        <time>2026-05-27T08:24:53Z</time>
      </trkpt>
      <trkpt lat="43.27571" lon="2.07798">
        <ele>134.2</ele>
        <time>2026-05-27T08:24:58Z</time>
      </trkpt>
      <trkpt lat="43.27571" lon="2.07798">
        <ele>134.2</ele>
        <time>2026-05-27T08:25:03Z</time>
      </trkpt>
      <trkpt lat="43.27571" lon="2.07798">
        <ele>134.2</ele>
        <time>2026-05-27T08:25:08Z</time>
      </trkpt>
      <trkpt lat="43.27571" lon="2.07798">
        <ele>134.2</ele>
        <time>2026-05-27T08:25:13Z</time>
      </trkpt>
      <trkpt lat="43.27571" lon="2.07798">
        <ele>134.2</ele>
        <time>2026-05-27T08:25:18Z</time>
      </trkpt>
      <trkpt lat="43.27571" lon="2.07798">
        <ele>134.2</ele>
        <time>2026-05-27T08:25:23Z</time>
      </trkpt>
      <trkpt lat="43.27571" lon="2.07798">
        <ele>134.2</ele>
        <time>2026-05-27T08:25:28Z</time>
      </trkpt>
      <trkpt lat="43.27571" lon="2.07798">
        <ele>134.2</ele>
        <time>2026-05-27T08:25:33Z</time>
      </trkpt>
      <trkpt lat="43.27571" lon="2.07798">
        <ele>134.2</ele>
        <time>2026-05-27T08:25:38Z</time>
      </trkpt>
      <trkpt lat="43.27571" lon="2.07798">
        <ele>134.2</ele>
        <time>2026-05-27T08:25:43Z</time>
      </trkpt>
      <trkpt lat="43.27571" lon="2.07798">
        <ele>134.2</ele>
        <time>2026-05-27T08:25:48Z</time>
      </trkpt>
      <trkpt lat="43.27573" lon="2.07784">
        <ele>134.2</ele>
        <time>2026-05-27T08:25:53Z</time>
      </trkpt>
      <trkpt lat="43.27573" lon="2.07784">
        <ele>134.2</ele>
        <time>2026-05-27T08:25:58Z</time>
      </trkpt>
      <trkpt lat="43.27573" lon="2.07784">
        <ele>134.2</ele>
        <time>2026-05-27T08:26:04Z</time>
      </trkpt>
      <trkpt lat="43.27573" lon="2.07784">
        <ele>134.2</ele>
        <time>2026-05-27T08:26:09Z</time>
      </trkpt>
      <trkpt lat="43.27573" lon="2.07784">
        <ele>134.2</ele>
        <time>2026-05-27T08:26:14Z</time>
      </trkpt>
      <trkpt lat="43.27571" lon="2.078">
        <ele>134.2</ele>
        <time>2026-05-27T08:26:19Z</time>
      </trkpt>
      <trkpt lat="43.2757" lon="2.07808">
        <ele>134.2</ele>
        <time>2026-05-27T08:26:24Z</time>
      </trkpt>
      <trkpt lat="43.27569" lon="2.07815">
        <ele>134.2</ele>
        <time>2026-05-27T08:26:29Z</time>
      </trkpt>
      <trkpt lat="43.27568" lon="2.07822">
        <ele>134.2</ele>
        <time>2026-05-27T08:26:34Z</time>
      </trkpt>
      <trkpt lat="43.27567" lon="2.07829">
        <ele>134.2</ele>
        <time>2026-05-27T08:26:39Z</time>
      </trkpt>
      <trkpt lat="43.27567" lon="2.07836">
        <ele>134.2</ele>
        <time>2026-05-27T08:26:44Z</time>
      </trkpt>
      <trkpt lat="43.27566" lon="2.07841">
        <ele>134.3</ele>
        <time>2026-05-27T08:26:49Z</time>
      </trkpt>
      <trkpt lat="43.27561" lon="2.07845">
        <ele>134.3</ele>
        <time>2026-05-27T08:26:54Z</time>
      </trkpt>
      <trkpt lat="43.27556" lon="2.07849">
        <ele>134.4</ele>
        <time>2026-05-27T08:26:59Z</time>
      </trkpt>
      <trkpt lat="43.27551" lon="2.07849">
        <ele>134.4</ele>
        <time>2026-05-27T08:27:04Z</time>
      </trkpt>
      <trkpt lat="43.27546" lon="2.0785">
        <ele>134.5</ele>
        <time>2026-05-27T08:27:09Z</time>
      </trkpt>
      <trkpt lat="43.2754" lon="2.07849">
        <ele>134.5</ele>
        <time>2026-05-27T08:27:14Z</time>
      </trkpt>
      <trkpt lat="43.27535" lon="2.0785">
        <ele>134.5</ele>
        <time>2026-05-27T08:27:19Z</time>
      </trkpt>
      <trkpt lat="43.27529" lon="2.0785">
        <ele>134.6</ele>
        <time>2026-05-27T08:27:24Z</time>
      </trkpt>
      <trkpt lat="43.27525" lon="2.07848">
        <ele>134.6</ele>
        <time>2026-05-27T08:27:29Z</time>
      </trkpt>
      <trkpt lat="43.2752" lon="2.07846">
        <ele>134.7</ele>
        <time>2026-05-27T08:27:34Z</time>
      </trkpt>
      <trkpt lat="43.27515" lon="2.07843">
        <ele>134.7</ele>
        <time>2026-05-27T08:27:39Z</time>
      </trkpt>
      <trkpt lat="43.2751" lon="2.07843">
        <ele>134.8</ele>
        <time>2026-05-27T08:27:44Z</time>
      </trkpt>
      <trkpt lat="43.27505" lon="2.07843">
        <ele>134.8</ele>
        <time>2026-05-27T08:27:49Z</time>
      </trkpt>
      <trkpt lat="43.27501" lon="2.0784">
        <ele>134.9</ele>
        <time>2026-05-27T08:27:54Z</time>
      </trkpt>
      <trkpt lat="43.27497" lon="2.07835">
        <ele>135.2</ele>
        <time>2026-05-27T08:27:59Z</time>
      </trkpt>
      <trkpt lat="43.27493" lon="2.07831">
        <ele>135.6</ele>
        <time>2026-05-27T08:28:04Z</time>
      </trkpt>
      <trkpt lat="43.2749" lon="2.07826">
        <ele>135.9</ele>
        <time>2026-05-27T08:28:09Z</time>
      </trkpt>
      <trkpt lat="43.27486" lon="2.0782">
        <ele>136.3</ele>
        <time>2026-05-27T08:28:14Z</time>
      </trkpt>
      <trkpt lat="43.27482" lon="2.07816">
        <ele>136.7</ele>
        <time>2026-05-27T08:28:19Z</time>
      </trkpt>
      <trkpt lat="43.27478" lon="2.07811">
        <ele>137</ele>
        <time>2026-05-27T08:28:24Z</time>
      </trkpt>
      <trkpt lat="43.27474" lon="2.07806">
        <ele>137.4</ele>
        <time>2026-05-27T08:28:29Z</time>
      </trkpt>
      <trkpt lat="43.27469" lon="2.07803">
        <ele>137.8</ele>
        <time>2026-05-27T08:28:34Z</time>
      </trkpt>
      <trkpt lat="43.27465" lon="2.07798">
        <ele>138.2</ele>
        <time>2026-05-27T08:28:39Z</time>
      </trkpt>
      <trkpt lat="43.2746" lon="2.07794">
        <ele>138.6</ele>
        <time>2026-05-27T08:28:44Z</time>
      </trkpt>
      <trkpt lat="43.27456" lon="2.0779">
        <ele>138.9</ele>
        <time>2026-05-27T08:28:49Z</time>
      </trkpt>
      <trkpt lat="43.27451" lon="2.07786">
        <ele>139.4</ele>
        <time>2026-05-27T08:28:54Z</time>
      </trkpt>
      <trkpt lat="43.27447" lon="2.07781">
        <ele>139.7</ele>
        <time>2026-05-27T08:28:59Z</time>
      </trkpt>
      <trkpt lat="43.27442" lon="2.07776">
        <ele>140.1</ele>
        <time>2026-05-27T08:29:04Z</time>
      </trkpt>
      <trkpt lat="43.27437" lon="2.07771">
        <ele>140.5</ele>
        <time>2026-05-27T08:29:09Z</time>
      </trkpt>
      <trkpt lat="43.27434" lon="2.07768">
        <ele>140.7</ele>
        <time>2026-05-27T08:29:14Z</time>
      </trkpt>
      <trkpt lat="43.2743" lon="2.07764">
        <ele>141</ele>
        <time>2026-05-27T08:29:19Z</time>
      </trkpt>
      <trkpt lat="43.27425" lon="2.07759">
        <ele>141.4</ele>
        <time>2026-05-27T08:29:24Z</time>
      </trkpt>
      <trkpt lat="43.27419" lon="2.07754">
        <ele>141.8</ele>
        <time>2026-05-27T08:29:29Z</time>
      </trkpt>
      <trkpt lat="43.27414" lon="2.0775">
        <ele>142.2</ele>
        <time>2026-05-27T08:29:34Z</time>
      </trkpt>
      <trkpt lat="43.27409" lon="2.07746">
        <ele>142.3</ele>
        <time>2026-05-27T08:29:39Z</time>
      </trkpt>
      <trkpt lat="43.27405" lon="2.07741">
        <ele>142.4</ele>
        <time>2026-05-27T08:29:44Z</time>
      </trkpt>
      <trkpt lat="43.27403" lon="2.07741">
        <ele>142.5</ele>
        <time>2026-05-27T08:29:49Z</time>
      </trkpt>
      <trkpt lat="43.27403" lon="2.07741">
        <ele>142.5</ele>
        <time>2026-05-27T08:29:54Z</time>
      </trkpt>
      <trkpt lat="43.27403" lon="2.07741">
        <ele>142.5</ele>
        <time>2026-05-27T08:29:59Z</time>
      </trkpt>
      <trkpt lat="43.27403" lon="2.07741">
        <ele>142.5</ele>
        <time>2026-05-27T08:30:04Z</time>
      </trkpt>
      <trkpt lat="43.27403" lon="2.07741">
        <ele>142.5</ele>
        <time>2026-05-27T08:30:09Z</time>
      </trkpt>
      <trkpt lat="43.27403" lon="2.07741">
        <ele>142.5</ele>
        <time>2026-05-27T08:30:14Z</time>
      </trkpt>
      <trkpt lat="43.27403" lon="2.07741">
        <ele>142.5</ele>
        <time>2026-05-27T08:30:19Z</time>
      </trkpt>
      <trkpt lat="43.27403" lon="2.07741">
        <ele>142.5</ele>
        <time>2026-05-27T08:30:24Z</time>
      </trkpt>
      <trkpt lat="43.27403" lon="2.07741">
        <ele>142.5</ele>
        <time>2026-05-27T08:30:29Z</time>
      </trkpt>
      <trkpt lat="43.27403" lon="2.07741">
        <ele>142.5</ele>
        <time>2026-05-27T08:30:34Z</time>
      </trkpt>
      <trkpt lat="43.27403" lon="2.07741">
        <ele>142.5</ele>
        <time>2026-05-27T08:30:39Z</time>
      </trkpt>
      <trkpt lat="43.27403" lon="2.07741">
        <ele>142.5</ele>
        <time>2026-05-27T08:30:44Z</time>
      </trkpt>
      <trkpt lat="43.27403" lon="2.07741">
        <ele>142.5</ele>
        <time>2026-05-27T08:30:49Z</time>
      </trkpt>
      <trkpt lat="43.27403" lon="2.07741">
        <ele>142.5</ele>
        <time>2026-05-27T08:30:54Z</time>
      </trkpt>
      <trkpt lat="43.27403" lon="2.07741">
        <ele>142.5</ele>
        <time>2026-05-27T08:30:59Z</time>
      </trkpt>
      <trkpt lat="43.27403" lon="2.07741">
        <ele>142.5</ele>
        <time>2026-05-27T08:31:04Z</time>
      </trkpt>
      <trkpt lat="43.27403" lon="2.07741">
        <ele>142.5</ele>
        <time>2026-05-27T08:31:09Z</time>
      </trkpt>
      <trkpt lat="43.27403" lon="2.07741">
        <ele>142.5</ele>
        <time>2026-05-27T08:31:14Z</time>
      </trkpt>
      <trkpt lat="43.27403" lon="2.07741">
        <ele>142.5</ele>
        <time>2026-05-27T08:31:19Z</time>
      </trkpt>
      <trkpt lat="43.27403" lon="2.07741">
        <ele>142.5</ele>
        <time>2026-05-27T08:31:24Z</time>
      </trkpt>
      <trkpt lat="43.27403" lon="2.07741">
        <ele>142.5</ele>
        <time>2026-05-27T08:31:29Z</time>
      </trkpt>
      <trkpt lat="43.27403" lon="2.07741">
        <ele>142.5</ele>
        <time>2026-05-27T08:31:34Z</time>
      </trkpt>
      <trkpt lat="43.27403" lon="2.07741">
        <ele>142.5</ele>
        <time>2026-05-27T08:31:39Z</time>
      </trkpt>
      <trkpt lat="43.27403" lon="2.07741">
        <ele>142.5</ele>
        <time>2026-05-27T08:31:44Z</time>
      </trkpt>
      <trkpt lat="43.27403" lon="2.07741">
        <ele>142.5</ele>
        <time>2026-05-27T08:31:49Z</time>
      </trkpt>
      <trkpt lat="43.27403" lon="2.07741">
        <ele>142.5</ele>
        <time>2026-05-27T08:31:54Z</time>
      </trkpt>
      <trkpt lat="43.27403" lon="2.07741">
        <ele>142.5</ele>
        <time>2026-05-27T08:31:59Z</time>
      </trkpt>
      <trkpt lat="43.27403" lon="2.07741">
        <ele>142.5</ele>
        <time>2026-05-27T08:32:04Z</time>
      </trkpt>
      <trkpt lat="43.27403" lon="2.07741">
        <ele>142.5</ele>
        <time>2026-05-27T08:32:09Z</time>
      </trkpt>
      <trkpt lat="43.27403" lon="2.07741">
        <ele>142.5</ele>
        <time>2026-05-27T08:32:14Z</time>
      </trkpt>
      <trkpt lat="43.27403" lon="2.07741">
        <ele>142.5</ele>
        <time>2026-05-27T08:32:19Z</time>
      </trkpt>
      <trkpt lat="43.27403" lon="2.07741">
        <ele>142.5</ele>
        <time>2026-05-27T08:32:24Z</time>
      </trkpt>
      <trkpt lat="43.27403" lon="2.07741">
        <ele>142.5</ele>
        <time>2026-05-27T08:32:29Z</time>
      </trkpt>
      <trkpt lat="43.27403" lon="2.07741">
        <ele>142.5</ele>
        <time>2026-05-27T08:32:34Z</time>
      </trkpt>
      <trkpt lat="43.27403" lon="2.07741">
        <ele>142.5</ele>
        <time>2026-05-27T08:32:39Z</time>
      </trkpt>
      <trkpt lat="43.27403" lon="2.07741">
        <ele>142.5</ele>
        <time>2026-05-27T08:32:44Z</time>
      </trkpt>
      <trkpt lat="43.27403" lon="2.07741">
        <ele>142.5</ele>
        <time>2026-05-27T08:32:49Z</time>
      </trkpt>
      <trkpt lat="43.27403" lon="2.07741">
        <ele>142.5</ele>
        <time>2026-05-27T08:32:54Z</time>
      </trkpt>
      <trkpt lat="43.27397" lon="2.07735">
        <ele>142.6</ele>
        <time>2026-05-27T08:32:59Z</time>
      </trkpt>
      <trkpt lat="43.27393" lon="2.07732">
        <ele>142.7</ele>
        <time>2026-05-27T08:33:04Z</time>
      </trkpt>
      <trkpt lat="43.27389" lon="2.07728">
        <ele>142.8</ele>
        <time>2026-05-27T08:33:09Z</time>
      </trkpt>
      <trkpt lat="43.27384" lon="2.07724">
        <ele>142.9</ele>
        <time>2026-05-27T08:33:14Z</time>
      </trkpt>
      <trkpt lat="43.2738" lon="2.07721">
        <ele>143</ele>
        <time>2026-05-27T08:33:19Z</time>
      </trkpt>
      <trkpt lat="43.27376" lon="2.07718">
        <ele>143.1</ele>
        <time>2026-05-27T08:33:24Z</time>
      </trkpt>
      <trkpt lat="43.27372" lon="2.07715">
        <ele>143.2</ele>
        <time>2026-05-27T08:33:29Z</time>
      </trkpt>
      <trkpt lat="43.27367" lon="2.07711">
        <ele>143.3</ele>
        <time>2026-05-27T08:33:34Z</time>
      </trkpt>
      <trkpt lat="43.27363" lon="2.07709">
        <ele>143.4</ele>
        <time>2026-05-27T08:33:39Z</time>
      </trkpt>
      <trkpt lat="43.27362" lon="2.07706">
        <ele>143.3</ele>
        <time>2026-05-27T08:33:44Z</time>
      </trkpt>
      <trkpt lat="43.27358" lon="2.07702">
        <ele>143.4</ele>
        <time>2026-05-27T08:33:49Z</time>
      </trkpt>
      <trkpt lat="43.27354" lon="2.07698">
        <ele>143.4</ele>
        <time>2026-05-27T08:33:54Z</time>
      </trkpt>
      <trkpt lat="43.2735" lon="2.07695">
        <ele>143.5</ele>
        <time>2026-05-27T08:33:59Z</time>
      </trkpt>
      <trkpt lat="43.27346" lon="2.07691">
        <ele>143.5</ele>
        <time>2026-05-27T08:34:04Z</time>
      </trkpt>
      <trkpt lat="43.27339" lon="2.07688">
        <ele>143.7</ele>
        <time>2026-05-27T08:34:09Z</time>
      </trkpt>
      <trkpt lat="43.27334" lon="2.07686">
        <ele>143.9</ele>
        <time>2026-05-27T08:34:14Z</time>
      </trkpt>
      <trkpt lat="43.2733" lon="2.07683">
        <ele>143.9</ele>
        <time>2026-05-27T08:34:19Z</time>
      </trkpt>
      <trkpt lat="43.27325" lon="2.07679">
        <ele>143.8</ele>
        <time>2026-05-27T08:34:24Z</time>
      </trkpt>
      <trkpt lat="43.2732" lon="2.07675">
        <ele>143.7</ele>
        <time>2026-05-27T08:34:29Z</time>
      </trkpt>
      <trkpt lat="43.27316" lon="2.07671">
        <ele>143.6</ele>
        <time>2026-05-27T08:34:34Z</time>
      </trkpt>
      <trkpt lat="43.27311" lon="2.07666">
        <ele>143.5</ele>
        <time>2026-05-27T08:34:39Z</time>
      </trkpt>
      <trkpt lat="43.27306" lon="2.07659">
        <ele>143.4</ele>
        <time>2026-05-27T08:34:44Z</time>
      </trkpt>
      <trkpt lat="43.27301" lon="2.07653">
        <ele>143.4</ele>
        <time>2026-05-27T08:34:49Z</time>
      </trkpt>
      <trkpt lat="43.27297" lon="2.07648">
        <ele>143.4</ele>
        <time>2026-05-27T08:34:54Z</time>
      </trkpt>
      <trkpt lat="43.27294" lon="2.07643">
        <ele>143.4</ele>
        <time>2026-05-27T08:34:59Z</time>
      </trkpt>
      <trkpt lat="43.27289" lon="2.07637">
        <ele>143.4</ele>
        <time>2026-05-27T08:35:04Z</time>
      </trkpt>
      <trkpt lat="43.27285" lon="2.07629">
        <ele>143.3</ele>
        <time>2026-05-27T08:35:09Z</time>
      </trkpt>
      <trkpt lat="43.27283" lon="2.07624">
        <ele>143.3</ele>
        <time>2026-05-27T08:35:14Z</time>
      </trkpt>
      <trkpt lat="43.2728" lon="2.07618">
        <ele>143.3</ele>
        <time>2026-05-27T08:35:19Z</time>
      </trkpt>
      <trkpt lat="43.27276" lon="2.07612">
        <ele>143.3</ele>
        <time>2026-05-27T08:35:24Z</time>
      </trkpt>
      <trkpt lat="43.27272" lon="2.07607">
        <ele>143.4</ele>
        <time>2026-05-27T08:35:29Z</time>
      </trkpt>
      <trkpt lat="43.27269" lon="2.07601">
        <ele>143.4</ele>
        <time>2026-05-27T08:35:34Z</time>
      </trkpt>
      <trkpt lat="43.27265" lon="2.07595">
        <ele>143.5</ele>
        <time>2026-05-27T08:35:39Z</time>
      </trkpt>
      <trkpt lat="43.27262" lon="2.0759">
        <ele>143.5</ele>
        <time>2026-05-27T08:35:44Z</time>
      </trkpt>
      <trkpt lat="43.27258" lon="2.07584">
        <ele>143.6</ele>
        <time>2026-05-27T08:35:49Z</time>
      </trkpt>
      <trkpt lat="43.27254" lon="2.07577">
        <ele>144</ele>
        <time>2026-05-27T08:35:54Z</time>
      </trkpt>
      <trkpt lat="43.2725" lon="2.07571">
        <ele>144.3</ele>
        <time>2026-05-27T08:35:59Z</time>
      </trkpt>
      <trkpt lat="43.27247" lon="2.07564">
        <ele>144.8</ele>
        <time>2026-05-27T08:36:04Z</time>
      </trkpt>
      <trkpt lat="43.27244" lon="2.07557">
        <ele>145.3</ele>
        <time>2026-05-27T08:36:09Z</time>
      </trkpt>
      <trkpt lat="43.27239" lon="2.07549">
        <ele>146</ele>
        <time>2026-05-27T08:36:14Z</time>
      </trkpt>
      <trkpt lat="43.27236" lon="2.07542">
        <ele>146.4</ele>
        <time>2026-05-27T08:36:19Z</time>
      </trkpt>
      <trkpt lat="43.27235" lon="2.07536">
        <ele>146.6</ele>
        <time>2026-05-27T08:36:24Z</time>
      </trkpt>
      <trkpt lat="43.27236" lon="2.07534">
        <ele>146.6</ele>
        <time>2026-05-27T08:36:29Z</time>
      </trkpt>
      <trkpt lat="43.27233" lon="2.07532">
        <ele>146.9</ele>
        <time>2026-05-27T08:36:34Z</time>
      </trkpt>
      <trkpt lat="43.27229" lon="2.07526">
        <ele>147.4</ele>
        <time>2026-05-27T08:36:39Z</time>
      </trkpt>
      <trkpt lat="43.27225" lon="2.07519">
        <ele>147.8</ele>
        <time>2026-05-27T08:36:44Z</time>
      </trkpt>
      <trkpt lat="43.27222" lon="2.07513">
        <ele>148.2</ele>
        <time>2026-05-27T08:36:49Z</time>
      </trkpt>
      <trkpt lat="43.27217" lon="2.07507">
        <ele>148.7</ele>
        <time>2026-05-27T08:36:54Z</time>
      </trkpt>
      <trkpt lat="43.27213" lon="2.07501">
        <ele>149.1</ele>
        <time>2026-05-27T08:36:59Z</time>
      </trkpt>
      <trkpt lat="43.27209" lon="2.07496">
        <ele>149.4</ele>
        <time>2026-05-27T08:37:04Z</time>
      </trkpt>
      <trkpt lat="43.27205" lon="2.0749">
        <ele>149.7</ele>
        <time>2026-05-27T08:37:09Z</time>
      </trkpt>
      <trkpt lat="43.27201" lon="2.07483">
        <ele>150</ele>
        <time>2026-05-27T08:37:14Z</time>
      </trkpt>
      <trkpt lat="43.27196" lon="2.07478">
        <ele>150.4</ele>
        <time>2026-05-27T08:37:19Z</time>
      </trkpt>
      <trkpt lat="43.27192" lon="2.07473">
        <ele>150.8</ele>
        <time>2026-05-27T08:37:24Z</time>
      </trkpt>
      <trkpt lat="43.27189" lon="2.07467">
        <ele>151</ele>
        <time>2026-05-27T08:37:29Z</time>
      </trkpt>
      <trkpt lat="43.27185" lon="2.07463">
        <ele>151.4</ele>
        <time>2026-05-27T08:37:34Z</time>
      </trkpt>
      <trkpt lat="43.27181" lon="2.07457">
        <ele>151.7</ele>
        <time>2026-05-27T08:37:39Z</time>
      </trkpt>
      <trkpt lat="43.27177" lon="2.07452">
        <ele>152.1</ele>
        <time>2026-05-27T08:37:44Z</time>
      </trkpt>
      <trkpt lat="43.27173" lon="2.07446">
        <ele>152.4</ele>
        <time>2026-05-27T08:37:49Z</time>
      </trkpt>
      <trkpt lat="43.27169" lon="2.0744">
        <ele>152.8</ele>
        <time>2026-05-27T08:37:54Z</time>
      </trkpt>
      <trkpt lat="43.27165" lon="2.07435">
        <ele>153.1</ele>
        <time>2026-05-27T08:37:59Z</time>
      </trkpt>
      <trkpt lat="43.27161" lon="2.0743">
        <ele>153.2</ele>
        <time>2026-05-27T08:38:04Z</time>
      </trkpt>
      <trkpt lat="43.27156" lon="2.07424">
        <ele>153.4</ele>
        <time>2026-05-27T08:38:09Z</time>
      </trkpt>
      <trkpt lat="43.27152" lon="2.07418">
        <ele>153.5</ele>
        <time>2026-05-27T08:38:14Z</time>
      </trkpt>
      <trkpt lat="43.27148" lon="2.07413">
        <ele>153.7</ele>
        <time>2026-05-27T08:38:19Z</time>
      </trkpt>
      <trkpt lat="43.27144" lon="2.07408">
        <ele>153.9</ele>
        <time>2026-05-27T08:38:24Z</time>
      </trkpt>
      <trkpt lat="43.27141" lon="2.07403">
        <ele>154.1</ele>
        <time>2026-05-27T08:38:29Z</time>
      </trkpt>
      <trkpt lat="43.27136" lon="2.07398">
        <ele>154.3</ele>
        <time>2026-05-27T08:38:34Z</time>
      </trkpt>
      <trkpt lat="43.27132" lon="2.07392">
        <ele>154.5</ele>
        <time>2026-05-27T08:38:39Z</time>
      </trkpt>
      <trkpt lat="43.27128" lon="2.07387">
        <ele>154.7</ele>
        <time>2026-05-27T08:38:44Z</time>
      </trkpt>
      <trkpt lat="43.27124" lon="2.07381">
        <ele>155</ele>
        <time>2026-05-27T08:38:49Z</time>
      </trkpt>
      <trkpt lat="43.27119" lon="2.07377">
        <ele>155.2</ele>
        <time>2026-05-27T08:38:54Z</time>
      </trkpt>
      <trkpt lat="43.27115" lon="2.0737">
        <ele>155.4</ele>
        <time>2026-05-27T08:38:59Z</time>
      </trkpt>
      <trkpt lat="43.27111" lon="2.07365">
        <ele>155.6</ele>
        <time>2026-05-27T08:39:04Z</time>
      </trkpt>
      <trkpt lat="43.27106" lon="2.07359">
        <ele>155.9</ele>
        <time>2026-05-27T08:39:09Z</time>
      </trkpt>
      <trkpt lat="43.27102" lon="2.07354">
        <ele>156.1</ele>
        <time>2026-05-27T08:39:14Z</time>
      </trkpt>
      <trkpt lat="43.27098" lon="2.07348">
        <ele>156.3</ele>
        <time>2026-05-27T08:39:19Z</time>
      </trkpt>
      <trkpt lat="43.27094" lon="2.07343">
        <ele>156.5</ele>
        <time>2026-05-27T08:39:24Z</time>
      </trkpt>
      <trkpt lat="43.27089" lon="2.07337">
        <ele>156.8</ele>
        <time>2026-05-27T08:39:29Z</time>
      </trkpt>
      <trkpt lat="43.27086" lon="2.07332">
        <ele>156.9</ele>
        <time>2026-05-27T08:39:34Z</time>
      </trkpt>
      <trkpt lat="43.27082" lon="2.07328">
        <ele>157</ele>
        <time>2026-05-27T08:39:39Z</time>
      </trkpt>
      <trkpt lat="43.27079" lon="2.07323">
        <ele>157</ele>
        <time>2026-05-27T08:39:44Z</time>
      </trkpt>
      <trkpt lat="43.27075" lon="2.07318">
        <ele>157</ele>
        <time>2026-05-27T08:39:49Z</time>
      </trkpt>
      <trkpt lat="43.2707" lon="2.07313">
        <ele>156.9</ele>
        <time>2026-05-27T08:39:54Z</time>
      </trkpt>
      <trkpt lat="43.27066" lon="2.07308">
        <ele>156.9</ele>
        <time>2026-05-27T08:39:59Z</time>
      </trkpt>
      <trkpt lat="43.27063" lon="2.07304">
        <ele>156.9</ele>
        <time>2026-05-27T08:40:04Z</time>
      </trkpt>
      <trkpt lat="43.27059" lon="2.073">
        <ele>156.8</ele>
        <time>2026-05-27T08:40:09Z</time>
      </trkpt>
      <trkpt lat="43.27053" lon="2.07297">
        <ele>156.7</ele>
        <time>2026-05-27T08:40:14Z</time>
      </trkpt>
      <trkpt lat="43.27048" lon="2.07291">
        <ele>156.7</ele>
        <time>2026-05-27T08:40:19Z</time>
      </trkpt>
      <trkpt lat="43.27043" lon="2.07287">
        <ele>156.6</ele>
        <time>2026-05-27T08:40:24Z</time>
      </trkpt>
      <trkpt lat="43.27039" lon="2.07284">
        <ele>156.5</ele>
        <time>2026-05-27T08:40:29Z</time>
      </trkpt>
      <trkpt lat="43.27033" lon="2.0728">
        <ele>156.4</ele>
        <time>2026-05-27T08:40:34Z</time>
      </trkpt>
      <trkpt lat="43.27028" lon="2.07275">
        <ele>156.4</ele>
        <time>2026-05-27T08:40:39Z</time>
      </trkpt>
      <trkpt lat="43.27023" lon="2.07271">
        <ele>156.3</ele>
        <time>2026-05-27T08:40:44Z</time>
      </trkpt>
      <trkpt lat="43.27018" lon="2.07266">
        <ele>156.2</ele>
        <time>2026-05-27T08:40:49Z</time>
      </trkpt>
      <trkpt lat="43.27013" lon="2.07263">
        <ele>156.2</ele>
        <time>2026-05-27T08:40:54Z</time>
      </trkpt>
      <trkpt lat="43.27007" lon="2.07258">
        <ele>156.1</ele>
        <time>2026-05-27T08:40:59Z</time>
      </trkpt>
      <trkpt lat="43.27001" lon="2.07253">
        <ele>156</ele>
        <time>2026-05-27T08:41:04Z</time>
      </trkpt>
      <trkpt lat="43.26996" lon="2.07249">
        <ele>156.2</ele>
        <time>2026-05-27T08:41:09Z</time>
      </trkpt>
      <trkpt lat="43.26991" lon="2.07244">
        <ele>156.5</ele>
        <time>2026-05-27T08:41:14Z</time>
      </trkpt>
      <trkpt lat="43.26986" lon="2.0724">
        <ele>156.7</ele>
        <time>2026-05-27T08:41:19Z</time>
      </trkpt>
      <trkpt lat="43.26979" lon="2.07234">
        <ele>157.1</ele>
        <time>2026-05-27T08:41:24Z</time>
      </trkpt>
      <trkpt lat="43.26975" lon="2.0723">
        <ele>157.3</ele>
        <time>2026-05-27T08:41:29Z</time>
      </trkpt>
      <trkpt lat="43.2697" lon="2.07226">
        <ele>157.6</ele>
        <time>2026-05-27T08:41:34Z</time>
      </trkpt>
      <trkpt lat="43.26965" lon="2.07221">
        <ele>157.8</ele>
        <time>2026-05-27T08:41:39Z</time>
      </trkpt>
      <trkpt lat="43.26959" lon="2.07216">
        <ele>158.1</ele>
        <time>2026-05-27T08:41:44Z</time>
      </trkpt>
      <trkpt lat="43.26953" lon="2.07211">
        <ele>158.4</ele>
        <time>2026-05-27T08:41:49Z</time>
      </trkpt>
      <trkpt lat="43.26948" lon="2.07206">
        <ele>158.6</ele>
        <time>2026-05-27T08:41:54Z</time>
      </trkpt>
      <trkpt lat="43.26943" lon="2.07201">
        <ele>158.8</ele>
        <time>2026-05-27T08:41:59Z</time>
      </trkpt>
      <trkpt lat="43.2694" lon="2.07198">
        <ele>159</ele>
        <time>2026-05-27T08:42:04Z</time>
      </trkpt>
      <trkpt lat="43.26938" lon="2.07196">
        <ele>159</ele>
        <time>2026-05-27T08:42:09Z</time>
      </trkpt>
      <trkpt lat="43.26933" lon="2.07192">
        <ele>159.2</ele>
        <time>2026-05-27T08:42:14Z</time>
      </trkpt>
      <trkpt lat="43.26928" lon="2.07188">
        <ele>159.4</ele>
        <time>2026-05-27T08:42:19Z</time>
      </trkpt>
      <trkpt lat="43.26922" lon="2.07183">
        <ele>159.7</ele>
        <time>2026-05-27T08:42:24Z</time>
      </trkpt>
      <trkpt lat="43.26917" lon="2.07179">
        <ele>159.8</ele>
        <time>2026-05-27T08:42:29Z</time>
      </trkpt>
      <trkpt lat="43.26911" lon="2.07175">
        <ele>159.7</ele>
        <time>2026-05-27T08:42:34Z</time>
      </trkpt>
      <trkpt lat="43.26906" lon="2.07169">
        <ele>159.6</ele>
        <time>2026-05-27T08:42:39Z</time>
      </trkpt>
      <trkpt lat="43.26901" lon="2.07164">
        <ele>159.4</ele>
        <time>2026-05-27T08:42:44Z</time>
      </trkpt>
      <trkpt lat="43.26896" lon="2.0716">
        <ele>159.2</ele>
        <time>2026-05-27T08:42:49Z</time>
      </trkpt>
      <trkpt lat="43.2689" lon="2.07155">
        <ele>158.9</ele>
        <time>2026-05-27T08:42:54Z</time>
      </trkpt>
      <trkpt lat="43.26886" lon="2.07151">
        <ele>158.7</ele>
        <time>2026-05-27T08:42:59Z</time>
      </trkpt>
      <trkpt lat="43.26885" lon="2.07151">
        <ele>158.7</ele>
        <time>2026-05-27T08:43:04Z</time>
      </trkpt>
      <trkpt lat="43.26882" lon="2.07148">
        <ele>158.5</ele>
        <time>2026-05-27T08:43:09Z</time>
      </trkpt>
      <trkpt lat="43.26877" lon="2.07144">
        <ele>158.3</ele>
        <time>2026-05-27T08:43:14Z</time>
      </trkpt>
      <trkpt lat="43.26872" lon="2.0714">
        <ele>158.1</ele>
        <time>2026-05-27T08:43:19Z</time>
      </trkpt>
      <trkpt lat="43.26867" lon="2.07137">
        <ele>157.9</ele>
        <time>2026-05-27T08:43:24Z</time>
      </trkpt>
      <trkpt lat="43.26862" lon="2.07132">
        <ele>157.6</ele>
        <time>2026-05-27T08:43:29Z</time>
      </trkpt>
      <trkpt lat="43.26858" lon="2.07127">
        <ele>157.4</ele>
        <time>2026-05-27T08:43:34Z</time>
      </trkpt>
      <trkpt lat="43.26854" lon="2.07124">
        <ele>157.2</ele>
        <time>2026-05-27T08:43:39Z</time>
      </trkpt>
      <trkpt lat="43.26853" lon="2.07123">
        <ele>157.2</ele>
        <time>2026-05-27T08:43:44Z</time>
      </trkpt>
      <trkpt lat="43.26853" lon="2.07123">
        <ele>157.2</ele>
        <time>2026-05-27T08:43:49Z</time>
      </trkpt>
      <trkpt lat="43.26853" lon="2.07123">
        <ele>157.2</ele>
        <time>2026-05-27T08:43:54Z</time>
      </trkpt>
      <trkpt lat="43.26853" lon="2.07123">
        <ele>157.2</ele>
        <time>2026-05-27T08:43:59Z</time>
      </trkpt>
      <trkpt lat="43.26853" lon="2.07123">
        <ele>157.2</ele>
        <time>2026-05-27T08:44:04Z</time>
      </trkpt>
      <trkpt lat="43.26853" lon="2.07123">
        <ele>157.2</ele>
        <time>2026-05-27T08:44:09Z</time>
      </trkpt>
      <trkpt lat="43.26853" lon="2.07123">
        <ele>157.2</ele>
        <time>2026-05-27T08:44:14Z</time>
      </trkpt>
      <trkpt lat="43.26851" lon="2.07127">
        <ele>157.2</ele>
        <time>2026-05-27T08:44:19Z</time>
      </trkpt>
      <trkpt lat="43.2685" lon="2.07127">
        <ele>157.1</ele>
        <time>2026-05-27T08:44:24Z</time>
      </trkpt>
      <trkpt lat="43.2685" lon="2.07127">
        <ele>157.1</ele>
        <time>2026-05-27T08:44:29Z</time>
      </trkpt>
      <trkpt lat="43.26846" lon="2.07128">
        <ele>157</ele>
        <time>2026-05-27T08:44:34Z</time>
      </trkpt>
      <trkpt lat="43.26842" lon="2.07128">
        <ele>156.8</ele>
        <time>2026-05-27T08:44:39Z</time>
      </trkpt>
      <trkpt lat="43.26837" lon="2.07128">
        <ele>156.7</ele>
        <time>2026-05-27T08:44:44Z</time>
      </trkpt>
      <trkpt lat="43.2683" lon="2.07128">
        <ele>156.4</ele>
        <time>2026-05-27T08:44:49Z</time>
      </trkpt>
      <trkpt lat="43.26824" lon="2.07129">
        <ele>156.1</ele>
        <time>2026-05-27T08:44:54Z</time>
      </trkpt>
      <trkpt lat="43.26818" lon="2.07129">
        <ele>155.8</ele>
        <time>2026-05-27T08:44:59Z</time>
      </trkpt>
      <trkpt lat="43.26812" lon="2.07129">
        <ele>155.5</ele>
        <time>2026-05-27T08:45:04Z</time>
      </trkpt>
      <trkpt lat="43.26806" lon="2.0713">
        <ele>155.2</ele>
        <time>2026-05-27T08:45:09Z</time>
      </trkpt>
      <trkpt lat="43.268" lon="2.07131">
        <ele>155</ele>
        <time>2026-05-27T08:45:14Z</time>
      </trkpt>
      <trkpt lat="43.26794" lon="2.07133">
        <ele>154.7</ele>
        <time>2026-05-27T08:45:19Z</time>
      </trkpt>
      <trkpt lat="43.26788" lon="2.07134">
        <ele>154.4</ele>
        <time>2026-05-27T08:45:24Z</time>
      </trkpt>
      <trkpt lat="43.26782" lon="2.07135">
        <ele>154.2</ele>
        <time>2026-05-27T08:45:29Z</time>
      </trkpt>
      <trkpt lat="43.26776" lon="2.07135">
        <ele>153.9</ele>
        <time>2026-05-27T08:45:34Z</time>
      </trkpt>
      <trkpt lat="43.2677" lon="2.07137">
        <ele>153.6</ele>
        <time>2026-05-27T08:45:39Z</time>
      </trkpt>
      <trkpt lat="43.26763" lon="2.07138">
        <ele>153.3</ele>
        <time>2026-05-27T08:45:44Z</time>
      </trkpt>
      <trkpt lat="43.26758" lon="2.07139">
        <ele>153.1</ele>
        <time>2026-05-27T08:45:49Z</time>
      </trkpt>
      <trkpt lat="43.26751" lon="2.07139">
        <ele>152.7</ele>
        <time>2026-05-27T08:45:54Z</time>
      </trkpt>
      <trkpt lat="43.26745" lon="2.07139">
        <ele>152.6</ele>
        <time>2026-05-27T08:45:59Z</time>
      </trkpt>
      <trkpt lat="43.26738" lon="2.07139">
        <ele>152.4</ele>
        <time>2026-05-27T08:46:04Z</time>
      </trkpt>
      <trkpt lat="43.26732" lon="2.07138">
        <ele>152.3</ele>
        <time>2026-05-27T08:46:09Z</time>
      </trkpt>
      <trkpt lat="43.26727" lon="2.07138">
        <ele>152.2</ele>
        <time>2026-05-27T08:46:14Z</time>
      </trkpt>
      <trkpt lat="43.26721" lon="2.07137">
        <ele>152.1</ele>
        <time>2026-05-27T08:46:19Z</time>
      </trkpt>
      <trkpt lat="43.26718" lon="2.07137">
        <ele>152</ele>
        <time>2026-05-27T08:46:24Z</time>
      </trkpt>
      <trkpt lat="43.26718" lon="2.07137">
        <ele>152</ele>
        <time>2026-05-27T08:46:29Z</time>
      </trkpt>
      <trkpt lat="43.26717" lon="2.07137">
        <ele>152</ele>
        <time>2026-05-27T08:46:34Z</time>
      </trkpt>
      <trkpt lat="43.26713" lon="2.07136">
        <ele>151.9</ele>
        <time>2026-05-27T08:46:39Z</time>
      </trkpt>
      <trkpt lat="43.26707" lon="2.07134">
        <ele>151.8</ele>
        <time>2026-05-27T08:46:44Z</time>
      </trkpt>
      <trkpt lat="43.26701" lon="2.07133">
        <ele>151.7</ele>
        <time>2026-05-27T08:46:49Z</time>
      </trkpt>
      <trkpt lat="43.26696" lon="2.07132">
        <ele>151.6</ele>
        <time>2026-05-27T08:46:54Z</time>
      </trkpt>
      <trkpt lat="43.2669" lon="2.0713">
        <ele>151.4</ele>
        <time>2026-05-27T08:46:59Z</time>
      </trkpt>
      <trkpt lat="43.26683" lon="2.07128">
        <ele>151.3</ele>
        <time>2026-05-27T08:47:04Z</time>
      </trkpt>
      <trkpt lat="43.26679" lon="2.07127">
        <ele>151.2</ele>
        <time>2026-05-27T08:47:09Z</time>
      </trkpt>
      <trkpt lat="43.26677" lon="2.07126">
        <ele>151.2</ele>
        <time>2026-05-27T08:47:14Z</time>
      </trkpt>
      <trkpt lat="43.26677" lon="2.07126">
        <ele>151.2</ele>
        <time>2026-05-27T08:47:19Z</time>
      </trkpt>
      <trkpt lat="43.26677" lon="2.07126">
        <ele>151.2</ele>
        <time>2026-05-27T08:47:24Z</time>
      </trkpt>
      <trkpt lat="43.26677" lon="2.07126">
        <ele>151.2</ele>
        <time>2026-05-27T08:47:29Z</time>
      </trkpt>
      <trkpt lat="43.26677" lon="2.07126">
        <ele>151.2</ele>
        <time>2026-05-27T08:47:34Z</time>
      </trkpt>
      <trkpt lat="43.26677" lon="2.07126">
        <ele>151.2</ele>
        <time>2026-05-27T08:47:39Z</time>
      </trkpt>
      <trkpt lat="43.26677" lon="2.07126">
        <ele>151.2</ele>
        <time>2026-05-27T08:47:44Z</time>
      </trkpt>
      <trkpt lat="43.26677" lon="2.07126">
        <ele>151.2</ele>
        <time>2026-05-27T08:47:49Z</time>
      </trkpt>
      <trkpt lat="43.26677" lon="2.07126">
        <ele>151.2</ele>
        <time>2026-05-27T08:47:54Z</time>
      </trkpt>
      <trkpt lat="43.26677" lon="2.07126">
        <ele>151.2</ele>
        <time>2026-05-27T08:47:59Z</time>
      </trkpt>
      <trkpt lat="43.26677" lon="2.07126">
        <ele>151.2</ele>
        <time>2026-05-27T08:48:04Z</time>
      </trkpt>
      <trkpt lat="43.26677" lon="2.07126">
        <ele>151.2</ele>
        <time>2026-05-27T08:48:09Z</time>
      </trkpt>
      <trkpt lat="43.26677" lon="2.07126">
        <ele>151.2</ele>
        <time>2026-05-27T08:48:14Z</time>
      </trkpt>
      <trkpt lat="43.26677" lon="2.07126">
        <ele>151.2</ele>
        <time>2026-05-27T08:48:19Z</time>
      </trkpt>
      <trkpt lat="43.26677" lon="2.07126">
        <ele>151.2</ele>
        <time>2026-05-27T08:48:24Z</time>
      </trkpt>
      <trkpt lat="43.26677" lon="2.07126">
        <ele>151.2</ele>
        <time>2026-05-27T08:48:29Z</time>
      </trkpt>
      <trkpt lat="43.26677" lon="2.07126">
        <ele>151.2</ele>
        <time>2026-05-27T08:48:34Z</time>
      </trkpt>
      <trkpt lat="43.26677" lon="2.07126">
        <ele>151.2</ele>
        <time>2026-05-27T08:48:39Z</time>
      </trkpt>
      <trkpt lat="43.26677" lon="2.07126">
        <ele>151.2</ele>
        <time>2026-05-27T08:48:44Z</time>
      </trkpt>
      <trkpt lat="43.26677" lon="2.07126">
        <ele>151.2</ele>
        <time>2026-05-27T08:48:49Z</time>
      </trkpt>
      <trkpt lat="43.2667" lon="2.07125">
        <ele>151.1</ele>
        <time>2026-05-27T08:48:54Z</time>
      </trkpt>
      <trkpt lat="43.26665" lon="2.07123">
        <ele>150.9</ele>
        <time>2026-05-27T08:48:59Z</time>
      </trkpt>
      <trkpt lat="43.2666" lon="2.07122">
        <ele>150.8</ele>
        <time>2026-05-27T08:49:04Z</time>
      </trkpt>
      <trkpt lat="43.26654" lon="2.0712">
        <ele>150.5</ele>
        <time>2026-05-27T08:49:09Z</time>
      </trkpt>
      <trkpt lat="43.26648" lon="2.07117">
        <ele>150.3</ele>
        <time>2026-05-27T08:49:14Z</time>
      </trkpt>
      <trkpt lat="43.26643" lon="2.07116">
        <ele>150.1</ele>
        <time>2026-05-27T08:49:19Z</time>
      </trkpt>
      <trkpt lat="43.26636" lon="2.07115">
        <ele>149.8</ele>
        <time>2026-05-27T08:49:24Z</time>
      </trkpt>
      <trkpt lat="43.2663" lon="2.07113">
        <ele>149.6</ele>
        <time>2026-05-27T08:49:29Z</time>
      </trkpt>
      <trkpt lat="43.26625" lon="2.07112">
        <ele>149.3</ele>
        <time>2026-05-27T08:49:34Z</time>
      </trkpt>
      <trkpt lat="43.26624" lon="2.07111">
        <ele>149.3</ele>
        <time>2026-05-27T08:49:39Z</time>
      </trkpt>
      <trkpt lat="43.26619" lon="2.0711">
        <ele>149.1</ele>
        <time>2026-05-27T08:49:44Z</time>
      </trkpt>
      <trkpt lat="43.26614" lon="2.07109">
        <ele>148.9</ele>
        <time>2026-05-27T08:49:49Z</time>
      </trkpt>
      <trkpt lat="43.26608" lon="2.07107">
        <ele>148.6</ele>
        <time>2026-05-27T08:49:54Z</time>
      </trkpt>
      <trkpt lat="43.26602" lon="2.07105">
        <ele>148.3</ele>
        <time>2026-05-27T08:49:59Z</time>
      </trkpt>
      <trkpt lat="43.26596" lon="2.07104">
        <ele>148</ele>
        <time>2026-05-27T08:50:04Z</time>
      </trkpt>
      <trkpt lat="43.2659" lon="2.07103">
        <ele>147.8</ele>
        <time>2026-05-27T08:50:09Z</time>
      </trkpt>
      <trkpt lat="43.26584" lon="2.07101">
        <ele>147.5</ele>
        <time>2026-05-27T08:50:14Z</time>
      </trkpt>
      <trkpt lat="43.26578" lon="2.07099">
        <ele>147.3</ele>
        <time>2026-05-27T08:50:19Z</time>
      </trkpt>
      <trkpt lat="43.26572" lon="2.07097">
        <ele>147.3</ele>
        <time>2026-05-27T08:50:24Z</time>
      </trkpt>
      <trkpt lat="43.26566" lon="2.07096">
        <ele>147.2</ele>
        <time>2026-05-27T08:50:29Z</time>
      </trkpt>
      <trkpt lat="43.2656" lon="2.07095">
        <ele>147.2</ele>
        <time>2026-05-27T08:50:34Z</time>
      </trkpt>
      <trkpt lat="43.26554" lon="2.07094">
        <ele>147.1</ele>
        <time>2026-05-27T08:50:39Z</time>
      </trkpt>
      <trkpt lat="43.26548" lon="2.07092">
        <ele>147.1</ele>
        <time>2026-05-27T08:50:44Z</time>
      </trkpt>
      <trkpt lat="43.26542" lon="2.07091">
        <ele>147</ele>
        <time>2026-05-27T08:50:49Z</time>
      </trkpt>
      <trkpt lat="43.26535" lon="2.0709">
        <ele>147</ele>
        <time>2026-05-27T08:50:54Z</time>
      </trkpt>
      <trkpt lat="43.2653" lon="2.07089">
        <ele>147</ele>
        <time>2026-05-27T08:50:59Z</time>
      </trkpt>
      <trkpt lat="43.26524" lon="2.07088">
        <ele>147</ele>
        <time>2026-05-27T08:51:04Z</time>
      </trkpt>
      <trkpt lat="43.26517" lon="2.07088">
        <ele>147</ele>
        <time>2026-05-27T08:51:09Z</time>
      </trkpt>
      <trkpt lat="43.26511" lon="2.07087">
        <ele>147</ele>
        <time>2026-05-27T08:51:14Z</time>
      </trkpt>
      <trkpt lat="43.26505" lon="2.07087">
        <ele>147</ele>
        <time>2026-05-27T08:51:19Z</time>
      </trkpt>
      <trkpt lat="43.26498" lon="2.07086">
        <ele>147</ele>
        <time>2026-05-27T08:51:24Z</time>
      </trkpt>
      <trkpt lat="43.26492" lon="2.07086">
        <ele>147</ele>
        <time>2026-05-27T08:51:29Z</time>
      </trkpt>
      <trkpt lat="43.26487" lon="2.07086">
        <ele>147</ele>
        <time>2026-05-27T08:51:34Z</time>
      </trkpt>
      <trkpt lat="43.26481" lon="2.07084">
        <ele>147</ele>
        <time>2026-05-27T08:51:39Z</time>
      </trkpt>
      <trkpt lat="43.26474" lon="2.07084">
        <ele>147</ele>
        <time>2026-05-27T08:51:44Z</time>
      </trkpt>
      <trkpt lat="43.26468" lon="2.07083">
        <ele>147</ele>
        <time>2026-05-27T08:51:49Z</time>
      </trkpt>
      <trkpt lat="43.26462" lon="2.07084">
        <ele>147</ele>
        <time>2026-05-27T08:51:54Z</time>
      </trkpt>
      <trkpt lat="43.26456" lon="2.07083">
        <ele>147</ele>
        <time>2026-05-27T08:51:59Z</time>
      </trkpt>
      <trkpt lat="43.2645" lon="2.07084">
        <ele>147</ele>
        <time>2026-05-27T08:52:04Z</time>
      </trkpt>
      <trkpt lat="43.26444" lon="2.07084">
        <ele>147</ele>
        <time>2026-05-27T08:52:09Z</time>
      </trkpt>
      <trkpt lat="43.26438" lon="2.07083">
        <ele>147</ele>
        <time>2026-05-27T08:52:14Z</time>
      </trkpt>
      <trkpt lat="43.26432" lon="2.07085">
        <ele>147</ele>
        <time>2026-05-27T08:52:19Z</time>
      </trkpt>
      <trkpt lat="43.26426" lon="2.07086">
        <ele>147</ele>
        <time>2026-05-27T08:52:24Z</time>
      </trkpt>
      <trkpt lat="43.2642" lon="2.07087">
        <ele>147</ele>
        <time>2026-05-27T08:52:29Z</time>
      </trkpt>
      <trkpt lat="43.26414" lon="2.07088">
        <ele>147.1</ele>
        <time>2026-05-27T08:52:34Z</time>
      </trkpt>
      <trkpt lat="43.26408" lon="2.0709">
        <ele>147.4</ele>
        <time>2026-05-27T08:52:39Z</time>
      </trkpt>
      <trkpt lat="43.26401" lon="2.07091">
        <ele>147.6</ele>
        <time>2026-05-27T08:52:44Z</time>
      </trkpt>
      <trkpt lat="43.26395" lon="2.07092">
        <ele>147.8</ele>
        <time>2026-05-27T08:52:49Z</time>
      </trkpt>
      <trkpt lat="43.26389" lon="2.07093">
        <ele>148</ele>
        <time>2026-05-27T08:52:54Z</time>
      </trkpt>
      <trkpt lat="43.26383" lon="2.07094">
        <ele>148.2</ele>
        <time>2026-05-27T08:52:59Z</time>
      </trkpt>
      <trkpt lat="43.26377" lon="2.07095">
        <ele>148.4</ele>
        <time>2026-05-27T08:53:04Z</time>
      </trkpt>
      <trkpt lat="43.26371" lon="2.07096">
        <ele>148.6</ele>
        <time>2026-05-27T08:53:09Z</time>
      </trkpt>
      <trkpt lat="43.26365" lon="2.07097">
        <ele>148.8</ele>
        <time>2026-05-27T08:53:14Z</time>
      </trkpt>
      <trkpt lat="43.26359" lon="2.07098">
        <ele>149</ele>
        <time>2026-05-27T08:53:19Z</time>
      </trkpt>
      <trkpt lat="43.26357" lon="2.07099">
        <ele>149.1</ele>
        <time>2026-05-27T08:53:24Z</time>
      </trkpt>
      <trkpt lat="43.26353" lon="2.07099">
        <ele>149.2</ele>
        <time>2026-05-27T08:53:29Z</time>
      </trkpt>
      <trkpt lat="43.26347" lon="2.07099">
        <ele>149.4</ele>
        <time>2026-05-27T08:53:34Z</time>
      </trkpt>
      <trkpt lat="43.26341" lon="2.071">
        <ele>149.6</ele>
        <time>2026-05-27T08:53:39Z</time>
      </trkpt>
      <trkpt lat="43.26335" lon="2.07101">
        <ele>149.7</ele>
        <time>2026-05-27T08:53:44Z</time>
      </trkpt>
      <trkpt lat="43.26329" lon="2.07102">
        <ele>149.9</ele>
        <time>2026-05-27T08:53:49Z</time>
      </trkpt>
      <trkpt lat="43.26322" lon="2.07102">
        <ele>150</ele>
        <time>2026-05-27T08:53:54Z</time>
      </trkpt>
      <trkpt lat="43.26316" lon="2.07103">
        <ele>150.2</ele>
        <time>2026-05-27T08:53:59Z</time>
      </trkpt>
      <trkpt lat="43.2631" lon="2.07103">
        <ele>150.3</ele>
        <time>2026-05-27T08:54:04Z</time>
      </trkpt>
      <trkpt lat="43.26303" lon="2.07104">
        <ele>150.5</ele>
        <time>2026-05-27T08:54:09Z</time>
      </trkpt>
      <trkpt lat="43.26297" lon="2.07105">
        <ele>150.6</ele>
        <time>2026-05-27T08:54:14Z</time>
      </trkpt>
      <trkpt lat="43.26291" lon="2.07106">
        <ele>150.7</ele>
        <time>2026-05-27T08:54:19Z</time>
      </trkpt>
      <trkpt lat="43.26284" lon="2.07106">
        <ele>150.9</ele>
        <time>2026-05-27T08:54:24Z</time>
      </trkpt>
      <trkpt lat="43.26277" lon="2.07108">
        <ele>151.1</ele>
        <time>2026-05-27T08:54:29Z</time>
      </trkpt>
      <trkpt lat="43.26271" lon="2.07108">
        <ele>151.2</ele>
        <time>2026-05-27T08:54:34Z</time>
      </trkpt>
      <trkpt lat="43.26264" lon="2.07109">
        <ele>151.4</ele>
        <time>2026-05-27T08:54:39Z</time>
      </trkpt>
      <trkpt lat="43.26258" lon="2.07109">
        <ele>151.5</ele>
        <time>2026-05-27T08:54:44Z</time>
      </trkpt>
      <trkpt lat="43.26252" lon="2.0711">
        <ele>151.6</ele>
        <time>2026-05-27T08:54:49Z</time>
      </trkpt>
      <trkpt lat="43.26247" lon="2.0711">
        <ele>151.6</ele>
        <time>2026-05-27T08:54:54Z</time>
      </trkpt>
      <trkpt lat="43.2624" lon="2.0711">
        <ele>151.6</ele>
        <time>2026-05-27T08:54:59Z</time>
      </trkpt>
      <trkpt lat="43.26234" lon="2.0711">
        <ele>151.5</ele>
        <time>2026-05-27T08:55:04Z</time>
      </trkpt>
      <trkpt lat="43.26227" lon="2.07108">
        <ele>151.4</ele>
        <time>2026-05-27T08:55:09Z</time>
      </trkpt>
      <trkpt lat="43.26221" lon="2.07108">
        <ele>151.4</ele>
        <time>2026-05-27T08:55:14Z</time>
      </trkpt>
      <trkpt lat="43.26214" lon="2.07106">
        <ele>151.3</ele>
        <time>2026-05-27T08:55:19Z</time>
      </trkpt>
      <trkpt lat="43.26207" lon="2.07105">
        <ele>151.2</ele>
        <time>2026-05-27T08:55:24Z</time>
      </trkpt>
      <trkpt lat="43.26201" lon="2.07102">
        <ele>151.2</ele>
        <time>2026-05-27T08:55:29Z</time>
      </trkpt>
      <trkpt lat="43.26196" lon="2.071">
        <ele>151.2</ele>
        <time>2026-05-27T08:55:34Z</time>
      </trkpt>
      <trkpt lat="43.2619" lon="2.07097">
        <ele>151.1</ele>
        <time>2026-05-27T08:55:39Z</time>
      </trkpt>
      <trkpt lat="43.26183" lon="2.07094">
        <ele>151.1</ele>
        <time>2026-05-27T08:55:44Z</time>
      </trkpt>
      <trkpt lat="43.26177" lon="2.0709">
        <ele>151</ele>
        <time>2026-05-27T08:55:49Z</time>
      </trkpt>
      <trkpt lat="43.26171" lon="2.07086">
        <ele>151</ele>
        <time>2026-05-27T08:55:54Z</time>
      </trkpt>
      <trkpt lat="43.26166" lon="2.07083">
        <ele>151</ele>
        <time>2026-05-27T08:55:59Z</time>
      </trkpt>
      <trkpt lat="43.26159" lon="2.07078">
        <ele>150.8</ele>
        <time>2026-05-27T08:56:04Z</time>
      </trkpt>
      <trkpt lat="43.26156" lon="2.07076">
        <ele>150.7</ele>
        <time>2026-05-27T08:56:09Z</time>
      </trkpt>
      <trkpt lat="43.26156" lon="2.07076">
        <ele>150.7</ele>
        <time>2026-05-27T08:56:14Z</time>
      </trkpt>
      <trkpt lat="43.26156" lon="2.07077">
        <ele>150.7</ele>
        <time>2026-05-27T08:56:19Z</time>
      </trkpt>
      <trkpt lat="43.26156" lon="2.07077">
        <ele>150.7</ele>
        <time>2026-05-27T08:56:24Z</time>
      </trkpt>
      <trkpt lat="43.26156" lon="2.07077">
        <ele>150.7</ele>
        <time>2026-05-27T08:56:29Z</time>
      </trkpt>
      <trkpt lat="43.26156" lon="2.07077">
        <ele>150.7</ele>
        <time>2026-05-27T08:56:34Z</time>
      </trkpt>
      <trkpt lat="43.26156" lon="2.07077">
        <ele>150.7</ele>
        <time>2026-05-27T08:56:39Z</time>
      </trkpt>
      <trkpt lat="43.26147" lon="2.07071">
        <ele>150.5</ele>
        <time>2026-05-27T08:56:44Z</time>
      </trkpt>
      <trkpt lat="43.26147" lon="2.07071">
        <ele>150.5</ele>
        <time>2026-05-27T08:56:49Z</time>
      </trkpt>
      <trkpt lat="43.26145" lon="2.07068">
        <ele>150.5</ele>
        <time>2026-05-27T08:56:54Z</time>
      </trkpt>
      <trkpt lat="43.2614" lon="2.07065">
        <ele>150.4</ele>
        <time>2026-05-27T08:56:59Z</time>
      </trkpt>
      <trkpt lat="43.26135" lon="2.07062">
        <ele>150.2</ele>
        <time>2026-05-27T08:57:04Z</time>
      </trkpt>
      <trkpt lat="43.26129" lon="2.07059">
        <ele>150.1</ele>
        <time>2026-05-27T08:57:09Z</time>
      </trkpt>
      <trkpt lat="43.26124" lon="2.07054">
        <ele>150</ele>
        <time>2026-05-27T08:57:14Z</time>
      </trkpt>
      <trkpt lat="43.26118" lon="2.07051">
        <ele>149.8</ele>
        <time>2026-05-27T08:57:19Z</time>
      </trkpt>
      <trkpt lat="43.26114" lon="2.07046">
        <ele>149.7</ele>
        <time>2026-05-27T08:57:24Z</time>
      </trkpt>
      <trkpt lat="43.26108" lon="2.07043">
        <ele>149.6</ele>
        <time>2026-05-27T08:57:29Z</time>
      </trkpt>
      <trkpt lat="43.26102" lon="2.07039">
        <ele>149.4</ele>
        <time>2026-05-27T08:57:34Z</time>
      </trkpt>
      <trkpt lat="43.26097" lon="2.07036">
        <ele>149.3</ele>
        <time>2026-05-27T08:57:39Z</time>
      </trkpt>
      <trkpt lat="43.26091" lon="2.07034">
        <ele>149.2</ele>
        <time>2026-05-27T08:57:44Z</time>
      </trkpt>
      <trkpt lat="43.26086" lon="2.07029">
        <ele>149.1</ele>
        <time>2026-05-27T08:57:49Z</time>
      </trkpt>
      <trkpt lat="43.2608" lon="2.07024">
        <ele>148.8</ele>
        <time>2026-05-27T08:57:54Z</time>
      </trkpt>
      <trkpt lat="43.26074" lon="2.0702">
        <ele>148.5</ele>
        <time>2026-05-27T08:57:59Z</time>
      </trkpt>
      <trkpt lat="43.26069" lon="2.07016">
        <ele>148.3</ele>
        <time>2026-05-27T08:58:04Z</time>
      </trkpt>
      <trkpt lat="43.26063" lon="2.07013">
        <ele>148</ele>
        <time>2026-05-27T08:58:09Z</time>
      </trkpt>
      <trkpt lat="43.26057" lon="2.0701">
        <ele>147.7</ele>
        <time>2026-05-27T08:58:14Z</time>
      </trkpt>
      <trkpt lat="43.26052" lon="2.07006">
        <ele>147.5</ele>
        <time>2026-05-27T08:58:19Z</time>
      </trkpt>
      <trkpt lat="43.26046" lon="2.07004">
        <ele>147.2</ele>
        <time>2026-05-27T08:58:24Z</time>
      </trkpt>
      <trkpt lat="43.26042" lon="2.07002">
        <ele>147</ele>
        <time>2026-05-27T08:58:29Z</time>
      </trkpt>
      <trkpt lat="43.26041" lon="2.07001">
        <ele>147</ele>
        <time>2026-05-27T08:58:34Z</time>
      </trkpt>
      <trkpt lat="43.26041" lon="2.07001">
        <ele>147</ele>
        <time>2026-05-27T08:58:39Z</time>
      </trkpt>
      <trkpt lat="43.26038" lon="2.07002">
        <ele>146.8</ele>
        <time>2026-05-27T08:58:44Z</time>
      </trkpt>
      <trkpt lat="43.26035" lon="2.06999">
        <ele>146.7</ele>
        <time>2026-05-27T08:58:49Z</time>
      </trkpt>
      <trkpt lat="43.26033" lon="2.06998">
        <ele>146.6</ele>
        <time>2026-05-27T08:58:54Z</time>
      </trkpt>
      <trkpt lat="43.26033" lon="2.06999">
        <ele>146.6</ele>
        <time>2026-05-27T08:58:59Z</time>
      </trkpt>
      <trkpt lat="43.26033" lon="2.06999">
        <ele>146.6</ele>
        <time>2026-05-27T08:59:04Z</time>
      </trkpt>
      <trkpt lat="43.26033" lon="2.06999">
        <ele>146.6</ele>
        <time>2026-05-27T08:59:09Z</time>
      </trkpt>
      <trkpt lat="43.26031" lon="2.07">
        <ele>146.5</ele>
        <time>2026-05-27T08:59:14Z</time>
      </trkpt>
      <trkpt lat="43.26025" lon="2.06998">
        <ele>146.2</ele>
        <time>2026-05-27T08:59:19Z</time>
      </trkpt>
      <trkpt lat="43.2602" lon="2.06994">
        <ele>145.9</ele>
        <time>2026-05-27T08:59:24Z</time>
      </trkpt>
      <trkpt lat="43.26015" lon="2.06991">
        <ele>145.6</ele>
        <time>2026-05-27T08:59:29Z</time>
      </trkpt>
      <trkpt lat="43.26009" lon="2.06989">
        <ele>145.3</ele>
        <time>2026-05-27T08:59:34Z</time>
      </trkpt>
      <trkpt lat="43.26003" lon="2.06987">
        <ele>145</ele>
        <time>2026-05-27T08:59:39Z</time>
      </trkpt>
      <trkpt lat="43.25998" lon="2.06985">
        <ele>144.8</ele>
        <time>2026-05-27T08:59:44Z</time>
      </trkpt>
      <trkpt lat="43.25991" lon="2.06983">
        <ele>144.5</ele>
        <time>2026-05-27T08:59:49Z</time>
      </trkpt>
      <trkpt lat="43.25985" lon="2.0698">
        <ele>144.3</ele>
        <time>2026-05-27T08:59:54Z</time>
      </trkpt>
      <trkpt lat="43.25979" lon="2.06979">
        <ele>144.1</ele>
        <time>2026-05-27T08:59:59Z</time>
      </trkpt>
      <trkpt lat="43.25972" lon="2.06975">
        <ele>143.8</ele>
        <time>2026-05-27T09:00:04Z</time>
      </trkpt>
      <trkpt lat="43.25967" lon="2.06973">
        <ele>143.6</ele>
        <time>2026-05-27T09:00:09Z</time>
      </trkpt>
      <trkpt lat="43.25961" lon="2.06969">
        <ele>143.4</ele>
        <time>2026-05-27T09:00:14Z</time>
      </trkpt>
      <trkpt lat="43.25955" lon="2.06966">
        <ele>143.2</ele>
        <time>2026-05-27T09:00:19Z</time>
      </trkpt>
      <trkpt lat="43.25949" lon="2.06963">
        <ele>143</ele>
        <time>2026-05-27T09:00:24Z</time>
      </trkpt>
      <trkpt lat="43.25943" lon="2.06959">
        <ele>142.8</ele>
        <time>2026-05-27T09:00:29Z</time>
      </trkpt>
      <trkpt lat="43.25938" lon="2.06954">
        <ele>142.6</ele>
        <time>2026-05-27T09:00:34Z</time>
      </trkpt>
      <trkpt lat="43.25932" lon="2.0695">
        <ele>142.4</ele>
        <time>2026-05-27T09:00:39Z</time>
      </trkpt>
      <trkpt lat="43.25926" lon="2.06946">
        <ele>142.3</ele>
        <time>2026-05-27T09:00:44Z</time>
      </trkpt>
      <trkpt lat="43.2592" lon="2.06942">
        <ele>142.1</ele>
        <time>2026-05-27T09:00:49Z</time>
      </trkpt>
      <trkpt lat="43.25914" lon="2.06938">
        <ele>142</ele>
        <time>2026-05-27T09:00:54Z</time>
      </trkpt>
      <trkpt lat="43.25909" lon="2.06934">
        <ele>142.1</ele>
        <time>2026-05-27T09:00:59Z</time>
      </trkpt>
      <trkpt lat="43.25903" lon="2.0693">
        <ele>142.1</ele>
        <time>2026-05-27T09:01:04Z</time>
      </trkpt>
      <trkpt lat="43.25898" lon="2.06926">
        <ele>142.2</ele>
        <time>2026-05-27T09:01:09Z</time>
      </trkpt>
      <trkpt lat="43.25892" lon="2.06922">
        <ele>142.3</ele>
        <time>2026-05-27T09:01:14Z</time>
      </trkpt>
      <trkpt lat="43.25886" lon="2.0692">
        <ele>142.4</ele>
        <time>2026-05-27T09:01:19Z</time>
      </trkpt>
      <trkpt lat="43.2588" lon="2.06916">
        <ele>142.4</ele>
        <time>2026-05-27T09:01:24Z</time>
      </trkpt>
      <trkpt lat="43.25874" lon="2.06912">
        <ele>142.5</ele>
        <time>2026-05-27T09:01:29Z</time>
      </trkpt>
      <trkpt lat="43.25869" lon="2.06909">
        <ele>142.6</ele>
        <time>2026-05-27T09:01:34Z</time>
      </trkpt>
      <trkpt lat="43.25863" lon="2.06906">
        <ele>142.7</ele>
        <time>2026-05-27T09:01:39Z</time>
      </trkpt>
      <trkpt lat="43.25856" lon="2.06904">
        <ele>142.8</ele>
        <time>2026-05-27T09:01:44Z</time>
      </trkpt>
      <trkpt lat="43.25851" lon="2.06902">
        <ele>142.8</ele>
        <time>2026-05-27T09:01:49Z</time>
      </trkpt>
      <trkpt lat="43.25846" lon="2.06899">
        <ele>142.9</ele>
        <time>2026-05-27T09:01:54Z</time>
      </trkpt>
      <trkpt lat="43.2584" lon="2.06896">
        <ele>142.9</ele>
        <time>2026-05-27T09:01:59Z</time>
      </trkpt>
      <trkpt lat="43.25833" lon="2.06893">
        <ele>143</ele>
        <time>2026-05-27T09:02:04Z</time>
      </trkpt>
      <trkpt lat="43.25827" lon="2.06891">
        <ele>143</ele>
        <time>2026-05-27T09:02:09Z</time>
      </trkpt>
      <trkpt lat="43.25821" lon="2.06889">
        <ele>143</ele>
        <time>2026-05-27T09:02:14Z</time>
      </trkpt>
      <trkpt lat="43.25814" lon="2.06887">
        <ele>143</ele>
        <time>2026-05-27T09:02:19Z</time>
      </trkpt>
      <trkpt lat="43.25809" lon="2.06885">
        <ele>143</ele>
        <time>2026-05-27T09:02:24Z</time>
      </trkpt>
      <trkpt lat="43.25803" lon="2.06883">
        <ele>143</ele>
        <time>2026-05-27T09:02:29Z</time>
      </trkpt>
      <trkpt lat="43.25798" lon="2.06882">
        <ele>143</ele>
        <time>2026-05-27T09:02:34Z</time>
      </trkpt>
      <trkpt lat="43.25797" lon="2.06882">
        <ele>143</ele>
        <time>2026-05-27T09:02:39Z</time>
      </trkpt>
      <trkpt lat="43.25796" lon="2.06881">
        <ele>143</ele>
        <time>2026-05-27T09:02:44Z</time>
      </trkpt>
      <trkpt lat="43.25796" lon="2.06881">
        <ele>143</ele>
        <time>2026-05-27T09:02:49Z</time>
      </trkpt>
      <trkpt lat="43.25791" lon="2.06878">
        <ele>143</ele>
        <time>2026-05-27T09:02:54Z</time>
      </trkpt>
      <trkpt lat="43.25785" lon="2.06876">
        <ele>143</ele>
        <time>2026-05-27T09:02:59Z</time>
      </trkpt>
      <trkpt lat="43.25778" lon="2.06874">
        <ele>143</ele>
        <time>2026-05-27T09:03:04Z</time>
      </trkpt>
      <trkpt lat="43.25772" lon="2.06871">
        <ele>143</ele>
        <time>2026-05-27T09:03:09Z</time>
      </trkpt>
      <trkpt lat="43.25766" lon="2.06869">
        <ele>143</ele>
        <time>2026-05-27T09:03:14Z</time>
      </trkpt>
      <trkpt lat="43.25759" lon="2.06867">
        <ele>143</ele>
        <time>2026-05-27T09:03:19Z</time>
      </trkpt>
      <trkpt lat="43.25753" lon="2.06865">
        <ele>143</ele>
        <time>2026-05-27T09:03:24Z</time>
      </trkpt>
      <trkpt lat="43.25748" lon="2.06862">
        <ele>143</ele>
        <time>2026-05-27T09:03:29Z</time>
      </trkpt>
      <trkpt lat="43.25741" lon="2.06862">
        <ele>143</ele>
        <time>2026-05-27T09:03:34Z</time>
      </trkpt>
      <trkpt lat="43.25734" lon="2.06862">
        <ele>143</ele>
        <time>2026-05-27T09:03:39Z</time>
      </trkpt>
      <trkpt lat="43.25727" lon="2.06859">
        <ele>143</ele>
        <time>2026-05-27T09:03:44Z</time>
      </trkpt>
      <trkpt lat="43.25722" lon="2.06855">
        <ele>143</ele>
        <time>2026-05-27T09:03:49Z</time>
      </trkpt>
      <trkpt lat="43.25722" lon="2.06855">
        <ele>143</ele>
        <time>2026-05-27T09:03:54Z</time>
      </trkpt>
      <trkpt lat="43.25722" lon="2.06855">
        <ele>143</ele>
        <time>2026-05-27T09:03:59Z</time>
      </trkpt>
      <trkpt lat="43.25719" lon="2.06854">
        <ele>143</ele>
        <time>2026-05-27T09:04:04Z</time>
      </trkpt>
      <trkpt lat="43.25714" lon="2.06852">
        <ele>143</ele>
        <time>2026-05-27T09:04:09Z</time>
      </trkpt>
      <trkpt lat="43.25708" lon="2.0685">
        <ele>143</ele>
        <time>2026-05-27T09:04:14Z</time>
      </trkpt>
      <trkpt lat="43.25702" lon="2.06848">
        <ele>143</ele>
        <time>2026-05-27T09:04:19Z</time>
      </trkpt>
      <trkpt lat="43.25696" lon="2.06844">
        <ele>143</ele>
        <time>2026-05-27T09:04:24Z</time>
      </trkpt>
      <trkpt lat="43.2569" lon="2.06841">
        <ele>143</ele>
        <time>2026-05-27T09:04:29Z</time>
      </trkpt>
      <trkpt lat="43.25683" lon="2.06838">
        <ele>143</ele>
        <time>2026-05-27T09:04:34Z</time>
      </trkpt>
      <trkpt lat="43.25676" lon="2.06835">
        <ele>143</ele>
        <time>2026-05-27T09:04:39Z</time>
      </trkpt>
      <trkpt lat="43.2567" lon="2.06833">
        <ele>143</ele>
        <time>2026-05-27T09:04:44Z</time>
      </trkpt>
      <trkpt lat="43.25664" lon="2.06831">
        <ele>143.1</ele>
        <time>2026-05-27T09:04:49Z</time>
      </trkpt>
      <trkpt lat="43.25658" lon="2.06828">
        <ele>143.1</ele>
        <time>2026-05-27T09:04:54Z</time>
      </trkpt>
      <trkpt lat="43.25651" lon="2.06825">
        <ele>143.2</ele>
        <time>2026-05-27T09:04:59Z</time>
      </trkpt>
      <trkpt lat="43.25645" lon="2.06822">
        <ele>143.2</ele>
        <time>2026-05-27T09:05:04Z</time>
      </trkpt>
      <trkpt lat="43.25637" lon="2.06821">
        <ele>143.2</ele>
        <time>2026-05-27T09:05:09Z</time>
      </trkpt>
      <trkpt lat="43.25631" lon="2.06819">
        <ele>143.2</ele>
        <time>2026-05-27T09:05:14Z</time>
      </trkpt>
      <trkpt lat="43.25624" lon="2.06817">
        <ele>143.2</ele>
        <time>2026-05-27T09:05:19Z</time>
      </trkpt>
      <trkpt lat="43.25618" lon="2.06815">
        <ele>143.2</ele>
        <time>2026-05-27T09:05:24Z</time>
      </trkpt>
      <trkpt lat="43.25612" lon="2.06813">
        <ele>143.2</ele>
        <time>2026-05-27T09:05:29Z</time>
      </trkpt>
      <trkpt lat="43.25605" lon="2.06811">
        <ele>143.1</ele>
        <time>2026-05-27T09:05:34Z</time>
      </trkpt>
      <trkpt lat="43.25599" lon="2.06808">
        <ele>143.1</ele>
        <time>2026-05-27T09:05:39Z</time>
      </trkpt>
      <trkpt lat="43.25593" lon="2.06808">
        <ele>143.1</ele>
        <time>2026-05-27T09:05:44Z</time>
      </trkpt>
      <trkpt lat="43.25588" lon="2.06806">
        <ele>143</ele>
        <time>2026-05-27T09:05:49Z</time>
      </trkpt>
      <trkpt lat="43.25581" lon="2.06804">
        <ele>143</ele>
        <time>2026-05-27T09:05:54Z</time>
      </trkpt>
      <trkpt lat="43.25573" lon="2.06804">
        <ele>143</ele>
        <time>2026-05-27T09:05:59Z</time>
      </trkpt>
      <trkpt lat="43.25566" lon="2.06802">
        <ele>142.9</ele>
        <time>2026-05-27T09:06:04Z</time>
      </trkpt>
      <trkpt lat="43.2556" lon="2.068">
        <ele>142.9</ele>
        <time>2026-05-27T09:06:09Z</time>
      </trkpt>
      <trkpt lat="43.25553" lon="2.06797">
        <ele>142.8</ele>
        <time>2026-05-27T09:06:14Z</time>
      </trkpt>
      <trkpt lat="43.25547" lon="2.06795">
        <ele>142.8</ele>
        <time>2026-05-27T09:06:19Z</time>
      </trkpt>
      <trkpt lat="43.25541" lon="2.06793">
        <ele>142.8</ele>
        <time>2026-05-27T09:06:24Z</time>
      </trkpt>
      <trkpt lat="43.25534" lon="2.0679">
        <ele>142.7</ele>
        <time>2026-05-27T09:06:29Z</time>
      </trkpt>
      <trkpt lat="43.25528" lon="2.06787">
        <ele>142.6</ele>
        <time>2026-05-27T09:06:34Z</time>
      </trkpt>
      <trkpt lat="43.25521" lon="2.06784">
        <ele>142.6</ele>
        <time>2026-05-27T09:06:39Z</time>
      </trkpt>
      <trkpt lat="43.25515" lon="2.06781">
        <ele>142.5</ele>
        <time>2026-05-27T09:06:44Z</time>
      </trkpt>
      <trkpt lat="43.25508" lon="2.06779">
        <ele>142.4</ele>
        <time>2026-05-27T09:06:49Z</time>
      </trkpt>
      <trkpt lat="43.25503" lon="2.06777">
        <ele>142.3</ele>
        <time>2026-05-27T09:06:54Z</time>
      </trkpt>
      <trkpt lat="43.25496" lon="2.06775">
        <ele>142.4</ele>
        <time>2026-05-27T09:06:59Z</time>
      </trkpt>
      <trkpt lat="43.2549" lon="2.06773">
        <ele>142.6</ele>
        <time>2026-05-27T09:07:04Z</time>
      </trkpt>
      <trkpt lat="43.25485" lon="2.0677">
        <ele>142.7</ele>
        <time>2026-05-27T09:07:09Z</time>
      </trkpt>
      <trkpt lat="43.2548" lon="2.06767">
        <ele>142.8</ele>
        <time>2026-05-27T09:07:14Z</time>
      </trkpt>
      <trkpt lat="43.25478" lon="2.06767">
        <ele>142.9</ele>
        <time>2026-05-27T09:07:19Z</time>
      </trkpt>
      <trkpt lat="43.25478" lon="2.06765">
        <ele>142.9</ele>
        <time>2026-05-27T09:07:24Z</time>
      </trkpt>
      <trkpt lat="43.25474" lon="2.06763">
        <ele>143</ele>
        <time>2026-05-27T09:07:29Z</time>
      </trkpt>
      <trkpt lat="43.25469" lon="2.06762">
        <ele>143.2</ele>
        <time>2026-05-27T09:07:34Z</time>
      </trkpt>
      <trkpt lat="43.25464" lon="2.0676">
        <ele>143.3</ele>
        <time>2026-05-27T09:07:39Z</time>
      </trkpt>
      <trkpt lat="43.25458" lon="2.06759">
        <ele>143.5</ele>
        <time>2026-05-27T09:07:44Z</time>
      </trkpt>
      <trkpt lat="43.25452" lon="2.06756">
        <ele>143.7</ele>
        <time>2026-05-27T09:07:49Z</time>
      </trkpt>
      <trkpt lat="43.25446" lon="2.06754">
        <ele>143.9</ele>
        <time>2026-05-27T09:07:54Z</time>
      </trkpt>
      <trkpt lat="43.25439" lon="2.06752">
        <ele>144.2</ele>
        <time>2026-05-27T09:07:59Z</time>
      </trkpt>
      <trkpt lat="43.25434" lon="2.0675">
        <ele>144.4</ele>
        <time>2026-05-27T09:08:04Z</time>
      </trkpt>
      <trkpt lat="43.25428" lon="2.06749">
        <ele>144.6</ele>
        <time>2026-05-27T09:08:09Z</time>
      </trkpt>
      <trkpt lat="43.25422" lon="2.06748">
        <ele>144.8</ele>
        <time>2026-05-27T09:08:14Z</time>
      </trkpt>
      <trkpt lat="43.25416" lon="2.06747">
        <ele>145</ele>
        <time>2026-05-27T09:08:19Z</time>
      </trkpt>
      <trkpt lat="43.2541" lon="2.06745">
        <ele>144.9</ele>
        <time>2026-05-27T09:08:24Z</time>
      </trkpt>
      <trkpt lat="43.25405" lon="2.06743">
        <ele>144.8</ele>
        <time>2026-05-27T09:08:29Z</time>
      </trkpt>
      <trkpt lat="43.254" lon="2.06741">
        <ele>144.7</ele>
        <time>2026-05-27T09:08:34Z</time>
      </trkpt>
      <trkpt lat="43.25394" lon="2.06739">
        <ele>144.7</ele>
        <time>2026-05-27T09:08:39Z</time>
      </trkpt>
      <trkpt lat="43.25388" lon="2.06735">
        <ele>144.6</ele>
        <time>2026-05-27T09:08:44Z</time>
      </trkpt>
      <trkpt lat="43.25381" lon="2.06734">
        <ele>144.5</ele>
        <time>2026-05-27T09:08:49Z</time>
      </trkpt>
      <trkpt lat="43.25375" lon="2.06734">
        <ele>144.5</ele>
        <time>2026-05-27T09:08:54Z</time>
      </trkpt>
      <trkpt lat="43.25369" lon="2.06732">
        <ele>144.5</ele>
        <time>2026-05-27T09:08:59Z</time>
      </trkpt>
      <trkpt lat="43.25363" lon="2.06729">
        <ele>144.4</ele>
        <time>2026-05-27T09:09:04Z</time>
      </trkpt>
      <trkpt lat="43.25356" lon="2.06726">
        <ele>144.4</ele>
        <time>2026-05-27T09:09:09Z</time>
      </trkpt>
      <trkpt lat="43.25349" lon="2.06725">
        <ele>144.4</ele>
        <time>2026-05-27T09:09:14Z</time>
      </trkpt>
      <trkpt lat="43.25342" lon="2.06723">
        <ele>144.4</ele>
        <time>2026-05-27T09:09:19Z</time>
      </trkpt>
      <trkpt lat="43.25334" lon="2.06721">
        <ele>144.4</ele>
        <time>2026-05-27T09:09:24Z</time>
      </trkpt>
      <trkpt lat="43.25328" lon="2.06718">
        <ele>144.4</ele>
        <time>2026-05-27T09:09:29Z</time>
      </trkpt>
      <trkpt lat="43.25321" lon="2.06715">
        <ele>144.4</ele>
        <time>2026-05-27T09:09:34Z</time>
      </trkpt>
      <trkpt lat="43.25315" lon="2.06713">
        <ele>144.3</ele>
        <time>2026-05-27T09:09:39Z</time>
      </trkpt>
      <trkpt lat="43.25308" lon="2.06712">
        <ele>144.3</ele>
        <time>2026-05-27T09:09:44Z</time>
      </trkpt>
      <trkpt lat="43.25302" lon="2.0671">
        <ele>144.3</ele>
        <time>2026-05-27T09:09:49Z</time>
      </trkpt>
      <trkpt lat="43.25296" lon="2.06709">
        <ele>144.3</ele>
        <time>2026-05-27T09:09:54Z</time>
      </trkpt>
      <trkpt lat="43.2529" lon="2.06707">
        <ele>144.2</ele>
        <time>2026-05-27T09:09:59Z</time>
      </trkpt>
      <trkpt lat="43.25283" lon="2.06705">
        <ele>144.2</ele>
        <time>2026-05-27T09:10:04Z</time>
      </trkpt>
      <trkpt lat="43.25275" lon="2.06704">
        <ele>144.2</ele>
        <time>2026-05-27T09:10:09Z</time>
      </trkpt>
      <trkpt lat="43.25269" lon="2.06703">
        <ele>144.1</ele>
        <time>2026-05-27T09:10:14Z</time>
      </trkpt>
      <trkpt lat="43.25262" lon="2.06703">
        <ele>144.1</ele>
        <time>2026-05-27T09:10:19Z</time>
      </trkpt>
      <trkpt lat="43.25255" lon="2.06702">
        <ele>144</ele>
        <time>2026-05-27T09:10:24Z</time>
      </trkpt>
      <trkpt lat="43.25248" lon="2.067">
        <ele>144</ele>
        <time>2026-05-27T09:10:29Z</time>
      </trkpt>
      <trkpt lat="43.25241" lon="2.067">
        <ele>144.1</ele>
        <time>2026-05-27T09:10:34Z</time>
      </trkpt>
      <trkpt lat="43.25234" lon="2.06699">
        <ele>144.2</ele>
        <time>2026-05-27T09:10:39Z</time>
      </trkpt>
      <trkpt lat="43.25227" lon="2.06698">
        <ele>144.3</ele>
        <time>2026-05-27T09:10:44Z</time>
      </trkpt>
      <trkpt lat="43.25221" lon="2.06696">
        <ele>144.3</ele>
        <time>2026-05-27T09:10:49Z</time>
      </trkpt>
      <trkpt lat="43.25214" lon="2.06696">
        <ele>144.4</ele>
        <time>2026-05-27T09:10:54Z</time>
      </trkpt>
      <trkpt lat="43.25207" lon="2.06695">
        <ele>144.5</ele>
        <time>2026-05-27T09:10:59Z</time>
      </trkpt>
      <trkpt lat="43.25201" lon="2.06692">
        <ele>144.6</ele>
        <time>2026-05-27T09:11:04Z</time>
      </trkpt>
      <trkpt lat="43.25194" lon="2.0669">
        <ele>144.7</ele>
        <time>2026-05-27T09:11:09Z</time>
      </trkpt>
      <trkpt lat="43.25188" lon="2.06686">
        <ele>144.7</ele>
        <time>2026-05-27T09:11:14Z</time>
      </trkpt>
      <trkpt lat="43.25182" lon="2.06683">
        <ele>144.8</ele>
        <time>2026-05-27T09:11:19Z</time>
      </trkpt>
      <trkpt lat="43.25176" lon="2.0668">
        <ele>144.9</ele>
        <time>2026-05-27T09:11:24Z</time>
      </trkpt>
      <trkpt lat="43.25169" lon="2.06677">
        <ele>145</ele>
        <time>2026-05-27T09:11:29Z</time>
      </trkpt>
      <trkpt lat="43.25163" lon="2.06674">
        <ele>145</ele>
        <time>2026-05-27T09:11:34Z</time>
      </trkpt>
      <trkpt lat="43.25157" lon="2.06671">
        <ele>145</ele>
        <time>2026-05-27T09:11:39Z</time>
      </trkpt>
      <trkpt lat="43.25151" lon="2.06668">
        <ele>145</ele>
        <time>2026-05-27T09:11:44Z</time>
      </trkpt>
      <trkpt lat="43.25144" lon="2.06666">
        <ele>145</ele>
        <time>2026-05-27T09:11:49Z</time>
      </trkpt>
      <trkpt lat="43.25137" lon="2.06663">
        <ele>145</ele>
        <time>2026-05-27T09:11:54Z</time>
      </trkpt>
      <trkpt lat="43.25131" lon="2.0666">
        <ele>145</ele>
        <time>2026-05-27T09:11:59Z</time>
      </trkpt>
      <trkpt lat="43.25125" lon="2.06658">
        <ele>145.1</ele>
        <time>2026-05-27T09:12:04Z</time>
      </trkpt>
      <trkpt lat="43.25118" lon="2.06656">
        <ele>145.1</ele>
        <time>2026-05-27T09:12:09Z</time>
      </trkpt>
      <trkpt lat="43.25111" lon="2.06654">
        <ele>145.1</ele>
        <time>2026-05-27T09:12:14Z</time>
      </trkpt>
      <trkpt lat="43.25104" lon="2.06652">
        <ele>145.1</ele>
        <time>2026-05-27T09:12:19Z</time>
      </trkpt>
      <trkpt lat="43.25097" lon="2.06651">
        <ele>145.2</ele>
        <time>2026-05-27T09:12:24Z</time>
      </trkpt>
      <trkpt lat="43.2509" lon="2.0665">
        <ele>145.2</ele>
        <time>2026-05-27T09:12:29Z</time>
      </trkpt>
      <trkpt lat="43.25084" lon="2.06648">
        <ele>145.2</ele>
        <time>2026-05-27T09:12:34Z</time>
      </trkpt>
      <trkpt lat="43.25077" lon="2.06648">
        <ele>145.3</ele>
        <time>2026-05-27T09:12:39Z</time>
      </trkpt>
      <trkpt lat="43.2507" lon="2.06646">
        <ele>145.4</ele>
        <time>2026-05-27T09:12:44Z</time>
      </trkpt>
      <trkpt lat="43.25064" lon="2.06645">
        <ele>145.4</ele>
        <time>2026-05-27T09:12:49Z</time>
      </trkpt>
      <trkpt lat="43.25058" lon="2.06645">
        <ele>145.5</ele>
        <time>2026-05-27T09:12:54Z</time>
      </trkpt>
      <trkpt lat="43.25051" lon="2.06645">
        <ele>145.5</ele>
        <time>2026-05-27T09:12:59Z</time>
      </trkpt>
      <trkpt lat="43.25044" lon="2.06645">
        <ele>145.6</ele>
        <time>2026-05-27T09:13:04Z</time>
      </trkpt>
      <trkpt lat="43.25037" lon="2.06643">
        <ele>145.7</ele>
        <time>2026-05-27T09:13:09Z</time>
      </trkpt>
      <trkpt lat="43.25031" lon="2.06642">
        <ele>145.7</ele>
        <time>2026-05-27T09:13:14Z</time>
      </trkpt>
      <trkpt lat="43.25024" lon="2.06641">
        <ele>145.8</ele>
        <time>2026-05-27T09:13:19Z</time>
      </trkpt>
      <trkpt lat="43.25018" lon="2.0664">
        <ele>145.9</ele>
        <time>2026-05-27T09:13:24Z</time>
      </trkpt>
      <trkpt lat="43.25011" lon="2.06641">
        <ele>145.9</ele>
        <time>2026-05-27T09:13:29Z</time>
      </trkpt>
      <trkpt lat="43.25004" lon="2.06639">
        <ele>146</ele>
        <time>2026-05-27T09:13:34Z</time>
      </trkpt>
      <trkpt lat="43.24998" lon="2.06639">
        <ele>146</ele>
        <time>2026-05-27T09:13:39Z</time>
      </trkpt>
      <trkpt lat="43.24991" lon="2.06639">
        <ele>146</ele>
        <time>2026-05-27T09:13:44Z</time>
      </trkpt>
      <trkpt lat="43.24985" lon="2.06638">
        <ele>146.1</ele>
        <time>2026-05-27T09:13:49Z</time>
      </trkpt>
      <trkpt lat="43.24979" lon="2.06639">
        <ele>146.1</ele>
        <time>2026-05-27T09:13:54Z</time>
      </trkpt>
      <trkpt lat="43.24973" lon="2.06638">
        <ele>146.1</ele>
        <time>2026-05-27T09:13:59Z</time>
      </trkpt>
      <trkpt lat="43.24967" lon="2.06638">
        <ele>146.1</ele>
        <time>2026-05-27T09:14:04Z</time>
      </trkpt>
      <trkpt lat="43.2496" lon="2.06637">
        <ele>146.2</ele>
        <time>2026-05-27T09:14:09Z</time>
      </trkpt>
      <trkpt lat="43.24955" lon="2.06636">
        <ele>146.2</ele>
        <time>2026-05-27T09:14:14Z</time>
      </trkpt>
      <trkpt lat="43.24948" lon="2.06634">
        <ele>146.2</ele>
        <time>2026-05-27T09:14:19Z</time>
      </trkpt>
      <trkpt lat="43.24943" lon="2.06632">
        <ele>146.3</ele>
        <time>2026-05-27T09:14:24Z</time>
      </trkpt>
      <trkpt lat="43.24936" lon="2.06632">
        <ele>146.3</ele>
        <time>2026-05-27T09:14:29Z</time>
      </trkpt>
      <trkpt lat="43.2493" lon="2.06631">
        <ele>146.4</ele>
        <time>2026-05-27T09:14:34Z</time>
      </trkpt>
      <trkpt lat="43.24924" lon="2.0663">
        <ele>146.4</ele>
        <time>2026-05-27T09:14:39Z</time>
      </trkpt>
      <trkpt lat="43.24917" lon="2.06629">
        <ele>146.5</ele>
        <time>2026-05-27T09:14:44Z</time>
      </trkpt>
      <trkpt lat="43.2491" lon="2.06627">
        <ele>146.5</ele>
        <time>2026-05-27T09:14:49Z</time>
      </trkpt>
      <trkpt lat="43.24905" lon="2.06626">
        <ele>146.5</ele>
        <time>2026-05-27T09:14:54Z</time>
      </trkpt>
      <trkpt lat="43.24899" lon="2.06624">
        <ele>146.5</ele>
        <time>2026-05-27T09:14:59Z</time>
      </trkpt>
      <trkpt lat="43.24892" lon="2.06622">
        <ele>146.6</ele>
        <time>2026-05-27T09:15:04Z</time>
      </trkpt>
      <trkpt lat="43.24886" lon="2.0662">
        <ele>146.6</ele>
        <time>2026-05-27T09:15:09Z</time>
      </trkpt>
      <trkpt lat="43.2488" lon="2.06617">
        <ele>146.7</ele>
        <time>2026-05-27T09:15:14Z</time>
      </trkpt>
      <trkpt lat="43.24873" lon="2.06614">
        <ele>146.8</ele>
        <time>2026-05-27T09:15:19Z</time>
      </trkpt>
      <trkpt lat="43.24867" lon="2.06611">
        <ele>146.9</ele>
        <time>2026-05-27T09:15:24Z</time>
      </trkpt>
      <trkpt lat="43.24861" lon="2.06608">
        <ele>147</ele>
        <time>2026-05-27T09:15:29Z</time>
      </trkpt>
      <trkpt lat="43.24855" lon="2.06605">
        <ele>147.1</ele>
        <time>2026-05-27T09:15:34Z</time>
      </trkpt>
      <trkpt lat="43.24849" lon="2.06602">
        <ele>147.2</ele>
        <time>2026-05-27T09:15:39Z</time>
      </trkpt>
      <trkpt lat="43.24843" lon="2.06598">
        <ele>147.4</ele>
        <time>2026-05-27T09:15:44Z</time>
      </trkpt>
      <trkpt lat="43.24837" lon="2.06594">
        <ele>147.6</ele>
        <time>2026-05-27T09:15:49Z</time>
      </trkpt>
      <trkpt lat="43.24831" lon="2.06592">
        <ele>147.6</ele>
        <time>2026-05-27T09:15:54Z</time>
      </trkpt>
      <trkpt lat="43.24827" lon="2.06588">
        <ele>147.6</ele>
        <time>2026-05-27T09:15:59Z</time>
      </trkpt>
      <trkpt lat="43.24822" lon="2.06587">
        <ele>147.5</ele>
        <time>2026-05-27T09:16:04Z</time>
      </trkpt>
      <trkpt lat="43.24816" lon="2.06584">
        <ele>147.4</ele>
        <time>2026-05-27T09:16:09Z</time>
      </trkpt>
      <trkpt lat="43.2481" lon="2.06581">
        <ele>147.1</ele>
        <time>2026-05-27T09:16:14Z</time>
      </trkpt>
      <trkpt lat="43.24805" lon="2.06577">
        <ele>147</ele>
        <time>2026-05-27T09:16:19Z</time>
      </trkpt>
      <trkpt lat="43.24799" lon="2.06574">
        <ele>146.7</ele>
        <time>2026-05-27T09:16:24Z</time>
      </trkpt>
      <trkpt lat="43.24793" lon="2.0657">
        <ele>146.5</ele>
        <time>2026-05-27T09:16:29Z</time>
      </trkpt>
      <trkpt lat="43.24787" lon="2.06567">
        <ele>146.4</ele>
        <time>2026-05-27T09:16:34Z</time>
      </trkpt>
      <trkpt lat="43.24781" lon="2.06564">
        <ele>146.2</ele>
        <time>2026-05-27T09:16:39Z</time>
      </trkpt>
      <trkpt lat="43.24775" lon="2.06561">
        <ele>146</ele>
        <time>2026-05-27T09:16:44Z</time>
      </trkpt>
      <trkpt lat="43.24772" lon="2.06558">
        <ele>145.9</ele>
        <time>2026-05-27T09:16:49Z</time>
      </trkpt>
      <trkpt lat="43.24767" lon="2.06555">
        <ele>145.8</ele>
        <time>2026-05-27T09:16:54Z</time>
      </trkpt>
      <trkpt lat="43.24761" lon="2.06552">
        <ele>145.7</ele>
        <time>2026-05-27T09:16:59Z</time>
      </trkpt>
      <trkpt lat="43.24756" lon="2.06549">
        <ele>145.6</ele>
        <time>2026-05-27T09:17:04Z</time>
      </trkpt>
      <trkpt lat="43.24749" lon="2.06547">
        <ele>145.4</ele>
        <time>2026-05-27T09:17:09Z</time>
      </trkpt>
      <trkpt lat="43.24744" lon="2.06542">
        <ele>145.3</ele>
        <time>2026-05-27T09:17:14Z</time>
      </trkpt>
      <trkpt lat="43.24739" lon="2.06539">
        <ele>145.2</ele>
        <time>2026-05-27T09:17:19Z</time>
      </trkpt>
      <trkpt lat="43.24733" lon="2.06537">
        <ele>145</ele>
        <time>2026-05-27T09:17:24Z</time>
      </trkpt>
      <trkpt lat="43.24727" lon="2.06535">
        <ele>144.9</ele>
        <time>2026-05-27T09:17:29Z</time>
      </trkpt>
      <trkpt lat="43.2472" lon="2.06534">
        <ele>144.7</ele>
        <time>2026-05-27T09:17:34Z</time>
      </trkpt>
      <trkpt lat="43.24714" lon="2.06531">
        <ele>144.5</ele>
        <time>2026-05-27T09:17:39Z</time>
      </trkpt>
      <trkpt lat="43.24707" lon="2.06527">
        <ele>144.3</ele>
        <time>2026-05-27T09:17:44Z</time>
      </trkpt>
      <trkpt lat="43.24701" lon="2.06524">
        <ele>144.1</ele>
        <time>2026-05-27T09:17:49Z</time>
      </trkpt>
      <trkpt lat="43.24694" lon="2.0652">
        <ele>143.9</ele>
        <time>2026-05-27T09:17:54Z</time>
      </trkpt>
      <trkpt lat="43.24689" lon="2.06517">
        <ele>143.7</ele>
        <time>2026-05-27T09:17:59Z</time>
      </trkpt>
      <trkpt lat="43.24684" lon="2.06513">
        <ele>143.6</ele>
        <time>2026-05-27T09:18:04Z</time>
      </trkpt>
      <trkpt lat="43.24677" lon="2.0651">
        <ele>143.4</ele>
        <time>2026-05-27T09:18:09Z</time>
      </trkpt>
      <trkpt lat="43.24671" lon="2.06509">
        <ele>143.2</ele>
        <time>2026-05-27T09:18:14Z</time>
      </trkpt>
      <trkpt lat="43.24664" lon="2.06508">
        <ele>143</ele>
        <time>2026-05-27T09:18:19Z</time>
      </trkpt>
      <trkpt lat="43.24659" lon="2.06507">
        <ele>143.1</ele>
        <time>2026-05-27T09:18:24Z</time>
      </trkpt>
      <trkpt lat="43.24656" lon="2.065">
        <ele>143.1</ele>
        <time>2026-05-27T09:18:29Z</time>
      </trkpt>
      <trkpt lat="43.24656" lon="2.06491">
        <ele>143.3</ele>
        <time>2026-05-27T09:18:34Z</time>
      </trkpt>
      <trkpt lat="43.24659" lon="2.06485">
        <ele>143.4</ele>
        <time>2026-05-27T09:18:39Z</time>
      </trkpt>
      <trkpt lat="43.24666" lon="2.06481">
        <ele>143.5</ele>
        <time>2026-05-27T09:18:44Z</time>
      </trkpt>
      <trkpt lat="43.24672" lon="2.06483">
        <ele>143.6</ele>
        <time>2026-05-27T09:18:49Z</time>
      </trkpt>
      <trkpt lat="43.24678" lon="2.06483">
        <ele>143.7</ele>
        <time>2026-05-27T09:18:54Z</time>
      </trkpt>
      <trkpt lat="43.24685" lon="2.06487">
        <ele>143.9</ele>
        <time>2026-05-27T09:18:59Z</time>
      </trkpt>
      <trkpt lat="43.24692" lon="2.06491">
        <ele>144</ele>
        <time>2026-05-27T09:19:04Z</time>
      </trkpt>
      <trkpt lat="43.24697" lon="2.06492">
        <ele>144.2</ele>
        <time>2026-05-27T09:19:09Z</time>
      </trkpt>
      <trkpt lat="43.24701" lon="2.06495">
        <ele>144.3</ele>
        <time>2026-05-27T09:19:14Z</time>
      </trkpt>
      <trkpt lat="43.24702" lon="2.06496">
        <ele>144.3</ele>
        <time>2026-05-27T09:19:19Z</time>
      </trkpt>
      <trkpt lat="43.24704" lon="2.06496">
        <ele>144.4</ele>
        <time>2026-05-27T09:19:24Z</time>
      </trkpt>
      <trkpt lat="43.24708" lon="2.06499">
        <ele>144.5</ele>
        <time>2026-05-27T09:19:29Z</time>
      </trkpt>
      <trkpt lat="43.24714" lon="2.06501">
        <ele>144.7</ele>
        <time>2026-05-27T09:19:34Z</time>
      </trkpt>
      <trkpt lat="43.24719" lon="2.06503">
        <ele>144.9</ele>
        <time>2026-05-27T09:19:39Z</time>
      </trkpt>
      <trkpt lat="43.24726" lon="2.06506">
        <ele>145.1</ele>
        <time>2026-05-27T09:19:44Z</time>
      </trkpt>
      <trkpt lat="43.24732" lon="2.06508">
        <ele>145.3</ele>
        <time>2026-05-27T09:19:49Z</time>
      </trkpt>
      <trkpt lat="43.24738" lon="2.06511">
        <ele>145.5</ele>
        <time>2026-05-27T09:19:54Z</time>
      </trkpt>
      <trkpt lat="43.24744" lon="2.06514">
        <ele>145.6</ele>
        <time>2026-05-27T09:19:59Z</time>
      </trkpt>
      <trkpt lat="43.24749" lon="2.06516">
        <ele>145.8</ele>
        <time>2026-05-27T09:20:04Z</time>
      </trkpt>
      <trkpt lat="43.24755" lon="2.06519">
        <ele>145.9</ele>
        <time>2026-05-27T09:20:09Z</time>
      </trkpt>
      <trkpt lat="43.24762" lon="2.06521">
        <ele>146</ele>
        <time>2026-05-27T09:20:14Z</time>
      </trkpt>
      <trkpt lat="43.24769" lon="2.06522">
        <ele>146.1</ele>
        <time>2026-05-27T09:20:19Z</time>
      </trkpt>
      <trkpt lat="43.24775" lon="2.06521">
        <ele>146.2</ele>
        <time>2026-05-27T09:20:24Z</time>
      </trkpt>
      <trkpt lat="43.24781" lon="2.06517">
        <ele>146.3</ele>
        <time>2026-05-27T09:20:29Z</time>
      </trkpt>
      <trkpt lat="43.24788" lon="2.06511">
        <ele>146.4</ele>
        <time>2026-05-27T09:20:34Z</time>
      </trkpt>
      <trkpt lat="43.24792" lon="2.06504">
        <ele>146.5</ele>
        <time>2026-05-27T09:20:39Z</time>
      </trkpt>
      <trkpt lat="43.24795" lon="2.06495">
        <ele>146.4</ele>
        <time>2026-05-27T09:20:44Z</time>
      </trkpt>
      <trkpt lat="43.24797" lon="2.06486">
        <ele>146.2</ele>
        <time>2026-05-27T09:20:49Z</time>
      </trkpt>
      <trkpt lat="43.24799" lon="2.06477">
        <ele>146</ele>
        <time>2026-05-27T09:20:54Z</time>
      </trkpt>
      <trkpt lat="43.24801" lon="2.06469">
        <ele>145.8</ele>
        <time>2026-05-27T09:20:59Z</time>
      </trkpt>
      <trkpt lat="43.24804" lon="2.06462">
        <ele>145.6</ele>
        <time>2026-05-27T09:21:04Z</time>
      </trkpt>
      <trkpt lat="43.24808" lon="2.06453">
        <ele>145.3</ele>
        <time>2026-05-27T09:21:09Z</time>
      </trkpt>
      <trkpt lat="43.2481" lon="2.06445">
        <ele>145.1</ele>
        <time>2026-05-27T09:21:14Z</time>
      </trkpt>
      <trkpt lat="43.24812" lon="2.06437">
        <ele>144.9</ele>
        <time>2026-05-27T09:21:19Z</time>
      </trkpt>
      <trkpt lat="43.24814" lon="2.06428">
        <ele>144.6</ele>
        <time>2026-05-27T09:21:24Z</time>
      </trkpt>
      <trkpt lat="43.24817" lon="2.06419">
        <ele>144.3</ele>
        <time>2026-05-27T09:21:29Z</time>
      </trkpt>
      <trkpt lat="43.24821" lon="2.0641">
        <ele>144.1</ele>
        <time>2026-05-27T09:21:34Z</time>
      </trkpt>
      <trkpt lat="43.24822" lon="2.064">
        <ele>143.9</ele>
        <time>2026-05-27T09:21:39Z</time>
      </trkpt>
      <trkpt lat="43.24825" lon="2.06392">
        <ele>143.8</ele>
        <time>2026-05-27T09:21:44Z</time>
      </trkpt>
      <trkpt lat="43.24827" lon="2.06383">
        <ele>143.7</ele>
        <time>2026-05-27T09:21:49Z</time>
      </trkpt>
      <trkpt lat="43.2483" lon="2.06373">
        <ele>143.5</ele>
        <time>2026-05-27T09:21:54Z</time>
      </trkpt>
      <trkpt lat="43.24833" lon="2.06365">
        <ele>143.4</ele>
        <time>2026-05-27T09:21:59Z</time>
      </trkpt>
      <trkpt lat="43.24836" lon="2.06356">
        <ele>143.4</ele>
        <time>2026-05-27T09:22:04Z</time>
      </trkpt>
      <trkpt lat="43.24839" lon="2.06346">
        <ele>143.3</ele>
        <time>2026-05-27T09:22:09Z</time>
      </trkpt>
      <trkpt lat="43.2484" lon="2.06338">
        <ele>143.3</ele>
        <time>2026-05-27T09:22:14Z</time>
      </trkpt>
      <trkpt lat="43.24842" lon="2.06329">
        <ele>143.2</ele>
        <time>2026-05-27T09:22:19Z</time>
      </trkpt>
      <trkpt lat="43.24844" lon="2.0632">
        <ele>143.2</ele>
        <time>2026-05-27T09:22:24Z</time>
      </trkpt>
      <trkpt lat="43.24847" lon="2.06312">
        <ele>143.2</ele>
        <time>2026-05-27T09:22:29Z</time>
      </trkpt>
      <trkpt lat="43.24849" lon="2.06304">
        <ele>143.1</ele>
        <time>2026-05-27T09:22:34Z</time>
      </trkpt>
      <trkpt lat="43.24853" lon="2.06296">
        <ele>143</ele>
        <time>2026-05-27T09:22:39Z</time>
      </trkpt>
      <trkpt lat="43.24855" lon="2.06287">
        <ele>142.9</ele>
        <time>2026-05-27T09:22:44Z</time>
      </trkpt>
      <trkpt lat="43.24857" lon="2.06278">
        <ele>142.8</ele>
        <time>2026-05-27T09:22:49Z</time>
      </trkpt>
      <trkpt lat="43.24858" lon="2.06268">
        <ele>142.6</ele>
        <time>2026-05-27T09:22:54Z</time>
      </trkpt>
      <trkpt lat="43.2486" lon="2.06259">
        <ele>142.5</ele>
        <time>2026-05-27T09:22:59Z</time>
      </trkpt>
      <trkpt lat="43.24863" lon="2.0625">
        <ele>142.4</ele>
        <time>2026-05-27T09:23:04Z</time>
      </trkpt>
      <trkpt lat="43.24866" lon="2.0624">
        <ele>142.4</ele>
        <time>2026-05-27T09:23:09Z</time>
      </trkpt>
      <trkpt lat="43.24868" lon="2.06231">
        <ele>142.4</ele>
        <time>2026-05-27T09:23:14Z</time>
      </trkpt>
      <trkpt lat="43.2487" lon="2.06225">
        <ele>142.4</ele>
        <time>2026-05-27T09:23:19Z</time>
      </trkpt>
      <trkpt lat="43.24872" lon="2.06215">
        <ele>142.5</ele>
        <time>2026-05-27T09:23:24Z</time>
      </trkpt>
      <trkpt lat="43.24873" lon="2.06206">
        <ele>142.5</ele>
        <time>2026-05-27T09:23:29Z</time>
      </trkpt>
      <trkpt lat="43.24874" lon="2.06197">
        <ele>142.5</ele>
        <time>2026-05-27T09:23:34Z</time>
      </trkpt>
      <trkpt lat="43.24876" lon="2.06186">
        <ele>142.5</ele>
        <time>2026-05-27T09:23:39Z</time>
      </trkpt>
      <trkpt lat="43.24879" lon="2.06177">
        <ele>142.5</ele>
        <time>2026-05-27T09:23:44Z</time>
      </trkpt>
      <trkpt lat="43.24882" lon="2.06169">
        <ele>142.6</ele>
        <time>2026-05-27T09:23:49Z</time>
      </trkpt>
      <trkpt lat="43.24886" lon="2.06161">
        <ele>142.6</ele>
        <time>2026-05-27T09:23:54Z</time>
      </trkpt>
      <trkpt lat="43.24888" lon="2.06152">
        <ele>142.6</ele>
        <time>2026-05-27T09:23:59Z</time>
      </trkpt>
      <trkpt lat="43.2489" lon="2.06144">
        <ele>142.6</ele>
        <time>2026-05-27T09:24:04Z</time>
      </trkpt>
      <trkpt lat="43.24891" lon="2.06135">
        <ele>142.5</ele>
        <time>2026-05-27T09:24:09Z</time>
      </trkpt>
      <trkpt lat="43.24894" lon="2.06125">
        <ele>142.5</ele>
        <time>2026-05-27T09:24:14Z</time>
      </trkpt>
      <trkpt lat="43.24897" lon="2.06117">
        <ele>142.4</ele>
        <time>2026-05-27T09:24:19Z</time>
      </trkpt>
      <trkpt lat="43.249" lon="2.06108">
        <ele>142.4</ele>
        <time>2026-05-27T09:24:24Z</time>
      </trkpt>
      <trkpt lat="43.24902" lon="2.06099">
        <ele>142.3</ele>
        <time>2026-05-27T09:24:29Z</time>
      </trkpt>
      <trkpt lat="43.24903" lon="2.06089">
        <ele>142.2</ele>
        <time>2026-05-27T09:24:34Z</time>
      </trkpt>
      <trkpt lat="43.24899" lon="2.06081">
        <ele>142.2</ele>
        <time>2026-05-27T09:24:39Z</time>
      </trkpt>
      <trkpt lat="43.24893" lon="2.06075">
        <ele>142.3</ele>
        <time>2026-05-27T09:24:44Z</time>
      </trkpt>
      <trkpt lat="43.24886" lon="2.0607">
        <ele>142.4</ele>
        <time>2026-05-27T09:24:49Z</time>
      </trkpt>
      <trkpt lat="43.2488" lon="2.06062">
        <ele>142.6</ele>
        <time>2026-05-27T09:24:54Z</time>
      </trkpt>
      <trkpt lat="43.24875" lon="2.06056">
        <ele>142.7</ele>
        <time>2026-05-27T09:24:59Z</time>
      </trkpt>
      <trkpt lat="43.2487" lon="2.0605">
        <ele>142.8</ele>
        <time>2026-05-27T09:25:04Z</time>
      </trkpt>
      <trkpt lat="43.24865" lon="2.06043">
        <ele>142.9</ele>
        <time>2026-05-27T09:25:09Z</time>
      </trkpt>
      <trkpt lat="43.24861" lon="2.06035">
        <ele>143.1</ele>
        <time>2026-05-27T09:25:14Z</time>
      </trkpt>
      <trkpt lat="43.24858" lon="2.06028">
        <ele>143.2</ele>
        <time>2026-05-27T09:25:19Z</time>
      </trkpt>
      <trkpt lat="43.24856" lon="2.06019">
        <ele>143.3</ele>
        <time>2026-05-27T09:25:24Z</time>
      </trkpt>
      <trkpt lat="43.24854" lon="2.06011">
        <ele>143.4</ele>
        <time>2026-05-27T09:25:29Z</time>
      </trkpt>
      <trkpt lat="43.2485" lon="2.06002">
        <ele>143.6</ele>
        <time>2026-05-27T09:25:34Z</time>
      </trkpt>
      <trkpt lat="43.24847" lon="2.05993">
        <ele>143.7</ele>
        <time>2026-05-27T09:25:39Z</time>
      </trkpt>
      <trkpt lat="43.24843" lon="2.05985">
        <ele>143.8</ele>
        <time>2026-05-27T09:25:44Z</time>
      </trkpt>
      <trkpt lat="43.2484" lon="2.05977">
        <ele>143.8</ele>
        <time>2026-05-27T09:25:49Z</time>
      </trkpt>
      <trkpt lat="43.24835" lon="2.0597">
        <ele>144</ele>
        <time>2026-05-27T09:25:54Z</time>
      </trkpt>
      <trkpt lat="43.2483" lon="2.05964">
        <ele>144.1</ele>
        <time>2026-05-27T09:25:59Z</time>
      </trkpt>
      <trkpt lat="43.24824" lon="2.05959">
        <ele>144.2</ele>
        <time>2026-05-27T09:26:04Z</time>
      </trkpt>
      <trkpt lat="43.24819" lon="2.05952">
        <ele>144.3</ele>
        <time>2026-05-27T09:26:09Z</time>
      </trkpt>
      <trkpt lat="43.24814" lon="2.05947">
        <ele>144.4</ele>
        <time>2026-05-27T09:26:14Z</time>
      </trkpt>
      <trkpt lat="43.2481" lon="2.05944">
        <ele>144.5</ele>
        <time>2026-05-27T09:26:19Z</time>
      </trkpt>
      <trkpt lat="43.24805" lon="2.05939">
        <ele>144.6</ele>
        <time>2026-05-27T09:26:24Z</time>
      </trkpt>
      <trkpt lat="43.24799" lon="2.05933">
        <ele>144.7</ele>
        <time>2026-05-27T09:26:29Z</time>
      </trkpt>
      <trkpt lat="43.24794" lon="2.05928">
        <ele>144.9</ele>
        <time>2026-05-27T09:26:34Z</time>
      </trkpt>
      <trkpt lat="43.24789" lon="2.05923">
        <ele>145</ele>
        <time>2026-05-27T09:26:39Z</time>
      </trkpt>
      <trkpt lat="43.24782" lon="2.05918">
        <ele>145.2</ele>
        <time>2026-05-27T09:26:44Z</time>
      </trkpt>
      <trkpt lat="43.24776" lon="2.05914">
        <ele>145.4</ele>
        <time>2026-05-27T09:26:49Z</time>
      </trkpt>
      <trkpt lat="43.24771" lon="2.0591">
        <ele>145.4</ele>
        <time>2026-05-27T09:26:54Z</time>
      </trkpt>
      <trkpt lat="43.24765" lon="2.05907">
        <ele>145.5</ele>
        <time>2026-05-27T09:26:59Z</time>
      </trkpt>
      <trkpt lat="43.24758" lon="2.05903">
        <ele>145.7</ele>
        <time>2026-05-27T09:27:04Z</time>
      </trkpt>
      <trkpt lat="43.24752" lon="2.05899">
        <ele>145.7</ele>
        <time>2026-05-27T09:27:09Z</time>
      </trkpt>
      <trkpt lat="43.24746" lon="2.05897">
        <ele>145.8</ele>
        <time>2026-05-27T09:27:14Z</time>
      </trkpt>
      <trkpt lat="43.24739" lon="2.05893">
        <ele>145.8</ele>
        <time>2026-05-27T09:27:19Z</time>
      </trkpt>
      <trkpt lat="43.24733" lon="2.05889">
        <ele>145.9</ele>
        <time>2026-05-27T09:27:24Z</time>
      </trkpt>
      <trkpt lat="43.24727" lon="2.05886">
        <ele>145.9</ele>
        <time>2026-05-27T09:27:29Z</time>
      </trkpt>
      <trkpt lat="43.2472" lon="2.05884">
        <ele>146</ele>
        <time>2026-05-27T09:27:34Z</time>
      </trkpt>
      <trkpt lat="43.24715" lon="2.05882">
        <ele>146</ele>
        <time>2026-05-27T09:27:39Z</time>
      </trkpt>
      <trkpt lat="43.24708" lon="2.05879">
        <ele>146.1</ele>
        <time>2026-05-27T09:27:44Z</time>
      </trkpt>
      <trkpt lat="43.24702" lon="2.05875">
        <ele>146.1</ele>
        <time>2026-05-27T09:27:49Z</time>
      </trkpt>
      <trkpt lat="43.24695" lon="2.05872">
        <ele>146.1</ele>
        <time>2026-05-27T09:27:54Z</time>
      </trkpt>
      <trkpt lat="43.24689" lon="2.05868">
        <ele>146.1</ele>
        <time>2026-05-27T09:27:59Z</time>
      </trkpt>
      <trkpt lat="43.24684" lon="2.05866">
        <ele>146.2</ele>
        <time>2026-05-27T09:28:04Z</time>
      </trkpt>
      <trkpt lat="43.24678" lon="2.05863">
        <ele>146.2</ele>
        <time>2026-05-27T09:28:09Z</time>
      </trkpt>
      <trkpt lat="43.24673" lon="2.05859">
        <ele>146.2</ele>
        <time>2026-05-27T09:28:14Z</time>
      </trkpt>
      <trkpt lat="43.24667" lon="2.05856">
        <ele>146.3</ele>
        <time>2026-05-27T09:28:19Z</time>
      </trkpt>
      <trkpt lat="43.2466" lon="2.05853">
        <ele>146.2</ele>
        <time>2026-05-27T09:28:24Z</time>
      </trkpt>
      <trkpt lat="43.24653" lon="2.0585">
        <ele>146.1</ele>
        <time>2026-05-27T09:28:29Z</time>
      </trkpt>
      <trkpt lat="43.24646" lon="2.05846">
        <ele>146.1</ele>
        <time>2026-05-27T09:28:34Z</time>
      </trkpt>
      <trkpt lat="43.2464" lon="2.05843">
        <ele>146</ele>
        <time>2026-05-27T09:28:39Z</time>
      </trkpt>
      <trkpt lat="43.24633" lon="2.05841">
        <ele>146</ele>
        <time>2026-05-27T09:28:44Z</time>
      </trkpt>
      <trkpt lat="43.24628" lon="2.05838">
        <ele>146</ele>
        <time>2026-05-27T09:28:49Z</time>
      </trkpt>
      <trkpt lat="43.24622" lon="2.05835">
        <ele>146</ele>
        <time>2026-05-27T09:28:54Z</time>
      </trkpt>
      <trkpt lat="43.24615" lon="2.05832">
        <ele>146</ele>
        <time>2026-05-27T09:28:59Z</time>
      </trkpt>
      <trkpt lat="43.24608" lon="2.05829">
        <ele>146</ele>
        <time>2026-05-27T09:29:04Z</time>
      </trkpt>
      <trkpt lat="43.24601" lon="2.05826">
        <ele>146</ele>
        <time>2026-05-27T09:29:09Z</time>
      </trkpt>
      <trkpt lat="43.24595" lon="2.05823">
        <ele>146</ele>
        <time>2026-05-27T09:29:14Z</time>
      </trkpt>
      <trkpt lat="43.24588" lon="2.0582">
        <ele>146</ele>
        <time>2026-05-27T09:29:19Z</time>
      </trkpt>
      <trkpt lat="43.24581" lon="2.05817">
        <ele>146</ele>
        <time>2026-05-27T09:29:24Z</time>
      </trkpt>
      <trkpt lat="43.24574" lon="2.05814">
        <ele>145.9</ele>
        <time>2026-05-27T09:29:29Z</time>
      </trkpt>
      <trkpt lat="43.24567" lon="2.0581">
        <ele>145.9</ele>
        <time>2026-05-27T09:29:34Z</time>
      </trkpt>
      <trkpt lat="43.24561" lon="2.05806">
        <ele>145.9</ele>
        <time>2026-05-27T09:29:39Z</time>
      </trkpt>
      <trkpt lat="43.24555" lon="2.05802">
        <ele>145.9</ele>
        <time>2026-05-27T09:29:44Z</time>
      </trkpt>
      <trkpt lat="43.24548" lon="2.05799">
        <ele>145.9</ele>
        <time>2026-05-27T09:29:49Z</time>
      </trkpt>
      <trkpt lat="43.24543" lon="2.05794">
        <ele>146</ele>
        <time>2026-05-27T09:29:54Z</time>
      </trkpt>
      <trkpt lat="43.24537" lon="2.0579">
        <ele>146</ele>
        <time>2026-05-27T09:29:59Z</time>
      </trkpt>
      <trkpt lat="43.24532" lon="2.05786">
        <ele>146.1</ele>
        <time>2026-05-27T09:30:04Z</time>
      </trkpt>
      <trkpt lat="43.24526" lon="2.05781">
        <ele>146.2</ele>
        <time>2026-05-27T09:30:09Z</time>
      </trkpt>
      <trkpt lat="43.2452" lon="2.05777">
        <ele>146.3</ele>
        <time>2026-05-27T09:30:14Z</time>
      </trkpt>
      <trkpt lat="43.24514" lon="2.05772">
        <ele>146.4</ele>
        <time>2026-05-27T09:30:19Z</time>
      </trkpt>
      <trkpt lat="43.24509" lon="2.05767">
        <ele>146.5</ele>
        <time>2026-05-27T09:30:24Z</time>
      </trkpt>
      <trkpt lat="43.24504" lon="2.05763">
        <ele>146.7</ele>
        <time>2026-05-27T09:30:29Z</time>
      </trkpt>
      <trkpt lat="43.24498" lon="2.05757">
        <ele>146.8</ele>
        <time>2026-05-27T09:30:34Z</time>
      </trkpt>
      <trkpt lat="43.24492" lon="2.05754">
        <ele>146.9</ele>
        <time>2026-05-27T09:30:39Z</time>
      </trkpt>
      <trkpt lat="43.24486" lon="2.05749">
        <ele>147</ele>
        <time>2026-05-27T09:30:44Z</time>
      </trkpt>
      <trkpt lat="43.2448" lon="2.05744">
        <ele>147</ele>
        <time>2026-05-27T09:30:49Z</time>
      </trkpt>
      <trkpt lat="43.24473" lon="2.05738">
        <ele>147</ele>
        <time>2026-05-27T09:30:54Z</time>
      </trkpt>
      <trkpt lat="43.24468" lon="2.05733">
        <ele>147</ele>
        <time>2026-05-27T09:30:59Z</time>
      </trkpt>
      <trkpt lat="43.24462" lon="2.05728">
        <ele>147</ele>
        <time>2026-05-27T09:31:04Z</time>
      </trkpt>
      <trkpt lat="43.24456" lon="2.05723">
        <ele>147</ele>
        <time>2026-05-27T09:31:09Z</time>
      </trkpt>
      <trkpt lat="43.24451" lon="2.05718">
        <ele>147</ele>
        <time>2026-05-27T09:31:14Z</time>
      </trkpt>
      <trkpt lat="43.24444" lon="2.05712">
        <ele>147</ele>
        <time>2026-05-27T09:31:19Z</time>
      </trkpt>
      <trkpt lat="43.2444" lon="2.05706">
        <ele>147</ele>
        <time>2026-05-27T09:31:24Z</time>
      </trkpt>
      <trkpt lat="43.24434" lon="2.05701">
        <ele>147</ele>
        <time>2026-05-27T09:31:29Z</time>
      </trkpt>
      <trkpt lat="43.24428" lon="2.05696">
        <ele>147</ele>
        <time>2026-05-27T09:31:34Z</time>
      </trkpt>
      <trkpt lat="43.24423" lon="2.05691">
        <ele>147</ele>
        <time>2026-05-27T09:31:39Z</time>
      </trkpt>
      <trkpt lat="43.24417" lon="2.05686">
        <ele>147</ele>
        <time>2026-05-27T09:31:44Z</time>
      </trkpt>
      <trkpt lat="43.24412" lon="2.0568">
        <ele>147.1</ele>
        <time>2026-05-27T09:31:49Z</time>
      </trkpt>
      <trkpt lat="43.24406" lon="2.05676">
        <ele>147.1</ele>
        <time>2026-05-27T09:31:54Z</time>
      </trkpt>
      <trkpt lat="43.244" lon="2.0567">
        <ele>147.2</ele>
        <time>2026-05-27T09:31:59Z</time>
      </trkpt>
      <trkpt lat="43.24395" lon="2.05664">
        <ele>147.3</ele>
        <time>2026-05-27T09:32:04Z</time>
      </trkpt>
      <trkpt lat="43.24389" lon="2.05658">
        <ele>147.4</ele>
        <time>2026-05-27T09:32:09Z</time>
      </trkpt>
      <trkpt lat="43.24384" lon="2.05653">
        <ele>147.6</ele>
        <time>2026-05-27T09:32:14Z</time>
      </trkpt>
      <trkpt lat="43.24379" lon="2.05648">
        <ele>147.7</ele>
        <time>2026-05-27T09:32:19Z</time>
      </trkpt>
      <trkpt lat="43.24374" lon="2.05642">
        <ele>147.8</ele>
        <time>2026-05-27T09:32:24Z</time>
      </trkpt>
      <trkpt lat="43.24368" lon="2.05637">
        <ele>147.9</ele>
        <time>2026-05-27T09:32:29Z</time>
      </trkpt>
      <trkpt lat="43.24364" lon="2.05631">
        <ele>148.1</ele>
        <time>2026-05-27T09:32:34Z</time>
      </trkpt>
      <trkpt lat="43.24358" lon="2.05625">
        <ele>148.2</ele>
        <time>2026-05-27T09:32:39Z</time>
      </trkpt>
      <trkpt lat="43.24353" lon="2.0562">
        <ele>148.3</ele>
        <time>2026-05-27T09:32:44Z</time>
      </trkpt>
      <trkpt lat="43.2435" lon="2.05616">
        <ele>148.4</ele>
        <time>2026-05-27T09:32:49Z</time>
      </trkpt>
      <trkpt lat="43.24349" lon="2.05615">
        <ele>148.4</ele>
        <time>2026-05-27T09:32:54Z</time>
      </trkpt>
      <trkpt lat="43.24344" lon="2.05611">
        <ele>148.5</ele>
        <time>2026-05-27T09:32:59Z</time>
      </trkpt>
      <trkpt lat="43.24339" lon="2.05605">
        <ele>148.7</ele>
        <time>2026-05-27T09:33:04Z</time>
      </trkpt>
      <trkpt lat="43.24334" lon="2.056">
        <ele>148.8</ele>
        <time>2026-05-27T09:33:09Z</time>
      </trkpt>
      <trkpt lat="43.24329" lon="2.05594">
        <ele>148.9</ele>
        <time>2026-05-27T09:33:14Z</time>
      </trkpt>
      <trkpt lat="43.24323" lon="2.05589">
        <ele>149.1</ele>
        <time>2026-05-27T09:33:19Z</time>
      </trkpt>
      <trkpt lat="43.24318" lon="2.05583">
        <ele>149.2</ele>
        <time>2026-05-27T09:33:24Z</time>
      </trkpt>
      <trkpt lat="43.24312" lon="2.05576">
        <ele>149.3</ele>
        <time>2026-05-27T09:33:29Z</time>
      </trkpt>
      <trkpt lat="43.24307" lon="2.05571">
        <ele>149.4</ele>
        <time>2026-05-27T09:33:34Z</time>
      </trkpt>
      <trkpt lat="43.24301" lon="2.05566">
        <ele>149.5</ele>
        <time>2026-05-27T09:33:39Z</time>
      </trkpt>
      <trkpt lat="43.24295" lon="2.05562">
        <ele>149.6</ele>
        <time>2026-05-27T09:33:44Z</time>
      </trkpt>
      <trkpt lat="43.24289" lon="2.05557">
        <ele>149.7</ele>
        <time>2026-05-27T09:33:49Z</time>
      </trkpt>
      <trkpt lat="43.24284" lon="2.05553">
        <ele>149.7</ele>
        <time>2026-05-27T09:33:54Z</time>
      </trkpt>
      <trkpt lat="43.24278" lon="2.05548">
        <ele>149.8</ele>
        <time>2026-05-27T09:33:59Z</time>
      </trkpt>
      <trkpt lat="43.24273" lon="2.05546">
        <ele>149.8</ele>
        <time>2026-05-27T09:34:04Z</time>
      </trkpt>
      <trkpt lat="43.24266" lon="2.05541">
        <ele>149.9</ele>
        <time>2026-05-27T09:34:09Z</time>
      </trkpt>
      <trkpt lat="43.24261" lon="2.05537">
        <ele>149.9</ele>
        <time>2026-05-27T09:34:14Z</time>
      </trkpt>
      <trkpt lat="43.24255" lon="2.05532">
        <ele>150</ele>
        <time>2026-05-27T09:34:19Z</time>
      </trkpt>
      <trkpt lat="43.24249" lon="2.05527">
        <ele>150</ele>
        <time>2026-05-27T09:34:24Z</time>
      </trkpt>
      <trkpt lat="43.24244" lon="2.0552">
        <ele>150</ele>
        <time>2026-05-27T09:34:29Z</time>
      </trkpt>
      <trkpt lat="43.24239" lon="2.05513">
        <ele>150</ele>
        <time>2026-05-27T09:34:34Z</time>
      </trkpt>
      <trkpt lat="43.24234" lon="2.05507">
        <ele>150</ele>
        <time>2026-05-27T09:34:39Z</time>
      </trkpt>
      <trkpt lat="43.24229" lon="2.055">
        <ele>150</ele>
        <time>2026-05-27T09:34:44Z</time>
      </trkpt>
      <trkpt lat="43.24226" lon="2.05492">
        <ele>150</ele>
        <time>2026-05-27T09:34:49Z</time>
      </trkpt>
      <trkpt lat="43.24222" lon="2.05485">
        <ele>150.1</ele>
        <time>2026-05-27T09:34:54Z</time>
      </trkpt>
      <trkpt lat="43.24219" lon="2.05476">
        <ele>150.1</ele>
        <time>2026-05-27T09:34:59Z</time>
      </trkpt>
      <trkpt lat="43.24215" lon="2.05468">
        <ele>150.2</ele>
        <time>2026-05-27T09:35:04Z</time>
      </trkpt>
      <trkpt lat="43.24212" lon="2.05458">
        <ele>150.2</ele>
        <time>2026-05-27T09:35:09Z</time>
      </trkpt>
      <trkpt lat="43.2421" lon="2.05449">
        <ele>150.3</ele>
        <time>2026-05-27T09:35:14Z</time>
      </trkpt>
      <trkpt lat="43.24209" lon="2.05448">
        <ele>150.3</ele>
        <time>2026-05-27T09:35:19Z</time>
      </trkpt>
      <trkpt lat="43.24209" lon="2.05443">
        <ele>150.3</ele>
        <time>2026-05-27T09:35:24Z</time>
      </trkpt>
      <trkpt lat="43.24208" lon="2.05435">
        <ele>150.4</ele>
        <time>2026-05-27T09:35:29Z</time>
      </trkpt>
      <trkpt lat="43.24206" lon="2.05427">
        <ele>150.5</ele>
        <time>2026-05-27T09:35:34Z</time>
      </trkpt>
      <trkpt lat="43.24205" lon="2.05423">
        <ele>150.5</ele>
        <time>2026-05-27T09:35:39Z</time>
      </trkpt>
      <trkpt lat="43.24205" lon="2.05423">
        <ele>150.5</ele>
        <time>2026-05-27T09:35:44Z</time>
      </trkpt>
      <trkpt lat="43.24205" lon="2.05423">
        <ele>150.5</ele>
        <time>2026-05-27T09:35:49Z</time>
      </trkpt>
      <trkpt lat="43.24205" lon="2.05423">
        <ele>150.5</ele>
        <time>2026-05-27T09:35:54Z</time>
      </trkpt>
      <trkpt lat="43.24205" lon="2.05423">
        <ele>150.5</ele>
        <time>2026-05-27T09:35:59Z</time>
      </trkpt>
      <trkpt lat="43.24205" lon="2.05423">
        <ele>150.5</ele>
        <time>2026-05-27T09:36:04Z</time>
      </trkpt>
      <trkpt lat="43.24205" lon="2.05423">
        <ele>150.5</ele>
        <time>2026-05-27T09:36:09Z</time>
      </trkpt>
      <trkpt lat="43.24205" lon="2.05423">
        <ele>150.5</ele>
        <time>2026-05-27T09:36:14Z</time>
      </trkpt>
      <trkpt lat="43.24205" lon="2.05423">
        <ele>150.5</ele>
        <time>2026-05-27T09:36:19Z</time>
      </trkpt>
      <trkpt lat="43.24205" lon="2.05423">
        <ele>150.5</ele>
        <time>2026-05-27T09:36:24Z</time>
      </trkpt>
      <trkpt lat="43.24205" lon="2.05423">
        <ele>150.5</ele>
        <time>2026-05-27T09:36:29Z</time>
      </trkpt>
      <trkpt lat="43.24205" lon="2.05423">
        <ele>150.5</ele>
        <time>2026-05-27T09:36:34Z</time>
      </trkpt>
      <trkpt lat="43.24205" lon="2.05423">
        <ele>150.5</ele>
        <time>2026-05-27T09:36:39Z</time>
      </trkpt>
      <trkpt lat="43.24205" lon="2.05423">
        <ele>150.5</ele>
        <time>2026-05-27T09:36:44Z</time>
      </trkpt>
      <trkpt lat="43.24205" lon="2.05423">
        <ele>150.5</ele>
        <time>2026-05-27T09:36:49Z</time>
      </trkpt>
      <trkpt lat="43.24205" lon="2.05423">
        <ele>150.5</ele>
        <time>2026-05-27T09:36:54Z</time>
      </trkpt>
      <trkpt lat="43.24205" lon="2.05423">
        <ele>150.5</ele>
        <time>2026-05-27T09:36:59Z</time>
      </trkpt>
      <trkpt lat="43.24205" lon="2.05423">
        <ele>150.5</ele>
        <time>2026-05-27T09:37:04Z</time>
      </trkpt>
      <trkpt lat="43.24205" lon="2.05423">
        <ele>150.5</ele>
        <time>2026-05-27T09:37:09Z</time>
      </trkpt>
      <trkpt lat="43.24205" lon="2.05423">
        <ele>150.5</ele>
        <time>2026-05-27T09:37:14Z</time>
      </trkpt>
      <trkpt lat="43.24205" lon="2.05423">
        <ele>150.5</ele>
        <time>2026-05-27T09:37:19Z</time>
      </trkpt>
      <trkpt lat="43.24205" lon="2.05423">
        <ele>150.5</ele>
        <time>2026-05-27T09:37:24Z</time>
      </trkpt>
      <trkpt lat="43.24205" lon="2.05423">
        <ele>150.5</ele>
        <time>2026-05-27T09:37:29Z</time>
      </trkpt>
      <trkpt lat="43.24205" lon="2.05423">
        <ele>150.5</ele>
        <time>2026-05-27T09:37:34Z</time>
      </trkpt>
      <trkpt lat="43.24205" lon="2.05423">
        <ele>150.5</ele>
        <time>2026-05-27T09:37:39Z</time>
      </trkpt>
      <trkpt lat="43.24205" lon="2.05423">
        <ele>150.5</ele>
        <time>2026-05-27T09:37:44Z</time>
      </trkpt>
      <trkpt lat="43.24205" lon="2.05423">
        <ele>150.5</ele>
        <time>2026-05-27T09:37:49Z</time>
      </trkpt>
      <trkpt lat="43.24205" lon="2.05423">
        <ele>150.5</ele>
        <time>2026-05-27T09:37:54Z</time>
      </trkpt>
      <trkpt lat="43.24205" lon="2.05423">
        <ele>150.5</ele>
        <time>2026-05-27T09:37:59Z</time>
      </trkpt>
      <trkpt lat="43.24205" lon="2.05423">
        <ele>150.5</ele>
        <time>2026-05-27T09:38:04Z</time>
      </trkpt>
      <trkpt lat="43.24205" lon="2.05423">
        <ele>150.5</ele>
        <time>2026-05-27T09:38:09Z</time>
      </trkpt>
      <trkpt lat="43.24205" lon="2.05423">
        <ele>150.5</ele>
        <time>2026-05-27T09:38:14Z</time>
      </trkpt>
      <trkpt lat="43.24205" lon="2.05423">
        <ele>150.5</ele>
        <time>2026-05-27T09:38:19Z</time>
      </trkpt>
      <trkpt lat="43.24205" lon="2.05423">
        <ele>150.5</ele>
        <time>2026-05-27T09:38:24Z</time>
      </trkpt>
      <trkpt lat="43.24205" lon="2.05423">
        <ele>150.5</ele>
        <time>2026-05-27T09:38:29Z</time>
      </trkpt>
      <trkpt lat="43.24205" lon="2.05423">
        <ele>150.5</ele>
        <time>2026-05-27T09:38:34Z</time>
      </trkpt>
      <trkpt lat="43.24205" lon="2.05423">
        <ele>150.5</ele>
        <time>2026-05-27T09:38:39Z</time>
      </trkpt>
      <trkpt lat="43.24205" lon="2.05423">
        <ele>150.5</ele>
        <time>2026-05-27T09:38:44Z</time>
      </trkpt>
      <trkpt lat="43.24205" lon="2.05423">
        <ele>150.5</ele>
        <time>2026-05-27T09:38:49Z</time>
      </trkpt>
      <trkpt lat="43.24205" lon="2.05423">
        <ele>150.5</ele>
        <time>2026-05-27T09:38:54Z</time>
      </trkpt>
      <trkpt lat="43.24205" lon="2.05423">
        <ele>150.5</ele>
        <time>2026-05-27T09:38:59Z</time>
      </trkpt>
      <trkpt lat="43.24205" lon="2.05423">
        <ele>150.5</ele>
        <time>2026-05-27T09:39:04Z</time>
      </trkpt>
      <trkpt lat="43.24205" lon="2.05423">
        <ele>150.5</ele>
        <time>2026-05-27T09:39:09Z</time>
      </trkpt>
      <trkpt lat="43.24205" lon="2.05423">
        <ele>150.5</ele>
        <time>2026-05-27T09:39:14Z</time>
      </trkpt>
      <trkpt lat="43.24205" lon="2.05423">
        <ele>150.5</ele>
        <time>2026-05-27T09:39:19Z</time>
      </trkpt>
      <trkpt lat="43.24205" lon="2.05423">
        <ele>150.5</ele>
        <time>2026-05-27T09:39:24Z</time>
      </trkpt>
      <trkpt lat="43.24205" lon="2.05423">
        <ele>150.5</ele>
        <time>2026-05-27T09:39:29Z</time>
      </trkpt>
      <trkpt lat="43.24205" lon="2.05423">
        <ele>150.5</ele>
        <time>2026-05-27T09:39:34Z</time>
      </trkpt>
      <trkpt lat="43.24205" lon="2.05423">
        <ele>150.5</ele>
        <time>2026-05-27T09:39:39Z</time>
      </trkpt>
      <trkpt lat="43.24205" lon="2.05423">
        <ele>150.5</ele>
        <time>2026-05-27T09:39:44Z</time>
      </trkpt>
      <trkpt lat="43.24203" lon="2.05412">
        <ele>150.6</ele>
        <time>2026-05-27T09:39:49Z</time>
      </trkpt>
      <trkpt lat="43.242" lon="2.05406">
        <ele>150.7</ele>
        <time>2026-05-27T09:39:54Z</time>
      </trkpt>
      <trkpt lat="43.24198" lon="2.054">
        <ele>150.7</ele>
        <time>2026-05-27T09:39:59Z</time>
      </trkpt>
      <trkpt lat="43.24195" lon="2.05394">
        <ele>150.8</ele>
        <time>2026-05-27T09:40:04Z</time>
      </trkpt>
      <trkpt lat="43.24192" lon="2.05388">
        <ele>150.8</ele>
        <time>2026-05-27T09:40:09Z</time>
      </trkpt>
      <trkpt lat="43.24189" lon="2.05381">
        <ele>150.8</ele>
        <time>2026-05-27T09:40:14Z</time>
      </trkpt>
      <trkpt lat="43.24184" lon="2.05373">
        <ele>150.9</ele>
        <time>2026-05-27T09:40:19Z</time>
      </trkpt>
      <trkpt lat="43.24179" lon="2.05367">
        <ele>150.9</ele>
        <time>2026-05-27T09:40:24Z</time>
      </trkpt>
      <trkpt lat="43.24174" lon="2.05361">
        <ele>151</ele>
        <time>2026-05-27T09:40:29Z</time>
      </trkpt>
      <trkpt lat="43.2417" lon="2.05354">
        <ele>151</ele>
        <time>2026-05-27T09:40:34Z</time>
      </trkpt>
      <trkpt lat="43.24165" lon="2.05349">
        <ele>151</ele>
        <time>2026-05-27T09:40:39Z</time>
      </trkpt>
      <trkpt lat="43.2416" lon="2.05343">
        <ele>151.1</ele>
        <time>2026-05-27T09:40:44Z</time>
      </trkpt>
      <trkpt lat="43.24155" lon="2.05337">
        <ele>151.1</ele>
        <time>2026-05-27T09:40:49Z</time>
      </trkpt>
      <trkpt lat="43.2415" lon="2.05332">
        <ele>151.2</ele>
        <time>2026-05-27T09:40:54Z</time>
      </trkpt>
      <trkpt lat="43.24145" lon="2.05326">
        <ele>151.3</ele>
        <time>2026-05-27T09:40:59Z</time>
      </trkpt>
      <trkpt lat="43.24141" lon="2.0532">
        <ele>151.5</ele>
        <time>2026-05-27T09:41:04Z</time>
      </trkpt>
      <trkpt lat="43.24136" lon="2.05315">
        <ele>151.6</ele>
        <time>2026-05-27T09:41:09Z</time>
      </trkpt>
      <trkpt lat="43.24131" lon="2.05309">
        <ele>151.7</ele>
        <time>2026-05-27T09:41:14Z</time>
      </trkpt>
      <trkpt lat="43.24125" lon="2.05304">
        <ele>151.9</ele>
        <time>2026-05-27T09:41:19Z</time>
      </trkpt>
      <trkpt lat="43.24119" lon="2.05299">
        <ele>152</ele>
        <time>2026-05-27T09:41:24Z</time>
      </trkpt>
      <trkpt lat="43.24114" lon="2.05295">
        <ele>152.1</ele>
        <time>2026-05-27T09:41:29Z</time>
      </trkpt>
      <trkpt lat="43.24108" lon="2.0529">
        <ele>152.2</ele>
        <time>2026-05-27T09:41:34Z</time>
      </trkpt>
      <trkpt lat="43.24102" lon="2.05285">
        <ele>152.4</ele>
        <time>2026-05-27T09:41:39Z</time>
      </trkpt>
      <trkpt lat="43.24095" lon="2.05281">
        <ele>152.5</ele>
        <time>2026-05-27T09:41:44Z</time>
      </trkpt>
      <trkpt lat="43.2409" lon="2.05277">
        <ele>152.6</ele>
        <time>2026-05-27T09:41:49Z</time>
      </trkpt>
      <trkpt lat="43.24084" lon="2.05272">
        <ele>152.7</ele>
        <time>2026-05-27T09:41:54Z</time>
      </trkpt>
      <trkpt lat="43.24078" lon="2.05268">
        <ele>152.8</ele>
        <time>2026-05-27T09:41:59Z</time>
      </trkpt>
      <trkpt lat="43.24072" lon="2.05265">
        <ele>152.8</ele>
        <time>2026-05-27T09:42:04Z</time>
      </trkpt>
      <trkpt lat="43.24065" lon="2.05261">
        <ele>152.8</ele>
        <time>2026-05-27T09:42:09Z</time>
      </trkpt>
      <trkpt lat="43.2406" lon="2.05257">
        <ele>152.9</ele>
        <time>2026-05-27T09:42:14Z</time>
      </trkpt>
      <trkpt lat="43.24054" lon="2.05253">
        <ele>153</ele>
        <time>2026-05-27T09:42:19Z</time>
      </trkpt>
      <trkpt lat="43.24048" lon="2.0525">
        <ele>153</ele>
        <time>2026-05-27T09:42:24Z</time>
      </trkpt>
      <trkpt lat="43.24041" lon="2.05248">
        <ele>153</ele>
        <time>2026-05-27T09:42:29Z</time>
      </trkpt>
      <trkpt lat="43.24036" lon="2.05243">
        <ele>153</ele>
        <time>2026-05-27T09:42:34Z</time>
      </trkpt>
      <trkpt lat="43.2403" lon="2.0524">
        <ele>153.1</ele>
        <time>2026-05-27T09:42:39Z</time>
      </trkpt>
      <trkpt lat="43.24023" lon="2.05236">
        <ele>153.1</ele>
        <time>2026-05-27T09:42:44Z</time>
      </trkpt>
      <trkpt lat="43.24016" lon="2.05232">
        <ele>153.2</ele>
        <time>2026-05-27T09:42:49Z</time>
      </trkpt>
      <trkpt lat="43.24009" lon="2.05227">
        <ele>153.2</ele>
        <time>2026-05-27T09:42:54Z</time>
      </trkpt>
      <trkpt lat="43.24004" lon="2.05223">
        <ele>153.3</ele>
        <time>2026-05-27T09:42:59Z</time>
      </trkpt>
      <trkpt lat="43.23997" lon="2.05217">
        <ele>153.4</ele>
        <time>2026-05-27T09:43:04Z</time>
      </trkpt>
      <trkpt lat="43.23991" lon="2.05212">
        <ele>153.5</ele>
        <time>2026-05-27T09:43:09Z</time>
      </trkpt>
      <trkpt lat="43.23985" lon="2.05208">
        <ele>153.6</ele>
        <time>2026-05-27T09:43:14Z</time>
      </trkpt>
      <trkpt lat="43.23979" lon="2.05203">
        <ele>153.7</ele>
        <time>2026-05-27T09:43:19Z</time>
      </trkpt>
      <trkpt lat="43.23973" lon="2.05197">
        <ele>153.8</ele>
        <time>2026-05-27T09:43:24Z</time>
      </trkpt>
      <trkpt lat="43.23967" lon="2.05191">
        <ele>153.8</ele>
        <time>2026-05-27T09:43:29Z</time>
      </trkpt>
      <trkpt lat="43.23963" lon="2.05184">
        <ele>153.9</ele>
        <time>2026-05-27T09:43:34Z</time>
      </trkpt>
      <trkpt lat="43.23958" lon="2.05177">
        <ele>153.9</ele>
        <time>2026-05-27T09:43:39Z</time>
      </trkpt>
      <trkpt lat="43.23953" lon="2.0517">
        <ele>154</ele>
        <time>2026-05-27T09:43:44Z</time>
      </trkpt>
      <trkpt lat="43.23949" lon="2.05163">
        <ele>154</ele>
        <time>2026-05-27T09:43:49Z</time>
      </trkpt>
      <trkpt lat="43.23946" lon="2.05156">
        <ele>154</ele>
        <time>2026-05-27T09:43:54Z</time>
      </trkpt>
      <trkpt lat="43.23944" lon="2.05147">
        <ele>154</ele>
        <time>2026-05-27T09:43:59Z</time>
      </trkpt>
      <trkpt lat="43.23942" lon="2.05138">
        <ele>154</ele>
        <time>2026-05-27T09:44:04Z</time>
      </trkpt>
      <trkpt lat="43.2394" lon="2.05129">
        <ele>154</ele>
        <time>2026-05-27T09:44:09Z</time>
      </trkpt>
      <trkpt lat="43.23937" lon="2.05121">
        <ele>154</ele>
        <time>2026-05-27T09:44:14Z</time>
      </trkpt>
      <trkpt lat="43.23936" lon="2.05112">
        <ele>154</ele>
        <time>2026-05-27T09:44:19Z</time>
      </trkpt>
      <trkpt lat="43.23935" lon="2.05102">
        <ele>154</ele>
        <time>2026-05-27T09:44:24Z</time>
      </trkpt>
      <trkpt lat="43.23933" lon="2.05093">
        <ele>154</ele>
        <time>2026-05-27T09:44:29Z</time>
      </trkpt>
      <trkpt lat="43.23931" lon="2.05085">
        <ele>154</ele>
        <time>2026-05-27T09:44:34Z</time>
      </trkpt>
      <trkpt lat="43.23929" lon="2.05075">
        <ele>154.1</ele>
        <time>2026-05-27T09:44:39Z</time>
      </trkpt>
      <trkpt lat="43.23927" lon="2.05065">
        <ele>154.2</ele>
        <time>2026-05-27T09:44:44Z</time>
      </trkpt>
      <trkpt lat="43.23926" lon="2.05056">
        <ele>154.3</ele>
        <time>2026-05-27T09:44:49Z</time>
      </trkpt>
      <trkpt lat="43.23924" lon="2.05048">
        <ele>154.3</ele>
        <time>2026-05-27T09:44:54Z</time>
      </trkpt>
      <trkpt lat="43.23922" lon="2.0504">
        <ele>154.5</ele>
        <time>2026-05-27T09:44:59Z</time>
      </trkpt>
      <trkpt lat="43.23919" lon="2.05032">
        <ele>154.6</ele>
        <time>2026-05-27T09:45:04Z</time>
      </trkpt>
      <trkpt lat="43.23914" lon="2.05024">
        <ele>154.7</ele>
        <time>2026-05-27T09:45:09Z</time>
      </trkpt>
      <trkpt lat="43.2391" lon="2.05018">
        <ele>154.8</ele>
        <time>2026-05-27T09:45:14Z</time>
      </trkpt>
      <trkpt lat="43.23906" lon="2.05011">
        <ele>154.9</ele>
        <time>2026-05-27T09:45:19Z</time>
      </trkpt>
      <trkpt lat="43.239" lon="2.05005">
        <ele>154.9</ele>
        <time>2026-05-27T09:45:24Z</time>
      </trkpt>
      <trkpt lat="43.23897" lon="2.05001">
        <ele>155</ele>
        <time>2026-05-27T09:45:29Z</time>
      </trkpt>
      <trkpt lat="43.23892" lon="2.04995">
        <ele>155.1</ele>
        <time>2026-05-27T09:45:34Z</time>
      </trkpt>
      <trkpt lat="43.23887" lon="2.0499">
        <ele>155.2</ele>
        <time>2026-05-27T09:45:39Z</time>
      </trkpt>
      <trkpt lat="43.23881" lon="2.04985">
        <ele>155.3</ele>
        <time>2026-05-27T09:45:44Z</time>
      </trkpt>
      <trkpt lat="43.23878" lon="2.04979">
        <ele>155.4</ele>
        <time>2026-05-27T09:45:49Z</time>
      </trkpt>
      <trkpt lat="43.23872" lon="2.04972">
        <ele>155.5</ele>
        <time>2026-05-27T09:45:54Z</time>
      </trkpt>
      <trkpt lat="43.23868" lon="2.04968">
        <ele>155.6</ele>
        <time>2026-05-27T09:45:59Z</time>
      </trkpt>
      <trkpt lat="43.23862" lon="2.04961">
        <ele>155.8</ele>
        <time>2026-05-27T09:46:04Z</time>
      </trkpt>
      <trkpt lat="43.23857" lon="2.04956">
        <ele>155.9</ele>
        <time>2026-05-27T09:46:09Z</time>
      </trkpt>
      <trkpt lat="43.23852" lon="2.0495">
        <ele>156.1</ele>
        <time>2026-05-27T09:46:14Z</time>
      </trkpt>
      <trkpt lat="43.23847" lon="2.04944">
        <ele>156.2</ele>
        <time>2026-05-27T09:46:19Z</time>
      </trkpt>
      <trkpt lat="43.23842" lon="2.04936">
        <ele>156.5</ele>
        <time>2026-05-27T09:46:24Z</time>
      </trkpt>
      <trkpt lat="43.23836" lon="2.04929">
        <ele>156.7</ele>
        <time>2026-05-27T09:46:29Z</time>
      </trkpt>
      <trkpt lat="43.23832" lon="2.04921">
        <ele>156.9</ele>
        <time>2026-05-27T09:46:34Z</time>
      </trkpt>
      <trkpt lat="43.23826" lon="2.04915">
        <ele>157.2</ele>
        <time>2026-05-27T09:46:39Z</time>
      </trkpt>
      <trkpt lat="43.23823" lon="2.04909">
        <ele>157.3</ele>
        <time>2026-05-27T09:46:44Z</time>
      </trkpt>
      <trkpt lat="43.23822" lon="2.04908">
        <ele>157.3</ele>
        <time>2026-05-27T09:46:49Z</time>
      </trkpt>
      <trkpt lat="43.23822" lon="2.04908">
        <ele>157.3</ele>
        <time>2026-05-27T09:46:54Z</time>
      </trkpt>
      <trkpt lat="43.23822" lon="2.04908">
        <ele>157.3</ele>
        <time>2026-05-27T09:46:59Z</time>
      </trkpt>
      <trkpt lat="43.23822" lon="2.04908">
        <ele>157.3</ele>
        <time>2026-05-27T09:47:04Z</time>
      </trkpt>
      <trkpt lat="43.23822" lon="2.04908">
        <ele>157.3</ele>
        <time>2026-05-27T09:47:09Z</time>
      </trkpt>
      <trkpt lat="43.23822" lon="2.04908">
        <ele>157.3</ele>
        <time>2026-05-27T09:47:14Z</time>
      </trkpt>
      <trkpt lat="43.23822" lon="2.04908">
        <ele>157.3</ele>
        <time>2026-05-27T09:47:19Z</time>
      </trkpt>
      <trkpt lat="43.23822" lon="2.04908">
        <ele>157.3</ele>
        <time>2026-05-27T09:47:24Z</time>
      </trkpt>
      <trkpt lat="43.23822" lon="2.04908">
        <ele>157.3</ele>
        <time>2026-05-27T09:47:29Z</time>
      </trkpt>
      <trkpt lat="43.23822" lon="2.04908">
        <ele>157.3</ele>
        <time>2026-05-27T09:47:34Z</time>
      </trkpt>
      <trkpt lat="43.23822" lon="2.04908">
        <ele>157.3</ele>
        <time>2026-05-27T09:47:39Z</time>
      </trkpt>
      <trkpt lat="43.23822" lon="2.04908">
        <ele>157.3</ele>
        <time>2026-05-27T09:47:44Z</time>
      </trkpt>
      <trkpt lat="43.23822" lon="2.04908">
        <ele>157.3</ele>
        <time>2026-05-27T09:47:49Z</time>
      </trkpt>
      <trkpt lat="43.23818" lon="2.04903">
        <ele>157.3</ele>
        <time>2026-05-27T09:47:54Z</time>
      </trkpt>
      <trkpt lat="43.23812" lon="2.04895">
        <ele>157.4</ele>
        <time>2026-05-27T09:47:59Z</time>
      </trkpt>
      <trkpt lat="43.23808" lon="2.04889">
        <ele>157.4</ele>
        <time>2026-05-27T09:48:04Z</time>
      </trkpt>
      <trkpt lat="43.23802" lon="2.04885">
        <ele>157.5</ele>
        <time>2026-05-27T09:48:09Z</time>
      </trkpt>
      <trkpt lat="43.23797" lon="2.04878">
        <ele>157.4</ele>
        <time>2026-05-27T09:48:14Z</time>
      </trkpt>
      <trkpt lat="43.23793" lon="2.0487">
        <ele>157.3</ele>
        <time>2026-05-27T09:48:19Z</time>
      </trkpt>
      <trkpt lat="43.23788" lon="2.04864">
        <ele>157.3</ele>
        <time>2026-05-27T09:48:24Z</time>
      </trkpt>
      <trkpt lat="43.23783" lon="2.04858">
        <ele>157.3</ele>
        <time>2026-05-27T09:48:29Z</time>
      </trkpt>
      <trkpt lat="43.23778" lon="2.04852">
        <ele>157.2</ele>
        <time>2026-05-27T09:48:34Z</time>
      </trkpt>
      <trkpt lat="43.23772" lon="2.04847">
        <ele>157.1</ele>
        <time>2026-05-27T09:48:39Z</time>
      </trkpt>
      <trkpt lat="43.23767" lon="2.04839">
        <ele>157</ele>
        <time>2026-05-27T09:48:44Z</time>
      </trkpt>
      <trkpt lat="43.23763" lon="2.04833">
        <ele>156.8</ele>
        <time>2026-05-27T09:48:49Z</time>
      </trkpt>
      <trkpt lat="43.23759" lon="2.04826">
        <ele>156.9</ele>
        <time>2026-05-27T09:48:54Z</time>
      </trkpt>
      <trkpt lat="43.23754" lon="2.0482">
        <ele>157</ele>
        <time>2026-05-27T09:48:59Z</time>
      </trkpt>
      <trkpt lat="43.23748" lon="2.04816">
        <ele>157</ele>
        <time>2026-05-27T09:49:04Z</time>
      </trkpt>
      <trkpt lat="43.23742" lon="2.04809">
        <ele>156.9</ele>
        <time>2026-05-27T09:49:09Z</time>
      </trkpt>
      <trkpt lat="43.23737" lon="2.04802">
        <ele>156.9</ele>
        <time>2026-05-27T09:49:14Z</time>
      </trkpt>
      <trkpt lat="43.23732" lon="2.04797">
        <ele>156.9</ele>
        <time>2026-05-27T09:49:19Z</time>
      </trkpt>
      <trkpt lat="43.23726" lon="2.04792">
        <ele>156.9</ele>
        <time>2026-05-27T09:49:24Z</time>
      </trkpt>
      <trkpt lat="43.23722" lon="2.04786">
        <ele>156.9</ele>
        <time>2026-05-27T09:49:29Z</time>
      </trkpt>
      <trkpt lat="43.23717" lon="2.0478">
        <ele>156.9</ele>
        <time>2026-05-27T09:49:34Z</time>
      </trkpt>
      <trkpt lat="43.23711" lon="2.04773">
        <ele>156.9</ele>
        <time>2026-05-27T09:49:39Z</time>
      </trkpt>
      <trkpt lat="43.23707" lon="2.04765">
        <ele>156.9</ele>
        <time>2026-05-27T09:49:44Z</time>
      </trkpt>
      <trkpt lat="43.23703" lon="2.0476">
        <ele>156.9</ele>
        <time>2026-05-27T09:49:49Z</time>
      </trkpt>
      <trkpt lat="43.23698" lon="2.04755">
        <ele>157</ele>
        <time>2026-05-27T09:49:54Z</time>
      </trkpt>
      <trkpt lat="43.23692" lon="2.0475">
        <ele>157</ele>
        <time>2026-05-27T09:49:59Z</time>
      </trkpt>
      <trkpt lat="43.23685" lon="2.04742">
        <ele>157.1</ele>
        <time>2026-05-27T09:50:04Z</time>
      </trkpt>
      <trkpt lat="43.2368" lon="2.04736">
        <ele>157.1</ele>
        <time>2026-05-27T09:50:09Z</time>
      </trkpt>
      <trkpt lat="43.2368" lon="2.04736">
        <ele>157.1</ele>
        <time>2026-05-27T09:50:14Z</time>
      </trkpt>
      <trkpt lat="43.2368" lon="2.04735">
        <ele>157.2</ele>
        <time>2026-05-27T09:50:19Z</time>
      </trkpt>
      <trkpt lat="43.23677" lon="2.04734">
        <ele>157.2</ele>
        <time>2026-05-27T09:50:24Z</time>
      </trkpt>
      <trkpt lat="43.23671" lon="2.04728">
        <ele>157.3</ele>
        <time>2026-05-27T09:50:29Z</time>
      </trkpt>
      <trkpt lat="43.23667" lon="2.04723">
        <ele>157.3</ele>
        <time>2026-05-27T09:50:34Z</time>
      </trkpt>
      <trkpt lat="43.23661" lon="2.04718">
        <ele>157.3</ele>
        <time>2026-05-27T09:50:39Z</time>
      </trkpt>
      <trkpt lat="43.23656" lon="2.04713">
        <ele>157.3</ele>
        <time>2026-05-27T09:50:44Z</time>
      </trkpt>
      <trkpt lat="43.23652" lon="2.04707">
        <ele>157.2</ele>
        <time>2026-05-27T09:50:49Z</time>
      </trkpt>
      <trkpt lat="43.23648" lon="2.04701">
        <ele>157.2</ele>
        <time>2026-05-27T09:50:54Z</time>
      </trkpt>
      <trkpt lat="43.23642" lon="2.04696">
        <ele>157.2</ele>
        <time>2026-05-27T09:50:59Z</time>
      </trkpt>
      <trkpt lat="43.23636" lon="2.0469">
        <ele>157.1</ele>
        <time>2026-05-27T09:51:04Z</time>
      </trkpt>
      <trkpt lat="43.23632" lon="2.04685">
        <ele>157</ele>
        <time>2026-05-27T09:51:09Z</time>
      </trkpt>
      <trkpt lat="43.23627" lon="2.04679">
        <ele>157</ele>
        <time>2026-05-27T09:51:14Z</time>
      </trkpt>
      <trkpt lat="43.2362" lon="2.04673">
        <ele>156.8</ele>
        <time>2026-05-27T09:51:19Z</time>
      </trkpt>
      <trkpt lat="43.23614" lon="2.04664">
        <ele>156.8</ele>
        <time>2026-05-27T09:51:24Z</time>
      </trkpt>
      <trkpt lat="43.23608" lon="2.04657">
        <ele>156.7</ele>
        <time>2026-05-27T09:51:29Z</time>
      </trkpt>
      <trkpt lat="43.23602" lon="2.04652">
        <ele>156.6</ele>
        <time>2026-05-27T09:51:34Z</time>
      </trkpt>
      <trkpt lat="43.23597" lon="2.04645">
        <ele>156.5</ele>
        <time>2026-05-27T09:51:39Z</time>
      </trkpt>
      <trkpt lat="43.23592" lon="2.04638">
        <ele>156.5</ele>
        <time>2026-05-27T09:51:44Z</time>
      </trkpt>
      <trkpt lat="43.23586" lon="2.0463">
        <ele>156.5</ele>
        <time>2026-05-27T09:51:49Z</time>
      </trkpt>
      <trkpt lat="43.2358" lon="2.04624">
        <ele>156.5</ele>
        <time>2026-05-27T09:51:54Z</time>
      </trkpt>
      <trkpt lat="43.23574" lon="2.04618">
        <ele>156.6</ele>
        <time>2026-05-27T09:51:59Z</time>
      </trkpt>
      <trkpt lat="43.23569" lon="2.04612">
        <ele>156.7</ele>
        <time>2026-05-27T09:52:04Z</time>
      </trkpt>
      <trkpt lat="43.23564" lon="2.04606">
        <ele>156.8</ele>
        <time>2026-05-27T09:52:09Z</time>
      </trkpt>
      <trkpt lat="43.23559" lon="2.046">
        <ele>156.9</ele>
        <time>2026-05-27T09:52:14Z</time>
      </trkpt>
      <trkpt lat="43.23554" lon="2.04594">
        <ele>156.9</ele>
        <time>2026-05-27T09:52:19Z</time>
      </trkpt>
      <trkpt lat="43.23549" lon="2.04588">
        <ele>157</ele>
        <time>2026-05-27T09:52:24Z</time>
      </trkpt>
      <trkpt lat="43.23542" lon="2.04581">
        <ele>157</ele>
        <time>2026-05-27T09:52:29Z</time>
      </trkpt>
      <trkpt lat="43.23536" lon="2.04574">
        <ele>157</ele>
        <time>2026-05-27T09:52:34Z</time>
      </trkpt>
      <trkpt lat="43.23531" lon="2.04568">
        <ele>157</ele>
        <time>2026-05-27T09:52:39Z</time>
      </trkpt>
      <trkpt lat="43.23526" lon="2.04562">
        <ele>157</ele>
        <time>2026-05-27T09:52:44Z</time>
      </trkpt>
      <trkpt lat="43.2352" lon="2.04556">
        <ele>157</ele>
        <time>2026-05-27T09:52:49Z</time>
      </trkpt>
      <trkpt lat="43.23514" lon="2.04549">
        <ele>157</ele>
        <time>2026-05-27T09:52:54Z</time>
      </trkpt>
      <trkpt lat="43.23509" lon="2.04544">
        <ele>157</ele>
        <time>2026-05-27T09:52:59Z</time>
      </trkpt>
      <trkpt lat="43.23504" lon="2.04537">
        <ele>157</ele>
        <time>2026-05-27T09:53:04Z</time>
      </trkpt>
      <trkpt lat="43.23498" lon="2.04531">
        <ele>157</ele>
        <time>2026-05-27T09:53:09Z</time>
      </trkpt>
      <trkpt lat="43.23493" lon="2.04525">
        <ele>157.1</ele>
        <time>2026-05-27T09:53:14Z</time>
      </trkpt>
      <trkpt lat="43.23487" lon="2.04519">
        <ele>157.1</ele>
        <time>2026-05-27T09:53:19Z</time>
      </trkpt>
      <trkpt lat="43.23482" lon="2.04512">
        <ele>157.2</ele>
        <time>2026-05-27T09:53:24Z</time>
      </trkpt>
      <trkpt lat="43.23477" lon="2.04506">
        <ele>157.3</ele>
        <time>2026-05-27T09:53:29Z</time>
      </trkpt>
      <trkpt lat="43.23472" lon="2.04501">
        <ele>157.3</ele>
        <time>2026-05-27T09:53:34Z</time>
      </trkpt>
      <trkpt lat="43.23467" lon="2.04495">
        <ele>157.5</ele>
        <time>2026-05-27T09:53:39Z</time>
      </trkpt>
      <trkpt lat="43.23462" lon="2.04488">
        <ele>157.6</ele>
        <time>2026-05-27T09:53:44Z</time>
      </trkpt>
      <trkpt lat="43.23457" lon="2.04481">
        <ele>157.7</ele>
        <time>2026-05-27T09:53:49Z</time>
      </trkpt>
      <trkpt lat="43.23451" lon="2.04474">
        <ele>157.8</ele>
        <time>2026-05-27T09:53:54Z</time>
      </trkpt>
      <trkpt lat="43.23446" lon="2.04469">
        <ele>157.9</ele>
        <time>2026-05-27T09:53:59Z</time>
      </trkpt>
      <trkpt lat="43.2344" lon="2.04464">
        <ele>158</ele>
        <time>2026-05-27T09:54:04Z</time>
      </trkpt>
      <trkpt lat="43.23435" lon="2.04457">
        <ele>158</ele>
        <time>2026-05-27T09:54:09Z</time>
      </trkpt>
      <trkpt lat="43.2343" lon="2.04451">
        <ele>158</ele>
        <time>2026-05-27T09:54:14Z</time>
      </trkpt>
      <trkpt lat="43.23425" lon="2.04444">
        <ele>158</ele>
        <time>2026-05-27T09:54:19Z</time>
      </trkpt>
      <trkpt lat="43.23419" lon="2.04436">
        <ele>158</ele>
        <time>2026-05-27T09:54:24Z</time>
      </trkpt>
      <trkpt lat="43.23414" lon="2.04431">
        <ele>158</ele>
        <time>2026-05-27T09:54:29Z</time>
      </trkpt>
      <trkpt lat="43.2341" lon="2.04425">
        <ele>158.1</ele>
        <time>2026-05-27T09:54:34Z</time>
      </trkpt>
      <trkpt lat="43.23405" lon="2.04419">
        <ele>158.1</ele>
        <time>2026-05-27T09:54:39Z</time>
      </trkpt>
      <trkpt lat="43.234" lon="2.04414">
        <ele>158.2</ele>
        <time>2026-05-27T09:54:44Z</time>
      </trkpt>
      <trkpt lat="43.23393" lon="2.04408">
        <ele>158.3</ele>
        <time>2026-05-27T09:54:49Z</time>
      </trkpt>
      <trkpt lat="43.23388" lon="2.04401">
        <ele>158.3</ele>
        <time>2026-05-27T09:54:54Z</time>
      </trkpt>
      <trkpt lat="43.23383" lon="2.04394">
        <ele>158.4</ele>
        <time>2026-05-27T09:54:59Z</time>
      </trkpt>
      <trkpt lat="43.23377" lon="2.04391">
        <ele>158.5</ele>
        <time>2026-05-27T09:55:04Z</time>
      </trkpt>
      <trkpt lat="43.23372" lon="2.04382">
        <ele>158.5</ele>
        <time>2026-05-27T09:55:09Z</time>
      </trkpt>
      <trkpt lat="43.23372" lon="2.04373">
        <ele>158.5</ele>
        <time>2026-05-27T09:55:14Z</time>
      </trkpt>
      <trkpt lat="43.2337" lon="2.04368">
        <ele>158.6</ele>
        <time>2026-05-27T09:55:19Z</time>
      </trkpt>
      <trkpt lat="43.2337" lon="2.04368">
        <ele>158.6</ele>
        <time>2026-05-27T09:55:24Z</time>
      </trkpt>
      <trkpt lat="43.2337" lon="2.04368">
        <ele>158.6</ele>
        <time>2026-05-27T09:55:29Z</time>
      </trkpt>
      <trkpt lat="43.23369" lon="2.04367">
        <ele>158.6</ele>
        <time>2026-05-27T09:55:34Z</time>
      </trkpt>
      <trkpt lat="43.23371" lon="2.04359">
        <ele>158.5</ele>
        <time>2026-05-27T09:55:39Z</time>
      </trkpt>
      <trkpt lat="43.23373" lon="2.04348">
        <ele>158.5</ele>
        <time>2026-05-27T09:55:44Z</time>
      </trkpt>
      <trkpt lat="43.23375" lon="2.04339">
        <ele>158.5</ele>
        <time>2026-05-27T09:55:49Z</time>
      </trkpt>
      <trkpt lat="43.23377" lon="2.0433">
        <ele>158.5</ele>
        <time>2026-05-27T09:55:54Z</time>
      </trkpt>
      <trkpt lat="43.23381" lon="2.04321">
        <ele>158.5</ele>
        <time>2026-05-27T09:55:59Z</time>
      </trkpt>
      <trkpt lat="43.23384" lon="2.04314">
        <ele>158.5</ele>
        <time>2026-05-27T09:56:04Z</time>
      </trkpt>
      <trkpt lat="43.23388" lon="2.04305">
        <ele>158.6</ele>
        <time>2026-05-27T09:56:09Z</time>
      </trkpt>
      <trkpt lat="43.23391" lon="2.04297">
        <ele>158.6</ele>
        <time>2026-05-27T09:56:14Z</time>
      </trkpt>
      <trkpt lat="43.23395" lon="2.04291">
        <ele>158.6</ele>
        <time>2026-05-27T09:56:19Z</time>
      </trkpt>
      <trkpt lat="43.23391" lon="2.04286">
        <ele>158.7</ele>
        <time>2026-05-27T09:56:24Z</time>
      </trkpt>
      <trkpt lat="43.23385" lon="2.04281">
        <ele>158.8</ele>
        <time>2026-05-27T09:56:29Z</time>
      </trkpt>
      <trkpt lat="43.23381" lon="2.04274">
        <ele>158.8</ele>
        <time>2026-05-27T09:56:34Z</time>
      </trkpt>
      <trkpt lat="43.23377" lon="2.04269">
        <ele>158.9</ele>
        <time>2026-05-27T09:56:39Z</time>
      </trkpt>
      <trkpt lat="43.23373" lon="2.04265">
        <ele>158.9</ele>
        <time>2026-05-27T09:56:44Z</time>
      </trkpt>
      <trkpt lat="43.23369" lon="2.0426">
        <ele>158.9</ele>
        <time>2026-05-27T09:56:49Z</time>
      </trkpt>
      <trkpt lat="43.23364" lon="2.04255">
        <ele>159</ele>
        <time>2026-05-27T09:56:54Z</time>
      </trkpt>
      <trkpt lat="43.2336" lon="2.04248">
        <ele>159</ele>
        <time>2026-05-27T09:56:59Z</time>
      </trkpt>
      <trkpt lat="43.23355" lon="2.04244">
        <ele>159.1</ele>
        <time>2026-05-27T09:57:04Z</time>
      </trkpt>
      <trkpt lat="43.23352" lon="2.04239">
        <ele>159.2</ele>
        <time>2026-05-27T09:57:09Z</time>
      </trkpt>
      <trkpt lat="43.23347" lon="2.04234">
        <ele>159.4</ele>
        <time>2026-05-27T09:57:14Z</time>
      </trkpt>
      <trkpt lat="43.23342" lon="2.04229">
        <ele>159.5</ele>
        <time>2026-05-27T09:57:19Z</time>
      </trkpt>
      <trkpt lat="43.23337" lon="2.04225">
        <ele>159.6</ele>
        <time>2026-05-27T09:57:24Z</time>
      </trkpt>
      <trkpt lat="43.23333" lon="2.04219">
        <ele>159.7</ele>
        <time>2026-05-27T09:57:29Z</time>
      </trkpt>
      <trkpt lat="43.23328" lon="2.04213">
        <ele>159.9</ele>
        <time>2026-05-27T09:57:34Z</time>
      </trkpt>
      <trkpt lat="43.23324" lon="2.04207">
        <ele>160.1</ele>
        <time>2026-05-27T09:57:39Z</time>
      </trkpt>
      <trkpt lat="43.23319" lon="2.04201">
        <ele>160.2</ele>
        <time>2026-05-27T09:57:44Z</time>
      </trkpt>
      <trkpt lat="43.23315" lon="2.04196">
        <ele>160.4</ele>
        <time>2026-05-27T09:57:49Z</time>
      </trkpt>
      <trkpt lat="43.2331" lon="2.04191">
        <ele>160.5</ele>
        <time>2026-05-27T09:57:54Z</time>
      </trkpt>
      <trkpt lat="43.23308" lon="2.04185">
        <ele>160.6</ele>
        <time>2026-05-27T09:57:59Z</time>
      </trkpt>
      <trkpt lat="43.23308" lon="2.04183">
        <ele>160.7</ele>
        <time>2026-05-27T09:58:04Z</time>
      </trkpt>
      <trkpt lat="43.23308" lon="2.04183">
        <ele>160.7</ele>
        <time>2026-05-27T09:58:09Z</time>
      </trkpt>
      <trkpt lat="43.23303" lon="2.04177">
        <ele>160.8</ele>
        <time>2026-05-27T09:58:14Z</time>
      </trkpt>
      <trkpt lat="43.23297" lon="2.0417">
        <ele>160.9</ele>
        <time>2026-05-27T09:58:19Z</time>
      </trkpt>
      <trkpt lat="43.23293" lon="2.04164">
        <ele>161</ele>
        <time>2026-05-27T09:58:24Z</time>
      </trkpt>
      <trkpt lat="43.23289" lon="2.0416">
        <ele>161</ele>
        <time>2026-05-27T09:58:29Z</time>
      </trkpt>
      <trkpt lat="43.23285" lon="2.04154">
        <ele>161</ele>
        <time>2026-05-27T09:58:34Z</time>
      </trkpt>
      <trkpt lat="43.23281" lon="2.04148">
        <ele>161</ele>
        <time>2026-05-27T09:58:39Z</time>
      </trkpt>
      <trkpt lat="43.23277" lon="2.04143">
        <ele>161</ele>
        <time>2026-05-27T09:58:44Z</time>
      </trkpt>
      <trkpt lat="43.23273" lon="2.04135">
        <ele>161</ele>
        <time>2026-05-27T09:58:49Z</time>
      </trkpt>
      <trkpt lat="43.23269" lon="2.04128">
        <ele>161</ele>
        <time>2026-05-27T09:58:54Z</time>
      </trkpt>
      <trkpt lat="43.23264" lon="2.0412">
        <ele>161</ele>
        <time>2026-05-27T09:58:59Z</time>
      </trkpt>
      <trkpt lat="43.2326" lon="2.04114">
        <ele>161</ele>
        <time>2026-05-27T09:59:04Z</time>
      </trkpt>
      <trkpt lat="43.23256" lon="2.04108">
        <ele>161</ele>
        <time>2026-05-27T09:59:09Z</time>
      </trkpt>
      <trkpt lat="43.23252" lon="2.04102">
        <ele>161</ele>
        <time>2026-05-27T09:59:14Z</time>
      </trkpt>
      <trkpt lat="43.23248" lon="2.04095">
        <ele>161</ele>
        <time>2026-05-27T09:59:19Z</time>
      </trkpt>
      <trkpt lat="43.23244" lon="2.04089">
        <ele>161.1</ele>
        <time>2026-05-27T09:59:24Z</time>
      </trkpt>
      <trkpt lat="43.2324" lon="2.04082">
        <ele>161.1</ele>
        <time>2026-05-27T09:59:29Z</time>
      </trkpt>
      <trkpt lat="43.23235" lon="2.04076">
        <ele>161.2</ele>
        <time>2026-05-27T09:59:34Z</time>
      </trkpt>
      <trkpt lat="43.23231" lon="2.04068">
        <ele>161.2</ele>
        <time>2026-05-27T09:59:39Z</time>
      </trkpt>
      <trkpt lat="43.23227" lon="2.04061">
        <ele>161.3</ele>
        <time>2026-05-27T09:59:44Z</time>
      </trkpt>
      <trkpt lat="43.23223" lon="2.04053">
        <ele>161.3</ele>
        <time>2026-05-27T09:59:49Z</time>
      </trkpt>
      <trkpt lat="43.23219" lon="2.04046">
        <ele>161.4</ele>
        <time>2026-05-27T09:59:54Z</time>
      </trkpt>
      <trkpt lat="43.23216" lon="2.04039">
        <ele>161.4</ele>
        <time>2026-05-27T09:59:59Z</time>
      </trkpt>
      <trkpt lat="43.23213" lon="2.04031">
        <ele>161.4</ele>
        <time>2026-05-27T10:00:04Z</time>
      </trkpt>
      <trkpt lat="43.2321" lon="2.04023">
        <ele>161.5</ele>
        <time>2026-05-27T10:00:09Z</time>
      </trkpt>
      <trkpt lat="43.23207" lon="2.04014">
        <ele>161.5</ele>
        <time>2026-05-27T10:00:14Z</time>
      </trkpt>
      <trkpt lat="43.23207" lon="2.04007">
        <ele>161.5</ele>
        <time>2026-05-27T10:00:19Z</time>
      </trkpt>
      <trkpt lat="43.23208" lon="2.03999">
        <ele>161.5</ele>
        <time>2026-05-27T10:00:24Z</time>
      </trkpt>
      <trkpt lat="43.23205" lon="2.03992">
        <ele>161.8</ele>
        <time>2026-05-27T10:00:29Z</time>
      </trkpt>
      <trkpt lat="43.23201" lon="2.03985">
        <ele>162</ele>
        <time>2026-05-27T10:00:34Z</time>
      </trkpt>
      <trkpt lat="43.23196" lon="2.03979">
        <ele>162.2</ele>
        <time>2026-05-27T10:00:39Z</time>
      </trkpt>
      <trkpt lat="43.23192" lon="2.0397">
        <ele>162.5</ele>
        <time>2026-05-27T10:00:44Z</time>
      </trkpt>
      <trkpt lat="43.23189" lon="2.03961">
        <ele>162.8</ele>
        <time>2026-05-27T10:00:49Z</time>
      </trkpt>
      <trkpt lat="43.23186" lon="2.03953">
        <ele>163</ele>
        <time>2026-05-27T10:00:54Z</time>
      </trkpt>
      <trkpt lat="43.23181" lon="2.03945">
        <ele>163.3</ele>
        <time>2026-05-27T10:00:59Z</time>
      </trkpt>
      <trkpt lat="43.23177" lon="2.03938">
        <ele>163.5</ele>
        <time>2026-05-27T10:01:04Z</time>
      </trkpt>
      <trkpt lat="43.23173" lon="2.0393">
        <ele>163.7</ele>
        <time>2026-05-27T10:01:09Z</time>
      </trkpt>
      <trkpt lat="43.23168" lon="2.03923">
        <ele>163.8</ele>
        <time>2026-05-27T10:01:14Z</time>
      </trkpt>
      <trkpt lat="43.23164" lon="2.03917">
        <ele>164</ele>
        <time>2026-05-27T10:01:19Z</time>
      </trkpt>
      <trkpt lat="43.23159" lon="2.0391">
        <ele>164.2</ele>
        <time>2026-05-27T10:01:24Z</time>
      </trkpt>
      <trkpt lat="43.23155" lon="2.03903">
        <ele>164.4</ele>
        <time>2026-05-27T10:01:29Z</time>
      </trkpt>
      <trkpt lat="43.2315" lon="2.03896">
        <ele>164.6</ele>
        <time>2026-05-27T10:01:34Z</time>
      </trkpt>
      <trkpt lat="43.23145" lon="2.0389">
        <ele>164.8</ele>
        <time>2026-05-27T10:01:39Z</time>
      </trkpt>
      <trkpt lat="43.23141" lon="2.03885">
        <ele>164.9</ele>
        <time>2026-05-27T10:01:44Z</time>
      </trkpt>
      <trkpt lat="43.23138" lon="2.03877">
        <ele>165.1</ele>
        <time>2026-05-27T10:01:49Z</time>
      </trkpt>
      <trkpt lat="43.23133" lon="2.03869">
        <ele>165.3</ele>
        <time>2026-05-27T10:01:54Z</time>
      </trkpt>
      <trkpt lat="43.23128" lon="2.03863">
        <ele>165.3</ele>
        <time>2026-05-27T10:01:59Z</time>
      </trkpt>
      <trkpt lat="43.23123" lon="2.03857">
        <ele>165.4</ele>
        <time>2026-05-27T10:02:04Z</time>
      </trkpt>
      <trkpt lat="43.23119" lon="2.03848">
        <ele>165.5</ele>
        <time>2026-05-27T10:02:09Z</time>
      </trkpt>
      <trkpt lat="43.23115" lon="2.03842">
        <ele>165.6</ele>
        <time>2026-05-27T10:02:14Z</time>
      </trkpt>
      <trkpt lat="43.2311" lon="2.03836">
        <ele>165.6</ele>
        <time>2026-05-27T10:02:19Z</time>
      </trkpt>
      <trkpt lat="43.23104" lon="2.03829">
        <ele>165.6</ele>
        <time>2026-05-27T10:02:24Z</time>
      </trkpt>
      <trkpt lat="43.231" lon="2.03822">
        <ele>165.6</ele>
        <time>2026-05-27T10:02:29Z</time>
      </trkpt>
      <trkpt lat="43.23096" lon="2.03816">
        <ele>165.7</ele>
        <time>2026-05-27T10:02:34Z</time>
      </trkpt>
      <trkpt lat="43.23091" lon="2.03809">
        <ele>165.7</ele>
        <time>2026-05-27T10:02:39Z</time>
      </trkpt>
      <trkpt lat="43.23087" lon="2.03803">
        <ele>165.8</ele>
        <time>2026-05-27T10:02:44Z</time>
      </trkpt>
      <trkpt lat="43.23081" lon="2.03797">
        <ele>165.8</ele>
        <time>2026-05-27T10:02:49Z</time>
      </trkpt>
      <trkpt lat="43.23076" lon="2.0379">
        <ele>165.8</ele>
        <time>2026-05-27T10:02:54Z</time>
      </trkpt>
      <trkpt lat="43.23073" lon="2.03784">
        <ele>165.9</ele>
        <time>2026-05-27T10:02:59Z</time>
      </trkpt>
      <trkpt lat="43.23071" lon="2.03781">
        <ele>165.9</ele>
        <time>2026-05-27T10:03:04Z</time>
      </trkpt>
      <trkpt lat="43.23065" lon="2.03778">
        <ele>165.7</ele>
        <time>2026-05-27T10:03:09Z</time>
      </trkpt>
      <trkpt lat="43.23061" lon="2.03772">
        <ele>165.7</ele>
        <time>2026-05-27T10:03:14Z</time>
      </trkpt>
      <trkpt lat="43.23055" lon="2.03766">
        <ele>165.7</ele>
        <time>2026-05-27T10:03:19Z</time>
      </trkpt>
      <trkpt lat="43.23049" lon="2.03763">
        <ele>165.5</ele>
        <time>2026-05-27T10:03:24Z</time>
      </trkpt>
      <trkpt lat="43.23044" lon="2.03757">
        <ele>165.5</ele>
        <time>2026-05-27T10:03:29Z</time>
      </trkpt>
      <trkpt lat="43.23039" lon="2.03752">
        <ele>165.4</ele>
        <time>2026-05-27T10:03:34Z</time>
      </trkpt>
      <trkpt lat="43.23033" lon="2.03747">
        <ele>165.2</ele>
        <time>2026-05-27T10:03:39Z</time>
      </trkpt>
      <trkpt lat="43.23027" lon="2.03742">
        <ele>165</ele>
        <time>2026-05-27T10:03:44Z</time>
      </trkpt>
      <trkpt lat="43.23022" lon="2.03736">
        <ele>164.9</ele>
        <time>2026-05-27T10:03:49Z</time>
      </trkpt>
      <trkpt lat="43.23017" lon="2.03731">
        <ele>164.8</ele>
        <time>2026-05-27T10:03:54Z</time>
      </trkpt>
      <trkpt lat="43.2301" lon="2.03725">
        <ele>164.6</ele>
        <time>2026-05-27T10:03:59Z</time>
      </trkpt>
      <trkpt lat="43.23004" lon="2.03719">
        <ele>164.5</ele>
        <time>2026-05-27T10:04:04Z</time>
      </trkpt>
      <trkpt lat="43.23001" lon="2.03715">
        <ele>164.5</ele>
        <time>2026-05-27T10:04:09Z</time>
      </trkpt>
      <trkpt lat="43.22999" lon="2.03713">
        <ele>164.5</ele>
        <time>2026-05-27T10:04:14Z</time>
      </trkpt>
      <trkpt lat="43.22999" lon="2.03713">
        <ele>164.5</ele>
        <time>2026-05-27T10:04:19Z</time>
      </trkpt>
      <trkpt lat="43.22999" lon="2.03713">
        <ele>164.5</ele>
        <time>2026-05-27T10:04:24Z</time>
      </trkpt>
      <trkpt lat="43.22999" lon="2.03713">
        <ele>164.5</ele>
        <time>2026-05-27T10:04:29Z</time>
      </trkpt>
      <trkpt lat="43.22993" lon="2.03712">
        <ele>164.6</ele>
        <time>2026-05-27T10:04:34Z</time>
      </trkpt>
      <trkpt lat="43.2299" lon="2.03703">
        <ele>164.7</ele>
        <time>2026-05-27T10:04:39Z</time>
      </trkpt>
      <trkpt lat="43.22986" lon="2.03696">
        <ele>164.9</ele>
        <time>2026-05-27T10:04:44Z</time>
      </trkpt>
      <trkpt lat="43.22984" lon="2.0369">
        <ele>165</ele>
        <time>2026-05-27T10:04:49Z</time>
      </trkpt>
      <trkpt lat="43.22983" lon="2.03682">
        <ele>165.1</ele>
        <time>2026-05-27T10:04:54Z</time>
      </trkpt>
      <trkpt lat="43.22983" lon="2.03674">
        <ele>165.1</ele>
        <time>2026-05-27T10:04:59Z</time>
      </trkpt>
      <trkpt lat="43.22982" lon="2.03668">
        <ele>165.2</ele>
        <time>2026-05-27T10:05:04Z</time>
      </trkpt>
      <trkpt lat="43.22979" lon="2.03661">
        <ele>165.3</ele>
        <time>2026-05-27T10:05:09Z</time>
      </trkpt>
      <trkpt lat="43.22975" lon="2.03654">
        <ele>165.3</ele>
        <time>2026-05-27T10:05:14Z</time>
      </trkpt>
      <trkpt lat="43.22972" lon="2.03647">
        <ele>165.4</ele>
        <time>2026-05-27T10:05:19Z</time>
      </trkpt>
      <trkpt lat="43.22969" lon="2.03641">
        <ele>165.5</ele>
        <time>2026-05-27T10:05:24Z</time>
      </trkpt>
      <trkpt lat="43.22966" lon="2.03633">
        <ele>165.6</ele>
        <time>2026-05-27T10:05:29Z</time>
      </trkpt>
      <trkpt lat="43.22962" lon="2.03627">
        <ele>165.7</ele>
        <time>2026-05-27T10:05:34Z</time>
      </trkpt>
      <trkpt lat="43.22958" lon="2.03619">
        <ele>165.8</ele>
        <time>2026-05-27T10:05:39Z</time>
      </trkpt>
      <trkpt lat="43.22954" lon="2.0361">
        <ele>165.9</ele>
        <time>2026-05-27T10:05:44Z</time>
      </trkpt>
      <trkpt lat="43.22949" lon="2.03601">
        <ele>166.1</ele>
        <time>2026-05-27T10:05:49Z</time>
      </trkpt>
      <trkpt lat="43.22944" lon="2.03595">
        <ele>166.2</ele>
        <time>2026-05-27T10:05:54Z</time>
      </trkpt>
      <trkpt lat="43.22939" lon="2.03584">
        <ele>166.5</ele>
        <time>2026-05-27T10:05:59Z</time>
      </trkpt>
      <trkpt lat="43.22933" lon="2.03578">
        <ele>166.7</ele>
        <time>2026-05-27T10:06:04Z</time>
      </trkpt>
      <trkpt lat="43.22927" lon="2.03572">
        <ele>166.9</ele>
        <time>2026-05-27T10:06:09Z</time>
      </trkpt>
      <trkpt lat="43.2292" lon="2.03568">
        <ele>167.1</ele>
        <time>2026-05-27T10:06:14Z</time>
      </trkpt>
      <trkpt lat="43.22914" lon="2.03565">
        <ele>167.3</ele>
        <time>2026-05-27T10:06:19Z</time>
      </trkpt>
      <trkpt lat="43.22908" lon="2.03561">
        <ele>167.4</ele>
        <time>2026-05-27T10:06:24Z</time>
      </trkpt>
      <trkpt lat="43.22902" lon="2.03558">
        <ele>167.6</ele>
        <time>2026-05-27T10:06:29Z</time>
      </trkpt>
      <trkpt lat="43.22896" lon="2.03554">
        <ele>167.8</ele>
        <time>2026-05-27T10:06:34Z</time>
      </trkpt>
      <trkpt lat="43.2289" lon="2.03552">
        <ele>167.9</ele>
        <time>2026-05-27T10:06:39Z</time>
      </trkpt>
      <trkpt lat="43.22883" lon="2.03552">
        <ele>168.1</ele>
        <time>2026-05-27T10:06:44Z</time>
      </trkpt>
      <trkpt lat="43.22877" lon="2.0355">
        <ele>168.3</ele>
        <time>2026-05-27T10:06:49Z</time>
      </trkpt>
      <trkpt lat="43.22871" lon="2.03548">
        <ele>168.4</ele>
        <time>2026-05-27T10:06:54Z</time>
      </trkpt>
      <trkpt lat="43.22865" lon="2.03546">
        <ele>168.6</ele>
        <time>2026-05-27T10:06:59Z</time>
      </trkpt>
      <trkpt lat="43.22858" lon="2.03546">
        <ele>168.8</ele>
        <time>2026-05-27T10:07:04Z</time>
      </trkpt>
      <trkpt lat="43.22853" lon="2.03546">
        <ele>168.9</ele>
        <time>2026-05-27T10:07:09Z</time>
      </trkpt>
      <trkpt lat="43.22848" lon="2.03546">
        <ele>169</ele>
        <time>2026-05-27T10:07:14Z</time>
      </trkpt>
      <trkpt lat="43.22841" lon="2.03546">
        <ele>169.2</ele>
        <time>2026-05-27T10:07:19Z</time>
      </trkpt>
      <trkpt lat="43.22833" lon="2.03548">
        <ele>169.3</ele>
        <time>2026-05-27T10:07:24Z</time>
      </trkpt>
      <trkpt lat="43.22825" lon="2.03548">
        <ele>169.4</ele>
        <time>2026-05-27T10:07:29Z</time>
      </trkpt>
      <trkpt lat="43.22819" lon="2.03548">
        <ele>169.5</ele>
        <time>2026-05-27T10:07:34Z</time>
      </trkpt>
      <trkpt lat="43.22811" lon="2.03549">
        <ele>169.7</ele>
        <time>2026-05-27T10:07:39Z</time>
      </trkpt>
      <trkpt lat="43.22803" lon="2.03547">
        <ele>169.9</ele>
        <time>2026-05-27T10:07:44Z</time>
      </trkpt>
      <trkpt lat="43.22796" lon="2.03545">
        <ele>170.1</ele>
        <time>2026-05-27T10:07:49Z</time>
      </trkpt>
      <trkpt lat="43.2279" lon="2.03544">
        <ele>170.2</ele>
        <time>2026-05-27T10:07:54Z</time>
      </trkpt>
      <trkpt lat="43.22784" lon="2.03544">
        <ele>170.3</ele>
        <time>2026-05-27T10:07:59Z</time>
      </trkpt>
      <trkpt lat="43.22777" lon="2.03543">
        <ele>170.5</ele>
        <time>2026-05-27T10:08:04Z</time>
      </trkpt>
      <trkpt lat="43.2277" lon="2.03541">
        <ele>170.7</ele>
        <time>2026-05-27T10:08:09Z</time>
      </trkpt>
      <trkpt lat="43.22764" lon="2.03538">
        <ele>170.8</ele>
        <time>2026-05-27T10:08:14Z</time>
      </trkpt>
      <trkpt lat="43.22755" lon="2.03536">
        <ele>171.1</ele>
        <time>2026-05-27T10:08:19Z</time>
      </trkpt>
      <trkpt lat="43.22747" lon="2.03537">
        <ele>171.1</ele>
        <time>2026-05-27T10:08:24Z</time>
      </trkpt>
      <trkpt lat="43.22738" lon="2.03538">
        <ele>171.1</ele>
        <time>2026-05-27T10:08:29Z</time>
      </trkpt>
      <trkpt lat="43.22731" lon="2.03541">
        <ele>171</ele>
        <time>2026-05-27T10:08:34Z</time>
      </trkpt>
      <trkpt lat="43.22725" lon="2.03544">
        <ele>170.9</ele>
        <time>2026-05-27T10:08:39Z</time>
      </trkpt>
      <trkpt lat="43.22718" lon="2.03548">
        <ele>170.8</ele>
        <time>2026-05-27T10:08:44Z</time>
      </trkpt>
      <trkpt lat="43.22711" lon="2.03551">
        <ele>170.8</ele>
        <time>2026-05-27T10:08:49Z</time>
      </trkpt>
      <trkpt lat="43.22704" lon="2.03555">
        <ele>170.7</ele>
        <time>2026-05-27T10:08:54Z</time>
      </trkpt>
      <trkpt lat="43.22698" lon="2.03557">
        <ele>170.6</ele>
        <time>2026-05-27T10:08:59Z</time>
      </trkpt>
      <trkpt lat="43.22694" lon="2.03565">
        <ele>170.4</ele>
        <time>2026-05-27T10:09:04Z</time>
      </trkpt>
      <trkpt lat="43.22692" lon="2.03573">
        <ele>170.2</ele>
        <time>2026-05-27T10:09:09Z</time>
      </trkpt>
      <trkpt lat="43.22687" lon="2.0358">
        <ele>170.1</ele>
        <time>2026-05-27T10:09:14Z</time>
      </trkpt>
      <trkpt lat="43.22683" lon="2.03587">
        <ele>170</ele>
        <time>2026-05-27T10:09:19Z</time>
      </trkpt>
      <trkpt lat="43.2268" lon="2.03596">
        <ele>170</ele>
        <time>2026-05-27T10:09:24Z</time>
      </trkpt>
      <trkpt lat="43.22677" lon="2.03603">
        <ele>170</ele>
        <time>2026-05-27T10:09:29Z</time>
      </trkpt>
      <trkpt lat="43.22673" lon="2.0361">
        <ele>170</ele>
        <time>2026-05-27T10:09:34Z</time>
      </trkpt>
      <trkpt lat="43.22668" lon="2.03615">
        <ele>170</ele>
        <time>2026-05-27T10:09:39Z</time>
      </trkpt>
      <trkpt lat="43.22661" lon="2.03619">
        <ele>170</ele>
        <time>2026-05-27T10:09:44Z</time>
      </trkpt>
      <trkpt lat="43.22654" lon="2.03622">
        <ele>170.1</ele>
        <time>2026-05-27T10:09:49Z</time>
      </trkpt>
      <trkpt lat="43.22649" lon="2.03625">
        <ele>170.1</ele>
        <time>2026-05-27T10:09:54Z</time>
      </trkpt>
      <trkpt lat="43.22643" lon="2.03627">
        <ele>170.1</ele>
        <time>2026-05-27T10:09:59Z</time>
      </trkpt>
      <trkpt lat="43.22635" lon="2.0363">
        <ele>170.2</ele>
        <time>2026-05-27T10:10:04Z</time>
      </trkpt>
      <trkpt lat="43.22628" lon="2.03633">
        <ele>170.3</ele>
        <time>2026-05-27T10:10:09Z</time>
      </trkpt>
      <trkpt lat="43.22622" lon="2.03634">
        <ele>170.3</ele>
        <time>2026-05-27T10:10:14Z</time>
      </trkpt>
      <trkpt lat="43.22618" lon="2.03635">
        <ele>170.4</ele>
        <time>2026-05-27T10:10:19Z</time>
      </trkpt>
      <trkpt lat="43.22616" lon="2.03636">
        <ele>170.4</ele>
        <time>2026-05-27T10:10:24Z</time>
      </trkpt>
      <trkpt lat="43.22609" lon="2.03639">
        <ele>170.5</ele>
        <time>2026-05-27T10:10:29Z</time>
      </trkpt>
      <trkpt lat="43.22603" lon="2.03641">
        <ele>170.5</ele>
        <time>2026-05-27T10:10:34Z</time>
      </trkpt>
      <trkpt lat="43.22597" lon="2.03644">
        <ele>170.6</ele>
        <time>2026-05-27T10:10:39Z</time>
      </trkpt>
      <trkpt lat="43.2259" lon="2.03645">
        <ele>170.7</ele>
        <time>2026-05-27T10:10:44Z</time>
      </trkpt>
      <trkpt lat="43.22584" lon="2.03647">
        <ele>170.8</ele>
        <time>2026-05-27T10:10:49Z</time>
      </trkpt>
      <trkpt lat="43.22578" lon="2.03648">
        <ele>170.9</ele>
        <time>2026-05-27T10:10:54Z</time>
      </trkpt>
      <trkpt lat="43.22572" lon="2.03652">
        <ele>171.1</ele>
        <time>2026-05-27T10:10:59Z</time>
      </trkpt>
      <trkpt lat="43.22566" lon="2.03654">
        <ele>171.3</ele>
        <time>2026-05-27T10:11:04Z</time>
      </trkpt>
      <trkpt lat="43.2256" lon="2.03657">
        <ele>171.5</ele>
        <time>2026-05-27T10:11:09Z</time>
      </trkpt>
      <trkpt lat="43.22554" lon="2.03659">
        <ele>171.6</ele>
        <time>2026-05-27T10:11:14Z</time>
      </trkpt>
      <trkpt lat="43.22547" lon="2.03662">
        <ele>171.8</ele>
        <time>2026-05-27T10:11:19Z</time>
      </trkpt>
      <trkpt lat="43.2254" lon="2.03665">
        <ele>172</ele>
        <time>2026-05-27T10:11:24Z</time>
      </trkpt>
      <trkpt lat="43.22533" lon="2.03667">
        <ele>172.2</ele>
        <time>2026-05-27T10:11:29Z</time>
      </trkpt>
      <trkpt lat="43.22527" lon="2.03668">
        <ele>172.3</ele>
        <time>2026-05-27T10:11:34Z</time>
      </trkpt>
      <trkpt lat="43.22522" lon="2.03669">
        <ele>172.5</ele>
        <time>2026-05-27T10:11:39Z</time>
      </trkpt>
      <trkpt lat="43.22519" lon="2.03669">
        <ele>172.5</ele>
        <time>2026-05-27T10:11:44Z</time>
      </trkpt>
      <trkpt lat="43.22512" lon="2.0367">
        <ele>172.7</ele>
        <time>2026-05-27T10:11:49Z</time>
      </trkpt>
      <trkpt lat="43.22505" lon="2.0367">
        <ele>172.9</ele>
        <time>2026-05-27T10:11:54Z</time>
      </trkpt>
      <trkpt lat="43.22498" lon="2.03669">
        <ele>173.1</ele>
        <time>2026-05-27T10:11:59Z</time>
      </trkpt>
      <trkpt lat="43.22492" lon="2.03672">
        <ele>173.6</ele>
        <time>2026-05-27T10:12:04Z</time>
      </trkpt>
      <trkpt lat="43.22486" lon="2.03675">
        <ele>174</ele>
        <time>2026-05-27T10:12:09Z</time>
      </trkpt>
      <trkpt lat="43.22483" lon="2.03675">
        <ele>174.2</ele>
        <time>2026-05-27T10:12:14Z</time>
      </trkpt>
      <trkpt lat="43.22477" lon="2.03676">
        <ele>174.7</ele>
        <time>2026-05-27T10:12:19Z</time>
      </trkpt>
      <trkpt lat="43.2247" lon="2.03678">
        <ele>175.2</ele>
        <time>2026-05-27T10:12:24Z</time>
      </trkpt>
      <trkpt lat="43.22464" lon="2.0368">
        <ele>175.7</ele>
        <time>2026-05-27T10:12:29Z</time>
      </trkpt>
      <trkpt lat="43.22459" lon="2.03684">
        <ele>176.1</ele>
        <time>2026-05-27T10:12:34Z</time>
      </trkpt>
      <trkpt lat="43.22452" lon="2.03684">
        <ele>176.6</ele>
        <time>2026-05-27T10:12:39Z</time>
      </trkpt>
      <trkpt lat="43.22445" lon="2.03685">
        <ele>177.1</ele>
        <time>2026-05-27T10:12:44Z</time>
      </trkpt>
      <trkpt lat="43.22437" lon="2.03688">
        <ele>177.7</ele>
        <time>2026-05-27T10:12:49Z</time>
      </trkpt>
      <trkpt lat="43.22431" lon="2.0369">
        <ele>178.2</ele>
        <time>2026-05-27T10:12:54Z</time>
      </trkpt>
      <trkpt lat="43.22424" lon="2.03691">
        <ele>178.7</ele>
        <time>2026-05-27T10:12:59Z</time>
      </trkpt>
      <trkpt lat="43.22417" lon="2.03693">
        <ele>179.3</ele>
        <time>2026-05-27T10:13:04Z</time>
      </trkpt>
      <trkpt lat="43.22409" lon="2.03697">
        <ele>180.4</ele>
        <time>2026-05-27T10:13:09Z</time>
      </trkpt>
      <trkpt lat="43.22403" lon="2.03701">
        <ele>181.2</ele>
        <time>2026-05-27T10:13:14Z</time>
      </trkpt>
      <trkpt lat="43.22396" lon="2.03703">
        <ele>182.2</ele>
        <time>2026-05-27T10:13:19Z</time>
      </trkpt>
      <trkpt lat="43.22388" lon="2.03708">
        <ele>183.4</ele>
        <time>2026-05-27T10:13:24Z</time>
      </trkpt>
      <trkpt lat="43.22382" lon="2.03711">
        <ele>184.4</ele>
        <time>2026-05-27T10:13:29Z</time>
      </trkpt>
      <trkpt lat="43.22375" lon="2.03713">
        <ele>185.4</ele>
        <time>2026-05-27T10:13:34Z</time>
      </trkpt>
      <trkpt lat="43.22369" lon="2.03717">
        <ele>186.5</ele>
        <time>2026-05-27T10:13:39Z</time>
      </trkpt>
      <trkpt lat="43.22363" lon="2.03721">
        <ele>187.5</ele>
        <time>2026-05-27T10:13:44Z</time>
      </trkpt>
      <trkpt lat="43.22357" lon="2.03724">
        <ele>188.6</ele>
        <time>2026-05-27T10:13:49Z</time>
      </trkpt>
      <trkpt lat="43.22351" lon="2.03727">
        <ele>189.7</ele>
        <time>2026-05-27T10:13:54Z</time>
      </trkpt>
      <trkpt lat="43.22345" lon="2.0373">
        <ele>190.8</ele>
        <time>2026-05-27T10:13:59Z</time>
      </trkpt>
      <trkpt lat="43.22339" lon="2.03734">
        <ele>192</ele>
        <time>2026-05-27T10:14:04Z</time>
      </trkpt>
      <trkpt lat="43.22335" lon="2.03737">
        <ele>192.8</ele>
        <time>2026-05-27T10:14:09Z</time>
      </trkpt>
      <trkpt lat="43.22332" lon="2.0374">
        <ele>193.3</ele>
        <time>2026-05-27T10:14:14Z</time>
      </trkpt>
      <trkpt lat="43.22327" lon="2.03742">
        <ele>193.8</ele>
        <time>2026-05-27T10:14:19Z</time>
      </trkpt>
      <trkpt lat="43.22321" lon="2.03745">
        <ele>194.3</ele>
        <time>2026-05-27T10:14:24Z</time>
      </trkpt>
      <trkpt lat="43.22316" lon="2.03748">
        <ele>194.9</ele>
        <time>2026-05-27T10:14:29Z</time>
      </trkpt>
      <trkpt lat="43.22312" lon="2.0375">
        <ele>195.3</ele>
        <time>2026-05-27T10:14:34Z</time>
      </trkpt>
      <trkpt lat="43.22306" lon="2.03753">
        <ele>195.7</ele>
        <time>2026-05-27T10:14:39Z</time>
      </trkpt>
      <trkpt lat="43.22302" lon="2.03757">
        <ele>196.1</ele>
        <time>2026-05-27T10:14:44Z</time>
      </trkpt>
      <trkpt lat="43.22297" lon="2.0376">
        <ele>196.6</ele>
        <time>2026-05-27T10:14:49Z</time>
      </trkpt>
      <trkpt lat="43.22292" lon="2.03763">
        <ele>197.1</ele>
        <time>2026-05-27T10:14:54Z</time>
      </trkpt>
      <trkpt lat="43.22287" lon="2.03766">
        <ele>197.6</ele>
        <time>2026-05-27T10:14:59Z</time>
      </trkpt>
      <trkpt lat="43.22283" lon="2.03767">
        <ele>198</ele>
        <time>2026-05-27T10:15:04Z</time>
      </trkpt>
      <trkpt lat="43.2228" lon="2.03769">
        <ele>198.4</ele>
        <time>2026-05-27T10:15:09Z</time>
      </trkpt>
      <trkpt lat="43.22276" lon="2.03771">
        <ele>198.8</ele>
        <time>2026-05-27T10:15:14Z</time>
      </trkpt>
      <trkpt lat="43.22272" lon="2.03773">
        <ele>199.3</ele>
        <time>2026-05-27T10:15:19Z</time>
      </trkpt>
      <trkpt lat="43.22268" lon="2.03775">
        <ele>199.8</ele>
        <time>2026-05-27T10:15:24Z</time>
      </trkpt>
      <trkpt lat="43.22263" lon="2.03777">
        <ele>200.4</ele>
        <time>2026-05-27T10:15:29Z</time>
      </trkpt>
      <trkpt lat="43.22259" lon="2.03778">
        <ele>200.9</ele>
        <time>2026-05-27T10:15:34Z</time>
      </trkpt>
      <trkpt lat="43.22257" lon="2.0378">
        <ele>201.2</ele>
        <time>2026-05-27T10:15:39Z</time>
      </trkpt>
      <trkpt lat="43.22252" lon="2.03781">
        <ele>201.8</ele>
        <time>2026-05-27T10:15:44Z</time>
      </trkpt>
      <trkpt lat="43.22247" lon="2.03782">
        <ele>202</ele>
        <time>2026-05-27T10:15:49Z</time>
      </trkpt>
      <trkpt lat="43.22243" lon="2.03783">
        <ele>202</ele>
        <time>2026-05-27T10:15:54Z</time>
      </trkpt>
      <trkpt lat="43.22239" lon="2.03782">
        <ele>201.8</ele>
        <time>2026-05-27T10:15:59Z</time>
      </trkpt>
      <trkpt lat="43.22234" lon="2.03784">
        <ele>201.8</ele>
        <time>2026-05-27T10:16:04Z</time>
      </trkpt>
      <trkpt lat="43.22231" lon="2.03791">
        <ele>202.5</ele>
        <time>2026-05-27T10:16:09Z</time>
      </trkpt>
      <trkpt lat="43.2223" lon="2.03798">
        <ele>203.2</ele>
        <time>2026-05-27T10:16:14Z</time>
      </trkpt>
      <trkpt lat="43.22229" lon="2.03805">
        <ele>203.9</ele>
        <time>2026-05-27T10:16:19Z</time>
      </trkpt>
      <trkpt lat="43.22229" lon="2.03813">
        <ele>204.7</ele>
        <time>2026-05-27T10:16:24Z</time>
      </trkpt>
      <trkpt lat="43.22229" lon="2.03821">
        <ele>205.5</ele>
        <time>2026-05-27T10:16:29Z</time>
      </trkpt>
      <trkpt lat="43.22229" lon="2.03829">
        <ele>206.3</ele>
        <time>2026-05-27T10:16:34Z</time>
      </trkpt>
      <trkpt lat="43.22229" lon="2.03835">
        <ele>206.9</ele>
        <time>2026-05-27T10:16:39Z</time>
      </trkpt>
      <trkpt lat="43.22229" lon="2.03845">
        <ele>207.6</ele>
        <time>2026-05-27T10:16:44Z</time>
      </trkpt>
      <trkpt lat="43.22229" lon="2.03853">
        <ele>208.2</ele>
        <time>2026-05-27T10:16:49Z</time>
      </trkpt>
      <trkpt lat="43.22229" lon="2.03859">
        <ele>208.7</ele>
        <time>2026-05-27T10:16:54Z</time>
      </trkpt>
      <trkpt lat="43.2223" lon="2.03867">
        <ele>209.3</ele>
        <time>2026-05-27T10:16:59Z</time>
      </trkpt>
      <trkpt lat="43.2223" lon="2.0388">
        <ele>210.2</ele>
        <time>2026-05-27T10:17:04Z</time>
      </trkpt>
      <trkpt lat="43.22231" lon="2.03889">
        <ele>210.9</ele>
        <time>2026-05-27T10:17:09Z</time>
      </trkpt>
      <trkpt lat="43.22232" lon="2.03898">
        <ele>211.5</ele>
        <time>2026-05-27T10:17:14Z</time>
      </trkpt>
      <trkpt lat="43.22232" lon="2.03908">
        <ele>212.2</ele>
        <time>2026-05-27T10:17:19Z</time>
      </trkpt>
      <trkpt lat="43.22232" lon="2.03917">
        <ele>212.9</ele>
        <time>2026-05-27T10:17:24Z</time>
      </trkpt>
      <trkpt lat="43.22234" lon="2.03926">
        <ele>212.7</ele>
        <time>2026-05-27T10:17:29Z</time>
      </trkpt>
      <trkpt lat="43.22235" lon="2.03935">
        <ele>212.5</ele>
        <time>2026-05-27T10:17:34Z</time>
      </trkpt>
      <trkpt lat="43.22237" lon="2.03945">
        <ele>212.2</ele>
        <time>2026-05-27T10:17:39Z</time>
      </trkpt>
      <trkpt lat="43.22238" lon="2.03954">
        <ele>212</ele>
        <time>2026-05-27T10:17:44Z</time>
      </trkpt>
      <trkpt lat="43.22239" lon="2.03961">
        <ele>211.8</ele>
        <time>2026-05-27T10:17:49Z</time>
      </trkpt>
      <trkpt lat="43.22238" lon="2.0397">
        <ele>211.8</ele>
        <time>2026-05-27T10:17:54Z</time>
      </trkpt>
      <trkpt lat="43.22234" lon="2.03979">
        <ele>212.2</ele>
        <time>2026-05-27T10:17:59Z</time>
      </trkpt>
      <trkpt lat="43.22232" lon="2.03988">
        <ele>212.5</ele>
        <time>2026-05-27T10:18:04Z</time>
      </trkpt>
      <trkpt lat="43.22228" lon="2.03997">
        <ele>213.2</ele>
        <time>2026-05-27T10:18:09Z</time>
      </trkpt>
      <trkpt lat="43.22226" lon="2.04005">
        <ele>213.4</ele>
        <time>2026-05-27T10:18:14Z</time>
      </trkpt>
      <trkpt lat="43.22223" lon="2.04013">
        <ele>213.7</ele>
        <time>2026-05-27T10:18:19Z</time>
      </trkpt>
      <trkpt lat="43.22219" lon="2.0402">
        <ele>214.1</ele>
        <time>2026-05-27T10:18:24Z</time>
      </trkpt>
      <trkpt lat="43.22216" lon="2.0403">
        <ele>214.3</ele>
        <time>2026-05-27T10:18:29Z</time>
      </trkpt>
      <trkpt lat="43.22213" lon="2.04038">
        <ele>214.5</ele>
        <time>2026-05-27T10:18:34Z</time>
      </trkpt>
      <trkpt lat="43.22209" lon="2.04045">
        <ele>215</ele>
        <time>2026-05-27T10:18:39Z</time>
      </trkpt>
      <trkpt lat="43.22206" lon="2.04052">
        <ele>215.2</ele>
        <time>2026-05-27T10:18:44Z</time>
      </trkpt>
      <trkpt lat="43.22204" lon="2.0406">
        <ele>215.3</ele>
        <time>2026-05-27T10:18:49Z</time>
      </trkpt>
      <trkpt lat="43.222" lon="2.04067">
        <ele>215.7</ele>
        <time>2026-05-27T10:18:54Z</time>
      </trkpt>
      <trkpt lat="43.22196" lon="2.04075">
        <ele>216.1</ele>
        <time>2026-05-27T10:18:59Z</time>
      </trkpt>
      <trkpt lat="43.22193" lon="2.04081">
        <ele>216.4</ele>
        <time>2026-05-27T10:19:04Z</time>
      </trkpt>
      <trkpt lat="43.22191" lon="2.04088">
        <ele>216.2</ele>
        <time>2026-05-27T10:19:09Z</time>
      </trkpt>
      <trkpt lat="43.22186" lon="2.04099">
        <ele>216</ele>
        <time>2026-05-27T10:19:14Z</time>
      </trkpt>
      <trkpt lat="43.22182" lon="2.04109">
        <ele>215.7</ele>
        <time>2026-05-27T10:19:19Z</time>
      </trkpt>
      <trkpt lat="43.22184" lon="2.04116">
        <ele>214.7</ele>
        <time>2026-05-27T10:19:24Z</time>
      </trkpt>
      <trkpt lat="43.22186" lon="2.04118">
        <ele>214.1</ele>
        <time>2026-05-27T10:19:29Z</time>
      </trkpt>
      <trkpt lat="43.22186" lon="2.04118">
        <ele>214.1</ele>
        <time>2026-05-27T10:19:34Z</time>
      </trkpt>
      <trkpt lat="43.22186" lon="2.04118">
        <ele>214.1</ele>
        <time>2026-05-27T10:19:39Z</time>
      </trkpt>
      <trkpt lat="43.22186" lon="2.04118">
        <ele>214.1</ele>
        <time>2026-05-27T10:19:44Z</time>
      </trkpt>
      <trkpt lat="43.22186" lon="2.04118">
        <ele>214.1</ele>
        <time>2026-05-27T10:19:49Z</time>
      </trkpt>
      <trkpt lat="43.22186" lon="2.04118">
        <ele>214.1</ele>
        <time>2026-05-27T10:19:54Z</time>
      </trkpt>
      <trkpt lat="43.22179" lon="2.04123">
        <ele>214.9</ele>
        <time>2026-05-27T10:19:59Z</time>
      </trkpt>
      <trkpt lat="43.22177" lon="2.0413">
        <ele>214.6</ele>
        <time>2026-05-27T10:20:04Z</time>
      </trkpt>
      <trkpt lat="43.22173" lon="2.04139">
        <ele>214.5</ele>
        <time>2026-05-27T10:20:09Z</time>
      </trkpt>
      <trkpt lat="43.2217" lon="2.04147">
        <ele>214.3</ele>
        <time>2026-05-27T10:20:14Z</time>
      </trkpt>
      <trkpt lat="43.22167" lon="2.04155">
        <ele>214.1</ele>
        <time>2026-05-27T10:20:19Z</time>
      </trkpt>
      <trkpt lat="43.22164" lon="2.04161">
        <ele>213.8</ele>
        <time>2026-05-27T10:20:24Z</time>
      </trkpt>
      <trkpt lat="43.22161" lon="2.04168">
        <ele>213.5</ele>
        <time>2026-05-27T10:20:29Z</time>
      </trkpt>
      <trkpt lat="43.22156" lon="2.04175">
        <ele>213.1</ele>
        <time>2026-05-27T10:20:34Z</time>
      </trkpt>
      <trkpt lat="43.22152" lon="2.04182">
        <ele>212.7</ele>
        <time>2026-05-27T10:20:39Z</time>
      </trkpt>
      <trkpt lat="43.22148" lon="2.04189">
        <ele>212.3</ele>
        <time>2026-05-27T10:20:44Z</time>
      </trkpt>
      <trkpt lat="43.22143" lon="2.04195">
        <ele>212.1</ele>
        <time>2026-05-27T10:20:49Z</time>
      </trkpt>
      <trkpt lat="43.2214" lon="2.04202">
        <ele>211.7</ele>
        <time>2026-05-27T10:20:54Z</time>
      </trkpt>
      <trkpt lat="43.22134" lon="2.0421">
        <ele>211.5</ele>
        <time>2026-05-27T10:20:59Z</time>
      </trkpt>
      <trkpt lat="43.22133" lon="2.04211">
        <ele>211.5</ele>
        <time>2026-05-27T10:21:04Z</time>
      </trkpt>
      <trkpt lat="43.22133" lon="2.04213">
        <ele>211.3</ele>
        <time>2026-05-27T10:21:09Z</time>
      </trkpt>
      <trkpt lat="43.22135" lon="2.04219">
        <ele>210.2</ele>
        <time>2026-05-27T10:21:14Z</time>
      </trkpt>
      <trkpt lat="43.22139" lon="2.04225">
        <ele>208.8</ele>
        <time>2026-05-27T10:21:19Z</time>
      </trkpt>
      <trkpt lat="43.22143" lon="2.04233">
        <ele>207.2</ele>
        <time>2026-05-27T10:21:24Z</time>
      </trkpt>
      <trkpt lat="43.22146" lon="2.0424">
        <ele>205.8</ele>
        <time>2026-05-27T10:21:29Z</time>
      </trkpt>
      <trkpt lat="43.22151" lon="2.04245">
        <ele>204.3</ele>
        <time>2026-05-27T10:21:34Z</time>
      </trkpt>
      <trkpt lat="43.22154" lon="2.04253">
        <ele>202.8</ele>
        <time>2026-05-27T10:21:39Z</time>
      </trkpt>
      <trkpt lat="43.22159" lon="2.0426">
        <ele>201.2</ele>
        <time>2026-05-27T10:21:44Z</time>
      </trkpt>
      <trkpt lat="43.22163" lon="2.04266">
        <ele>199.9</ele>
        <time>2026-05-27T10:21:49Z</time>
      </trkpt>
      <trkpt lat="43.22167" lon="2.04272">
        <ele>198.6</ele>
        <time>2026-05-27T10:21:54Z</time>
      </trkpt>
      <trkpt lat="43.22171" lon="2.04276">
        <ele>197.8</ele>
        <time>2026-05-27T10:21:59Z</time>
      </trkpt>
      <trkpt lat="43.22175" lon="2.04281">
        <ele>197</ele>
        <time>2026-05-27T10:22:04Z</time>
      </trkpt>
      <trkpt lat="43.22179" lon="2.04288">
        <ele>195.9</ele>
        <time>2026-05-27T10:22:09Z</time>
      </trkpt>
      <trkpt lat="43.22184" lon="2.04293">
        <ele>195</ele>
        <time>2026-05-27T10:22:14Z</time>
      </trkpt>
      <trkpt lat="43.22188" lon="2.04299">
        <ele>194.1</ele>
        <time>2026-05-27T10:22:19Z</time>
      </trkpt>
      <trkpt lat="43.22191" lon="2.04302">
        <ele>193.6</ele>
        <time>2026-05-27T10:22:24Z</time>
      </trkpt>
      <trkpt lat="43.22197" lon="2.04305">
        <ele>192.9</ele>
        <time>2026-05-27T10:22:29Z</time>
      </trkpt>
      <trkpt lat="43.22201" lon="2.04312">
        <ele>191.9</ele>
        <time>2026-05-27T10:22:34Z</time>
      </trkpt>
      <trkpt lat="43.22206" lon="2.04317">
        <ele>191.1</ele>
        <time>2026-05-27T10:22:39Z</time>
      </trkpt>
      <trkpt lat="43.22212" lon="2.04321">
        <ele>190.4</ele>
        <time>2026-05-27T10:22:44Z</time>
      </trkpt>
      <trkpt lat="43.22216" lon="2.04326">
        <ele>189.7</ele>
        <time>2026-05-27T10:22:49Z</time>
      </trkpt>
      <trkpt lat="43.2222" lon="2.04331">
        <ele>189</ele>
        <time>2026-05-27T10:22:54Z</time>
      </trkpt>
      <trkpt lat="43.2222" lon="2.04331">
        <ele>189</ele>
        <time>2026-05-27T10:22:59Z</time>
      </trkpt>
      <trkpt lat="43.2222" lon="2.04331">
        <ele>189</ele>
        <time>2026-05-27T10:23:04Z</time>
      </trkpt>
      <trkpt lat="43.2222" lon="2.04331">
        <ele>189</ele>
        <time>2026-05-27T10:23:09Z</time>
      </trkpt>
      <trkpt lat="43.2222" lon="2.04331">
        <ele>189</ele>
        <time>2026-05-27T10:23:14Z</time>
      </trkpt>
      <trkpt lat="43.2222" lon="2.04331">
        <ele>189</ele>
        <time>2026-05-27T10:23:19Z</time>
      </trkpt>
      <trkpt lat="43.22225" lon="2.04336">
        <ele>188.3</ele>
        <time>2026-05-27T10:23:24Z</time>
      </trkpt>
      <trkpt lat="43.22229" lon="2.04341">
        <ele>187.7</ele>
        <time>2026-05-27T10:23:29Z</time>
      </trkpt>
      <trkpt lat="43.22234" lon="2.04347">
        <ele>187</ele>
        <time>2026-05-27T10:23:34Z</time>
      </trkpt>
      <trkpt lat="43.22239" lon="2.04352">
        <ele>186.3</ele>
        <time>2026-05-27T10:23:39Z</time>
      </trkpt>
      <trkpt lat="43.22235" lon="2.04349">
        <ele>186.8</ele>
        <time>2026-05-27T10:23:44Z</time>
      </trkpt>
      <trkpt lat="43.22231" lon="2.04344">
        <ele>187.4</ele>
        <time>2026-05-27T10:23:49Z</time>
      </trkpt>
      <trkpt lat="43.22226" lon="2.04339">
        <ele>188</ele>
        <time>2026-05-27T10:23:54Z</time>
      </trkpt>
      <trkpt lat="43.22221" lon="2.04333">
        <ele>188.8</ele>
        <time>2026-05-27T10:23:59Z</time>
      </trkpt>
      <trkpt lat="43.22215" lon="2.04328">
        <ele>189.6</ele>
        <time>2026-05-27T10:24:04Z</time>
      </trkpt>
      <trkpt lat="43.22209" lon="2.04322">
        <ele>190.5</ele>
        <time>2026-05-27T10:24:09Z</time>
      </trkpt>
      <trkpt lat="43.22204" lon="2.04317">
        <ele>191.3</ele>
        <time>2026-05-27T10:24:14Z</time>
      </trkpt>
      <trkpt lat="43.22199" lon="2.04311">
        <ele>192.2</ele>
        <time>2026-05-27T10:24:19Z</time>
      </trkpt>
      <trkpt lat="43.22194" lon="2.04307">
        <ele>192.9</ele>
        <time>2026-05-27T10:24:24Z</time>
      </trkpt>
      <trkpt lat="43.22189" lon="2.04301">
        <ele>193.8</ele>
        <time>2026-05-27T10:24:29Z</time>
      </trkpt>
      <trkpt lat="43.22184" lon="2.04296">
        <ele>194.7</ele>
        <time>2026-05-27T10:24:34Z</time>
      </trkpt>
      <trkpt lat="43.2218" lon="2.0429">
        <ele>195.6</ele>
        <time>2026-05-27T10:24:39Z</time>
      </trkpt>
      <trkpt lat="43.22176" lon="2.04286">
        <ele>196.4</ele>
        <time>2026-05-27T10:24:44Z</time>
      </trkpt>
      <trkpt lat="43.22171" lon="2.04278">
        <ele>197.6</ele>
        <time>2026-05-27T10:24:49Z</time>
      </trkpt>
      <trkpt lat="43.22167" lon="2.04273">
        <ele>198.5</ele>
        <time>2026-05-27T10:24:54Z</time>
      </trkpt>
      <trkpt lat="43.22163" lon="2.04267">
        <ele>199.8</ele>
        <time>2026-05-27T10:24:59Z</time>
      </trkpt>
      <trkpt lat="43.22159" lon="2.0426">
        <ele>201.2</ele>
        <time>2026-05-27T10:25:04Z</time>
      </trkpt>
      <trkpt lat="43.22155" lon="2.04254">
        <ele>202.5</ele>
        <time>2026-05-27T10:25:09Z</time>
      </trkpt>
      <trkpt lat="43.22151" lon="2.04246">
        <ele>204.2</ele>
        <time>2026-05-27T10:25:14Z</time>
      </trkpt>
      <trkpt lat="43.22149" lon="2.04239">
        <ele>205.4</ele>
        <time>2026-05-27T10:25:19Z</time>
      </trkpt>
      <trkpt lat="43.22145" lon="2.04232">
        <ele>207</ele>
        <time>2026-05-27T10:25:24Z</time>
      </trkpt>
      <trkpt lat="43.22143" lon="2.04227">
        <ele>208</ele>
        <time>2026-05-27T10:25:29Z</time>
      </trkpt>
      <trkpt lat="43.22139" lon="2.04221">
        <ele>209.4</ele>
        <time>2026-05-27T10:25:34Z</time>
      </trkpt>
      <trkpt lat="43.22136" lon="2.04216">
        <ele>210.4</ele>
        <time>2026-05-27T10:25:39Z</time>
      </trkpt>
      <trkpt lat="43.22136" lon="2.04209">
        <ele>211.3</ele>
        <time>2026-05-27T10:25:44Z</time>
      </trkpt>
      <trkpt lat="43.22138" lon="2.04202">
        <ele>211.9</ele>
        <time>2026-05-27T10:25:49Z</time>
      </trkpt>
      <trkpt lat="43.22142" lon="2.04196">
        <ele>212.2</ele>
        <time>2026-05-27T10:25:54Z</time>
      </trkpt>
      <trkpt lat="43.22145" lon="2.04191">
        <ele>212.4</ele>
        <time>2026-05-27T10:25:59Z</time>
      </trkpt>
      <trkpt lat="43.22149" lon="2.04184">
        <ele>212.8</ele>
        <time>2026-05-27T10:26:04Z</time>
      </trkpt>
      <trkpt lat="43.22152" lon="2.04175">
        <ele>213.6</ele>
        <time>2026-05-27T10:26:09Z</time>
      </trkpt>
      <trkpt lat="43.22155" lon="2.04169">
        <ele>214.1</ele>
        <time>2026-05-27T10:26:14Z</time>
      </trkpt>
      <trkpt lat="43.22159" lon="2.04161">
        <ele>214.4</ele>
        <time>2026-05-27T10:26:19Z</time>
      </trkpt>
      <trkpt lat="43.22164" lon="2.04155">
        <ele>214.4</ele>
        <time>2026-05-27T10:26:24Z</time>
      </trkpt>
      <trkpt lat="43.22167" lon="2.0415">
        <ele>214.5</ele>
        <time>2026-05-27T10:26:29Z</time>
      </trkpt>
      <trkpt lat="43.2217" lon="2.04143">
        <ele>214.6</ele>
        <time>2026-05-27T10:26:34Z</time>
      </trkpt>
      <trkpt lat="43.22174" lon="2.04136">
        <ele>214.6</ele>
        <time>2026-05-27T10:26:39Z</time>
      </trkpt>
      <trkpt lat="43.22178" lon="2.04128">
        <ele>214.6</ele>
        <time>2026-05-27T10:26:44Z</time>
      </trkpt>
      <trkpt lat="43.22182" lon="2.04122">
        <ele>214.4</ele>
        <time>2026-05-27T10:26:49Z</time>
      </trkpt>
      <trkpt lat="43.22184" lon="2.0412">
        <ele>214.3</ele>
        <time>2026-05-27T10:26:54Z</time>
      </trkpt>
      <trkpt lat="43.22188" lon="2.04121">
        <ele>213.4</ele>
        <time>2026-05-27T10:26:59Z</time>
      </trkpt>
      <trkpt lat="43.22193" lon="2.04124">
        <ele>212.2</ele>
        <time>2026-05-27T10:27:04Z</time>
      </trkpt>
      <trkpt lat="43.22199" lon="2.04127">
        <ele>210.8</ele>
        <time>2026-05-27T10:27:09Z</time>
      </trkpt>
      <trkpt lat="43.22203" lon="2.04131">
        <ele>209.6</ele>
        <time>2026-05-27T10:27:14Z</time>
      </trkpt>
      <trkpt lat="43.22203" lon="2.04134">
        <ele>209.3</ele>
        <time>2026-05-27T10:27:19Z</time>
      </trkpt>
      <trkpt lat="43.22203" lon="2.04136">
        <ele>209.1</ele>
        <time>2026-05-27T10:27:24Z</time>
      </trkpt>
      <trkpt lat="43.22203" lon="2.04136">
        <ele>209.1</ele>
        <time>2026-05-27T10:27:29Z</time>
      </trkpt>
      <trkpt lat="43.22203" lon="2.04136">
        <ele>209.1</ele>
        <time>2026-05-27T10:27:34Z</time>
      </trkpt>
      <trkpt lat="43.22203" lon="2.04136">
        <ele>209.1</ele>
        <time>2026-05-27T10:27:39Z</time>
      </trkpt>
      <trkpt lat="43.22203" lon="2.04136">
        <ele>209.1</ele>
        <time>2026-05-27T10:27:44Z</time>
      </trkpt>
      <trkpt lat="43.22203" lon="2.04136">
        <ele>209.1</ele>
        <time>2026-05-27T10:27:49Z</time>
      </trkpt>
      <trkpt lat="43.22203" lon="2.04136">
        <ele>209.1</ele>
        <time>2026-05-27T10:27:54Z</time>
      </trkpt>
      <trkpt lat="43.22208" lon="2.04147">
        <ele>207.1</ele>
        <time>2026-05-27T10:27:59Z</time>
      </trkpt>
      <trkpt lat="43.22209" lon="2.04148">
        <ele>206.8</ele>
        <time>2026-05-27T10:28:04Z</time>
      </trkpt>
      <trkpt lat="43.22209" lon="2.04148">
        <ele>206.8</ele>
        <time>2026-05-27T10:28:09Z</time>
      </trkpt>
      <trkpt lat="43.22209" lon="2.04148">
        <ele>206.8</ele>
        <time>2026-05-27T10:28:14Z</time>
      </trkpt>
      <trkpt lat="43.22209" lon="2.04148">
        <ele>206.8</ele>
        <time>2026-05-27T10:28:19Z</time>
      </trkpt>
      <trkpt lat="43.22209" lon="2.04148">
        <ele>206.8</ele>
        <time>2026-05-27T10:28:24Z</time>
      </trkpt>
      <trkpt lat="43.22209" lon="2.04148">
        <ele>206.8</ele>
        <time>2026-05-27T10:28:29Z</time>
      </trkpt>
      <trkpt lat="43.22215" lon="2.04147">
        <ele>205.7</ele>
        <time>2026-05-27T10:28:34Z</time>
      </trkpt>
      <trkpt lat="43.22212" lon="2.04139">
        <ele>207.1</ele>
        <time>2026-05-27T10:28:39Z</time>
      </trkpt>
      <trkpt lat="43.22207" lon="2.04136">
        <ele>208.4</ele>
        <time>2026-05-27T10:28:44Z</time>
      </trkpt>
      <trkpt lat="43.22201" lon="2.04133">
        <ele>209.8</ele>
        <time>2026-05-27T10:28:49Z</time>
      </trkpt>
      <trkpt lat="43.22198" lon="2.04129">
        <ele>210.8</ele>
        <time>2026-05-27T10:28:54Z</time>
      </trkpt>
      <trkpt lat="43.22195" lon="2.04125">
        <ele>211.7</ele>
        <time>2026-05-27T10:28:59Z</time>
      </trkpt>
      <trkpt lat="43.2219" lon="2.04122">
        <ele>213</ele>
        <time>2026-05-27T10:29:04Z</time>
      </trkpt>
      <trkpt lat="43.22186" lon="2.04119">
        <ele>214</ele>
        <time>2026-05-27T10:29:09Z</time>
      </trkpt>
      <trkpt lat="43.22181" lon="2.04117">
        <ele>215.1</ele>
        <time>2026-05-27T10:29:14Z</time>
      </trkpt>
      <trkpt lat="43.22175" lon="2.04114">
        <ele>216.5</ele>
        <time>2026-05-27T10:29:19Z</time>
      </trkpt>
      <trkpt lat="43.22169" lon="2.04108">
        <ele>218.2</ele>
        <time>2026-05-27T10:29:24Z</time>
      </trkpt>
      <trkpt lat="43.22164" lon="2.04103">
        <ele>219.2</ele>
        <time>2026-05-27T10:29:29Z</time>
      </trkpt>
      <trkpt lat="43.2216" lon="2.041">
        <ele>219.7</ele>
        <time>2026-05-27T10:29:34Z</time>
      </trkpt>
      <trkpt lat="43.22155" lon="2.04096">
        <ele>220.2</ele>
        <time>2026-05-27T10:29:39Z</time>
      </trkpt>
      <trkpt lat="43.2215" lon="2.04092">
        <ele>220.7</ele>
        <time>2026-05-27T10:29:44Z</time>
      </trkpt>
      <trkpt lat="43.22146" lon="2.0409">
        <ele>221</ele>
        <time>2026-05-27T10:29:49Z</time>
      </trkpt>
      <trkpt lat="43.22141" lon="2.04087">
        <ele>221.4</ele>
        <time>2026-05-27T10:29:54Z</time>
      </trkpt>
      <trkpt lat="43.22138" lon="2.04085">
        <ele>221.6</ele>
        <time>2026-05-27T10:29:59Z</time>
      </trkpt>
      <trkpt lat="43.22136" lon="2.04082">
        <ele>221.8</ele>
        <time>2026-05-27T10:30:04Z</time>
      </trkpt>
      <trkpt lat="43.22133" lon="2.0408">
        <ele>221.9</ele>
        <time>2026-05-27T10:30:09Z</time>
      </trkpt>
      <trkpt lat="43.22132" lon="2.04079">
        <ele>221.9</ele>
        <time>2026-05-27T10:30:14Z</time>
      </trkpt>
      <trkpt lat="43.22131" lon="2.04079">
        <ele>221.9</ele>
        <time>2026-05-27T10:30:19Z</time>
      </trkpt>
      <trkpt lat="43.22131" lon="2.04079">
        <ele>221.9</ele>
        <time>2026-05-27T10:30:24Z</time>
      </trkpt>
      <trkpt lat="43.22122" lon="2.04074">
        <ele>222.1</ele>
        <time>2026-05-27T10:30:29Z</time>
      </trkpt>
      <trkpt lat="43.22118" lon="2.04071">
        <ele>222.2</ele>
        <time>2026-05-27T10:30:34Z</time>
      </trkpt>
      <trkpt lat="43.22118" lon="2.04069">
        <ele>222.2</ele>
        <time>2026-05-27T10:30:39Z</time>
      </trkpt>
      <trkpt lat="43.22118" lon="2.04069">
        <ele>222.2</ele>
        <time>2026-05-27T10:30:44Z</time>
      </trkpt>
      <trkpt lat="43.22118" lon="2.04069">
        <ele>222.2</ele>
        <time>2026-05-27T10:30:49Z</time>
      </trkpt>
      <trkpt lat="43.22118" lon="2.04069">
        <ele>222.2</ele>
        <time>2026-05-27T10:30:54Z</time>
      </trkpt>
      <trkpt lat="43.22117" lon="2.04069">
        <ele>222.2</ele>
        <time>2026-05-27T10:30:59Z</time>
      </trkpt>
      <trkpt lat="43.22113" lon="2.04066">
        <ele>222.2</ele>
        <time>2026-05-27T10:31:04Z</time>
      </trkpt>
      <trkpt lat="43.22108" lon="2.04062">
        <ele>222.2</ele>
        <time>2026-05-27T10:31:09Z</time>
      </trkpt>
      <trkpt lat="43.22103" lon="2.04059">
        <ele>222.1</ele>
        <time>2026-05-27T10:31:14Z</time>
      </trkpt>
      <trkpt lat="43.22101" lon="2.04058">
        <ele>222.1</ele>
        <time>2026-05-27T10:31:19Z</time>
      </trkpt>
      <trkpt lat="43.22099" lon="2.04057">
        <ele>222.1</ele>
        <time>2026-05-27T10:31:24Z</time>
      </trkpt>
      <trkpt lat="43.22099" lon="2.04057">
        <ele>222.1</ele>
        <time>2026-05-27T10:31:29Z</time>
      </trkpt>
      <trkpt lat="43.22099" lon="2.04057">
        <ele>222.1</ele>
        <time>2026-05-27T10:31:34Z</time>
      </trkpt>
      <trkpt lat="43.22099" lon="2.04057">
        <ele>222.1</ele>
        <time>2026-05-27T10:31:39Z</time>
      </trkpt>
      <trkpt lat="43.22093" lon="2.04044">
        <ele>221.7</ele>
        <time>2026-05-27T10:31:44Z</time>
      </trkpt>
      <trkpt lat="43.22093" lon="2.04044">
        <ele>221.7</ele>
        <time>2026-05-27T10:31:49Z</time>
      </trkpt>
      <trkpt lat="43.22085" lon="2.04041">
        <ele>221.5</ele>
        <time>2026-05-27T10:31:54Z</time>
      </trkpt>
      <trkpt lat="43.22085" lon="2.04041">
        <ele>221.5</ele>
        <time>2026-05-27T10:31:59Z</time>
      </trkpt>
      <trkpt lat="43.22085" lon="2.04041">
        <ele>221.5</ele>
        <time>2026-05-27T10:32:04Z</time>
      </trkpt>
      <trkpt lat="43.22085" lon="2.04041">
        <ele>221.5</ele>
        <time>2026-05-27T10:32:09Z</time>
      </trkpt>
      <trkpt lat="43.2208" lon="2.04028">
        <ele>220.6</ele>
        <time>2026-05-27T10:32:14Z</time>
      </trkpt>
      <trkpt lat="43.22085" lon="2.04021">
        <ele>220.8</ele>
        <time>2026-05-27T10:32:19Z</time>
      </trkpt>
      <trkpt lat="43.22088" lon="2.04013">
        <ele>220.7</ele>
        <time>2026-05-27T10:32:24Z</time>
      </trkpt>
      <trkpt lat="43.22089" lon="2.04004">
        <ele>220.5</ele>
        <time>2026-05-27T10:32:29Z</time>
      </trkpt>
      <trkpt lat="43.22086" lon="2.04001">
        <ele>220.2</ele>
        <time>2026-05-27T10:32:34Z</time>
      </trkpt>
      <trkpt lat="43.22086" lon="2.04001">
        <ele>220.2</ele>
        <time>2026-05-27T10:32:34Z</time>
      </trkpt>
      <trkpt lat="43.22083" lon="2.04005">
        <ele>220.1</ele>
        <time>2026-05-27T10:33:18Z</time>
      </trkpt>
      <trkpt lat="43.22089" lon="2.04">
        <ele>220.3</ele>
        <time>2026-05-27T10:33:23Z</time>
      </trkpt>
      <trkpt lat="43.22089" lon="2.04">
        <ele>220.3</ele>
        <time>2026-05-27T10:33:28Z</time>
      </trkpt>
      <trkpt lat="43.22089" lon="2.04">
        <ele>220.3</ele>
        <time>2026-05-27T10:33:33Z</time>
      </trkpt>
      <trkpt lat="43.22089" lon="2.04">
        <ele>220.3</ele>
        <time>2026-05-27T10:33:38Z</time>
      </trkpt>
      <trkpt lat="43.22089" lon="2.04">
        <ele>220.3</ele>
        <time>2026-05-27T10:33:43Z</time>
      </trkpt>
      <trkpt lat="43.22089" lon="2.04">
        <ele>220.3</ele>
        <time>2026-05-27T10:33:48Z</time>
      </trkpt>
      <trkpt lat="43.22089" lon="2.04">
        <ele>220.3</ele>
        <time>2026-05-27T10:33:53Z</time>
      </trkpt>
      <trkpt lat="43.22089" lon="2.04">
        <ele>220.3</ele>
        <time>2026-05-27T10:33:58Z</time>
      </trkpt>
      <trkpt lat="43.22089" lon="2.04">
        <ele>220.3</ele>
        <time>2026-05-27T10:34:03Z</time>
      </trkpt>
      <trkpt lat="43.22089" lon="2.04">
        <ele>220.3</ele>
        <time>2026-05-27T10:34:08Z</time>
      </trkpt>
      <trkpt lat="43.22086" lon="2.0399">
        <ele>219.4</ele>
        <time>2026-05-27T10:34:13Z</time>
      </trkpt>
      <trkpt lat="43.22082" lon="2.03987">
        <ele>218.9</ele>
        <time>2026-05-27T10:34:18Z</time>
      </trkpt>
      <trkpt lat="43.22077" lon="2.03986">
        <ele>218.3</ele>
        <time>2026-05-27T10:34:23Z</time>
      </trkpt>
      <trkpt lat="43.22071" lon="2.03985">
        <ele>217.5</ele>
        <time>2026-05-27T10:34:28Z</time>
      </trkpt>
      <trkpt lat="43.22067" lon="2.03984">
        <ele>217</ele>
        <time>2026-05-27T10:34:33Z</time>
      </trkpt>
      <trkpt lat="43.22066" lon="2.03986">
        <ele>217</ele>
        <time>2026-05-27T10:34:38Z</time>
      </trkpt>
      <trkpt lat="43.22067" lon="2.03989">
        <ele>217.3</ele>
        <time>2026-05-27T10:34:43Z</time>
      </trkpt>
      <trkpt lat="43.22067" lon="2.03989">
        <ele>217.3</ele>
        <time>2026-05-27T10:34:48Z</time>
      </trkpt>
      <trkpt lat="43.22062" lon="2.03984">
        <ele>216.4</ele>
        <time>2026-05-27T10:34:53Z</time>
      </trkpt>
      <trkpt lat="43.22058" lon="2.03977">
        <ele>215.5</ele>
        <time>2026-05-27T10:34:58Z</time>
      </trkpt>
      <trkpt lat="43.22054" lon="2.03978">
        <ele>215.1</ele>
        <time>2026-05-27T10:35:03Z</time>
      </trkpt>
      <trkpt lat="43.22051" lon="2.03983">
        <ele>215.1</ele>
        <time>2026-05-27T10:35:08Z</time>
      </trkpt>
      <trkpt lat="43.22052" lon="2.03986">
        <ele>215.4</ele>
        <time>2026-05-27T10:35:13Z</time>
      </trkpt>
      <trkpt lat="43.22053" lon="2.03988">
        <ele>215.6</ele>
        <time>2026-05-27T10:35:18Z</time>
      </trkpt>
      <trkpt lat="43.22051" lon="2.0399">
        <ele>215.5</ele>
        <time>2026-05-27T10:35:23Z</time>
      </trkpt>
      <trkpt lat="43.22046" lon="2.03999">
        <ele>215.5</ele>
        <time>2026-05-27T10:35:28Z</time>
      </trkpt>
      <trkpt lat="43.22041" lon="2.04006">
        <ele>215.1</ele>
        <time>2026-05-27T10:35:33Z</time>
      </trkpt>
      <trkpt lat="43.22039" lon="2.04013">
        <ele>215.1</ele>
        <time>2026-05-27T10:35:38Z</time>
      </trkpt>
      <trkpt lat="43.22033" lon="2.04014">
        <ele>214.5</ele>
        <time>2026-05-27T10:35:43Z</time>
      </trkpt>
      <trkpt lat="43.22027" lon="2.04011">
        <ele>213.6</ele>
        <time>2026-05-27T10:35:48Z</time>
      </trkpt>
      <trkpt lat="43.22022" lon="2.04008">
        <ele>212.9</ele>
        <time>2026-05-27T10:35:53Z</time>
      </trkpt>
      <trkpt lat="43.22016" lon="2.04001">
        <ele>212</ele>
        <time>2026-05-27T10:35:58Z</time>
      </trkpt>
      <trkpt lat="43.22008" lon="2.03998">
        <ele>210.9</ele>
        <time>2026-05-27T10:36:03Z</time>
      </trkpt>
      <trkpt lat="43.22001" lon="2.03993">
        <ele>209.8</ele>
        <time>2026-05-27T10:36:08Z</time>
      </trkpt>
      <trkpt lat="43.21998" lon="2.03986">
        <ele>209.1</ele>
        <time>2026-05-27T10:36:13Z</time>
      </trkpt>
      <trkpt lat="43.21995" lon="2.03982">
        <ele>208.5</ele>
        <time>2026-05-27T10:36:18Z</time>
      </trkpt>
      <trkpt lat="43.21995" lon="2.03979">
        <ele>208.4</ele>
        <time>2026-05-27T10:36:23Z</time>
      </trkpt>
      <trkpt lat="43.21994" lon="2.03976">
        <ele>208.1</ele>
        <time>2026-05-27T10:36:28Z</time>
      </trkpt>
      <trkpt lat="43.21994" lon="2.03972">
        <ele>207.9</ele>
        <time>2026-05-27T10:36:33Z</time>
      </trkpt>
      <trkpt lat="43.21996" lon="2.03967">
        <ele>207.9</ele>
        <time>2026-05-27T10:36:38Z</time>
      </trkpt>
      <trkpt lat="43.21994" lon="2.03967">
        <ele>207.7</ele>
        <time>2026-05-27T10:36:43Z</time>
      </trkpt>
      <trkpt lat="43.21991" lon="2.03973">
        <ele>207.6</ele>
        <time>2026-05-27T10:36:48Z</time>
      </trkpt>
      <trkpt lat="43.2199" lon="2.03981">
        <ele>207.8</ele>
        <time>2026-05-27T10:36:53Z</time>
      </trkpt>
      <trkpt lat="43.21988" lon="2.03989">
        <ele>207.9</ele>
        <time>2026-05-27T10:36:58Z</time>
      </trkpt>
      <trkpt lat="43.21985" lon="2.03995">
        <ele>207.8</ele>
        <time>2026-05-27T10:37:03Z</time>
      </trkpt>
      <trkpt lat="43.21979" lon="2.04">
        <ele>207.2</ele>
        <time>2026-05-27T10:37:08Z</time>
      </trkpt>
      <trkpt lat="43.21976" lon="2.04006">
        <ele>207.1</ele>
        <time>2026-05-27T10:37:13Z</time>
      </trkpt>
      <trkpt lat="43.21972" lon="2.04013">
        <ele>206.8</ele>
        <time>2026-05-27T10:37:18Z</time>
      </trkpt>
      <trkpt lat="43.21968" lon="2.04021">
        <ele>206.6</ele>
        <time>2026-05-27T10:37:23Z</time>
      </trkpt>
      <trkpt lat="43.21965" lon="2.04029">
        <ele>206.6</ele>
        <time>2026-05-27T10:37:28Z</time>
      </trkpt>
      <trkpt lat="43.21961" lon="2.04037">
        <ele>206.4</ele>
        <time>2026-05-27T10:37:33Z</time>
      </trkpt>
      <trkpt lat="43.21957" lon="2.04044">
        <ele>206.2</ele>
        <time>2026-05-27T10:37:38Z</time>
      </trkpt>
      <trkpt lat="43.21954" lon="2.04051">
        <ele>206.1</ele>
        <time>2026-05-27T10:37:43Z</time>
      </trkpt>
      <trkpt lat="43.2195" lon="2.04057">
        <ele>205.9</ele>
        <time>2026-05-27T10:37:48Z</time>
      </trkpt>
      <trkpt lat="43.21948" lon="2.04061">
        <ele>205.8</ele>
        <time>2026-05-27T10:37:53Z</time>
      </trkpt>
      <trkpt lat="43.21948" lon="2.04062">
        <ele>205.8</ele>
        <time>2026-05-27T10:37:58Z</time>
      </trkpt>
      <trkpt lat="43.21949" lon="2.04058">
        <ele>205.8</ele>
        <time>2026-05-27T10:38:03Z</time>
      </trkpt>
      <trkpt lat="43.21952" lon="2.04051">
        <ele>205.9</ele>
        <time>2026-05-27T10:38:08Z</time>
      </trkpt>
      <trkpt lat="43.21956" lon="2.04045">
        <ele>206.1</ele>
        <time>2026-05-27T10:38:13Z</time>
      </trkpt>
      <trkpt lat="43.21961" lon="2.04037">
        <ele>206.4</ele>
        <time>2026-05-27T10:38:18Z</time>
      </trkpt>
      <trkpt lat="43.21966" lon="2.0403">
        <ele>206.7</ele>
        <time>2026-05-27T10:38:23Z</time>
      </trkpt>
      <trkpt lat="43.2197" lon="2.04023">
        <ele>207</ele>
        <time>2026-05-27T10:38:28Z</time>
      </trkpt>
      <trkpt lat="43.21971" lon="2.04016">
        <ele>206.8</ele>
        <time>2026-05-27T10:38:33Z</time>
      </trkpt>
      <trkpt lat="43.21976" lon="2.04007">
        <ele>207.1</ele>
        <time>2026-05-27T10:38:38Z</time>
      </trkpt>
      <trkpt lat="43.21979" lon="2.03998">
        <ele>207.1</ele>
        <time>2026-05-27T10:38:43Z</time>
      </trkpt>
      <trkpt lat="43.21983" lon="2.0399">
        <ele>207.3</ele>
        <time>2026-05-27T10:38:48Z</time>
      </trkpt>
      <trkpt lat="43.21988" lon="2.03982">
        <ele>207.6</ele>
        <time>2026-05-27T10:38:53Z</time>
      </trkpt>
      <trkpt lat="43.21991" lon="2.03975">
        <ele>207.7</ele>
        <time>2026-05-27T10:38:58Z</time>
      </trkpt>
      <trkpt lat="43.21995" lon="2.03966">
        <ele>207.8</ele>
        <time>2026-05-27T10:39:03Z</time>
      </trkpt>
      <trkpt lat="43.22001" lon="2.03958">
        <ele>208.1</ele>
        <time>2026-05-27T10:39:08Z</time>
      </trkpt>
      <trkpt lat="43.22004" lon="2.03951">
        <ele>208.1</ele>
        <time>2026-05-27T10:39:13Z</time>
      </trkpt>
      <trkpt lat="43.22008" lon="2.03942">
        <ele>208</ele>
        <time>2026-05-27T10:39:18Z</time>
      </trkpt>
      <trkpt lat="43.22011" lon="2.03937">
        <ele>208.1</ele>
        <time>2026-05-27T10:39:23Z</time>
      </trkpt>
      <trkpt lat="43.22012" lon="2.03932">
        <ele>207.9</ele>
        <time>2026-05-27T10:39:28Z</time>
      </trkpt>
      <trkpt lat="43.22015" lon="2.03924">
        <ele>207.8</ele>
        <time>2026-05-27T10:39:33Z</time>
      </trkpt>
      <trkpt lat="43.22016" lon="2.03917">
        <ele>207.6</ele>
        <time>2026-05-27T10:39:38Z</time>
      </trkpt>
      <trkpt lat="43.2202" lon="2.03909">
        <ele>207.6</ele>
        <time>2026-05-27T10:39:43Z</time>
      </trkpt>
      <trkpt lat="43.22023" lon="2.03905">
        <ele>207.7</ele>
        <time>2026-05-27T10:39:48Z</time>
      </trkpt>
      <trkpt lat="43.22028" lon="2.03902">
        <ele>208</ele>
        <time>2026-05-27T10:39:53Z</time>
      </trkpt>
      <trkpt lat="43.22031" lon="2.03902">
        <ele>208.3</ele>
        <time>2026-05-27T10:39:58Z</time>
      </trkpt>
      <trkpt lat="43.22032" lon="2.03902">
        <ele>208.4</ele>
        <time>2026-05-27T10:40:03Z</time>
      </trkpt>
      <trkpt lat="43.22032" lon="2.03902">
        <ele>208.4</ele>
        <time>2026-05-27T10:40:08Z</time>
      </trkpt>
      <trkpt lat="43.22032" lon="2.03902">
        <ele>208.4</ele>
        <time>2026-05-27T10:40:08Z</time>
      </trkpt>
      <trkpt lat="43.22029" lon="2.03899">
        <ele>208</ele>
        <time>2026-05-27T10:42:39Z</time>
      </trkpt>
      <trkpt lat="43.22029" lon="2.03899">
        <ele>208</ele>
        <time>2026-05-27T10:42:44Z</time>
      </trkpt>
      <trkpt lat="43.22029" lon="2.039">
        <ele>208</ele>
        <time>2026-05-27T10:42:49Z</time>
      </trkpt>
      <trkpt lat="43.22029" lon="2.039">
        <ele>208</ele>
        <time>2026-05-27T10:42:54Z</time>
      </trkpt>
      <trkpt lat="43.22029" lon="2.039">
        <ele>208</ele>
        <time>2026-05-27T10:42:59Z</time>
      </trkpt>
      <trkpt lat="43.22029" lon="2.039">
        <ele>208</ele>
        <time>2026-05-27T10:43:04Z</time>
      </trkpt>
      <trkpt lat="43.22029" lon="2.039">
        <ele>208</ele>
        <time>2026-05-27T10:43:09Z</time>
      </trkpt>
      <trkpt lat="43.22029" lon="2.039">
        <ele>208</ele>
        <time>2026-05-27T10:43:14Z</time>
      </trkpt>
      <trkpt lat="43.22029" lon="2.039">
        <ele>208</ele>
        <time>2026-05-27T10:43:19Z</time>
      </trkpt>
      <trkpt lat="43.22029" lon="2.039">
        <ele>208</ele>
        <time>2026-05-27T10:43:24Z</time>
      </trkpt>
      <trkpt lat="43.22029" lon="2.039">
        <ele>208</ele>
        <time>2026-05-27T10:43:29Z</time>
      </trkpt>
      <trkpt lat="43.22029" lon="2.039">
        <ele>208</ele>
        <time>2026-05-27T10:43:34Z</time>
      </trkpt>
      <trkpt lat="43.22029" lon="2.039">
        <ele>208</ele>
        <time>2026-05-27T10:43:39Z</time>
      </trkpt>
      <trkpt lat="43.22029" lon="2.039">
        <ele>208</ele>
        <time>2026-05-27T10:43:44Z</time>
      </trkpt>
      <trkpt lat="43.22029" lon="2.039">
        <ele>208</ele>
        <time>2026-05-27T10:43:49Z</time>
      </trkpt>
      <trkpt lat="43.22029" lon="2.039">
        <ele>208</ele>
        <time>2026-05-27T10:43:54Z</time>
      </trkpt>
      <trkpt lat="43.22029" lon="2.039">
        <ele>208</ele>
        <time>2026-05-27T10:43:59Z</time>
      </trkpt>
      <trkpt lat="43.22029" lon="2.039">
        <ele>208</ele>
        <time>2026-05-27T10:44:04Z</time>
      </trkpt>
      <trkpt lat="43.22029" lon="2.039">
        <ele>208</ele>
        <time>2026-05-27T10:44:09Z</time>
      </trkpt>
      <trkpt lat="43.22029" lon="2.039">
        <ele>208</ele>
        <time>2026-05-27T10:44:14Z</time>
      </trkpt>
      <trkpt lat="43.22029" lon="2.039">
        <ele>208</ele>
        <time>2026-05-27T10:44:19Z</time>
      </trkpt>
      <trkpt lat="43.22029" lon="2.039">
        <ele>208</ele>
        <time>2026-05-27T10:44:24Z</time>
      </trkpt>
      <trkpt lat="43.22029" lon="2.039">
        <ele>208</ele>
        <time>2026-05-27T10:44:29Z</time>
      </trkpt>
      <trkpt lat="43.22029" lon="2.039">
        <ele>208</ele>
        <time>2026-05-27T10:44:34Z</time>
      </trkpt>
      <trkpt lat="43.22029" lon="2.039">
        <ele>208</ele>
        <time>2026-05-27T10:44:39Z</time>
      </trkpt>
      <trkpt lat="43.22029" lon="2.039">
        <ele>208</ele>
        <time>2026-05-27T10:44:44Z</time>
      </trkpt>
      <trkpt lat="43.22029" lon="2.039">
        <ele>208</ele>
        <time>2026-05-27T10:44:49Z</time>
      </trkpt>
      <trkpt lat="43.22029" lon="2.039">
        <ele>208</ele>
        <time>2026-05-27T10:44:54Z</time>
      </trkpt>
      <trkpt lat="43.22029" lon="2.039">
        <ele>208</ele>
        <time>2026-05-27T10:44:59Z</time>
      </trkpt>
      <trkpt lat="43.22029" lon="2.039">
        <ele>208</ele>
        <time>2026-05-27T10:45:04Z</time>
      </trkpt>
      <trkpt lat="43.22029" lon="2.039">
        <ele>208</ele>
        <time>2026-05-27T10:45:09Z</time>
      </trkpt>
      <trkpt lat="43.22029" lon="2.039">
        <ele>208</ele>
        <time>2026-05-27T10:45:14Z</time>
      </trkpt>
      <trkpt lat="43.22029" lon="2.039">
        <ele>208</ele>
        <time>2026-05-27T10:45:19Z</time>
      </trkpt>
      <trkpt lat="43.22029" lon="2.039">
        <ele>208</ele>
        <time>2026-05-27T10:45:24Z</time>
      </trkpt>
      <trkpt lat="43.22029" lon="2.039">
        <ele>208</ele>
        <time>2026-05-27T10:45:29Z</time>
      </trkpt>
      <trkpt lat="43.22029" lon="2.039">
        <ele>208</ele>
        <time>2026-05-27T10:45:34Z</time>
      </trkpt>
      <trkpt lat="43.22029" lon="2.039">
        <ele>208</ele>
        <time>2026-05-27T10:45:39Z</time>
      </trkpt>
      <trkpt lat="43.22029" lon="2.039">
        <ele>208</ele>
        <time>2026-05-27T10:45:44Z</time>
      </trkpt>
      <trkpt lat="43.22029" lon="2.039">
        <ele>208</ele>
        <time>2026-05-27T10:45:49Z</time>
      </trkpt>
      <trkpt lat="43.22029" lon="2.039">
        <ele>208</ele>
        <time>2026-05-27T10:45:54Z</time>
      </trkpt>
      <trkpt lat="43.22029" lon="2.039">
        <ele>208</ele>
        <time>2026-05-27T10:45:59Z</time>
      </trkpt>
      <trkpt lat="43.22029" lon="2.039">
        <ele>208</ele>
        <time>2026-05-27T10:46:04Z</time>
      </trkpt>
      <trkpt lat="43.22029" lon="2.039">
        <ele>208</ele>
        <time>2026-05-27T10:46:09Z</time>
      </trkpt>
      <trkpt lat="43.22029" lon="2.039">
        <ele>208</ele>
        <time>2026-05-27T10:46:14Z</time>
      </trkpt>
      <trkpt lat="43.22029" lon="2.039">
        <ele>208</ele>
        <time>2026-05-27T10:46:19Z</time>
      </trkpt>
      <trkpt lat="43.22029" lon="2.039">
        <ele>208</ele>
        <time>2026-05-27T10:46:24Z</time>
      </trkpt>
      <trkpt lat="43.22029" lon="2.039">
        <ele>208</ele>
        <time>2026-05-27T10:46:29Z</time>
      </trkpt>
      <trkpt lat="43.22029" lon="2.039">
        <ele>208</ele>
        <time>2026-05-27T10:46:34Z</time>
      </trkpt>
      <trkpt lat="43.22029" lon="2.039">
        <ele>208</ele>
        <time>2026-05-27T10:46:39Z</time>
      </trkpt>
      <trkpt lat="43.22029" lon="2.039">
        <ele>208</ele>
        <time>2026-05-27T10:46:44Z</time>
      </trkpt>
      <trkpt lat="43.22029" lon="2.039">
        <ele>208</ele>
        <time>2026-05-27T10:46:49Z</time>
      </trkpt>
      <trkpt lat="43.22029" lon="2.039">
        <ele>208</ele>
        <time>2026-05-27T10:46:54Z</time>
      </trkpt>
      <trkpt lat="43.22029" lon="2.039">
        <ele>208</ele>
        <time>2026-05-27T10:46:59Z</time>
      </trkpt>
      <trkpt lat="43.22029" lon="2.039">
        <ele>208</ele>
        <time>2026-05-27T10:47:04Z</time>
      </trkpt>
      <trkpt lat="43.22029" lon="2.039">
        <ele>208</ele>
        <time>2026-05-27T10:47:09Z</time>
      </trkpt>
      <trkpt lat="43.22029" lon="2.039">
        <ele>208</ele>
        <time>2026-05-27T10:47:14Z</time>
      </trkpt>
      <trkpt lat="43.22029" lon="2.039">
        <ele>208</ele>
        <time>2026-05-27T10:47:19Z</time>
      </trkpt>
      <trkpt lat="43.22029" lon="2.039">
        <ele>208</ele>
        <time>2026-05-27T10:47:24Z</time>
      </trkpt>
      <trkpt lat="43.22029" lon="2.039">
        <ele>208</ele>
        <time>2026-05-27T10:47:29Z</time>
      </trkpt>
      <trkpt lat="43.22029" lon="2.039">
        <ele>208</ele>
        <time>2026-05-27T10:47:34Z</time>
      </trkpt>
      <trkpt lat="43.22029" lon="2.039">
        <ele>208</ele>
        <time>2026-05-27T10:47:39Z</time>
      </trkpt>
      <trkpt lat="43.22029" lon="2.039">
        <ele>208</ele>
        <time>2026-05-27T10:47:44Z</time>
      </trkpt>
      <trkpt lat="43.22029" lon="2.039">
        <ele>208</ele>
        <time>2026-05-27T10:47:49Z</time>
      </trkpt>
      <trkpt lat="43.22029" lon="2.039">
        <ele>208</ele>
        <time>2026-05-27T10:47:54Z</time>
      </trkpt>
      <trkpt lat="43.22029" lon="2.039">
        <ele>208</ele>
        <time>2026-05-27T10:47:59Z</time>
      </trkpt>
      <trkpt lat="43.22029" lon="2.039">
        <ele>208</ele>
        <time>2026-05-27T10:48:04Z</time>
      </trkpt>
      <trkpt lat="43.22029" lon="2.039">
        <ele>208</ele>
        <time>2026-05-27T10:48:09Z</time>
      </trkpt>
      <trkpt lat="43.22029" lon="2.039">
        <ele>208</ele>
        <time>2026-05-27T10:48:14Z</time>
      </trkpt>
      <trkpt lat="43.22029" lon="2.039">
        <ele>208</ele>
        <time>2026-05-27T10:48:19Z</time>
      </trkpt>
      <trkpt lat="43.22029" lon="2.039">
        <ele>208</ele>
        <time>2026-05-27T10:48:24Z</time>
      </trkpt>
      <trkpt lat="43.22029" lon="2.039">
        <ele>208</ele>
        <time>2026-05-27T10:48:29Z</time>
      </trkpt>
      <trkpt lat="43.22029" lon="2.039">
        <ele>208</ele>
        <time>2026-05-27T10:48:34Z</time>
      </trkpt>
      <trkpt lat="43.22029" lon="2.039">
        <ele>208</ele>
        <time>2026-05-27T10:48:39Z</time>
      </trkpt>
      <trkpt lat="43.22029" lon="2.039">
        <ele>208</ele>
        <time>2026-05-27T10:48:44Z</time>
      </trkpt>
      <trkpt lat="43.22029" lon="2.039">
        <ele>208</ele>
        <time>2026-05-27T10:48:49Z</time>
      </trkpt>
      <trkpt lat="43.22029" lon="2.039">
        <ele>208</ele>
        <time>2026-05-27T10:48:54Z</time>
      </trkpt>
      <trkpt lat="43.22029" lon="2.039">
        <ele>208</ele>
        <time>2026-05-27T10:48:59Z</time>
      </trkpt>
      <trkpt lat="43.22029" lon="2.039">
        <ele>208</ele>
        <time>2026-05-27T10:49:04Z</time>
      </trkpt>
      <trkpt lat="43.22029" lon="2.039">
        <ele>208</ele>
        <time>2026-05-27T10:49:09Z</time>
      </trkpt>
      <trkpt lat="43.22029" lon="2.039">
        <ele>208</ele>
        <time>2026-05-27T10:49:14Z</time>
      </trkpt>
      <trkpt lat="43.22029" lon="2.039">
        <ele>208</ele>
        <time>2026-05-27T10:49:19Z</time>
      </trkpt>
      <trkpt lat="43.22029" lon="2.039">
        <ele>208</ele>
        <time>2026-05-27T10:49:24Z</time>
      </trkpt>
      <trkpt lat="43.22029" lon="2.039">
        <ele>208</ele>
        <time>2026-05-27T10:49:29Z</time>
      </trkpt>
      <trkpt lat="43.22029" lon="2.039">
        <ele>208</ele>
        <time>2026-05-27T10:49:34Z</time>
      </trkpt>
      <trkpt lat="43.22029" lon="2.039">
        <ele>208</ele>
        <time>2026-05-27T10:49:39Z</time>
      </trkpt>
      <trkpt lat="43.22029" lon="2.039">
        <ele>208</ele>
        <time>2026-05-27T10:49:44Z</time>
      </trkpt>
      <trkpt lat="43.22029" lon="2.039">
        <ele>208</ele>
        <time>2026-05-27T10:49:49Z</time>
      </trkpt>
      <trkpt lat="43.22029" lon="2.039">
        <ele>208</ele>
        <time>2026-05-27T10:49:54Z</time>
      </trkpt>
      <trkpt lat="43.22029" lon="2.039">
        <ele>208</ele>
        <time>2026-05-27T10:49:59Z</time>
      </trkpt>
      <trkpt lat="43.22029" lon="2.039">
        <ele>208</ele>
        <time>2026-05-27T10:50:04Z</time>
      </trkpt>
      <trkpt lat="43.22029" lon="2.039">
        <ele>208</ele>
        <time>2026-05-27T10:50:09Z</time>
      </trkpt>
      <trkpt lat="43.22029" lon="2.039">
        <ele>208</ele>
        <time>2026-05-27T10:50:14Z</time>
      </trkpt>
      <trkpt lat="43.22029" lon="2.039">
        <ele>208</ele>
        <time>2026-05-27T10:50:19Z</time>
      </trkpt>
      <trkpt lat="43.22029" lon="2.039">
        <ele>208</ele>
        <time>2026-05-27T10:50:24Z</time>
      </trkpt>
      <trkpt lat="43.22029" lon="2.039">
        <ele>208</ele>
        <time>2026-05-27T10:50:29Z</time>
      </trkpt>
      <trkpt lat="43.22029" lon="2.039">
        <ele>208</ele>
        <time>2026-05-27T10:50:34Z</time>
      </trkpt>
      <trkpt lat="43.22029" lon="2.039">
        <ele>208</ele>
        <time>2026-05-27T10:50:39Z</time>
      </trkpt>
      <trkpt lat="43.22029" lon="2.039">
        <ele>208</ele>
        <time>2026-05-27T10:50:44Z</time>
      </trkpt>
      <trkpt lat="43.22029" lon="2.039">
        <ele>208</ele>
        <time>2026-05-27T10:50:49Z</time>
      </trkpt>
      <trkpt lat="43.22029" lon="2.039">
        <ele>208</ele>
        <time>2026-05-27T10:50:54Z</time>
      </trkpt>
      <trkpt lat="43.22029" lon="2.039">
        <ele>208</ele>
        <time>2026-05-27T10:50:59Z</time>
      </trkpt>
      <trkpt lat="43.22029" lon="2.039">
        <ele>208</ele>
        <time>2026-05-27T10:51:04Z</time>
      </trkpt>
      <trkpt lat="43.22029" lon="2.039">
        <ele>208</ele>
        <time>2026-05-27T10:51:09Z</time>
      </trkpt>
      <trkpt lat="43.22029" lon="2.039">
        <ele>208</ele>
        <time>2026-05-27T10:51:14Z</time>
      </trkpt>
      <trkpt lat="43.22029" lon="2.039">
        <ele>208</ele>
        <time>2026-05-27T10:51:19Z</time>
      </trkpt>
      <trkpt lat="43.22029" lon="2.039">
        <ele>208</ele>
        <time>2026-05-27T10:51:24Z</time>
      </trkpt>
      <trkpt lat="43.22029" lon="2.039">
        <ele>208</ele>
        <time>2026-05-27T10:51:29Z</time>
      </trkpt>
      <trkpt lat="43.22029" lon="2.039">
        <ele>208</ele>
        <time>2026-05-27T10:51:34Z</time>
      </trkpt>
      <trkpt lat="43.22029" lon="2.039">
        <ele>208</ele>
        <time>2026-05-27T10:51:39Z</time>
      </trkpt>
      <trkpt lat="43.22029" lon="2.039">
        <ele>208</ele>
        <time>2026-05-27T10:51:44Z</time>
      </trkpt>
      <trkpt lat="43.22029" lon="2.039">
        <ele>208</ele>
        <time>2026-05-27T10:51:49Z</time>
      </trkpt>
      <trkpt lat="43.22029" lon="2.039">
        <ele>208</ele>
        <time>2026-05-27T10:51:54Z</time>
      </trkpt>
      <trkpt lat="43.22029" lon="2.039">
        <ele>208</ele>
        <time>2026-05-27T10:51:59Z</time>
      </trkpt>
      <trkpt lat="43.22029" lon="2.039">
        <ele>208</ele>
        <time>2026-05-27T10:52:04Z</time>
      </trkpt>
      <trkpt lat="43.22029" lon="2.039">
        <ele>208</ele>
        <time>2026-05-27T10:52:09Z</time>
      </trkpt>
      <trkpt lat="43.22029" lon="2.039">
        <ele>208</ele>
        <time>2026-05-27T10:52:14Z</time>
      </trkpt>
      <trkpt lat="43.22029" lon="2.039">
        <ele>208</ele>
        <time>2026-05-27T10:52:19Z</time>
      </trkpt>
      <trkpt lat="43.22029" lon="2.039">
        <ele>208</ele>
        <time>2026-05-27T10:52:24Z</time>
      </trkpt>
      <trkpt lat="43.22029" lon="2.039">
        <ele>208</ele>
        <time>2026-05-27T10:52:29Z</time>
      </trkpt>
      <trkpt lat="43.22029" lon="2.039">
        <ele>208</ele>
        <time>2026-05-27T10:52:34Z</time>
      </trkpt>
      <trkpt lat="43.22029" lon="2.039">
        <ele>208</ele>
        <time>2026-05-27T10:52:39Z</time>
      </trkpt>
      <trkpt lat="43.22029" lon="2.039">
        <ele>208</ele>
        <time>2026-05-27T10:52:44Z</time>
      </trkpt>
      <trkpt lat="43.22029" lon="2.039">
        <ele>208</ele>
        <time>2026-05-27T10:52:49Z</time>
      </trkpt>
      <trkpt lat="43.22029" lon="2.039">
        <ele>208</ele>
        <time>2026-05-27T10:52:54Z</time>
      </trkpt>
      <trkpt lat="43.22029" lon="2.039">
        <ele>208</ele>
        <time>2026-05-27T10:52:59Z</time>
      </trkpt>
      <trkpt lat="43.22029" lon="2.039">
        <ele>208</ele>
        <time>2026-05-27T10:53:04Z</time>
      </trkpt>
      <trkpt lat="43.22029" lon="2.039">
        <ele>208</ele>
        <time>2026-05-27T10:53:09Z</time>
      </trkpt>
      <trkpt lat="43.22029" lon="2.039">
        <ele>208</ele>
        <time>2026-05-27T10:53:14Z</time>
      </trkpt>
      <trkpt lat="43.22029" lon="2.039">
        <ele>208</ele>
        <time>2026-05-27T10:53:19Z</time>
      </trkpt>
      <trkpt lat="43.22029" lon="2.039">
        <ele>208</ele>
        <time>2026-05-27T10:53:24Z</time>
      </trkpt>
      <trkpt lat="43.22029" lon="2.039">
        <ele>208</ele>
        <time>2026-05-27T10:53:29Z</time>
      </trkpt>
      <trkpt lat="43.22029" lon="2.039">
        <ele>208</ele>
        <time>2026-05-27T10:53:34Z</time>
      </trkpt>
      <trkpt lat="43.22029" lon="2.039">
        <ele>208</ele>
        <time>2026-05-27T10:53:39Z</time>
      </trkpt>
      <trkpt lat="43.22029" lon="2.039">
        <ele>208</ele>
        <time>2026-05-27T10:53:44Z</time>
      </trkpt>
      <trkpt lat="43.22029" lon="2.039">
        <ele>208</ele>
        <time>2026-05-27T10:53:49Z</time>
      </trkpt>
      <trkpt lat="43.22029" lon="2.039">
        <ele>208</ele>
        <time>2026-05-27T10:53:54Z</time>
      </trkpt>
      <trkpt lat="43.22029" lon="2.039">
        <ele>208</ele>
        <time>2026-05-27T10:53:59Z</time>
      </trkpt>
      <trkpt lat="43.22029" lon="2.039">
        <ele>208</ele>
        <time>2026-05-27T10:54:04Z</time>
      </trkpt>
      <trkpt lat="43.22029" lon="2.039">
        <ele>208</ele>
        <time>2026-05-27T10:54:09Z</time>
      </trkpt>
      <trkpt lat="43.22029" lon="2.039">
        <ele>208</ele>
        <time>2026-05-27T10:54:14Z</time>
      </trkpt>
      <trkpt lat="43.22029" lon="2.039">
        <ele>208</ele>
        <time>2026-05-27T10:54:19Z</time>
      </trkpt>
      <trkpt lat="43.22029" lon="2.039">
        <ele>208</ele>
        <time>2026-05-27T10:54:24Z</time>
      </trkpt>
      <trkpt lat="43.22029" lon="2.039">
        <ele>208</ele>
        <time>2026-05-27T10:54:29Z</time>
      </trkpt>
      <trkpt lat="43.22029" lon="2.039">
        <ele>208</ele>
        <time>2026-05-27T10:54:34Z</time>
      </trkpt>
      <trkpt lat="43.22029" lon="2.039">
        <ele>208</ele>
        <time>2026-05-27T10:54:39Z</time>
      </trkpt>
      <trkpt lat="43.22029" lon="2.039">
        <ele>208</ele>
        <time>2026-05-27T10:54:44Z</time>
      </trkpt>
      <trkpt lat="43.22029" lon="2.039">
        <ele>208</ele>
        <time>2026-05-27T10:54:49Z</time>
      </trkpt>
      <trkpt lat="43.22029" lon="2.039">
        <ele>208</ele>
        <time>2026-05-27T10:54:54Z</time>
      </trkpt>
      <trkpt lat="43.22029" lon="2.039">
        <ele>208</ele>
        <time>2026-05-27T10:54:59Z</time>
      </trkpt>
      <trkpt lat="43.22029" lon="2.039">
        <ele>208</ele>
        <time>2026-05-27T10:55:04Z</time>
      </trkpt>
      <trkpt lat="43.22029" lon="2.039">
        <ele>208</ele>
        <time>2026-05-27T10:55:09Z</time>
      </trkpt>
      <trkpt lat="43.22029" lon="2.039">
        <ele>208</ele>
        <time>2026-05-27T10:55:14Z</time>
      </trkpt>
      <trkpt lat="43.22029" lon="2.039">
        <ele>208</ele>
        <time>2026-05-27T10:55:19Z</time>
      </trkpt>
      <trkpt lat="43.22029" lon="2.039">
        <ele>208</ele>
        <time>2026-05-27T10:55:24Z</time>
      </trkpt>
      <trkpt lat="43.22029" lon="2.039">
        <ele>208</ele>
        <time>2026-05-27T10:55:29Z</time>
      </trkpt>
      <trkpt lat="43.22029" lon="2.039">
        <ele>208</ele>
        <time>2026-05-27T10:55:34Z</time>
      </trkpt>
      <trkpt lat="43.22029" lon="2.039">
        <ele>208</ele>
        <time>2026-05-27T10:55:39Z</time>
      </trkpt>
      <trkpt lat="43.22029" lon="2.039">
        <ele>208</ele>
        <time>2026-05-27T10:55:44Z</time>
      </trkpt>
      <trkpt lat="43.22029" lon="2.039">
        <ele>208</ele>
        <time>2026-05-27T10:55:49Z</time>
      </trkpt>
      <trkpt lat="43.22029" lon="2.039">
        <ele>208</ele>
        <time>2026-05-27T10:55:54Z</time>
      </trkpt>
      <trkpt lat="43.22029" lon="2.039">
        <ele>208</ele>
        <time>2026-05-27T10:55:59Z</time>
      </trkpt>
      <trkpt lat="43.22021" lon="2.03915">
        <ele>207.9</ele>
        <time>2026-05-27T10:56:04Z</time>
      </trkpt>
      <trkpt lat="43.22022" lon="2.03918">
        <ele>208.2</ele>
        <time>2026-05-27T10:56:09Z</time>
      </trkpt>
      <trkpt lat="43.22022" lon="2.03918">
        <ele>208.2</ele>
        <time>2026-05-27T10:56:14Z</time>
      </trkpt>
      <trkpt lat="43.22022" lon="2.03918">
        <ele>208.2</ele>
        <time>2026-05-27T10:56:19Z</time>
      </trkpt>
      <trkpt lat="43.22022" lon="2.03918">
        <ele>208.2</ele>
        <time>2026-05-27T10:56:24Z</time>
      </trkpt>
      <trkpt lat="43.22022" lon="2.03918">
        <ele>208.2</ele>
        <time>2026-05-27T10:56:29Z</time>
      </trkpt>
      <trkpt lat="43.22022" lon="2.03918">
        <ele>208.2</ele>
        <time>2026-05-27T10:56:34Z</time>
      </trkpt>
      <trkpt lat="43.22022" lon="2.03918">
        <ele>208.2</ele>
        <time>2026-05-27T10:56:39Z</time>
      </trkpt>
      <trkpt lat="43.22022" lon="2.03918">
        <ele>208.2</ele>
        <time>2026-05-27T10:56:44Z</time>
      </trkpt>
      <trkpt lat="43.22022" lon="2.03918">
        <ele>208.2</ele>
        <time>2026-05-27T10:56:49Z</time>
      </trkpt>
      <trkpt lat="43.22022" lon="2.03918">
        <ele>208.2</ele>
        <time>2026-05-27T10:56:54Z</time>
      </trkpt>
      <trkpt lat="43.22022" lon="2.03918">
        <ele>208.2</ele>
        <time>2026-05-27T10:56:59Z</time>
      </trkpt>
      <trkpt lat="43.22022" lon="2.03918">
        <ele>208.2</ele>
        <time>2026-05-27T10:57:04Z</time>
      </trkpt>
      <trkpt lat="43.22022" lon="2.03918">
        <ele>208.2</ele>
        <time>2026-05-27T10:57:09Z</time>
      </trkpt>
      <trkpt lat="43.22022" lon="2.03918">
        <ele>208.2</ele>
        <time>2026-05-27T10:57:14Z</time>
      </trkpt>
      <trkpt lat="43.22022" lon="2.03918">
        <ele>208.2</ele>
        <time>2026-05-27T10:57:19Z</time>
      </trkpt>
      <trkpt lat="43.22022" lon="2.03918">
        <ele>208.2</ele>
        <time>2026-05-27T10:57:24Z</time>
      </trkpt>
      <trkpt lat="43.22022" lon="2.03918">
        <ele>208.2</ele>
        <time>2026-05-27T10:57:29Z</time>
      </trkpt>
      <trkpt lat="43.22022" lon="2.03918">
        <ele>208.2</ele>
        <time>2026-05-27T10:57:34Z</time>
      </trkpt>
      <trkpt lat="43.22022" lon="2.03918">
        <ele>208.2</ele>
        <time>2026-05-27T10:57:39Z</time>
      </trkpt>
      <trkpt lat="43.22022" lon="2.03918">
        <ele>208.2</ele>
        <time>2026-05-27T10:57:44Z</time>
      </trkpt>
      <trkpt lat="43.22022" lon="2.03918">
        <ele>208.2</ele>
        <time>2026-05-27T10:57:49Z</time>
      </trkpt>
      <trkpt lat="43.22022" lon="2.03918">
        <ele>208.2</ele>
        <time>2026-05-27T10:57:54Z</time>
      </trkpt>
      <trkpt lat="43.22022" lon="2.03918">
        <ele>208.2</ele>
        <time>2026-05-27T10:57:59Z</time>
      </trkpt>
      <trkpt lat="43.22022" lon="2.03918">
        <ele>208.2</ele>
        <time>2026-05-27T10:58:04Z</time>
      </trkpt>
      <trkpt lat="43.22022" lon="2.03918">
        <ele>208.2</ele>
        <time>2026-05-27T10:58:09Z</time>
      </trkpt>
      <trkpt lat="43.22022" lon="2.03918">
        <ele>208.2</ele>
        <time>2026-05-27T10:58:14Z</time>
      </trkpt>
      <trkpt lat="43.22022" lon="2.03918">
        <ele>208.2</ele>
        <time>2026-05-27T10:58:19Z</time>
      </trkpt>
      <trkpt lat="43.22022" lon="2.03918">
        <ele>208.2</ele>
        <time>2026-05-27T10:58:24Z</time>
      </trkpt>
      <trkpt lat="43.22022" lon="2.03918">
        <ele>208.2</ele>
        <time>2026-05-27T10:58:29Z</time>
      </trkpt>
      <trkpt lat="43.22022" lon="2.03918">
        <ele>208.2</ele>
        <time>2026-05-27T10:58:34Z</time>
      </trkpt>
      <trkpt lat="43.22022" lon="2.03918">
        <ele>208.2</ele>
        <time>2026-05-27T10:58:39Z</time>
      </trkpt>
      <trkpt lat="43.22022" lon="2.03918">
        <ele>208.2</ele>
        <time>2026-05-27T10:58:44Z</time>
      </trkpt>
      <trkpt lat="43.22022" lon="2.03918">
        <ele>208.2</ele>
        <time>2026-05-27T10:58:49Z</time>
      </trkpt>
      <trkpt lat="43.22022" lon="2.03918">
        <ele>208.2</ele>
        <time>2026-05-27T10:58:54Z</time>
      </trkpt>
      <trkpt lat="43.22022" lon="2.03918">
        <ele>208.2</ele>
        <time>2026-05-27T10:58:59Z</time>
      </trkpt>
      <trkpt lat="43.22022" lon="2.03918">
        <ele>208.2</ele>
        <time>2026-05-27T10:59:04Z</time>
      </trkpt>
      <trkpt lat="43.22022" lon="2.03918">
        <ele>208.2</ele>
        <time>2026-05-27T10:59:09Z</time>
      </trkpt>
      <trkpt lat="43.22022" lon="2.03918">
        <ele>208.2</ele>
        <time>2026-05-27T10:59:14Z</time>
      </trkpt>
      <trkpt lat="43.22022" lon="2.03918">
        <ele>208.2</ele>
        <time>2026-05-27T10:59:19Z</time>
      </trkpt>
      <trkpt lat="43.22022" lon="2.03918">
        <ele>208.2</ele>
        <time>2026-05-27T10:59:24Z</time>
      </trkpt>
      <trkpt lat="43.22022" lon="2.03918">
        <ele>208.2</ele>
        <time>2026-05-27T10:59:29Z</time>
      </trkpt>
      <trkpt lat="43.22022" lon="2.03918">
        <ele>208.2</ele>
        <time>2026-05-27T10:59:34Z</time>
      </trkpt>
      <trkpt lat="43.22022" lon="2.03918">
        <ele>208.2</ele>
        <time>2026-05-27T10:59:39Z</time>
      </trkpt>
      <trkpt lat="43.22022" lon="2.03918">
        <ele>208.2</ele>
        <time>2026-05-27T10:59:44Z</time>
      </trkpt>
      <trkpt lat="43.22022" lon="2.03918">
        <ele>208.2</ele>
        <time>2026-05-27T10:59:49Z</time>
      </trkpt>
      <trkpt lat="43.22022" lon="2.03918">
        <ele>208.2</ele>
        <time>2026-05-27T10:59:54Z</time>
      </trkpt>
      <trkpt lat="43.22022" lon="2.03918">
        <ele>208.2</ele>
        <time>2026-05-27T10:59:59Z</time>
      </trkpt>
      <trkpt lat="43.22022" lon="2.03918">
        <ele>208.2</ele>
        <time>2026-05-27T11:00:04Z</time>
      </trkpt>
      <trkpt lat="43.22022" lon="2.03918">
        <ele>208.2</ele>
        <time>2026-05-27T11:00:09Z</time>
      </trkpt>
      <trkpt lat="43.22022" lon="2.03918">
        <ele>208.2</ele>
        <time>2026-05-27T11:00:14Z</time>
      </trkpt>
      <trkpt lat="43.22022" lon="2.03918">
        <ele>208.2</ele>
        <time>2026-05-27T11:00:19Z</time>
      </trkpt>
      <trkpt lat="43.22022" lon="2.03918">
        <ele>208.2</ele>
        <time>2026-05-27T11:00:24Z</time>
      </trkpt>
      <trkpt lat="43.22022" lon="2.03918">
        <ele>208.2</ele>
        <time>2026-05-27T11:00:29Z</time>
      </trkpt>
      <trkpt lat="43.22022" lon="2.03918">
        <ele>208.2</ele>
        <time>2026-05-27T11:00:34Z</time>
      </trkpt>
      <trkpt lat="43.22022" lon="2.03918">
        <ele>208.2</ele>
        <time>2026-05-27T11:00:39Z</time>
      </trkpt>
      <trkpt lat="43.22022" lon="2.03918">
        <ele>208.2</ele>
        <time>2026-05-27T11:00:44Z</time>
      </trkpt>
      <trkpt lat="43.22022" lon="2.03918">
        <ele>208.2</ele>
        <time>2026-05-27T11:00:49Z</time>
      </trkpt>
      <trkpt lat="43.22022" lon="2.03918">
        <ele>208.2</ele>
        <time>2026-05-27T11:00:54Z</time>
      </trkpt>
      <trkpt lat="43.22022" lon="2.03918">
        <ele>208.2</ele>
        <time>2026-05-27T11:00:59Z</time>
      </trkpt>
      <trkpt lat="43.22022" lon="2.03918">
        <ele>208.2</ele>
        <time>2026-05-27T11:01:04Z</time>
      </trkpt>
      <trkpt lat="43.22022" lon="2.03918">
        <ele>208.2</ele>
        <time>2026-05-27T11:01:09Z</time>
      </trkpt>
      <trkpt lat="43.22022" lon="2.03918">
        <ele>208.2</ele>
        <time>2026-05-27T11:01:14Z</time>
      </trkpt>
      <trkpt lat="43.22022" lon="2.03918">
        <ele>208.2</ele>
        <time>2026-05-27T11:01:19Z</time>
      </trkpt>
      <trkpt lat="43.22022" lon="2.03918">
        <ele>208.2</ele>
        <time>2026-05-27T11:01:24Z</time>
      </trkpt>
      <trkpt lat="43.22022" lon="2.03918">
        <ele>208.2</ele>
        <time>2026-05-27T11:01:29Z</time>
      </trkpt>
      <trkpt lat="43.22022" lon="2.03918">
        <ele>208.2</ele>
        <time>2026-05-27T11:01:34Z</time>
      </trkpt>
      <trkpt lat="43.22022" lon="2.03918">
        <ele>208.2</ele>
        <time>2026-05-27T11:01:39Z</time>
      </trkpt>
      <trkpt lat="43.22022" lon="2.03918">
        <ele>208.2</ele>
        <time>2026-05-27T11:01:44Z</time>
      </trkpt>
      <trkpt lat="43.22022" lon="2.03918">
        <ele>208.2</ele>
        <time>2026-05-27T11:01:49Z</time>
      </trkpt>
      <trkpt lat="43.22022" lon="2.03918">
        <ele>208.2</ele>
        <time>2026-05-27T11:01:54Z</time>
      </trkpt>
      <trkpt lat="43.22022" lon="2.03918">
        <ele>208.2</ele>
        <time>2026-05-27T11:01:59Z</time>
      </trkpt>
      <trkpt lat="43.22022" lon="2.03918">
        <ele>208.2</ele>
        <time>2026-05-27T11:02:04Z</time>
      </trkpt>
      <trkpt lat="43.22022" lon="2.03918">
        <ele>208.2</ele>
        <time>2026-05-27T11:02:09Z</time>
      </trkpt>
      <trkpt lat="43.22022" lon="2.03918">
        <ele>208.2</ele>
        <time>2026-05-27T11:02:14Z</time>
      </trkpt>
      <trkpt lat="43.22022" lon="2.03918">
        <ele>208.2</ele>
        <time>2026-05-27T11:02:19Z</time>
      </trkpt>
      <trkpt lat="43.22022" lon="2.03918">
        <ele>208.2</ele>
        <time>2026-05-27T11:02:24Z</time>
      </trkpt>
      <trkpt lat="43.22022" lon="2.03918">
        <ele>208.2</ele>
        <time>2026-05-27T11:02:29Z</time>
      </trkpt>
      <trkpt lat="43.22022" lon="2.03918">
        <ele>208.2</ele>
        <time>2026-05-27T11:02:34Z</time>
      </trkpt>
      <trkpt lat="43.22022" lon="2.03918">
        <ele>208.2</ele>
        <time>2026-05-27T11:02:39Z</time>
      </trkpt>
      <trkpt lat="43.22022" lon="2.03918">
        <ele>208.2</ele>
        <time>2026-05-27T11:02:44Z</time>
      </trkpt>
      <trkpt lat="43.22022" lon="2.03918">
        <ele>208.2</ele>
        <time>2026-05-27T11:02:49Z</time>
      </trkpt>
      <trkpt lat="43.22022" lon="2.03918">
        <ele>208.2</ele>
        <time>2026-05-27T11:02:54Z</time>
      </trkpt>
      <trkpt lat="43.22022" lon="2.03918">
        <ele>208.2</ele>
        <time>2026-05-27T11:02:59Z</time>
      </trkpt>
      <trkpt lat="43.22022" lon="2.03918">
        <ele>208.2</ele>
        <time>2026-05-27T11:03:04Z</time>
      </trkpt>
      <trkpt lat="43.22022" lon="2.03918">
        <ele>208.2</ele>
        <time>2026-05-27T11:03:09Z</time>
      </trkpt>
      <trkpt lat="43.22022" lon="2.03918">
        <ele>208.2</ele>
        <time>2026-05-27T11:03:14Z</time>
      </trkpt>
      <trkpt lat="43.22022" lon="2.03918">
        <ele>208.2</ele>
        <time>2026-05-27T11:03:19Z</time>
      </trkpt>
      <trkpt lat="43.22022" lon="2.03918">
        <ele>208.2</ele>
        <time>2026-05-27T11:03:24Z</time>
      </trkpt>
      <trkpt lat="43.22022" lon="2.03918">
        <ele>208.2</ele>
        <time>2026-05-27T11:03:29Z</time>
      </trkpt>
      <trkpt lat="43.22022" lon="2.03918">
        <ele>208.2</ele>
        <time>2026-05-27T11:03:34Z</time>
      </trkpt>
      <trkpt lat="43.22022" lon="2.03918">
        <ele>208.2</ele>
        <time>2026-05-27T11:03:39Z</time>
      </trkpt>
      <trkpt lat="43.22022" lon="2.03918">
        <ele>208.2</ele>
        <time>2026-05-27T11:03:44Z</time>
      </trkpt>
      <trkpt lat="43.22022" lon="2.03918">
        <ele>208.2</ele>
        <time>2026-05-27T11:03:49Z</time>
      </trkpt>
      <trkpt lat="43.22022" lon="2.03918">
        <ele>208.2</ele>
        <time>2026-05-27T11:03:54Z</time>
      </trkpt>
      <trkpt lat="43.22022" lon="2.03918">
        <ele>208.2</ele>
        <time>2026-05-27T11:03:59Z</time>
      </trkpt>
      <trkpt lat="43.22022" lon="2.03918">
        <ele>208.2</ele>
        <time>2026-05-27T11:04:04Z</time>
      </trkpt>
      <trkpt lat="43.22022" lon="2.03918">
        <ele>208.2</ele>
        <time>2026-05-27T11:04:09Z</time>
      </trkpt>
      <trkpt lat="43.22022" lon="2.03918">
        <ele>208.2</ele>
        <time>2026-05-27T11:04:14Z</time>
      </trkpt>
      <trkpt lat="43.22022" lon="2.03918">
        <ele>208.2</ele>
        <time>2026-05-27T11:04:19Z</time>
      </trkpt>
      <trkpt lat="43.22022" lon="2.03918">
        <ele>208.2</ele>
        <time>2026-05-27T11:04:24Z</time>
      </trkpt>
      <trkpt lat="43.22022" lon="2.03918">
        <ele>208.2</ele>
        <time>2026-05-27T11:04:29Z</time>
      </trkpt>
      <trkpt lat="43.22022" lon="2.03918">
        <ele>208.2</ele>
        <time>2026-05-27T11:04:34Z</time>
      </trkpt>
      <trkpt lat="43.22022" lon="2.03918">
        <ele>208.2</ele>
        <time>2026-05-27T11:04:39Z</time>
      </trkpt>
      <trkpt lat="43.22022" lon="2.03918">
        <ele>208.2</ele>
        <time>2026-05-27T11:04:44Z</time>
      </trkpt>
      <trkpt lat="43.22022" lon="2.03918">
        <ele>208.2</ele>
        <time>2026-05-27T11:04:49Z</time>
      </trkpt>
      <trkpt lat="43.22022" lon="2.03918">
        <ele>208.2</ele>
        <time>2026-05-27T11:04:54Z</time>
      </trkpt>
      <trkpt lat="43.22022" lon="2.03918">
        <ele>208.2</ele>
        <time>2026-05-27T11:04:59Z</time>
      </trkpt>
      <trkpt lat="43.22022" lon="2.03918">
        <ele>208.2</ele>
        <time>2026-05-27T11:05:04Z</time>
      </trkpt>
      <trkpt lat="43.22022" lon="2.03918">
        <ele>208.2</ele>
        <time>2026-05-27T11:05:09Z</time>
      </trkpt>
      <trkpt lat="43.22022" lon="2.03918">
        <ele>208.2</ele>
        <time>2026-05-27T11:05:14Z</time>
      </trkpt>
      <trkpt lat="43.22022" lon="2.03918">
        <ele>208.2</ele>
        <time>2026-05-27T11:05:19Z</time>
      </trkpt>
      <trkpt lat="43.22022" lon="2.03918">
        <ele>208.2</ele>
        <time>2026-05-27T11:05:24Z</time>
      </trkpt>
      <trkpt lat="43.22022" lon="2.03918">
        <ele>208.2</ele>
        <time>2026-05-27T11:05:29Z</time>
      </trkpt>
      <trkpt lat="43.22022" lon="2.03918">
        <ele>208.2</ele>
        <time>2026-05-27T11:05:34Z</time>
      </trkpt>
      <trkpt lat="43.22022" lon="2.03918">
        <ele>208.2</ele>
        <time>2026-05-27T11:05:39Z</time>
      </trkpt>
      <trkpt lat="43.22022" lon="2.03918">
        <ele>208.2</ele>
        <time>2026-05-27T11:05:44Z</time>
      </trkpt>
      <trkpt lat="43.22022" lon="2.03918">
        <ele>208.2</ele>
        <time>2026-05-27T11:05:49Z</time>
      </trkpt>
      <trkpt lat="43.22022" lon="2.03918">
        <ele>208.2</ele>
        <time>2026-05-27T11:05:54Z</time>
      </trkpt>
      <trkpt lat="43.22022" lon="2.03918">
        <ele>208.2</ele>
        <time>2026-05-27T11:05:59Z</time>
      </trkpt>
      <trkpt lat="43.22022" lon="2.03918">
        <ele>208.2</ele>
        <time>2026-05-27T11:06:04Z</time>
      </trkpt>
      <trkpt lat="43.22022" lon="2.03918">
        <ele>208.2</ele>
        <time>2026-05-27T11:06:09Z</time>
      </trkpt>
      <trkpt lat="43.22022" lon="2.03918">
        <ele>208.2</ele>
        <time>2026-05-27T11:06:14Z</time>
      </trkpt>
      <trkpt lat="43.22022" lon="2.03918">
        <ele>208.2</ele>
        <time>2026-05-27T11:06:19Z</time>
      </trkpt>
      <trkpt lat="43.22022" lon="2.03918">
        <ele>208.2</ele>
        <time>2026-05-27T11:06:24Z</time>
      </trkpt>
      <trkpt lat="43.22022" lon="2.03918">
        <ele>208.2</ele>
        <time>2026-05-27T11:06:29Z</time>
      </trkpt>
      <trkpt lat="43.22022" lon="2.03918">
        <ele>208.2</ele>
        <time>2026-05-27T11:06:34Z</time>
      </trkpt>
      <trkpt lat="43.22022" lon="2.03918">
        <ele>208.2</ele>
        <time>2026-05-27T11:06:39Z</time>
      </trkpt>
      <trkpt lat="43.22022" lon="2.03918">
        <ele>208.2</ele>
        <time>2026-05-27T11:06:44Z</time>
      </trkpt>
      <trkpt lat="43.22022" lon="2.03918">
        <ele>208.2</ele>
        <time>2026-05-27T11:06:49Z</time>
      </trkpt>
      <trkpt lat="43.22022" lon="2.03918">
        <ele>208.2</ele>
        <time>2026-05-27T11:06:54Z</time>
      </trkpt>
      <trkpt lat="43.22022" lon="2.03918">
        <ele>208.2</ele>
        <time>2026-05-27T11:06:59Z</time>
      </trkpt>
      <trkpt lat="43.22022" lon="2.03918">
        <ele>208.2</ele>
        <time>2026-05-27T11:07:04Z</time>
      </trkpt>
      <trkpt lat="43.22022" lon="2.03918">
        <ele>208.2</ele>
        <time>2026-05-27T11:07:09Z</time>
      </trkpt>
      <trkpt lat="43.22022" lon="2.03918">
        <ele>208.2</ele>
        <time>2026-05-27T11:07:14Z</time>
      </trkpt>
      <trkpt lat="43.22022" lon="2.03918">
        <ele>208.2</ele>
        <time>2026-05-27T11:07:19Z</time>
      </trkpt>
      <trkpt lat="43.22022" lon="2.03918">
        <ele>208.2</ele>
        <time>2026-05-27T11:07:24Z</time>
      </trkpt>
      <trkpt lat="43.22022" lon="2.03918">
        <ele>208.2</ele>
        <time>2026-05-27T11:07:29Z</time>
      </trkpt>
      <trkpt lat="43.22022" lon="2.03918">
        <ele>208.2</ele>
        <time>2026-05-27T11:07:34Z</time>
      </trkpt>
      <trkpt lat="43.22022" lon="2.03918">
        <ele>208.2</ele>
        <time>2026-05-27T11:07:39Z</time>
      </trkpt>
      <trkpt lat="43.22022" lon="2.03918">
        <ele>208.2</ele>
        <time>2026-05-27T11:07:44Z</time>
      </trkpt>
      <trkpt lat="43.22022" lon="2.03918">
        <ele>208.2</ele>
        <time>2026-05-27T11:07:49Z</time>
      </trkpt>
      <trkpt lat="43.22022" lon="2.03918">
        <ele>208.2</ele>
        <time>2026-05-27T11:07:54Z</time>
      </trkpt>
      <trkpt lat="43.22022" lon="2.03918">
        <ele>208.2</ele>
        <time>2026-05-27T11:07:59Z</time>
      </trkpt>
      <trkpt lat="43.22022" lon="2.03918">
        <ele>208.2</ele>
        <time>2026-05-27T11:08:04Z</time>
      </trkpt>
      <trkpt lat="43.22022" lon="2.03918">
        <ele>208.2</ele>
        <time>2026-05-27T11:08:09Z</time>
      </trkpt>
      <trkpt lat="43.22022" lon="2.03918">
        <ele>208.2</ele>
        <time>2026-05-27T11:08:14Z</time>
      </trkpt>
      <trkpt lat="43.22022" lon="2.03918">
        <ele>208.2</ele>
        <time>2026-05-27T11:08:19Z</time>
      </trkpt>
      <trkpt lat="43.22022" lon="2.03918">
        <ele>208.2</ele>
        <time>2026-05-27T11:08:24Z</time>
      </trkpt>
      <trkpt lat="43.22022" lon="2.03918">
        <ele>208.2</ele>
        <time>2026-05-27T11:08:29Z</time>
      </trkpt>
      <trkpt lat="43.22022" lon="2.03918">
        <ele>208.2</ele>
        <time>2026-05-27T11:08:34Z</time>
      </trkpt>
      <trkpt lat="43.22022" lon="2.03918">
        <ele>208.2</ele>
        <time>2026-05-27T11:08:39Z</time>
      </trkpt>
      <trkpt lat="43.22022" lon="2.03918">
        <ele>208.2</ele>
        <time>2026-05-27T11:08:44Z</time>
      </trkpt>
      <trkpt lat="43.22022" lon="2.03918">
        <ele>208.2</ele>
        <time>2026-05-27T11:08:49Z</time>
      </trkpt>
      <trkpt lat="43.22022" lon="2.03918">
        <ele>208.2</ele>
        <time>2026-05-27T11:08:54Z</time>
      </trkpt>
      <trkpt lat="43.22022" lon="2.03918">
        <ele>208.2</ele>
        <time>2026-05-27T11:08:59Z</time>
      </trkpt>
      <trkpt lat="43.22022" lon="2.03918">
        <ele>208.2</ele>
        <time>2026-05-27T11:09:04Z</time>
      </trkpt>
      <trkpt lat="43.22022" lon="2.03918">
        <ele>208.2</ele>
        <time>2026-05-27T11:09:09Z</time>
      </trkpt>
      <trkpt lat="43.22022" lon="2.03918">
        <ele>208.2</ele>
        <time>2026-05-27T11:09:14Z</time>
      </trkpt>
      <trkpt lat="43.22022" lon="2.03918">
        <ele>208.2</ele>
        <time>2026-05-27T11:09:19Z</time>
      </trkpt>
      <trkpt lat="43.22022" lon="2.03918">
        <ele>208.2</ele>
        <time>2026-05-27T11:09:24Z</time>
      </trkpt>
      <trkpt lat="43.22022" lon="2.03918">
        <ele>208.2</ele>
        <time>2026-05-27T11:09:29Z</time>
      </trkpt>
      <trkpt lat="43.22022" lon="2.03918">
        <ele>208.2</ele>
        <time>2026-05-27T11:09:34Z</time>
      </trkpt>
      <trkpt lat="43.22022" lon="2.03918">
        <ele>208.2</ele>
        <time>2026-05-27T11:09:39Z</time>
      </trkpt>
      <trkpt lat="43.22022" lon="2.03918">
        <ele>208.2</ele>
        <time>2026-05-27T11:09:44Z</time>
      </trkpt>
      <trkpt lat="43.22022" lon="2.03918">
        <ele>208.2</ele>
        <time>2026-05-27T11:09:49Z</time>
      </trkpt>
      <trkpt lat="43.22022" lon="2.03918">
        <ele>208.2</ele>
        <time>2026-05-27T11:09:54Z</time>
      </trkpt>
      <trkpt lat="43.22022" lon="2.03918">
        <ele>208.2</ele>
        <time>2026-05-27T11:09:59Z</time>
      </trkpt>
      <trkpt lat="43.22022" lon="2.03918">
        <ele>208.2</ele>
        <time>2026-05-27T11:10:04Z</time>
      </trkpt>
      <trkpt lat="43.22022" lon="2.03918">
        <ele>208.2</ele>
        <time>2026-05-27T11:10:09Z</time>
      </trkpt>
      <trkpt lat="43.22022" lon="2.03918">
        <ele>208.2</ele>
        <time>2026-05-27T11:10:14Z</time>
      </trkpt>
      <trkpt lat="43.22022" lon="2.03918">
        <ele>208.2</ele>
        <time>2026-05-27T11:10:19Z</time>
      </trkpt>
      <trkpt lat="43.22022" lon="2.03918">
        <ele>208.2</ele>
        <time>2026-05-27T11:10:24Z</time>
      </trkpt>
      <trkpt lat="43.22022" lon="2.03918">
        <ele>208.2</ele>
        <time>2026-05-27T11:10:29Z</time>
      </trkpt>
      <trkpt lat="43.22022" lon="2.03918">
        <ele>208.2</ele>
        <time>2026-05-27T11:10:34Z</time>
      </trkpt>
      <trkpt lat="43.22022" lon="2.03918">
        <ele>208.2</ele>
        <time>2026-05-27T11:10:39Z</time>
      </trkpt>
      <trkpt lat="43.22022" lon="2.03918">
        <ele>208.2</ele>
        <time>2026-05-27T11:10:44Z</time>
      </trkpt>
      <trkpt lat="43.22022" lon="2.03918">
        <ele>208.2</ele>
        <time>2026-05-27T11:10:49Z</time>
      </trkpt>
      <trkpt lat="43.22022" lon="2.03918">
        <ele>208.2</ele>
        <time>2026-05-27T11:10:54Z</time>
      </trkpt>
      <trkpt lat="43.22022" lon="2.03918">
        <ele>208.2</ele>
        <time>2026-05-27T11:10:59Z</time>
      </trkpt>
      <trkpt lat="43.22022" lon="2.03918">
        <ele>208.2</ele>
        <time>2026-05-27T11:11:04Z</time>
      </trkpt>
      <trkpt lat="43.22022" lon="2.03918">
        <ele>208.2</ele>
        <time>2026-05-27T11:11:09Z</time>
      </trkpt>
      <trkpt lat="43.22022" lon="2.03918">
        <ele>208.2</ele>
        <time>2026-05-27T11:11:14Z</time>
      </trkpt>
      <trkpt lat="43.22022" lon="2.03918">
        <ele>208.2</ele>
        <time>2026-05-27T11:11:19Z</time>
      </trkpt>
      <trkpt lat="43.22022" lon="2.03918">
        <ele>208.2</ele>
        <time>2026-05-27T11:11:24Z</time>
      </trkpt>
      <trkpt lat="43.22022" lon="2.03918">
        <ele>208.2</ele>
        <time>2026-05-27T11:11:29Z</time>
      </trkpt>
      <trkpt lat="43.22022" lon="2.03918">
        <ele>208.2</ele>
        <time>2026-05-27T11:11:34Z</time>
      </trkpt>
      <trkpt lat="43.22022" lon="2.03918">
        <ele>208.2</ele>
        <time>2026-05-27T11:11:39Z</time>
      </trkpt>
      <trkpt lat="43.22022" lon="2.03918">
        <ele>208.2</ele>
        <time>2026-05-27T11:11:44Z</time>
      </trkpt>
      <trkpt lat="43.22022" lon="2.03918">
        <ele>208.2</ele>
        <time>2026-05-27T11:11:49Z</time>
      </trkpt>
      <trkpt lat="43.22019" lon="2.03921">
        <ele>208.1</ele>
        <time>2026-05-27T11:11:54Z</time>
      </trkpt>
      <trkpt lat="43.22016" lon="2.03925">
        <ele>208</ele>
        <time>2026-05-27T11:11:59Z</time>
      </trkpt>
      <trkpt lat="43.22013" lon="2.0393">
        <ele>207.9</ele>
        <time>2026-05-27T11:12:04Z</time>
      </trkpt>
      <trkpt lat="43.2201" lon="2.03935">
        <ele>207.9</ele>
        <time>2026-05-27T11:12:09Z</time>
      </trkpt>
      <trkpt lat="43.22005" lon="2.03942">
        <ele>207.7</ele>
        <time>2026-05-27T11:12:14Z</time>
      </trkpt>
      <trkpt lat="43.22002" lon="2.03949">
        <ele>207.8</ele>
        <time>2026-05-27T11:12:19Z</time>
      </trkpt>
      <trkpt lat="43.21999" lon="2.03954">
        <ele>207.7</ele>
        <time>2026-05-27T11:12:24Z</time>
      </trkpt>
      <trkpt lat="43.21996" lon="2.03961">
        <ele>207.6</ele>
        <time>2026-05-27T11:12:29Z</time>
      </trkpt>
      <trkpt lat="43.21994" lon="2.03963">
        <ele>207.5</ele>
        <time>2026-05-27T11:12:34Z</time>
      </trkpt>
      <trkpt lat="43.21992" lon="2.03969">
        <ele>207.5</ele>
        <time>2026-05-27T11:12:39Z</time>
      </trkpt>
      <trkpt lat="43.21991" lon="2.03973">
        <ele>207.6</ele>
        <time>2026-05-27T11:12:44Z</time>
      </trkpt>
      <trkpt lat="43.21988" lon="2.03979">
        <ele>207.5</ele>
        <time>2026-05-27T11:12:49Z</time>
      </trkpt>
      <trkpt lat="43.21986" lon="2.03987">
        <ele>207.6</ele>
        <time>2026-05-27T11:12:54Z</time>
      </trkpt>
      <trkpt lat="43.21983" lon="2.03993">
        <ele>207.5</ele>
        <time>2026-05-27T11:12:59Z</time>
      </trkpt>
      <trkpt lat="43.2198" lon="2.04001">
        <ele>207.4</ele>
        <time>2026-05-27T11:13:04Z</time>
      </trkpt>
      <trkpt lat="43.21976" lon="2.04009">
        <ele>207.2</ele>
        <time>2026-05-27T11:13:09Z</time>
      </trkpt>
      <trkpt lat="43.21973" lon="2.04017">
        <ele>207.1</ele>
        <time>2026-05-27T11:13:14Z</time>
      </trkpt>
      <trkpt lat="43.21969" lon="2.04024">
        <ele>206.9</ele>
        <time>2026-05-27T11:13:19Z</time>
      </trkpt>
      <trkpt lat="43.21965" lon="2.04029">
        <ele>206.6</ele>
        <time>2026-05-27T11:13:24Z</time>
      </trkpt>
      <trkpt lat="43.21962" lon="2.04035">
        <ele>206.4</ele>
        <time>2026-05-27T11:13:29Z</time>
      </trkpt>
      <trkpt lat="43.2196" lon="2.04042">
        <ele>206.5</ele>
        <time>2026-05-27T11:13:34Z</time>
      </trkpt>
      <trkpt lat="43.21956" lon="2.04048">
        <ele>206.2</ele>
        <time>2026-05-27T11:13:39Z</time>
      </trkpt>
      <trkpt lat="43.21952" lon="2.04053">
        <ele>205.9</ele>
        <time>2026-05-27T11:13:44Z</time>
      </trkpt>
      <trkpt lat="43.21948" lon="2.04061">
        <ele>205.8</ele>
        <time>2026-05-27T11:13:49Z</time>
      </trkpt>
      <trkpt lat="43.21945" lon="2.04068">
        <ele>205.7</ele>
        <time>2026-05-27T11:13:54Z</time>
      </trkpt>
      <trkpt lat="43.21943" lon="2.04075">
        <ele>205.8</ele>
        <time>2026-05-27T11:13:59Z</time>
      </trkpt>
      <trkpt lat="43.21941" lon="2.04082">
        <ele>205.9</ele>
        <time>2026-05-27T11:14:04Z</time>
      </trkpt>
      <trkpt lat="43.21939" lon="2.04087">
        <ele>205.9</ele>
        <time>2026-05-27T11:14:09Z</time>
      </trkpt>
      <trkpt lat="43.21937" lon="2.04093">
        <ele>206</ele>
        <time>2026-05-27T11:14:14Z</time>
      </trkpt>
      <trkpt lat="43.21939" lon="2.04102">
        <ele>206.8</ele>
        <time>2026-05-27T11:14:19Z</time>
      </trkpt>
      <trkpt lat="43.21942" lon="2.04108">
        <ele>207.5</ele>
        <time>2026-05-27T11:14:24Z</time>
      </trkpt>
      <trkpt lat="43.21947" lon="2.04113">
        <ele>208.4</ele>
        <time>2026-05-27T11:14:29Z</time>
      </trkpt>
      <trkpt lat="43.21949" lon="2.04115">
        <ele>208.8</ele>
        <time>2026-05-27T11:14:34Z</time>
      </trkpt>
      <trkpt lat="43.21948" lon="2.04116">
        <ele>208.7</ele>
        <time>2026-05-27T11:14:39Z</time>
      </trkpt>
      <trkpt lat="43.21948" lon="2.04116">
        <ele>208.7</ele>
        <time>2026-05-27T11:14:44Z</time>
      </trkpt>
      <trkpt lat="43.21948" lon="2.04116">
        <ele>208.7</ele>
        <time>2026-05-27T11:14:49Z</time>
      </trkpt>
      <trkpt lat="43.21948" lon="2.04116">
        <ele>208.7</ele>
        <time>2026-05-27T11:14:54Z</time>
      </trkpt>
      <trkpt lat="43.21948" lon="2.04116">
        <ele>208.7</ele>
        <time>2026-05-27T11:14:59Z</time>
      </trkpt>
      <trkpt lat="43.21948" lon="2.04116">
        <ele>208.7</ele>
        <time>2026-05-27T11:15:04Z</time>
      </trkpt>
      <trkpt lat="43.21948" lon="2.04116">
        <ele>208.7</ele>
        <time>2026-05-27T11:15:09Z</time>
      </trkpt>
      <trkpt lat="43.21948" lon="2.04116">
        <ele>208.7</ele>
        <time>2026-05-27T11:15:14Z</time>
      </trkpt>
      <trkpt lat="43.21948" lon="2.04116">
        <ele>208.7</ele>
        <time>2026-05-27T11:15:19Z</time>
      </trkpt>
      <trkpt lat="43.21948" lon="2.04116">
        <ele>208.7</ele>
        <time>2026-05-27T11:15:24Z</time>
      </trkpt>
      <trkpt lat="43.21948" lon="2.04116">
        <ele>208.7</ele>
        <time>2026-05-27T11:15:29Z</time>
      </trkpt>
      <trkpt lat="43.21938" lon="2.0412">
        <ele>207.8</ele>
        <time>2026-05-27T11:15:34Z</time>
      </trkpt>
      <trkpt lat="43.21935" lon="2.04118">
        <ele>207.3</ele>
        <time>2026-05-27T11:15:39Z</time>
      </trkpt>
      <trkpt lat="43.21932" lon="2.04116">
        <ele>206.8</ele>
        <time>2026-05-27T11:15:44Z</time>
      </trkpt>
      <trkpt lat="43.21928" lon="2.04121">
        <ele>206.6</ele>
        <time>2026-05-27T11:15:49Z</time>
      </trkpt>
      <trkpt lat="43.21923" lon="2.04122">
        <ele>206.1</ele>
        <time>2026-05-27T11:15:54Z</time>
      </trkpt>
      <trkpt lat="43.21918" lon="2.04119">
        <ele>205.3</ele>
        <time>2026-05-27T11:15:59Z</time>
      </trkpt>
      <trkpt lat="43.21915" lon="2.04112">
        <ele>204.6</ele>
        <time>2026-05-27T11:16:04Z</time>
      </trkpt>
      <trkpt lat="43.21911" lon="2.0411">
        <ele>204.1</ele>
        <time>2026-05-27T11:16:09Z</time>
      </trkpt>
      <trkpt lat="43.21908" lon="2.04106">
        <ele>203.7</ele>
        <time>2026-05-27T11:16:14Z</time>
      </trkpt>
      <trkpt lat="43.21906" lon="2.04101">
        <ele>203.2</ele>
        <time>2026-05-27T11:16:19Z</time>
      </trkpt>
      <trkpt lat="43.21902" lon="2.04095">
        <ele>202.6</ele>
        <time>2026-05-27T11:16:24Z</time>
      </trkpt>
      <trkpt lat="43.21898" lon="2.04089">
        <ele>202</ele>
        <time>2026-05-27T11:16:29Z</time>
      </trkpt>
      <trkpt lat="43.21894" lon="2.04082">
        <ele>201.3</ele>
        <time>2026-05-27T11:16:34Z</time>
      </trkpt>
      <trkpt lat="43.21891" lon="2.04074">
        <ele>200.7</ele>
        <time>2026-05-27T11:16:39Z</time>
      </trkpt>
      <trkpt lat="43.21889" lon="2.04067">
        <ele>200.3</ele>
        <time>2026-05-27T11:16:44Z</time>
      </trkpt>
      <trkpt lat="43.21885" lon="2.04061">
        <ele>199.7</ele>
        <time>2026-05-27T11:16:49Z</time>
      </trkpt>
      <trkpt lat="43.2188" lon="2.04054">
        <ele>199.1</ele>
        <time>2026-05-27T11:16:54Z</time>
      </trkpt>
      <trkpt lat="43.21875" lon="2.0405">
        <ele>198.6</ele>
        <time>2026-05-27T11:16:59Z</time>
      </trkpt>
      <trkpt lat="43.21871" lon="2.04045">
        <ele>198.1</ele>
        <time>2026-05-27T11:17:04Z</time>
      </trkpt>
      <trkpt lat="43.21863" lon="2.04039">
        <ele>197.4</ele>
        <time>2026-05-27T11:17:09Z</time>
      </trkpt>
      <trkpt lat="43.21858" lon="2.04034">
        <ele>196.8</ele>
        <time>2026-05-27T11:17:14Z</time>
      </trkpt>
      <trkpt lat="43.21853" lon="2.04029">
        <ele>196.3</ele>
        <time>2026-05-27T11:17:19Z</time>
      </trkpt>
      <trkpt lat="43.21848" lon="2.04024">
        <ele>195.8</ele>
        <time>2026-05-27T11:17:24Z</time>
      </trkpt>
      <trkpt lat="43.21844" lon="2.0402">
        <ele>195.4</ele>
        <time>2026-05-27T11:17:29Z</time>
      </trkpt>
      <trkpt lat="43.21839" lon="2.04015">
        <ele>194.9</ele>
        <time>2026-05-27T11:17:34Z</time>
      </trkpt>
      <trkpt lat="43.21836" lon="2.04012">
        <ele>194.6</ele>
        <time>2026-05-27T11:17:39Z</time>
      </trkpt>
      <trkpt lat="43.21836" lon="2.04012">
        <ele>194.6</ele>
        <time>2026-05-27T11:17:44Z</time>
      </trkpt>
      <trkpt lat="43.21836" lon="2.04013">
        <ele>194.6</ele>
        <time>2026-05-27T11:17:49Z</time>
      </trkpt>
      <trkpt lat="43.21836" lon="2.04013">
        <ele>194.6</ele>
        <time>2026-05-27T11:17:54Z</time>
      </trkpt>
      <trkpt lat="43.21836" lon="2.04013">
        <ele>194.6</ele>
        <time>2026-05-27T11:17:59Z</time>
      </trkpt>
      <trkpt lat="43.21836" lon="2.04013">
        <ele>194.6</ele>
        <time>2026-05-27T11:18:04Z</time>
      </trkpt>
      <trkpt lat="43.21836" lon="2.04013">
        <ele>194.6</ele>
        <time>2026-05-27T11:18:09Z</time>
      </trkpt>
      <trkpt lat="43.21836" lon="2.04013">
        <ele>194.6</ele>
        <time>2026-05-27T11:18:14Z</time>
      </trkpt>
      <trkpt lat="43.21836" lon="2.04013">
        <ele>194.6</ele>
        <time>2026-05-27T11:18:19Z</time>
      </trkpt>
      <trkpt lat="43.21836" lon="2.04013">
        <ele>194.6</ele>
        <time>2026-05-27T11:18:24Z</time>
      </trkpt>
      <trkpt lat="43.21836" lon="2.04013">
        <ele>194.6</ele>
        <time>2026-05-27T11:18:29Z</time>
      </trkpt>
      <trkpt lat="43.21836" lon="2.04013">
        <ele>194.6</ele>
        <time>2026-05-27T11:18:34Z</time>
      </trkpt>
      <trkpt lat="43.21836" lon="2.04013">
        <ele>194.6</ele>
        <time>2026-05-27T11:18:39Z</time>
      </trkpt>
      <trkpt lat="43.21836" lon="2.04013">
        <ele>194.6</ele>
        <time>2026-05-27T11:18:44Z</time>
      </trkpt>
      <trkpt lat="43.21836" lon="2.04013">
        <ele>194.6</ele>
        <time>2026-05-27T11:18:49Z</time>
      </trkpt>
      <trkpt lat="43.21836" lon="2.04013">
        <ele>194.6</ele>
        <time>2026-05-27T11:18:54Z</time>
      </trkpt>
      <trkpt lat="43.21836" lon="2.04013">
        <ele>194.6</ele>
        <time>2026-05-27T11:18:59Z</time>
      </trkpt>
      <trkpt lat="43.21836" lon="2.04013">
        <ele>194.6</ele>
        <time>2026-05-27T11:19:04Z</time>
      </trkpt>
      <trkpt lat="43.21836" lon="2.04013">
        <ele>194.6</ele>
        <time>2026-05-27T11:19:09Z</time>
      </trkpt>
      <trkpt lat="43.21836" lon="2.04013">
        <ele>194.6</ele>
        <time>2026-05-27T11:19:14Z</time>
      </trkpt>
      <trkpt lat="43.21836" lon="2.04013">
        <ele>194.6</ele>
        <time>2026-05-27T11:19:19Z</time>
      </trkpt>
      <trkpt lat="43.21836" lon="2.04013">
        <ele>194.6</ele>
        <time>2026-05-27T11:19:24Z</time>
      </trkpt>
      <trkpt lat="43.21836" lon="2.04013">
        <ele>194.6</ele>
        <time>2026-05-27T11:19:29Z</time>
      </trkpt>
      <trkpt lat="43.21836" lon="2.04013">
        <ele>194.6</ele>
        <time>2026-05-27T11:19:34Z</time>
      </trkpt>
      <trkpt lat="43.21836" lon="2.04013">
        <ele>194.6</ele>
        <time>2026-05-27T11:19:39Z</time>
      </trkpt>
      <trkpt lat="43.21836" lon="2.04013">
        <ele>194.6</ele>
        <time>2026-05-27T11:19:44Z</time>
      </trkpt>
      <trkpt lat="43.21836" lon="2.04013">
        <ele>194.6</ele>
        <time>2026-05-27T11:19:49Z</time>
      </trkpt>
      <trkpt lat="43.21836" lon="2.04013">
        <ele>194.6</ele>
        <time>2026-05-27T11:19:54Z</time>
      </trkpt>
      <trkpt lat="43.21836" lon="2.04013">
        <ele>194.6</ele>
        <time>2026-05-27T11:19:59Z</time>
      </trkpt>
      <trkpt lat="43.21836" lon="2.04013">
        <ele>194.6</ele>
        <time>2026-05-27T11:20:04Z</time>
      </trkpt>
      <trkpt lat="43.21836" lon="2.04013">
        <ele>194.6</ele>
        <time>2026-05-27T11:20:09Z</time>
      </trkpt>
      <trkpt lat="43.21836" lon="2.04013">
        <ele>194.6</ele>
        <time>2026-05-27T11:20:14Z</time>
      </trkpt>
      <trkpt lat="43.21836" lon="2.04013">
        <ele>194.6</ele>
        <time>2026-05-27T11:20:19Z</time>
      </trkpt>
      <trkpt lat="43.21836" lon="2.04013">
        <ele>194.6</ele>
        <time>2026-05-27T11:20:24Z</time>
      </trkpt>
      <trkpt lat="43.21836" lon="2.04013">
        <ele>194.6</ele>
        <time>2026-05-27T11:20:29Z</time>
      </trkpt>
      <trkpt lat="43.21836" lon="2.04013">
        <ele>194.6</ele>
        <time>2026-05-27T11:20:34Z</time>
      </trkpt>
      <trkpt lat="43.21836" lon="2.04013">
        <ele>194.6</ele>
        <time>2026-05-27T11:20:39Z</time>
      </trkpt>
      <trkpt lat="43.21836" lon="2.04013">
        <ele>194.6</ele>
        <time>2026-05-27T11:20:44Z</time>
      </trkpt>
      <trkpt lat="43.21836" lon="2.04013">
        <ele>194.6</ele>
        <time>2026-05-27T11:20:49Z</time>
      </trkpt>
      <trkpt lat="43.21836" lon="2.04013">
        <ele>194.6</ele>
        <time>2026-05-27T11:20:54Z</time>
      </trkpt>
      <trkpt lat="43.21836" lon="2.04013">
        <ele>194.6</ele>
        <time>2026-05-27T11:20:59Z</time>
      </trkpt>
      <trkpt lat="43.21827" lon="2.04003">
        <ele>193.8</ele>
        <time>2026-05-27T11:21:04Z</time>
      </trkpt>
      <trkpt lat="43.21822" lon="2.03998">
        <ele>193.4</ele>
        <time>2026-05-27T11:21:09Z</time>
      </trkpt>
      <trkpt lat="43.21816" lon="2.03992">
        <ele>193</ele>
        <time>2026-05-27T11:21:14Z</time>
      </trkpt>
      <trkpt lat="43.21813" lon="2.03987">
        <ele>192.8</ele>
        <time>2026-05-27T11:21:19Z</time>
      </trkpt>
      <trkpt lat="43.21809" lon="2.03981">
        <ele>192.5</ele>
        <time>2026-05-27T11:21:24Z</time>
      </trkpt>
      <trkpt lat="43.21804" lon="2.03976">
        <ele>192.2</ele>
        <time>2026-05-27T11:21:29Z</time>
      </trkpt>
      <trkpt lat="43.21799" lon="2.03969">
        <ele>191.9</ele>
        <time>2026-05-27T11:21:34Z</time>
      </trkpt>
      <trkpt lat="43.21796" lon="2.03963">
        <ele>191.7</ele>
        <time>2026-05-27T11:21:39Z</time>
      </trkpt>
      <trkpt lat="43.21793" lon="2.03955">
        <ele>191.5</ele>
        <time>2026-05-27T11:21:44Z</time>
      </trkpt>
      <trkpt lat="43.2179" lon="2.03948">
        <ele>191.3</ele>
        <time>2026-05-27T11:21:49Z</time>
      </trkpt>
      <trkpt lat="43.21786" lon="2.03941">
        <ele>191.1</ele>
        <time>2026-05-27T11:21:54Z</time>
      </trkpt>
      <trkpt lat="43.21782" lon="2.03936">
        <ele>190.9</ele>
        <time>2026-05-27T11:21:59Z</time>
      </trkpt>
      <trkpt lat="43.21777" lon="2.03929">
        <ele>190.7</ele>
        <time>2026-05-27T11:22:04Z</time>
      </trkpt>
      <trkpt lat="43.21774" lon="2.03924">
        <ele>190.6</ele>
        <time>2026-05-27T11:22:09Z</time>
      </trkpt>
      <trkpt lat="43.21769" lon="2.03918">
        <ele>190.5</ele>
        <time>2026-05-27T11:22:14Z</time>
      </trkpt>
      <trkpt lat="43.21765" lon="2.03909">
        <ele>190.5</ele>
        <time>2026-05-27T11:22:19Z</time>
      </trkpt>
      <trkpt lat="43.21761" lon="2.03902">
        <ele>190.5</ele>
        <time>2026-05-27T11:22:24Z</time>
      </trkpt>
      <trkpt lat="43.21759" lon="2.03896">
        <ele>190.6</ele>
        <time>2026-05-27T11:22:29Z</time>
      </trkpt>
      <trkpt lat="43.21758" lon="2.03891">
        <ele>190.7</ele>
        <time>2026-05-27T11:22:34Z</time>
      </trkpt>
      <trkpt lat="43.21755" lon="2.03884">
        <ele>190.8</ele>
        <time>2026-05-27T11:22:39Z</time>
      </trkpt>
      <trkpt lat="43.21753" lon="2.03879">
        <ele>190.9</ele>
        <time>2026-05-27T11:22:44Z</time>
      </trkpt>
      <trkpt lat="43.21749" lon="2.03875">
        <ele>191.1</ele>
        <time>2026-05-27T11:22:49Z</time>
      </trkpt>
      <trkpt lat="43.21746" lon="2.03868">
        <ele>191.5</ele>
        <time>2026-05-27T11:22:54Z</time>
      </trkpt>
      <trkpt lat="43.21744" lon="2.03861">
        <ele>191.8</ele>
        <time>2026-05-27T11:22:59Z</time>
      </trkpt>
      <trkpt lat="43.21742" lon="2.03853">
        <ele>192.2</ele>
        <time>2026-05-27T11:23:04Z</time>
      </trkpt>
      <trkpt lat="43.21741" lon="2.03845">
        <ele>192.4</ele>
        <time>2026-05-27T11:23:09Z</time>
      </trkpt>
      <trkpt lat="43.21739" lon="2.03836">
        <ele>192.9</ele>
        <time>2026-05-27T11:23:14Z</time>
      </trkpt>
      <trkpt lat="43.21743" lon="2.0383">
        <ele>192.5</ele>
        <time>2026-05-27T11:23:19Z</time>
      </trkpt>
      <trkpt lat="43.21745" lon="2.0382">
        <ele>192.2</ele>
        <time>2026-05-27T11:23:24Z</time>
      </trkpt>
      <trkpt lat="43.21748" lon="2.03813">
        <ele>191.9</ele>
        <time>2026-05-27T11:23:29Z</time>
      </trkpt>
      <trkpt lat="43.21751" lon="2.03806">
        <ele>191.7</ele>
        <time>2026-05-27T11:23:34Z</time>
      </trkpt>
      <trkpt lat="43.21753" lon="2.03798">
        <ele>191.5</ele>
        <time>2026-05-27T11:23:39Z</time>
      </trkpt>
      <trkpt lat="43.21756" lon="2.03791">
        <ele>191.4</ele>
        <time>2026-05-27T11:23:44Z</time>
      </trkpt>
      <trkpt lat="43.21761" lon="2.0379">
        <ele>191.3</ele>
        <time>2026-05-27T11:23:49Z</time>
      </trkpt>
      <trkpt lat="43.21769" lon="2.03792">
        <ele>191.3</ele>
        <time>2026-05-27T11:23:54Z</time>
      </trkpt>
      <trkpt lat="43.21773" lon="2.03788">
        <ele>191.2</ele>
        <time>2026-05-27T11:23:59Z</time>
      </trkpt>
      <trkpt lat="43.21779" lon="2.03783">
        <ele>191</ele>
        <time>2026-05-27T11:24:04Z</time>
      </trkpt>
      <trkpt lat="43.21784" lon="2.03777">
        <ele>190.9</ele>
        <time>2026-05-27T11:24:09Z</time>
      </trkpt>
      <trkpt lat="43.21787" lon="2.0377">
        <ele>190.8</ele>
        <time>2026-05-27T11:24:14Z</time>
      </trkpt>
      <trkpt lat="43.2179" lon="2.03762">
        <ele>190.7</ele>
        <time>2026-05-27T11:24:19Z</time>
      </trkpt>
      <trkpt lat="43.21792" lon="2.03753">
        <ele>190.5</ele>
        <time>2026-05-27T11:24:24Z</time>
      </trkpt>
      <trkpt lat="43.21797" lon="2.03745">
        <ele>190.2</ele>
        <time>2026-05-27T11:24:29Z</time>
      </trkpt>
      <trkpt lat="43.218" lon="2.03739">
        <ele>190</ele>
        <time>2026-05-27T11:24:34Z</time>
      </trkpt>
      <trkpt lat="43.21803" lon="2.03732">
        <ele>189.7</ele>
        <time>2026-05-27T11:24:39Z</time>
      </trkpt>
      <trkpt lat="43.21806" lon="2.03725">
        <ele>189.3</ele>
        <time>2026-05-27T11:24:44Z</time>
      </trkpt>
      <trkpt lat="43.21812" lon="2.03719">
        <ele>189</ele>
        <time>2026-05-27T11:24:49Z</time>
      </trkpt>
      <trkpt lat="43.21816" lon="2.03712">
        <ele>188.6</ele>
        <time>2026-05-27T11:24:54Z</time>
      </trkpt>
      <trkpt lat="43.2182" lon="2.03705">
        <ele>188.2</ele>
        <time>2026-05-27T11:24:59Z</time>
      </trkpt>
      <trkpt lat="43.21823" lon="2.03699">
        <ele>187.8</ele>
        <time>2026-05-27T11:25:04Z</time>
      </trkpt>
      <trkpt lat="43.21827" lon="2.03694">
        <ele>187.5</ele>
        <time>2026-05-27T11:25:09Z</time>
      </trkpt>
      <trkpt lat="43.21832" lon="2.03687">
        <ele>187</ele>
        <time>2026-05-27T11:25:14Z</time>
      </trkpt>
      <trkpt lat="43.21837" lon="2.03679">
        <ele>186.7</ele>
        <time>2026-05-27T11:25:19Z</time>
      </trkpt>
      <trkpt lat="43.21843" lon="2.03672">
        <ele>186.5</ele>
        <time>2026-05-27T11:25:24Z</time>
      </trkpt>
      <trkpt lat="43.21847" lon="2.03665">
        <ele>186.3</ele>
        <time>2026-05-27T11:25:29Z</time>
      </trkpt>
      <trkpt lat="43.2185" lon="2.03657">
        <ele>186.1</ele>
        <time>2026-05-27T11:25:34Z</time>
      </trkpt>
      <trkpt lat="43.21853" lon="2.03651">
        <ele>186</ele>
        <time>2026-05-27T11:25:39Z</time>
      </trkpt>
      <trkpt lat="43.21855" lon="2.03643">
        <ele>185.8</ele>
        <time>2026-05-27T11:25:44Z</time>
      </trkpt>
      <trkpt lat="43.21854" lon="2.03633">
        <ele>185.5</ele>
        <time>2026-05-27T11:25:49Z</time>
      </trkpt>
      <trkpt lat="43.21852" lon="2.03625">
        <ele>185.2</ele>
        <time>2026-05-27T11:25:54Z</time>
      </trkpt>
      <trkpt lat="43.2185" lon="2.03616">
        <ele>184.9</ele>
        <time>2026-05-27T11:25:59Z</time>
      </trkpt>
      <trkpt lat="43.21847" lon="2.03609">
        <ele>184.7</ele>
        <time>2026-05-27T11:26:04Z</time>
      </trkpt>
      <trkpt lat="43.21845" lon="2.03601">
        <ele>184.5</ele>
        <time>2026-05-27T11:26:09Z</time>
      </trkpt>
      <trkpt lat="43.21842" lon="2.03592">
        <ele>184.2</ele>
        <time>2026-05-27T11:26:14Z</time>
      </trkpt>
      <trkpt lat="43.2184" lon="2.03582">
        <ele>184</ele>
        <time>2026-05-27T11:26:19Z</time>
      </trkpt>
      <trkpt lat="43.21838" lon="2.03575">
        <ele>183.9</ele>
        <time>2026-05-27T11:26:24Z</time>
      </trkpt>
      <trkpt lat="43.21836" lon="2.03566">
        <ele>183.8</ele>
        <time>2026-05-27T11:26:29Z</time>
      </trkpt>
      <trkpt lat="43.21834" lon="2.03557">
        <ele>183.7</ele>
        <time>2026-05-27T11:26:34Z</time>
      </trkpt>
      <trkpt lat="43.21833" lon="2.03549">
        <ele>183.6</ele>
        <time>2026-05-27T11:26:39Z</time>
      </trkpt>
      <trkpt lat="43.21834" lon="2.03541">
        <ele>183.5</ele>
        <time>2026-05-27T11:26:44Z</time>
      </trkpt>
      <trkpt lat="43.21837" lon="2.03538">
        <ele>183.4</ele>
        <time>2026-05-27T11:26:49Z</time>
      </trkpt>
      <trkpt lat="43.21839" lon="2.03537">
        <ele>183.4</ele>
        <time>2026-05-27T11:26:54Z</time>
      </trkpt>
      <trkpt lat="43.21839" lon="2.03536">
        <ele>183.4</ele>
        <time>2026-05-27T11:26:59Z</time>
      </trkpt>
      <trkpt lat="43.21839" lon="2.03527">
        <ele>183.3</ele>
        <time>2026-05-27T11:27:04Z</time>
      </trkpt>
      <trkpt lat="43.21838" lon="2.0352">
        <ele>183.2</ele>
        <time>2026-05-27T11:27:09Z</time>
      </trkpt>
      <trkpt lat="43.21835" lon="2.03512">
        <ele>183.1</ele>
        <time>2026-05-27T11:27:14Z</time>
      </trkpt>
      <trkpt lat="43.21836" lon="2.03504">
        <ele>183</ele>
        <time>2026-05-27T11:27:19Z</time>
      </trkpt>
      <trkpt lat="43.21837" lon="2.03498">
        <ele>183</ele>
        <time>2026-05-27T11:27:24Z</time>
      </trkpt>
      <trkpt lat="43.21838" lon="2.0349">
        <ele>183.2</ele>
        <time>2026-05-27T11:27:29Z</time>
      </trkpt>
      <trkpt lat="43.21841" lon="2.03482">
        <ele>183.3</ele>
        <time>2026-05-27T11:27:34Z</time>
      </trkpt>
      <trkpt lat="43.21844" lon="2.03476">
        <ele>183.4</ele>
        <time>2026-05-27T11:27:39Z</time>
      </trkpt>
      <trkpt lat="43.21846" lon="2.03473">
        <ele>183.4</ele>
        <time>2026-05-27T11:27:44Z</time>
      </trkpt>
      <trkpt lat="43.2185" lon="2.03471">
        <ele>183.4</ele>
        <time>2026-05-27T11:27:49Z</time>
      </trkpt>
      <trkpt lat="43.21854" lon="2.03471">
        <ele>183.4</ele>
        <time>2026-05-27T11:27:54Z</time>
      </trkpt>
      <trkpt lat="43.21857" lon="2.03472">
        <ele>183.3</ele>
        <time>2026-05-27T11:27:59Z</time>
      </trkpt>
      <trkpt lat="43.21859" lon="2.0347">
        <ele>183.3</ele>
        <time>2026-05-27T11:28:04Z</time>
      </trkpt>
      <trkpt lat="43.21862" lon="2.0347">
        <ele>183.3</ele>
        <time>2026-05-27T11:28:09Z</time>
      </trkpt>
      <trkpt lat="43.21861" lon="2.03467">
        <ele>183.3</ele>
        <time>2026-05-27T11:28:14Z</time>
      </trkpt>
      <trkpt lat="43.21856" lon="2.0346">
        <ele>183.6</ele>
        <time>2026-05-27T11:28:19Z</time>
      </trkpt>
      <trkpt lat="43.21853" lon="2.03455">
        <ele>183.7</ele>
        <time>2026-05-27T11:28:24Z</time>
      </trkpt>
      <trkpt lat="43.21853" lon="2.03455">
        <ele>183.7</ele>
        <time>2026-05-27T11:28:29Z</time>
      </trkpt>
      <trkpt lat="43.21853" lon="2.03455">
        <ele>183.7</ele>
        <time>2026-05-27T11:28:34Z</time>
      </trkpt>
      <trkpt lat="43.21853" lon="2.03455">
        <ele>183.7</ele>
        <time>2026-05-27T11:28:39Z</time>
      </trkpt>
      <trkpt lat="43.21853" lon="2.03455">
        <ele>183.7</ele>
        <time>2026-05-27T11:28:44Z</time>
      </trkpt>
      <trkpt lat="43.21853" lon="2.03455">
        <ele>183.7</ele>
        <time>2026-05-27T11:28:49Z</time>
      </trkpt>
      <trkpt lat="43.21853" lon="2.03455">
        <ele>183.7</ele>
        <time>2026-05-27T11:28:54Z</time>
      </trkpt>
      <trkpt lat="43.21853" lon="2.03455">
        <ele>183.7</ele>
        <time>2026-05-27T11:28:59Z</time>
      </trkpt>
      <trkpt lat="43.21848" lon="2.03446">
        <ele>184</ele>
        <time>2026-05-27T11:29:04Z</time>
      </trkpt>
      <trkpt lat="43.2185" lon="2.03437">
        <ele>184.2</ele>
        <time>2026-05-27T11:29:09Z</time>
      </trkpt>
      <trkpt lat="43.21851" lon="2.0343">
        <ele>184.3</ele>
        <time>2026-05-27T11:29:14Z</time>
      </trkpt>
      <trkpt lat="43.21855" lon="2.03421">
        <ele>184.4</ele>
        <time>2026-05-27T11:29:19Z</time>
      </trkpt>
      <trkpt lat="43.21856" lon="2.03417">
        <ele>184.4</ele>
        <time>2026-05-27T11:29:24Z</time>
      </trkpt>
      <trkpt lat="43.21859" lon="2.03406">
        <ele>184.7</ele>
        <time>2026-05-27T11:29:29Z</time>
      </trkpt>
      <trkpt lat="43.21859" lon="2.03398">
        <ele>185</ele>
        <time>2026-05-27T11:29:34Z</time>
      </trkpt>
      <trkpt lat="43.21859" lon="2.0339">
        <ele>185.2</ele>
        <time>2026-05-27T11:29:39Z</time>
      </trkpt>
      <trkpt lat="43.21861" lon="2.03384">
        <ele>185.4</ele>
        <time>2026-05-27T11:29:44Z</time>
      </trkpt>
      <trkpt lat="43.21861" lon="2.03375">
        <ele>185.7</ele>
        <time>2026-05-27T11:29:49Z</time>
      </trkpt>
      <trkpt lat="43.2186" lon="2.03365">
        <ele>186</ele>
        <time>2026-05-27T11:29:54Z</time>
      </trkpt>
      <trkpt lat="43.21859" lon="2.03355">
        <ele>186.4</ele>
        <time>2026-05-27T11:29:59Z</time>
      </trkpt>
      <trkpt lat="43.21859" lon="2.03346">
        <ele>186.7</ele>
        <time>2026-05-27T11:30:04Z</time>
      </trkpt>
      <trkpt lat="43.2186" lon="2.03342">
        <ele>186.8</ele>
        <time>2026-05-27T11:30:09Z</time>
      </trkpt>
      <trkpt lat="43.21861" lon="2.03339">
        <ele>186.8</ele>
        <time>2026-05-27T11:30:14Z</time>
      </trkpt>
      <trkpt lat="43.21867" lon="2.0334">
        <ele>186.6</ele>
        <time>2026-05-27T11:30:19Z</time>
      </trkpt>
      <trkpt lat="43.21874" lon="2.03344">
        <ele>186.2</ele>
        <time>2026-05-27T11:30:24Z</time>
      </trkpt>
      <trkpt lat="43.21878" lon="2.03346">
        <ele>186</ele>
        <time>2026-05-27T11:30:29Z</time>
      </trkpt>
      <trkpt lat="43.21878" lon="2.03345">
        <ele>186</ele>
        <time>2026-05-27T11:30:34Z</time>
      </trkpt>
      <trkpt lat="43.21874" lon="2.0334">
        <ele>186.3</ele>
        <time>2026-05-27T11:30:39Z</time>
      </trkpt>
      <trkpt lat="43.2187" lon="2.03333">
        <ele>186.7</ele>
        <time>2026-05-27T11:30:44Z</time>
      </trkpt>
      <trkpt lat="43.21869" lon="2.03325">
        <ele>186.9</ele>
        <time>2026-05-27T11:30:49Z</time>
      </trkpt>
      <trkpt lat="43.21867" lon="2.03317">
        <ele>187.2</ele>
        <time>2026-05-27T11:30:54Z</time>
      </trkpt>
      <trkpt lat="43.21865" lon="2.03309">
        <ele>187.5</ele>
        <time>2026-05-27T11:30:59Z</time>
      </trkpt>
      <trkpt lat="43.21863" lon="2.03302">
        <ele>187.8</ele>
        <time>2026-05-27T11:31:04Z</time>
      </trkpt>
      <trkpt lat="43.21861" lon="2.03294">
        <ele>188.1</ele>
        <time>2026-05-27T11:31:09Z</time>
      </trkpt>
      <trkpt lat="43.21857" lon="2.0329">
        <ele>188.4</ele>
        <time>2026-05-27T11:31:14Z</time>
      </trkpt>
      <trkpt lat="43.21853" lon="2.03288">
        <ele>188.7</ele>
        <time>2026-05-27T11:31:19Z</time>
      </trkpt>
      <trkpt lat="43.21852" lon="2.03287">
        <ele>188.7</ele>
        <time>2026-05-27T11:31:24Z</time>
      </trkpt>
      <trkpt lat="43.21851" lon="2.03284">
        <ele>188.9</ele>
        <time>2026-05-27T11:31:29Z</time>
      </trkpt>
      <trkpt lat="43.2185" lon="2.03279">
        <ele>189.1</ele>
        <time>2026-05-27T11:31:34Z</time>
      </trkpt>
      <trkpt lat="43.21849" lon="2.03272">
        <ele>189.4</ele>
        <time>2026-05-27T11:31:39Z</time>
      </trkpt>
      <trkpt lat="43.21847" lon="2.03268">
        <ele>189.6</ele>
        <time>2026-05-27T11:31:44Z</time>
      </trkpt>
      <trkpt lat="43.21845" lon="2.03262">
        <ele>189.9</ele>
        <time>2026-05-27T11:31:49Z</time>
      </trkpt>
      <trkpt lat="43.21842" lon="2.03255">
        <ele>190.3</ele>
        <time>2026-05-27T11:31:54Z</time>
      </trkpt>
      <trkpt lat="43.2184" lon="2.0325">
        <ele>190.6</ele>
        <time>2026-05-27T11:31:59Z</time>
      </trkpt>
      <trkpt lat="43.21838" lon="2.03249">
        <ele>190.7</ele>
        <time>2026-05-27T11:32:04Z</time>
      </trkpt>
      <trkpt lat="43.21836" lon="2.03246">
        <ele>190.8</ele>
        <time>2026-05-27T11:32:09Z</time>
      </trkpt>
      <trkpt lat="43.21833" lon="2.03242">
        <ele>191</ele>
        <time>2026-05-27T11:32:14Z</time>
      </trkpt>
      <trkpt lat="43.21829" lon="2.03238">
        <ele>191.1</ele>
        <time>2026-05-27T11:32:19Z</time>
      </trkpt>
      <trkpt lat="43.21825" lon="2.03233">
        <ele>191.2</ele>
        <time>2026-05-27T11:32:24Z</time>
      </trkpt>
      <trkpt lat="43.21821" lon="2.03227">
        <ele>191.3</ele>
        <time>2026-05-27T11:32:29Z</time>
      </trkpt>
      <trkpt lat="43.21816" lon="2.03222">
        <ele>191.4</ele>
        <time>2026-05-27T11:32:34Z</time>
      </trkpt>
      <trkpt lat="43.21811" lon="2.03218">
        <ele>191.5</ele>
        <time>2026-05-27T11:32:39Z</time>
      </trkpt>
      <trkpt lat="43.21806" lon="2.03214">
        <ele>191.7</ele>
        <time>2026-05-27T11:32:44Z</time>
      </trkpt>
      <trkpt lat="43.21801" lon="2.0321">
        <ele>191.8</ele>
        <time>2026-05-27T11:32:49Z</time>
      </trkpt>
      <trkpt lat="43.21796" lon="2.03205">
        <ele>191.9</ele>
        <time>2026-05-27T11:32:54Z</time>
      </trkpt>
      <trkpt lat="43.21791" lon="2.03201">
        <ele>192</ele>
        <time>2026-05-27T11:32:59Z</time>
      </trkpt>
      <trkpt lat="43.21786" lon="2.03195">
        <ele>192.1</ele>
        <time>2026-05-27T11:33:04Z</time>
      </trkpt>
      <trkpt lat="43.21779" lon="2.03191">
        <ele>192.3</ele>
        <time>2026-05-27T11:33:09Z</time>
      </trkpt>
      <trkpt lat="43.21774" lon="2.03186">
        <ele>192.4</ele>
        <time>2026-05-27T11:33:14Z</time>
      </trkpt>
      <trkpt lat="43.21773" lon="2.03184">
        <ele>192.4</ele>
        <time>2026-05-27T11:33:19Z</time>
      </trkpt>
      <trkpt lat="43.21773" lon="2.03184">
        <ele>192.4</ele>
        <time>2026-05-27T11:33:24Z</time>
      </trkpt>
      <trkpt lat="43.21773" lon="2.03184">
        <ele>192.4</ele>
        <time>2026-05-27T11:33:29Z</time>
      </trkpt>
      <trkpt lat="43.2177" lon="2.03178">
        <ele>192.5</ele>
        <time>2026-05-27T11:33:34Z</time>
      </trkpt>
      <trkpt lat="43.21765" lon="2.03176">
        <ele>192.6</ele>
        <time>2026-05-27T11:33:39Z</time>
      </trkpt>
      <trkpt lat="43.21759" lon="2.03171">
        <ele>192.8</ele>
        <time>2026-05-27T11:33:44Z</time>
      </trkpt>
      <trkpt lat="43.21753" lon="2.0317">
        <ele>192.9</ele>
        <time>2026-05-27T11:33:49Z</time>
      </trkpt>
      <trkpt lat="43.21747" lon="2.03168">
        <ele>193.1</ele>
        <time>2026-05-27T11:33:54Z</time>
      </trkpt>
      <trkpt lat="43.21742" lon="2.0317">
        <ele>193.2</ele>
        <time>2026-05-27T11:33:59Z</time>
      </trkpt>
      <trkpt lat="43.21736" lon="2.03169">
        <ele>193.3</ele>
        <time>2026-05-27T11:34:04Z</time>
      </trkpt>
      <trkpt lat="43.21731" lon="2.03169">
        <ele>193.5</ele>
        <time>2026-05-27T11:34:09Z</time>
      </trkpt>
      <trkpt lat="43.21725" lon="2.03172">
        <ele>193.6</ele>
        <time>2026-05-27T11:34:14Z</time>
      </trkpt>
      <trkpt lat="43.2172" lon="2.03171">
        <ele>193.7</ele>
        <time>2026-05-27T11:34:19Z</time>
      </trkpt>
      <trkpt lat="43.21715" lon="2.03171">
        <ele>193.9</ele>
        <time>2026-05-27T11:34:24Z</time>
      </trkpt>
      <trkpt lat="43.2171" lon="2.03173">
        <ele>194</ele>
        <time>2026-05-27T11:34:29Z</time>
      </trkpt>
      <trkpt lat="43.21702" lon="2.03177">
        <ele>194.2</ele>
        <time>2026-05-27T11:34:34Z</time>
      </trkpt>
      <trkpt lat="43.21698" lon="2.03179">
        <ele>194.3</ele>
        <time>2026-05-27T11:34:39Z</time>
      </trkpt>
      <trkpt lat="43.21693" lon="2.03183">
        <ele>194.5</ele>
        <time>2026-05-27T11:34:44Z</time>
      </trkpt>
      <trkpt lat="43.21693" lon="2.03185">
        <ele>194.5</ele>
        <time>2026-05-27T11:34:49Z</time>
      </trkpt>
      <trkpt lat="43.21688" lon="2.03185">
        <ele>194.7</ele>
        <time>2026-05-27T11:34:54Z</time>
      </trkpt>
      <trkpt lat="43.21682" lon="2.03186">
        <ele>194.8</ele>
        <time>2026-05-27T11:34:59Z</time>
      </trkpt>
      <trkpt lat="43.21676" lon="2.03189">
        <ele>195</ele>
        <time>2026-05-27T11:35:04Z</time>
      </trkpt>
      <trkpt lat="43.21671" lon="2.03191">
        <ele>195.2</ele>
        <time>2026-05-27T11:35:09Z</time>
      </trkpt>
      <trkpt lat="43.21665" lon="2.03192">
        <ele>195.4</ele>
        <time>2026-05-27T11:35:14Z</time>
      </trkpt>
      <trkpt lat="43.21657" lon="2.03194">
        <ele>195.8</ele>
        <time>2026-05-27T11:35:19Z</time>
      </trkpt>
      <trkpt lat="43.21652" lon="2.03195">
        <ele>196</ele>
        <time>2026-05-27T11:35:24Z</time>
      </trkpt>
      <trkpt lat="43.21645" lon="2.03198">
        <ele>196.3</ele>
        <time>2026-05-27T11:35:29Z</time>
      </trkpt>
      <trkpt lat="43.21638" lon="2.03199">
        <ele>196.6</ele>
        <time>2026-05-27T11:35:34Z</time>
      </trkpt>
      <trkpt lat="43.21631" lon="2.03198">
        <ele>196.9</ele>
        <time>2026-05-27T11:35:39Z</time>
      </trkpt>
      <trkpt lat="43.21624" lon="2.03199">
        <ele>197.2</ele>
        <time>2026-05-27T11:35:44Z</time>
      </trkpt>
      <trkpt lat="43.21621" lon="2.03202">
        <ele>197.4</ele>
        <time>2026-05-27T11:35:49Z</time>
      </trkpt>
      <trkpt lat="43.21621" lon="2.03204">
        <ele>197.4</ele>
        <time>2026-05-27T11:35:54Z</time>
      </trkpt>
      <trkpt lat="43.2162" lon="2.03204">
        <ele>197.4</ele>
        <time>2026-05-27T11:35:59Z</time>
      </trkpt>
      <trkpt lat="43.2162" lon="2.03204">
        <ele>197.4</ele>
        <time>2026-05-27T11:36:04Z</time>
      </trkpt>
      <trkpt lat="43.21616" lon="2.03202">
        <ele>197.6</ele>
        <time>2026-05-27T11:36:09Z</time>
      </trkpt>
      <trkpt lat="43.21609" lon="2.03203">
        <ele>197.9</ele>
        <time>2026-05-27T11:36:14Z</time>
      </trkpt>
      <trkpt lat="43.21603" lon="2.03202">
        <ele>198.2</ele>
        <time>2026-05-27T11:36:19Z</time>
      </trkpt>
      <trkpt lat="43.21597" lon="2.03202">
        <ele>198.4</ele>
        <time>2026-05-27T11:36:24Z</time>
      </trkpt>
      <trkpt lat="43.21591" lon="2.03203">
        <ele>198.7</ele>
        <time>2026-05-27T11:36:29Z</time>
      </trkpt>
      <trkpt lat="43.21585" lon="2.03205">
        <ele>198.9</ele>
        <time>2026-05-27T11:36:34Z</time>
      </trkpt>
      <trkpt lat="43.21578" lon="2.03205">
        <ele>199.4</ele>
        <time>2026-05-27T11:36:39Z</time>
      </trkpt>
      <trkpt lat="43.21571" lon="2.03207">
        <ele>200</ele>
        <time>2026-05-27T11:36:44Z</time>
      </trkpt>
      <trkpt lat="43.21564" lon="2.03208">
        <ele>200.5</ele>
        <time>2026-05-27T11:36:49Z</time>
      </trkpt>
      <trkpt lat="43.21558" lon="2.03208">
        <ele>201</ele>
        <time>2026-05-27T11:36:54Z</time>
      </trkpt>
      <trkpt lat="43.21552" lon="2.0321">
        <ele>201.4</ele>
        <time>2026-05-27T11:36:59Z</time>
      </trkpt>
      <trkpt lat="43.21546" lon="2.0321">
        <ele>201.9</ele>
        <time>2026-05-27T11:37:04Z</time>
      </trkpt>
      <trkpt lat="43.2154" lon="2.03212">
        <ele>202.3</ele>
        <time>2026-05-27T11:37:09Z</time>
      </trkpt>
      <trkpt lat="43.21533" lon="2.03213">
        <ele>202.8</ele>
        <time>2026-05-27T11:37:14Z</time>
      </trkpt>
      <trkpt lat="43.21527" lon="2.03214">
        <ele>203.3</ele>
        <time>2026-05-27T11:37:19Z</time>
      </trkpt>
      <trkpt lat="43.21521" lon="2.03215">
        <ele>203.7</ele>
        <time>2026-05-27T11:37:24Z</time>
      </trkpt>
      <trkpt lat="43.21515" lon="2.03216">
        <ele>204.1</ele>
        <time>2026-05-27T11:37:29Z</time>
      </trkpt>
      <trkpt lat="43.21509" lon="2.03217">
        <ele>204.5</ele>
        <time>2026-05-27T11:37:34Z</time>
      </trkpt>
      <trkpt lat="43.21503" lon="2.03216">
        <ele>205</ele>
        <time>2026-05-27T11:37:39Z</time>
      </trkpt>
      <trkpt lat="43.21499" lon="2.03215">
        <ele>205.4</ele>
        <time>2026-05-27T11:37:44Z</time>
      </trkpt>
      <trkpt lat="43.21498" lon="2.03214">
        <ele>205.5</ele>
        <time>2026-05-27T11:37:49Z</time>
      </trkpt>
      <trkpt lat="43.21493" lon="2.03213">
        <ele>206.1</ele>
        <time>2026-05-27T11:37:54Z</time>
      </trkpt>
      <trkpt lat="43.21488" lon="2.03211">
        <ele>206.8</ele>
        <time>2026-05-27T11:37:59Z</time>
      </trkpt>
      <trkpt lat="43.21482" lon="2.0321">
        <ele>207.5</ele>
        <time>2026-05-27T11:38:04Z</time>
      </trkpt>
      <trkpt lat="43.21477" lon="2.03209">
        <ele>208.1</ele>
        <time>2026-05-27T11:38:09Z</time>
      </trkpt>
      <trkpt lat="43.21471" lon="2.03207">
        <ele>208.8</ele>
        <time>2026-05-27T11:38:14Z</time>
      </trkpt>
      <trkpt lat="43.21466" lon="2.03205">
        <ele>209.5</ele>
        <time>2026-05-27T11:38:19Z</time>
      </trkpt>
      <trkpt lat="43.21461" lon="2.03203">
        <ele>210.1</ele>
        <time>2026-05-27T11:38:24Z</time>
      </trkpt>
      <trkpt lat="43.21456" lon="2.032">
        <ele>210.8</ele>
        <time>2026-05-27T11:38:29Z</time>
      </trkpt>
      <trkpt lat="43.21451" lon="2.03197">
        <ele>211.4</ele>
        <time>2026-05-27T11:38:34Z</time>
      </trkpt>
      <trkpt lat="43.21446" lon="2.03195">
        <ele>212</ele>
        <time>2026-05-27T11:38:39Z</time>
      </trkpt>
      <trkpt lat="43.21441" lon="2.03192">
        <ele>212.7</ele>
        <time>2026-05-27T11:38:44Z</time>
      </trkpt>
      <trkpt lat="43.21437" lon="2.0319">
        <ele>213.2</ele>
        <time>2026-05-27T11:38:49Z</time>
      </trkpt>
      <trkpt lat="43.21431" lon="2.03187">
        <ele>213.9</ele>
        <time>2026-05-27T11:38:54Z</time>
      </trkpt>
      <trkpt lat="43.21428" lon="2.03185">
        <ele>214.3</ele>
        <time>2026-05-27T11:38:59Z</time>
      </trkpt>
      <trkpt lat="43.21423" lon="2.03182">
        <ele>214.9</ele>
        <time>2026-05-27T11:39:04Z</time>
      </trkpt>
      <trkpt lat="43.21417" lon="2.0318">
        <ele>215.6</ele>
        <time>2026-05-27T11:39:09Z</time>
      </trkpt>
      <trkpt lat="43.21412" lon="2.03177">
        <ele>215.9</ele>
        <time>2026-05-27T11:39:14Z</time>
      </trkpt>
      <trkpt lat="43.21408" lon="2.03175">
        <ele>216.1</ele>
        <time>2026-05-27T11:39:19Z</time>
      </trkpt>
      <trkpt lat="43.21404" lon="2.03172">
        <ele>216.3</ele>
        <time>2026-05-27T11:39:24Z</time>
      </trkpt>
      <trkpt lat="43.214" lon="2.0317">
        <ele>216.5</ele>
        <time>2026-05-27T11:39:29Z</time>
      </trkpt>
      <trkpt lat="43.21394" lon="2.03167">
        <ele>216.8</ele>
        <time>2026-05-27T11:39:34Z</time>
      </trkpt>
      <trkpt lat="43.2139" lon="2.03165">
        <ele>217</ele>
        <time>2026-05-27T11:39:39Z</time>
      </trkpt>
      <trkpt lat="43.21387" lon="2.03163">
        <ele>217.1</ele>
        <time>2026-05-27T11:39:44Z</time>
      </trkpt>
      <trkpt lat="43.21383" lon="2.03161">
        <ele>217.3</ele>
        <time>2026-05-27T11:39:49Z</time>
      </trkpt>
      <trkpt lat="43.21378" lon="2.03159">
        <ele>217.5</ele>
        <time>2026-05-27T11:39:54Z</time>
      </trkpt>
      <trkpt lat="43.21374" lon="2.03157">
        <ele>217.7</ele>
        <time>2026-05-27T11:39:59Z</time>
      </trkpt>
      <trkpt lat="43.2137" lon="2.03156">
        <ele>217.8</ele>
        <time>2026-05-27T11:40:04Z</time>
      </trkpt>
      <trkpt lat="43.21365" lon="2.03154">
        <ele>218</ele>
        <time>2026-05-27T11:40:09Z</time>
      </trkpt>
      <trkpt lat="43.21361" lon="2.03151">
        <ele>218.2</ele>
        <time>2026-05-27T11:40:14Z</time>
      </trkpt>
      <trkpt lat="43.21356" lon="2.0315">
        <ele>218.4</ele>
        <time>2026-05-27T11:40:19Z</time>
      </trkpt>
      <trkpt lat="43.21351" lon="2.03148">
        <ele>218.6</ele>
        <time>2026-05-27T11:40:24Z</time>
      </trkpt>
      <trkpt lat="43.21346" lon="2.03146">
        <ele>218.8</ele>
        <time>2026-05-27T11:40:29Z</time>
      </trkpt>
      <trkpt lat="43.21342" lon="2.03143">
        <ele>219</ele>
        <time>2026-05-27T11:40:34Z</time>
      </trkpt>
      <trkpt lat="43.21341" lon="2.03142">
        <ele>219</ele>
        <time>2026-05-27T11:40:39Z</time>
      </trkpt>
      <trkpt lat="43.2134" lon="2.03141">
        <ele>219.1</ele>
        <time>2026-05-27T11:40:44Z</time>
      </trkpt>
      <trkpt lat="43.2134" lon="2.03141">
        <ele>219.1</ele>
        <time>2026-05-27T11:40:49Z</time>
      </trkpt>
      <trkpt lat="43.2134" lon="2.03141">
        <ele>219.1</ele>
        <time>2026-05-27T11:40:54Z</time>
      </trkpt>
      <trkpt lat="43.2134" lon="2.0314">
        <ele>219.1</ele>
        <time>2026-05-27T11:40:59Z</time>
      </trkpt>
      <trkpt lat="43.2134" lon="2.03139">
        <ele>219.1</ele>
        <time>2026-05-27T11:41:04Z</time>
      </trkpt>
      <trkpt lat="43.2134" lon="2.03139">
        <ele>219.1</ele>
        <time>2026-05-27T11:41:09Z</time>
      </trkpt>
      <trkpt lat="43.2134" lon="2.03139">
        <ele>219.1</ele>
        <time>2026-05-27T11:41:14Z</time>
      </trkpt>
      <trkpt lat="43.2134" lon="2.03139">
        <ele>219.1</ele>
        <time>2026-05-27T11:41:19Z</time>
      </trkpt>
      <trkpt lat="43.2134" lon="2.03139">
        <ele>219.1</ele>
        <time>2026-05-27T11:41:24Z</time>
      </trkpt>
      <trkpt lat="43.2134" lon="2.03139">
        <ele>219.1</ele>
        <time>2026-05-27T11:41:29Z</time>
      </trkpt>
      <trkpt lat="43.2134" lon="2.03139">
        <ele>219.1</ele>
        <time>2026-05-27T11:41:34Z</time>
      </trkpt>
      <trkpt lat="43.2134" lon="2.03139">
        <ele>219.1</ele>
        <time>2026-05-27T11:41:39Z</time>
      </trkpt>
      <trkpt lat="43.2134" lon="2.03139">
        <ele>219.1</ele>
        <time>2026-05-27T11:41:44Z</time>
      </trkpt>
      <trkpt lat="43.2134" lon="2.03139">
        <ele>219.1</ele>
        <time>2026-05-27T11:41:49Z</time>
      </trkpt>
      <trkpt lat="43.2134" lon="2.03139">
        <ele>219.1</ele>
        <time>2026-05-27T11:41:54Z</time>
      </trkpt>
      <trkpt lat="43.2134" lon="2.03139">
        <ele>219.1</ele>
        <time>2026-05-27T11:41:59Z</time>
      </trkpt>
      <trkpt lat="43.2134" lon="2.03139">
        <ele>219.1</ele>
        <time>2026-05-27T11:42:04Z</time>
      </trkpt>
      <trkpt lat="43.2134" lon="2.03139">
        <ele>219.1</ele>
        <time>2026-05-27T11:42:09Z</time>
      </trkpt>
      <trkpt lat="43.2134" lon="2.03139">
        <ele>219.1</ele>
        <time>2026-05-27T11:42:14Z</time>
      </trkpt>
      <trkpt lat="43.2134" lon="2.03139">
        <ele>219.1</ele>
        <time>2026-05-27T11:42:19Z</time>
      </trkpt>
      <trkpt lat="43.2134" lon="2.03139">
        <ele>219.1</ele>
        <time>2026-05-27T11:42:24Z</time>
      </trkpt>
      <trkpt lat="43.2134" lon="2.03139">
        <ele>219.1</ele>
        <time>2026-05-27T11:42:29Z</time>
      </trkpt>
      <trkpt lat="43.2134" lon="2.03139">
        <ele>219.1</ele>
        <time>2026-05-27T11:42:34Z</time>
      </trkpt>
      <trkpt lat="43.2134" lon="2.03139">
        <ele>219.1</ele>
        <time>2026-05-27T11:42:39Z</time>
      </trkpt>
      <trkpt lat="43.2134" lon="2.03139">
        <ele>219.1</ele>
        <time>2026-05-27T11:42:44Z</time>
      </trkpt>
      <trkpt lat="43.2134" lon="2.03139">
        <ele>219.1</ele>
        <time>2026-05-27T11:42:49Z</time>
      </trkpt>
      <trkpt lat="43.2134" lon="2.03139">
        <ele>219.1</ele>
        <time>2026-05-27T11:42:54Z</time>
      </trkpt>
      <trkpt lat="43.2134" lon="2.03139">
        <ele>219.1</ele>
        <time>2026-05-27T11:42:59Z</time>
      </trkpt>
      <trkpt lat="43.2134" lon="2.03139">
        <ele>219.1</ele>
        <time>2026-05-27T11:43:04Z</time>
      </trkpt>
      <trkpt lat="43.2134" lon="2.03139">
        <ele>219.1</ele>
        <time>2026-05-27T11:43:09Z</time>
      </trkpt>
      <trkpt lat="43.2134" lon="2.03139">
        <ele>219.1</ele>
        <time>2026-05-27T11:43:14Z</time>
      </trkpt>
      <trkpt lat="43.2134" lon="2.03139">
        <ele>219.1</ele>
        <time>2026-05-27T11:43:19Z</time>
      </trkpt>
      <trkpt lat="43.2134" lon="2.03139">
        <ele>219.1</ele>
        <time>2026-05-27T11:43:24Z</time>
      </trkpt>
      <trkpt lat="43.2134" lon="2.03139">
        <ele>219.1</ele>
        <time>2026-05-27T11:43:29Z</time>
      </trkpt>
      <trkpt lat="43.2134" lon="2.03139">
        <ele>219.1</ele>
        <time>2026-05-27T11:43:34Z</time>
      </trkpt>
      <trkpt lat="43.2134" lon="2.03139">
        <ele>219.1</ele>
        <time>2026-05-27T11:43:39Z</time>
      </trkpt>
      <trkpt lat="43.2134" lon="2.03139">
        <ele>219.1</ele>
        <time>2026-05-27T11:43:44Z</time>
      </trkpt>
      <trkpt lat="43.2134" lon="2.03139">
        <ele>219.1</ele>
        <time>2026-05-27T11:43:49Z</time>
      </trkpt>
      <trkpt lat="43.2134" lon="2.03139">
        <ele>219.1</ele>
        <time>2026-05-27T11:43:54Z</time>
      </trkpt>
      <trkpt lat="43.2134" lon="2.03139">
        <ele>219.1</ele>
        <time>2026-05-27T11:43:59Z</time>
      </trkpt>
      <trkpt lat="43.2134" lon="2.03139">
        <ele>219.1</ele>
        <time>2026-05-27T11:44:04Z</time>
      </trkpt>
      <trkpt lat="43.2134" lon="2.03139">
        <ele>219.1</ele>
        <time>2026-05-27T11:44:09Z</time>
      </trkpt>
      <trkpt lat="43.2134" lon="2.03139">
        <ele>219.1</ele>
        <time>2026-05-27T11:44:14Z</time>
      </trkpt>
      <trkpt lat="43.2134" lon="2.03139">
        <ele>219.1</ele>
        <time>2026-05-27T11:44:19Z</time>
      </trkpt>
      <trkpt lat="43.2134" lon="2.03139">
        <ele>219.1</ele>
        <time>2026-05-27T11:44:24Z</time>
      </trkpt>
      <trkpt lat="43.2134" lon="2.03139">
        <ele>219.1</ele>
        <time>2026-05-27T11:44:29Z</time>
      </trkpt>
      <trkpt lat="43.2134" lon="2.03139">
        <ele>219.1</ele>
        <time>2026-05-27T11:44:34Z</time>
      </trkpt>
      <trkpt lat="43.2134" lon="2.03139">
        <ele>219.1</ele>
        <time>2026-05-27T11:44:39Z</time>
      </trkpt>
      <trkpt lat="43.2134" lon="2.03139">
        <ele>219.1</ele>
        <time>2026-05-27T11:44:44Z</time>
      </trkpt>
      <trkpt lat="43.2134" lon="2.03139">
        <ele>219.1</ele>
        <time>2026-05-27T11:44:49Z</time>
      </trkpt>
      <trkpt lat="43.2134" lon="2.03139">
        <ele>219.1</ele>
        <time>2026-05-27T11:44:54Z</time>
      </trkpt>
      <trkpt lat="43.2134" lon="2.03139">
        <ele>219.1</ele>
        <time>2026-05-27T11:44:59Z</time>
      </trkpt>
      <trkpt lat="43.2134" lon="2.03139">
        <ele>219.1</ele>
        <time>2026-05-27T11:45:04Z</time>
      </trkpt>
      <trkpt lat="43.2134" lon="2.03139">
        <ele>219.1</ele>
        <time>2026-05-27T11:45:09Z</time>
      </trkpt>
      <trkpt lat="43.2134" lon="2.03139">
        <ele>219.1</ele>
        <time>2026-05-27T11:45:14Z</time>
      </trkpt>
      <trkpt lat="43.2134" lon="2.03139">
        <ele>219.1</ele>
        <time>2026-05-27T11:45:19Z</time>
      </trkpt>
      <trkpt lat="43.2134" lon="2.03139">
        <ele>219.1</ele>
        <time>2026-05-27T11:45:24Z</time>
      </trkpt>
      <trkpt lat="43.2134" lon="2.03139">
        <ele>219.1</ele>
        <time>2026-05-27T11:45:29Z</time>
      </trkpt>
      <trkpt lat="43.2134" lon="2.03139">
        <ele>219.1</ele>
        <time>2026-05-27T11:45:34Z</time>
      </trkpt>
      <trkpt lat="43.2134" lon="2.03139">
        <ele>219.1</ele>
        <time>2026-05-27T11:45:39Z</time>
      </trkpt>
      <trkpt lat="43.2134" lon="2.03139">
        <ele>219.1</ele>
        <time>2026-05-27T11:45:44Z</time>
      </trkpt>
      <trkpt lat="43.2134" lon="2.03139">
        <ele>219.1</ele>
        <time>2026-05-27T11:45:49Z</time>
      </trkpt>
      <trkpt lat="43.21339" lon="2.03141">
        <ele>219.1</ele>
        <time>2026-05-27T11:45:54Z</time>
      </trkpt>
      <trkpt lat="43.21333" lon="2.03142">
        <ele>219.3</ele>
        <time>2026-05-27T11:45:59Z</time>
      </trkpt>
      <trkpt lat="43.21327" lon="2.03141">
        <ele>219.4</ele>
        <time>2026-05-27T11:46:04Z</time>
      </trkpt>
      <trkpt lat="43.21321" lon="2.03141">
        <ele>219.4</ele>
        <time>2026-05-27T11:46:09Z</time>
      </trkpt>
      <trkpt lat="43.21316" lon="2.03142">
        <ele>219.5</ele>
        <time>2026-05-27T11:46:14Z</time>
      </trkpt>
      <trkpt lat="43.21311" lon="2.03143">
        <ele>219.5</ele>
        <time>2026-05-27T11:46:19Z</time>
      </trkpt>
      <trkpt lat="43.21306" lon="2.03146">
        <ele>219.5</ele>
        <time>2026-05-27T11:46:24Z</time>
      </trkpt>
      <trkpt lat="43.21302" lon="2.03149">
        <ele>219.5</ele>
        <time>2026-05-27T11:46:29Z</time>
      </trkpt>
      <trkpt lat="43.21297" lon="2.03152">
        <ele>219.4</ele>
        <time>2026-05-27T11:46:34Z</time>
      </trkpt>
      <trkpt lat="43.21293" lon="2.03155">
        <ele>219.3</ele>
        <time>2026-05-27T11:46:39Z</time>
      </trkpt>
      <trkpt lat="43.2129" lon="2.03161">
        <ele>219.2</ele>
        <time>2026-05-27T11:46:44Z</time>
      </trkpt>
      <trkpt lat="43.21287" lon="2.03166">
        <ele>219</ele>
        <time>2026-05-27T11:46:49Z</time>
      </trkpt>
      <trkpt lat="43.21284" lon="2.0317">
        <ele>218.9</ele>
        <time>2026-05-27T11:46:54Z</time>
      </trkpt>
      <trkpt lat="43.2128" lon="2.03176">
        <ele>218.7</ele>
        <time>2026-05-27T11:46:59Z</time>
      </trkpt>
      <trkpt lat="43.21277" lon="2.03181">
        <ele>218.5</ele>
        <time>2026-05-27T11:47:04Z</time>
      </trkpt>
      <trkpt lat="43.21271" lon="2.03185">
        <ele>218.3</ele>
        <time>2026-05-27T11:47:09Z</time>
      </trkpt>
      <trkpt lat="43.21268" lon="2.03191">
        <ele>218</ele>
        <time>2026-05-27T11:47:14Z</time>
      </trkpt>
      <trkpt lat="43.21263" lon="2.03195">
        <ele>217.8</ele>
        <time>2026-05-27T11:47:19Z</time>
      </trkpt>
      <trkpt lat="43.21258" lon="2.03199">
        <ele>217.6</ele>
        <time>2026-05-27T11:47:24Z</time>
      </trkpt>
      <trkpt lat="43.21252" lon="2.03202">
        <ele>217.3</ele>
        <time>2026-05-27T11:47:29Z</time>
      </trkpt>
      <trkpt lat="43.21246" lon="2.03204">
        <ele>217.3</ele>
        <time>2026-05-27T11:47:34Z</time>
      </trkpt>
      <trkpt lat="43.2124" lon="2.03204">
        <ele>217.4</ele>
        <time>2026-05-27T11:47:39Z</time>
      </trkpt>
      <trkpt lat="43.21235" lon="2.03199">
        <ele>217.7</ele>
        <time>2026-05-27T11:47:44Z</time>
      </trkpt>
      <trkpt lat="43.21231" lon="2.03194">
        <ele>218</ele>
        <time>2026-05-27T11:47:49Z</time>
      </trkpt>
      <trkpt lat="43.21225" lon="2.0319">
        <ele>218.3</ele>
        <time>2026-05-27T11:47:54Z</time>
      </trkpt>
      <trkpt lat="43.21218" lon="2.03188">
        <ele>218.5</ele>
        <time>2026-05-27T11:47:59Z</time>
      </trkpt>
      <trkpt lat="43.21212" lon="2.0319">
        <ele>218.5</ele>
        <time>2026-05-27T11:48:04Z</time>
      </trkpt>
      <trkpt lat="43.21205" lon="2.03193">
        <ele>218.4</ele>
        <time>2026-05-27T11:48:09Z</time>
      </trkpt>
      <trkpt lat="43.21199" lon="2.03195">
        <ele>218.5</ele>
        <time>2026-05-27T11:48:14Z</time>
      </trkpt>
      <trkpt lat="43.21193" lon="2.03197">
        <ele>218.5</ele>
        <time>2026-05-27T11:48:19Z</time>
      </trkpt>
      <trkpt lat="43.21187" lon="2.032">
        <ele>218.5</ele>
        <time>2026-05-27T11:48:24Z</time>
      </trkpt>
      <trkpt lat="43.21181" lon="2.03202">
        <ele>218.5</ele>
        <time>2026-05-27T11:48:29Z</time>
      </trkpt>
      <trkpt lat="43.21175" lon="2.03205">
        <ele>218.5</ele>
        <time>2026-05-27T11:48:34Z</time>
      </trkpt>
      <trkpt lat="43.21168" lon="2.03208">
        <ele>218.5</ele>
        <time>2026-05-27T11:48:39Z</time>
      </trkpt>
      <trkpt lat="43.21162" lon="2.03209">
        <ele>218.9</ele>
        <time>2026-05-27T11:48:44Z</time>
      </trkpt>
      <trkpt lat="43.21156" lon="2.03211">
        <ele>219.3</ele>
        <time>2026-05-27T11:48:49Z</time>
      </trkpt>
      <trkpt lat="43.21149" lon="2.03213">
        <ele>219.8</ele>
        <time>2026-05-27T11:48:54Z</time>
      </trkpt>
      <trkpt lat="43.21143" lon="2.03214">
        <ele>220.2</ele>
        <time>2026-05-27T11:48:59Z</time>
      </trkpt>
      <trkpt lat="43.21137" lon="2.03215">
        <ele>220.6</ele>
        <time>2026-05-27T11:49:04Z</time>
      </trkpt>
      <trkpt lat="43.2113" lon="2.03217">
        <ele>221.1</ele>
        <time>2026-05-27T11:49:09Z</time>
      </trkpt>
      <trkpt lat="43.21124" lon="2.03218">
        <ele>221.5</ele>
        <time>2026-05-27T11:49:14Z</time>
      </trkpt>
      <trkpt lat="43.21117" lon="2.0322">
        <ele>221.9</ele>
        <time>2026-05-27T11:49:19Z</time>
      </trkpt>
      <trkpt lat="43.21111" lon="2.03223">
        <ele>222.2</ele>
        <time>2026-05-27T11:49:24Z</time>
      </trkpt>
      <trkpt lat="43.21105" lon="2.03224">
        <ele>222.6</ele>
        <time>2026-05-27T11:49:29Z</time>
      </trkpt>
      <trkpt lat="43.21099" lon="2.03225">
        <ele>222.9</ele>
        <time>2026-05-27T11:49:34Z</time>
      </trkpt>
      <trkpt lat="43.21096" lon="2.03228">
        <ele>222.9</ele>
        <time>2026-05-27T11:49:39Z</time>
      </trkpt>
      <trkpt lat="43.21095" lon="2.03228">
        <ele>223</ele>
        <time>2026-05-27T11:49:44Z</time>
      </trkpt>
      <trkpt lat="43.21095" lon="2.03228">
        <ele>223</ele>
        <time>2026-05-27T11:49:49Z</time>
      </trkpt>
      <trkpt lat="43.21095" lon="2.03228">
        <ele>223</ele>
        <time>2026-05-27T11:49:54Z</time>
      </trkpt>
      <trkpt lat="43.21095" lon="2.03228">
        <ele>223</ele>
        <time>2026-05-27T11:49:59Z</time>
      </trkpt>
      <trkpt lat="43.21095" lon="2.03228">
        <ele>223</ele>
        <time>2026-05-27T11:50:04Z</time>
      </trkpt>
      <trkpt lat="43.21095" lon="2.03228">
        <ele>223</ele>
        <time>2026-05-27T11:50:09Z</time>
      </trkpt>
      <trkpt lat="43.21095" lon="2.03228">
        <ele>223</ele>
        <time>2026-05-27T11:50:14Z</time>
      </trkpt>
      <trkpt lat="43.21095" lon="2.03228">
        <ele>223</ele>
        <time>2026-05-27T11:50:19Z</time>
      </trkpt>
      <trkpt lat="43.21095" lon="2.03228">
        <ele>223</ele>
        <time>2026-05-27T11:50:24Z</time>
      </trkpt>
      <trkpt lat="43.21095" lon="2.03228">
        <ele>223</ele>
        <time>2026-05-27T11:50:29Z</time>
      </trkpt>
      <trkpt lat="43.21095" lon="2.03228">
        <ele>223</ele>
        <time>2026-05-27T11:50:34Z</time>
      </trkpt>
      <trkpt lat="43.21095" lon="2.03228">
        <ele>223</ele>
        <time>2026-05-27T11:50:39Z</time>
      </trkpt>
      <trkpt lat="43.21089" lon="2.03227">
        <ele>223.5</ele>
        <time>2026-05-27T11:50:44Z</time>
      </trkpt>
      <trkpt lat="43.21087" lon="2.03227">
        <ele>223.7</ele>
        <time>2026-05-27T11:50:49Z</time>
      </trkpt>
      <trkpt lat="43.21086" lon="2.03227">
        <ele>223.7</ele>
        <time>2026-05-27T11:50:54Z</time>
      </trkpt>
      <trkpt lat="43.21081" lon="2.03229">
        <ele>223.9</ele>
        <time>2026-05-27T11:50:59Z</time>
      </trkpt>
      <trkpt lat="43.21076" lon="2.03229">
        <ele>224.2</ele>
        <time>2026-05-27T11:51:04Z</time>
      </trkpt>
      <trkpt lat="43.2107" lon="2.03231">
        <ele>224.4</ele>
        <time>2026-05-27T11:51:09Z</time>
      </trkpt>
      <trkpt lat="43.21065" lon="2.03233">
        <ele>224.6</ele>
        <time>2026-05-27T11:51:14Z</time>
      </trkpt>
      <trkpt lat="43.21059" lon="2.03234">
        <ele>224.9</ele>
        <time>2026-05-27T11:51:19Z</time>
      </trkpt>
      <trkpt lat="43.21053" lon="2.03237">
        <ele>225</ele>
        <time>2026-05-27T11:51:24Z</time>
      </trkpt>
      <trkpt lat="43.21047" lon="2.03238">
        <ele>225.3</ele>
        <time>2026-05-27T11:51:29Z</time>
      </trkpt>
      <trkpt lat="43.21041" lon="2.0324">
        <ele>225.4</ele>
        <time>2026-05-27T11:51:34Z</time>
      </trkpt>
      <trkpt lat="43.21035" lon="2.03243">
        <ele>225.5</ele>
        <time>2026-05-27T11:51:39Z</time>
      </trkpt>
      <trkpt lat="43.2103" lon="2.03244">
        <ele>225.8</ele>
        <time>2026-05-27T11:51:44Z</time>
      </trkpt>
      <trkpt lat="43.21024" lon="2.03245">
        <ele>226</ele>
        <time>2026-05-27T11:51:49Z</time>
      </trkpt>
      <trkpt lat="43.21019" lon="2.03246">
        <ele>226.2</ele>
        <time>2026-05-27T11:51:54Z</time>
      </trkpt>
      <trkpt lat="43.21013" lon="2.03246">
        <ele>226.6</ele>
        <time>2026-05-27T11:51:59Z</time>
      </trkpt>
      <trkpt lat="43.21007" lon="2.03246">
        <ele>227</ele>
        <time>2026-05-27T11:52:04Z</time>
      </trkpt>
      <trkpt lat="43.21001" lon="2.03246">
        <ele>227.3</ele>
        <time>2026-05-27T11:52:09Z</time>
      </trkpt>
      <trkpt lat="43.20995" lon="2.03246">
        <ele>228</ele>
        <time>2026-05-27T11:52:14Z</time>
      </trkpt>
      <trkpt lat="43.20989" lon="2.03246">
        <ele>228.7</ele>
        <time>2026-05-27T11:52:19Z</time>
      </trkpt>
      <trkpt lat="43.20983" lon="2.03248">
        <ele>229.2</ele>
        <time>2026-05-27T11:52:24Z</time>
      </trkpt>
      <trkpt lat="43.20978" lon="2.0325">
        <ele>229.6</ele>
        <time>2026-05-27T11:52:29Z</time>
      </trkpt>
      <trkpt lat="43.20972" lon="2.03252">
        <ele>230.3</ele>
        <time>2026-05-27T11:52:34Z</time>
      </trkpt>
      <trkpt lat="43.20967" lon="2.03255">
        <ele>230.7</ele>
        <time>2026-05-27T11:52:39Z</time>
      </trkpt>
      <trkpt lat="43.20962" lon="2.03258">
        <ele>231.1</ele>
        <time>2026-05-27T11:52:44Z</time>
      </trkpt>
      <trkpt lat="43.20956" lon="2.03261">
        <ele>231.7</ele>
        <time>2026-05-27T11:52:49Z</time>
      </trkpt>
      <trkpt lat="43.20951" lon="2.03264">
        <ele>232.1</ele>
        <time>2026-05-27T11:52:54Z</time>
      </trkpt>
      <trkpt lat="43.20946" lon="2.03268">
        <ele>232.4</ele>
        <time>2026-05-27T11:52:59Z</time>
      </trkpt>
      <trkpt lat="43.20942" lon="2.03271">
        <ele>232.7</ele>
        <time>2026-05-27T11:53:04Z</time>
      </trkpt>
      <trkpt lat="43.20937" lon="2.03273">
        <ele>233.1</ele>
        <time>2026-05-27T11:53:09Z</time>
      </trkpt>
      <trkpt lat="43.20933" lon="2.03276">
        <ele>233.4</ele>
        <time>2026-05-27T11:53:14Z</time>
      </trkpt>
      <trkpt lat="43.20929" lon="2.03278">
        <ele>233.7</ele>
        <time>2026-05-27T11:53:19Z</time>
      </trkpt>
      <trkpt lat="43.20925" lon="2.0328">
        <ele>233.9</ele>
        <time>2026-05-27T11:53:24Z</time>
      </trkpt>
      <trkpt lat="43.2092" lon="2.03281">
        <ele>234.4</ele>
        <time>2026-05-27T11:53:29Z</time>
      </trkpt>
      <trkpt lat="43.20916" lon="2.03284">
        <ele>234.6</ele>
        <time>2026-05-27T11:53:34Z</time>
      </trkpt>
      <trkpt lat="43.20911" lon="2.03285">
        <ele>234.8</ele>
        <time>2026-05-27T11:53:39Z</time>
      </trkpt>
      <trkpt lat="43.20906" lon="2.03287">
        <ele>234.9</ele>
        <time>2026-05-27T11:53:44Z</time>
      </trkpt>
      <trkpt lat="43.20901" lon="2.03286">
        <ele>235.2</ele>
        <time>2026-05-27T11:53:49Z</time>
      </trkpt>
      <trkpt lat="43.20896" lon="2.03285">
        <ele>235.6</ele>
        <time>2026-05-27T11:53:54Z</time>
      </trkpt>
      <trkpt lat="43.20891" lon="2.03283">
        <ele>236</ele>
        <time>2026-05-27T11:53:59Z</time>
      </trkpt>
      <trkpt lat="43.20886" lon="2.03282">
        <ele>236.3</ele>
        <time>2026-05-27T11:54:04Z</time>
      </trkpt>
      <trkpt lat="43.20881" lon="2.0328">
        <ele>236.7</ele>
        <time>2026-05-27T11:54:09Z</time>
      </trkpt>
      <trkpt lat="43.20877" lon="2.03279">
        <ele>237</ele>
        <time>2026-05-27T11:54:14Z</time>
      </trkpt>
      <trkpt lat="43.20874" lon="2.03277">
        <ele>237.3</ele>
        <time>2026-05-27T11:54:19Z</time>
      </trkpt>
      <trkpt lat="43.20869" lon="2.03276">
        <ele>237.6</ele>
        <time>2026-05-27T11:54:24Z</time>
      </trkpt>
      <trkpt lat="43.20866" lon="2.03274">
        <ele>237.9</ele>
        <time>2026-05-27T11:54:29Z</time>
      </trkpt>
      <trkpt lat="43.20862" lon="2.03272">
        <ele>238.2</ele>
        <time>2026-05-27T11:54:34Z</time>
      </trkpt>
      <trkpt lat="43.20859" lon="2.03271">
        <ele>238.4</ele>
        <time>2026-05-27T11:54:39Z</time>
      </trkpt>
      <trkpt lat="43.20855" lon="2.03271">
        <ele>238.6</ele>
        <time>2026-05-27T11:54:44Z</time>
      </trkpt>
      <trkpt lat="43.20852" lon="2.03269">
        <ele>238.9</ele>
        <time>2026-05-27T11:54:49Z</time>
      </trkpt>
      <trkpt lat="43.20848" lon="2.03267">
        <ele>239.2</ele>
        <time>2026-05-27T11:54:54Z</time>
      </trkpt>
      <trkpt lat="43.20843" lon="2.03265">
        <ele>239.6</ele>
        <time>2026-05-27T11:54:59Z</time>
      </trkpt>
      <trkpt lat="43.20839" lon="2.03264">
        <ele>239.9</ele>
        <time>2026-05-27T11:55:04Z</time>
      </trkpt>
      <trkpt lat="43.20834" lon="2.03263">
        <ele>240.2</ele>
        <time>2026-05-27T11:55:09Z</time>
      </trkpt>
      <trkpt lat="43.20828" lon="2.03263">
        <ele>239.8</ele>
        <time>2026-05-27T11:55:14Z</time>
      </trkpt>
      <trkpt lat="43.20824" lon="2.03261">
        <ele>239.6</ele>
        <time>2026-05-27T11:55:19Z</time>
      </trkpt>
      <trkpt lat="43.20819" lon="2.03262">
        <ele>239.2</ele>
        <time>2026-05-27T11:55:24Z</time>
      </trkpt>
      <trkpt lat="43.20814" lon="2.03262">
        <ele>238.8</ele>
        <time>2026-05-27T11:55:29Z</time>
      </trkpt>
      <trkpt lat="43.2081" lon="2.03263">
        <ele>238.5</ele>
        <time>2026-05-27T11:55:34Z</time>
      </trkpt>
      <trkpt lat="43.2081" lon="2.03263">
        <ele>238.5</ele>
        <time>2026-05-27T11:55:39Z</time>
      </trkpt>
      <trkpt lat="43.2081" lon="2.03263">
        <ele>238.5</ele>
        <time>2026-05-27T11:55:44Z</time>
      </trkpt>
      <trkpt lat="43.2081" lon="2.03263">
        <ele>238.5</ele>
        <time>2026-05-27T11:55:49Z</time>
      </trkpt>
      <trkpt lat="43.2081" lon="2.03263">
        <ele>238.5</ele>
        <time>2026-05-27T11:55:54Z</time>
      </trkpt>
      <trkpt lat="43.2081" lon="2.03263">
        <ele>238.5</ele>
        <time>2026-05-27T11:55:59Z</time>
      </trkpt>
      <trkpt lat="43.20808" lon="2.03265">
        <ele>238.3</ele>
        <time>2026-05-27T11:56:04Z</time>
      </trkpt>
      <trkpt lat="43.20804" lon="2.03266">
        <ele>238</ele>
        <time>2026-05-27T11:56:09Z</time>
      </trkpt>
      <trkpt lat="43.20802" lon="2.03267">
        <ele>237.8</ele>
        <time>2026-05-27T11:56:14Z</time>
      </trkpt>
      <trkpt lat="43.20801" lon="2.03268">
        <ele>237.7</ele>
        <time>2026-05-27T11:56:19Z</time>
      </trkpt>
      <trkpt lat="43.208" lon="2.03269">
        <ele>237.7</ele>
        <time>2026-05-27T11:56:24Z</time>
      </trkpt>
      <trkpt lat="43.20795" lon="2.03271">
        <ele>237.3</ele>
        <time>2026-05-27T11:56:29Z</time>
      </trkpt>
      <trkpt lat="43.2079" lon="2.03275">
        <ele>237.1</ele>
        <time>2026-05-27T11:56:34Z</time>
      </trkpt>
      <trkpt lat="43.20785" lon="2.03278">
        <ele>236.8</ele>
        <time>2026-05-27T11:56:39Z</time>
      </trkpt>
      <trkpt lat="43.20781" lon="2.03281">
        <ele>236.7</ele>
        <time>2026-05-27T11:56:44Z</time>
      </trkpt>
      <trkpt lat="43.20777" lon="2.03285">
        <ele>236.6</ele>
        <time>2026-05-27T11:56:49Z</time>
      </trkpt>
      <trkpt lat="43.20772" lon="2.03292">
        <ele>236.7</ele>
        <time>2026-05-27T11:56:54Z</time>
      </trkpt>
      <trkpt lat="43.20767" lon="2.03297">
        <ele>236.8</ele>
        <time>2026-05-27T11:56:59Z</time>
      </trkpt>
      <trkpt lat="43.20763" lon="2.03302">
        <ele>236.9</ele>
        <time>2026-05-27T11:57:04Z</time>
      </trkpt>
      <trkpt lat="43.20757" lon="2.03306">
        <ele>237.1</ele>
        <time>2026-05-27T11:57:09Z</time>
      </trkpt>
      <trkpt lat="43.20752" lon="2.0331">
        <ele>237.3</ele>
        <time>2026-05-27T11:57:14Z</time>
      </trkpt>
      <trkpt lat="43.20747" lon="2.03312">
        <ele>237.1</ele>
        <time>2026-05-27T11:57:19Z</time>
      </trkpt>
      <trkpt lat="43.20741" lon="2.03313">
        <ele>236.6</ele>
        <time>2026-05-27T11:57:24Z</time>
      </trkpt>
      <trkpt lat="43.20735" lon="2.03313">
        <ele>236</ele>
        <time>2026-05-27T11:57:29Z</time>
      </trkpt>
      <trkpt lat="43.20729" lon="2.03314">
        <ele>235.4</ele>
        <time>2026-05-27T11:57:34Z</time>
      </trkpt>
      <trkpt lat="43.20722" lon="2.03315">
        <ele>234.8</ele>
        <time>2026-05-27T11:57:39Z</time>
      </trkpt>
      <trkpt lat="43.20716" lon="2.03317">
        <ele>234.3</ele>
        <time>2026-05-27T11:57:44Z</time>
      </trkpt>
      <trkpt lat="43.2071" lon="2.03316">
        <ele>233.6</ele>
        <time>2026-05-27T11:57:49Z</time>
      </trkpt>
      <trkpt lat="43.20704" lon="2.03314">
        <ele>232.8</ele>
        <time>2026-05-27T11:57:54Z</time>
      </trkpt>
      <trkpt lat="43.20699" lon="2.03311">
        <ele>232</ele>
        <time>2026-05-27T11:57:59Z</time>
      </trkpt>
      <trkpt lat="43.20693" lon="2.03307">
        <ele>231</ele>
        <time>2026-05-27T11:58:04Z</time>
      </trkpt>
      <trkpt lat="43.20686" lon="2.03302">
        <ele>229.7</ele>
        <time>2026-05-27T11:58:09Z</time>
      </trkpt>
      <trkpt lat="43.20684" lon="2.033">
        <ele>229.3</ele>
        <time>2026-05-27T11:58:14Z</time>
      </trkpt>
      <trkpt lat="43.20684" lon="2.033">
        <ele>229.3</ele>
        <time>2026-05-27T11:58:19Z</time>
      </trkpt>
      <trkpt lat="43.20684" lon="2.03299">
        <ele>229.2</ele>
        <time>2026-05-27T11:58:24Z</time>
      </trkpt>
      <trkpt lat="43.20684" lon="2.03299">
        <ele>229.2</ele>
        <time>2026-05-27T11:58:29Z</time>
      </trkpt>
      <trkpt lat="43.20684" lon="2.03299">
        <ele>229.2</ele>
        <time>2026-05-27T11:58:34Z</time>
      </trkpt>
      <trkpt lat="43.20681" lon="2.033">
        <ele>229</ele>
        <time>2026-05-27T11:58:39Z</time>
      </trkpt>
      <trkpt lat="43.20677" lon="2.033">
        <ele>228.5</ele>
        <time>2026-05-27T11:58:44Z</time>
      </trkpt>
      <trkpt lat="43.20672" lon="2.03299">
        <ele>227.9</ele>
        <time>2026-05-27T11:58:49Z</time>
      </trkpt>
      <trkpt lat="43.20667" lon="2.03296">
        <ele>227</ele>
        <time>2026-05-27T11:58:54Z</time>
      </trkpt>
      <trkpt lat="43.20661" lon="2.03296">
        <ele>226.4</ele>
        <time>2026-05-27T11:58:59Z</time>
      </trkpt>
      <trkpt lat="43.20654" lon="2.03294">
        <ele>225.5</ele>
        <time>2026-05-27T11:59:04Z</time>
      </trkpt>
      <trkpt lat="43.20647" lon="2.03291">
        <ele>224.6</ele>
        <time>2026-05-27T11:59:09Z</time>
      </trkpt>
      <trkpt lat="43.2064" lon="2.03289">
        <ele>223.7</ele>
        <time>2026-05-27T11:59:14Z</time>
      </trkpt>
      <trkpt lat="43.20633" lon="2.03287">
        <ele>222.9</ele>
        <time>2026-05-27T11:59:19Z</time>
      </trkpt>
      <trkpt lat="43.20628" lon="2.03285">
        <ele>222.4</ele>
        <time>2026-05-27T11:59:24Z</time>
      </trkpt>
      <trkpt lat="43.20624" lon="2.03284">
        <ele>222</ele>
        <time>2026-05-27T11:59:29Z</time>
      </trkpt>
      <trkpt lat="43.20624" lon="2.03283">
        <ele>221.9</ele>
        <time>2026-05-27T11:59:34Z</time>
      </trkpt>
      <trkpt lat="43.20624" lon="2.03283">
        <ele>221.9</ele>
        <time>2026-05-27T11:59:39Z</time>
      </trkpt>
      <trkpt lat="43.20624" lon="2.03283">
        <ele>221.9</ele>
        <time>2026-05-27T11:59:44Z</time>
      </trkpt>
      <trkpt lat="43.20624" lon="2.03283">
        <ele>221.9</ele>
        <time>2026-05-27T11:59:49Z</time>
      </trkpt>
      <trkpt lat="43.20624" lon="2.03283">
        <ele>221.9</ele>
        <time>2026-05-27T11:59:54Z</time>
      </trkpt>
      <trkpt lat="43.20624" lon="2.03283">
        <ele>221.9</ele>
        <time>2026-05-27T11:59:59Z</time>
      </trkpt>
      <trkpt lat="43.20617" lon="2.03282">
        <ele>221.2</ele>
        <time>2026-05-27T12:00:04Z</time>
      </trkpt>
      <trkpt lat="43.20613" lon="2.03282">
        <ele>220.9</ele>
        <time>2026-05-27T12:00:09Z</time>
      </trkpt>
      <trkpt lat="43.20612" lon="2.03282">
        <ele>220.8</ele>
        <time>2026-05-27T12:00:14Z</time>
      </trkpt>
      <trkpt lat="43.20612" lon="2.03282">
        <ele>220.8</ele>
        <time>2026-05-27T12:00:19Z</time>
      </trkpt>
      <trkpt lat="43.20612" lon="2.03282">
        <ele>220.8</ele>
        <time>2026-05-27T12:00:24Z</time>
      </trkpt>
      <trkpt lat="43.20612" lon="2.03282">
        <ele>220.8</ele>
        <time>2026-05-27T12:00:29Z</time>
      </trkpt>
      <trkpt lat="43.20607" lon="2.03285">
        <ele>220.5</ele>
        <time>2026-05-27T12:00:34Z</time>
      </trkpt>
      <trkpt lat="43.20602" lon="2.0329">
        <ele>220.2</ele>
        <time>2026-05-27T12:00:39Z</time>
      </trkpt>
      <trkpt lat="43.20597" lon="2.0329">
        <ele>219.8</ele>
        <time>2026-05-27T12:00:44Z</time>
      </trkpt>
      <trkpt lat="43.20591" lon="2.03295">
        <ele>219.3</ele>
        <time>2026-05-27T12:00:49Z</time>
      </trkpt>
      <trkpt lat="43.20585" lon="2.03298">
        <ele>218.7</ele>
        <time>2026-05-27T12:00:54Z</time>
      </trkpt>
      <trkpt lat="43.20579" lon="2.03302">
        <ele>218.4</ele>
        <time>2026-05-27T12:00:59Z</time>
      </trkpt>
      <trkpt lat="43.20575" lon="2.03306">
        <ele>218.1</ele>
        <time>2026-05-27T12:01:04Z</time>
      </trkpt>
      <trkpt lat="43.2057" lon="2.03311">
        <ele>217.8</ele>
        <time>2026-05-27T12:01:09Z</time>
      </trkpt>
      <trkpt lat="43.20566" lon="2.03316">
        <ele>217.6</ele>
        <time>2026-05-27T12:01:14Z</time>
      </trkpt>
      <trkpt lat="43.2056" lon="2.03322">
        <ele>217.1</ele>
        <time>2026-05-27T12:01:19Z</time>
      </trkpt>
      <trkpt lat="43.20554" lon="2.03329">
        <ele>216.6</ele>
        <time>2026-05-27T12:01:24Z</time>
      </trkpt>
      <trkpt lat="43.20546" lon="2.03334">
        <ele>215.9</ele>
        <time>2026-05-27T12:01:29Z</time>
      </trkpt>
      <trkpt lat="43.2054" lon="2.03338">
        <ele>215.8</ele>
        <time>2026-05-27T12:01:34Z</time>
      </trkpt>
      <trkpt lat="43.20534" lon="2.03343">
        <ele>215.8</ele>
        <time>2026-05-27T12:01:39Z</time>
      </trkpt>
      <trkpt lat="43.20528" lon="2.03348">
        <ele>215.8</ele>
        <time>2026-05-27T12:01:44Z</time>
      </trkpt>
      <trkpt lat="43.20521" lon="2.03354">
        <ele>215.7</ele>
        <time>2026-05-27T12:01:49Z</time>
      </trkpt>
      <trkpt lat="43.20515" lon="2.03358">
        <ele>215.5</ele>
        <time>2026-05-27T12:01:54Z</time>
      </trkpt>
      <trkpt lat="43.20509" lon="2.03362">
        <ele>215.3</ele>
        <time>2026-05-27T12:01:59Z</time>
      </trkpt>
      <trkpt lat="43.20504" lon="2.03367">
        <ele>215.2</ele>
        <time>2026-05-27T12:02:04Z</time>
      </trkpt>
      <trkpt lat="43.20497" lon="2.03371">
        <ele>215</ele>
        <time>2026-05-27T12:02:09Z</time>
      </trkpt>
      <trkpt lat="43.20491" lon="2.03373">
        <ele>214.9</ele>
        <time>2026-05-27T12:02:14Z</time>
      </trkpt>
      <trkpt lat="43.20485" lon="2.03377">
        <ele>215.1</ele>
        <time>2026-05-27T12:02:19Z</time>
      </trkpt>
      <trkpt lat="43.20479" lon="2.0338">
        <ele>215.1</ele>
        <time>2026-05-27T12:02:24Z</time>
      </trkpt>
      <trkpt lat="43.20473" lon="2.03382">
        <ele>215.1</ele>
        <time>2026-05-27T12:02:29Z</time>
      </trkpt>
      <trkpt lat="43.20466" lon="2.03385">
        <ele>215.2</ele>
        <time>2026-05-27T12:02:34Z</time>
      </trkpt>
      <trkpt lat="43.2046" lon="2.03389">
        <ele>215.4</ele>
        <time>2026-05-27T12:02:39Z</time>
      </trkpt>
      <trkpt lat="43.20454" lon="2.03394">
        <ele>215.8</ele>
        <time>2026-05-27T12:02:44Z</time>
      </trkpt>
      <trkpt lat="43.20448" lon="2.03398">
        <ele>216.1</ele>
        <time>2026-05-27T12:02:49Z</time>
      </trkpt>
      <trkpt lat="43.20441" lon="2.03402">
        <ele>216.4</ele>
        <time>2026-05-27T12:02:54Z</time>
      </trkpt>
      <trkpt lat="43.20434" lon="2.03406">
        <ele>216.8</ele>
        <time>2026-05-27T12:02:59Z</time>
      </trkpt>
      <trkpt lat="43.20428" lon="2.03409">
        <ele>217.1</ele>
        <time>2026-05-27T12:03:04Z</time>
      </trkpt>
      <trkpt lat="43.20422" lon="2.03412">
        <ele>217.4</ele>
        <time>2026-05-27T12:03:09Z</time>
      </trkpt>
      <trkpt lat="43.20415" lon="2.03413">
        <ele>217.2</ele>
        <time>2026-05-27T12:03:14Z</time>
      </trkpt>
      <trkpt lat="43.20408" lon="2.03412">
        <ele>216.1</ele>
        <time>2026-05-27T12:03:19Z</time>
      </trkpt>
      <trkpt lat="43.20402" lon="2.03407">
        <ele>214.6</ele>
        <time>2026-05-27T12:03:24Z</time>
      </trkpt>
      <trkpt lat="43.20399" lon="2.03402">
        <ele>213.6</ele>
        <time>2026-05-27T12:03:29Z</time>
      </trkpt>
      <trkpt lat="43.20394" lon="2.03397">
        <ele>212.3</ele>
        <time>2026-05-27T12:03:34Z</time>
      </trkpt>
      <trkpt lat="43.20389" lon="2.03393">
        <ele>211.2</ele>
        <time>2026-05-27T12:03:39Z</time>
      </trkpt>
      <trkpt lat="43.20384" lon="2.03387">
        <ele>209.9</ele>
        <time>2026-05-27T12:03:44Z</time>
      </trkpt>
      <trkpt lat="43.20378" lon="2.03382">
        <ele>208.6</ele>
        <time>2026-05-27T12:03:49Z</time>
      </trkpt>
      <trkpt lat="43.20373" lon="2.03379">
        <ele>207.7</ele>
        <time>2026-05-27T12:03:54Z</time>
      </trkpt>
      <trkpt lat="43.20367" lon="2.03374">
        <ele>206.5</ele>
        <time>2026-05-27T12:03:59Z</time>
      </trkpt>
      <trkpt lat="43.20361" lon="2.0337">
        <ele>205.5</ele>
        <time>2026-05-27T12:04:04Z</time>
      </trkpt>
      <trkpt lat="43.20355" lon="2.03365">
        <ele>204.4</ele>
        <time>2026-05-27T12:04:09Z</time>
      </trkpt>
      <trkpt lat="43.20347" lon="2.0336">
        <ele>203.2</ele>
        <time>2026-05-27T12:04:14Z</time>
      </trkpt>
      <trkpt lat="43.20341" lon="2.03356">
        <ele>202.3</ele>
        <time>2026-05-27T12:04:19Z</time>
      </trkpt>
      <trkpt lat="43.20334" lon="2.03352">
        <ele>201.4</ele>
        <time>2026-05-27T12:04:24Z</time>
      </trkpt>
      <trkpt lat="43.20327" lon="2.03349">
        <ele>200.6</ele>
        <time>2026-05-27T12:04:29Z</time>
      </trkpt>
      <trkpt lat="43.2032" lon="2.03346">
        <ele>199.9</ele>
        <time>2026-05-27T12:04:34Z</time>
      </trkpt>
      <trkpt lat="43.20314" lon="2.03345">
        <ele>199.5</ele>
        <time>2026-05-27T12:04:39Z</time>
      </trkpt>
      <trkpt lat="43.2031" lon="2.03343">
        <ele>199.1</ele>
        <time>2026-05-27T12:04:44Z</time>
      </trkpt>
      <trkpt lat="43.20305" lon="2.03342">
        <ele>198.7</ele>
        <time>2026-05-27T12:04:49Z</time>
      </trkpt>
      <trkpt lat="43.20298" lon="2.03342">
        <ele>198.2</ele>
        <time>2026-05-27T12:04:54Z</time>
      </trkpt>
      <trkpt lat="43.20292" lon="2.0334">
        <ele>197.7</ele>
        <time>2026-05-27T12:04:59Z</time>
      </trkpt>
      <trkpt lat="43.20287" lon="2.03339">
        <ele>197.4</ele>
        <time>2026-05-27T12:05:04Z</time>
      </trkpt>
      <trkpt lat="43.20279" lon="2.03338">
        <ele>196.8</ele>
        <time>2026-05-27T12:05:09Z</time>
      </trkpt>
      <trkpt lat="43.20271" lon="2.03338">
        <ele>196.3</ele>
        <time>2026-05-27T12:05:14Z</time>
      </trkpt>
      <trkpt lat="43.20264" lon="2.03339">
        <ele>195.9</ele>
        <time>2026-05-27T12:05:19Z</time>
      </trkpt>
      <trkpt lat="43.20258" lon="2.03341">
        <ele>195.4</ele>
        <time>2026-05-27T12:05:24Z</time>
      </trkpt>
      <trkpt lat="43.20251" lon="2.03345">
        <ele>194.9</ele>
        <time>2026-05-27T12:05:29Z</time>
      </trkpt>
      <trkpt lat="43.20245" lon="2.03347">
        <ele>194.9</ele>
        <time>2026-05-27T12:05:34Z</time>
      </trkpt>
      <trkpt lat="43.20239" lon="2.03349">
        <ele>195.1</ele>
        <time>2026-05-27T12:05:39Z</time>
      </trkpt>
      <trkpt lat="43.20233" lon="2.03353">
        <ele>195.1</ele>
        <time>2026-05-27T12:05:44Z</time>
      </trkpt>
      <trkpt lat="43.20227" lon="2.03357">
        <ele>195.2</ele>
        <time>2026-05-27T12:05:49Z</time>
      </trkpt>
      <trkpt lat="43.20221" lon="2.0336">
        <ele>195.3</ele>
        <time>2026-05-27T12:05:54Z</time>
      </trkpt>
      <trkpt lat="43.20217" lon="2.03364">
        <ele>195.3</ele>
        <time>2026-05-27T12:05:59Z</time>
      </trkpt>
      <trkpt lat="43.20214" lon="2.03364">
        <ele>195.3</ele>
        <time>2026-05-27T12:06:04Z</time>
      </trkpt>
      <trkpt lat="43.20213" lon="2.03364">
        <ele>195.4</ele>
        <time>2026-05-27T12:06:09Z</time>
      </trkpt>
      <trkpt lat="43.20213" lon="2.03364">
        <ele>195.4</ele>
        <time>2026-05-27T12:06:14Z</time>
      </trkpt>
      <trkpt lat="43.20212" lon="2.03368">
        <ele>195.3</ele>
        <time>2026-05-27T12:06:19Z</time>
      </trkpt>
      <trkpt lat="43.20207" lon="2.03372">
        <ele>195.3</ele>
        <time>2026-05-27T12:06:24Z</time>
      </trkpt>
      <trkpt lat="43.202" lon="2.03374">
        <ele>195.4</ele>
        <time>2026-05-27T12:06:29Z</time>
      </trkpt>
      <trkpt lat="43.20194" lon="2.03373">
        <ele>195.5</ele>
        <time>2026-05-27T12:06:34Z</time>
      </trkpt>
      <trkpt lat="43.20188" lon="2.03375">
        <ele>195.6</ele>
        <time>2026-05-27T12:06:39Z</time>
      </trkpt>
      <trkpt lat="43.20182" lon="2.03376">
        <ele>195.7</ele>
        <time>2026-05-27T12:06:44Z</time>
      </trkpt>
      <trkpt lat="43.20176" lon="2.03377">
        <ele>195.8</ele>
        <time>2026-05-27T12:06:49Z</time>
      </trkpt>
      <trkpt lat="43.2017" lon="2.03379">
        <ele>195.8</ele>
        <time>2026-05-27T12:06:54Z</time>
      </trkpt>
      <trkpt lat="43.20164" lon="2.0338">
        <ele>196.2</ele>
        <time>2026-05-27T12:06:59Z</time>
      </trkpt>
      <trkpt lat="43.20158" lon="2.03381">
        <ele>196.8</ele>
        <time>2026-05-27T12:07:04Z</time>
      </trkpt>
      <trkpt lat="43.20152" lon="2.0338">
        <ele>197.5</ele>
        <time>2026-05-27T12:07:09Z</time>
      </trkpt>
      <trkpt lat="43.20145" lon="2.03381">
        <ele>198.3</ele>
        <time>2026-05-27T12:07:14Z</time>
      </trkpt>
      <trkpt lat="43.20138" lon="2.03382">
        <ele>199.1</ele>
        <time>2026-05-27T12:07:19Z</time>
      </trkpt>
      <trkpt lat="43.20132" lon="2.03383">
        <ele>199.8</ele>
        <time>2026-05-27T12:07:24Z</time>
      </trkpt>
      <trkpt lat="43.20127" lon="2.03383">
        <ele>200.4</ele>
        <time>2026-05-27T12:07:29Z</time>
      </trkpt>
      <trkpt lat="43.20121" lon="2.03385">
        <ele>201.1</ele>
        <time>2026-05-27T12:07:34Z</time>
      </trkpt>
      <trkpt lat="43.20116" lon="2.03387">
        <ele>201.7</ele>
        <time>2026-05-27T12:07:39Z</time>
      </trkpt>
      <trkpt lat="43.2011" lon="2.03387">
        <ele>202.4</ele>
        <time>2026-05-27T12:07:44Z</time>
      </trkpt>
      <trkpt lat="43.20104" lon="2.03386">
        <ele>203.1</ele>
        <time>2026-05-27T12:07:49Z</time>
      </trkpt>
      <trkpt lat="43.20098" lon="2.03385">
        <ele>203.8</ele>
        <time>2026-05-27T12:07:54Z</time>
      </trkpt>
      <trkpt lat="43.20092" lon="2.03386">
        <ele>204.5</ele>
        <time>2026-05-27T12:07:59Z</time>
      </trkpt>
      <trkpt lat="43.20085" lon="2.03387">
        <ele>205.4</ele>
        <time>2026-05-27T12:08:04Z</time>
      </trkpt>
      <trkpt lat="43.2008" lon="2.03385">
        <ele>205.5</ele>
        <time>2026-05-27T12:08:09Z</time>
      </trkpt>
      <trkpt lat="43.20075" lon="2.03383">
        <ele>205.5</ele>
        <time>2026-05-27T12:08:14Z</time>
      </trkpt>
      <trkpt lat="43.20068" lon="2.03381">
        <ele>205.6</ele>
        <time>2026-05-27T12:08:19Z</time>
      </trkpt>
      <trkpt lat="43.20062" lon="2.03378">
        <ele>205.5</ele>
        <time>2026-05-27T12:08:24Z</time>
      </trkpt>
      <trkpt lat="43.20057" lon="2.03376">
        <ele>205.5</ele>
        <time>2026-05-27T12:08:29Z</time>
      </trkpt>
      <trkpt lat="43.20051" lon="2.03374">
        <ele>205.5</ele>
        <time>2026-05-27T12:08:34Z</time>
      </trkpt>
      <trkpt lat="43.20046" lon="2.03371">
        <ele>205.5</ele>
        <time>2026-05-27T12:08:39Z</time>
      </trkpt>
      <trkpt lat="43.2004" lon="2.03368">
        <ele>205.4</ele>
        <time>2026-05-27T12:08:44Z</time>
      </trkpt>
      <trkpt lat="43.20034" lon="2.03367">
        <ele>205.4</ele>
        <time>2026-05-27T12:08:49Z</time>
      </trkpt>
      <trkpt lat="43.20029" lon="2.03365">
        <ele>205.4</ele>
        <time>2026-05-27T12:08:54Z</time>
      </trkpt>
      <trkpt lat="43.20025" lon="2.03363">
        <ele>205.4</ele>
        <time>2026-05-27T12:08:59Z</time>
      </trkpt>
      <trkpt lat="43.2002" lon="2.03365">
        <ele>205.6</ele>
        <time>2026-05-27T12:09:04Z</time>
      </trkpt>
      <trkpt lat="43.20015" lon="2.03364">
        <ele>205.6</ele>
        <time>2026-05-27T12:09:09Z</time>
      </trkpt>
      <trkpt lat="43.20009" lon="2.03363">
        <ele>205.6</ele>
        <time>2026-05-27T12:09:14Z</time>
      </trkpt>
      <trkpt lat="43.20005" lon="2.03363">
        <ele>205.7</ele>
        <time>2026-05-27T12:09:19Z</time>
      </trkpt>
      <trkpt lat="43.2" lon="2.03362">
        <ele>205.7</ele>
        <time>2026-05-27T12:09:24Z</time>
      </trkpt>
      <trkpt lat="43.19996" lon="2.03362">
        <ele>206</ele>
        <time>2026-05-27T12:09:29Z</time>
      </trkpt>
      <trkpt lat="43.19991" lon="2.03363">
        <ele>206.4</ele>
        <time>2026-05-27T12:09:34Z</time>
      </trkpt>
      <trkpt lat="43.19988" lon="2.03366">
        <ele>206.8</ele>
        <time>2026-05-27T12:09:39Z</time>
      </trkpt>
      <trkpt lat="43.19983" lon="2.03368">
        <ele>207.2</ele>
        <time>2026-05-27T12:09:44Z</time>
      </trkpt>
      <trkpt lat="43.19979" lon="2.03368">
        <ele>207.5</ele>
        <time>2026-05-27T12:09:49Z</time>
      </trkpt>
      <trkpt lat="43.19975" lon="2.03367">
        <ele>207.7</ele>
        <time>2026-05-27T12:09:54Z</time>
      </trkpt>
      <trkpt lat="43.19972" lon="2.0337">
        <ele>208.1</ele>
        <time>2026-05-27T12:09:59Z</time>
      </trkpt>
      <trkpt lat="43.19969" lon="2.03372">
        <ele>208.4</ele>
        <time>2026-05-27T12:10:04Z</time>
      </trkpt>
      <trkpt lat="43.19965" lon="2.03373">
        <ele>208.7</ele>
        <time>2026-05-27T12:10:09Z</time>
      </trkpt>
      <trkpt lat="43.19961" lon="2.03374">
        <ele>209</ele>
        <time>2026-05-27T12:10:14Z</time>
      </trkpt>
      <trkpt lat="43.19957" lon="2.03376">
        <ele>209.4</ele>
        <time>2026-05-27T12:10:19Z</time>
      </trkpt>
      <trkpt lat="43.19953" lon="2.03378">
        <ele>209.8</ele>
        <time>2026-05-27T12:10:24Z</time>
      </trkpt>
      <trkpt lat="43.19948" lon="2.03379">
        <ele>210.1</ele>
        <time>2026-05-27T12:10:29Z</time>
      </trkpt>
      <trkpt lat="43.19944" lon="2.03379">
        <ele>210.4</ele>
        <time>2026-05-27T12:10:34Z</time>
      </trkpt>
      <trkpt lat="43.19939" lon="2.03379">
        <ele>210.7</ele>
        <time>2026-05-27T12:10:39Z</time>
      </trkpt>
      <trkpt lat="43.19935" lon="2.0338">
        <ele>211</ele>
        <time>2026-05-27T12:10:44Z</time>
      </trkpt>
      <trkpt lat="43.19931" lon="2.03382">
        <ele>211.4</ele>
        <time>2026-05-27T12:10:49Z</time>
      </trkpt>
      <trkpt lat="43.19926" lon="2.03384">
        <ele>211.8</ele>
        <time>2026-05-27T12:10:54Z</time>
      </trkpt>
      <trkpt lat="43.19922" lon="2.03385">
        <ele>212.1</ele>
        <time>2026-05-27T12:10:59Z</time>
      </trkpt>
      <trkpt lat="43.19917" lon="2.03386">
        <ele>212.5</ele>
        <time>2026-05-27T12:11:04Z</time>
      </trkpt>
      <trkpt lat="43.19912" lon="2.03389">
        <ele>213.4</ele>
        <time>2026-05-27T12:11:09Z</time>
      </trkpt>
      <trkpt lat="43.19907" lon="2.03391">
        <ele>214.2</ele>
        <time>2026-05-27T12:11:14Z</time>
      </trkpt>
      <trkpt lat="43.19903" lon="2.03394">
        <ele>214.9</ele>
        <time>2026-05-27T12:11:19Z</time>
      </trkpt>
      <trkpt lat="43.19898" lon="2.03397">
        <ele>215.8</ele>
        <time>2026-05-27T12:11:24Z</time>
      </trkpt>
      <trkpt lat="43.19893" lon="2.034">
        <ele>216.6</ele>
        <time>2026-05-27T12:11:29Z</time>
      </trkpt>
      <trkpt lat="43.19888" lon="2.03401">
        <ele>217.4</ele>
        <time>2026-05-27T12:11:34Z</time>
      </trkpt>
      <trkpt lat="43.19884" lon="2.03404">
        <ele>218</ele>
        <time>2026-05-27T12:11:39Z</time>
      </trkpt>
      <trkpt lat="43.19879" lon="2.03407">
        <ele>218.8</ele>
        <time>2026-05-27T12:11:44Z</time>
      </trkpt>
      <trkpt lat="43.19875" lon="2.0341">
        <ele>219.4</ele>
        <time>2026-05-27T12:11:49Z</time>
      </trkpt>
      <trkpt lat="43.1987" lon="2.03413">
        <ele>220.1</ele>
        <time>2026-05-27T12:11:54Z</time>
      </trkpt>
      <trkpt lat="43.19865" lon="2.03416">
        <ele>220.8</ele>
        <time>2026-05-27T12:11:59Z</time>
      </trkpt>
      <trkpt lat="43.19861" lon="2.03418">
        <ele>221.4</ele>
        <time>2026-05-27T12:12:04Z</time>
      </trkpt>
      <trkpt lat="43.19856" lon="2.0342">
        <ele>222.1</ele>
        <time>2026-05-27T12:12:09Z</time>
      </trkpt>
      <trkpt lat="43.19852" lon="2.03421">
        <ele>222.6</ele>
        <time>2026-05-27T12:12:14Z</time>
      </trkpt>
      <trkpt lat="43.19848" lon="2.03423">
        <ele>223.2</ele>
        <time>2026-05-27T12:12:19Z</time>
      </trkpt>
      <trkpt lat="43.19843" lon="2.03424">
        <ele>223.8</ele>
        <time>2026-05-27T12:12:24Z</time>
      </trkpt>
      <trkpt lat="43.19837" lon="2.03425">
        <ele>224.6</ele>
        <time>2026-05-27T12:12:29Z</time>
      </trkpt>
      <trkpt lat="43.19833" lon="2.03426">
        <ele>225.1</ele>
        <time>2026-05-27T12:12:34Z</time>
      </trkpt>
      <trkpt lat="43.19828" lon="2.03428">
        <ele>225.7</ele>
        <time>2026-05-27T12:12:39Z</time>
      </trkpt>
      <trkpt lat="43.19823" lon="2.03429">
        <ele>226.3</ele>
        <time>2026-05-27T12:12:44Z</time>
      </trkpt>
      <trkpt lat="43.19818" lon="2.0343">
        <ele>226.9</ele>
        <time>2026-05-27T12:12:49Z</time>
      </trkpt>
      <trkpt lat="43.19813" lon="2.03433">
        <ele>227.5</ele>
        <time>2026-05-27T12:12:54Z</time>
      </trkpt>
      <trkpt lat="43.19808" lon="2.03434">
        <ele>228.1</ele>
        <time>2026-05-27T12:12:59Z</time>
      </trkpt>
      <trkpt lat="43.19804" lon="2.03436">
        <ele>228.6</ele>
        <time>2026-05-27T12:13:04Z</time>
      </trkpt>
      <trkpt lat="43.198" lon="2.03437">
        <ele>229.1</ele>
        <time>2026-05-27T12:13:09Z</time>
      </trkpt>
      <trkpt lat="43.19795" lon="2.03439">
        <ele>229.8</ele>
        <time>2026-05-27T12:13:14Z</time>
      </trkpt>
      <trkpt lat="43.1979" lon="2.03441">
        <ele>230.4</ele>
        <time>2026-05-27T12:13:19Z</time>
      </trkpt>
      <trkpt lat="43.19787" lon="2.03442">
        <ele>230.8</ele>
        <time>2026-05-27T12:13:24Z</time>
      </trkpt>
      <trkpt lat="43.19782" lon="2.03445">
        <ele>231.5</ele>
        <time>2026-05-27T12:13:29Z</time>
      </trkpt>
      <trkpt lat="43.19779" lon="2.03447">
        <ele>231.9</ele>
        <time>2026-05-27T12:13:34Z</time>
      </trkpt>
      <trkpt lat="43.19775" lon="2.0345">
        <ele>232.5</ele>
        <time>2026-05-27T12:13:39Z</time>
      </trkpt>
      <trkpt lat="43.19771" lon="2.03454">
        <ele>233.2</ele>
        <time>2026-05-27T12:13:44Z</time>
      </trkpt>
      <trkpt lat="43.19767" lon="2.03458">
        <ele>233.8</ele>
        <time>2026-05-27T12:13:49Z</time>
      </trkpt>
      <trkpt lat="43.19763" lon="2.03461">
        <ele>234.5</ele>
        <time>2026-05-27T12:13:54Z</time>
      </trkpt>
      <trkpt lat="43.19759" lon="2.03464">
        <ele>235.1</ele>
        <time>2026-05-27T12:13:59Z</time>
      </trkpt>
      <trkpt lat="43.19756" lon="2.03469">
        <ele>235.7</ele>
        <time>2026-05-27T12:14:04Z</time>
      </trkpt>
      <trkpt lat="43.19753" lon="2.03474">
        <ele>236.4</ele>
        <time>2026-05-27T12:14:09Z</time>
      </trkpt>
      <trkpt lat="43.19749" lon="2.03479">
        <ele>237</ele>
        <time>2026-05-27T12:14:14Z</time>
      </trkpt>
      <trkpt lat="43.19746" lon="2.03483">
        <ele>237.1</ele>
        <time>2026-05-27T12:14:19Z</time>
      </trkpt>
      <trkpt lat="43.19744" lon="2.03488">
        <ele>237.4</ele>
        <time>2026-05-27T12:14:24Z</time>
      </trkpt>
      <trkpt lat="43.19742" lon="2.03491">
        <ele>237.5</ele>
        <time>2026-05-27T12:14:29Z</time>
      </trkpt>
      <trkpt lat="43.1974" lon="2.03496">
        <ele>237.8</ele>
        <time>2026-05-27T12:14:34Z</time>
      </trkpt>
      <trkpt lat="43.19738" lon="2.035">
        <ele>238</ele>
        <time>2026-05-27T12:14:39Z</time>
      </trkpt>
      <trkpt lat="43.19735" lon="2.03504">
        <ele>238.1</ele>
        <time>2026-05-27T12:14:44Z</time>
      </trkpt>
      <trkpt lat="43.19732" lon="2.03507">
        <ele>238.2</ele>
        <time>2026-05-27T12:14:49Z</time>
      </trkpt>
      <trkpt lat="43.19729" lon="2.0351">
        <ele>238.3</ele>
        <time>2026-05-27T12:14:54Z</time>
      </trkpt>
      <trkpt lat="43.19725" lon="2.03513">
        <ele>238.4</ele>
        <time>2026-05-27T12:14:59Z</time>
      </trkpt>
      <trkpt lat="43.19722" lon="2.03515">
        <ele>238.5</ele>
        <time>2026-05-27T12:15:04Z</time>
      </trkpt>
      <trkpt lat="43.19718" lon="2.03517">
        <ele>238.6</ele>
        <time>2026-05-27T12:15:09Z</time>
      </trkpt>
      <trkpt lat="43.19714" lon="2.03519">
        <ele>238.7</ele>
        <time>2026-05-27T12:15:14Z</time>
      </trkpt>
      <trkpt lat="43.1971" lon="2.0352">
        <ele>238.8</ele>
        <time>2026-05-27T12:15:19Z</time>
      </trkpt>
      <trkpt lat="43.19706" lon="2.03522">
        <ele>239</ele>
        <time>2026-05-27T12:15:24Z</time>
      </trkpt>
      <trkpt lat="43.19702" lon="2.03524">
        <ele>239.1</ele>
        <time>2026-05-27T12:15:29Z</time>
      </trkpt>
      <trkpt lat="43.19697" lon="2.03525">
        <ele>239.3</ele>
        <time>2026-05-27T12:15:34Z</time>
      </trkpt>
      <trkpt lat="43.19692" lon="2.03528">
        <ele>239.5</ele>
        <time>2026-05-27T12:15:39Z</time>
      </trkpt>
      <trkpt lat="43.19688" lon="2.0353">
        <ele>239.7</ele>
        <time>2026-05-27T12:15:44Z</time>
      </trkpt>
      <trkpt lat="43.19684" lon="2.03532">
        <ele>239.9</ele>
        <time>2026-05-27T12:15:49Z</time>
      </trkpt>
      <trkpt lat="43.1968" lon="2.03533">
        <ele>240.1</ele>
        <time>2026-05-27T12:15:54Z</time>
      </trkpt>
      <trkpt lat="43.19676" lon="2.03535">
        <ele>240.3</ele>
        <time>2026-05-27T12:15:59Z</time>
      </trkpt>
      <trkpt lat="43.19672" lon="2.03537">
        <ele>240.5</ele>
        <time>2026-05-27T12:16:04Z</time>
      </trkpt>
      <trkpt lat="43.19668" lon="2.0354">
        <ele>240.8</ele>
        <time>2026-05-27T12:16:09Z</time>
      </trkpt>
      <trkpt lat="43.19663" lon="2.03542">
        <ele>240.9</ele>
        <time>2026-05-27T12:16:14Z</time>
      </trkpt>
      <trkpt lat="43.1966" lon="2.03544">
        <ele>240.9</ele>
        <time>2026-05-27T12:16:19Z</time>
      </trkpt>
      <trkpt lat="43.19656" lon="2.03546">
        <ele>241</ele>
        <time>2026-05-27T12:16:24Z</time>
      </trkpt>
      <trkpt lat="43.19653" lon="2.03548">
        <ele>241</ele>
        <time>2026-05-27T12:16:29Z</time>
      </trkpt>
      <trkpt lat="43.19649" lon="2.03549">
        <ele>241</ele>
        <time>2026-05-27T12:16:34Z</time>
      </trkpt>
      <trkpt lat="43.19645" lon="2.03552">
        <ele>241.1</ele>
        <time>2026-05-27T12:16:39Z</time>
      </trkpt>
      <trkpt lat="43.19643" lon="2.03555">
        <ele>241.3</ele>
        <time>2026-05-27T12:16:44Z</time>
      </trkpt>
      <trkpt lat="43.19641" lon="2.03558">
        <ele>241.5</ele>
        <time>2026-05-27T12:16:49Z</time>
      </trkpt>
      <trkpt lat="43.19638" lon="2.03562">
        <ele>241.8</ele>
        <time>2026-05-27T12:16:54Z</time>
      </trkpt>
      <trkpt lat="43.19636" lon="2.03566">
        <ele>242.1</ele>
        <time>2026-05-27T12:16:59Z</time>
      </trkpt>
      <trkpt lat="43.19634" lon="2.03571">
        <ele>242.5</ele>
        <time>2026-05-27T12:17:04Z</time>
      </trkpt>
      <trkpt lat="43.1963" lon="2.03576">
        <ele>242.9</ele>
        <time>2026-05-27T12:17:09Z</time>
      </trkpt>
      <trkpt lat="43.19626" lon="2.03579">
        <ele>243.1</ele>
        <time>2026-05-27T12:17:14Z</time>
      </trkpt>
      <trkpt lat="43.19623" lon="2.03581">
        <ele>243.2</ele>
        <time>2026-05-27T12:17:19Z</time>
      </trkpt>
      <trkpt lat="43.19618" lon="2.03582">
        <ele>243.3</ele>
        <time>2026-05-27T12:17:24Z</time>
      </trkpt>
      <trkpt lat="43.19613" lon="2.03584">
        <ele>243.4</ele>
        <time>2026-05-27T12:17:29Z</time>
      </trkpt>
      <trkpt lat="43.19608" lon="2.03586">
        <ele>243.4</ele>
        <time>2026-05-27T12:17:34Z</time>
      </trkpt>
      <trkpt lat="43.19602" lon="2.03587">
        <ele>243.3</ele>
        <time>2026-05-27T12:17:39Z</time>
      </trkpt>
      <trkpt lat="43.19596" lon="2.03589">
        <ele>243.3</ele>
        <time>2026-05-27T12:17:44Z</time>
      </trkpt>
      <trkpt lat="43.1959" lon="2.03594">
        <ele>243.4</ele>
        <time>2026-05-27T12:17:49Z</time>
      </trkpt>
      <trkpt lat="43.19586" lon="2.03599">
        <ele>243.6</ele>
        <time>2026-05-27T12:17:54Z</time>
      </trkpt>
      <trkpt lat="43.1958" lon="2.03604">
        <ele>243.7</ele>
        <time>2026-05-27T12:17:59Z</time>
      </trkpt>
      <trkpt lat="43.19576" lon="2.03608">
        <ele>243.8</ele>
        <time>2026-05-27T12:18:04Z</time>
      </trkpt>
      <trkpt lat="43.19574" lon="2.0361">
        <ele>243.9</ele>
        <time>2026-05-27T12:18:09Z</time>
      </trkpt>
      <trkpt lat="43.19571" lon="2.03612">
        <ele>243.9</ele>
        <time>2026-05-27T12:18:14Z</time>
      </trkpt>
      <trkpt lat="43.19566" lon="2.03616">
        <ele>244</ele>
        <time>2026-05-27T12:18:19Z</time>
      </trkpt>
      <trkpt lat="43.1956" lon="2.03619">
        <ele>244.1</ele>
        <time>2026-05-27T12:18:24Z</time>
      </trkpt>
      <trkpt lat="43.19554" lon="2.0362">
        <ele>244.1</ele>
        <time>2026-05-27T12:18:29Z</time>
      </trkpt>
      <trkpt lat="43.19547" lon="2.03622">
        <ele>244.2</ele>
        <time>2026-05-27T12:18:34Z</time>
      </trkpt>
      <trkpt lat="43.19541" lon="2.03621">
        <ele>244.1</ele>
        <time>2026-05-27T12:18:39Z</time>
      </trkpt>
      <trkpt lat="43.19535" lon="2.03622">
        <ele>244.1</ele>
        <time>2026-05-27T12:18:44Z</time>
      </trkpt>
      <trkpt lat="43.1953" lon="2.03621">
        <ele>244</ele>
        <time>2026-05-27T12:18:49Z</time>
      </trkpt>
      <trkpt lat="43.19524" lon="2.0362">
        <ele>243.9</ele>
        <time>2026-05-27T12:18:54Z</time>
      </trkpt>
      <trkpt lat="43.19518" lon="2.03619">
        <ele>243.8</ele>
        <time>2026-05-27T12:18:59Z</time>
      </trkpt>
      <trkpt lat="43.19512" lon="2.03618">
        <ele>243.7</ele>
        <time>2026-05-27T12:19:04Z</time>
      </trkpt>
      <trkpt lat="43.19506" lon="2.03617">
        <ele>243.7</ele>
        <time>2026-05-27T12:19:09Z</time>
      </trkpt>
      <trkpt lat="43.19501" lon="2.03617">
        <ele>243.6</ele>
        <time>2026-05-27T12:19:14Z</time>
      </trkpt>
      <trkpt lat="43.19495" lon="2.03615">
        <ele>243.8</ele>
        <time>2026-05-27T12:19:19Z</time>
      </trkpt>
      <trkpt lat="43.19489" lon="2.03614">
        <ele>244</ele>
        <time>2026-05-27T12:19:24Z</time>
      </trkpt>
      <trkpt lat="43.19481" lon="2.03613">
        <ele>244.3</ele>
        <time>2026-05-27T12:19:29Z</time>
      </trkpt>
      <trkpt lat="43.19475" lon="2.0361">
        <ele>244.5</ele>
        <time>2026-05-27T12:19:34Z</time>
      </trkpt>
      <trkpt lat="43.19469" lon="2.0361">
        <ele>244.8</ele>
        <time>2026-05-27T12:19:39Z</time>
      </trkpt>
      <trkpt lat="43.19463" lon="2.03607">
        <ele>244.9</ele>
        <time>2026-05-27T12:19:44Z</time>
      </trkpt>
      <trkpt lat="43.19457" lon="2.03606">
        <ele>245.2</ele>
        <time>2026-05-27T12:19:49Z</time>
      </trkpt>
      <trkpt lat="43.19451" lon="2.03603">
        <ele>245.3</ele>
        <time>2026-05-27T12:19:54Z</time>
      </trkpt>
      <trkpt lat="43.19444" lon="2.03603">
        <ele>245.6</ele>
        <time>2026-05-27T12:19:59Z</time>
      </trkpt>
      <trkpt lat="43.19437" lon="2.03602">
        <ele>245.9</ele>
        <time>2026-05-27T12:20:04Z</time>
      </trkpt>
      <trkpt lat="43.19431" lon="2.03602">
        <ele>246.2</ele>
        <time>2026-05-27T12:20:09Z</time>
      </trkpt>
      <trkpt lat="43.19425" lon="2.03605">
        <ele>246.6</ele>
        <time>2026-05-27T12:20:14Z</time>
      </trkpt>
      <trkpt lat="43.1942" lon="2.03607">
        <ele>247</ele>
        <time>2026-05-27T12:20:19Z</time>
      </trkpt>
      <trkpt lat="43.19414" lon="2.0361">
        <ele>247.8</ele>
        <time>2026-05-27T12:20:24Z</time>
      </trkpt>
      <trkpt lat="43.19408" lon="2.03612">
        <ele>249.1</ele>
        <time>2026-05-27T12:20:29Z</time>
      </trkpt>
      <trkpt lat="43.19402" lon="2.03615">
        <ele>250.4</ele>
        <time>2026-05-27T12:20:34Z</time>
      </trkpt>
      <trkpt lat="43.19396" lon="2.03617">
        <ele>251.6</ele>
        <time>2026-05-27T12:20:39Z</time>
      </trkpt>
      <trkpt lat="43.19391" lon="2.0362">
        <ele>252.7</ele>
        <time>2026-05-27T12:20:44Z</time>
      </trkpt>
      <trkpt lat="43.19385" lon="2.03623">
        <ele>253.9</ele>
        <time>2026-05-27T12:20:49Z</time>
      </trkpt>
      <trkpt lat="43.19384" lon="2.03624">
        <ele>254.1</ele>
        <time>2026-05-27T12:20:54Z</time>
      </trkpt>
      <trkpt lat="43.19379" lon="2.03626">
        <ele>255</ele>
        <time>2026-05-27T12:20:59Z</time>
      </trkpt>
      <trkpt lat="43.19379" lon="2.03628">
        <ele>255</ele>
        <time>2026-05-27T12:21:04Z</time>
      </trkpt>
      <trkpt lat="43.19379" lon="2.03628">
        <ele>255</ele>
        <time>2026-05-27T12:21:09Z</time>
      </trkpt>
      <trkpt lat="43.19379" lon="2.03628">
        <ele>255</ele>
        <time>2026-05-27T12:21:14Z</time>
      </trkpt>
      <trkpt lat="43.19377" lon="2.03629">
        <ele>255.4</ele>
        <time>2026-05-27T12:21:19Z</time>
      </trkpt>
      <trkpt lat="43.19372" lon="2.0363">
        <ele>256.3</ele>
        <time>2026-05-27T12:21:24Z</time>
      </trkpt>
      <trkpt lat="43.19366" lon="2.03632">
        <ele>257.4</ele>
        <time>2026-05-27T12:21:29Z</time>
      </trkpt>
      <trkpt lat="43.19361" lon="2.03635">
        <ele>258.3</ele>
        <time>2026-05-27T12:21:34Z</time>
      </trkpt>
      <trkpt lat="43.19356" lon="2.03638">
        <ele>259.1</ele>
        <time>2026-05-27T12:21:39Z</time>
      </trkpt>
      <trkpt lat="43.19349" lon="2.03642">
        <ele>260.2</ele>
        <time>2026-05-27T12:21:44Z</time>
      </trkpt>
      <trkpt lat="43.19344" lon="2.03646">
        <ele>261</ele>
        <time>2026-05-27T12:21:49Z</time>
      </trkpt>
      <trkpt lat="43.1934" lon="2.0365">
        <ele>261.5</ele>
        <time>2026-05-27T12:21:54Z</time>
      </trkpt>
      <trkpt lat="43.19336" lon="2.03655">
        <ele>262</ele>
        <time>2026-05-27T12:21:59Z</time>
      </trkpt>
      <trkpt lat="43.19331" lon="2.03658">
        <ele>262.7</ele>
        <time>2026-05-27T12:22:04Z</time>
      </trkpt>
      <trkpt lat="43.19327" lon="2.03662">
        <ele>263.2</ele>
        <time>2026-05-27T12:22:09Z</time>
      </trkpt>
      <trkpt lat="43.19323" lon="2.03666">
        <ele>263.6</ele>
        <time>2026-05-27T12:22:14Z</time>
      </trkpt>
      <trkpt lat="43.19318" lon="2.0367">
        <ele>264.2</ele>
        <time>2026-05-27T12:22:19Z</time>
      </trkpt>
      <trkpt lat="43.19314" lon="2.03674">
        <ele>264.5</ele>
        <time>2026-05-27T12:22:24Z</time>
      </trkpt>
      <trkpt lat="43.1931" lon="2.03679">
        <ele>264.8</ele>
        <time>2026-05-27T12:22:29Z</time>
      </trkpt>
      <trkpt lat="43.19305" lon="2.03685">
        <ele>265.1</ele>
        <time>2026-05-27T12:22:34Z</time>
      </trkpt>
      <trkpt lat="43.193" lon="2.0369">
        <ele>265.5</ele>
        <time>2026-05-27T12:22:39Z</time>
      </trkpt>
      <trkpt lat="43.19295" lon="2.03692">
        <ele>266</ele>
        <time>2026-05-27T12:22:44Z</time>
      </trkpt>
      <trkpt lat="43.19291" lon="2.03694">
        <ele>266.5</ele>
        <time>2026-05-27T12:22:49Z</time>
      </trkpt>
      <trkpt lat="43.19286" lon="2.03693">
        <ele>267.3</ele>
        <time>2026-05-27T12:22:54Z</time>
      </trkpt>
      <trkpt lat="43.19281" lon="2.03691">
        <ele>268.2</ele>
        <time>2026-05-27T12:22:59Z</time>
      </trkpt>
      <trkpt lat="43.19278" lon="2.0369">
        <ele>268.7</ele>
        <time>2026-05-27T12:23:04Z</time>
      </trkpt>
      <trkpt lat="43.19274" lon="2.03689">
        <ele>269.3</ele>
        <time>2026-05-27T12:23:09Z</time>
      </trkpt>
      <trkpt lat="43.1927" lon="2.03689">
        <ele>269.9</ele>
        <time>2026-05-27T12:23:14Z</time>
      </trkpt>
      <trkpt lat="43.19266" lon="2.03689">
        <ele>270.5</ele>
        <time>2026-05-27T12:23:19Z</time>
      </trkpt>
      <trkpt lat="43.19263" lon="2.03689">
        <ele>271</ele>
        <time>2026-05-27T12:23:24Z</time>
      </trkpt>
      <trkpt lat="43.19259" lon="2.03689">
        <ele>271.5</ele>
        <time>2026-05-27T12:23:29Z</time>
      </trkpt>
      <trkpt lat="43.19255" lon="2.03688">
        <ele>272.2</ele>
        <time>2026-05-27T12:23:34Z</time>
      </trkpt>
      <trkpt lat="43.19251" lon="2.03688">
        <ele>272.8</ele>
        <time>2026-05-27T12:23:39Z</time>
      </trkpt>
      <trkpt lat="43.19247" lon="2.03687">
        <ele>273.2</ele>
        <time>2026-05-27T12:23:44Z</time>
      </trkpt>
      <trkpt lat="43.19244" lon="2.03686">
        <ele>273.4</ele>
        <time>2026-05-27T12:23:49Z</time>
      </trkpt>
      <trkpt lat="43.1924" lon="2.03683">
        <ele>273.9</ele>
        <time>2026-05-27T12:23:54Z</time>
      </trkpt>
      <trkpt lat="43.19237" lon="2.0368">
        <ele>274.3</ele>
        <time>2026-05-27T12:23:59Z</time>
      </trkpt>
      <trkpt lat="43.19234" lon="2.03676">
        <ele>274.8</ele>
        <time>2026-05-27T12:24:04Z</time>
      </trkpt>
      <trkpt lat="43.19232" lon="2.03672">
        <ele>275.3</ele>
        <time>2026-05-27T12:24:09Z</time>
      </trkpt>
      <trkpt lat="43.19233" lon="2.03667">
        <ele>275.8</ele>
        <time>2026-05-27T12:24:14Z</time>
      </trkpt>
      <trkpt lat="43.19233" lon="2.0366">
        <ele>276.2</ele>
        <time>2026-05-27T12:24:19Z</time>
      </trkpt>
      <trkpt lat="43.19234" lon="2.03655">
        <ele>276.4</ele>
        <time>2026-05-27T12:24:24Z</time>
      </trkpt>
      <trkpt lat="43.19235" lon="2.0365">
        <ele>276.7</ele>
        <time>2026-05-27T12:24:29Z</time>
      </trkpt>
      <trkpt lat="43.19236" lon="2.03644">
        <ele>276.9</ele>
        <time>2026-05-27T12:24:34Z</time>
      </trkpt>
      <trkpt lat="43.19237" lon="2.03639">
        <ele>277.2</ele>
        <time>2026-05-27T12:24:39Z</time>
      </trkpt>
      <trkpt lat="43.19237" lon="2.03633">
        <ele>277.5</ele>
        <time>2026-05-27T12:24:44Z</time>
      </trkpt>
      <trkpt lat="43.19236" lon="2.03627">
        <ele>277.9</ele>
        <time>2026-05-27T12:24:49Z</time>
      </trkpt>
      <trkpt lat="43.19236" lon="2.03621">
        <ele>278.2</ele>
        <time>2026-05-27T12:24:54Z</time>
      </trkpt>
      <trkpt lat="43.19237" lon="2.0362">
        <ele>278.2</ele>
        <time>2026-05-27T12:24:59Z</time>
      </trkpt>
      <trkpt lat="43.19238" lon="2.0362">
        <ele>278.1</ele>
        <time>2026-05-27T12:25:04Z</time>
      </trkpt>
      <trkpt lat="43.19238" lon="2.0362">
        <ele>278.1</ele>
        <time>2026-05-27T12:25:09Z</time>
      </trkpt>
      <trkpt lat="43.19238" lon="2.0362">
        <ele>278.1</ele>
        <time>2026-05-27T12:25:14Z</time>
      </trkpt>
      <trkpt lat="43.19238" lon="2.0362">
        <ele>278.1</ele>
        <time>2026-05-27T12:25:19Z</time>
      </trkpt>
      <trkpt lat="43.19239" lon="2.03614">
        <ele>278.4</ele>
        <time>2026-05-27T12:25:24Z</time>
      </trkpt>
      <trkpt lat="43.19238" lon="2.03608">
        <ele>278.8</ele>
        <time>2026-05-27T12:25:29Z</time>
      </trkpt>
      <trkpt lat="43.19237" lon="2.03603">
        <ele>279.2</ele>
        <time>2026-05-27T12:25:34Z</time>
      </trkpt>
      <trkpt lat="43.19236" lon="2.03598">
        <ele>279.5</ele>
        <time>2026-05-27T12:25:39Z</time>
      </trkpt>
      <trkpt lat="43.19235" lon="2.03592">
        <ele>279.9</ele>
        <time>2026-05-27T12:25:44Z</time>
      </trkpt>
      <trkpt lat="43.19233" lon="2.03586">
        <ele>280.5</ele>
        <time>2026-05-27T12:25:49Z</time>
      </trkpt>
      <trkpt lat="43.19232" lon="2.03579">
        <ele>280.3</ele>
        <time>2026-05-27T12:25:54Z</time>
      </trkpt>
      <trkpt lat="43.1923" lon="2.03575">
        <ele>280.2</ele>
        <time>2026-05-27T12:25:59Z</time>
      </trkpt>
      <trkpt lat="43.19226" lon="2.0357">
        <ele>280.2</ele>
        <time>2026-05-27T12:26:04Z</time>
      </trkpt>
      <trkpt lat="43.19222" lon="2.03565">
        <ele>280.3</ele>
        <time>2026-05-27T12:26:09Z</time>
      </trkpt>
      <trkpt lat="43.19217" lon="2.03561">
        <ele>280.6</ele>
        <time>2026-05-27T12:26:14Z</time>
      </trkpt>
      <trkpt lat="43.19214" lon="2.03558">
        <ele>280.8</ele>
        <time>2026-05-27T12:26:19Z</time>
      </trkpt>
      <trkpt lat="43.19214" lon="2.03558">
        <ele>280.8</ele>
        <time>2026-05-27T12:26:24Z</time>
      </trkpt>
      <trkpt lat="43.19214" lon="2.03558">
        <ele>280.8</ele>
        <time>2026-05-27T12:26:29Z</time>
      </trkpt>
      <trkpt lat="43.19214" lon="2.03558">
        <ele>280.8</ele>
        <time>2026-05-27T12:26:34Z</time>
      </trkpt>
      <trkpt lat="43.19214" lon="2.03558">
        <ele>280.8</ele>
        <time>2026-05-27T12:26:39Z</time>
      </trkpt>
      <trkpt lat="43.19214" lon="2.03558">
        <ele>280.8</ele>
        <time>2026-05-27T12:26:44Z</time>
      </trkpt>
      <trkpt lat="43.19214" lon="2.03558">
        <ele>280.8</ele>
        <time>2026-05-27T12:26:49Z</time>
      </trkpt>
      <trkpt lat="43.19214" lon="2.03558">
        <ele>280.8</ele>
        <time>2026-05-27T12:26:54Z</time>
      </trkpt>
      <trkpt lat="43.19214" lon="2.03558">
        <ele>280.8</ele>
        <time>2026-05-27T12:26:59Z</time>
      </trkpt>
      <trkpt lat="43.19214" lon="2.03558">
        <ele>280.8</ele>
        <time>2026-05-27T12:27:04Z</time>
      </trkpt>
      <trkpt lat="43.19214" lon="2.03558">
        <ele>280.8</ele>
        <time>2026-05-27T12:27:09Z</time>
      </trkpt>
      <trkpt lat="43.19214" lon="2.03558">
        <ele>280.8</ele>
        <time>2026-05-27T12:27:14Z</time>
      </trkpt>
      <trkpt lat="43.19214" lon="2.03558">
        <ele>280.8</ele>
        <time>2026-05-27T12:27:19Z</time>
      </trkpt>
      <trkpt lat="43.19214" lon="2.03558">
        <ele>280.8</ele>
        <time>2026-05-27T12:27:24Z</time>
      </trkpt>
      <trkpt lat="43.19214" lon="2.03558">
        <ele>280.8</ele>
        <time>2026-05-27T12:27:29Z</time>
      </trkpt>
      <trkpt lat="43.19214" lon="2.03558">
        <ele>280.8</ele>
        <time>2026-05-27T12:27:34Z</time>
      </trkpt>
      <trkpt lat="43.19214" lon="2.03558">
        <ele>280.8</ele>
        <time>2026-05-27T12:27:39Z</time>
      </trkpt>
      <trkpt lat="43.19214" lon="2.03558">
        <ele>280.8</ele>
        <time>2026-05-27T12:27:44Z</time>
      </trkpt>
      <trkpt lat="43.19214" lon="2.03558">
        <ele>280.8</ele>
        <time>2026-05-27T12:27:49Z</time>
      </trkpt>
      <trkpt lat="43.19214" lon="2.03558">
        <ele>280.8</ele>
        <time>2026-05-27T12:27:54Z</time>
      </trkpt>
      <trkpt lat="43.19214" lon="2.03558">
        <ele>280.8</ele>
        <time>2026-05-27T12:27:59Z</time>
      </trkpt>
      <trkpt lat="43.19214" lon="2.03558">
        <ele>280.8</ele>
        <time>2026-05-27T12:28:04Z</time>
      </trkpt>
      <trkpt lat="43.19214" lon="2.03558">
        <ele>280.8</ele>
        <time>2026-05-27T12:28:09Z</time>
      </trkpt>
      <trkpt lat="43.19214" lon="2.03558">
        <ele>280.8</ele>
        <time>2026-05-27T12:28:14Z</time>
      </trkpt>
      <trkpt lat="43.19214" lon="2.03558">
        <ele>280.8</ele>
        <time>2026-05-27T12:28:19Z</time>
      </trkpt>
      <trkpt lat="43.19211" lon="2.03552">
        <ele>280.8</ele>
        <time>2026-05-27T12:28:24Z</time>
      </trkpt>
      <trkpt lat="43.19207" lon="2.03546">
        <ele>280.9</ele>
        <time>2026-05-27T12:28:29Z</time>
      </trkpt>
      <trkpt lat="43.19203" lon="2.03541">
        <ele>281.2</ele>
        <time>2026-05-27T12:28:34Z</time>
      </trkpt>
      <trkpt lat="43.19197" lon="2.03535">
        <ele>281.8</ele>
        <time>2026-05-27T12:28:39Z</time>
      </trkpt>
      <trkpt lat="43.19193" lon="2.0353">
        <ele>282.2</ele>
        <time>2026-05-27T12:28:44Z</time>
      </trkpt>
      <trkpt lat="43.19188" lon="2.03525">
        <ele>282.8</ele>
        <time>2026-05-27T12:28:49Z</time>
      </trkpt>
      <trkpt lat="43.19183" lon="2.03524">
        <ele>283.6</ele>
        <time>2026-05-27T12:28:54Z</time>
      </trkpt>
      <trkpt lat="43.19178" lon="2.03521">
        <ele>284.4</ele>
        <time>2026-05-27T12:28:59Z</time>
      </trkpt>
      <trkpt lat="43.19173" lon="2.03518">
        <ele>285.1</ele>
        <time>2026-05-27T12:29:04Z</time>
      </trkpt>
      <trkpt lat="43.19166" lon="2.03517">
        <ele>286.4</ele>
        <time>2026-05-27T12:29:09Z</time>
      </trkpt>
      <trkpt lat="43.1916" lon="2.03515">
        <ele>287.9</ele>
        <time>2026-05-27T12:29:14Z</time>
      </trkpt>
      <trkpt lat="43.19154" lon="2.03514">
        <ele>289.4</ele>
        <time>2026-05-27T12:29:19Z</time>
      </trkpt>
      <trkpt lat="43.19149" lon="2.03512">
        <ele>290.6</ele>
        <time>2026-05-27T12:29:24Z</time>
      </trkpt>
      <trkpt lat="43.19143" lon="2.03512">
        <ele>292.1</ele>
        <time>2026-05-27T12:29:29Z</time>
      </trkpt>
      <trkpt lat="43.19137" lon="2.0351">
        <ele>293.7</ele>
        <time>2026-05-27T12:29:34Z</time>
      </trkpt>
      <trkpt lat="43.19131" lon="2.03507">
        <ele>295.3</ele>
        <time>2026-05-27T12:29:39Z</time>
      </trkpt>
      <trkpt lat="43.19124" lon="2.03504">
        <ele>297.2</ele>
        <time>2026-05-27T12:29:44Z</time>
      </trkpt>
      <trkpt lat="43.19118" lon="2.03499">
        <ele>298.9</ele>
        <time>2026-05-27T12:29:49Z</time>
      </trkpt>
      <trkpt lat="43.19112" lon="2.03495">
        <ele>300.5</ele>
        <time>2026-05-27T12:29:54Z</time>
      </trkpt>
      <trkpt lat="43.19107" lon="2.03489">
        <ele>301.8</ele>
        <time>2026-05-27T12:29:59Z</time>
      </trkpt>
      <trkpt lat="43.19103" lon="2.03483">
        <ele>302.9</ele>
        <time>2026-05-27T12:30:04Z</time>
      </trkpt>
      <trkpt lat="43.19099" lon="2.03477">
        <ele>303.9</ele>
        <time>2026-05-27T12:30:09Z</time>
      </trkpt>
      <trkpt lat="43.19096" lon="2.03472">
        <ele>304.7</ele>
        <time>2026-05-27T12:30:14Z</time>
      </trkpt>
      <trkpt lat="43.19092" lon="2.03466">
        <ele>305.8</ele>
        <time>2026-05-27T12:30:19Z</time>
      </trkpt>
      <trkpt lat="43.19088" lon="2.03458">
        <ele>306.8</ele>
        <time>2026-05-27T12:30:24Z</time>
      </trkpt>
      <trkpt lat="43.19085" lon="2.0345">
        <ele>307.6</ele>
        <time>2026-05-27T12:30:29Z</time>
      </trkpt>
      <trkpt lat="43.19084" lon="2.03442">
        <ele>307.8</ele>
        <time>2026-05-27T12:30:34Z</time>
      </trkpt>
      <trkpt lat="43.19082" lon="2.03435">
        <ele>308.5</ele>
        <time>2026-05-27T12:30:39Z</time>
      </trkpt>
      <trkpt lat="43.19082" lon="2.03428">
        <ele>308.5</ele>
        <time>2026-05-27T12:30:44Z</time>
      </trkpt>
      <trkpt lat="43.19081" lon="2.0342">
        <ele>308.8</ele>
        <time>2026-05-27T12:30:49Z</time>
      </trkpt>
      <trkpt lat="43.19081" lon="2.0341">
        <ele>309.7</ele>
        <time>2026-05-27T12:30:54Z</time>
      </trkpt>
      <trkpt lat="43.19081" lon="2.03402">
        <ele>310.9</ele>
        <time>2026-05-27T12:30:59Z</time>
      </trkpt>
      <trkpt lat="43.19083" lon="2.03395">
        <ele>311.2</ele>
        <time>2026-05-27T12:31:04Z</time>
      </trkpt>
      <trkpt lat="43.19084" lon="2.03386">
        <ele>312.2</ele>
        <time>2026-05-27T12:31:09Z</time>
      </trkpt>
      <trkpt lat="43.19085" lon="2.03378">
        <ele>313.1</ele>
        <time>2026-05-27T12:31:14Z</time>
      </trkpt>
      <trkpt lat="43.19087" lon="2.03371">
        <ele>313.6</ele>
        <time>2026-05-27T12:31:19Z</time>
      </trkpt>
      <trkpt lat="43.19093" lon="2.03365">
        <ele>312.9</ele>
        <time>2026-05-27T12:31:24Z</time>
      </trkpt>
      <trkpt lat="43.19095" lon="2.03356">
        <ele>313.6</ele>
        <time>2026-05-27T12:31:29Z</time>
      </trkpt>
      <trkpt lat="43.19099" lon="2.03348">
        <ele>313.6</ele>
        <time>2026-05-27T12:31:34Z</time>
      </trkpt>
      <trkpt lat="43.19101" lon="2.03341">
        <ele>314.1</ele>
        <time>2026-05-27T12:31:39Z</time>
      </trkpt>
      <trkpt lat="43.19106" lon="2.03335">
        <ele>313.5</ele>
        <time>2026-05-27T12:31:44Z</time>
      </trkpt>
      <trkpt lat="43.19111" lon="2.0333">
        <ele>312.5</ele>
        <time>2026-05-27T12:31:49Z</time>
      </trkpt>
      <trkpt lat="43.19116" lon="2.03324">
        <ele>311.5</ele>
        <time>2026-05-27T12:31:54Z</time>
      </trkpt>
      <trkpt lat="43.19121" lon="2.03319">
        <ele>310.6</ele>
        <time>2026-05-27T12:31:59Z</time>
      </trkpt>
      <trkpt lat="43.19123" lon="2.03312">
        <ele>310.5</ele>
        <time>2026-05-27T12:32:04Z</time>
      </trkpt>
      <trkpt lat="43.19127" lon="2.03305">
        <ele>310.1</ele>
        <time>2026-05-27T12:32:09Z</time>
      </trkpt>
      <trkpt lat="43.19131" lon="2.033">
        <ele>309.5</ele>
        <time>2026-05-27T12:32:14Z</time>
      </trkpt>
      <trkpt lat="43.19135" lon="2.03293">
        <ele>309.2</ele>
        <time>2026-05-27T12:32:19Z</time>
      </trkpt>
      <trkpt lat="43.19138" lon="2.03286">
        <ele>309.2</ele>
        <time>2026-05-27T12:32:24Z</time>
      </trkpt>
      <trkpt lat="43.19141" lon="2.03278">
        <ele>309.3</ele>
        <time>2026-05-27T12:32:29Z</time>
      </trkpt>
      <trkpt lat="43.19145" lon="2.03271">
        <ele>309.3</ele>
        <time>2026-05-27T12:32:34Z</time>
      </trkpt>
      <trkpt lat="43.19149" lon="2.03264">
        <ele>309.3</ele>
        <time>2026-05-27T12:32:39Z</time>
      </trkpt>
      <trkpt lat="43.19152" lon="2.03257">
        <ele>309.5</ele>
        <time>2026-05-27T12:32:44Z</time>
      </trkpt>
      <trkpt lat="43.19154" lon="2.03249">
        <ele>310</ele>
        <time>2026-05-27T12:32:49Z</time>
      </trkpt>
      <trkpt lat="43.19157" lon="2.03242">
        <ele>309.6</ele>
        <time>2026-05-27T12:32:54Z</time>
      </trkpt>
      <trkpt lat="43.19159" lon="2.03235">
        <ele>309.4</ele>
        <time>2026-05-27T12:32:59Z</time>
      </trkpt>
      <trkpt lat="43.19162" lon="2.03226">
        <ele>309.2</ele>
        <time>2026-05-27T12:33:04Z</time>
      </trkpt>
      <trkpt lat="43.19165" lon="2.03218">
        <ele>309</ele>
        <time>2026-05-27T12:33:09Z</time>
      </trkpt>
      <trkpt lat="43.19168" lon="2.0321">
        <ele>308.6</ele>
        <time>2026-05-27T12:33:14Z</time>
      </trkpt>
      <trkpt lat="43.19171" lon="2.03202">
        <ele>308.1</ele>
        <time>2026-05-27T12:33:19Z</time>
      </trkpt>
      <trkpt lat="43.19175" lon="2.03195">
        <ele>307.4</ele>
        <time>2026-05-27T12:33:24Z</time>
      </trkpt>
      <trkpt lat="43.19179" lon="2.03187">
        <ele>306.9</ele>
        <time>2026-05-27T12:33:29Z</time>
      </trkpt>
      <trkpt lat="43.19182" lon="2.03178">
        <ele>306.6</ele>
        <time>2026-05-27T12:33:34Z</time>
      </trkpt>
      <trkpt lat="43.19182" lon="2.03171">
        <ele>306.9</ele>
        <time>2026-05-27T12:33:39Z</time>
      </trkpt>
      <trkpt lat="43.19185" lon="2.03163">
        <ele>306.4</ele>
        <time>2026-05-27T12:33:44Z</time>
      </trkpt>
      <trkpt lat="43.19188" lon="2.03155">
        <ele>305.6</ele>
        <time>2026-05-27T12:33:49Z</time>
      </trkpt>
      <trkpt lat="43.19191" lon="2.03147">
        <ele>304.9</ele>
        <time>2026-05-27T12:33:54Z</time>
      </trkpt>
      <trkpt lat="43.19193" lon="2.03139">
        <ele>304.4</ele>
        <time>2026-05-27T12:33:59Z</time>
      </trkpt>
      <trkpt lat="43.19197" lon="2.03132">
        <ele>303.8</ele>
        <time>2026-05-27T12:34:04Z</time>
      </trkpt>
      <trkpt lat="43.192" lon="2.03124">
        <ele>303.3</ele>
        <time>2026-05-27T12:34:09Z</time>
      </trkpt>
      <trkpt lat="43.19203" lon="2.03117">
        <ele>302.9</ele>
        <time>2026-05-27T12:34:14Z</time>
      </trkpt>
      <trkpt lat="43.19207" lon="2.0311">
        <ele>302.5</ele>
        <time>2026-05-27T12:34:19Z</time>
      </trkpt>
      <trkpt lat="43.19208" lon="2.03102">
        <ele>302.4</ele>
        <time>2026-05-27T12:34:24Z</time>
      </trkpt>
      <trkpt lat="43.19212" lon="2.03096">
        <ele>302.1</ele>
        <time>2026-05-27T12:34:29Z</time>
      </trkpt>
      <trkpt lat="43.19214" lon="2.03097">
        <ele>302</ele>
        <time>2026-05-27T12:34:34Z</time>
      </trkpt>
      <trkpt lat="43.19216" lon="2.03095">
        <ele>301.8</ele>
        <time>2026-05-27T12:34:39Z</time>
      </trkpt>
      <trkpt lat="43.19219" lon="2.03092">
        <ele>301.7</ele>
        <time>2026-05-27T12:34:44Z</time>
      </trkpt>
      <trkpt lat="43.19221" lon="2.03088">
        <ele>301.6</ele>
        <time>2026-05-27T12:34:49Z</time>
      </trkpt>
      <trkpt lat="43.19221" lon="2.0308">
        <ele>301.6</ele>
        <time>2026-05-27T12:34:54Z</time>
      </trkpt>
      <trkpt lat="43.1922" lon="2.03071">
        <ele>301.2</ele>
        <time>2026-05-27T12:34:59Z</time>
      </trkpt>
      <trkpt lat="43.19221" lon="2.03062">
        <ele>300.7</ele>
        <time>2026-05-27T12:35:04Z</time>
      </trkpt>
      <trkpt lat="43.19222" lon="2.03054">
        <ele>300.3</ele>
        <time>2026-05-27T12:35:09Z</time>
      </trkpt>
      <trkpt lat="43.19222" lon="2.03045">
        <ele>299.8</ele>
        <time>2026-05-27T12:35:14Z</time>
      </trkpt>
      <trkpt lat="43.19221" lon="2.03037">
        <ele>299.5</ele>
        <time>2026-05-27T12:35:19Z</time>
      </trkpt>
      <trkpt lat="43.1922" lon="2.0303">
        <ele>299.1</ele>
        <time>2026-05-27T12:35:24Z</time>
      </trkpt>
      <trkpt lat="43.1922" lon="2.03029">
        <ele>299.1</ele>
        <time>2026-05-27T12:35:29Z</time>
      </trkpt>
      <trkpt lat="43.19219" lon="2.03029">
        <ele>299.1</ele>
        <time>2026-05-27T12:35:34Z</time>
      </trkpt>
      <trkpt lat="43.19219" lon="2.03029">
        <ele>299.1</ele>
        <time>2026-05-27T12:35:39Z</time>
      </trkpt>
      <trkpt lat="43.19219" lon="2.03029">
        <ele>299.1</ele>
        <time>2026-05-27T12:35:44Z</time>
      </trkpt>
      <trkpt lat="43.19219" lon="2.03029">
        <ele>299.1</ele>
        <time>2026-05-27T12:35:49Z</time>
      </trkpt>
      <trkpt lat="43.19219" lon="2.03029">
        <ele>299.1</ele>
        <time>2026-05-27T12:35:54Z</time>
      </trkpt>
      <trkpt lat="43.19219" lon="2.03029">
        <ele>299.1</ele>
        <time>2026-05-27T12:35:59Z</time>
      </trkpt>
      <trkpt lat="43.19219" lon="2.03029">
        <ele>299.1</ele>
        <time>2026-05-27T12:36:04Z</time>
      </trkpt>
      <trkpt lat="43.19219" lon="2.03029">
        <ele>299.1</ele>
        <time>2026-05-27T12:36:09Z</time>
      </trkpt>
      <trkpt lat="43.19219" lon="2.03029">
        <ele>299.1</ele>
        <time>2026-05-27T12:36:14Z</time>
      </trkpt>
      <trkpt lat="43.19218" lon="2.03021">
        <ele>298.7</ele>
        <time>2026-05-27T12:36:19Z</time>
      </trkpt>
      <trkpt lat="43.19217" lon="2.03013">
        <ele>298.3</ele>
        <time>2026-05-27T12:36:24Z</time>
      </trkpt>
      <trkpt lat="43.19215" lon="2.03005">
        <ele>297.9</ele>
        <time>2026-05-27T12:36:29Z</time>
      </trkpt>
      <trkpt lat="43.19211" lon="2.02998">
        <ele>297.4</ele>
        <time>2026-05-27T12:36:34Z</time>
      </trkpt>
      <trkpt lat="43.19206" lon="2.02993">
        <ele>296.8</ele>
        <time>2026-05-27T12:36:39Z</time>
      </trkpt>
      <trkpt lat="43.19201" lon="2.02988">
        <ele>296.3</ele>
        <time>2026-05-27T12:36:44Z</time>
      </trkpt>
      <trkpt lat="43.19197" lon="2.02981">
        <ele>295.7</ele>
        <time>2026-05-27T12:36:49Z</time>
      </trkpt>
      <trkpt lat="43.19192" lon="2.02975">
        <ele>295.1</ele>
        <time>2026-05-27T12:36:54Z</time>
      </trkpt>
      <trkpt lat="43.19186" lon="2.0297">
        <ele>294.6</ele>
        <time>2026-05-27T12:36:59Z</time>
      </trkpt>
      <trkpt lat="43.19181" lon="2.02966">
        <ele>294.2</ele>
        <time>2026-05-27T12:37:04Z</time>
      </trkpt>
      <trkpt lat="43.19174" lon="2.02962">
        <ele>293.9</ele>
        <time>2026-05-27T12:37:09Z</time>
      </trkpt>
      <trkpt lat="43.19169" lon="2.02962">
        <ele>293.8</ele>
        <time>2026-05-27T12:37:14Z</time>
      </trkpt>
      <trkpt lat="43.19164" lon="2.02966">
        <ele>294.5</ele>
        <time>2026-05-27T12:37:19Z</time>
      </trkpt>
      <trkpt lat="43.1916" lon="2.0297">
        <ele>295.3</ele>
        <time>2026-05-27T12:37:24Z</time>
      </trkpt>
      <trkpt lat="43.19158" lon="2.02976">
        <ele>296</ele>
        <time>2026-05-27T12:37:29Z</time>
      </trkpt>
      <trkpt lat="43.19155" lon="2.02983">
        <ele>296.9</ele>
        <time>2026-05-27T12:37:34Z</time>
      </trkpt>
      <trkpt lat="43.19152" lon="2.02991">
        <ele>297.8</ele>
        <time>2026-05-27T12:37:39Z</time>
      </trkpt>
      <trkpt lat="43.19148" lon="2.02997">
        <ele>298.6</ele>
        <time>2026-05-27T12:37:44Z</time>
      </trkpt>
      <trkpt lat="43.19145" lon="2.03004">
        <ele>299.5</ele>
        <time>2026-05-27T12:37:49Z</time>
      </trkpt>
      <trkpt lat="43.19142" lon="2.03009">
        <ele>300.2</ele>
        <time>2026-05-27T12:37:54Z</time>
      </trkpt>
      <trkpt lat="43.19139" lon="2.03015">
        <ele>301</ele>
        <time>2026-05-27T12:37:59Z</time>
      </trkpt>
      <trkpt lat="43.19138" lon="2.03017">
        <ele>301.3</ele>
        <time>2026-05-27T12:38:04Z</time>
      </trkpt>
      <trkpt lat="43.19138" lon="2.03017">
        <ele>301.3</ele>
        <time>2026-05-27T12:38:09Z</time>
      </trkpt>
      <trkpt lat="43.19138" lon="2.03017">
        <ele>301.3</ele>
        <time>2026-05-27T12:38:14Z</time>
      </trkpt>
      <trkpt lat="43.19138" lon="2.03017">
        <ele>301.3</ele>
        <time>2026-05-27T12:38:19Z</time>
      </trkpt>
      <trkpt lat="43.19138" lon="2.03017">
        <ele>301.3</ele>
        <time>2026-05-27T12:38:24Z</time>
      </trkpt>
      <trkpt lat="43.19137" lon="2.0302">
        <ele>301.7</ele>
        <time>2026-05-27T12:38:29Z</time>
      </trkpt>
      <trkpt lat="43.19134" lon="2.03025">
        <ele>302.4</ele>
        <time>2026-05-27T12:38:34Z</time>
      </trkpt>
      <trkpt lat="43.1913" lon="2.03031">
        <ele>303.3</ele>
        <time>2026-05-27T12:38:39Z</time>
      </trkpt>
      <trkpt lat="43.19127" lon="2.03038">
        <ele>304.2</ele>
        <time>2026-05-27T12:38:44Z</time>
      </trkpt>
      <trkpt lat="43.19124" lon="2.03044">
        <ele>305</ele>
        <time>2026-05-27T12:38:49Z</time>
      </trkpt>
      <trkpt lat="43.19121" lon="2.0305">
        <ele>305.9</ele>
        <time>2026-05-27T12:38:54Z</time>
      </trkpt>
      <trkpt lat="43.19118" lon="2.03058">
        <ele>306.8</ele>
        <time>2026-05-27T12:38:59Z</time>
      </trkpt>
      <trkpt lat="43.19114" lon="2.03064">
        <ele>307.7</ele>
        <time>2026-05-27T12:39:04Z</time>
      </trkpt>
      <trkpt lat="43.19109" lon="2.0307">
        <ele>308.7</ele>
        <time>2026-05-27T12:39:09Z</time>
      </trkpt>
      <trkpt lat="43.19105" lon="2.03077">
        <ele>309.6</ele>
        <time>2026-05-27T12:39:14Z</time>
      </trkpt>
      <trkpt lat="43.19102" lon="2.03085">
        <ele>310.5</ele>
        <time>2026-05-27T12:39:19Z</time>
      </trkpt>
      <trkpt lat="43.191" lon="2.03093">
        <ele>311</ele>
        <time>2026-05-27T12:39:24Z</time>
      </trkpt>
      <trkpt lat="43.19097" lon="2.03101">
        <ele>311.6</ele>
        <time>2026-05-27T12:39:29Z</time>
      </trkpt>
      <trkpt lat="43.19095" lon="2.03107">
        <ele>312</ele>
        <time>2026-05-27T12:39:34Z</time>
      </trkpt>
      <trkpt lat="43.19093" lon="2.03114">
        <ele>312.4</ele>
        <time>2026-05-27T12:39:39Z</time>
      </trkpt>
      <trkpt lat="43.19091" lon="2.03121">
        <ele>312.8</ele>
        <time>2026-05-27T12:39:44Z</time>
      </trkpt>
      <trkpt lat="43.19088" lon="2.03127">
        <ele>313.2</ele>
        <time>2026-05-27T12:39:49Z</time>
      </trkpt>
      <trkpt lat="43.19085" lon="2.03135">
        <ele>313.7</ele>
        <time>2026-05-27T12:39:54Z</time>
      </trkpt>
      <trkpt lat="43.19083" lon="2.03143">
        <ele>314.2</ele>
        <time>2026-05-27T12:39:59Z</time>
      </trkpt>
      <trkpt lat="43.1908" lon="2.03149">
        <ele>314.9</ele>
        <time>2026-05-27T12:40:04Z</time>
      </trkpt>
      <trkpt lat="43.19076" lon="2.03156">
        <ele>315.9</ele>
        <time>2026-05-27T12:40:09Z</time>
      </trkpt>
      <trkpt lat="43.19073" lon="2.03163">
        <ele>316.7</ele>
        <time>2026-05-27T12:40:14Z</time>
      </trkpt>
      <trkpt lat="43.19069" lon="2.0317">
        <ele>317.8</ele>
        <time>2026-05-27T12:40:19Z</time>
      </trkpt>
      <trkpt lat="43.19067" lon="2.03177">
        <ele>318.6</ele>
        <time>2026-05-27T12:40:24Z</time>
      </trkpt>
      <trkpt lat="43.19063" lon="2.03184">
        <ele>319.8</ele>
        <time>2026-05-27T12:40:29Z</time>
      </trkpt>
      <trkpt lat="43.19061" lon="2.03192">
        <ele>320.7</ele>
        <time>2026-05-27T12:40:34Z</time>
      </trkpt>
      <trkpt lat="43.19058" lon="2.03199">
        <ele>321.7</ele>
        <time>2026-05-27T12:40:39Z</time>
      </trkpt>
      <trkpt lat="43.19056" lon="2.03206">
        <ele>322.4</ele>
        <time>2026-05-27T12:40:44Z</time>
      </trkpt>
      <trkpt lat="43.19053" lon="2.03213">
        <ele>323.4</ele>
        <time>2026-05-27T12:40:49Z</time>
      </trkpt>
      <trkpt lat="43.1905" lon="2.03218">
        <ele>324.2</ele>
        <time>2026-05-27T12:40:54Z</time>
      </trkpt>
      <trkpt lat="43.19046" lon="2.03223">
        <ele>325.2</ele>
        <time>2026-05-27T12:40:59Z</time>
      </trkpt>
      <trkpt lat="43.19042" lon="2.0323">
        <ele>326.2</ele>
        <time>2026-05-27T12:41:04Z</time>
      </trkpt>
      <trkpt lat="43.19037" lon="2.03237">
        <ele>327.5</ele>
        <time>2026-05-27T12:41:09Z</time>
      </trkpt>
      <trkpt lat="43.19033" lon="2.03243">
        <ele>328.4</ele>
        <time>2026-05-27T12:41:14Z</time>
      </trkpt>
      <trkpt lat="43.19028" lon="2.03245">
        <ele>329.4</ele>
        <time>2026-05-27T12:41:19Z</time>
      </trkpt>
      <trkpt lat="43.19025" lon="2.0325">
        <ele>330.1</ele>
        <time>2026-05-27T12:41:24Z</time>
      </trkpt>
      <trkpt lat="43.1902" lon="2.03255">
        <ele>331</ele>
        <time>2026-05-27T12:41:29Z</time>
      </trkpt>
      <trkpt lat="43.19016" lon="2.03259">
        <ele>331.7</ele>
        <time>2026-05-27T12:41:34Z</time>
      </trkpt>
      <trkpt lat="43.19013" lon="2.03263">
        <ele>332.3</ele>
        <time>2026-05-27T12:41:39Z</time>
      </trkpt>
      <trkpt lat="43.19008" lon="2.03267">
        <ele>333.3</ele>
        <time>2026-05-27T12:41:44Z</time>
      </trkpt>
      <trkpt lat="43.19005" lon="2.03271">
        <ele>333.9</ele>
        <time>2026-05-27T12:41:49Z</time>
      </trkpt>
      <trkpt lat="43.19002" lon="2.03275">
        <ele>334.6</ele>
        <time>2026-05-27T12:41:54Z</time>
      </trkpt>
      <trkpt lat="43.18998" lon="2.03281">
        <ele>335.3</ele>
        <time>2026-05-27T12:41:59Z</time>
      </trkpt>
      <trkpt lat="43.18994" lon="2.03284">
        <ele>335.9</ele>
        <time>2026-05-27T12:42:04Z</time>
      </trkpt>
      <trkpt lat="43.18992" lon="2.03289">
        <ele>336.3</ele>
        <time>2026-05-27T12:42:09Z</time>
      </trkpt>
      <trkpt lat="43.18989" lon="2.03294">
        <ele>336.8</ele>
        <time>2026-05-27T12:42:14Z</time>
      </trkpt>
      <trkpt lat="43.18986" lon="2.03299">
        <ele>337.4</ele>
        <time>2026-05-27T12:42:19Z</time>
      </trkpt>
      <trkpt lat="43.18984" lon="2.03304">
        <ele>337.8</ele>
        <time>2026-05-27T12:42:24Z</time>
      </trkpt>
      <trkpt lat="43.18981" lon="2.03307">
        <ele>338.3</ele>
        <time>2026-05-27T12:42:29Z</time>
      </trkpt>
      <trkpt lat="43.18979" lon="2.03313">
        <ele>338.7</ele>
        <time>2026-05-27T12:42:34Z</time>
      </trkpt>
      <trkpt lat="43.18977" lon="2.0332">
        <ele>339.2</ele>
        <time>2026-05-27T12:42:39Z</time>
      </trkpt>
      <trkpt lat="43.18974" lon="2.03325">
        <ele>339.8</ele>
        <time>2026-05-27T12:42:44Z</time>
      </trkpt>
      <trkpt lat="43.18971" lon="2.03331">
        <ele>340.4</ele>
        <time>2026-05-27T12:42:49Z</time>
      </trkpt>
      <trkpt lat="43.18968" lon="2.03336">
        <ele>340.9</ele>
        <time>2026-05-27T12:42:54Z</time>
      </trkpt>
      <trkpt lat="43.18964" lon="2.03342">
        <ele>341.5</ele>
        <time>2026-05-27T12:42:59Z</time>
      </trkpt>
      <trkpt lat="43.1896" lon="2.03347">
        <ele>342.2</ele>
        <time>2026-05-27T12:43:04Z</time>
      </trkpt>
      <trkpt lat="43.18956" lon="2.03352">
        <ele>342.9</ele>
        <time>2026-05-27T12:43:09Z</time>
      </trkpt>
      <trkpt lat="43.18953" lon="2.03356">
        <ele>343.4</ele>
        <time>2026-05-27T12:43:14Z</time>
      </trkpt>
      <trkpt lat="43.18949" lon="2.0336">
        <ele>344.1</ele>
        <time>2026-05-27T12:43:19Z</time>
      </trkpt>
      <trkpt lat="43.18946" lon="2.03363">
        <ele>344.6</ele>
        <time>2026-05-27T12:43:24Z</time>
      </trkpt>
      <trkpt lat="43.18946" lon="2.03363">
        <ele>344.6</ele>
        <time>2026-05-27T12:43:29Z</time>
      </trkpt>
      <trkpt lat="43.18946" lon="2.03363">
        <ele>344.6</ele>
        <time>2026-05-27T12:43:34Z</time>
      </trkpt>
      <trkpt lat="43.18943" lon="2.03364">
        <ele>345.1</ele>
        <time>2026-05-27T12:43:39Z</time>
      </trkpt>
      <trkpt lat="43.1894" lon="2.03371">
        <ele>345.8</ele>
        <time>2026-05-27T12:43:44Z</time>
      </trkpt>
      <trkpt lat="43.18935" lon="2.03379">
        <ele>346.9</ele>
        <time>2026-05-27T12:43:49Z</time>
      </trkpt>
      <trkpt lat="43.1893" lon="2.03384">
        <ele>348</ele>
        <time>2026-05-27T12:43:54Z</time>
      </trkpt>
      <trkpt lat="43.18929" lon="2.03388">
        <ele>348.3</ele>
        <time>2026-05-27T12:43:59Z</time>
      </trkpt>
      <trkpt lat="43.18925" lon="2.03392">
        <ele>349.2</ele>
        <time>2026-05-27T12:44:04Z</time>
      </trkpt>
      <trkpt lat="43.18922" lon="2.03396">
        <ele>349.9</ele>
        <time>2026-05-27T12:44:09Z</time>
      </trkpt>
      <trkpt lat="43.18917" lon="2.03401">
        <ele>351</ele>
        <time>2026-05-27T12:44:14Z</time>
      </trkpt>
      <trkpt lat="43.18913" lon="2.03405">
        <ele>351.5</ele>
        <time>2026-05-27T12:44:19Z</time>
      </trkpt>
      <trkpt lat="43.18909" lon="2.03408">
        <ele>351.8</ele>
        <time>2026-05-27T12:44:24Z</time>
      </trkpt>
      <trkpt lat="43.18904" lon="2.03413">
        <ele>352.4</ele>
        <time>2026-05-27T12:44:29Z</time>
      </trkpt>
      <trkpt lat="43.189" lon="2.03416">
        <ele>352.8</ele>
        <time>2026-05-27T12:44:34Z</time>
      </trkpt>
      <trkpt lat="43.18899" lon="2.03423">
        <ele>353</ele>
        <time>2026-05-27T12:44:39Z</time>
      </trkpt>
      <trkpt lat="43.18895" lon="2.0343">
        <ele>353.4</ele>
        <time>2026-05-27T12:44:44Z</time>
      </trkpt>
      <trkpt lat="43.18891" lon="2.03436">
        <ele>353.8</ele>
        <time>2026-05-27T12:44:49Z</time>
      </trkpt>
      <trkpt lat="43.18886" lon="2.03441">
        <ele>354.2</ele>
        <time>2026-05-27T12:44:54Z</time>
      </trkpt>
      <trkpt lat="43.1888" lon="2.03445">
        <ele>354.6</ele>
        <time>2026-05-27T12:44:59Z</time>
      </trkpt>
      <trkpt lat="43.18874" lon="2.03448">
        <ele>355</ele>
        <time>2026-05-27T12:45:04Z</time>
      </trkpt>
      <trkpt lat="43.18867" lon="2.0345">
        <ele>355.4</ele>
        <time>2026-05-27T12:45:09Z</time>
      </trkpt>
      <trkpt lat="43.18862" lon="2.03451">
        <ele>355.7</ele>
        <time>2026-05-27T12:45:14Z</time>
      </trkpt>
      <trkpt lat="43.18859" lon="2.03453">
        <ele>355.9</ele>
        <time>2026-05-27T12:45:19Z</time>
      </trkpt>
      <trkpt lat="43.18857" lon="2.03456">
        <ele>356.1</ele>
        <time>2026-05-27T12:45:24Z</time>
      </trkpt>
      <trkpt lat="43.18857" lon="2.03463">
        <ele>356.4</ele>
        <time>2026-05-27T12:45:29Z</time>
      </trkpt>
      <trkpt lat="43.18856" lon="2.03471">
        <ele>356.7</ele>
        <time>2026-05-27T12:45:34Z</time>
      </trkpt>
      <trkpt lat="43.18853" lon="2.03477">
        <ele>357.1</ele>
        <time>2026-05-27T12:45:39Z</time>
      </trkpt>
      <trkpt lat="43.18849" lon="2.03483">
        <ele>357.5</ele>
        <time>2026-05-27T12:45:44Z</time>
      </trkpt>
      <trkpt lat="43.18847" lon="2.03491">
        <ele>357.9</ele>
        <time>2026-05-27T12:45:49Z</time>
      </trkpt>
      <trkpt lat="43.18847" lon="2.03496">
        <ele>358</ele>
        <time>2026-05-27T12:45:54Z</time>
      </trkpt>
      <trkpt lat="43.18847" lon="2.035">
        <ele>358.2</ele>
        <time>2026-05-27T12:45:59Z</time>
      </trkpt>
      <trkpt lat="43.18844" lon="2.03505">
        <ele>358.2</ele>
        <time>2026-05-27T12:46:04Z</time>
      </trkpt>
      <trkpt lat="43.18841" lon="2.0351">
        <ele>358.2</ele>
        <time>2026-05-27T12:46:09Z</time>
      </trkpt>
      <trkpt lat="43.18837" lon="2.03513">
        <ele>358.4</ele>
        <time>2026-05-27T12:46:14Z</time>
      </trkpt>
      <trkpt lat="43.18833" lon="2.03515">
        <ele>358.6</ele>
        <time>2026-05-27T12:46:19Z</time>
      </trkpt>
      <trkpt lat="43.18832" lon="2.03522">
        <ele>358.4</ele>
        <time>2026-05-27T12:46:24Z</time>
      </trkpt>
      <trkpt lat="43.18832" lon="2.03527">
        <ele>358.3</ele>
        <time>2026-05-27T12:46:29Z</time>
      </trkpt>
      <trkpt lat="43.18829" lon="2.03531">
        <ele>358</ele>
        <time>2026-05-27T12:46:34Z</time>
      </trkpt>
      <trkpt lat="43.18824" lon="2.03536">
        <ele>357.7</ele>
        <time>2026-05-27T12:46:39Z</time>
      </trkpt>
      <trkpt lat="43.18819" lon="2.03541">
        <ele>357.2</ele>
        <time>2026-05-27T12:46:44Z</time>
      </trkpt>
      <trkpt lat="43.18816" lon="2.03543">
        <ele>357</ele>
        <time>2026-05-27T12:46:49Z</time>
      </trkpt>
      <trkpt lat="43.18813" lon="2.03547">
        <ele>356.7</ele>
        <time>2026-05-27T12:46:54Z</time>
      </trkpt>
      <trkpt lat="43.1881" lon="2.03548">
        <ele>356.5</ele>
        <time>2026-05-27T12:46:59Z</time>
      </trkpt>
      <trkpt lat="43.18806" lon="2.03546">
        <ele>356.4</ele>
        <time>2026-05-27T12:47:04Z</time>
      </trkpt>
      <trkpt lat="43.18801" lon="2.0354">
        <ele>356.3</ele>
        <time>2026-05-27T12:47:09Z</time>
      </trkpt>
      <trkpt lat="43.18797" lon="2.03539">
        <ele>356.1</ele>
        <time>2026-05-27T12:47:14Z</time>
      </trkpt>
      <trkpt lat="43.18796" lon="2.03544">
        <ele>355.9</ele>
        <time>2026-05-27T12:47:19Z</time>
      </trkpt>
      <trkpt lat="43.18793" lon="2.03551">
        <ele>355.4</ele>
        <time>2026-05-27T12:47:24Z</time>
      </trkpt>
      <trkpt lat="43.18791" lon="2.03559">
        <ele>355</ele>
        <time>2026-05-27T12:47:29Z</time>
      </trkpt>
      <trkpt lat="43.18787" lon="2.03569">
        <ele>354.3</ele>
        <time>2026-05-27T12:47:34Z</time>
      </trkpt>
      <trkpt lat="43.18783" lon="2.03576">
        <ele>353.7</ele>
        <time>2026-05-27T12:47:39Z</time>
      </trkpt>
      <trkpt lat="43.1878" lon="2.03584">
        <ele>353.1</ele>
        <time>2026-05-27T12:47:44Z</time>
      </trkpt>
      <trkpt lat="43.18778" lon="2.03593">
        <ele>351.8</ele>
        <time>2026-05-27T12:47:49Z</time>
      </trkpt>
      <trkpt lat="43.18775" lon="2.03597">
        <ele>351</ele>
        <time>2026-05-27T12:47:54Z</time>
      </trkpt>
      <trkpt lat="43.18775" lon="2.03598">
        <ele>350.9</ele>
        <time>2026-05-27T12:47:59Z</time>
      </trkpt>
      <trkpt lat="43.18775" lon="2.03598">
        <ele>350.9</ele>
        <time>2026-05-27T12:48:04Z</time>
      </trkpt>
      <trkpt lat="43.18775" lon="2.03598">
        <ele>350.9</ele>
        <time>2026-05-27T12:48:09Z</time>
      </trkpt>
      <trkpt lat="43.18775" lon="2.03598">
        <ele>350.9</ele>
        <time>2026-05-27T12:48:14Z</time>
      </trkpt>
      <trkpt lat="43.18775" lon="2.03598">
        <ele>350.9</ele>
        <time>2026-05-27T12:48:19Z</time>
      </trkpt>
      <trkpt lat="43.18775" lon="2.03598">
        <ele>350.9</ele>
        <time>2026-05-27T12:48:24Z</time>
      </trkpt>
      <trkpt lat="43.18775" lon="2.03602">
        <ele>350.4</ele>
        <time>2026-05-27T12:48:29Z</time>
      </trkpt>
      <trkpt lat="43.18773" lon="2.03605">
        <ele>349.9</ele>
        <time>2026-05-27T12:48:34Z</time>
      </trkpt>
      <trkpt lat="43.18772" lon="2.03607">
        <ele>349.5</ele>
        <time>2026-05-27T12:48:39Z</time>
      </trkpt>
      <trkpt lat="43.18772" lon="2.03608">
        <ele>349.4</ele>
        <time>2026-05-27T12:48:44Z</time>
      </trkpt>
      <trkpt lat="43.18772" lon="2.03608">
        <ele>349.4</ele>
        <time>2026-05-27T12:48:49Z</time>
      </trkpt>
      <trkpt lat="43.18772" lon="2.03608">
        <ele>349.4</ele>
        <time>2026-05-27T12:48:54Z</time>
      </trkpt>
      <trkpt lat="43.18772" lon="2.03608">
        <ele>349.4</ele>
        <time>2026-05-27T12:48:59Z</time>
      </trkpt>
      <trkpt lat="43.18772" lon="2.03608">
        <ele>349.4</ele>
        <time>2026-05-27T12:49:04Z</time>
      </trkpt>
      <trkpt lat="43.18772" lon="2.03608">
        <ele>349.4</ele>
        <time>2026-05-27T12:49:09Z</time>
      </trkpt>
      <trkpt lat="43.18772" lon="2.03608">
        <ele>349.4</ele>
        <time>2026-05-27T12:49:14Z</time>
      </trkpt>
      <trkpt lat="43.18772" lon="2.03608">
        <ele>349.4</ele>
        <time>2026-05-27T12:49:19Z</time>
      </trkpt>
      <trkpt lat="43.18772" lon="2.03608">
        <ele>349.4</ele>
        <time>2026-05-27T12:49:24Z</time>
      </trkpt>
      <trkpt lat="43.18772" lon="2.03608">
        <ele>349.4</ele>
        <time>2026-05-27T12:49:29Z</time>
      </trkpt>
      <trkpt lat="43.18772" lon="2.03608">
        <ele>349.4</ele>
        <time>2026-05-27T12:49:34Z</time>
      </trkpt>
      <trkpt lat="43.18772" lon="2.03608">
        <ele>349.4</ele>
        <time>2026-05-27T12:49:39Z</time>
      </trkpt>
      <trkpt lat="43.18772" lon="2.03608">
        <ele>349.4</ele>
        <time>2026-05-27T12:49:44Z</time>
      </trkpt>
      <trkpt lat="43.18772" lon="2.03608">
        <ele>349.4</ele>
        <time>2026-05-27T12:49:49Z</time>
      </trkpt>
      <trkpt lat="43.18772" lon="2.03608">
        <ele>349.4</ele>
        <time>2026-05-27T12:49:54Z</time>
      </trkpt>
      <trkpt lat="43.18772" lon="2.03608">
        <ele>349.4</ele>
        <time>2026-05-27T12:49:59Z</time>
      </trkpt>
      <trkpt lat="43.18772" lon="2.03608">
        <ele>349.4</ele>
        <time>2026-05-27T12:50:04Z</time>
      </trkpt>
      <trkpt lat="43.18772" lon="2.03608">
        <ele>349.4</ele>
        <time>2026-05-27T12:50:09Z</time>
      </trkpt>
      <trkpt lat="43.18769" lon="2.03614">
        <ele>348.4</ele>
        <time>2026-05-27T12:50:14Z</time>
      </trkpt>
      <trkpt lat="43.18763" lon="2.0362">
        <ele>347.2</ele>
        <time>2026-05-27T12:50:19Z</time>
      </trkpt>
      <trkpt lat="43.18762" lon="2.03627">
        <ele>346.2</ele>
        <time>2026-05-27T12:50:24Z</time>
      </trkpt>
      <trkpt lat="43.18759" lon="2.03632">
        <ele>345.3</ele>
        <time>2026-05-27T12:50:29Z</time>
      </trkpt>
      <trkpt lat="43.18754" lon="2.03636">
        <ele>344.4</ele>
        <time>2026-05-27T12:50:34Z</time>
      </trkpt>
      <trkpt lat="43.18749" lon="2.03635">
        <ele>343.9</ele>
        <time>2026-05-27T12:50:39Z</time>
      </trkpt>
      <trkpt lat="43.18744" lon="2.03633">
        <ele>342.9</ele>
        <time>2026-05-27T12:50:44Z</time>
      </trkpt>
      <trkpt lat="43.1874" lon="2.0363">
        <ele>342.3</ele>
        <time>2026-05-27T12:50:49Z</time>
      </trkpt>
      <trkpt lat="43.18733" lon="2.03627">
        <ele>341</ele>
        <time>2026-05-27T12:50:54Z</time>
      </trkpt>
      <trkpt lat="43.18731" lon="2.03624">
        <ele>341</ele>
        <time>2026-05-27T12:50:59Z</time>
      </trkpt>
      <trkpt lat="43.18727" lon="2.0362">
        <ele>340.6</ele>
        <time>2026-05-27T12:51:04Z</time>
      </trkpt>
      <trkpt lat="43.18722" lon="2.03622">
        <ele>339.1</ele>
        <time>2026-05-27T12:51:09Z</time>
      </trkpt>
      <trkpt lat="43.18718" lon="2.03628">
        <ele>337.2</ele>
        <time>2026-05-27T12:51:14Z</time>
      </trkpt>
      <trkpt lat="43.18716" lon="2.03634">
        <ele>335.7</ele>
        <time>2026-05-27T12:51:19Z</time>
      </trkpt>
      <trkpt lat="43.18712" lon="2.03639">
        <ele>333.9</ele>
        <time>2026-05-27T12:51:24Z</time>
      </trkpt>
      <trkpt lat="43.18705" lon="2.03646">
        <ele>331</ele>
        <time>2026-05-27T12:51:29Z</time>
      </trkpt>
      <trkpt lat="43.18699" lon="2.03652">
        <ele>328.4</ele>
        <time>2026-05-27T12:51:34Z</time>
      </trkpt>
      <trkpt lat="43.18695" lon="2.03657">
        <ele>326.5</ele>
        <time>2026-05-27T12:51:39Z</time>
      </trkpt>
      <trkpt lat="43.18694" lon="2.03658">
        <ele>326</ele>
        <time>2026-05-27T12:51:44Z</time>
      </trkpt>
      <trkpt lat="43.18693" lon="2.03659">
        <ele>325.6</ele>
        <time>2026-05-27T12:51:49Z</time>
      </trkpt>
      <trkpt lat="43.18693" lon="2.03659">
        <ele>325.6</ele>
        <time>2026-05-27T12:51:54Z</time>
      </trkpt>
      <trkpt lat="43.18693" lon="2.03659">
        <ele>325.6</ele>
        <time>2026-05-27T12:51:59Z</time>
      </trkpt>
      <trkpt lat="43.18691" lon="2.03665">
        <ele>324</ele>
        <time>2026-05-27T12:52:04Z</time>
      </trkpt>
      <trkpt lat="43.18689" lon="2.03669">
        <ele>322.7</ele>
        <time>2026-05-27T12:52:09Z</time>
      </trkpt>
      <trkpt lat="43.18689" lon="2.03669">
        <ele>322.7</ele>
        <time>2026-05-27T12:52:14Z</time>
      </trkpt>
      <trkpt lat="43.18689" lon="2.03669">
        <ele>322.7</ele>
        <time>2026-05-27T12:52:19Z</time>
      </trkpt>
      <trkpt lat="43.18687" lon="2.03671">
        <ele>321.8</ele>
        <time>2026-05-27T12:52:24Z</time>
      </trkpt>
      <trkpt lat="43.1869" lon="2.0368">
        <ele>321.1</ele>
        <time>2026-05-27T12:52:29Z</time>
      </trkpt>
      <trkpt lat="43.18692" lon="2.03683">
        <ele>321.1</ele>
        <time>2026-05-27T12:52:34Z</time>
      </trkpt>
      <trkpt lat="43.18695" lon="2.03689">
        <ele>320.8</ele>
        <time>2026-05-27T12:52:39Z</time>
      </trkpt>
      <trkpt lat="43.18699" lon="2.03692">
        <ele>321.3</ele>
        <time>2026-05-27T12:52:44Z</time>
      </trkpt>
      <trkpt lat="43.18701" lon="2.03692">
        <ele>321.8</ele>
        <time>2026-05-27T12:52:49Z</time>
      </trkpt>
      <trkpt lat="43.18701" lon="2.03692">
        <ele>321.8</ele>
        <time>2026-05-27T12:52:54Z</time>
      </trkpt>
      <trkpt lat="43.18702" lon="2.03693">
        <ele>321.9</ele>
        <time>2026-05-27T12:52:59Z</time>
      </trkpt>
      <trkpt lat="43.18702" lon="2.03695">
        <ele>321.6</ele>
        <time>2026-05-27T12:53:04Z</time>
      </trkpt>
      <trkpt lat="43.18702" lon="2.03695">
        <ele>321.6</ele>
        <time>2026-05-27T12:53:09Z</time>
      </trkpt>
      <trkpt lat="43.18702" lon="2.03695">
        <ele>321.6</ele>
        <time>2026-05-27T12:53:14Z</time>
      </trkpt>
      <trkpt lat="43.18702" lon="2.03695">
        <ele>321.6</ele>
        <time>2026-05-27T12:53:19Z</time>
      </trkpt>
      <trkpt lat="43.18702" lon="2.03695">
        <ele>321.6</ele>
        <time>2026-05-27T12:53:24Z</time>
      </trkpt>
      <trkpt lat="43.18702" lon="2.03695">
        <ele>321.6</ele>
        <time>2026-05-27T12:53:29Z</time>
      </trkpt>
      <trkpt lat="43.18702" lon="2.03695">
        <ele>321.6</ele>
        <time>2026-05-27T12:53:34Z</time>
      </trkpt>
      <trkpt lat="43.18702" lon="2.03695">
        <ele>321.6</ele>
        <time>2026-05-27T12:53:39Z</time>
      </trkpt>
      <trkpt lat="43.18703" lon="2.03702">
        <ele>320.5</ele>
        <time>2026-05-27T12:53:44Z</time>
      </trkpt>
      <trkpt lat="43.18704" lon="2.03702">
        <ele>320.8</ele>
        <time>2026-05-27T12:53:49Z</time>
      </trkpt>
      <trkpt lat="43.18704" lon="2.03702">
        <ele>320.8</ele>
        <time>2026-05-27T12:53:54Z</time>
      </trkpt>
      <trkpt lat="43.18704" lon="2.03702">
        <ele>320.8</ele>
        <time>2026-05-27T12:53:59Z</time>
      </trkpt>
      <trkpt lat="43.18704" lon="2.03702">
        <ele>320.8</ele>
        <time>2026-05-27T12:54:04Z</time>
      </trkpt>
      <trkpt lat="43.18704" lon="2.03702">
        <ele>320.8</ele>
        <time>2026-05-27T12:54:09Z</time>
      </trkpt>
      <trkpt lat="43.18704" lon="2.03702">
        <ele>320.8</ele>
        <time>2026-05-27T12:54:14Z</time>
      </trkpt>
      <trkpt lat="43.18704" lon="2.03702">
        <ele>320.8</ele>
        <time>2026-05-27T12:54:19Z</time>
      </trkpt>
      <trkpt lat="43.18704" lon="2.03702">
        <ele>320.8</ele>
        <time>2026-05-27T12:54:24Z</time>
      </trkpt>
      <trkpt lat="43.18704" lon="2.03702">
        <ele>320.8</ele>
        <time>2026-05-27T12:54:29Z</time>
      </trkpt>
      <trkpt lat="43.18704" lon="2.03702">
        <ele>320.8</ele>
        <time>2026-05-27T12:54:34Z</time>
      </trkpt>
      <trkpt lat="43.18704" lon="2.03702">
        <ele>320.8</ele>
        <time>2026-05-27T12:54:39Z</time>
      </trkpt>
      <trkpt lat="43.18704" lon="2.03702">
        <ele>320.8</ele>
        <time>2026-05-27T12:54:44Z</time>
      </trkpt>
      <trkpt lat="43.18704" lon="2.03702">
        <ele>320.8</ele>
        <time>2026-05-27T12:54:49Z</time>
      </trkpt>
      <trkpt lat="43.18704" lon="2.03702">
        <ele>320.8</ele>
        <time>2026-05-27T12:54:54Z</time>
      </trkpt>
      <trkpt lat="43.18704" lon="2.03702">
        <ele>320.8</ele>
        <time>2026-05-27T12:54:59Z</time>
      </trkpt>
      <trkpt lat="43.18704" lon="2.03702">
        <ele>320.8</ele>
        <time>2026-05-27T12:55:04Z</time>
      </trkpt>
      <trkpt lat="43.18704" lon="2.03702">
        <ele>320.8</ele>
        <time>2026-05-27T12:55:09Z</time>
      </trkpt>
      <trkpt lat="43.18704" lon="2.03702">
        <ele>320.8</ele>
        <time>2026-05-27T12:55:14Z</time>
      </trkpt>
      <trkpt lat="43.18704" lon="2.03702">
        <ele>320.8</ele>
        <time>2026-05-27T12:55:19Z</time>
      </trkpt>
      <trkpt lat="43.18704" lon="2.03702">
        <ele>320.8</ele>
        <time>2026-05-27T12:55:24Z</time>
      </trkpt>
      <trkpt lat="43.18704" lon="2.03702">
        <ele>320.8</ele>
        <time>2026-05-27T12:55:29Z</time>
      </trkpt>
      <trkpt lat="43.18704" lon="2.03702">
        <ele>320.8</ele>
        <time>2026-05-27T12:55:34Z</time>
      </trkpt>
      <trkpt lat="43.18704" lon="2.03702">
        <ele>320.8</ele>
        <time>2026-05-27T12:55:39Z</time>
      </trkpt>
      <trkpt lat="43.18704" lon="2.03702">
        <ele>320.8</ele>
        <time>2026-05-27T12:55:44Z</time>
      </trkpt>
      <trkpt lat="43.18704" lon="2.03702">
        <ele>320.8</ele>
        <time>2026-05-27T12:55:49Z</time>
      </trkpt>
      <trkpt lat="43.18704" lon="2.03702">
        <ele>320.8</ele>
        <time>2026-05-27T12:55:54Z</time>
      </trkpt>
      <trkpt lat="43.18704" lon="2.03702">
        <ele>320.8</ele>
        <time>2026-05-27T12:55:59Z</time>
      </trkpt>
      <trkpt lat="43.18704" lon="2.03702">
        <ele>320.8</ele>
        <time>2026-05-27T12:56:04Z</time>
      </trkpt>
      <trkpt lat="43.18704" lon="2.03702">
        <ele>320.8</ele>
        <time>2026-05-27T12:56:09Z</time>
      </trkpt>
      <trkpt lat="43.18704" lon="2.03702">
        <ele>320.8</ele>
        <time>2026-05-27T12:56:14Z</time>
      </trkpt>
      <trkpt lat="43.18704" lon="2.03702">
        <ele>320.8</ele>
        <time>2026-05-27T12:56:19Z</time>
      </trkpt>
      <trkpt lat="43.18704" lon="2.03702">
        <ele>320.8</ele>
        <time>2026-05-27T12:56:24Z</time>
      </trkpt>
      <trkpt lat="43.18704" lon="2.03702">
        <ele>320.8</ele>
        <time>2026-05-27T12:56:29Z</time>
      </trkpt>
      <trkpt lat="43.18704" lon="2.03702">
        <ele>320.8</ele>
        <time>2026-05-27T12:56:34Z</time>
      </trkpt>
      <trkpt lat="43.18704" lon="2.03702">
        <ele>320.8</ele>
        <time>2026-05-27T12:56:39Z</time>
      </trkpt>
      <trkpt lat="43.18704" lon="2.03702">
        <ele>320.8</ele>
        <time>2026-05-27T12:56:44Z</time>
      </trkpt>
      <trkpt lat="43.18704" lon="2.03702">
        <ele>320.8</ele>
        <time>2026-05-27T12:56:49Z</time>
      </trkpt>
      <trkpt lat="43.18704" lon="2.03702">
        <ele>320.8</ele>
        <time>2026-05-27T12:56:54Z</time>
      </trkpt>
      <trkpt lat="43.18698" lon="2.03693">
        <ele>320.9</ele>
        <time>2026-05-27T12:56:59Z</time>
      </trkpt>
      <trkpt lat="43.18696" lon="2.03693">
        <ele>320.3</ele>
        <time>2026-05-27T12:57:04Z</time>
      </trkpt>
      <trkpt lat="43.18696" lon="2.03693">
        <ele>320.3</ele>
        <time>2026-05-27T12:57:09Z</time>
      </trkpt>
      <trkpt lat="43.18696" lon="2.03693">
        <ele>320.3</ele>
        <time>2026-05-27T12:57:14Z</time>
      </trkpt>
      <trkpt lat="43.18696" lon="2.03693">
        <ele>320.3</ele>
        <time>2026-05-27T12:57:19Z</time>
      </trkpt>
      <trkpt lat="43.18696" lon="2.03693">
        <ele>320.3</ele>
        <time>2026-05-27T12:57:24Z</time>
      </trkpt>
      <trkpt lat="43.18696" lon="2.03693">
        <ele>320.3</ele>
        <time>2026-05-27T12:57:29Z</time>
      </trkpt>
      <trkpt lat="43.18696" lon="2.03693">
        <ele>320.3</ele>
        <time>2026-05-27T12:57:34Z</time>
      </trkpt>
      <trkpt lat="43.18696" lon="2.03693">
        <ele>320.3</ele>
        <time>2026-05-27T12:57:39Z</time>
      </trkpt>
      <trkpt lat="43.18696" lon="2.03693">
        <ele>320.3</ele>
        <time>2026-05-27T12:57:44Z</time>
      </trkpt>
      <trkpt lat="43.18696" lon="2.03693">
        <ele>320.3</ele>
        <time>2026-05-27T12:57:49Z</time>
      </trkpt>
      <trkpt lat="43.18696" lon="2.03693">
        <ele>320.3</ele>
        <time>2026-05-27T12:57:54Z</time>
      </trkpt>
      <trkpt lat="43.18696" lon="2.03693">
        <ele>320.3</ele>
        <time>2026-05-27T12:57:59Z</time>
      </trkpt>
      <trkpt lat="43.18696" lon="2.03686">
        <ele>321.6</ele>
        <time>2026-05-27T12:58:04Z</time>
      </trkpt>
      <trkpt lat="43.18696" lon="2.03679">
        <ele>322.9</ele>
        <time>2026-05-27T12:58:09Z</time>
      </trkpt>
      <trkpt lat="43.18695" lon="2.0367">
        <ele>324.2</ele>
        <time>2026-05-27T12:58:14Z</time>
      </trkpt>
      <trkpt lat="43.18694" lon="2.03664">
        <ele>325</ele>
        <time>2026-05-27T12:58:19Z</time>
      </trkpt>
      <trkpt lat="43.18692" lon="2.0366">
        <ele>325.2</ele>
        <time>2026-05-27T12:58:24Z</time>
      </trkpt>
      <trkpt lat="43.18692" lon="2.03658">
        <ele>325.5</ele>
        <time>2026-05-27T12:58:29Z</time>
      </trkpt>
      <trkpt lat="43.18692" lon="2.03659">
        <ele>325.3</ele>
        <time>2026-05-27T12:58:34Z</time>
      </trkpt>
      <trkpt lat="43.18692" lon="2.03659">
        <ele>325.3</ele>
        <time>2026-05-27T12:58:39Z</time>
      </trkpt>
      <trkpt lat="43.18692" lon="2.03659">
        <ele>325.3</ele>
        <time>2026-05-27T12:58:44Z</time>
      </trkpt>
      <trkpt lat="43.18692" lon="2.03659">
        <ele>325.3</ele>
        <time>2026-05-27T12:58:49Z</time>
      </trkpt>
      <trkpt lat="43.18692" lon="2.03659">
        <ele>325.3</ele>
        <time>2026-05-27T12:58:54Z</time>
      </trkpt>
      <trkpt lat="43.18692" lon="2.03659">
        <ele>325.3</ele>
        <time>2026-05-27T12:58:59Z</time>
      </trkpt>
      <trkpt lat="43.18692" lon="2.03659">
        <ele>325.3</ele>
        <time>2026-05-27T12:59:04Z</time>
      </trkpt>
      <trkpt lat="43.18692" lon="2.03659">
        <ele>325.3</ele>
        <time>2026-05-27T12:59:09Z</time>
      </trkpt>
      <trkpt lat="43.18692" lon="2.03659">
        <ele>325.3</ele>
        <time>2026-05-27T12:59:14Z</time>
      </trkpt>
      <trkpt lat="43.18692" lon="2.03659">
        <ele>325.3</ele>
        <time>2026-05-27T12:59:19Z</time>
      </trkpt>
      <trkpt lat="43.18692" lon="2.03659">
        <ele>325.3</ele>
        <time>2026-05-27T12:59:24Z</time>
      </trkpt>
      <trkpt lat="43.18692" lon="2.03659">
        <ele>325.3</ele>
        <time>2026-05-27T12:59:29Z</time>
      </trkpt>
      <trkpt lat="43.18692" lon="2.03659">
        <ele>325.3</ele>
        <time>2026-05-27T12:59:34Z</time>
      </trkpt>
      <trkpt lat="43.18692" lon="2.03659">
        <ele>325.3</ele>
        <time>2026-05-27T12:59:39Z</time>
      </trkpt>
      <trkpt lat="43.18692" lon="2.03659">
        <ele>325.3</ele>
        <time>2026-05-27T12:59:44Z</time>
      </trkpt>
      <trkpt lat="43.18692" lon="2.03659">
        <ele>325.3</ele>
        <time>2026-05-27T12:59:49Z</time>
      </trkpt>
      <trkpt lat="43.18692" lon="2.03659">
        <ele>325.3</ele>
        <time>2026-05-27T12:59:54Z</time>
      </trkpt>
      <trkpt lat="43.18692" lon="2.03659">
        <ele>325.3</ele>
        <time>2026-05-27T12:59:59Z</time>
      </trkpt>
      <trkpt lat="43.18692" lon="2.03659">
        <ele>325.3</ele>
        <time>2026-05-27T13:00:04Z</time>
      </trkpt>
      <trkpt lat="43.187" lon="2.03654">
        <ele>328.3</ele>
        <time>2026-05-27T13:00:09Z</time>
      </trkpt>
      <trkpt lat="43.18703" lon="2.03649">
        <ele>330</ele>
        <time>2026-05-27T13:00:14Z</time>
      </trkpt>
      <trkpt lat="43.18705" lon="2.03645">
        <ele>331.1</ele>
        <time>2026-05-27T13:00:19Z</time>
      </trkpt>
      <trkpt lat="43.18709" lon="2.0364">
        <ele>333</ele>
        <time>2026-05-27T13:00:24Z</time>
      </trkpt>
      <trkpt lat="43.18712" lon="2.03634">
        <ele>334.7</ele>
        <time>2026-05-27T13:00:29Z</time>
      </trkpt>
      <trkpt lat="43.18714" lon="2.03627">
        <ele>336.3</ele>
        <time>2026-05-27T13:00:34Z</time>
      </trkpt>
      <trkpt lat="43.18717" lon="2.03619">
        <ele>338.3</ele>
        <time>2026-05-27T13:00:39Z</time>
      </trkpt>
      <trkpt lat="43.18716" lon="2.03612">
        <ele>339.2</ele>
        <time>2026-05-27T13:00:44Z</time>
      </trkpt>
      <trkpt lat="43.18714" lon="2.03606">
        <ele>339.6</ele>
        <time>2026-05-27T13:00:49Z</time>
      </trkpt>
      <trkpt lat="43.18713" lon="2.03605">
        <ele>339.6</ele>
        <time>2026-05-27T13:00:54Z</time>
      </trkpt>
      <trkpt lat="43.18713" lon="2.03605">
        <ele>339.6</ele>
        <time>2026-05-27T13:00:59Z</time>
      </trkpt>
      <trkpt lat="43.18713" lon="2.03605">
        <ele>339.6</ele>
        <time>2026-05-27T13:01:04Z</time>
      </trkpt>
      <trkpt lat="43.18713" lon="2.03605">
        <ele>339.6</ele>
        <time>2026-05-27T13:01:09Z</time>
      </trkpt>
      <trkpt lat="43.18713" lon="2.03605">
        <ele>339.6</ele>
        <time>2026-05-27T13:01:14Z</time>
      </trkpt>
      <trkpt lat="43.18713" lon="2.03605">
        <ele>339.6</ele>
        <time>2026-05-27T13:01:19Z</time>
      </trkpt>
      <trkpt lat="43.18714" lon="2.03598">
        <ele>340.9</ele>
        <time>2026-05-27T13:01:24Z</time>
      </trkpt>
      <trkpt lat="43.18713" lon="2.03586">
        <ele>342.6</ele>
        <time>2026-05-27T13:01:29Z</time>
      </trkpt>
      <trkpt lat="43.18714" lon="2.03578">
        <ele>343.6</ele>
        <time>2026-05-27T13:01:34Z</time>
      </trkpt>
      <trkpt lat="43.18715" lon="2.03568">
        <ele>344.4</ele>
        <time>2026-05-27T13:01:39Z</time>
      </trkpt>
      <trkpt lat="43.18716" lon="2.03558">
        <ele>345.3</ele>
        <time>2026-05-27T13:01:44Z</time>
      </trkpt>
      <trkpt lat="43.18718" lon="2.03549">
        <ele>346.3</ele>
        <time>2026-05-27T13:01:49Z</time>
      </trkpt>
      <trkpt lat="43.18716" lon="2.03546">
        <ele>346.1</ele>
        <time>2026-05-27T13:01:54Z</time>
      </trkpt>
      <trkpt lat="43.18716" lon="2.03545">
        <ele>346.1</ele>
        <time>2026-05-27T13:01:59Z</time>
      </trkpt>
      <trkpt lat="43.18718" lon="2.03543">
        <ele>346.7</ele>
        <time>2026-05-27T13:02:04Z</time>
      </trkpt>
      <trkpt lat="43.1872" lon="2.03541">
        <ele>347.2</ele>
        <time>2026-05-27T13:02:09Z</time>
      </trkpt>
      <trkpt lat="43.18725" lon="2.03538">
        <ele>348.5</ele>
        <time>2026-05-27T13:02:14Z</time>
      </trkpt>
      <trkpt lat="43.18728" lon="2.03532">
        <ele>349.5</ele>
        <time>2026-05-27T13:02:19Z</time>
      </trkpt>
      <trkpt lat="43.18729" lon="2.03524">
        <ele>350.2</ele>
        <time>2026-05-27T13:02:24Z</time>
      </trkpt>
      <trkpt lat="43.1873" lon="2.03517">
        <ele>350.9</ele>
        <time>2026-05-27T13:02:29Z</time>
      </trkpt>
      <trkpt lat="43.18735" lon="2.03506">
        <ele>352.6</ele>
        <time>2026-05-27T13:02:34Z</time>
      </trkpt>
      <trkpt lat="43.18738" lon="2.03499">
        <ele>353.6</ele>
        <time>2026-05-27T13:02:39Z</time>
      </trkpt>
      <trkpt lat="43.18735" lon="2.03494">
        <ele>352.9</ele>
        <time>2026-05-27T13:02:44Z</time>
      </trkpt>
      <trkpt lat="43.1873" lon="2.03494">
        <ele>351.9</ele>
        <time>2026-05-27T13:02:49Z</time>
      </trkpt>
      <trkpt lat="43.18728" lon="2.03493">
        <ele>351.5</ele>
        <time>2026-05-27T13:02:54Z</time>
      </trkpt>
      <trkpt lat="43.18726" lon="2.03488">
        <ele>351.1</ele>
        <time>2026-05-27T13:02:59Z</time>
      </trkpt>
      <trkpt lat="43.18722" lon="2.03486">
        <ele>350.3</ele>
        <time>2026-05-27T13:03:04Z</time>
      </trkpt>
      <trkpt lat="43.18721" lon="2.03484">
        <ele>350.1</ele>
        <time>2026-05-27T13:03:09Z</time>
      </trkpt>
      <trkpt lat="43.18721" lon="2.03484">
        <ele>350.1</ele>
        <time>2026-05-27T13:03:14Z</time>
      </trkpt>
      <trkpt lat="43.18721" lon="2.03484">
        <ele>350.1</ele>
        <time>2026-05-27T13:03:19Z</time>
      </trkpt>
      <trkpt lat="43.18721" lon="2.03484">
        <ele>350.1</ele>
        <time>2026-05-27T13:03:24Z</time>
      </trkpt>
      <trkpt lat="43.18721" lon="2.03484">
        <ele>350.1</ele>
        <time>2026-05-27T13:03:29Z</time>
      </trkpt>
      <trkpt lat="43.18721" lon="2.03484">
        <ele>350.1</ele>
        <time>2026-05-27T13:03:34Z</time>
      </trkpt>
      <trkpt lat="43.18721" lon="2.03484">
        <ele>350.1</ele>
        <time>2026-05-27T13:03:39Z</time>
      </trkpt>
      <trkpt lat="43.18721" lon="2.03484">
        <ele>350.1</ele>
        <time>2026-05-27T13:03:44Z</time>
      </trkpt>
      <trkpt lat="43.18721" lon="2.03484">
        <ele>350.1</ele>
        <time>2026-05-27T13:03:49Z</time>
      </trkpt>
      <trkpt lat="43.18718" lon="2.03475">
        <ele>349.5</ele>
        <time>2026-05-27T13:03:54Z</time>
      </trkpt>
      <trkpt lat="43.1871" lon="2.0347">
        <ele>347.8</ele>
        <time>2026-05-27T13:03:59Z</time>
      </trkpt>
      <trkpt lat="43.18704" lon="2.03467">
        <ele>346.6</ele>
        <time>2026-05-27T13:04:04Z</time>
      </trkpt>
      <trkpt lat="43.18702" lon="2.03461">
        <ele>346.2</ele>
        <time>2026-05-27T13:04:09Z</time>
      </trkpt>
      <trkpt lat="43.18702" lon="2.03461">
        <ele>346.2</ele>
        <time>2026-05-27T13:04:14Z</time>
      </trkpt>
      <trkpt lat="43.18701" lon="2.03459">
        <ele>346</ele>
        <time>2026-05-27T13:04:19Z</time>
      </trkpt>
      <trkpt lat="43.18694" lon="2.03454">
        <ele>344.6</ele>
        <time>2026-05-27T13:04:24Z</time>
      </trkpt>
      <trkpt lat="43.18688" lon="2.03453">
        <ele>343.4</ele>
        <time>2026-05-27T13:04:29Z</time>
      </trkpt>
      <trkpt lat="43.18683" lon="2.03452">
        <ele>342.3</ele>
        <time>2026-05-27T13:04:34Z</time>
      </trkpt>
      <trkpt lat="43.18678" lon="2.03451">
        <ele>341.3</ele>
        <time>2026-05-27T13:04:39Z</time>
      </trkpt>
      <trkpt lat="43.18672" lon="2.03447">
        <ele>340.1</ele>
        <time>2026-05-27T13:04:44Z</time>
      </trkpt>
      <trkpt lat="43.18673" lon="2.03442">
        <ele>340.3</ele>
        <time>2026-05-27T13:04:49Z</time>
      </trkpt>
      <trkpt lat="43.18675" lon="2.03434">
        <ele>340.7</ele>
        <time>2026-05-27T13:04:54Z</time>
      </trkpt>
      <trkpt lat="43.18676" lon="2.03429">
        <ele>340.9</ele>
        <time>2026-05-27T13:04:59Z</time>
      </trkpt>
      <trkpt lat="43.18675" lon="2.03422">
        <ele>340.7</ele>
        <time>2026-05-27T13:05:04Z</time>
      </trkpt>
      <trkpt lat="43.18672" lon="2.0342">
        <ele>340.1</ele>
        <time>2026-05-27T13:05:09Z</time>
      </trkpt>
      <trkpt lat="43.18669" lon="2.03421">
        <ele>339.5</ele>
        <time>2026-05-27T13:05:14Z</time>
      </trkpt>
      <trkpt lat="43.18671" lon="2.03418">
        <ele>339.9</ele>
        <time>2026-05-27T13:05:19Z</time>
      </trkpt>
      <trkpt lat="43.18677" lon="2.03408">
        <ele>340.8</ele>
        <time>2026-05-27T13:05:24Z</time>
      </trkpt>
      <trkpt lat="43.18679" lon="2.03408">
        <ele>341.2</ele>
        <time>2026-05-27T13:05:29Z</time>
      </trkpt>
      <trkpt lat="43.18679" lon="2.03408">
        <ele>341.2</ele>
        <time>2026-05-27T13:05:34Z</time>
      </trkpt>
      <trkpt lat="43.18679" lon="2.03408">
        <ele>341.2</ele>
        <time>2026-05-27T13:05:39Z</time>
      </trkpt>
      <trkpt lat="43.18679" lon="2.03408">
        <ele>341.2</ele>
        <time>2026-05-27T13:05:44Z</time>
      </trkpt>
      <trkpt lat="43.18678" lon="2.03408">
        <ele>341</ele>
        <time>2026-05-27T13:05:49Z</time>
      </trkpt>
      <trkpt lat="43.18678" lon="2.03408">
        <ele>341</ele>
        <time>2026-05-27T13:05:49Z</time>
      </trkpt>
      <trkpt lat="43.1867" lon="2.03408">
        <ele>339.4</ele>
        <time>2026-05-27T13:06:34Z</time>
      </trkpt>
      <trkpt lat="43.18677" lon="2.03415">
        <ele>341</ele>
        <time>2026-05-27T13:06:39Z</time>
      </trkpt>
      <trkpt lat="43.18681" lon="2.0341">
        <ele>341.6</ele>
        <time>2026-05-27T13:06:44Z</time>
      </trkpt>
      <trkpt lat="43.18682" lon="2.03405">
        <ele>341.6</ele>
        <time>2026-05-27T13:06:49Z</time>
      </trkpt>
      <trkpt lat="43.18682" lon="2.03399">
        <ele>341.4</ele>
        <time>2026-05-27T13:06:54Z</time>
      </trkpt>
      <trkpt lat="43.18681" lon="2.03395">
        <ele>341</ele>
        <time>2026-05-27T13:06:59Z</time>
      </trkpt>
      <trkpt lat="43.1868" lon="2.03391">
        <ele>340.6</ele>
        <time>2026-05-27T13:07:04Z</time>
      </trkpt>
      <trkpt lat="43.1868" lon="2.03391">
        <ele>340.6</ele>
        <time>2026-05-27T13:07:09Z</time>
      </trkpt>
      <trkpt lat="43.1868" lon="2.03391">
        <ele>340.6</ele>
        <time>2026-05-27T13:07:14Z</time>
      </trkpt>
      <trkpt lat="43.1868" lon="2.03391">
        <ele>340.6</ele>
        <time>2026-05-27T13:07:19Z</time>
      </trkpt>
      <trkpt lat="43.1868" lon="2.03391">
        <ele>340.6</ele>
        <time>2026-05-27T13:07:24Z</time>
      </trkpt>
      <trkpt lat="43.1868" lon="2.03391">
        <ele>340.6</ele>
        <time>2026-05-27T13:07:29Z</time>
      </trkpt>
      <trkpt lat="43.18679" lon="2.03387">
        <ele>340.3</ele>
        <time>2026-05-27T13:07:34Z</time>
      </trkpt>
      <trkpt lat="43.18675" lon="2.03387">
        <ele>339.5</ele>
        <time>2026-05-27T13:07:39Z</time>
      </trkpt>
      <trkpt lat="43.1867" lon="2.03384">
        <ele>338.5</ele>
        <time>2026-05-27T13:07:44Z</time>
      </trkpt>
      <trkpt lat="43.18667" lon="2.03381">
        <ele>337.8</ele>
        <time>2026-05-27T13:07:49Z</time>
      </trkpt>
      <trkpt lat="43.18661" lon="2.03378">
        <ele>337</ele>
        <time>2026-05-27T13:07:54Z</time>
      </trkpt>
      <trkpt lat="43.18658" lon="2.03374">
        <ele>336.5</ele>
        <time>2026-05-27T13:07:59Z</time>
      </trkpt>
      <trkpt lat="43.18657" lon="2.03371">
        <ele>336.2</ele>
        <time>2026-05-27T13:08:04Z</time>
      </trkpt>
      <trkpt lat="43.18655" lon="2.0337">
        <ele>336</ele>
        <time>2026-05-27T13:08:09Z</time>
      </trkpt>
      <trkpt lat="43.18655" lon="2.0337">
        <ele>336</ele>
        <time>2026-05-27T13:08:14Z</time>
      </trkpt>
      <trkpt lat="43.1866" lon="2.0337">
        <ele>336.5</ele>
        <time>2026-05-27T13:08:19Z</time>
      </trkpt>
      <trkpt lat="43.18664" lon="2.03364">
        <ele>336.8</ele>
        <time>2026-05-27T13:08:24Z</time>
      </trkpt>
      <trkpt lat="43.18668" lon="2.03356">
        <ele>337.1</ele>
        <time>2026-05-27T13:08:29Z</time>
      </trkpt>
      <trkpt lat="43.18671" lon="2.0335">
        <ele>337.4</ele>
        <time>2026-05-27T13:08:34Z</time>
      </trkpt>
      <trkpt lat="43.1867" lon="2.0334">
        <ele>336.8</ele>
        <time>2026-05-27T13:08:39Z</time>
      </trkpt>
      <trkpt lat="43.18673" lon="2.03337">
        <ele>337.2</ele>
        <time>2026-05-27T13:08:44Z</time>
      </trkpt>
      <trkpt lat="43.18674" lon="2.03337">
        <ele>337.4</ele>
        <time>2026-05-27T13:08:49Z</time>
      </trkpt>
      <trkpt lat="43.18677" lon="2.03339">
        <ele>338</ele>
        <time>2026-05-27T13:08:54Z</time>
      </trkpt>
      <trkpt lat="43.18678" lon="2.03337">
        <ele>338.1</ele>
        <time>2026-05-27T13:08:59Z</time>
      </trkpt>
      <trkpt lat="43.18678" lon="2.03338">
        <ele>338.1</ele>
        <time>2026-05-27T13:09:04Z</time>
      </trkpt>
      <trkpt lat="43.18676" lon="2.03337">
        <ele>337.7</ele>
        <time>2026-05-27T13:09:09Z</time>
      </trkpt>
      <trkpt lat="43.18671" lon="2.03334">
        <ele>336.8</ele>
        <time>2026-05-27T13:09:14Z</time>
      </trkpt>
      <trkpt lat="43.18666" lon="2.03332">
        <ele>335.8</ele>
        <time>2026-05-27T13:09:19Z</time>
      </trkpt>
      <trkpt lat="43.18661" lon="2.0333">
        <ele>335</ele>
        <time>2026-05-27T13:09:24Z</time>
      </trkpt>
      <trkpt lat="43.18656" lon="2.03325">
        <ele>334.1</ele>
        <time>2026-05-27T13:09:29Z</time>
      </trkpt>
      <trkpt lat="43.18656" lon="2.03321">
        <ele>333.8</ele>
        <time>2026-05-27T13:09:34Z</time>
      </trkpt>
      <trkpt lat="43.18659" lon="2.03324">
        <ele>334.4</ele>
        <time>2026-05-27T13:09:39Z</time>
      </trkpt>
      <trkpt lat="43.18663" lon="2.03325">
        <ele>335</ele>
        <time>2026-05-27T13:09:44Z</time>
      </trkpt>
      <trkpt lat="43.18665" lon="2.03325">
        <ele>335.3</ele>
        <time>2026-05-27T13:09:49Z</time>
      </trkpt>
      <trkpt lat="43.18671" lon="2.03325">
        <ele>336.2</ele>
        <time>2026-05-27T13:09:54Z</time>
      </trkpt>
      <trkpt lat="43.18674" lon="2.03321">
        <ele>336.5</ele>
        <time>2026-05-27T13:09:59Z</time>
      </trkpt>
      <trkpt lat="43.18678" lon="2.03313">
        <ele>336.7</ele>
        <time>2026-05-27T13:10:04Z</time>
      </trkpt>
      <trkpt lat="43.18682" lon="2.0331">
        <ele>337.1</ele>
        <time>2026-05-27T13:10:09Z</time>
      </trkpt>
      <trkpt lat="43.1868" lon="2.03307">
        <ele>336.6</ele>
        <time>2026-05-27T13:10:14Z</time>
      </trkpt>
      <trkpt lat="43.18675" lon="2.03302">
        <ele>335.5</ele>
        <time>2026-05-27T13:10:19Z</time>
      </trkpt>
      <trkpt lat="43.1867" lon="2.03299">
        <ele>334.5</ele>
        <time>2026-05-27T13:10:24Z</time>
      </trkpt>
      <trkpt lat="43.18665" lon="2.03297">
        <ele>333.6</ele>
        <time>2026-05-27T13:10:29Z</time>
      </trkpt>
      <trkpt lat="43.1866" lon="2.03294">
        <ele>332.6</ele>
        <time>2026-05-27T13:10:34Z</time>
      </trkpt>
      <trkpt lat="43.18656" lon="2.03293">
        <ele>332</ele>
        <time>2026-05-27T13:10:39Z</time>
      </trkpt>
      <trkpt lat="43.18652" lon="2.0329">
        <ele>331.2</ele>
        <time>2026-05-27T13:10:44Z</time>
      </trkpt>
      <trkpt lat="43.18646" lon="2.03285">
        <ele>329.9</ele>
        <time>2026-05-27T13:10:49Z</time>
      </trkpt>
      <trkpt lat="43.18641" lon="2.03285">
        <ele>329.2</ele>
        <time>2026-05-27T13:10:54Z</time>
      </trkpt>
      <trkpt lat="43.18634" lon="2.03284">
        <ele>328</ele>
        <time>2026-05-27T13:10:59Z</time>
      </trkpt>
      <trkpt lat="43.18627" lon="2.0328">
        <ele>326.7</ele>
        <time>2026-05-27T13:11:04Z</time>
      </trkpt>
      <trkpt lat="43.1862" lon="2.03277">
        <ele>325.3</ele>
        <time>2026-05-27T13:11:09Z</time>
      </trkpt>
      <trkpt lat="43.18617" lon="2.03275">
        <ele>324.7</ele>
        <time>2026-05-27T13:11:14Z</time>
      </trkpt>
      <trkpt lat="43.18616" lon="2.03271">
        <ele>324.2</ele>
        <time>2026-05-27T13:11:19Z</time>
      </trkpt>
      <trkpt lat="43.18614" lon="2.03271">
        <ele>323.9</ele>
        <time>2026-05-27T13:11:24Z</time>
      </trkpt>
      <trkpt lat="43.18614" lon="2.03271">
        <ele>323.9</ele>
        <time>2026-05-27T13:11:29Z</time>
      </trkpt>
      <trkpt lat="43.18614" lon="2.03271">
        <ele>323.9</ele>
        <time>2026-05-27T13:11:34Z</time>
      </trkpt>
      <trkpt lat="43.18614" lon="2.03271">
        <ele>323.9</ele>
        <time>2026-05-27T13:11:39Z</time>
      </trkpt>
      <trkpt lat="43.18617" lon="2.03266">
        <ele>324</ele>
        <time>2026-05-27T13:11:44Z</time>
      </trkpt>
      <trkpt lat="43.1862" lon="2.03262">
        <ele>324.1</ele>
        <time>2026-05-27T13:11:49Z</time>
      </trkpt>
      <trkpt lat="43.18625" lon="2.03257">
        <ele>324.5</ele>
        <time>2026-05-27T13:11:54Z</time>
      </trkpt>
      <trkpt lat="43.18625" lon="2.0325">
        <ele>324</ele>
        <time>2026-05-27T13:11:59Z</time>
      </trkpt>
      <trkpt lat="43.18627" lon="2.03243">
        <ele>323.9</ele>
        <time>2026-05-27T13:12:04Z</time>
      </trkpt>
      <trkpt lat="43.1863" lon="2.03239">
        <ele>324.2</ele>
        <time>2026-05-27T13:12:09Z</time>
      </trkpt>
      <trkpt lat="43.18632" lon="2.03235">
        <ele>324.2</ele>
        <time>2026-05-27T13:12:14Z</time>
      </trkpt>
      <trkpt lat="43.18631" lon="2.03234">
        <ele>324</ele>
        <time>2026-05-27T13:12:19Z</time>
      </trkpt>
      <trkpt lat="43.18627" lon="2.03237">
        <ele>323.5</ele>
        <time>2026-05-27T13:12:24Z</time>
      </trkpt>
      <trkpt lat="43.18621" lon="2.03239">
        <ele>322.7</ele>
        <time>2026-05-27T13:12:29Z</time>
      </trkpt>
      <trkpt lat="43.18616" lon="2.03239">
        <ele>321.9</ele>
        <time>2026-05-27T13:12:34Z</time>
      </trkpt>
      <trkpt lat="43.18612" lon="2.03243">
        <ele>321.4</ele>
        <time>2026-05-27T13:12:39Z</time>
      </trkpt>
      <trkpt lat="43.18612" lon="2.03243">
        <ele>321.4</ele>
        <time>2026-05-27T13:12:44Z</time>
      </trkpt>
      <trkpt lat="43.18612" lon="2.03243">
        <ele>321.4</ele>
        <time>2026-05-27T13:12:49Z</time>
      </trkpt>
      <trkpt lat="43.18612" lon="2.03243">
        <ele>321.4</ele>
        <time>2026-05-27T13:12:54Z</time>
      </trkpt>
      <trkpt lat="43.18612" lon="2.03243">
        <ele>321.4</ele>
        <time>2026-05-27T13:12:59Z</time>
      </trkpt>
      <trkpt lat="43.18612" lon="2.03243">
        <ele>321.4</ele>
        <time>2026-05-27T13:13:04Z</time>
      </trkpt>
      <trkpt lat="43.18612" lon="2.03243">
        <ele>321.4</ele>
        <time>2026-05-27T13:13:09Z</time>
      </trkpt>
      <trkpt lat="43.18612" lon="2.03243">
        <ele>321.4</ele>
        <time>2026-05-27T13:13:14Z</time>
      </trkpt>
      <trkpt lat="43.18621" lon="2.03239">
        <ele>322.7</ele>
        <time>2026-05-27T13:13:19Z</time>
      </trkpt>
      <trkpt lat="43.18621" lon="2.03239">
        <ele>322.7</ele>
        <time>2026-05-27T13:13:24Z</time>
      </trkpt>
      <trkpt lat="43.18622" lon="2.03234">
        <ele>322.5</ele>
        <time>2026-05-27T13:13:29Z</time>
      </trkpt>
      <trkpt lat="43.18627" lon="2.03233">
        <ele>323.3</ele>
        <time>2026-05-27T13:13:34Z</time>
      </trkpt>
      <trkpt lat="43.18631" lon="2.0323">
        <ele>323.8</ele>
        <time>2026-05-27T13:13:39Z</time>
      </trkpt>
      <trkpt lat="43.18634" lon="2.03225">
        <ele>323.9</ele>
        <time>2026-05-27T13:13:44Z</time>
      </trkpt>
      <trkpt lat="43.18637" lon="2.03221">
        <ele>324.2</ele>
        <time>2026-05-27T13:13:49Z</time>
      </trkpt>
      <trkpt lat="43.18643" lon="2.03218">
        <ele>324.9</ele>
        <time>2026-05-27T13:13:54Z</time>
      </trkpt>
      <trkpt lat="43.18651" lon="2.03217">
        <ele>326.1</ele>
        <time>2026-05-27T13:13:59Z</time>
      </trkpt>
      <trkpt lat="43.18658" lon="2.03217">
        <ele>327.3</ele>
        <time>2026-05-27T13:14:04Z</time>
      </trkpt>
      <trkpt lat="43.18663" lon="2.03218">
        <ele>328.1</ele>
        <time>2026-05-27T13:14:09Z</time>
      </trkpt>
      <trkpt lat="43.18665" lon="2.03217">
        <ele>328.4</ele>
        <time>2026-05-27T13:14:14Z</time>
      </trkpt>
      <trkpt lat="43.18665" lon="2.03217">
        <ele>328.4</ele>
        <time>2026-05-27T13:14:19Z</time>
      </trkpt>
      <trkpt lat="43.18665" lon="2.03217">
        <ele>328.4</ele>
        <time>2026-05-27T13:14:24Z</time>
      </trkpt>
      <trkpt lat="43.18665" lon="2.03217">
        <ele>328.4</ele>
        <time>2026-05-27T13:14:29Z</time>
      </trkpt>
      <trkpt lat="43.18665" lon="2.03217">
        <ele>328.4</ele>
        <time>2026-05-27T13:14:34Z</time>
      </trkpt>
      <trkpt lat="43.18665" lon="2.03217">
        <ele>328.4</ele>
        <time>2026-05-27T13:14:39Z</time>
      </trkpt>
      <trkpt lat="43.18665" lon="2.03225">
        <ele>328.9</ele>
        <time>2026-05-27T13:14:44Z</time>
      </trkpt>
      <trkpt lat="43.18666" lon="2.0323">
        <ele>329.5</ele>
        <time>2026-05-27T13:14:49Z</time>
      </trkpt>
      <trkpt lat="43.18666" lon="2.03235">
        <ele>329.8</ele>
        <time>2026-05-27T13:14:54Z</time>
      </trkpt>
      <trkpt lat="43.18665" lon="2.03241">
        <ele>330.1</ele>
        <time>2026-05-27T13:14:59Z</time>
      </trkpt>
      <trkpt lat="43.18664" lon="2.03246">
        <ele>330.3</ele>
        <time>2026-05-27T13:15:04Z</time>
      </trkpt>
      <trkpt lat="43.18662" lon="2.03247">
        <ele>330</ele>
        <time>2026-05-27T13:15:09Z</time>
      </trkpt>
      <trkpt lat="43.18659" lon="2.03249">
        <ele>329.6</ele>
        <time>2026-05-27T13:15:14Z</time>
      </trkpt>
      <trkpt lat="43.18654" lon="2.03249">
        <ele>328.8</ele>
        <time>2026-05-27T13:15:19Z</time>
      </trkpt>
      <trkpt lat="43.18653" lon="2.03251">
        <ele>328.8</ele>
        <time>2026-05-27T13:15:24Z</time>
      </trkpt>
      <trkpt lat="43.18652" lon="2.03254">
        <ele>328.8</ele>
        <time>2026-05-27T13:15:29Z</time>
      </trkpt>
      <trkpt lat="43.18651" lon="2.03258">
        <ele>328.9</ele>
        <time>2026-05-27T13:15:34Z</time>
      </trkpt>
      <trkpt lat="43.18652" lon="2.03265">
        <ele>329.5</ele>
        <time>2026-05-27T13:15:39Z</time>
      </trkpt>
      <trkpt lat="43.18656" lon="2.03268">
        <ele>330.4</ele>
        <time>2026-05-27T13:15:44Z</time>
      </trkpt>
      <trkpt lat="43.18658" lon="2.03267">
        <ele>330.6</ele>
        <time>2026-05-27T13:15:49Z</time>
      </trkpt>
      <trkpt lat="43.18658" lon="2.03272">
        <ele>330.9</ele>
        <time>2026-05-27T13:15:54Z</time>
      </trkpt>
      <trkpt lat="43.18657" lon="2.03277">
        <ele>331.1</ele>
        <time>2026-05-27T13:15:59Z</time>
      </trkpt>
      <trkpt lat="43.18657" lon="2.03284">
        <ele>331.6</ele>
        <time>2026-05-27T13:16:04Z</time>
      </trkpt>
      <trkpt lat="43.1866" lon="2.03289">
        <ele>332.3</ele>
        <time>2026-05-27T13:16:09Z</time>
      </trkpt>
      <trkpt lat="43.18662" lon="2.03293">
        <ele>332.9</ele>
        <time>2026-05-27T13:16:14Z</time>
      </trkpt>
      <trkpt lat="43.18668" lon="2.03298">
        <ele>334.1</ele>
        <time>2026-05-27T13:16:19Z</time>
      </trkpt>
      <trkpt lat="43.18674" lon="2.03303">
        <ele>335.4</ele>
        <time>2026-05-27T13:16:24Z</time>
      </trkpt>
      <trkpt lat="43.1868" lon="2.03308">
        <ele>336.7</ele>
        <time>2026-05-27T13:16:29Z</time>
      </trkpt>
      <trkpt lat="43.18686" lon="2.03312">
        <ele>337.9</ele>
        <time>2026-05-27T13:16:34Z</time>
      </trkpt>
      <trkpt lat="43.18693" lon="2.03315">
        <ele>339.3</ele>
        <time>2026-05-27T13:16:39Z</time>
      </trkpt>
      <trkpt lat="43.18699" lon="2.03321">
        <ele>340.6</ele>
        <time>2026-05-27T13:16:44Z</time>
      </trkpt>
      <trkpt lat="43.18704" lon="2.03329">
        <ele>342</ele>
        <time>2026-05-27T13:16:49Z</time>
      </trkpt>
      <trkpt lat="43.18713" lon="2.03335">
        <ele>343.9</ele>
        <time>2026-05-27T13:16:54Z</time>
      </trkpt>
      <trkpt lat="43.18719" lon="2.03334">
        <ele>344.8</ele>
        <time>2026-05-27T13:16:59Z</time>
      </trkpt>
      <trkpt lat="43.18725" lon="2.03336">
        <ele>346</ele>
        <time>2026-05-27T13:17:04Z</time>
      </trkpt>
      <trkpt lat="43.1873" lon="2.03339">
        <ele>347</ele>
        <time>2026-05-27T13:17:09Z</time>
      </trkpt>
      <trkpt lat="43.18735" lon="2.03342">
        <ele>348</ele>
        <time>2026-05-27T13:17:14Z</time>
      </trkpt>
      <trkpt lat="43.18741" lon="2.03347">
        <ele>349.4</ele>
        <time>2026-05-27T13:17:19Z</time>
      </trkpt>
      <trkpt lat="43.18748" lon="2.03349">
        <ele>350.8</ele>
        <time>2026-05-27T13:17:24Z</time>
      </trkpt>
      <trkpt lat="43.1875" lon="2.03352">
        <ele>351.3</ele>
        <time>2026-05-27T13:17:29Z</time>
      </trkpt>
      <trkpt lat="43.18751" lon="2.03351">
        <ele>351.3</ele>
        <time>2026-05-27T13:17:34Z</time>
      </trkpt>
      <trkpt lat="43.18751" lon="2.03356">
        <ele>351.6</ele>
        <time>2026-05-27T13:17:39Z</time>
      </trkpt>
      <trkpt lat="43.18747" lon="2.03362">
        <ele>351.5</ele>
        <time>2026-05-27T13:17:44Z</time>
      </trkpt>
      <trkpt lat="43.18742" lon="2.03368">
        <ele>351</ele>
        <time>2026-05-27T13:17:49Z</time>
      </trkpt>
      <trkpt lat="43.18739" lon="2.0337">
        <ele>350.6</ele>
        <time>2026-05-27T13:17:54Z</time>
      </trkpt>
      <trkpt lat="43.18739" lon="2.03374">
        <ele>350.9</ele>
        <time>2026-05-27T13:17:59Z</time>
      </trkpt>
      <trkpt lat="43.1874" lon="2.03373">
        <ele>351</ele>
        <time>2026-05-27T13:18:04Z</time>
      </trkpt>
      <trkpt lat="43.1874" lon="2.03373">
        <ele>351</ele>
        <time>2026-05-27T13:18:04Z</time>
      </trkpt>
      <trkpt lat="43.18736" lon="2.03376">
        <ele>350.5</ele>
        <time>2026-05-27T13:20:35Z</time>
      </trkpt>
      <trkpt lat="43.18736" lon="2.03376">
        <ele>350.5</ele>
        <time>2026-05-27T13:20:40Z</time>
      </trkpt>
      <trkpt lat="43.18736" lon="2.03376">
        <ele>350.5</ele>
        <time>2026-05-27T13:20:45Z</time>
      </trkpt>
      <trkpt lat="43.18736" lon="2.03376">
        <ele>350.5</ele>
        <time>2026-05-27T13:20:50Z</time>
      </trkpt>
      <trkpt lat="43.18736" lon="2.03376">
        <ele>350.5</ele>
        <time>2026-05-27T13:20:55Z</time>
      </trkpt>
      <trkpt lat="43.18736" lon="2.03376">
        <ele>350.5</ele>
        <time>2026-05-27T13:21:00Z</time>
      </trkpt>
      <trkpt lat="43.18736" lon="2.03376">
        <ele>350.5</ele>
        <time>2026-05-27T13:21:05Z</time>
      </trkpt>
      <trkpt lat="43.18736" lon="2.03376">
        <ele>350.5</ele>
        <time>2026-05-27T13:21:10Z</time>
      </trkpt>
      <trkpt lat="43.18736" lon="2.03376">
        <ele>350.5</ele>
        <time>2026-05-27T13:21:15Z</time>
      </trkpt>
      <trkpt lat="43.18742" lon="2.03368">
        <ele>351</ele>
        <time>2026-05-27T13:21:20Z</time>
      </trkpt>
      <trkpt lat="43.18743" lon="2.03361">
        <ele>350.7</ele>
        <time>2026-05-27T13:21:25Z</time>
      </trkpt>
      <trkpt lat="43.18741" lon="2.03353">
        <ele>349.8</ele>
        <time>2026-05-27T13:21:30Z</time>
      </trkpt>
      <trkpt lat="43.18735" lon="2.03345">
        <ele>348.2</ele>
        <time>2026-05-27T13:21:35Z</time>
      </trkpt>
      <trkpt lat="43.18729" lon="2.03339">
        <ele>346.8</ele>
        <time>2026-05-27T13:21:40Z</time>
      </trkpt>
      <trkpt lat="43.18724" lon="2.03336">
        <ele>345.8</ele>
        <time>2026-05-27T13:21:45Z</time>
      </trkpt>
      <trkpt lat="43.1872" lon="2.03333">
        <ele>344.9</ele>
        <time>2026-05-27T13:21:50Z</time>
      </trkpt>
      <trkpt lat="43.18718" lon="2.03329">
        <ele>344.3</ele>
        <time>2026-05-27T13:21:55Z</time>
      </trkpt>
      <trkpt lat="43.18713" lon="2.03325">
        <ele>343.2</ele>
        <time>2026-05-27T13:22:00Z</time>
      </trkpt>
      <trkpt lat="43.18707" lon="2.03322">
        <ele>342</ele>
        <time>2026-05-27T13:22:05Z</time>
      </trkpt>
      <trkpt lat="43.18702" lon="2.03319">
        <ele>341</ele>
        <time>2026-05-27T13:22:10Z</time>
      </trkpt>
      <trkpt lat="43.18696" lon="2.03317">
        <ele>339.9</ele>
        <time>2026-05-27T13:22:15Z</time>
      </trkpt>
      <trkpt lat="43.1869" lon="2.03314">
        <ele>338.7</ele>
        <time>2026-05-27T13:22:20Z</time>
      </trkpt>
      <trkpt lat="43.18684" lon="2.03312">
        <ele>337.6</ele>
        <time>2026-05-27T13:22:25Z</time>
      </trkpt>
      <trkpt lat="43.1868" lon="2.03309">
        <ele>336.7</ele>
        <time>2026-05-27T13:22:30Z</time>
      </trkpt>
      <trkpt lat="43.18675" lon="2.03305">
        <ele>335.7</ele>
        <time>2026-05-27T13:22:35Z</time>
      </trkpt>
      <trkpt lat="43.1867" lon="2.03301">
        <ele>334.6</ele>
        <time>2026-05-27T13:22:40Z</time>
      </trkpt>
      <trkpt lat="43.18664" lon="2.03301">
        <ele>333.7</ele>
        <time>2026-05-27T13:22:45Z</time>
      </trkpt>
      <trkpt lat="43.18657" lon="2.03295">
        <ele>332.3</ele>
        <time>2026-05-27T13:22:50Z</time>
      </trkpt>
      <trkpt lat="43.18653" lon="2.03289">
        <ele>331.3</ele>
        <time>2026-05-27T13:22:55Z</time>
      </trkpt>
      <trkpt lat="43.18649" lon="2.03284">
        <ele>330.3</ele>
        <time>2026-05-27T13:23:00Z</time>
      </trkpt>
      <trkpt lat="43.18644" lon="2.03284">
        <ele>329.6</ele>
        <time>2026-05-27T13:23:05Z</time>
      </trkpt>
      <trkpt lat="43.18637" lon="2.03281">
        <ele>328.3</ele>
        <time>2026-05-27T13:23:10Z</time>
      </trkpt>
      <trkpt lat="43.18633" lon="2.03279">
        <ele>327.5</ele>
        <time>2026-05-27T13:23:15Z</time>
      </trkpt>
      <trkpt lat="43.18627" lon="2.03273">
        <ele>326.1</ele>
        <time>2026-05-27T13:23:20Z</time>
      </trkpt>
      <trkpt lat="43.18623" lon="2.03266">
        <ele>324.9</ele>
        <time>2026-05-27T13:23:25Z</time>
      </trkpt>
      <trkpt lat="43.18624" lon="2.03259">
        <ele>324.5</ele>
        <time>2026-05-27T13:23:30Z</time>
      </trkpt>
      <trkpt lat="43.18626" lon="2.03252">
        <ele>324.3</ele>
        <time>2026-05-27T13:23:35Z</time>
      </trkpt>
      <trkpt lat="43.18627" lon="2.03244">
        <ele>324</ele>
        <time>2026-05-27T13:23:40Z</time>
      </trkpt>
      <trkpt lat="43.18628" lon="2.03236">
        <ele>323.7</ele>
        <time>2026-05-27T13:23:45Z</time>
      </trkpt>
      <trkpt lat="43.18632" lon="2.0323">
        <ele>323.9</ele>
        <time>2026-05-27T13:23:50Z</time>
      </trkpt>
      <trkpt lat="43.18637" lon="2.03223">
        <ele>324.3</ele>
        <time>2026-05-27T13:23:55Z</time>
      </trkpt>
      <trkpt lat="43.18637" lon="2.03223">
        <ele>324.3</ele>
        <time>2026-05-27T13:24:00Z</time>
      </trkpt>
      <trkpt lat="43.18634" lon="2.03229">
        <ele>324.2</ele>
        <time>2026-05-27T13:24:05Z</time>
      </trkpt>
      <trkpt lat="43.18632" lon="2.03235">
        <ele>324.2</ele>
        <time>2026-05-27T13:24:10Z</time>
      </trkpt>
      <trkpt lat="43.18628" lon="2.03242">
        <ele>324</ele>
        <time>2026-05-27T13:24:15Z</time>
      </trkpt>
      <trkpt lat="43.18624" lon="2.03248">
        <ele>323.7</ele>
        <time>2026-05-27T13:24:20Z</time>
      </trkpt>
      <trkpt lat="43.18622" lon="2.03256">
        <ele>324</ele>
        <time>2026-05-27T13:24:25Z</time>
      </trkpt>
      <trkpt lat="43.18619" lon="2.03263">
        <ele>324</ele>
        <time>2026-05-27T13:24:30Z</time>
      </trkpt>
      <trkpt lat="43.18616" lon="2.03269">
        <ele>324</ele>
        <time>2026-05-27T13:24:35Z</time>
      </trkpt>
      <trkpt lat="43.18612" lon="2.03272">
        <ele>323.7</ele>
        <time>2026-05-27T13:24:40Z</time>
      </trkpt>
      <trkpt lat="43.18607" lon="2.03274">
        <ele>323</ele>
        <time>2026-05-27T13:24:45Z</time>
      </trkpt>
      <trkpt lat="43.18601" lon="2.03276">
        <ele>322.3</ele>
        <time>2026-05-27T13:24:50Z</time>
      </trkpt>
      <trkpt lat="43.18594" lon="2.03278">
        <ele>321.4</ele>
        <time>2026-05-27T13:24:55Z</time>
      </trkpt>
      <trkpt lat="43.18589" lon="2.03281">
        <ele>320.9</ele>
        <time>2026-05-27T13:25:00Z</time>
      </trkpt>
      <trkpt lat="43.18583" lon="2.03285">
        <ele>320.4</ele>
        <time>2026-05-27T13:25:05Z</time>
      </trkpt>
      <trkpt lat="43.18577" lon="2.03288">
        <ele>320.9</ele>
        <time>2026-05-27T13:25:10Z</time>
      </trkpt>
      <trkpt lat="43.18573" lon="2.03294">
        <ele>321.5</ele>
        <time>2026-05-27T13:25:15Z</time>
      </trkpt>
      <trkpt lat="43.18571" lon="2.03301">
        <ele>322.2</ele>
        <time>2026-05-27T13:25:20Z</time>
      </trkpt>
      <trkpt lat="43.18569" lon="2.03309">
        <ele>322.9</ele>
        <time>2026-05-27T13:25:25Z</time>
      </trkpt>
      <trkpt lat="43.18566" lon="2.03317">
        <ele>323.6</ele>
        <time>2026-05-27T13:25:30Z</time>
      </trkpt>
      <trkpt lat="43.18565" lon="2.03326">
        <ele>324.4</ele>
        <time>2026-05-27T13:25:35Z</time>
      </trkpt>
      <trkpt lat="43.18562" lon="2.03335">
        <ele>325.1</ele>
        <time>2026-05-27T13:25:40Z</time>
      </trkpt>
      <trkpt lat="43.18559" lon="2.03344">
        <ele>325.8</ele>
        <time>2026-05-27T13:25:45Z</time>
      </trkpt>
      <trkpt lat="43.18557" lon="2.03351">
        <ele>326.3</ele>
        <time>2026-05-27T13:25:50Z</time>
      </trkpt>
      <trkpt lat="43.18556" lon="2.03358">
        <ele>326.9</ele>
        <time>2026-05-27T13:25:55Z</time>
      </trkpt>
      <trkpt lat="43.18554" lon="2.03367">
        <ele>327.6</ele>
        <time>2026-05-27T13:26:00Z</time>
      </trkpt>
      <trkpt lat="43.18552" lon="2.03376">
        <ele>328.3</ele>
        <time>2026-05-27T13:26:05Z</time>
      </trkpt>
      <trkpt lat="43.18551" lon="2.03384">
        <ele>328.9</ele>
        <time>2026-05-27T13:26:10Z</time>
      </trkpt>
      <trkpt lat="43.18548" lon="2.03393">
        <ele>329.6</ele>
        <time>2026-05-27T13:26:15Z</time>
      </trkpt>
      <trkpt lat="43.18547" lon="2.034">
        <ele>330.1</ele>
        <time>2026-05-27T13:26:20Z</time>
      </trkpt>
      <trkpt lat="43.18544" lon="2.03407">
        <ele>330.7</ele>
        <time>2026-05-27T13:26:25Z</time>
      </trkpt>
      <trkpt lat="43.18539" lon="2.03411">
        <ele>331.1</ele>
        <time>2026-05-27T13:26:30Z</time>
      </trkpt>
      <trkpt lat="43.18535" lon="2.03407">
        <ele>330.8</ele>
        <time>2026-05-27T13:26:35Z</time>
      </trkpt>
      <trkpt lat="43.18536" lon="2.03401">
        <ele>330.3</ele>
        <time>2026-05-27T13:26:40Z</time>
      </trkpt>
      <trkpt lat="43.18537" lon="2.03397">
        <ele>330</ele>
        <time>2026-05-27T13:26:45Z</time>
      </trkpt>
      <trkpt lat="43.1854" lon="2.03394">
        <ele>329.7</ele>
        <time>2026-05-27T13:26:50Z</time>
      </trkpt>
      <trkpt lat="43.18542" lon="2.03391">
        <ele>329.5</ele>
        <time>2026-05-27T13:26:55Z</time>
      </trkpt>
      <trkpt lat="43.18542" lon="2.03391">
        <ele>329.5</ele>
        <time>2026-05-27T13:27:00Z</time>
      </trkpt>
      <trkpt lat="43.18542" lon="2.03391">
        <ele>329.5</ele>
        <time>2026-05-27T13:27:05Z</time>
      </trkpt>
      <trkpt lat="43.18542" lon="2.03391">
        <ele>329.5</ele>
        <time>2026-05-27T13:27:10Z</time>
      </trkpt>
      <trkpt lat="43.18542" lon="2.03391">
        <ele>329.5</ele>
        <time>2026-05-27T13:27:15Z</time>
      </trkpt>
      <trkpt lat="43.18542" lon="2.03391">
        <ele>329.5</ele>
        <time>2026-05-27T13:27:20Z</time>
      </trkpt>
      <trkpt lat="43.18542" lon="2.03391">
        <ele>329.5</ele>
        <time>2026-05-27T13:27:25Z</time>
      </trkpt>
      <trkpt lat="43.18542" lon="2.03391">
        <ele>329.5</ele>
        <time>2026-05-27T13:27:30Z</time>
      </trkpt>
      <trkpt lat="43.18542" lon="2.03391">
        <ele>329.5</ele>
        <time>2026-05-27T13:27:35Z</time>
      </trkpt>
      <trkpt lat="43.18542" lon="2.03391">
        <ele>329.5</ele>
        <time>2026-05-27T13:27:40Z</time>
      </trkpt>
      <trkpt lat="43.18542" lon="2.03391">
        <ele>329.5</ele>
        <time>2026-05-27T13:27:45Z</time>
      </trkpt>
      <trkpt lat="43.18542" lon="2.03391">
        <ele>329.5</ele>
        <time>2026-05-27T13:27:50Z</time>
      </trkpt>
      <trkpt lat="43.18542" lon="2.03391">
        <ele>329.5</ele>
        <time>2026-05-27T13:27:55Z</time>
      </trkpt>
      <trkpt lat="43.18542" lon="2.03391">
        <ele>329.5</ele>
        <time>2026-05-27T13:28:00Z</time>
      </trkpt>
      <trkpt lat="43.18542" lon="2.03391">
        <ele>329.5</ele>
        <time>2026-05-27T13:28:05Z</time>
      </trkpt>
      <trkpt lat="43.18542" lon="2.03391">
        <ele>329.5</ele>
        <time>2026-05-27T13:28:10Z</time>
      </trkpt>
      <trkpt lat="43.18542" lon="2.03391">
        <ele>329.5</ele>
        <time>2026-05-27T13:28:15Z</time>
      </trkpt>
      <trkpt lat="43.18542" lon="2.03391">
        <ele>329.5</ele>
        <time>2026-05-27T13:28:20Z</time>
      </trkpt>
      <trkpt lat="43.18542" lon="2.03391">
        <ele>329.5</ele>
        <time>2026-05-27T13:28:25Z</time>
      </trkpt>
      <trkpt lat="43.18542" lon="2.03391">
        <ele>329.5</ele>
        <time>2026-05-27T13:28:30Z</time>
      </trkpt>
      <trkpt lat="43.18542" lon="2.03391">
        <ele>329.5</ele>
        <time>2026-05-27T13:28:35Z</time>
      </trkpt>
      <trkpt lat="43.18542" lon="2.03391">
        <ele>329.5</ele>
        <time>2026-05-27T13:28:40Z</time>
      </trkpt>
      <trkpt lat="43.18542" lon="2.03391">
        <ele>329.5</ele>
        <time>2026-05-27T13:28:45Z</time>
      </trkpt>
      <trkpt lat="43.18542" lon="2.03391">
        <ele>329.5</ele>
        <time>2026-05-27T13:28:50Z</time>
      </trkpt>
      <trkpt lat="43.18542" lon="2.03391">
        <ele>329.5</ele>
        <time>2026-05-27T13:28:55Z</time>
      </trkpt>
      <trkpt lat="43.18542" lon="2.03391">
        <ele>329.5</ele>
        <time>2026-05-27T13:29:00Z</time>
      </trkpt>
      <trkpt lat="43.18542" lon="2.03391">
        <ele>329.5</ele>
        <time>2026-05-27T13:29:05Z</time>
      </trkpt>
      <trkpt lat="43.18542" lon="2.03391">
        <ele>329.5</ele>
        <time>2026-05-27T13:29:10Z</time>
      </trkpt>
      <trkpt lat="43.18542" lon="2.03391">
        <ele>329.5</ele>
        <time>2026-05-27T13:29:15Z</time>
      </trkpt>
      <trkpt lat="43.18542" lon="2.03391">
        <ele>329.5</ele>
        <time>2026-05-27T13:29:20Z</time>
      </trkpt>
      <trkpt lat="43.18542" lon="2.03391">
        <ele>329.5</ele>
        <time>2026-05-27T13:29:25Z</time>
      </trkpt>
      <trkpt lat="43.18542" lon="2.03391">
        <ele>329.5</ele>
        <time>2026-05-27T13:29:30Z</time>
      </trkpt>
      <trkpt lat="43.18542" lon="2.03391">
        <ele>329.5</ele>
        <time>2026-05-27T13:29:35Z</time>
      </trkpt>
      <trkpt lat="43.18542" lon="2.03391">
        <ele>329.5</ele>
        <time>2026-05-27T13:29:40Z</time>
      </trkpt>
      <trkpt lat="43.18542" lon="2.03391">
        <ele>329.5</ele>
        <time>2026-05-27T13:29:45Z</time>
      </trkpt>
      <trkpt lat="43.18542" lon="2.03391">
        <ele>329.5</ele>
        <time>2026-05-27T13:29:50Z</time>
      </trkpt>
      <trkpt lat="43.18542" lon="2.03391">
        <ele>329.5</ele>
        <time>2026-05-27T13:29:55Z</time>
      </trkpt>
      <trkpt lat="43.18542" lon="2.03391">
        <ele>329.5</ele>
        <time>2026-05-27T13:30:00Z</time>
      </trkpt>
      <trkpt lat="43.18542" lon="2.03391">
        <ele>329.5</ele>
        <time>2026-05-27T13:30:05Z</time>
      </trkpt>
      <trkpt lat="43.18542" lon="2.03391">
        <ele>329.5</ele>
        <time>2026-05-27T13:30:10Z</time>
      </trkpt>
      <trkpt lat="43.18542" lon="2.03391">
        <ele>329.5</ele>
        <time>2026-05-27T13:30:15Z</time>
      </trkpt>
      <trkpt lat="43.18542" lon="2.03391">
        <ele>329.5</ele>
        <time>2026-05-27T13:30:20Z</time>
      </trkpt>
      <trkpt lat="43.18542" lon="2.03391">
        <ele>329.5</ele>
        <time>2026-05-27T13:30:25Z</time>
      </trkpt>
      <trkpt lat="43.18542" lon="2.03391">
        <ele>329.5</ele>
        <time>2026-05-27T13:30:30Z</time>
      </trkpt>
      <trkpt lat="43.18542" lon="2.03391">
        <ele>329.5</ele>
        <time>2026-05-27T13:30:35Z</time>
      </trkpt>
      <trkpt lat="43.18542" lon="2.03391">
        <ele>329.5</ele>
        <time>2026-05-27T13:30:40Z</time>
      </trkpt>
      <trkpt lat="43.18542" lon="2.03391">
        <ele>329.5</ele>
        <time>2026-05-27T13:30:45Z</time>
      </trkpt>
      <trkpt lat="43.18542" lon="2.03391">
        <ele>329.5</ele>
        <time>2026-05-27T13:30:50Z</time>
      </trkpt>
      <trkpt lat="43.18542" lon="2.03391">
        <ele>329.5</ele>
        <time>2026-05-27T13:30:55Z</time>
      </trkpt>
      <trkpt lat="43.18542" lon="2.03391">
        <ele>329.5</ele>
        <time>2026-05-27T13:31:00Z</time>
      </trkpt>
      <trkpt lat="43.18542" lon="2.03391">
        <ele>329.5</ele>
        <time>2026-05-27T13:31:05Z</time>
      </trkpt>
      <trkpt lat="43.18542" lon="2.03391">
        <ele>329.5</ele>
        <time>2026-05-27T13:31:10Z</time>
      </trkpt>
      <trkpt lat="43.18542" lon="2.03391">
        <ele>329.5</ele>
        <time>2026-05-27T13:31:15Z</time>
      </trkpt>
      <trkpt lat="43.18542" lon="2.03391">
        <ele>329.5</ele>
        <time>2026-05-27T13:31:20Z</time>
      </trkpt>
      <trkpt lat="43.18542" lon="2.03391">
        <ele>329.5</ele>
        <time>2026-05-27T13:31:25Z</time>
      </trkpt>
      <trkpt lat="43.18542" lon="2.03391">
        <ele>329.5</ele>
        <time>2026-05-27T13:31:30Z</time>
      </trkpt>
      <trkpt lat="43.18542" lon="2.03391">
        <ele>329.5</ele>
        <time>2026-05-27T13:31:35Z</time>
      </trkpt>
      <trkpt lat="43.18542" lon="2.03391">
        <ele>329.5</ele>
        <time>2026-05-27T13:31:40Z</time>
      </trkpt>
      <trkpt lat="43.18542" lon="2.03391">
        <ele>329.5</ele>
        <time>2026-05-27T13:31:45Z</time>
      </trkpt>
      <trkpt lat="43.18542" lon="2.03391">
        <ele>329.5</ele>
        <time>2026-05-27T13:31:50Z</time>
      </trkpt>
      <trkpt lat="43.18542" lon="2.03391">
        <ele>329.5</ele>
        <time>2026-05-27T13:31:55Z</time>
      </trkpt>
      <trkpt lat="43.18542" lon="2.03391">
        <ele>329.5</ele>
        <time>2026-05-27T13:32:00Z</time>
      </trkpt>
      <trkpt lat="43.18542" lon="2.03391">
        <ele>329.5</ele>
        <time>2026-05-27T13:32:05Z</time>
      </trkpt>
      <trkpt lat="43.18542" lon="2.03391">
        <ele>329.5</ele>
        <time>2026-05-27T13:32:10Z</time>
      </trkpt>
      <trkpt lat="43.18542" lon="2.03391">
        <ele>329.5</ele>
        <time>2026-05-27T13:32:15Z</time>
      </trkpt>
      <trkpt lat="43.18542" lon="2.03391">
        <ele>329.5</ele>
        <time>2026-05-27T13:32:20Z</time>
      </trkpt>
      <trkpt lat="43.18542" lon="2.03391">
        <ele>329.5</ele>
        <time>2026-05-27T13:32:25Z</time>
      </trkpt>
      <trkpt lat="43.18542" lon="2.03391">
        <ele>329.5</ele>
        <time>2026-05-27T13:32:30Z</time>
      </trkpt>
      <trkpt lat="43.18542" lon="2.03391">
        <ele>329.5</ele>
        <time>2026-05-27T13:32:35Z</time>
      </trkpt>
      <trkpt lat="43.18542" lon="2.03391">
        <ele>329.5</ele>
        <time>2026-05-27T13:32:40Z</time>
      </trkpt>
      <trkpt lat="43.18542" lon="2.03391">
        <ele>329.5</ele>
        <time>2026-05-27T13:32:45Z</time>
      </trkpt>
      <trkpt lat="43.18542" lon="2.03391">
        <ele>329.5</ele>
        <time>2026-05-27T13:32:50Z</time>
      </trkpt>
      <trkpt lat="43.18542" lon="2.03391">
        <ele>329.5</ele>
        <time>2026-05-27T13:32:55Z</time>
      </trkpt>
      <trkpt lat="43.18542" lon="2.03391">
        <ele>329.5</ele>
        <time>2026-05-27T13:33:00Z</time>
      </trkpt>
      <trkpt lat="43.18542" lon="2.03391">
        <ele>329.5</ele>
        <time>2026-05-27T13:33:05Z</time>
      </trkpt>
      <trkpt lat="43.18542" lon="2.03391">
        <ele>329.5</ele>
        <time>2026-05-27T13:33:10Z</time>
      </trkpt>
      <trkpt lat="43.18542" lon="2.03391">
        <ele>329.5</ele>
        <time>2026-05-27T13:33:15Z</time>
      </trkpt>
      <trkpt lat="43.18542" lon="2.03391">
        <ele>329.5</ele>
        <time>2026-05-27T13:33:20Z</time>
      </trkpt>
      <trkpt lat="43.18542" lon="2.03391">
        <ele>329.5</ele>
        <time>2026-05-27T13:33:25Z</time>
      </trkpt>
      <trkpt lat="43.18542" lon="2.03391">
        <ele>329.5</ele>
        <time>2026-05-27T13:33:30Z</time>
      </trkpt>
      <trkpt lat="43.18542" lon="2.03391">
        <ele>329.5</ele>
        <time>2026-05-27T13:33:35Z</time>
      </trkpt>
      <trkpt lat="43.18542" lon="2.03391">
        <ele>329.5</ele>
        <time>2026-05-27T13:33:40Z</time>
      </trkpt>
      <trkpt lat="43.18542" lon="2.03391">
        <ele>329.5</ele>
        <time>2026-05-27T13:33:45Z</time>
      </trkpt>
      <trkpt lat="43.18542" lon="2.03391">
        <ele>329.5</ele>
        <time>2026-05-27T13:33:50Z</time>
      </trkpt>
      <trkpt lat="43.18542" lon="2.03391">
        <ele>329.5</ele>
        <time>2026-05-27T13:33:55Z</time>
      </trkpt>
      <trkpt lat="43.18542" lon="2.03391">
        <ele>329.5</ele>
        <time>2026-05-27T13:34:00Z</time>
      </trkpt>
      <trkpt lat="43.18542" lon="2.03391">
        <ele>329.5</ele>
        <time>2026-05-27T13:34:05Z</time>
      </trkpt>
      <trkpt lat="43.18542" lon="2.03391">
        <ele>329.5</ele>
        <time>2026-05-27T13:34:10Z</time>
      </trkpt>
      <trkpt lat="43.18542" lon="2.03391">
        <ele>329.5</ele>
        <time>2026-05-27T13:34:15Z</time>
      </trkpt>
      <trkpt lat="43.18542" lon="2.03391">
        <ele>329.5</ele>
        <time>2026-05-27T13:34:20Z</time>
      </trkpt>
      <trkpt lat="43.18542" lon="2.03391">
        <ele>329.5</ele>
        <time>2026-05-27T13:34:25Z</time>
      </trkpt>
      <trkpt lat="43.18542" lon="2.03391">
        <ele>329.5</ele>
        <time>2026-05-27T13:34:30Z</time>
      </trkpt>
      <trkpt lat="43.18542" lon="2.03391">
        <ele>329.5</ele>
        <time>2026-05-27T13:34:35Z</time>
      </trkpt>
      <trkpt lat="43.18542" lon="2.03391">
        <ele>329.5</ele>
        <time>2026-05-27T13:34:40Z</time>
      </trkpt>
      <trkpt lat="43.18542" lon="2.03391">
        <ele>329.5</ele>
        <time>2026-05-27T13:34:45Z</time>
      </trkpt>
      <trkpt lat="43.18542" lon="2.03391">
        <ele>329.5</ele>
        <time>2026-05-27T13:34:50Z</time>
      </trkpt>
      <trkpt lat="43.18542" lon="2.03391">
        <ele>329.5</ele>
        <time>2026-05-27T13:34:55Z</time>
      </trkpt>
      <trkpt lat="43.18542" lon="2.03391">
        <ele>329.5</ele>
        <time>2026-05-27T13:35:00Z</time>
      </trkpt>
      <trkpt lat="43.18542" lon="2.03391">
        <ele>329.5</ele>
        <time>2026-05-27T13:35:05Z</time>
      </trkpt>
      <trkpt lat="43.18542" lon="2.03391">
        <ele>329.5</ele>
        <time>2026-05-27T13:35:10Z</time>
      </trkpt>
      <trkpt lat="43.18542" lon="2.03391">
        <ele>329.5</ele>
        <time>2026-05-27T13:35:15Z</time>
      </trkpt>
      <trkpt lat="43.18542" lon="2.03391">
        <ele>329.5</ele>
        <time>2026-05-27T13:35:20Z</time>
      </trkpt>
      <trkpt lat="43.18542" lon="2.03391">
        <ele>329.5</ele>
        <time>2026-05-27T13:35:25Z</time>
      </trkpt>
      <trkpt lat="43.18542" lon="2.03391">
        <ele>329.5</ele>
        <time>2026-05-27T13:35:30Z</time>
      </trkpt>
      <trkpt lat="43.18542" lon="2.03391">
        <ele>329.5</ele>
        <time>2026-05-27T13:35:35Z</time>
      </trkpt>
      <trkpt lat="43.18542" lon="2.03391">
        <ele>329.5</ele>
        <time>2026-05-27T13:35:40Z</time>
      </trkpt>
      <trkpt lat="43.18542" lon="2.03391">
        <ele>329.5</ele>
        <time>2026-05-27T13:35:45Z</time>
      </trkpt>
      <trkpt lat="43.18542" lon="2.03391">
        <ele>329.5</ele>
        <time>2026-05-27T13:35:50Z</time>
      </trkpt>
      <trkpt lat="43.18542" lon="2.03391">
        <ele>329.5</ele>
        <time>2026-05-27T13:35:55Z</time>
      </trkpt>
      <trkpt lat="43.18542" lon="2.03391">
        <ele>329.5</ele>
        <time>2026-05-27T13:36:00Z</time>
      </trkpt>
      <trkpt lat="43.18542" lon="2.03391">
        <ele>329.5</ele>
        <time>2026-05-27T13:36:05Z</time>
      </trkpt>
      <trkpt lat="43.18542" lon="2.03391">
        <ele>329.5</ele>
        <time>2026-05-27T13:36:10Z</time>
      </trkpt>
      <trkpt lat="43.18542" lon="2.03391">
        <ele>329.5</ele>
        <time>2026-05-27T13:36:15Z</time>
      </trkpt>
      <trkpt lat="43.18542" lon="2.03391">
        <ele>329.5</ele>
        <time>2026-05-27T13:36:20Z</time>
      </trkpt>
      <trkpt lat="43.18542" lon="2.03391">
        <ele>329.5</ele>
        <time>2026-05-27T13:36:25Z</time>
      </trkpt>
      <trkpt lat="43.18542" lon="2.03391">
        <ele>329.5</ele>
        <time>2026-05-27T13:36:30Z</time>
      </trkpt>
      <trkpt lat="43.18542" lon="2.03391">
        <ele>329.5</ele>
        <time>2026-05-27T13:36:35Z</time>
      </trkpt>
      <trkpt lat="43.18542" lon="2.03391">
        <ele>329.5</ele>
        <time>2026-05-27T13:36:40Z</time>
      </trkpt>
      <trkpt lat="43.18542" lon="2.03391">
        <ele>329.5</ele>
        <time>2026-05-27T13:36:45Z</time>
      </trkpt>
      <trkpt lat="43.18542" lon="2.03391">
        <ele>329.5</ele>
        <time>2026-05-27T13:36:50Z</time>
      </trkpt>
      <trkpt lat="43.18542" lon="2.03391">
        <ele>329.5</ele>
        <time>2026-05-27T13:36:55Z</time>
      </trkpt>
      <trkpt lat="43.18542" lon="2.03391">
        <ele>329.5</ele>
        <time>2026-05-27T13:37:00Z</time>
      </trkpt>
      <trkpt lat="43.18542" lon="2.03391">
        <ele>329.5</ele>
        <time>2026-05-27T13:37:05Z</time>
      </trkpt>
      <trkpt lat="43.18542" lon="2.03391">
        <ele>329.5</ele>
        <time>2026-05-27T13:37:10Z</time>
      </trkpt>
      <trkpt lat="43.18542" lon="2.03391">
        <ele>329.5</ele>
        <time>2026-05-27T13:37:15Z</time>
      </trkpt>
      <trkpt lat="43.18542" lon="2.03391">
        <ele>329.5</ele>
        <time>2026-05-27T13:37:20Z</time>
      </trkpt>
      <trkpt lat="43.18542" lon="2.03391">
        <ele>329.5</ele>
        <time>2026-05-27T13:37:25Z</time>
      </trkpt>
      <trkpt lat="43.18542" lon="2.03391">
        <ele>329.5</ele>
        <time>2026-05-27T13:37:30Z</time>
      </trkpt>
      <trkpt lat="43.18542" lon="2.03391">
        <ele>329.5</ele>
        <time>2026-05-27T13:37:35Z</time>
      </trkpt>
      <trkpt lat="43.18542" lon="2.03391">
        <ele>329.5</ele>
        <time>2026-05-27T13:37:40Z</time>
      </trkpt>
      <trkpt lat="43.18542" lon="2.03391">
        <ele>329.5</ele>
        <time>2026-05-27T13:37:45Z</time>
      </trkpt>
      <trkpt lat="43.18542" lon="2.03391">
        <ele>329.5</ele>
        <time>2026-05-27T13:37:50Z</time>
      </trkpt>
      <trkpt lat="43.18542" lon="2.03391">
        <ele>329.5</ele>
        <time>2026-05-27T13:37:55Z</time>
      </trkpt>
      <trkpt lat="43.18542" lon="2.03391">
        <ele>329.5</ele>
        <time>2026-05-27T13:38:00Z</time>
      </trkpt>
      <trkpt lat="43.18542" lon="2.03391">
        <ele>329.5</ele>
        <time>2026-05-27T13:38:05Z</time>
      </trkpt>
      <trkpt lat="43.18542" lon="2.03391">
        <ele>329.5</ele>
        <time>2026-05-27T13:38:10Z</time>
      </trkpt>
      <trkpt lat="43.18542" lon="2.03391">
        <ele>329.5</ele>
        <time>2026-05-27T13:38:15Z</time>
      </trkpt>
      <trkpt lat="43.18542" lon="2.03391">
        <ele>329.5</ele>
        <time>2026-05-27T13:38:20Z</time>
      </trkpt>
      <trkpt lat="43.18542" lon="2.03391">
        <ele>329.5</ele>
        <time>2026-05-27T13:38:25Z</time>
      </trkpt>
      <trkpt lat="43.18542" lon="2.03391">
        <ele>329.5</ele>
        <time>2026-05-27T13:38:30Z</time>
      </trkpt>
      <trkpt lat="43.18542" lon="2.03391">
        <ele>329.5</ele>
        <time>2026-05-27T13:38:35Z</time>
      </trkpt>
      <trkpt lat="43.18542" lon="2.03391">
        <ele>329.5</ele>
        <time>2026-05-27T13:38:40Z</time>
      </trkpt>
      <trkpt lat="43.18542" lon="2.03391">
        <ele>329.5</ele>
        <time>2026-05-27T13:38:45Z</time>
      </trkpt>
      <trkpt lat="43.18542" lon="2.03391">
        <ele>329.5</ele>
        <time>2026-05-27T13:38:50Z</time>
      </trkpt>
      <trkpt lat="43.18542" lon="2.03391">
        <ele>329.5</ele>
        <time>2026-05-27T13:38:55Z</time>
      </trkpt>
      <trkpt lat="43.18542" lon="2.03391">
        <ele>329.5</ele>
        <time>2026-05-27T13:39:00Z</time>
      </trkpt>
      <trkpt lat="43.18542" lon="2.03391">
        <ele>329.5</ele>
        <time>2026-05-27T13:39:05Z</time>
      </trkpt>
      <trkpt lat="43.18542" lon="2.03391">
        <ele>329.5</ele>
        <time>2026-05-27T13:39:10Z</time>
      </trkpt>
      <trkpt lat="43.18542" lon="2.03391">
        <ele>329.5</ele>
        <time>2026-05-27T13:39:15Z</time>
      </trkpt>
      <trkpt lat="43.18542" lon="2.03391">
        <ele>329.5</ele>
        <time>2026-05-27T13:39:20Z</time>
      </trkpt>
      <trkpt lat="43.18539" lon="2.03377">
        <ele>328.4</ele>
        <time>2026-05-27T13:39:25Z</time>
      </trkpt>
      <trkpt lat="43.18543" lon="2.03368">
        <ele>327.7</ele>
        <time>2026-05-27T13:39:30Z</time>
      </trkpt>
      <trkpt lat="43.18547" lon="2.03361">
        <ele>327.1</ele>
        <time>2026-05-27T13:39:35Z</time>
      </trkpt>
      <trkpt lat="43.18551" lon="2.03354">
        <ele>326.6</ele>
        <time>2026-05-27T13:39:40Z</time>
      </trkpt>
      <trkpt lat="43.18553" lon="2.03349">
        <ele>326.2</ele>
        <time>2026-05-27T13:39:45Z</time>
      </trkpt>
      <trkpt lat="43.18554" lon="2.03343">
        <ele>325.7</ele>
        <time>2026-05-27T13:39:50Z</time>
      </trkpt>
      <trkpt lat="43.18556" lon="2.03335">
        <ele>325.1</ele>
        <time>2026-05-27T13:39:55Z</time>
      </trkpt>
      <trkpt lat="43.18558" lon="2.03327">
        <ele>324.5</ele>
        <time>2026-05-27T13:40:00Z</time>
      </trkpt>
      <trkpt lat="43.1856" lon="2.03321">
        <ele>324</ele>
        <time>2026-05-27T13:40:05Z</time>
      </trkpt>
      <trkpt lat="43.18562" lon="2.03312">
        <ele>323.3</ele>
        <time>2026-05-27T13:40:10Z</time>
      </trkpt>
      <trkpt lat="43.18564" lon="2.03303">
        <ele>322.5</ele>
        <time>2026-05-27T13:40:15Z</time>
      </trkpt>
      <trkpt lat="43.18565" lon="2.0329">
        <ele>321.4</ele>
        <time>2026-05-27T13:40:20Z</time>
      </trkpt>
      <trkpt lat="43.18567" lon="2.03281">
        <ele>320.6</ele>
        <time>2026-05-27T13:40:25Z</time>
      </trkpt>
      <trkpt lat="43.18566" lon="2.03271">
        <ele>319.8</ele>
        <time>2026-05-27T13:40:30Z</time>
      </trkpt>
      <trkpt lat="43.18562" lon="2.03269">
        <ele>319.8</ele>
        <time>2026-05-27T13:40:35Z</time>
      </trkpt>
      <trkpt lat="43.18561" lon="2.03272">
        <ele>320.1</ele>
        <time>2026-05-27T13:40:40Z</time>
      </trkpt>
      <trkpt lat="43.18557" lon="2.03277">
        <ele>320.7</ele>
        <time>2026-05-27T13:40:45Z</time>
      </trkpt>
      <trkpt lat="43.18554" lon="2.03274">
        <ele>320.6</ele>
        <time>2026-05-27T13:40:50Z</time>
      </trkpt>
      <trkpt lat="43.18553" lon="2.03271">
        <ele>320.4</ele>
        <time>2026-05-27T13:40:55Z</time>
      </trkpt>
      <trkpt lat="43.18552" lon="2.03269">
        <ele>320.3</ele>
        <time>2026-05-27T13:41:00Z</time>
      </trkpt>
      <trkpt lat="43.18552" lon="2.03269">
        <ele>320.3</ele>
        <time>2026-05-27T13:41:05Z</time>
      </trkpt>
      <trkpt lat="43.18552" lon="2.03269">
        <ele>320.3</ele>
        <time>2026-05-27T13:41:10Z</time>
      </trkpt>
      <trkpt lat="43.18552" lon="2.03269">
        <ele>320.3</ele>
        <time>2026-05-27T13:41:15Z</time>
      </trkpt>
      <trkpt lat="43.18552" lon="2.03269">
        <ele>320.3</ele>
        <time>2026-05-27T13:41:20Z</time>
      </trkpt>
      <trkpt lat="43.18552" lon="2.03269">
        <ele>320.3</ele>
        <time>2026-05-27T13:41:25Z</time>
      </trkpt>
      <trkpt lat="43.18552" lon="2.03269">
        <ele>320.3</ele>
        <time>2026-05-27T13:41:30Z</time>
      </trkpt>
      <trkpt lat="43.18552" lon="2.03269">
        <ele>320.3</ele>
        <time>2026-05-27T13:41:35Z</time>
      </trkpt>
      <trkpt lat="43.18552" lon="2.03269">
        <ele>320.3</ele>
        <time>2026-05-27T13:41:40Z</time>
      </trkpt>
      <trkpt lat="43.18552" lon="2.03269">
        <ele>320.3</ele>
        <time>2026-05-27T13:41:45Z</time>
      </trkpt>
      <trkpt lat="43.18552" lon="2.03269">
        <ele>320.3</ele>
        <time>2026-05-27T13:41:50Z</time>
      </trkpt>
      <trkpt lat="43.18552" lon="2.03269">
        <ele>320.3</ele>
        <time>2026-05-27T13:41:55Z</time>
      </trkpt>
      <trkpt lat="43.18552" lon="2.03269">
        <ele>320.3</ele>
        <time>2026-05-27T13:42:00Z</time>
      </trkpt>
      <trkpt lat="43.18552" lon="2.03269">
        <ele>320.3</ele>
        <time>2026-05-27T13:42:05Z</time>
      </trkpt>
      <trkpt lat="43.18552" lon="2.03269">
        <ele>320.3</ele>
        <time>2026-05-27T13:42:10Z</time>
      </trkpt>
      <trkpt lat="43.18552" lon="2.03269">
        <ele>320.3</ele>
        <time>2026-05-27T13:42:15Z</time>
      </trkpt>
      <trkpt lat="43.18556" lon="2.0327">
        <ele>320.2</ele>
        <time>2026-05-27T13:42:20Z</time>
      </trkpt>
      <trkpt lat="43.18557" lon="2.03266">
        <ele>319.8</ele>
        <time>2026-05-27T13:42:25Z</time>
      </trkpt>
      <trkpt lat="43.1856" lon="2.03264">
        <ele>319.5</ele>
        <time>2026-05-27T13:42:30Z</time>
      </trkpt>
      <trkpt lat="43.18566" lon="2.03269">
        <ele>319.6</ele>
        <time>2026-05-27T13:42:35Z</time>
      </trkpt>
      <trkpt lat="43.18568" lon="2.03277">
        <ele>320.2</ele>
        <time>2026-05-27T13:42:40Z</time>
      </trkpt>
      <trkpt lat="43.18566" lon="2.03285">
        <ele>321</ele>
        <time>2026-05-27T13:42:45Z</time>
      </trkpt>
      <trkpt lat="43.18563" lon="2.03292">
        <ele>321.6</ele>
        <time>2026-05-27T13:42:50Z</time>
      </trkpt>
      <trkpt lat="43.1856" lon="2.03299">
        <ele>322.3</ele>
        <time>2026-05-27T13:42:55Z</time>
      </trkpt>
      <trkpt lat="43.18557" lon="2.03308">
        <ele>323</ele>
        <time>2026-05-27T13:43:00Z</time>
      </trkpt>
      <trkpt lat="43.18556" lon="2.03315">
        <ele>323.6</ele>
        <time>2026-05-27T13:43:05Z</time>
      </trkpt>
      <trkpt lat="43.18558" lon="2.03323">
        <ele>324.2</ele>
        <time>2026-05-27T13:43:10Z</time>
      </trkpt>
      <trkpt lat="43.18554" lon="2.03331">
        <ele>324.8</ele>
        <time>2026-05-27T13:43:15Z</time>
      </trkpt>
      <trkpt lat="43.18553" lon="2.03339">
        <ele>325.4</ele>
        <time>2026-05-27T13:43:20Z</time>
      </trkpt>
      <trkpt lat="43.18552" lon="2.03347">
        <ele>326</ele>
        <time>2026-05-27T13:43:25Z</time>
      </trkpt>
      <trkpt lat="43.18548" lon="2.03356">
        <ele>326.7</ele>
        <time>2026-05-27T13:43:30Z</time>
      </trkpt>
      <trkpt lat="43.18544" lon="2.03362">
        <ele>327.2</ele>
        <time>2026-05-27T13:43:35Z</time>
      </trkpt>
      <trkpt lat="43.18542" lon="2.03369">
        <ele>327.8</ele>
        <time>2026-05-27T13:43:40Z</time>
      </trkpt>
      <trkpt lat="43.1854" lon="2.03377">
        <ele>328.4</ele>
        <time>2026-05-27T13:43:45Z</time>
      </trkpt>
      <trkpt lat="43.18538" lon="2.03386">
        <ele>329.1</ele>
        <time>2026-05-27T13:43:50Z</time>
      </trkpt>
      <trkpt lat="43.18536" lon="2.03394">
        <ele>329.8</ele>
        <time>2026-05-27T13:43:55Z</time>
      </trkpt>
      <trkpt lat="43.18534" lon="2.03399">
        <ele>330.2</ele>
        <time>2026-05-27T13:44:00Z</time>
      </trkpt>
      <trkpt lat="43.18535" lon="2.03402">
        <ele>330.4</ele>
        <time>2026-05-27T13:44:05Z</time>
      </trkpt>
      <trkpt lat="43.18535" lon="2.03403">
        <ele>330.5</ele>
        <time>2026-05-27T13:44:10Z</time>
      </trkpt>
      <trkpt lat="43.18535" lon="2.03403">
        <ele>330.5</ele>
        <time>2026-05-27T13:44:15Z</time>
      </trkpt>
      <trkpt lat="43.18537" lon="2.03414">
        <ele>331.3</ele>
        <time>2026-05-27T13:44:20Z</time>
      </trkpt>
      <trkpt lat="43.18536" lon="2.0342">
        <ele>331.8</ele>
        <time>2026-05-27T13:44:25Z</time>
      </trkpt>
      <trkpt lat="43.18536" lon="2.03425">
        <ele>332.2</ele>
        <time>2026-05-27T13:44:30Z</time>
      </trkpt>
      <trkpt lat="43.18536" lon="2.03425">
        <ele>332.2</ele>
        <time>2026-05-27T13:44:35Z</time>
      </trkpt>
      <trkpt lat="43.18538" lon="2.03428">
        <ele>332.4</ele>
        <time>2026-05-27T13:44:40Z</time>
      </trkpt>
      <trkpt lat="43.18536" lon="2.03436">
        <ele>333.1</ele>
        <time>2026-05-27T13:44:45Z</time>
      </trkpt>
      <trkpt lat="43.18535" lon="2.03445">
        <ele>333.8</ele>
        <time>2026-05-27T13:44:50Z</time>
      </trkpt>
      <trkpt lat="43.18535" lon="2.03453">
        <ele>334.5</ele>
        <time>2026-05-27T13:44:55Z</time>
      </trkpt>
      <trkpt lat="43.18535" lon="2.0346">
        <ele>335</ele>
        <time>2026-05-27T13:45:00Z</time>
      </trkpt>
      <trkpt lat="43.18534" lon="2.03468">
        <ele>335.7</ele>
        <time>2026-05-27T13:45:05Z</time>
      </trkpt>
      <trkpt lat="43.18532" lon="2.03477">
        <ele>336.6</ele>
        <time>2026-05-27T13:45:10Z</time>
      </trkpt>
      <trkpt lat="43.18532" lon="2.03484">
        <ele>337.2</ele>
        <time>2026-05-27T13:45:15Z</time>
      </trkpt>
      <trkpt lat="43.18532" lon="2.03491">
        <ele>337.8</ele>
        <time>2026-05-27T13:45:20Z</time>
      </trkpt>
      <trkpt lat="43.18531" lon="2.03499">
        <ele>338.6</ele>
        <time>2026-05-27T13:45:25Z</time>
      </trkpt>
      <trkpt lat="43.18526" lon="2.03503">
        <ele>339.2</ele>
        <time>2026-05-27T13:45:30Z</time>
      </trkpt>
      <trkpt lat="43.18522" lon="2.03503">
        <ele>339.6</ele>
        <time>2026-05-27T13:45:35Z</time>
      </trkpt>
      <trkpt lat="43.18516" lon="2.03502">
        <ele>340.3</ele>
        <time>2026-05-27T13:45:40Z</time>
      </trkpt>
      <trkpt lat="43.18511" lon="2.03505">
        <ele>340.8</ele>
        <time>2026-05-27T13:45:45Z</time>
      </trkpt>
      <trkpt lat="43.1851" lon="2.03507">
        <ele>341</ele>
        <time>2026-05-27T13:45:50Z</time>
      </trkpt>
      <trkpt lat="43.18508" lon="2.03509">
        <ele>341.2</ele>
        <time>2026-05-27T13:45:55Z</time>
      </trkpt>
      <trkpt lat="43.18511" lon="2.0351">
        <ele>340.9</ele>
        <time>2026-05-27T13:46:00Z</time>
      </trkpt>
      <trkpt lat="43.18519" lon="2.03508">
        <ele>339.9</ele>
        <time>2026-05-27T13:46:05Z</time>
      </trkpt>
      <trkpt lat="43.18526" lon="2.03507">
        <ele>339.1</ele>
        <time>2026-05-27T13:46:10Z</time>
      </trkpt>
      <trkpt lat="43.18532" lon="2.03506">
        <ele>338.5</ele>
        <time>2026-05-27T13:46:15Z</time>
      </trkpt>
      <trkpt lat="43.18533" lon="2.03512">
        <ele>338.3</ele>
        <time>2026-05-27T13:46:20Z</time>
      </trkpt>
      <trkpt lat="43.18536" lon="2.03519">
        <ele>337.8</ele>
        <time>2026-05-27T13:46:25Z</time>
      </trkpt>
      <trkpt lat="43.1854" lon="2.03523">
        <ele>337.3</ele>
        <time>2026-05-27T13:46:30Z</time>
      </trkpt>
      <trkpt lat="43.18543" lon="2.03531">
        <ele>336.8</ele>
        <time>2026-05-27T13:46:35Z</time>
      </trkpt>
      <trkpt lat="43.18545" lon="2.03535">
        <ele>336.4</ele>
        <time>2026-05-27T13:46:40Z</time>
      </trkpt>
      <trkpt lat="43.18549" lon="2.03542">
        <ele>335.7</ele>
        <time>2026-05-27T13:46:45Z</time>
      </trkpt>
      <trkpt lat="43.1855" lon="2.03544">
        <ele>335.5</ele>
        <time>2026-05-27T13:46:50Z</time>
      </trkpt>
      <trkpt lat="43.18549" lon="2.03542">
        <ele>335.7</ele>
        <time>2026-05-27T13:46:55Z</time>
      </trkpt>
      <trkpt lat="43.18547" lon="2.03539">
        <ele>336.1</ele>
        <time>2026-05-27T13:47:00Z</time>
      </trkpt>
      <trkpt lat="43.18545" lon="2.03534">
        <ele>336.4</ele>
        <time>2026-05-27T13:47:05Z</time>
      </trkpt>
      <trkpt lat="43.18541" lon="2.03528">
        <ele>337.1</ele>
        <time>2026-05-27T13:47:10Z</time>
      </trkpt>
      <trkpt lat="43.18538" lon="2.03525">
        <ele>337.5</ele>
        <time>2026-05-27T13:47:15Z</time>
      </trkpt>
      <trkpt lat="43.18536" lon="2.03518">
        <ele>337.9</ele>
        <time>2026-05-27T13:47:20Z</time>
      </trkpt>
      <trkpt lat="43.18536" lon="2.03512">
        <ele>337.9</ele>
        <time>2026-05-27T13:47:25Z</time>
      </trkpt>
      <trkpt lat="43.18534" lon="2.03504">
        <ele>338.3</ele>
        <time>2026-05-27T13:47:30Z</time>
      </trkpt>
      <trkpt lat="43.18533" lon="2.03501">
        <ele>338.4</ele>
        <time>2026-05-27T13:47:35Z</time>
      </trkpt>
      <trkpt lat="43.18528" lon="2.03503">
        <ele>339</ele>
        <time>2026-05-27T13:47:40Z</time>
      </trkpt>
      <trkpt lat="43.18525" lon="2.03507">
        <ele>339.3</ele>
        <time>2026-05-27T13:47:45Z</time>
      </trkpt>
      <trkpt lat="43.18523" lon="2.03507">
        <ele>339.5</ele>
        <time>2026-05-27T13:47:50Z</time>
      </trkpt>
      <trkpt lat="43.1852" lon="2.03505">
        <ele>339.8</ele>
        <time>2026-05-27T13:47:55Z</time>
      </trkpt>
      <trkpt lat="43.18514" lon="2.03506">
        <ele>340.5</ele>
        <time>2026-05-27T13:48:00Z</time>
      </trkpt>
      <trkpt lat="43.18508" lon="2.03504">
        <ele>341.2</ele>
        <time>2026-05-27T13:48:05Z</time>
      </trkpt>
      <trkpt lat="43.18503" lon="2.03501">
        <ele>341.7</ele>
        <time>2026-05-27T13:48:10Z</time>
      </trkpt>
      <trkpt lat="43.18499" lon="2.03497">
        <ele>341.6</ele>
        <time>2026-05-27T13:48:15Z</time>
      </trkpt>
      <trkpt lat="43.18496" lon="2.03489">
        <ele>340.7</ele>
        <time>2026-05-27T13:48:20Z</time>
      </trkpt>
      <trkpt lat="43.18497" lon="2.03481">
        <ele>339.8</ele>
        <time>2026-05-27T13:48:25Z</time>
      </trkpt>
      <trkpt lat="43.18495" lon="2.03474">
        <ele>339</ele>
        <time>2026-05-27T13:48:30Z</time>
      </trkpt>
      <trkpt lat="43.18494" lon="2.03466">
        <ele>338.1</ele>
        <time>2026-05-27T13:48:35Z</time>
      </trkpt>
      <trkpt lat="43.18495" lon="2.03459">
        <ele>337.3</ele>
        <time>2026-05-27T13:48:40Z</time>
      </trkpt>
      <trkpt lat="43.18494" lon="2.03451">
        <ele>336.4</ele>
        <time>2026-05-27T13:48:45Z</time>
      </trkpt>
      <trkpt lat="43.18495" lon="2.03441">
        <ele>335.2</ele>
        <time>2026-05-27T13:48:50Z</time>
      </trkpt>
      <trkpt lat="43.1849" lon="2.03437">
        <ele>335.1</ele>
        <time>2026-05-27T13:48:55Z</time>
      </trkpt>
      <trkpt lat="43.18481" lon="2.03435">
        <ele>335.6</ele>
        <time>2026-05-27T13:49:00Z</time>
      </trkpt>
      <trkpt lat="43.18475" lon="2.03435">
        <ele>336</ele>
        <time>2026-05-27T13:49:05Z</time>
      </trkpt>
      <trkpt lat="43.18467" lon="2.03435">
        <ele>336.6</ele>
        <time>2026-05-27T13:49:10Z</time>
      </trkpt>
      <trkpt lat="43.18462" lon="2.03436">
        <ele>337</ele>
        <time>2026-05-27T13:49:15Z</time>
      </trkpt>
      <trkpt lat="43.18458" lon="2.03434">
        <ele>337.2</ele>
        <time>2026-05-27T13:49:20Z</time>
      </trkpt>
      <trkpt lat="43.18456" lon="2.03431">
        <ele>337.1</ele>
        <time>2026-05-27T13:49:25Z</time>
      </trkpt>
      <trkpt lat="43.18458" lon="2.03425">
        <ele>336.6</ele>
        <time>2026-05-27T13:49:30Z</time>
      </trkpt>
      <trkpt lat="43.18461" lon="2.03422">
        <ele>336.1</ele>
        <time>2026-05-27T13:49:35Z</time>
      </trkpt>
      <trkpt lat="43.18461" lon="2.03421">
        <ele>336</ele>
        <time>2026-05-27T13:49:40Z</time>
      </trkpt>
      <trkpt lat="43.18461" lon="2.03417">
        <ele>335.8</ele>
        <time>2026-05-27T13:49:45Z</time>
      </trkpt>
      <trkpt lat="43.18461" lon="2.03417">
        <ele>335.8</ele>
        <time>2026-05-27T13:49:50Z</time>
      </trkpt>
      <trkpt lat="43.18457" lon="2.03422">
        <ele>336.5</ele>
        <time>2026-05-27T13:49:55Z</time>
      </trkpt>
      <trkpt lat="43.18461" lon="2.03432">
        <ele>336.8</ele>
        <time>2026-05-27T13:50:00Z</time>
      </trkpt>
      <trkpt lat="43.18467" lon="2.0344">
        <ele>337</ele>
        <time>2026-05-27T13:50:05Z</time>
      </trkpt>
      <trkpt lat="43.18467" lon="2.0344">
        <ele>337</ele>
        <time>2026-05-27T13:50:05Z</time>
      </trkpt>
      <trkpt lat="43.18469" lon="2.03438">
        <ele>336.7</ele>
        <time>2026-05-27T13:55:57Z</time>
      </trkpt>
      <trkpt lat="43.18473" lon="2.03443">
        <ele>336.8</ele>
        <time>2026-05-27T13:56:02Z</time>
      </trkpt>
      <trkpt lat="43.18478" lon="2.03442">
        <ele>336.4</ele>
        <time>2026-05-27T13:56:07Z</time>
      </trkpt>
      <trkpt lat="43.18483" lon="2.03445">
        <ele>336.4</ele>
        <time>2026-05-27T13:56:12Z</time>
      </trkpt>
      <trkpt lat="43.18488" lon="2.03444">
        <ele>336</ele>
        <time>2026-05-27T13:56:17Z</time>
      </trkpt>
      <trkpt lat="43.18498" lon="2.03439">
        <ele>334.8</ele>
        <time>2026-05-27T13:56:22Z</time>
      </trkpt>
      <trkpt lat="43.18505" lon="2.03442">
        <ele>334.8</ele>
        <time>2026-05-27T13:56:27Z</time>
      </trkpt>
      <trkpt lat="43.18512" lon="2.03442">
        <ele>334.5</ele>
        <time>2026-05-27T13:56:32Z</time>
      </trkpt>
      <trkpt lat="43.18518" lon="2.03442">
        <ele>334.3</ele>
        <time>2026-05-27T13:56:37Z</time>
      </trkpt>
      <trkpt lat="43.18524" lon="2.03443">
        <ele>334.1</ele>
        <time>2026-05-27T13:56:42Z</time>
      </trkpt>
      <trkpt lat="43.18528" lon="2.03435">
        <ele>333.3</ele>
        <time>2026-05-27T13:56:47Z</time>
      </trkpt>
      <trkpt lat="43.18527" lon="2.03426">
        <ele>332.5</ele>
        <time>2026-05-27T13:56:52Z</time>
      </trkpt>
      <trkpt lat="43.18529" lon="2.03417">
        <ele>331.7</ele>
        <time>2026-05-27T13:56:57Z</time>
      </trkpt>
      <trkpt lat="43.18528" lon="2.03408">
        <ele>331</ele>
        <time>2026-05-27T13:57:02Z</time>
      </trkpt>
      <trkpt lat="43.18527" lon="2.03403">
        <ele>330.6</ele>
        <time>2026-05-27T13:57:07Z</time>
      </trkpt>
      <trkpt lat="43.18528" lon="2.03402">
        <ele>330.5</ele>
        <time>2026-05-27T13:57:12Z</time>
      </trkpt>
      <trkpt lat="43.18528" lon="2.03402">
        <ele>330.5</ele>
        <time>2026-05-27T13:57:17Z</time>
      </trkpt>
      <trkpt lat="43.18528" lon="2.03402">
        <ele>330.5</ele>
        <time>2026-05-27T13:57:22Z</time>
      </trkpt>
      <trkpt lat="43.18528" lon="2.03402">
        <ele>330.5</ele>
        <time>2026-05-27T13:57:27Z</time>
      </trkpt>
      <trkpt lat="43.18528" lon="2.03402">
        <ele>330.5</ele>
        <time>2026-05-27T13:57:32Z</time>
      </trkpt>
      <trkpt lat="43.18528" lon="2.03402">
        <ele>330.5</ele>
        <time>2026-05-27T13:57:37Z</time>
      </trkpt>
      <trkpt lat="43.18528" lon="2.03402">
        <ele>330.5</ele>
        <time>2026-05-27T13:57:42Z</time>
      </trkpt>
      <trkpt lat="43.18528" lon="2.03402">
        <ele>330.5</ele>
        <time>2026-05-27T13:57:47Z</time>
      </trkpt>
      <trkpt lat="43.18528" lon="2.03402">
        <ele>330.5</ele>
        <time>2026-05-27T13:57:52Z</time>
      </trkpt>
      <trkpt lat="43.18528" lon="2.03402">
        <ele>330.5</ele>
        <time>2026-05-27T13:57:57Z</time>
      </trkpt>
      <trkpt lat="43.1852" lon="2.03395">
        <ele>330</ele>
        <time>2026-05-27T13:58:02Z</time>
      </trkpt>
      <trkpt lat="43.18515" lon="2.03393">
        <ele>329.9</ele>
        <time>2026-05-27T13:58:07Z</time>
      </trkpt>
      <trkpt lat="43.18509" lon="2.0339">
        <ele>329.7</ele>
        <time>2026-05-27T13:58:12Z</time>
      </trkpt>
      <trkpt lat="43.18505" lon="2.03389">
        <ele>329.6</ele>
        <time>2026-05-27T13:58:17Z</time>
      </trkpt>
      <trkpt lat="43.18504" lon="2.03387">
        <ele>329.5</ele>
        <time>2026-05-27T13:58:22Z</time>
      </trkpt>
      <trkpt lat="43.18504" lon="2.03387">
        <ele>329.5</ele>
        <time>2026-05-27T13:58:27Z</time>
      </trkpt>
      <trkpt lat="43.18504" lon="2.03387">
        <ele>329.5</ele>
        <time>2026-05-27T13:58:32Z</time>
      </trkpt>
      <trkpt lat="43.18504" lon="2.03387">
        <ele>329.5</ele>
        <time>2026-05-27T13:58:37Z</time>
      </trkpt>
      <trkpt lat="43.18504" lon="2.03387">
        <ele>329.5</ele>
        <time>2026-05-27T13:58:42Z</time>
      </trkpt>
      <trkpt lat="43.18515" lon="2.03392">
        <ele>329.8</ele>
        <time>2026-05-27T13:58:47Z</time>
      </trkpt>
      <trkpt lat="43.18515" lon="2.03392">
        <ele>329.8</ele>
        <time>2026-05-27T13:58:52Z</time>
      </trkpt>
      <trkpt lat="43.18515" lon="2.03392">
        <ele>329.8</ele>
        <time>2026-05-27T13:58:57Z</time>
      </trkpt>
      <trkpt lat="43.18515" lon="2.03392">
        <ele>329.8</ele>
        <time>2026-05-27T13:59:02Z</time>
      </trkpt>
      <trkpt lat="43.18515" lon="2.03392">
        <ele>329.8</ele>
        <time>2026-05-27T13:59:07Z</time>
      </trkpt>
      <trkpt lat="43.18515" lon="2.03392">
        <ele>329.8</ele>
        <time>2026-05-27T13:59:12Z</time>
      </trkpt>
      <trkpt lat="43.18527" lon="2.03392">
        <ele>329.7</ele>
        <time>2026-05-27T13:59:17Z</time>
      </trkpt>
      <trkpt lat="43.18528" lon="2.03389">
        <ele>329.5</ele>
        <time>2026-05-27T13:59:22Z</time>
      </trkpt>
      <trkpt lat="43.1853" lon="2.03387">
        <ele>329.3</ele>
        <time>2026-05-27T13:59:27Z</time>
      </trkpt>
      <trkpt lat="43.18533" lon="2.03385">
        <ele>329.1</ele>
        <time>2026-05-27T13:59:32Z</time>
      </trkpt>
      <trkpt lat="43.18532" lon="2.03389">
        <ele>329.4</ele>
        <time>2026-05-27T13:59:37Z</time>
      </trkpt>
      <trkpt lat="43.18529" lon="2.03396">
        <ele>330</ele>
        <time>2026-05-27T13:59:42Z</time>
      </trkpt>
      <trkpt lat="43.18529" lon="2.03402">
        <ele>330.5</ele>
        <time>2026-05-27T13:59:47Z</time>
      </trkpt>
      <trkpt lat="43.18528" lon="2.03409">
        <ele>331.1</ele>
        <time>2026-05-27T13:59:52Z</time>
      </trkpt>
      <trkpt lat="43.18527" lon="2.03416">
        <ele>331.6</ele>
        <time>2026-05-27T13:59:57Z</time>
      </trkpt>
      <trkpt lat="43.18528" lon="2.03426">
        <ele>332.5</ele>
        <time>2026-05-27T14:00:02Z</time>
      </trkpt>
      <trkpt lat="43.18532" lon="2.03434">
        <ele>333.1</ele>
        <time>2026-05-27T14:00:07Z</time>
      </trkpt>
      <trkpt lat="43.18534" lon="2.03443">
        <ele>333.7</ele>
        <time>2026-05-27T14:00:12Z</time>
      </trkpt>
      <trkpt lat="43.18536" lon="2.03448">
        <ele>334</ele>
        <time>2026-05-27T14:00:17Z</time>
      </trkpt>
      <trkpt lat="43.18536" lon="2.03448">
        <ele>334</ele>
        <time>2026-05-27T14:00:17Z</time>
      </trkpt>
      <trkpt lat="43.18554" lon="2.03448">
        <ele>333.2</ele>
        <time>2026-05-27T14:14:49Z</time>
      </trkpt>
      <trkpt lat="43.1855" lon="2.03459">
        <ele>334</ele>
        <time>2026-05-27T14:14:55Z</time>
      </trkpt>
      <trkpt lat="43.18547" lon="2.03452">
        <ele>333.8</ele>
        <time>2026-05-27T14:15:00Z</time>
      </trkpt>
      <trkpt lat="43.18545" lon="2.03443">
        <ele>333.3</ele>
        <time>2026-05-27T14:15:05Z</time>
      </trkpt>
      <trkpt lat="43.18545" lon="2.03435">
        <ele>332.7</ele>
        <time>2026-05-27T14:15:10Z</time>
      </trkpt>
      <trkpt lat="43.18542" lon="2.03431">
        <ele>332.5</ele>
        <time>2026-05-27T14:15:15Z</time>
      </trkpt>
      <trkpt lat="43.18539" lon="2.03429">
        <ele>332.5</ele>
        <time>2026-05-27T14:15:20Z</time>
      </trkpt>
      <trkpt lat="43.1854" lon="2.03423">
        <ele>332</ele>
        <time>2026-05-27T14:15:25Z</time>
      </trkpt>
      <trkpt lat="43.18542" lon="2.03417">
        <ele>331.5</ele>
        <time>2026-05-27T14:15:30Z</time>
      </trkpt>
      <trkpt lat="43.18541" lon="2.03408">
        <ele>330.8</ele>
        <time>2026-05-27T14:15:35Z</time>
      </trkpt>
      <trkpt lat="43.18541" lon="2.03401">
        <ele>330.3</ele>
        <time>2026-05-27T14:15:40Z</time>
      </trkpt>
      <trkpt lat="43.18542" lon="2.03395">
        <ele>329.8</ele>
        <time>2026-05-27T14:15:45Z</time>
      </trkpt>
      <trkpt lat="43.18541" lon="2.0339">
        <ele>329.4</ele>
        <time>2026-05-27T14:15:50Z</time>
      </trkpt>
      <trkpt lat="43.1854" lon="2.03389">
        <ele>329.4</ele>
        <time>2026-05-27T14:15:55Z</time>
      </trkpt>
      <trkpt lat="43.1854" lon="2.03389">
        <ele>329.4</ele>
        <time>2026-05-27T14:16:00Z</time>
      </trkpt>
    </trkseg>
  </trk>
</gpx>